<?xml version="1.0" encoding="UTF-8" standalone="no" ?>
<gpx xmlns="http://www.topografix.com/GPX/1/1" xmlns:xsi="http://www.w3.org/2001/XMLSchema-instance" xsi:schemaLocation="http://www.topografix.com/GPX/1/1 http://www.topografix.com/GPX/1/1/gpx.xsd" version="1.1" creator="VisuGPX - https://www.visugpx.com">
  <metadata>
    <name>83 - D+  Roquebrune sur Argens</name>
    <desc><![CDATA[83 - D+  Roquebrune sur Argens : Bouverie - sur la piste de la vigie 2023-11-05]]></desc>
  </metadata>
  <trk>
    <name><![CDATA[le Muy sur la piste de la vigie D+ 2023-11-05-02]]></name>
    <trkseg>
      <trkpt lat="43.51329" lon="6.62231">
        <ele>95.1</ele>
        <time>2023-11-05T08:46:54Z</time>
      </trkpt>
      <trkpt lat="43.51328" lon="6.6223">
        <ele>95.1</ele>
        <time>2023-11-05T08:46:55Z</time>
      </trkpt>
      <trkpt lat="43.51328" lon="6.62229">
        <ele>95</ele>
        <time>2023-11-05T08:46:56Z</time>
      </trkpt>
      <trkpt lat="43.51328" lon="6.62229">
        <ele>95</ele>
        <time>2023-11-05T08:46:57Z</time>
      </trkpt>
      <trkpt lat="43.51328" lon="6.62228">
        <ele>95</ele>
        <time>2023-11-05T08:46:58Z</time>
      </trkpt>
      <trkpt lat="43.51328" lon="6.6223">
        <ele>94.8</ele>
        <time>2023-11-05T08:46:59Z</time>
      </trkpt>
      <trkpt lat="43.51328" lon="6.62229">
        <ele>94.8</ele>
        <time>2023-11-05T08:47:00Z</time>
      </trkpt>
      <trkpt lat="43.51328" lon="6.6223">
        <ele>94.7</ele>
        <time>2023-11-05T08:47:01Z</time>
      </trkpt>
      <trkpt lat="43.51328" lon="6.6223">
        <ele>94.5</ele>
        <time>2023-11-05T08:47:02Z</time>
      </trkpt>
      <trkpt lat="43.51327" lon="6.62229">
        <ele>94.5</ele>
        <time>2023-11-05T08:47:03Z</time>
      </trkpt>
      <trkpt lat="43.51327" lon="6.62229">
        <ele>94.5</ele>
        <time>2023-11-05T08:47:04Z</time>
      </trkpt>
      <trkpt lat="43.51326" lon="6.62229">
        <ele>94.4</ele>
        <time>2023-11-05T08:47:05Z</time>
      </trkpt>
      <trkpt lat="43.51326" lon="6.62229">
        <ele>94.4</ele>
        <time>2023-11-05T08:47:06Z</time>
      </trkpt>
      <trkpt lat="43.51325" lon="6.62229">
        <ele>94.4</ele>
        <time>2023-11-05T08:47:07Z</time>
      </trkpt>
      <trkpt lat="43.51325" lon="6.62229">
        <ele>94.4</ele>
        <time>2023-11-05T08:47:08Z</time>
      </trkpt>
      <trkpt lat="43.51325" lon="6.62229">
        <ele>94.4</ele>
        <time>2023-11-05T08:47:09Z</time>
      </trkpt>
      <trkpt lat="43.51325" lon="6.6223">
        <ele>94.2</ele>
        <time>2023-11-05T08:47:10Z</time>
      </trkpt>
      <trkpt lat="43.51325" lon="6.62229">
        <ele>94.3</ele>
        <time>2023-11-05T08:47:11Z</time>
      </trkpt>
      <trkpt lat="43.51325" lon="6.62229">
        <ele>94.5</ele>
        <time>2023-11-05T08:47:12Z</time>
      </trkpt>
      <trkpt lat="43.51325" lon="6.62229">
        <ele>94.5</ele>
        <time>2023-11-05T08:47:13Z</time>
      </trkpt>
      <trkpt lat="43.51325" lon="6.62229">
        <ele>94.5</ele>
        <time>2023-11-05T08:47:14Z</time>
      </trkpt>
      <trkpt lat="43.51325" lon="6.62229">
        <ele>94.2</ele>
        <time>2023-11-05T08:47:15Z</time>
      </trkpt>
      <trkpt lat="43.51325" lon="6.6223">
        <ele>94.2</ele>
        <time>2023-11-05T08:47:16Z</time>
      </trkpt>
      <trkpt lat="43.51325" lon="6.6223">
        <ele>94.3</ele>
        <time>2023-11-05T08:47:17Z</time>
      </trkpt>
      <trkpt lat="43.51325" lon="6.6223">
        <ele>94.3</ele>
        <time>2023-11-05T08:47:18Z</time>
      </trkpt>
      <trkpt lat="43.51325" lon="6.62229">
        <ele>94.5</ele>
        <time>2023-11-05T08:47:19Z</time>
      </trkpt>
      <trkpt lat="43.51326" lon="6.6223">
        <ele>94.6</ele>
        <time>2023-11-05T08:47:20Z</time>
      </trkpt>
      <trkpt lat="43.51326" lon="6.6223">
        <ele>94.4</ele>
        <time>2023-11-05T08:47:21Z</time>
      </trkpt>
      <trkpt lat="43.51327" lon="6.6223">
        <ele>94.3</ele>
        <time>2023-11-05T08:47:22Z</time>
      </trkpt>
      <trkpt lat="43.51327" lon="6.62228">
        <ele>94.4</ele>
        <time>2023-11-05T08:47:23Z</time>
      </trkpt>
      <trkpt lat="43.51328" lon="6.62226">
        <ele>94.4</ele>
        <time>2023-11-05T08:47:24Z</time>
      </trkpt>
      <trkpt lat="43.51328" lon="6.62227">
        <ele>94.3</ele>
        <time>2023-11-05T08:47:25Z</time>
      </trkpt>
      <trkpt lat="43.51327" lon="6.62228">
        <ele>94.4</ele>
        <time>2023-11-05T08:47:26Z</time>
      </trkpt>
      <trkpt lat="43.51326" lon="6.62229">
        <ele>94.5</ele>
        <time>2023-11-05T08:47:27Z</time>
      </trkpt>
      <trkpt lat="43.51326" lon="6.62229">
        <ele>94.5</ele>
        <time>2023-11-05T08:47:28Z</time>
      </trkpt>
      <trkpt lat="43.51326" lon="6.6223">
        <ele>94.5</ele>
        <time>2023-11-05T08:47:29Z</time>
      </trkpt>
      <trkpt lat="43.51325" lon="6.62231">
        <ele>94.6</ele>
        <time>2023-11-05T08:47:30Z</time>
      </trkpt>
      <trkpt lat="43.51325" lon="6.6223">
        <ele>94.6</ele>
        <time>2023-11-05T08:47:31Z</time>
      </trkpt>
      <trkpt lat="43.51325" lon="6.6223">
        <ele>94.5</ele>
        <time>2023-11-05T08:47:32Z</time>
      </trkpt>
      <trkpt lat="43.51326" lon="6.6223">
        <ele>94.5</ele>
        <time>2023-11-05T08:47:33Z</time>
      </trkpt>
      <trkpt lat="43.51326" lon="6.6223">
        <ele>94.5</ele>
        <time>2023-11-05T08:47:34Z</time>
      </trkpt>
      <trkpt lat="43.51326" lon="6.6223">
        <ele>94.5</ele>
        <time>2023-11-05T08:47:35Z</time>
      </trkpt>
      <trkpt lat="43.51326" lon="6.62229">
        <ele>94.5</ele>
        <time>2023-11-05T08:47:36Z</time>
      </trkpt>
      <trkpt lat="43.51326" lon="6.62229">
        <ele>94.4</ele>
        <time>2023-11-05T08:47:37Z</time>
      </trkpt>
      <trkpt lat="43.51326" lon="6.62229">
        <ele>94.4</ele>
        <time>2023-11-05T08:47:38Z</time>
      </trkpt>
      <trkpt lat="43.51326" lon="6.62229">
        <ele>94.3</ele>
        <time>2023-11-05T08:47:39Z</time>
      </trkpt>
      <trkpt lat="43.51326" lon="6.62229">
        <ele>94.3</ele>
        <time>2023-11-05T08:47:40Z</time>
      </trkpt>
      <trkpt lat="43.51326" lon="6.62229">
        <ele>94.2</ele>
        <time>2023-11-05T08:47:41Z</time>
      </trkpt>
      <trkpt lat="43.51327" lon="6.62229">
        <ele>94.3</ele>
        <time>2023-11-05T08:47:42Z</time>
      </trkpt>
      <trkpt lat="43.51327" lon="6.62229">
        <ele>94.3</ele>
        <time>2023-11-05T08:47:43Z</time>
      </trkpt>
      <trkpt lat="43.51326" lon="6.62229">
        <ele>94.3</ele>
        <time>2023-11-05T08:47:44Z</time>
      </trkpt>
      <trkpt lat="43.51326" lon="6.6223">
        <ele>94.2</ele>
        <time>2023-11-05T08:47:45Z</time>
      </trkpt>
      <trkpt lat="43.51326" lon="6.6223">
        <ele>94.2</ele>
        <time>2023-11-05T08:47:46Z</time>
      </trkpt>
      <trkpt lat="43.51326" lon="6.62229">
        <ele>94.1</ele>
        <time>2023-11-05T08:47:47Z</time>
      </trkpt>
      <trkpt lat="43.51326" lon="6.62229">
        <ele>94</ele>
        <time>2023-11-05T08:47:48Z</time>
      </trkpt>
      <trkpt lat="43.51327" lon="6.62229">
        <ele>93.9</ele>
        <time>2023-11-05T08:47:49Z</time>
      </trkpt>
      <trkpt lat="43.51327" lon="6.62228">
        <ele>93.8</ele>
        <time>2023-11-05T08:47:50Z</time>
      </trkpt>
      <trkpt lat="43.51327" lon="6.62228">
        <ele>93.8</ele>
        <time>2023-11-05T08:47:51Z</time>
      </trkpt>
      <trkpt lat="43.51327" lon="6.62228">
        <ele>93.6</ele>
        <time>2023-11-05T08:47:52Z</time>
      </trkpt>
      <trkpt lat="43.51328" lon="6.62228">
        <ele>93.5</ele>
        <time>2023-11-05T08:47:53Z</time>
      </trkpt>
      <trkpt lat="43.51328" lon="6.62228">
        <ele>93.4</ele>
        <time>2023-11-05T08:47:54Z</time>
      </trkpt>
      <trkpt lat="43.51328" lon="6.62228">
        <ele>93.4</ele>
        <time>2023-11-05T08:47:55Z</time>
      </trkpt>
      <trkpt lat="43.51328" lon="6.62229">
        <ele>93.4</ele>
        <time>2023-11-05T08:47:56Z</time>
      </trkpt>
      <trkpt lat="43.51328" lon="6.62229">
        <ele>93.5</ele>
        <time>2023-11-05T08:47:57Z</time>
      </trkpt>
      <trkpt lat="43.51329" lon="6.62229">
        <ele>93.5</ele>
        <time>2023-11-05T08:47:58Z</time>
      </trkpt>
      <trkpt lat="43.51329" lon="6.62229">
        <ele>93.5</ele>
        <time>2023-11-05T08:47:59Z</time>
      </trkpt>
      <trkpt lat="43.51329" lon="6.62228">
        <ele>93.5</ele>
        <time>2023-11-05T08:48:00Z</time>
      </trkpt>
      <trkpt lat="43.51329" lon="6.62228">
        <ele>93.5</ele>
        <time>2023-11-05T08:48:01Z</time>
      </trkpt>
      <trkpt lat="43.51329" lon="6.62228">
        <ele>93.5</ele>
        <time>2023-11-05T08:48:02Z</time>
      </trkpt>
      <trkpt lat="43.51329" lon="6.62228">
        <ele>93.4</ele>
        <time>2023-11-05T08:48:03Z</time>
      </trkpt>
      <trkpt lat="43.51329" lon="6.62228">
        <ele>93.3</ele>
        <time>2023-11-05T08:48:04Z</time>
      </trkpt>
      <trkpt lat="43.51329" lon="6.62228">
        <ele>93.2</ele>
        <time>2023-11-05T08:48:05Z</time>
      </trkpt>
      <trkpt lat="43.51329" lon="6.62227">
        <ele>93.6</ele>
        <time>2023-11-05T08:48:06Z</time>
      </trkpt>
      <trkpt lat="43.51329" lon="6.62227">
        <ele>93.9</ele>
        <time>2023-11-05T08:48:07Z</time>
      </trkpt>
      <trkpt lat="43.51329" lon="6.62228">
        <ele>94.1</ele>
        <time>2023-11-05T08:48:08Z</time>
      </trkpt>
      <trkpt lat="43.51329" lon="6.62227">
        <ele>94.1</ele>
        <time>2023-11-05T08:48:09Z</time>
      </trkpt>
      <trkpt lat="43.51329" lon="6.62227">
        <ele>94.2</ele>
        <time>2023-11-05T08:48:10Z</time>
      </trkpt>
      <trkpt lat="43.51329" lon="6.62226">
        <ele>94.2</ele>
        <time>2023-11-05T08:48:11Z</time>
      </trkpt>
      <trkpt lat="43.51329" lon="6.62226">
        <ele>94</ele>
        <time>2023-11-05T08:48:12Z</time>
      </trkpt>
      <trkpt lat="43.51329" lon="6.62226">
        <ele>93.9</ele>
        <time>2023-11-05T08:48:13Z</time>
      </trkpt>
      <trkpt lat="43.51329" lon="6.62226">
        <ele>93.9</ele>
        <time>2023-11-05T08:48:14Z</time>
      </trkpt>
      <trkpt lat="43.5133" lon="6.62225">
        <ele>93.9</ele>
        <time>2023-11-05T08:48:15Z</time>
      </trkpt>
      <trkpt lat="43.5133" lon="6.62225">
        <ele>93.8</ele>
        <time>2023-11-05T08:48:16Z</time>
      </trkpt>
      <trkpt lat="43.5133" lon="6.62225">
        <ele>93.8</ele>
        <time>2023-11-05T08:48:17Z</time>
      </trkpt>
      <trkpt lat="43.5133" lon="6.62225">
        <ele>93.8</ele>
        <time>2023-11-05T08:48:18Z</time>
      </trkpt>
      <trkpt lat="43.5133" lon="6.62225">
        <ele>94</ele>
        <time>2023-11-05T08:48:19Z</time>
      </trkpt>
      <trkpt lat="43.5133" lon="6.62225">
        <ele>94.1</ele>
        <time>2023-11-05T08:48:20Z</time>
      </trkpt>
      <trkpt lat="43.51331" lon="6.62226">
        <ele>94.3</ele>
        <time>2023-11-05T08:48:21Z</time>
      </trkpt>
      <trkpt lat="43.51331" lon="6.62226">
        <ele>94.3</ele>
        <time>2023-11-05T08:48:22Z</time>
      </trkpt>
      <trkpt lat="43.5133" lon="6.62226">
        <ele>94.4</ele>
        <time>2023-11-05T08:48:23Z</time>
      </trkpt>
      <trkpt lat="43.5133" lon="6.62226">
        <ele>94.5</ele>
        <time>2023-11-05T08:48:24Z</time>
      </trkpt>
      <trkpt lat="43.5133" lon="6.62226">
        <ele>94.5</ele>
        <time>2023-11-05T08:48:25Z</time>
      </trkpt>
      <trkpt lat="43.51329" lon="6.62226">
        <ele>94.3</ele>
        <time>2023-11-05T08:48:26Z</time>
      </trkpt>
      <trkpt lat="43.51329" lon="6.62226">
        <ele>94.2</ele>
        <time>2023-11-05T08:48:27Z</time>
      </trkpt>
      <trkpt lat="43.51329" lon="6.62226">
        <ele>94.2</ele>
        <time>2023-11-05T08:48:28Z</time>
      </trkpt>
      <trkpt lat="43.51329" lon="6.62226">
        <ele>94</ele>
        <time>2023-11-05T08:48:29Z</time>
      </trkpt>
      <trkpt lat="43.51329" lon="6.62226">
        <ele>93.9</ele>
        <time>2023-11-05T08:48:30Z</time>
      </trkpt>
      <trkpt lat="43.51329" lon="6.62227">
        <ele>93.8</ele>
        <time>2023-11-05T08:48:31Z</time>
      </trkpt>
      <trkpt lat="43.51328" lon="6.62227">
        <ele>94</ele>
        <time>2023-11-05T08:48:32Z</time>
      </trkpt>
      <trkpt lat="43.51328" lon="6.62227">
        <ele>94.1</ele>
        <time>2023-11-05T08:48:33Z</time>
      </trkpt>
      <trkpt lat="43.51328" lon="6.62226">
        <ele>94.4</ele>
        <time>2023-11-05T08:48:34Z</time>
      </trkpt>
      <trkpt lat="43.51328" lon="6.62227">
        <ele>94.5</ele>
        <time>2023-11-05T08:48:35Z</time>
      </trkpt>
      <trkpt lat="43.51328" lon="6.62227">
        <ele>94.6</ele>
        <time>2023-11-05T08:48:36Z</time>
      </trkpt>
      <trkpt lat="43.51328" lon="6.62228">
        <ele>94.7</ele>
        <time>2023-11-05T08:48:37Z</time>
      </trkpt>
      <trkpt lat="43.51328" lon="6.62228">
        <ele>94.9</ele>
        <time>2023-11-05T08:48:38Z</time>
      </trkpt>
      <trkpt lat="43.51328" lon="6.62227">
        <ele>95</ele>
        <time>2023-11-05T08:48:39Z</time>
      </trkpt>
      <trkpt lat="43.51328" lon="6.62227">
        <ele>95.1</ele>
        <time>2023-11-05T08:48:40Z</time>
      </trkpt>
      <trkpt lat="43.51328" lon="6.62227">
        <ele>95.2</ele>
        <time>2023-11-05T08:48:41Z</time>
      </trkpt>
      <trkpt lat="43.51327" lon="6.62227">
        <ele>95.3</ele>
        <time>2023-11-05T08:48:42Z</time>
      </trkpt>
      <trkpt lat="43.51327" lon="6.62228">
        <ele>95.3</ele>
        <time>2023-11-05T08:48:43Z</time>
      </trkpt>
      <trkpt lat="43.51327" lon="6.62228">
        <ele>95.2</ele>
        <time>2023-11-05T08:48:44Z</time>
      </trkpt>
      <trkpt lat="43.51327" lon="6.62228">
        <ele>95.3</ele>
        <time>2023-11-05T08:48:45Z</time>
      </trkpt>
      <trkpt lat="43.51327" lon="6.62228">
        <ele>95.1</ele>
        <time>2023-11-05T08:48:46Z</time>
      </trkpt>
      <trkpt lat="43.51327" lon="6.62228">
        <ele>95</ele>
        <time>2023-11-05T08:48:47Z</time>
      </trkpt>
      <trkpt lat="43.51328" lon="6.62228">
        <ele>94.9</ele>
        <time>2023-11-05T08:48:48Z</time>
      </trkpt>
      <trkpt lat="43.51329" lon="6.62227">
        <ele>95</ele>
        <time>2023-11-05T08:48:49Z</time>
      </trkpt>
      <trkpt lat="43.51331" lon="6.62226">
        <ele>94.9</ele>
        <time>2023-11-05T08:48:50Z</time>
      </trkpt>
      <trkpt lat="43.51333" lon="6.62227">
        <ele>94.9</ele>
        <time>2023-11-05T08:48:51Z</time>
      </trkpt>
      <trkpt lat="43.51334" lon="6.62228">
        <ele>94.8</ele>
        <time>2023-11-05T08:48:52Z</time>
      </trkpt>
      <trkpt lat="43.51334" lon="6.62227">
        <ele>94.7</ele>
        <time>2023-11-05T08:48:53Z</time>
      </trkpt>
      <trkpt lat="43.51334" lon="6.62227">
        <ele>94.6</ele>
        <time>2023-11-05T08:48:54Z</time>
      </trkpt>
      <trkpt lat="43.51333" lon="6.62226">
        <ele>94.6</ele>
        <time>2023-11-05T08:48:55Z</time>
      </trkpt>
      <trkpt lat="43.51332" lon="6.62225">
        <ele>94.5</ele>
        <time>2023-11-05T08:48:56Z</time>
      </trkpt>
      <trkpt lat="43.51331" lon="6.62224">
        <ele>94.5</ele>
        <time>2023-11-05T08:48:57Z</time>
      </trkpt>
      <trkpt lat="43.5133" lon="6.62223">
        <ele>94.6</ele>
        <time>2023-11-05T08:48:58Z</time>
      </trkpt>
      <trkpt lat="43.51329" lon="6.62223">
        <ele>94.8</ele>
        <time>2023-11-05T08:48:59Z</time>
      </trkpt>
      <trkpt lat="43.51328" lon="6.62222">
        <ele>94.9</ele>
        <time>2023-11-05T08:49:00Z</time>
      </trkpt>
      <trkpt lat="43.51327" lon="6.62222">
        <ele>95</ele>
        <time>2023-11-05T08:49:01Z</time>
      </trkpt>
      <trkpt lat="43.51326" lon="6.62222">
        <ele>94.9</ele>
        <time>2023-11-05T08:49:02Z</time>
      </trkpt>
      <trkpt lat="43.51325" lon="6.62222">
        <ele>94.8</ele>
        <time>2023-11-05T08:49:03Z</time>
      </trkpt>
      <trkpt lat="43.51324" lon="6.62223">
        <ele>94.8</ele>
        <time>2023-11-05T08:49:04Z</time>
      </trkpt>
      <trkpt lat="43.51323" lon="6.62223">
        <ele>94.7</ele>
        <time>2023-11-05T08:49:05Z</time>
      </trkpt>
      <trkpt lat="43.51322" lon="6.62223">
        <ele>94.9</ele>
        <time>2023-11-05T08:49:06Z</time>
      </trkpt>
      <trkpt lat="43.51321" lon="6.62223">
        <ele>94.9</ele>
        <time>2023-11-05T08:49:07Z</time>
      </trkpt>
      <trkpt lat="43.51321" lon="6.62223">
        <ele>95</ele>
        <time>2023-11-05T08:49:08Z</time>
      </trkpt>
      <trkpt lat="43.51321" lon="6.62222">
        <ele>95.1</ele>
        <time>2023-11-05T08:49:09Z</time>
      </trkpt>
      <trkpt lat="43.5132" lon="6.62222">
        <ele>95.1</ele>
        <time>2023-11-05T08:49:10Z</time>
      </trkpt>
      <trkpt lat="43.5132" lon="6.62222">
        <ele>95.1</ele>
        <time>2023-11-05T08:49:11Z</time>
      </trkpt>
      <trkpt lat="43.5132" lon="6.62223">
        <ele>95.1</ele>
        <time>2023-11-05T08:49:12Z</time>
      </trkpt>
      <trkpt lat="43.51321" lon="6.62223">
        <ele>94.9</ele>
        <time>2023-11-05T08:49:13Z</time>
      </trkpt>
      <trkpt lat="43.51321" lon="6.62224">
        <ele>94.8</ele>
        <time>2023-11-05T08:49:14Z</time>
      </trkpt>
      <trkpt lat="43.51322" lon="6.62224">
        <ele>94.8</ele>
        <time>2023-11-05T08:49:15Z</time>
      </trkpt>
      <trkpt lat="43.51322" lon="6.62225">
        <ele>94.8</ele>
        <time>2023-11-05T08:49:16Z</time>
      </trkpt>
      <trkpt lat="43.51322" lon="6.62225">
        <ele>94.8</ele>
        <time>2023-11-05T08:49:17Z</time>
      </trkpt>
      <trkpt lat="43.51323" lon="6.62225">
        <ele>94.8</ele>
        <time>2023-11-05T08:49:18Z</time>
      </trkpt>
      <trkpt lat="43.51323" lon="6.62225">
        <ele>94.8</ele>
        <time>2023-11-05T08:49:19Z</time>
      </trkpt>
      <trkpt lat="43.51323" lon="6.62225">
        <ele>94.9</ele>
        <time>2023-11-05T08:49:20Z</time>
      </trkpt>
      <trkpt lat="43.51322" lon="6.62225">
        <ele>95</ele>
        <time>2023-11-05T08:49:21Z</time>
      </trkpt>
      <trkpt lat="43.51322" lon="6.62225">
        <ele>95.1</ele>
        <time>2023-11-05T08:49:22Z</time>
      </trkpt>
      <trkpt lat="43.51322" lon="6.62226">
        <ele>95.1</ele>
        <time>2023-11-05T08:49:23Z</time>
      </trkpt>
      <trkpt lat="43.51322" lon="6.62226">
        <ele>95.1</ele>
        <time>2023-11-05T08:49:24Z</time>
      </trkpt>
      <trkpt lat="43.51323" lon="6.62226">
        <ele>95.1</ele>
        <time>2023-11-05T08:49:25Z</time>
      </trkpt>
      <trkpt lat="43.51323" lon="6.62226">
        <ele>95</ele>
        <time>2023-11-05T08:49:26Z</time>
      </trkpt>
      <trkpt lat="43.51323" lon="6.62226">
        <ele>94.9</ele>
        <time>2023-11-05T08:49:27Z</time>
      </trkpt>
      <trkpt lat="43.51323" lon="6.62226">
        <ele>94.9</ele>
        <time>2023-11-05T08:49:28Z</time>
      </trkpt>
      <trkpt lat="43.51323" lon="6.62226">
        <ele>94.9</ele>
        <time>2023-11-05T08:49:29Z</time>
      </trkpt>
      <trkpt lat="43.51323" lon="6.62227">
        <ele>94.8</ele>
        <time>2023-11-05T08:49:30Z</time>
      </trkpt>
      <trkpt lat="43.51323" lon="6.62227">
        <ele>94.9</ele>
        <time>2023-11-05T08:49:31Z</time>
      </trkpt>
      <trkpt lat="43.51324" lon="6.62227">
        <ele>94.8</ele>
        <time>2023-11-05T08:49:32Z</time>
      </trkpt>
      <trkpt lat="43.51324" lon="6.62228">
        <ele>94.8</ele>
        <time>2023-11-05T08:49:33Z</time>
      </trkpt>
      <trkpt lat="43.51325" lon="6.62228">
        <ele>94.7</ele>
        <time>2023-11-05T08:49:34Z</time>
      </trkpt>
      <trkpt lat="43.51325" lon="6.62229">
        <ele>94.9</ele>
        <time>2023-11-05T08:49:35Z</time>
      </trkpt>
      <trkpt lat="43.51326" lon="6.6223">
        <ele>95</ele>
        <time>2023-11-05T08:49:36Z</time>
      </trkpt>
      <trkpt lat="43.51326" lon="6.62232">
        <ele>95</ele>
        <time>2023-11-05T08:49:37Z</time>
      </trkpt>
      <trkpt lat="43.51327" lon="6.62233">
        <ele>95</ele>
        <time>2023-11-05T08:49:38Z</time>
      </trkpt>
      <trkpt lat="43.51327" lon="6.62233">
        <ele>94.8</ele>
        <time>2023-11-05T08:49:39Z</time>
      </trkpt>
      <trkpt lat="43.51328" lon="6.62233">
        <ele>94.6</ele>
        <time>2023-11-05T08:49:40Z</time>
      </trkpt>
      <trkpt lat="43.51328" lon="6.62232">
        <ele>94.6</ele>
        <time>2023-11-05T08:49:41Z</time>
      </trkpt>
      <trkpt lat="43.51328" lon="6.62232">
        <ele>94.7</ele>
        <time>2023-11-05T08:49:42Z</time>
      </trkpt>
      <trkpt lat="43.51327" lon="6.62232">
        <ele>94.8</ele>
        <time>2023-11-05T08:49:43Z</time>
      </trkpt>
      <trkpt lat="43.51327" lon="6.62231">
        <ele>94.7</ele>
        <time>2023-11-05T08:49:44Z</time>
      </trkpt>
      <trkpt lat="43.51326" lon="6.6223">
        <ele>94.7</ele>
        <time>2023-11-05T08:49:45Z</time>
      </trkpt>
      <trkpt lat="43.51326" lon="6.62231">
        <ele>94.7</ele>
        <time>2023-11-05T08:49:46Z</time>
      </trkpt>
      <trkpt lat="43.51326" lon="6.6223">
        <ele>94.7</ele>
        <time>2023-11-05T08:49:47Z</time>
      </trkpt>
      <trkpt lat="43.51326" lon="6.6223">
        <ele>94.7</ele>
        <time>2023-11-05T08:49:48Z</time>
      </trkpt>
      <trkpt lat="43.51326" lon="6.6223">
        <ele>94.7</ele>
        <time>2023-11-05T08:49:49Z</time>
      </trkpt>
      <trkpt lat="43.51325" lon="6.6223">
        <ele>94.8</ele>
        <time>2023-11-05T08:49:50Z</time>
      </trkpt>
      <trkpt lat="43.51325" lon="6.6223">
        <ele>94.8</ele>
        <time>2023-11-05T08:49:51Z</time>
      </trkpt>
      <trkpt lat="43.51325" lon="6.6223">
        <ele>94.7</ele>
        <time>2023-11-05T08:49:52Z</time>
      </trkpt>
      <trkpt lat="43.51325" lon="6.6223">
        <ele>94.7</ele>
        <time>2023-11-05T08:49:53Z</time>
      </trkpt>
      <trkpt lat="43.51324" lon="6.6223">
        <ele>94.7</ele>
        <time>2023-11-05T08:49:54Z</time>
      </trkpt>
      <trkpt lat="43.51324" lon="6.6223">
        <ele>94.7</ele>
        <time>2023-11-05T08:49:55Z</time>
      </trkpt>
      <trkpt lat="43.51324" lon="6.6223">
        <ele>94.7</ele>
        <time>2023-11-05T08:49:56Z</time>
      </trkpt>
      <trkpt lat="43.51324" lon="6.6223">
        <ele>94.6</ele>
        <time>2023-11-05T08:49:57Z</time>
      </trkpt>
      <trkpt lat="43.51325" lon="6.62231">
        <ele>94.5</ele>
        <time>2023-11-05T08:49:58Z</time>
      </trkpt>
      <trkpt lat="43.51325" lon="6.62231">
        <ele>94.4</ele>
        <time>2023-11-05T08:49:59Z</time>
      </trkpt>
      <trkpt lat="43.51324" lon="6.62231">
        <ele>94.3</ele>
        <time>2023-11-05T08:50:00Z</time>
      </trkpt>
      <trkpt lat="43.51325" lon="6.62232">
        <ele>94.2</ele>
        <time>2023-11-05T08:50:01Z</time>
      </trkpt>
      <trkpt lat="43.51325" lon="6.62232">
        <ele>94.1</ele>
        <time>2023-11-05T08:50:02Z</time>
      </trkpt>
      <trkpt lat="43.51325" lon="6.62233">
        <ele>94</ele>
        <time>2023-11-05T08:50:03Z</time>
      </trkpt>
      <trkpt lat="43.51325" lon="6.62233">
        <ele>94</ele>
        <time>2023-11-05T08:50:04Z</time>
      </trkpt>
      <trkpt lat="43.51325" lon="6.62234">
        <ele>94</ele>
        <time>2023-11-05T08:50:05Z</time>
      </trkpt>
      <trkpt lat="43.51325" lon="6.62234">
        <ele>93.9</ele>
        <time>2023-11-05T08:50:06Z</time>
      </trkpt>
      <trkpt lat="43.51326" lon="6.62234">
        <ele>93.8</ele>
        <time>2023-11-05T08:50:07Z</time>
      </trkpt>
      <trkpt lat="43.51326" lon="6.62234">
        <ele>93.8</ele>
        <time>2023-11-05T08:50:08Z</time>
      </trkpt>
      <trkpt lat="43.51326" lon="6.62234">
        <ele>93.9</ele>
        <time>2023-11-05T08:50:09Z</time>
      </trkpt>
      <trkpt lat="43.51326" lon="6.62234">
        <ele>93.8</ele>
        <time>2023-11-05T08:50:10Z</time>
      </trkpt>
      <trkpt lat="43.51326" lon="6.62233">
        <ele>93.9</ele>
        <time>2023-11-05T08:50:11Z</time>
      </trkpt>
      <trkpt lat="43.51325" lon="6.62233">
        <ele>94.1</ele>
        <time>2023-11-05T08:50:12Z</time>
      </trkpt>
      <trkpt lat="43.51325" lon="6.62233">
        <ele>94.4</ele>
        <time>2023-11-05T08:50:13Z</time>
      </trkpt>
      <trkpt lat="43.51325" lon="6.62233">
        <ele>94.7</ele>
        <time>2023-11-05T08:50:14Z</time>
      </trkpt>
      <trkpt lat="43.51325" lon="6.62233">
        <ele>94.6</ele>
        <time>2023-11-05T08:50:15Z</time>
      </trkpt>
      <trkpt lat="43.51325" lon="6.62233">
        <ele>94.4</ele>
        <time>2023-11-05T08:50:16Z</time>
      </trkpt>
      <trkpt lat="43.51325" lon="6.62233">
        <ele>94.2</ele>
        <time>2023-11-05T08:50:17Z</time>
      </trkpt>
      <trkpt lat="43.51325" lon="6.62233">
        <ele>94</ele>
        <time>2023-11-05T08:50:18Z</time>
      </trkpt>
      <trkpt lat="43.51325" lon="6.62233">
        <ele>94</ele>
        <time>2023-11-05T08:50:19Z</time>
      </trkpt>
      <trkpt lat="43.51325" lon="6.62233">
        <ele>94.2</ele>
        <time>2023-11-05T08:50:20Z</time>
      </trkpt>
      <trkpt lat="43.51325" lon="6.62233">
        <ele>94.3</ele>
        <time>2023-11-05T08:50:21Z</time>
      </trkpt>
      <trkpt lat="43.51326" lon="6.62233">
        <ele>94.4</ele>
        <time>2023-11-05T08:50:22Z</time>
      </trkpt>
      <trkpt lat="43.51326" lon="6.62233">
        <ele>94.5</ele>
        <time>2023-11-05T08:50:23Z</time>
      </trkpt>
      <trkpt lat="43.51326" lon="6.62233">
        <ele>94.4</ele>
        <time>2023-11-05T08:50:24Z</time>
      </trkpt>
      <trkpt lat="43.51325" lon="6.62233">
        <ele>94.4</ele>
        <time>2023-11-05T08:50:25Z</time>
      </trkpt>
      <trkpt lat="43.51325" lon="6.62233">
        <ele>94.5</ele>
        <time>2023-11-05T08:50:26Z</time>
      </trkpt>
      <trkpt lat="43.51325" lon="6.62233">
        <ele>94.5</ele>
        <time>2023-11-05T08:50:27Z</time>
      </trkpt>
      <trkpt lat="43.51325" lon="6.62233">
        <ele>94.3</ele>
        <time>2023-11-05T08:50:28Z</time>
      </trkpt>
      <trkpt lat="43.51325" lon="6.62233">
        <ele>94.2</ele>
        <time>2023-11-05T08:50:29Z</time>
      </trkpt>
      <trkpt lat="43.51325" lon="6.62233">
        <ele>94.2</ele>
        <time>2023-11-05T08:50:30Z</time>
      </trkpt>
      <trkpt lat="43.51325" lon="6.62234">
        <ele>94.2</ele>
        <time>2023-11-05T08:50:31Z</time>
      </trkpt>
      <trkpt lat="43.51325" lon="6.62234">
        <ele>94.2</ele>
        <time>2023-11-05T08:50:32Z</time>
      </trkpt>
      <trkpt lat="43.51325" lon="6.62234">
        <ele>94.2</ele>
        <time>2023-11-05T08:50:33Z</time>
      </trkpt>
      <trkpt lat="43.51325" lon="6.62234">
        <ele>94.2</ele>
        <time>2023-11-05T08:50:34Z</time>
      </trkpt>
      <trkpt lat="43.51325" lon="6.62233">
        <ele>94.2</ele>
        <time>2023-11-05T08:50:35Z</time>
      </trkpt>
      <trkpt lat="43.51325" lon="6.62233">
        <ele>94.2</ele>
        <time>2023-11-05T08:50:36Z</time>
      </trkpt>
      <trkpt lat="43.51325" lon="6.62233">
        <ele>94.2</ele>
        <time>2023-11-05T08:50:37Z</time>
      </trkpt>
      <trkpt lat="43.51325" lon="6.62233">
        <ele>94.2</ele>
        <time>2023-11-05T08:50:38Z</time>
      </trkpt>
      <trkpt lat="43.51325" lon="6.62233">
        <ele>94.2</ele>
        <time>2023-11-05T08:50:39Z</time>
      </trkpt>
      <trkpt lat="43.51326" lon="6.62233">
        <ele>94.3</ele>
        <time>2023-11-05T08:50:40Z</time>
      </trkpt>
      <trkpt lat="43.51326" lon="6.62233">
        <ele>94.2</ele>
        <time>2023-11-05T08:50:41Z</time>
      </trkpt>
      <trkpt lat="43.51325" lon="6.62233">
        <ele>94.2</ele>
        <time>2023-11-05T08:50:42Z</time>
      </trkpt>
      <trkpt lat="43.51325" lon="6.62233">
        <ele>94.3</ele>
        <time>2023-11-05T08:50:43Z</time>
      </trkpt>
      <trkpt lat="43.51326" lon="6.62233">
        <ele>94.3</ele>
        <time>2023-11-05T08:50:44Z</time>
      </trkpt>
      <trkpt lat="43.51326" lon="6.62233">
        <ele>94.3</ele>
        <time>2023-11-05T08:50:45Z</time>
      </trkpt>
      <trkpt lat="43.51325" lon="6.62232">
        <ele>94.3</ele>
        <time>2023-11-05T08:50:46Z</time>
      </trkpt>
      <trkpt lat="43.51325" lon="6.62232">
        <ele>94.3</ele>
        <time>2023-11-05T08:50:47Z</time>
      </trkpt>
      <trkpt lat="43.51325" lon="6.62232">
        <ele>94.5</ele>
        <time>2023-11-05T08:50:48Z</time>
      </trkpt>
      <trkpt lat="43.51325" lon="6.62232">
        <ele>94.6</ele>
        <time>2023-11-05T08:50:49Z</time>
      </trkpt>
      <trkpt lat="43.51325" lon="6.62233">
        <ele>94.6</ele>
        <time>2023-11-05T08:50:50Z</time>
      </trkpt>
      <trkpt lat="43.51325" lon="6.62233">
        <ele>94.6</ele>
        <time>2023-11-05T08:50:51Z</time>
      </trkpt>
      <trkpt lat="43.51325" lon="6.62233">
        <ele>94.6</ele>
        <time>2023-11-05T08:50:52Z</time>
      </trkpt>
      <trkpt lat="43.51325" lon="6.62233">
        <ele>94.7</ele>
        <time>2023-11-05T08:50:53Z</time>
      </trkpt>
      <trkpt lat="43.51325" lon="6.62233">
        <ele>94.7</ele>
        <time>2023-11-05T08:50:54Z</time>
      </trkpt>
      <trkpt lat="43.51325" lon="6.62233">
        <ele>94.7</ele>
        <time>2023-11-05T08:50:55Z</time>
      </trkpt>
      <trkpt lat="43.51325" lon="6.62233">
        <ele>94.7</ele>
        <time>2023-11-05T08:50:56Z</time>
      </trkpt>
      <trkpt lat="43.51325" lon="6.62233">
        <ele>94.5</ele>
        <time>2023-11-05T08:50:57Z</time>
      </trkpt>
      <trkpt lat="43.51325" lon="6.62233">
        <ele>94.4</ele>
        <time>2023-11-05T08:50:58Z</time>
      </trkpt>
      <trkpt lat="43.51325" lon="6.62234">
        <ele>94.3</ele>
        <time>2023-11-05T08:50:59Z</time>
      </trkpt>
      <trkpt lat="43.51325" lon="6.62234">
        <ele>94.2</ele>
        <time>2023-11-05T08:51:00Z</time>
      </trkpt>
      <trkpt lat="43.51325" lon="6.62233">
        <ele>94.1</ele>
        <time>2023-11-05T08:51:01Z</time>
      </trkpt>
      <trkpt lat="43.51324" lon="6.62233">
        <ele>94.1</ele>
        <time>2023-11-05T08:51:02Z</time>
      </trkpt>
      <trkpt lat="43.51324" lon="6.62233">
        <ele>93.9</ele>
        <time>2023-11-05T08:51:03Z</time>
      </trkpt>
      <trkpt lat="43.51324" lon="6.62233">
        <ele>93.9</ele>
        <time>2023-11-05T08:51:04Z</time>
      </trkpt>
      <trkpt lat="43.51324" lon="6.62233">
        <ele>93.8</ele>
        <time>2023-11-05T08:51:05Z</time>
      </trkpt>
      <trkpt lat="43.51324" lon="6.62233">
        <ele>93.7</ele>
        <time>2023-11-05T08:51:06Z</time>
      </trkpt>
      <trkpt lat="43.51325" lon="6.62232">
        <ele>93.5</ele>
        <time>2023-11-05T08:51:07Z</time>
      </trkpt>
      <trkpt lat="43.51324" lon="6.62232">
        <ele>93.3</ele>
        <time>2023-11-05T08:51:08Z</time>
      </trkpt>
      <trkpt lat="43.51324" lon="6.62232">
        <ele>93</ele>
        <time>2023-11-05T08:51:09Z</time>
      </trkpt>
      <trkpt lat="43.51324" lon="6.62232">
        <ele>92.7</ele>
        <time>2023-11-05T08:51:10Z</time>
      </trkpt>
      <trkpt lat="43.51324" lon="6.62232">
        <ele>92.7</ele>
        <time>2023-11-05T08:51:11Z</time>
      </trkpt>
      <trkpt lat="43.51324" lon="6.62232">
        <ele>92.7</ele>
        <time>2023-11-05T08:51:12Z</time>
      </trkpt>
      <trkpt lat="43.51324" lon="6.62232">
        <ele>92.8</ele>
        <time>2023-11-05T08:51:13Z</time>
      </trkpt>
      <trkpt lat="43.51324" lon="6.62231">
        <ele>92.9</ele>
        <time>2023-11-05T08:51:14Z</time>
      </trkpt>
      <trkpt lat="43.51324" lon="6.62231">
        <ele>93</ele>
        <time>2023-11-05T08:51:15Z</time>
      </trkpt>
      <trkpt lat="43.51324" lon="6.62231">
        <ele>93.2</ele>
        <time>2023-11-05T08:51:16Z</time>
      </trkpt>
      <trkpt lat="43.51324" lon="6.62231">
        <ele>93.4</ele>
        <time>2023-11-05T08:51:17Z</time>
      </trkpt>
      <trkpt lat="43.51324" lon="6.62231">
        <ele>93.5</ele>
        <time>2023-11-05T08:51:18Z</time>
      </trkpt>
      <trkpt lat="43.51324" lon="6.62231">
        <ele>93.6</ele>
        <time>2023-11-05T08:51:19Z</time>
      </trkpt>
      <trkpt lat="43.51324" lon="6.62231">
        <ele>93.8</ele>
        <time>2023-11-05T08:51:20Z</time>
      </trkpt>
      <trkpt lat="43.51324" lon="6.6223">
        <ele>94</ele>
        <time>2023-11-05T08:51:21Z</time>
      </trkpt>
      <trkpt lat="43.51324" lon="6.6223">
        <ele>94</ele>
        <time>2023-11-05T08:51:22Z</time>
      </trkpt>
      <trkpt lat="43.51323" lon="6.62229">
        <ele>94</ele>
        <time>2023-11-05T08:51:23Z</time>
      </trkpt>
      <trkpt lat="43.51323" lon="6.62229">
        <ele>93.9</ele>
        <time>2023-11-05T08:51:24Z</time>
      </trkpt>
      <trkpt lat="43.51323" lon="6.62229">
        <ele>93.9</ele>
        <time>2023-11-05T08:51:25Z</time>
      </trkpt>
      <trkpt lat="43.51323" lon="6.62229">
        <ele>93.9</ele>
        <time>2023-11-05T08:51:26Z</time>
      </trkpt>
      <trkpt lat="43.51324" lon="6.62228">
        <ele>93.9</ele>
        <time>2023-11-05T08:51:27Z</time>
      </trkpt>
      <trkpt lat="43.51324" lon="6.62229">
        <ele>93.9</ele>
        <time>2023-11-05T08:51:28Z</time>
      </trkpt>
      <trkpt lat="43.51324" lon="6.62228">
        <ele>94</ele>
        <time>2023-11-05T08:51:29Z</time>
      </trkpt>
      <trkpt lat="43.51324" lon="6.62229">
        <ele>94</ele>
        <time>2023-11-05T08:51:30Z</time>
      </trkpt>
      <trkpt lat="43.51324" lon="6.62229">
        <ele>94</ele>
        <time>2023-11-05T08:51:31Z</time>
      </trkpt>
      <trkpt lat="43.51324" lon="6.62228">
        <ele>94.1</ele>
        <time>2023-11-05T08:51:32Z</time>
      </trkpt>
      <trkpt lat="43.51324" lon="6.62228">
        <ele>94.1</ele>
        <time>2023-11-05T08:51:33Z</time>
      </trkpt>
      <trkpt lat="43.51324" lon="6.62228">
        <ele>94.1</ele>
        <time>2023-11-05T08:51:34Z</time>
      </trkpt>
      <trkpt lat="43.51324" lon="6.62228">
        <ele>94.2</ele>
        <time>2023-11-05T08:51:35Z</time>
      </trkpt>
      <trkpt lat="43.51325" lon="6.62228">
        <ele>94.2</ele>
        <time>2023-11-05T08:51:36Z</time>
      </trkpt>
      <trkpt lat="43.51325" lon="6.62228">
        <ele>94.3</ele>
        <time>2023-11-05T08:51:37Z</time>
      </trkpt>
      <trkpt lat="43.51325" lon="6.62228">
        <ele>94.4</ele>
        <time>2023-11-05T08:51:38Z</time>
      </trkpt>
      <trkpt lat="43.51325" lon="6.62228">
        <ele>94.4</ele>
        <time>2023-11-05T08:51:39Z</time>
      </trkpt>
      <trkpt lat="43.51325" lon="6.62228">
        <ele>94.4</ele>
        <time>2023-11-05T08:51:40Z</time>
      </trkpt>
      <trkpt lat="43.51325" lon="6.62228">
        <ele>94.4</ele>
        <time>2023-11-05T08:51:41Z</time>
      </trkpt>
      <trkpt lat="43.51325" lon="6.62228">
        <ele>94.4</ele>
        <time>2023-11-05T08:51:42Z</time>
      </trkpt>
      <trkpt lat="43.51325" lon="6.62227">
        <ele>94.3</ele>
        <time>2023-11-05T08:51:43Z</time>
      </trkpt>
      <trkpt lat="43.51325" lon="6.62227">
        <ele>94.2</ele>
        <time>2023-11-05T08:51:44Z</time>
      </trkpt>
      <trkpt lat="43.51325" lon="6.62227">
        <ele>94.1</ele>
        <time>2023-11-05T08:51:45Z</time>
      </trkpt>
      <trkpt lat="43.51325" lon="6.62227">
        <ele>94</ele>
        <time>2023-11-05T08:51:46Z</time>
      </trkpt>
      <trkpt lat="43.51325" lon="6.62227">
        <ele>93.9</ele>
        <time>2023-11-05T08:51:47Z</time>
      </trkpt>
      <trkpt lat="43.51326" lon="6.62227">
        <ele>93.8</ele>
        <time>2023-11-05T08:51:48Z</time>
      </trkpt>
      <trkpt lat="43.51326" lon="6.62227">
        <ele>93.7</ele>
        <time>2023-11-05T08:51:49Z</time>
      </trkpt>
      <trkpt lat="43.51326" lon="6.62227">
        <ele>93.8</ele>
        <time>2023-11-05T08:51:50Z</time>
      </trkpt>
      <trkpt lat="43.51326" lon="6.62227">
        <ele>93.8</ele>
        <time>2023-11-05T08:51:51Z</time>
      </trkpt>
      <trkpt lat="43.51326" lon="6.62227">
        <ele>93.8</ele>
        <time>2023-11-05T08:51:52Z</time>
      </trkpt>
      <trkpt lat="43.51326" lon="6.62227">
        <ele>93.8</ele>
        <time>2023-11-05T08:51:53Z</time>
      </trkpt>
      <trkpt lat="43.51326" lon="6.62227">
        <ele>93.9</ele>
        <time>2023-11-05T08:51:54Z</time>
      </trkpt>
      <trkpt lat="43.51326" lon="6.62227">
        <ele>94.2</ele>
        <time>2023-11-05T08:51:55Z</time>
      </trkpt>
      <trkpt lat="43.51326" lon="6.62226">
        <ele>94.4</ele>
        <time>2023-11-05T08:51:56Z</time>
      </trkpt>
      <trkpt lat="43.51326" lon="6.62226">
        <ele>94.6</ele>
        <time>2023-11-05T08:51:57Z</time>
      </trkpt>
      <trkpt lat="43.51326" lon="6.62226">
        <ele>94.6</ele>
        <time>2023-11-05T08:51:58Z</time>
      </trkpt>
      <trkpt lat="43.51326" lon="6.62226">
        <ele>94.7</ele>
        <time>2023-11-05T08:51:59Z</time>
      </trkpt>
      <trkpt lat="43.51326" lon="6.62226">
        <ele>94.7</ele>
        <time>2023-11-05T08:52:00Z</time>
      </trkpt>
      <trkpt lat="43.51326" lon="6.62226">
        <ele>94.6</ele>
        <time>2023-11-05T08:52:01Z</time>
      </trkpt>
      <trkpt lat="43.51325" lon="6.62225">
        <ele>94.5</ele>
        <time>2023-11-05T08:52:02Z</time>
      </trkpt>
      <trkpt lat="43.51325" lon="6.62225">
        <ele>94.5</ele>
        <time>2023-11-05T08:52:03Z</time>
      </trkpt>
      <trkpt lat="43.51325" lon="6.62225">
        <ele>94.4</ele>
        <time>2023-11-05T08:52:04Z</time>
      </trkpt>
      <trkpt lat="43.51325" lon="6.62225">
        <ele>94.5</ele>
        <time>2023-11-05T08:52:05Z</time>
      </trkpt>
      <trkpt lat="43.51325" lon="6.62225">
        <ele>94.5</ele>
        <time>2023-11-05T08:52:06Z</time>
      </trkpt>
      <trkpt lat="43.51325" lon="6.62225">
        <ele>94.5</ele>
        <time>2023-11-05T08:52:07Z</time>
      </trkpt>
      <trkpt lat="43.51325" lon="6.62225">
        <ele>94.6</ele>
        <time>2023-11-05T08:52:08Z</time>
      </trkpt>
      <trkpt lat="43.51325" lon="6.62225">
        <ele>94.5</ele>
        <time>2023-11-05T08:52:09Z</time>
      </trkpt>
      <trkpt lat="43.51325" lon="6.62224">
        <ele>94.5</ele>
        <time>2023-11-05T08:52:10Z</time>
      </trkpt>
      <trkpt lat="43.51325" lon="6.62224">
        <ele>94.5</ele>
        <time>2023-11-05T08:52:11Z</time>
      </trkpt>
      <trkpt lat="43.51325" lon="6.62224">
        <ele>94.4</ele>
        <time>2023-11-05T08:52:12Z</time>
      </trkpt>
      <trkpt lat="43.51325" lon="6.62225">
        <ele>94.3</ele>
        <time>2023-11-05T08:52:13Z</time>
      </trkpt>
      <trkpt lat="43.51325" lon="6.62225">
        <ele>94.3</ele>
        <time>2023-11-05T08:52:14Z</time>
      </trkpt>
      <trkpt lat="43.51325" lon="6.62225">
        <ele>94.3</ele>
        <time>2023-11-05T08:52:15Z</time>
      </trkpt>
      <trkpt lat="43.51325" lon="6.62225">
        <ele>94.3</ele>
        <time>2023-11-05T08:52:16Z</time>
      </trkpt>
      <trkpt lat="43.51325" lon="6.62224">
        <ele>94.2</ele>
        <time>2023-11-05T08:52:17Z</time>
      </trkpt>
      <trkpt lat="43.51325" lon="6.62224">
        <ele>94.1</ele>
        <time>2023-11-05T08:52:18Z</time>
      </trkpt>
      <trkpt lat="43.51325" lon="6.62225">
        <ele>94</ele>
        <time>2023-11-05T08:52:19Z</time>
      </trkpt>
      <trkpt lat="43.51325" lon="6.62226">
        <ele>93.9</ele>
        <time>2023-11-05T08:52:20Z</time>
      </trkpt>
      <trkpt lat="43.51325" lon="6.62226">
        <ele>93.9</ele>
        <time>2023-11-05T08:52:21Z</time>
      </trkpt>
      <trkpt lat="43.51324" lon="6.62226">
        <ele>93.8</ele>
        <time>2023-11-05T08:52:22Z</time>
      </trkpt>
      <trkpt lat="43.51324" lon="6.62226">
        <ele>93.8</ele>
        <time>2023-11-05T08:52:23Z</time>
      </trkpt>
      <trkpt lat="43.51324" lon="6.62226">
        <ele>93.8</ele>
        <time>2023-11-05T08:52:24Z</time>
      </trkpt>
      <trkpt lat="43.51324" lon="6.62226">
        <ele>93.7</ele>
        <time>2023-11-05T08:52:25Z</time>
      </trkpt>
      <trkpt lat="43.51324" lon="6.62226">
        <ele>93.7</ele>
        <time>2023-11-05T08:52:26Z</time>
      </trkpt>
      <trkpt lat="43.51324" lon="6.62226">
        <ele>93.6</ele>
        <time>2023-11-05T08:52:27Z</time>
      </trkpt>
      <trkpt lat="43.51324" lon="6.62226">
        <ele>93.6</ele>
        <time>2023-11-05T08:52:28Z</time>
      </trkpt>
      <trkpt lat="43.51324" lon="6.62226">
        <ele>93.6</ele>
        <time>2023-11-05T08:52:29Z</time>
      </trkpt>
      <trkpt lat="43.51324" lon="6.62226">
        <ele>93.5</ele>
        <time>2023-11-05T08:52:30Z</time>
      </trkpt>
      <trkpt lat="43.51324" lon="6.62226">
        <ele>93.5</ele>
        <time>2023-11-05T08:52:31Z</time>
      </trkpt>
      <trkpt lat="43.51324" lon="6.62226">
        <ele>93.4</ele>
        <time>2023-11-05T08:52:32Z</time>
      </trkpt>
      <trkpt lat="43.51324" lon="6.62226">
        <ele>93.5</ele>
        <time>2023-11-05T08:52:33Z</time>
      </trkpt>
      <trkpt lat="43.51324" lon="6.62226">
        <ele>93.5</ele>
        <time>2023-11-05T08:52:34Z</time>
      </trkpt>
      <trkpt lat="43.51324" lon="6.62225">
        <ele>93.6</ele>
        <time>2023-11-05T08:52:35Z</time>
      </trkpt>
      <trkpt lat="43.51324" lon="6.62225">
        <ele>93.7</ele>
        <time>2023-11-05T08:52:36Z</time>
      </trkpt>
      <trkpt lat="43.51323" lon="6.62224">
        <ele>93.6</ele>
        <time>2023-11-05T08:52:37Z</time>
      </trkpt>
      <trkpt lat="43.51323" lon="6.62224">
        <ele>93.5</ele>
        <time>2023-11-05T08:52:38Z</time>
      </trkpt>
      <trkpt lat="43.51323" lon="6.62224">
        <ele>93.5</ele>
        <time>2023-11-05T08:52:39Z</time>
      </trkpt>
      <trkpt lat="43.51323" lon="6.62225">
        <ele>93.4</ele>
        <time>2023-11-05T08:52:40Z</time>
      </trkpt>
      <trkpt lat="43.51323" lon="6.62225">
        <ele>93.4</ele>
        <time>2023-11-05T08:52:41Z</time>
      </trkpt>
      <trkpt lat="43.51323" lon="6.62225">
        <ele>93.4</ele>
        <time>2023-11-05T08:52:42Z</time>
      </trkpt>
      <trkpt lat="43.51323" lon="6.62224">
        <ele>93.5</ele>
        <time>2023-11-05T08:52:43Z</time>
      </trkpt>
      <trkpt lat="43.51323" lon="6.62224">
        <ele>93.5</ele>
        <time>2023-11-05T08:52:44Z</time>
      </trkpt>
      <trkpt lat="43.51323" lon="6.62224">
        <ele>93.5</ele>
        <time>2023-11-05T08:52:45Z</time>
      </trkpt>
      <trkpt lat="43.51323" lon="6.62225">
        <ele>93.5</ele>
        <time>2023-11-05T08:52:46Z</time>
      </trkpt>
      <trkpt lat="43.51323" lon="6.62225">
        <ele>93.5</ele>
        <time>2023-11-05T08:52:47Z</time>
      </trkpt>
      <trkpt lat="43.51323" lon="6.62225">
        <ele>93.6</ele>
        <time>2023-11-05T08:52:48Z</time>
      </trkpt>
      <trkpt lat="43.51323" lon="6.62225">
        <ele>93.6</ele>
        <time>2023-11-05T08:52:49Z</time>
      </trkpt>
      <trkpt lat="43.51323" lon="6.62226">
        <ele>93.6</ele>
        <time>2023-11-05T08:52:50Z</time>
      </trkpt>
      <trkpt lat="43.51323" lon="6.62225">
        <ele>93.6</ele>
        <time>2023-11-05T08:52:51Z</time>
      </trkpt>
      <trkpt lat="43.51323" lon="6.62225">
        <ele>93.7</ele>
        <time>2023-11-05T08:52:52Z</time>
      </trkpt>
      <trkpt lat="43.51323" lon="6.62224">
        <ele>93.7</ele>
        <time>2023-11-05T08:52:53Z</time>
      </trkpt>
      <trkpt lat="43.51323" lon="6.62224">
        <ele>93.7</ele>
        <time>2023-11-05T08:52:54Z</time>
      </trkpt>
      <trkpt lat="43.51323" lon="6.62224">
        <ele>93.6</ele>
        <time>2023-11-05T08:52:55Z</time>
      </trkpt>
      <trkpt lat="43.51323" lon="6.62226">
        <ele>93.7</ele>
        <time>2023-11-05T08:52:56Z</time>
      </trkpt>
      <trkpt lat="43.51324" lon="6.62226">
        <ele>93.7</ele>
        <time>2023-11-05T08:52:57Z</time>
      </trkpt>
      <trkpt lat="43.51324" lon="6.62227">
        <ele>93.7</ele>
        <time>2023-11-05T08:52:58Z</time>
      </trkpt>
      <trkpt lat="43.51324" lon="6.62227">
        <ele>93.6</ele>
        <time>2023-11-05T08:52:59Z</time>
      </trkpt>
      <trkpt lat="43.51324" lon="6.62228">
        <ele>93.6</ele>
        <time>2023-11-05T08:53:00Z</time>
      </trkpt>
      <trkpt lat="43.51324" lon="6.62228">
        <ele>93.4</ele>
        <time>2023-11-05T08:53:01Z</time>
      </trkpt>
      <trkpt lat="43.51324" lon="6.62228">
        <ele>93.4</ele>
        <time>2023-11-05T08:53:02Z</time>
      </trkpt>
      <trkpt lat="43.51323" lon="6.62228">
        <ele>93.4</ele>
        <time>2023-11-05T08:53:03Z</time>
      </trkpt>
      <trkpt lat="43.51322" lon="6.62229">
        <ele>93.5</ele>
        <time>2023-11-05T08:53:04Z</time>
      </trkpt>
      <trkpt lat="43.51321" lon="6.6223">
        <ele>93.7</ele>
        <time>2023-11-05T08:53:05Z</time>
      </trkpt>
      <trkpt lat="43.5132" lon="6.62231">
        <ele>93.8</ele>
        <time>2023-11-05T08:53:06Z</time>
      </trkpt>
      <trkpt lat="43.5132" lon="6.62232">
        <ele>93.8</ele>
        <time>2023-11-05T08:53:07Z</time>
      </trkpt>
      <trkpt lat="43.51319" lon="6.62233">
        <ele>93.7</ele>
        <time>2023-11-05T08:53:08Z</time>
      </trkpt>
      <trkpt lat="43.51318" lon="6.62235">
        <ele>93.8</ele>
        <time>2023-11-05T08:53:09Z</time>
      </trkpt>
      <trkpt lat="43.51318" lon="6.62237">
        <ele>93.7</ele>
        <time>2023-11-05T08:53:10Z</time>
      </trkpt>
      <trkpt lat="43.51318" lon="6.62239">
        <ele>93.8</ele>
        <time>2023-11-05T08:53:11Z</time>
      </trkpt>
      <trkpt lat="43.51318" lon="6.62241">
        <ele>93.9</ele>
        <time>2023-11-05T08:53:12Z</time>
      </trkpt>
      <trkpt lat="43.51318" lon="6.62242">
        <ele>94</ele>
        <time>2023-11-05T08:53:13Z</time>
      </trkpt>
      <trkpt lat="43.51318" lon="6.62243">
        <ele>94</ele>
        <time>2023-11-05T08:53:14Z</time>
      </trkpt>
      <trkpt lat="43.51317" lon="6.62244">
        <ele>94</ele>
        <time>2023-11-05T08:53:15Z</time>
      </trkpt>
      <trkpt lat="43.51318" lon="6.62246">
        <ele>94</ele>
        <time>2023-11-05T08:53:16Z</time>
      </trkpt>
      <trkpt lat="43.51318" lon="6.62247">
        <ele>94</ele>
        <time>2023-11-05T08:53:17Z</time>
      </trkpt>
      <trkpt lat="43.51318" lon="6.62249">
        <ele>94.1</ele>
        <time>2023-11-05T08:53:18Z</time>
      </trkpt>
      <trkpt lat="43.51318" lon="6.6225">
        <ele>94.1</ele>
        <time>2023-11-05T08:53:19Z</time>
      </trkpt>
      <trkpt lat="43.51318" lon="6.62252">
        <ele>94.2</ele>
        <time>2023-11-05T08:53:20Z</time>
      </trkpt>
      <trkpt lat="43.51318" lon="6.62253">
        <ele>94.1</ele>
        <time>2023-11-05T08:53:21Z</time>
      </trkpt>
      <trkpt lat="43.51318" lon="6.62254">
        <ele>94</ele>
        <time>2023-11-05T08:53:22Z</time>
      </trkpt>
      <trkpt lat="43.51317" lon="6.62255">
        <ele>94</ele>
        <time>2023-11-05T08:53:23Z</time>
      </trkpt>
      <trkpt lat="43.51316" lon="6.62256">
        <ele>93.9</ele>
        <time>2023-11-05T08:53:24Z</time>
      </trkpt>
      <trkpt lat="43.51315" lon="6.62257">
        <ele>93.9</ele>
        <time>2023-11-05T08:53:25Z</time>
      </trkpt>
      <trkpt lat="43.51314" lon="6.62258">
        <ele>94</ele>
        <time>2023-11-05T08:53:26Z</time>
      </trkpt>
      <trkpt lat="43.51313" lon="6.62258">
        <ele>93.9</ele>
        <time>2023-11-05T08:53:27Z</time>
      </trkpt>
      <trkpt lat="43.51312" lon="6.62259">
        <ele>94.1</ele>
        <time>2023-11-05T08:53:28Z</time>
      </trkpt>
      <trkpt lat="43.51311" lon="6.62259">
        <ele>94.2</ele>
        <time>2023-11-05T08:53:29Z</time>
      </trkpt>
      <trkpt lat="43.5131" lon="6.62259">
        <ele>94.2</ele>
        <time>2023-11-05T08:53:30Z</time>
      </trkpt>
      <trkpt lat="43.51309" lon="6.6226">
        <ele>94.2</ele>
        <time>2023-11-05T08:53:31Z</time>
      </trkpt>
      <trkpt lat="43.51308" lon="6.62261">
        <ele>94.2</ele>
        <time>2023-11-05T08:53:32Z</time>
      </trkpt>
      <trkpt lat="43.51307" lon="6.62261">
        <ele>94.2</ele>
        <time>2023-11-05T08:53:33Z</time>
      </trkpt>
      <trkpt lat="43.51306" lon="6.62262">
        <ele>94.2</ele>
        <time>2023-11-05T08:53:34Z</time>
      </trkpt>
      <trkpt lat="43.51305" lon="6.62262">
        <ele>94.2</ele>
        <time>2023-11-05T08:53:35Z</time>
      </trkpt>
      <trkpt lat="43.51304" lon="6.62263">
        <ele>94.1</ele>
        <time>2023-11-05T08:53:36Z</time>
      </trkpt>
      <trkpt lat="43.51303" lon="6.62264">
        <ele>94.1</ele>
        <time>2023-11-05T08:53:37Z</time>
      </trkpt>
      <trkpt lat="43.51302" lon="6.62264">
        <ele>94.2</ele>
        <time>2023-11-05T08:53:38Z</time>
      </trkpt>
      <trkpt lat="43.513" lon="6.62265">
        <ele>94</ele>
        <time>2023-11-05T08:53:39Z</time>
      </trkpt>
      <trkpt lat="43.51299" lon="6.62265">
        <ele>93.8</ele>
        <time>2023-11-05T08:53:40Z</time>
      </trkpt>
      <trkpt lat="43.51298" lon="6.62266">
        <ele>93.7</ele>
        <time>2023-11-05T08:53:41Z</time>
      </trkpt>
      <trkpt lat="43.51297" lon="6.62266">
        <ele>93.6</ele>
        <time>2023-11-05T08:53:42Z</time>
      </trkpt>
      <trkpt lat="43.51296" lon="6.62267">
        <ele>93.4</ele>
        <time>2023-11-05T08:53:43Z</time>
      </trkpt>
      <trkpt lat="43.51294" lon="6.62267">
        <ele>93.3</ele>
        <time>2023-11-05T08:53:44Z</time>
      </trkpt>
      <trkpt lat="43.51293" lon="6.62267">
        <ele>93.3</ele>
        <time>2023-11-05T08:53:45Z</time>
      </trkpt>
      <trkpt lat="43.51292" lon="6.62267">
        <ele>93.3</ele>
        <time>2023-11-05T08:53:46Z</time>
      </trkpt>
      <trkpt lat="43.5129" lon="6.62267">
        <ele>93.2</ele>
        <time>2023-11-05T08:53:47Z</time>
      </trkpt>
      <trkpt lat="43.51289" lon="6.62267">
        <ele>93.2</ele>
        <time>2023-11-05T08:53:48Z</time>
      </trkpt>
      <trkpt lat="43.51287" lon="6.62268">
        <ele>93.2</ele>
        <time>2023-11-05T08:53:49Z</time>
      </trkpt>
      <trkpt lat="43.51286" lon="6.62268">
        <ele>93.1</ele>
        <time>2023-11-05T08:53:50Z</time>
      </trkpt>
      <trkpt lat="43.51285" lon="6.62269">
        <ele>93.1</ele>
        <time>2023-11-05T08:53:51Z</time>
      </trkpt>
      <trkpt lat="43.51284" lon="6.62269">
        <ele>93</ele>
        <time>2023-11-05T08:53:52Z</time>
      </trkpt>
      <trkpt lat="43.51283" lon="6.62269">
        <ele>93.1</ele>
        <time>2023-11-05T08:53:53Z</time>
      </trkpt>
      <trkpt lat="43.51282" lon="6.6227">
        <ele>93.1</ele>
        <time>2023-11-05T08:53:54Z</time>
      </trkpt>
      <trkpt lat="43.51281" lon="6.6227">
        <ele>93.1</ele>
        <time>2023-11-05T08:53:55Z</time>
      </trkpt>
      <trkpt lat="43.51279" lon="6.62271">
        <ele>93</ele>
        <time>2023-11-05T08:53:56Z</time>
      </trkpt>
      <trkpt lat="43.51278" lon="6.62271">
        <ele>92.9</ele>
        <time>2023-11-05T08:53:57Z</time>
      </trkpt>
      <trkpt lat="43.51277" lon="6.62272">
        <ele>92.8</ele>
        <time>2023-11-05T08:53:58Z</time>
      </trkpt>
      <trkpt lat="43.51275" lon="6.62272">
        <ele>92.6</ele>
        <time>2023-11-05T08:53:59Z</time>
      </trkpt>
      <trkpt lat="43.51274" lon="6.62273">
        <ele>92.4</ele>
        <time>2023-11-05T08:54:00Z</time>
      </trkpt>
      <trkpt lat="43.51273" lon="6.62273">
        <ele>92.4</ele>
        <time>2023-11-05T08:54:01Z</time>
      </trkpt>
      <trkpt lat="43.51272" lon="6.62274">
        <ele>92.1</ele>
        <time>2023-11-05T08:54:02Z</time>
      </trkpt>
      <trkpt lat="43.51271" lon="6.62275">
        <ele>91.9</ele>
        <time>2023-11-05T08:54:03Z</time>
      </trkpt>
      <trkpt lat="43.5127" lon="6.62276">
        <ele>91.8</ele>
        <time>2023-11-05T08:54:04Z</time>
      </trkpt>
      <trkpt lat="43.51269" lon="6.62276">
        <ele>92</ele>
        <time>2023-11-05T08:54:05Z</time>
      </trkpt>
      <trkpt lat="43.51268" lon="6.62276">
        <ele>92.3</ele>
        <time>2023-11-05T08:54:06Z</time>
      </trkpt>
      <trkpt lat="43.51267" lon="6.62276">
        <ele>92.4</ele>
        <time>2023-11-05T08:54:07Z</time>
      </trkpt>
      <trkpt lat="43.51265" lon="6.62277">
        <ele>92.5</ele>
        <time>2023-11-05T08:54:08Z</time>
      </trkpt>
      <trkpt lat="43.51264" lon="6.62277">
        <ele>92.5</ele>
        <time>2023-11-05T08:54:09Z</time>
      </trkpt>
      <trkpt lat="43.51263" lon="6.62277">
        <ele>92.4</ele>
        <time>2023-11-05T08:54:10Z</time>
      </trkpt>
      <trkpt lat="43.51262" lon="6.62278">
        <ele>92.4</ele>
        <time>2023-11-05T08:54:11Z</time>
      </trkpt>
      <trkpt lat="43.5126" lon="6.62278">
        <ele>92.4</ele>
        <time>2023-11-05T08:54:12Z</time>
      </trkpt>
      <trkpt lat="43.51259" lon="6.62278">
        <ele>92.4</ele>
        <time>2023-11-05T08:54:13Z</time>
      </trkpt>
      <trkpt lat="43.51258" lon="6.62278">
        <ele>92.5</ele>
        <time>2023-11-05T08:54:14Z</time>
      </trkpt>
      <trkpt lat="43.51257" lon="6.62279">
        <ele>92.6</ele>
        <time>2023-11-05T08:54:15Z</time>
      </trkpt>
      <trkpt lat="43.51255" lon="6.62279">
        <ele>92.8</ele>
        <time>2023-11-05T08:54:16Z</time>
      </trkpt>
      <trkpt lat="43.51254" lon="6.62279">
        <ele>92.9</ele>
        <time>2023-11-05T08:54:17Z</time>
      </trkpt>
      <trkpt lat="43.51253" lon="6.62279">
        <ele>93</ele>
        <time>2023-11-05T08:54:18Z</time>
      </trkpt>
      <trkpt lat="43.51252" lon="6.6228">
        <ele>93.1</ele>
        <time>2023-11-05T08:54:19Z</time>
      </trkpt>
      <trkpt lat="43.51251" lon="6.6228">
        <ele>93.3</ele>
        <time>2023-11-05T08:54:20Z</time>
      </trkpt>
      <trkpt lat="43.5125" lon="6.62279">
        <ele>93.4</ele>
        <time>2023-11-05T08:54:21Z</time>
      </trkpt>
      <trkpt lat="43.51248" lon="6.62279">
        <ele>93.7</ele>
        <time>2023-11-05T08:54:22Z</time>
      </trkpt>
      <trkpt lat="43.51247" lon="6.62279">
        <ele>93.7</ele>
        <time>2023-11-05T08:54:23Z</time>
      </trkpt>
      <trkpt lat="43.51246" lon="6.62279">
        <ele>93.8</ele>
        <time>2023-11-05T08:54:24Z</time>
      </trkpt>
      <trkpt lat="43.51245" lon="6.62279">
        <ele>94</ele>
        <time>2023-11-05T08:54:25Z</time>
      </trkpt>
      <trkpt lat="43.51243" lon="6.62279">
        <ele>94</ele>
        <time>2023-11-05T08:54:26Z</time>
      </trkpt>
      <trkpt lat="43.51242" lon="6.62278">
        <ele>94</ele>
        <time>2023-11-05T08:54:27Z</time>
      </trkpt>
      <trkpt lat="43.51241" lon="6.62278">
        <ele>94.1</ele>
        <time>2023-11-05T08:54:28Z</time>
      </trkpt>
      <trkpt lat="43.5124" lon="6.62278">
        <ele>94</ele>
        <time>2023-11-05T08:54:29Z</time>
      </trkpt>
      <trkpt lat="43.51239" lon="6.62278">
        <ele>93.9</ele>
        <time>2023-11-05T08:54:30Z</time>
      </trkpt>
      <trkpt lat="43.51238" lon="6.62277">
        <ele>93.9</ele>
        <time>2023-11-05T08:54:31Z</time>
      </trkpt>
      <trkpt lat="43.51236" lon="6.62277">
        <ele>94.1</ele>
        <time>2023-11-05T08:54:32Z</time>
      </trkpt>
      <trkpt lat="43.51235" lon="6.62276">
        <ele>94.1</ele>
        <time>2023-11-05T08:54:33Z</time>
      </trkpt>
      <trkpt lat="43.51234" lon="6.62276">
        <ele>94.2</ele>
        <time>2023-11-05T08:54:34Z</time>
      </trkpt>
      <trkpt lat="43.51233" lon="6.62276">
        <ele>94.2</ele>
        <time>2023-11-05T08:54:35Z</time>
      </trkpt>
      <trkpt lat="43.51231" lon="6.62275">
        <ele>94.4</ele>
        <time>2023-11-05T08:54:36Z</time>
      </trkpt>
      <trkpt lat="43.5123" lon="6.62275">
        <ele>94.5</ele>
        <time>2023-11-05T08:54:37Z</time>
      </trkpt>
      <trkpt lat="43.51229" lon="6.62274">
        <ele>94.8</ele>
        <time>2023-11-05T08:54:38Z</time>
      </trkpt>
      <trkpt lat="43.51228" lon="6.62274">
        <ele>95</ele>
        <time>2023-11-05T08:54:39Z</time>
      </trkpt>
      <trkpt lat="43.51227" lon="6.62274">
        <ele>95.6</ele>
        <time>2023-11-05T08:54:40Z</time>
      </trkpt>
      <trkpt lat="43.51226" lon="6.62273">
        <ele>95.9</ele>
        <time>2023-11-05T08:54:41Z</time>
      </trkpt>
      <trkpt lat="43.51225" lon="6.62273">
        <ele>96.1</ele>
        <time>2023-11-05T08:54:42Z</time>
      </trkpt>
      <trkpt lat="43.51223" lon="6.62273">
        <ele>96.2</ele>
        <time>2023-11-05T08:54:43Z</time>
      </trkpt>
      <trkpt lat="43.51222" lon="6.62273">
        <ele>95.9</ele>
        <time>2023-11-05T08:54:44Z</time>
      </trkpt>
      <trkpt lat="43.51221" lon="6.62272">
        <ele>95.9</ele>
        <time>2023-11-05T08:54:45Z</time>
      </trkpt>
      <trkpt lat="43.5122" lon="6.62272">
        <ele>95.8</ele>
        <time>2023-11-05T08:54:46Z</time>
      </trkpt>
      <trkpt lat="43.51218" lon="6.62272">
        <ele>95.2</ele>
        <time>2023-11-05T08:54:47Z</time>
      </trkpt>
      <trkpt lat="43.51217" lon="6.62272">
        <ele>95.2</ele>
        <time>2023-11-05T08:54:48Z</time>
      </trkpt>
      <trkpt lat="43.51216" lon="6.62271">
        <ele>95.2</ele>
        <time>2023-11-05T08:54:49Z</time>
      </trkpt>
      <trkpt lat="43.51214" lon="6.62271">
        <ele>95.2</ele>
        <time>2023-11-05T08:54:50Z</time>
      </trkpt>
      <trkpt lat="43.51213" lon="6.62271">
        <ele>95.2</ele>
        <time>2023-11-05T08:54:51Z</time>
      </trkpt>
      <trkpt lat="43.51212" lon="6.62271">
        <ele>95.1</ele>
        <time>2023-11-05T08:54:52Z</time>
      </trkpt>
      <trkpt lat="43.51211" lon="6.62271">
        <ele>95.2</ele>
        <time>2023-11-05T08:54:53Z</time>
      </trkpt>
      <trkpt lat="43.5121" lon="6.62272">
        <ele>95.3</ele>
        <time>2023-11-05T08:54:54Z</time>
      </trkpt>
      <trkpt lat="43.51209" lon="6.62272">
        <ele>95.2</ele>
        <time>2023-11-05T08:54:55Z</time>
      </trkpt>
      <trkpt lat="43.51207" lon="6.62272">
        <ele>95.2</ele>
        <time>2023-11-05T08:54:56Z</time>
      </trkpt>
      <trkpt lat="43.51206" lon="6.62271">
        <ele>95.1</ele>
        <time>2023-11-05T08:54:57Z</time>
      </trkpt>
      <trkpt lat="43.51205" lon="6.62271">
        <ele>94.9</ele>
        <time>2023-11-05T08:54:58Z</time>
      </trkpt>
      <trkpt lat="43.51204" lon="6.6227">
        <ele>94.8</ele>
        <time>2023-11-05T08:54:59Z</time>
      </trkpt>
      <trkpt lat="43.51202" lon="6.62271">
        <ele>94.7</ele>
        <time>2023-11-05T08:55:00Z</time>
      </trkpt>
      <trkpt lat="43.51201" lon="6.62271">
        <ele>94.6</ele>
        <time>2023-11-05T08:55:01Z</time>
      </trkpt>
      <trkpt lat="43.512" lon="6.6227">
        <ele>94.5</ele>
        <time>2023-11-05T08:55:02Z</time>
      </trkpt>
      <trkpt lat="43.51199" lon="6.6227">
        <ele>94.5</ele>
        <time>2023-11-05T08:55:03Z</time>
      </trkpt>
      <trkpt lat="43.51197" lon="6.6227">
        <ele>94.6</ele>
        <time>2023-11-05T08:55:04Z</time>
      </trkpt>
      <trkpt lat="43.51196" lon="6.6227">
        <ele>94.7</ele>
        <time>2023-11-05T08:55:05Z</time>
      </trkpt>
      <trkpt lat="43.51195" lon="6.6227">
        <ele>94.8</ele>
        <time>2023-11-05T08:55:06Z</time>
      </trkpt>
      <trkpt lat="43.51194" lon="6.62269">
        <ele>94.8</ele>
        <time>2023-11-05T08:55:07Z</time>
      </trkpt>
      <trkpt lat="43.51193" lon="6.62269">
        <ele>94.9</ele>
        <time>2023-11-05T08:55:08Z</time>
      </trkpt>
      <trkpt lat="43.51192" lon="6.62269">
        <ele>94.7</ele>
        <time>2023-11-05T08:55:09Z</time>
      </trkpt>
      <trkpt lat="43.5119" lon="6.62268">
        <ele>94.6</ele>
        <time>2023-11-05T08:55:10Z</time>
      </trkpt>
      <trkpt lat="43.51189" lon="6.62267">
        <ele>94.5</ele>
        <time>2023-11-05T08:55:11Z</time>
      </trkpt>
      <trkpt lat="43.51188" lon="6.62266">
        <ele>94.5</ele>
        <time>2023-11-05T08:55:12Z</time>
      </trkpt>
      <trkpt lat="43.51187" lon="6.62265">
        <ele>94.5</ele>
        <time>2023-11-05T08:55:13Z</time>
      </trkpt>
      <trkpt lat="43.51186" lon="6.62264">
        <ele>94.4</ele>
        <time>2023-11-05T08:55:14Z</time>
      </trkpt>
      <trkpt lat="43.51184" lon="6.62263">
        <ele>94.4</ele>
        <time>2023-11-05T08:55:15Z</time>
      </trkpt>
      <trkpt lat="43.51183" lon="6.62261">
        <ele>94.3</ele>
        <time>2023-11-05T08:55:16Z</time>
      </trkpt>
      <trkpt lat="43.51182" lon="6.6226">
        <ele>94.2</ele>
        <time>2023-11-05T08:55:17Z</time>
      </trkpt>
      <trkpt lat="43.51181" lon="6.62259">
        <ele>94.1</ele>
        <time>2023-11-05T08:55:18Z</time>
      </trkpt>
      <trkpt lat="43.5118" lon="6.62258">
        <ele>94</ele>
        <time>2023-11-05T08:55:19Z</time>
      </trkpt>
      <trkpt lat="43.5118" lon="6.62258">
        <ele>94</ele>
        <time>2023-11-05T08:55:20Z</time>
      </trkpt>
      <trkpt lat="43.51179" lon="6.62257">
        <ele>94</ele>
        <time>2023-11-05T08:55:21Z</time>
      </trkpt>
      <trkpt lat="43.51178" lon="6.62256">
        <ele>93.9</ele>
        <time>2023-11-05T08:55:22Z</time>
      </trkpt>
      <trkpt lat="43.51177" lon="6.62256">
        <ele>93.8</ele>
        <time>2023-11-05T08:55:23Z</time>
      </trkpt>
      <trkpt lat="43.51176" lon="6.62255">
        <ele>93.7</ele>
        <time>2023-11-05T08:55:24Z</time>
      </trkpt>
      <trkpt lat="43.51175" lon="6.62254">
        <ele>93.6</ele>
        <time>2023-11-05T08:55:25Z</time>
      </trkpt>
      <trkpt lat="43.51173" lon="6.62254">
        <ele>93.4</ele>
        <time>2023-11-05T08:55:26Z</time>
      </trkpt>
      <trkpt lat="43.51173" lon="6.62253">
        <ele>93.2</ele>
        <time>2023-11-05T08:55:27Z</time>
      </trkpt>
      <trkpt lat="43.51172" lon="6.62253">
        <ele>93</ele>
        <time>2023-11-05T08:55:28Z</time>
      </trkpt>
      <trkpt lat="43.51171" lon="6.62253">
        <ele>92.9</ele>
        <time>2023-11-05T08:55:29Z</time>
      </trkpt>
      <trkpt lat="43.5117" lon="6.62251">
        <ele>92.8</ele>
        <time>2023-11-05T08:55:30Z</time>
      </trkpt>
      <trkpt lat="43.51169" lon="6.6225">
        <ele>92.8</ele>
        <time>2023-11-05T08:55:31Z</time>
      </trkpt>
      <trkpt lat="43.51168" lon="6.62249">
        <ele>92.7</ele>
        <time>2023-11-05T08:55:32Z</time>
      </trkpt>
      <trkpt lat="43.51166" lon="6.62248">
        <ele>92.7</ele>
        <time>2023-11-05T08:55:33Z</time>
      </trkpt>
      <trkpt lat="43.51166" lon="6.62246">
        <ele>92.7</ele>
        <time>2023-11-05T08:55:34Z</time>
      </trkpt>
      <trkpt lat="43.51165" lon="6.62246">
        <ele>92.6</ele>
        <time>2023-11-05T08:55:35Z</time>
      </trkpt>
      <trkpt lat="43.51164" lon="6.62245">
        <ele>92.6</ele>
        <time>2023-11-05T08:55:36Z</time>
      </trkpt>
      <trkpt lat="43.51163" lon="6.62244">
        <ele>92.6</ele>
        <time>2023-11-05T08:55:37Z</time>
      </trkpt>
      <trkpt lat="43.51162" lon="6.62244">
        <ele>92.5</ele>
        <time>2023-11-05T08:55:38Z</time>
      </trkpt>
      <trkpt lat="43.51161" lon="6.62243">
        <ele>92.4</ele>
        <time>2023-11-05T08:55:39Z</time>
      </trkpt>
      <trkpt lat="43.5116" lon="6.62243">
        <ele>92.2</ele>
        <time>2023-11-05T08:55:40Z</time>
      </trkpt>
      <trkpt lat="43.5116" lon="6.62243">
        <ele>92.1</ele>
        <time>2023-11-05T08:55:41Z</time>
      </trkpt>
      <trkpt lat="43.5116" lon="6.62243">
        <ele>92</ele>
        <time>2023-11-05T08:55:42Z</time>
      </trkpt>
      <trkpt lat="43.5116" lon="6.62243">
        <ele>91.9</ele>
        <time>2023-11-05T08:55:43Z</time>
      </trkpt>
      <trkpt lat="43.51159" lon="6.62243">
        <ele>91.9</ele>
        <time>2023-11-05T08:55:44Z</time>
      </trkpt>
      <trkpt lat="43.51159" lon="6.62243">
        <ele>91.9</ele>
        <time>2023-11-05T08:55:45Z</time>
      </trkpt>
      <trkpt lat="43.51159" lon="6.62243">
        <ele>92</ele>
        <time>2023-11-05T08:55:46Z</time>
      </trkpt>
      <trkpt lat="43.51159" lon="6.62243">
        <ele>92</ele>
        <time>2023-11-05T08:55:47Z</time>
      </trkpt>
      <trkpt lat="43.51159" lon="6.62243">
        <ele>91.9</ele>
        <time>2023-11-05T08:55:48Z</time>
      </trkpt>
      <trkpt lat="43.51159" lon="6.62243">
        <ele>91.9</ele>
        <time>2023-11-05T08:55:49Z</time>
      </trkpt>
      <trkpt lat="43.51158" lon="6.62243">
        <ele>91.8</ele>
        <time>2023-11-05T08:55:50Z</time>
      </trkpt>
      <trkpt lat="43.51158" lon="6.62243">
        <ele>91.7</ele>
        <time>2023-11-05T08:55:51Z</time>
      </trkpt>
      <trkpt lat="43.51159" lon="6.62243">
        <ele>91.6</ele>
        <time>2023-11-05T08:55:52Z</time>
      </trkpt>
      <trkpt lat="43.51158" lon="6.62243">
        <ele>91.6</ele>
        <time>2023-11-05T08:55:53Z</time>
      </trkpt>
      <trkpt lat="43.51158" lon="6.62242">
        <ele>91.5</ele>
        <time>2023-11-05T08:55:54Z</time>
      </trkpt>
      <trkpt lat="43.51158" lon="6.62242">
        <ele>91.4</ele>
        <time>2023-11-05T08:55:55Z</time>
      </trkpt>
      <trkpt lat="43.51157" lon="6.62241">
        <ele>91.3</ele>
        <time>2023-11-05T08:55:56Z</time>
      </trkpt>
      <trkpt lat="43.51157" lon="6.62242">
        <ele>91.3</ele>
        <time>2023-11-05T08:55:57Z</time>
      </trkpt>
      <trkpt lat="43.51156" lon="6.62242">
        <ele>91.4</ele>
        <time>2023-11-05T08:55:58Z</time>
      </trkpt>
      <trkpt lat="43.51155" lon="6.62242">
        <ele>91.3</ele>
        <time>2023-11-05T08:55:59Z</time>
      </trkpt>
      <trkpt lat="43.51154" lon="6.62242">
        <ele>91.2</ele>
        <time>2023-11-05T08:56:00Z</time>
      </trkpt>
      <trkpt lat="43.51154" lon="6.62242">
        <ele>91.3</ele>
        <time>2023-11-05T08:56:01Z</time>
      </trkpt>
      <trkpt lat="43.51154" lon="6.62242">
        <ele>91.4</ele>
        <time>2023-11-05T08:56:02Z</time>
      </trkpt>
      <trkpt lat="43.51153" lon="6.62241">
        <ele>91.5</ele>
        <time>2023-11-05T08:56:03Z</time>
      </trkpt>
      <trkpt lat="43.51153" lon="6.62241">
        <ele>91.4</ele>
        <time>2023-11-05T08:56:04Z</time>
      </trkpt>
      <trkpt lat="43.51153" lon="6.62241">
        <ele>91.5</ele>
        <time>2023-11-05T08:56:05Z</time>
      </trkpt>
      <trkpt lat="43.51153" lon="6.62241">
        <ele>91.5</ele>
        <time>2023-11-05T08:56:06Z</time>
      </trkpt>
      <trkpt lat="43.51152" lon="6.62241">
        <ele>91.5</ele>
        <time>2023-11-05T08:56:07Z</time>
      </trkpt>
      <trkpt lat="43.51152" lon="6.62242">
        <ele>91.5</ele>
        <time>2023-11-05T08:56:08Z</time>
      </trkpt>
      <trkpt lat="43.51152" lon="6.62241">
        <ele>91.5</ele>
        <time>2023-11-05T08:56:09Z</time>
      </trkpt>
      <trkpt lat="43.51152" lon="6.62241">
        <ele>91.5</ele>
        <time>2023-11-05T08:56:10Z</time>
      </trkpt>
      <trkpt lat="43.51152" lon="6.62241">
        <ele>91.5</ele>
        <time>2023-11-05T08:56:11Z</time>
      </trkpt>
      <trkpt lat="43.51152" lon="6.62241">
        <ele>91.5</ele>
        <time>2023-11-05T08:56:12Z</time>
      </trkpt>
      <trkpt lat="43.51152" lon="6.62241">
        <ele>91.6</ele>
        <time>2023-11-05T08:56:13Z</time>
      </trkpt>
      <trkpt lat="43.51152" lon="6.62241">
        <ele>91.7</ele>
        <time>2023-11-05T08:56:14Z</time>
      </trkpt>
      <trkpt lat="43.51152" lon="6.62241">
        <ele>91.8</ele>
        <time>2023-11-05T08:56:15Z</time>
      </trkpt>
      <trkpt lat="43.51152" lon="6.62241">
        <ele>92.1</ele>
        <time>2023-11-05T08:56:16Z</time>
      </trkpt>
      <trkpt lat="43.51152" lon="6.62241">
        <ele>92.1</ele>
        <time>2023-11-05T08:56:17Z</time>
      </trkpt>
      <trkpt lat="43.51152" lon="6.62241">
        <ele>92</ele>
        <time>2023-11-05T08:56:18Z</time>
      </trkpt>
      <trkpt lat="43.51152" lon="6.62242">
        <ele>91.9</ele>
        <time>2023-11-05T08:56:19Z</time>
      </trkpt>
      <trkpt lat="43.51152" lon="6.62242">
        <ele>91.8</ele>
        <time>2023-11-05T08:56:20Z</time>
      </trkpt>
      <trkpt lat="43.51152" lon="6.62242">
        <ele>91.7</ele>
        <time>2023-11-05T08:56:21Z</time>
      </trkpt>
      <trkpt lat="43.51152" lon="6.62242">
        <ele>91.7</ele>
        <time>2023-11-05T08:56:22Z</time>
      </trkpt>
      <trkpt lat="43.51152" lon="6.62242">
        <ele>91.5</ele>
        <time>2023-11-05T08:56:23Z</time>
      </trkpt>
      <trkpt lat="43.51152" lon="6.62242">
        <ele>91.4</ele>
        <time>2023-11-05T08:56:24Z</time>
      </trkpt>
      <trkpt lat="43.51152" lon="6.62242">
        <ele>91.2</ele>
        <time>2023-11-05T08:56:25Z</time>
      </trkpt>
      <trkpt lat="43.51152" lon="6.62243">
        <ele>91.2</ele>
        <time>2023-11-05T08:56:26Z</time>
      </trkpt>
      <trkpt lat="43.51153" lon="6.62243">
        <ele>91.2</ele>
        <time>2023-11-05T08:56:27Z</time>
      </trkpt>
      <trkpt lat="43.51152" lon="6.62243">
        <ele>91.1</ele>
        <time>2023-11-05T08:56:28Z</time>
      </trkpt>
      <trkpt lat="43.51152" lon="6.62243">
        <ele>91.3</ele>
        <time>2023-11-05T08:56:29Z</time>
      </trkpt>
      <trkpt lat="43.51152" lon="6.62243">
        <ele>91.2</ele>
        <time>2023-11-05T08:56:30Z</time>
      </trkpt>
      <trkpt lat="43.51152" lon="6.62243">
        <ele>91.2</ele>
        <time>2023-11-05T08:56:31Z</time>
      </trkpt>
      <trkpt lat="43.51152" lon="6.62243">
        <ele>91.2</ele>
        <time>2023-11-05T08:56:32Z</time>
      </trkpt>
      <trkpt lat="43.51152" lon="6.62243">
        <ele>91.1</ele>
        <time>2023-11-05T08:56:33Z</time>
      </trkpt>
      <trkpt lat="43.51152" lon="6.62243">
        <ele>91.1</ele>
        <time>2023-11-05T08:56:34Z</time>
      </trkpt>
      <trkpt lat="43.51152" lon="6.62243">
        <ele>91.1</ele>
        <time>2023-11-05T08:56:35Z</time>
      </trkpt>
      <trkpt lat="43.51152" lon="6.62243">
        <ele>91.1</ele>
        <time>2023-11-05T08:56:36Z</time>
      </trkpt>
      <trkpt lat="43.51152" lon="6.62243">
        <ele>91.1</ele>
        <time>2023-11-05T08:56:37Z</time>
      </trkpt>
      <trkpt lat="43.51152" lon="6.62243">
        <ele>91</ele>
        <time>2023-11-05T08:56:38Z</time>
      </trkpt>
      <trkpt lat="43.51152" lon="6.62243">
        <ele>91</ele>
        <time>2023-11-05T08:56:39Z</time>
      </trkpt>
      <trkpt lat="43.51152" lon="6.62243">
        <ele>91</ele>
        <time>2023-11-05T08:56:40Z</time>
      </trkpt>
      <trkpt lat="43.51152" lon="6.62243">
        <ele>91</ele>
        <time>2023-11-05T08:56:41Z</time>
      </trkpt>
      <trkpt lat="43.51152" lon="6.62243">
        <ele>91</ele>
        <time>2023-11-05T08:56:42Z</time>
      </trkpt>
      <trkpt lat="43.51152" lon="6.62243">
        <ele>90.9</ele>
        <time>2023-11-05T08:56:43Z</time>
      </trkpt>
      <trkpt lat="43.51152" lon="6.62243">
        <ele>90.9</ele>
        <time>2023-11-05T08:56:44Z</time>
      </trkpt>
      <trkpt lat="43.51152" lon="6.62243">
        <ele>90.8</ele>
        <time>2023-11-05T08:56:45Z</time>
      </trkpt>
      <trkpt lat="43.51152" lon="6.62243">
        <ele>90.8</ele>
        <time>2023-11-05T08:56:46Z</time>
      </trkpt>
      <trkpt lat="43.51153" lon="6.62243">
        <ele>90.8</ele>
        <time>2023-11-05T08:56:47Z</time>
      </trkpt>
      <trkpt lat="43.51153" lon="6.62243">
        <ele>90.8</ele>
        <time>2023-11-05T08:56:48Z</time>
      </trkpt>
      <trkpt lat="43.51153" lon="6.62243">
        <ele>90.7</ele>
        <time>2023-11-05T08:56:49Z</time>
      </trkpt>
      <trkpt lat="43.51153" lon="6.62243">
        <ele>90.7</ele>
        <time>2023-11-05T08:56:50Z</time>
      </trkpt>
      <trkpt lat="43.51153" lon="6.62243">
        <ele>90.7</ele>
        <time>2023-11-05T08:56:51Z</time>
      </trkpt>
      <trkpt lat="43.51153" lon="6.62243">
        <ele>90.7</ele>
        <time>2023-11-05T08:56:52Z</time>
      </trkpt>
      <trkpt lat="43.51153" lon="6.62243">
        <ele>90.7</ele>
        <time>2023-11-05T08:56:53Z</time>
      </trkpt>
      <trkpt lat="43.51153" lon="6.62243">
        <ele>90.7</ele>
        <time>2023-11-05T08:56:54Z</time>
      </trkpt>
      <trkpt lat="43.51153" lon="6.62242">
        <ele>90.6</ele>
        <time>2023-11-05T08:56:55Z</time>
      </trkpt>
      <trkpt lat="43.51153" lon="6.62242">
        <ele>90.7</ele>
        <time>2023-11-05T08:56:56Z</time>
      </trkpt>
      <trkpt lat="43.51153" lon="6.62242">
        <ele>90.7</ele>
        <time>2023-11-05T08:56:57Z</time>
      </trkpt>
      <trkpt lat="43.51153" lon="6.62242">
        <ele>90.8</ele>
        <time>2023-11-05T08:56:58Z</time>
      </trkpt>
      <trkpt lat="43.51153" lon="6.62242">
        <ele>90.9</ele>
        <time>2023-11-05T08:56:59Z</time>
      </trkpt>
      <trkpt lat="43.51153" lon="6.62242">
        <ele>91</ele>
        <time>2023-11-05T08:57:00Z</time>
      </trkpt>
      <trkpt lat="43.51153" lon="6.62242">
        <ele>90.9</ele>
        <time>2023-11-05T08:57:01Z</time>
      </trkpt>
      <trkpt lat="43.51153" lon="6.62242">
        <ele>90.8</ele>
        <time>2023-11-05T08:57:02Z</time>
      </trkpt>
      <trkpt lat="43.51153" lon="6.62242">
        <ele>90.9</ele>
        <time>2023-11-05T08:57:03Z</time>
      </trkpt>
      <trkpt lat="43.51153" lon="6.62242">
        <ele>90.8</ele>
        <time>2023-11-05T08:57:04Z</time>
      </trkpt>
      <trkpt lat="43.51153" lon="6.62242">
        <ele>90.7</ele>
        <time>2023-11-05T08:57:05Z</time>
      </trkpt>
      <trkpt lat="43.51153" lon="6.62242">
        <ele>90.6</ele>
        <time>2023-11-05T08:57:06Z</time>
      </trkpt>
      <trkpt lat="43.51154" lon="6.62242">
        <ele>90.6</ele>
        <time>2023-11-05T08:57:07Z</time>
      </trkpt>
      <trkpt lat="43.51154" lon="6.62242">
        <ele>90.5</ele>
        <time>2023-11-05T08:57:08Z</time>
      </trkpt>
      <trkpt lat="43.51154" lon="6.62242">
        <ele>90.5</ele>
        <time>2023-11-05T08:57:09Z</time>
      </trkpt>
      <trkpt lat="43.51154" lon="6.62242">
        <ele>90.4</ele>
        <time>2023-11-05T08:57:10Z</time>
      </trkpt>
      <trkpt lat="43.51154" lon="6.62241">
        <ele>90.5</ele>
        <time>2023-11-05T08:57:11Z</time>
      </trkpt>
      <trkpt lat="43.51154" lon="6.62241">
        <ele>90.5</ele>
        <time>2023-11-05T08:57:12Z</time>
      </trkpt>
      <trkpt lat="43.51154" lon="6.62241">
        <ele>90.6</ele>
        <time>2023-11-05T08:57:13Z</time>
      </trkpt>
      <trkpt lat="43.51153" lon="6.62241">
        <ele>90.7</ele>
        <time>2023-11-05T08:57:14Z</time>
      </trkpt>
      <trkpt lat="43.51154" lon="6.62241">
        <ele>90.6</ele>
        <time>2023-11-05T08:57:15Z</time>
      </trkpt>
      <trkpt lat="43.51154" lon="6.62241">
        <ele>90.7</ele>
        <time>2023-11-05T08:57:16Z</time>
      </trkpt>
      <trkpt lat="43.51154" lon="6.62241">
        <ele>90.7</ele>
        <time>2023-11-05T08:57:17Z</time>
      </trkpt>
      <trkpt lat="43.51154" lon="6.6224">
        <ele>90.7</ele>
        <time>2023-11-05T08:57:18Z</time>
      </trkpt>
      <trkpt lat="43.51154" lon="6.6224">
        <ele>90.8</ele>
        <time>2023-11-05T08:57:19Z</time>
      </trkpt>
      <trkpt lat="43.51154" lon="6.62241">
        <ele>90.7</ele>
        <time>2023-11-05T08:57:20Z</time>
      </trkpt>
      <trkpt lat="43.51153" lon="6.62241">
        <ele>90.6</ele>
        <time>2023-11-05T08:57:21Z</time>
      </trkpt>
      <trkpt lat="43.51153" lon="6.62241">
        <ele>90.6</ele>
        <time>2023-11-05T08:57:22Z</time>
      </trkpt>
      <trkpt lat="43.51153" lon="6.62242">
        <ele>90.6</ele>
        <time>2023-11-05T08:57:23Z</time>
      </trkpt>
      <trkpt lat="43.51153" lon="6.62242">
        <ele>90.5</ele>
        <time>2023-11-05T08:57:24Z</time>
      </trkpt>
      <trkpt lat="43.51153" lon="6.62242">
        <ele>90.5</ele>
        <time>2023-11-05T08:57:25Z</time>
      </trkpt>
      <trkpt lat="43.51153" lon="6.62242">
        <ele>90.3</ele>
        <time>2023-11-05T08:57:26Z</time>
      </trkpt>
      <trkpt lat="43.51153" lon="6.62242">
        <ele>90.3</ele>
        <time>2023-11-05T08:57:27Z</time>
      </trkpt>
      <trkpt lat="43.51153" lon="6.62242">
        <ele>90.3</ele>
        <time>2023-11-05T08:57:28Z</time>
      </trkpt>
      <trkpt lat="43.51153" lon="6.62242">
        <ele>90.4</ele>
        <time>2023-11-05T08:57:29Z</time>
      </trkpt>
      <trkpt lat="43.51152" lon="6.62242">
        <ele>90.3</ele>
        <time>2023-11-05T08:57:30Z</time>
      </trkpt>
      <trkpt lat="43.51152" lon="6.62242">
        <ele>90.3</ele>
        <time>2023-11-05T08:57:31Z</time>
      </trkpt>
      <trkpt lat="43.51152" lon="6.62242">
        <ele>90.3</ele>
        <time>2023-11-05T08:57:32Z</time>
      </trkpt>
      <trkpt lat="43.51152" lon="6.62242">
        <ele>90.4</ele>
        <time>2023-11-05T08:57:33Z</time>
      </trkpt>
      <trkpt lat="43.51152" lon="6.62242">
        <ele>90.4</ele>
        <time>2023-11-05T08:57:34Z</time>
      </trkpt>
      <trkpt lat="43.51152" lon="6.62242">
        <ele>90.5</ele>
        <time>2023-11-05T08:57:35Z</time>
      </trkpt>
      <trkpt lat="43.51152" lon="6.62242">
        <ele>90.6</ele>
        <time>2023-11-05T08:57:36Z</time>
      </trkpt>
      <trkpt lat="43.51152" lon="6.62242">
        <ele>90.6</ele>
        <time>2023-11-05T08:57:37Z</time>
      </trkpt>
      <trkpt lat="43.51151" lon="6.62242">
        <ele>90.6</ele>
        <time>2023-11-05T08:57:38Z</time>
      </trkpt>
      <trkpt lat="43.5115" lon="6.62242">
        <ele>90.5</ele>
        <time>2023-11-05T08:57:39Z</time>
      </trkpt>
      <trkpt lat="43.5115" lon="6.62243">
        <ele>90.5</ele>
        <time>2023-11-05T08:57:40Z</time>
      </trkpt>
      <trkpt lat="43.51149" lon="6.62244">
        <ele>90.4</ele>
        <time>2023-11-05T08:57:41Z</time>
      </trkpt>
      <trkpt lat="43.51148" lon="6.62245">
        <ele>90.3</ele>
        <time>2023-11-05T08:57:42Z</time>
      </trkpt>
      <trkpt lat="43.51148" lon="6.62245">
        <ele>90.1</ele>
        <time>2023-11-05T08:57:43Z</time>
      </trkpt>
      <trkpt lat="43.51147" lon="6.62246">
        <ele>90</ele>
        <time>2023-11-05T08:57:44Z</time>
      </trkpt>
      <trkpt lat="43.51146" lon="6.62248">
        <ele>90</ele>
        <time>2023-11-05T08:57:45Z</time>
      </trkpt>
      <trkpt lat="43.51145" lon="6.62249">
        <ele>90</ele>
        <time>2023-11-05T08:57:46Z</time>
      </trkpt>
      <trkpt lat="43.51145" lon="6.6225">
        <ele>89.8</ele>
        <time>2023-11-05T08:57:47Z</time>
      </trkpt>
      <trkpt lat="43.51144" lon="6.62251">
        <ele>89.8</ele>
        <time>2023-11-05T08:57:48Z</time>
      </trkpt>
      <trkpt lat="43.51144" lon="6.62252">
        <ele>89.8</ele>
        <time>2023-11-05T08:57:49Z</time>
      </trkpt>
      <trkpt lat="43.51144" lon="6.62252">
        <ele>89.8</ele>
        <time>2023-11-05T08:57:50Z</time>
      </trkpt>
      <trkpt lat="43.51144" lon="6.62254">
        <ele>89.8</ele>
        <time>2023-11-05T08:57:51Z</time>
      </trkpt>
      <trkpt lat="43.51144" lon="6.62254">
        <ele>90.1</ele>
        <time>2023-11-05T08:57:52Z</time>
      </trkpt>
      <trkpt lat="43.51144" lon="6.62256">
        <ele>90.2</ele>
        <time>2023-11-05T08:57:53Z</time>
      </trkpt>
      <trkpt lat="43.51144" lon="6.62257">
        <ele>90.3</ele>
        <time>2023-11-05T08:57:54Z</time>
      </trkpt>
      <trkpt lat="43.51144" lon="6.62257">
        <ele>90.3</ele>
        <time>2023-11-05T08:57:55Z</time>
      </trkpt>
      <trkpt lat="43.51144" lon="6.62258">
        <ele>90.4</ele>
        <time>2023-11-05T08:57:56Z</time>
      </trkpt>
      <trkpt lat="43.51144" lon="6.6226">
        <ele>90.6</ele>
        <time>2023-11-05T08:57:57Z</time>
      </trkpt>
      <trkpt lat="43.51144" lon="6.62262">
        <ele>90.7</ele>
        <time>2023-11-05T08:57:58Z</time>
      </trkpt>
      <trkpt lat="43.51145" lon="6.62264">
        <ele>90.9</ele>
        <time>2023-11-05T08:57:59Z</time>
      </trkpt>
      <trkpt lat="43.51145" lon="6.62265">
        <ele>91</ele>
        <time>2023-11-05T08:58:00Z</time>
      </trkpt>
      <trkpt lat="43.51146" lon="6.62266">
        <ele>91</ele>
        <time>2023-11-05T08:58:01Z</time>
      </trkpt>
      <trkpt lat="43.51146" lon="6.62267">
        <ele>91.1</ele>
        <time>2023-11-05T08:58:02Z</time>
      </trkpt>
      <trkpt lat="43.51147" lon="6.62267">
        <ele>91.1</ele>
        <time>2023-11-05T08:58:03Z</time>
      </trkpt>
      <trkpt lat="43.51147" lon="6.62268">
        <ele>91.3</ele>
        <time>2023-11-05T08:58:04Z</time>
      </trkpt>
      <trkpt lat="43.51147" lon="6.6227">
        <ele>91.4</ele>
        <time>2023-11-05T08:58:05Z</time>
      </trkpt>
      <trkpt lat="43.51147" lon="6.62271">
        <ele>91.4</ele>
        <time>2023-11-05T08:58:06Z</time>
      </trkpt>
      <trkpt lat="43.51146" lon="6.62272">
        <ele>91.5</ele>
        <time>2023-11-05T08:58:07Z</time>
      </trkpt>
      <trkpt lat="43.51146" lon="6.62273">
        <ele>91.6</ele>
        <time>2023-11-05T08:58:08Z</time>
      </trkpt>
      <trkpt lat="43.51147" lon="6.62274">
        <ele>91.7</ele>
        <time>2023-11-05T08:58:09Z</time>
      </trkpt>
      <trkpt lat="43.51147" lon="6.62275">
        <ele>91.7</ele>
        <time>2023-11-05T08:58:10Z</time>
      </trkpt>
      <trkpt lat="43.51147" lon="6.62277">
        <ele>91.7</ele>
        <time>2023-11-05T08:58:11Z</time>
      </trkpt>
      <trkpt lat="43.51147" lon="6.62278">
        <ele>91.7</ele>
        <time>2023-11-05T08:58:12Z</time>
      </trkpt>
      <trkpt lat="43.51147" lon="6.6228">
        <ele>91.7</ele>
        <time>2023-11-05T08:58:13Z</time>
      </trkpt>
      <trkpt lat="43.51146" lon="6.62282">
        <ele>91.7</ele>
        <time>2023-11-05T08:58:14Z</time>
      </trkpt>
      <trkpt lat="43.51146" lon="6.62284">
        <ele>91.7</ele>
        <time>2023-11-05T08:58:15Z</time>
      </trkpt>
      <trkpt lat="43.51146" lon="6.62286">
        <ele>91.5</ele>
        <time>2023-11-05T08:58:16Z</time>
      </trkpt>
      <trkpt lat="43.51146" lon="6.62288">
        <ele>91.4</ele>
        <time>2023-11-05T08:58:17Z</time>
      </trkpt>
      <trkpt lat="43.51146" lon="6.6229">
        <ele>91.3</ele>
        <time>2023-11-05T08:58:18Z</time>
      </trkpt>
      <trkpt lat="43.51145" lon="6.62292">
        <ele>91.2</ele>
        <time>2023-11-05T08:58:19Z</time>
      </trkpt>
      <trkpt lat="43.51145" lon="6.62293">
        <ele>91.1</ele>
        <time>2023-11-05T08:58:20Z</time>
      </trkpt>
      <trkpt lat="43.51145" lon="6.62295">
        <ele>91</ele>
        <time>2023-11-05T08:58:21Z</time>
      </trkpt>
      <trkpt lat="43.51146" lon="6.62297">
        <ele>90.8</ele>
        <time>2023-11-05T08:58:22Z</time>
      </trkpt>
      <trkpt lat="43.51146" lon="6.62299">
        <ele>90.6</ele>
        <time>2023-11-05T08:58:23Z</time>
      </trkpt>
      <trkpt lat="43.51146" lon="6.62301">
        <ele>90.5</ele>
        <time>2023-11-05T08:58:24Z</time>
      </trkpt>
      <trkpt lat="43.51145" lon="6.62302">
        <ele>90.4</ele>
        <time>2023-11-05T08:58:25Z</time>
      </trkpt>
      <trkpt lat="43.51146" lon="6.62304">
        <ele>90.3</ele>
        <time>2023-11-05T08:58:26Z</time>
      </trkpt>
      <trkpt lat="43.51145" lon="6.62306">
        <ele>90.2</ele>
        <time>2023-11-05T08:58:27Z</time>
      </trkpt>
      <trkpt lat="43.51146" lon="6.62308">
        <ele>90</ele>
        <time>2023-11-05T08:58:28Z</time>
      </trkpt>
      <trkpt lat="43.51146" lon="6.62309">
        <ele>89.9</ele>
        <time>2023-11-05T08:58:29Z</time>
      </trkpt>
      <trkpt lat="43.51146" lon="6.62311">
        <ele>89.7</ele>
        <time>2023-11-05T08:58:30Z</time>
      </trkpt>
      <trkpt lat="43.51146" lon="6.62313">
        <ele>89.5</ele>
        <time>2023-11-05T08:58:31Z</time>
      </trkpt>
      <trkpt lat="43.51145" lon="6.62315">
        <ele>89.3</ele>
        <time>2023-11-05T08:58:32Z</time>
      </trkpt>
      <trkpt lat="43.51145" lon="6.62317">
        <ele>89.2</ele>
        <time>2023-11-05T08:58:33Z</time>
      </trkpt>
      <trkpt lat="43.51145" lon="6.62319">
        <ele>88.9</ele>
        <time>2023-11-05T08:58:34Z</time>
      </trkpt>
      <trkpt lat="43.51145" lon="6.62321">
        <ele>88.7</ele>
        <time>2023-11-05T08:58:35Z</time>
      </trkpt>
      <trkpt lat="43.51145" lon="6.62323">
        <ele>88.5</ele>
        <time>2023-11-05T08:58:36Z</time>
      </trkpt>
      <trkpt lat="43.51145" lon="6.62325">
        <ele>88.3</ele>
        <time>2023-11-05T08:58:37Z</time>
      </trkpt>
      <trkpt lat="43.51145" lon="6.62326">
        <ele>88.1</ele>
        <time>2023-11-05T08:58:38Z</time>
      </trkpt>
      <trkpt lat="43.51145" lon="6.62328">
        <ele>87.8</ele>
        <time>2023-11-05T08:58:39Z</time>
      </trkpt>
      <trkpt lat="43.51145" lon="6.62329">
        <ele>87.6</ele>
        <time>2023-11-05T08:58:40Z</time>
      </trkpt>
      <trkpt lat="43.51145" lon="6.62331">
        <ele>87.4</ele>
        <time>2023-11-05T08:58:41Z</time>
      </trkpt>
      <trkpt lat="43.51145" lon="6.62333">
        <ele>87.1</ele>
        <time>2023-11-05T08:58:42Z</time>
      </trkpt>
      <trkpt lat="43.51145" lon="6.62334">
        <ele>86.8</ele>
        <time>2023-11-05T08:58:43Z</time>
      </trkpt>
      <trkpt lat="43.51145" lon="6.62336">
        <ele>86.6</ele>
        <time>2023-11-05T08:58:44Z</time>
      </trkpt>
      <trkpt lat="43.51145" lon="6.62338">
        <ele>86.5</ele>
        <time>2023-11-05T08:58:45Z</time>
      </trkpt>
      <trkpt lat="43.51145" lon="6.6234">
        <ele>86.3</ele>
        <time>2023-11-05T08:58:46Z</time>
      </trkpt>
      <trkpt lat="43.51145" lon="6.62341">
        <ele>86.1</ele>
        <time>2023-11-05T08:58:47Z</time>
      </trkpt>
      <trkpt lat="43.51145" lon="6.62343">
        <ele>85.9</ele>
        <time>2023-11-05T08:58:48Z</time>
      </trkpt>
      <trkpt lat="43.51145" lon="6.62345">
        <ele>85.8</ele>
        <time>2023-11-05T08:58:49Z</time>
      </trkpt>
      <trkpt lat="43.51145" lon="6.62346">
        <ele>85.7</ele>
        <time>2023-11-05T08:58:50Z</time>
      </trkpt>
      <trkpt lat="43.51144" lon="6.62348">
        <ele>85.6</ele>
        <time>2023-11-05T08:58:51Z</time>
      </trkpt>
      <trkpt lat="43.51144" lon="6.6235">
        <ele>85.5</ele>
        <time>2023-11-05T08:58:52Z</time>
      </trkpt>
      <trkpt lat="43.51144" lon="6.62352">
        <ele>85.6</ele>
        <time>2023-11-05T08:58:53Z</time>
      </trkpt>
      <trkpt lat="43.51144" lon="6.62353">
        <ele>85.6</ele>
        <time>2023-11-05T08:58:54Z</time>
      </trkpt>
      <trkpt lat="43.51144" lon="6.62355">
        <ele>85.5</ele>
        <time>2023-11-05T08:58:55Z</time>
      </trkpt>
      <trkpt lat="43.51144" lon="6.62356">
        <ele>85.5</ele>
        <time>2023-11-05T08:58:56Z</time>
      </trkpt>
      <trkpt lat="43.51144" lon="6.62358">
        <ele>85.5</ele>
        <time>2023-11-05T08:58:57Z</time>
      </trkpt>
      <trkpt lat="43.51143" lon="6.62359">
        <ele>85.4</ele>
        <time>2023-11-05T08:58:58Z</time>
      </trkpt>
      <trkpt lat="43.51143" lon="6.62361">
        <ele>85.5</ele>
        <time>2023-11-05T08:58:59Z</time>
      </trkpt>
      <trkpt lat="43.51143" lon="6.62362">
        <ele>85.5</ele>
        <time>2023-11-05T08:59:00Z</time>
      </trkpt>
      <trkpt lat="43.51143" lon="6.62364">
        <ele>85.5</ele>
        <time>2023-11-05T08:59:01Z</time>
      </trkpt>
      <trkpt lat="43.51143" lon="6.62365">
        <ele>85.6</ele>
        <time>2023-11-05T08:59:02Z</time>
      </trkpt>
      <trkpt lat="43.51143" lon="6.62367">
        <ele>85.6</ele>
        <time>2023-11-05T08:59:03Z</time>
      </trkpt>
      <trkpt lat="43.51142" lon="6.62368">
        <ele>85.7</ele>
        <time>2023-11-05T08:59:04Z</time>
      </trkpt>
      <trkpt lat="43.51142" lon="6.6237">
        <ele>85.8</ele>
        <time>2023-11-05T08:59:05Z</time>
      </trkpt>
      <trkpt lat="43.51142" lon="6.62371">
        <ele>85.8</ele>
        <time>2023-11-05T08:59:06Z</time>
      </trkpt>
      <trkpt lat="43.51142" lon="6.62372">
        <ele>85.9</ele>
        <time>2023-11-05T08:59:07Z</time>
      </trkpt>
      <trkpt lat="43.51142" lon="6.62374">
        <ele>85.9</ele>
        <time>2023-11-05T08:59:08Z</time>
      </trkpt>
      <trkpt lat="43.51142" lon="6.62375">
        <ele>86</ele>
        <time>2023-11-05T08:59:09Z</time>
      </trkpt>
      <trkpt lat="43.51142" lon="6.62377">
        <ele>85.9</ele>
        <time>2023-11-05T08:59:10Z</time>
      </trkpt>
      <trkpt lat="43.51142" lon="6.62378">
        <ele>85.9</ele>
        <time>2023-11-05T08:59:11Z</time>
      </trkpt>
      <trkpt lat="43.51142" lon="6.6238">
        <ele>85.9</ele>
        <time>2023-11-05T08:59:12Z</time>
      </trkpt>
      <trkpt lat="43.51142" lon="6.62382">
        <ele>86</ele>
        <time>2023-11-05T08:59:13Z</time>
      </trkpt>
      <trkpt lat="43.51142" lon="6.62384">
        <ele>86</ele>
        <time>2023-11-05T08:59:14Z</time>
      </trkpt>
      <trkpt lat="43.51142" lon="6.62385">
        <ele>86.1</ele>
        <time>2023-11-05T08:59:15Z</time>
      </trkpt>
      <trkpt lat="43.51142" lon="6.62387">
        <ele>86.2</ele>
        <time>2023-11-05T08:59:16Z</time>
      </trkpt>
      <trkpt lat="43.51142" lon="6.62388">
        <ele>86.2</ele>
        <time>2023-11-05T08:59:17Z</time>
      </trkpt>
      <trkpt lat="43.51142" lon="6.6239">
        <ele>86.3</ele>
        <time>2023-11-05T08:59:18Z</time>
      </trkpt>
      <trkpt lat="43.51141" lon="6.62391">
        <ele>86.2</ele>
        <time>2023-11-05T08:59:19Z</time>
      </trkpt>
      <trkpt lat="43.51141" lon="6.62393">
        <ele>86.2</ele>
        <time>2023-11-05T08:59:20Z</time>
      </trkpt>
      <trkpt lat="43.51141" lon="6.62395">
        <ele>86</ele>
        <time>2023-11-05T08:59:21Z</time>
      </trkpt>
      <trkpt lat="43.51141" lon="6.62396">
        <ele>85.9</ele>
        <time>2023-11-05T08:59:22Z</time>
      </trkpt>
      <trkpt lat="43.51142" lon="6.62398">
        <ele>85.7</ele>
        <time>2023-11-05T08:59:23Z</time>
      </trkpt>
      <trkpt lat="43.51142" lon="6.624">
        <ele>85.6</ele>
        <time>2023-11-05T08:59:24Z</time>
      </trkpt>
      <trkpt lat="43.51142" lon="6.62401">
        <ele>85.5</ele>
        <time>2023-11-05T08:59:25Z</time>
      </trkpt>
      <trkpt lat="43.51142" lon="6.62403">
        <ele>85.4</ele>
        <time>2023-11-05T08:59:26Z</time>
      </trkpt>
      <trkpt lat="43.51142" lon="6.62405">
        <ele>85.3</ele>
        <time>2023-11-05T08:59:27Z</time>
      </trkpt>
      <trkpt lat="43.51142" lon="6.62406">
        <ele>85.1</ele>
        <time>2023-11-05T08:59:28Z</time>
      </trkpt>
      <trkpt lat="43.51142" lon="6.62408">
        <ele>84.8</ele>
        <time>2023-11-05T08:59:29Z</time>
      </trkpt>
      <trkpt lat="43.51141" lon="6.62409">
        <ele>84.7</ele>
        <time>2023-11-05T08:59:30Z</time>
      </trkpt>
      <trkpt lat="43.51141" lon="6.62411">
        <ele>84.6</ele>
        <time>2023-11-05T08:59:31Z</time>
      </trkpt>
      <trkpt lat="43.51141" lon="6.62411">
        <ele>84.6</ele>
        <time>2023-11-05T08:59:32Z</time>
      </trkpt>
      <trkpt lat="43.51141" lon="6.62412">
        <ele>84.5</ele>
        <time>2023-11-05T08:59:33Z</time>
      </trkpt>
      <trkpt lat="43.51141" lon="6.62413">
        <ele>84.3</ele>
        <time>2023-11-05T08:59:34Z</time>
      </trkpt>
      <trkpt lat="43.51141" lon="6.62414">
        <ele>84.2</ele>
        <time>2023-11-05T08:59:35Z</time>
      </trkpt>
      <trkpt lat="43.51141" lon="6.62416">
        <ele>84</ele>
        <time>2023-11-05T08:59:36Z</time>
      </trkpt>
      <trkpt lat="43.51141" lon="6.62417">
        <ele>83.9</ele>
        <time>2023-11-05T08:59:37Z</time>
      </trkpt>
      <trkpt lat="43.51142" lon="6.62419">
        <ele>83.8</ele>
        <time>2023-11-05T08:59:38Z</time>
      </trkpt>
      <trkpt lat="43.51142" lon="6.6242">
        <ele>83.6</ele>
        <time>2023-11-05T08:59:39Z</time>
      </trkpt>
      <trkpt lat="43.51142" lon="6.62422">
        <ele>83.4</ele>
        <time>2023-11-05T08:59:40Z</time>
      </trkpt>
      <trkpt lat="43.51142" lon="6.62423">
        <ele>83.2</ele>
        <time>2023-11-05T08:59:41Z</time>
      </trkpt>
      <trkpt lat="43.51142" lon="6.62424">
        <ele>83.1</ele>
        <time>2023-11-05T08:59:42Z</time>
      </trkpt>
      <trkpt lat="43.51141" lon="6.62426">
        <ele>82.9</ele>
        <time>2023-11-05T08:59:43Z</time>
      </trkpt>
      <trkpt lat="43.51142" lon="6.62428">
        <ele>82.8</ele>
        <time>2023-11-05T08:59:44Z</time>
      </trkpt>
      <trkpt lat="43.51142" lon="6.6243">
        <ele>82.7</ele>
        <time>2023-11-05T08:59:45Z</time>
      </trkpt>
      <trkpt lat="43.51142" lon="6.6243">
        <ele>82.6</ele>
        <time>2023-11-05T08:59:46Z</time>
      </trkpt>
      <trkpt lat="43.51141" lon="6.62431">
        <ele>82.7</ele>
        <time>2023-11-05T08:59:47Z</time>
      </trkpt>
      <trkpt lat="43.51141" lon="6.62432">
        <ele>82.5</ele>
        <time>2023-11-05T08:59:48Z</time>
      </trkpt>
      <trkpt lat="43.51141" lon="6.62434">
        <ele>82.4</ele>
        <time>2023-11-05T08:59:49Z</time>
      </trkpt>
      <trkpt lat="43.51141" lon="6.62435">
        <ele>82.2</ele>
        <time>2023-11-05T08:59:50Z</time>
      </trkpt>
      <trkpt lat="43.5114" lon="6.62437">
        <ele>82.2</ele>
        <time>2023-11-05T08:59:51Z</time>
      </trkpt>
      <trkpt lat="43.5114" lon="6.62438">
        <ele>82.2</ele>
        <time>2023-11-05T08:59:52Z</time>
      </trkpt>
      <trkpt lat="43.5114" lon="6.62439">
        <ele>82</ele>
        <time>2023-11-05T08:59:53Z</time>
      </trkpt>
      <trkpt lat="43.51139" lon="6.62442">
        <ele>82</ele>
        <time>2023-11-05T08:59:54Z</time>
      </trkpt>
      <trkpt lat="43.5114" lon="6.62444">
        <ele>81.8</ele>
        <time>2023-11-05T08:59:55Z</time>
      </trkpt>
      <trkpt lat="43.5114" lon="6.62446">
        <ele>81.7</ele>
        <time>2023-11-05T08:59:56Z</time>
      </trkpt>
      <trkpt lat="43.5114" lon="6.62448">
        <ele>81.6</ele>
        <time>2023-11-05T08:59:57Z</time>
      </trkpt>
      <trkpt lat="43.5114" lon="6.62449">
        <ele>81.5</ele>
        <time>2023-11-05T08:59:58Z</time>
      </trkpt>
      <trkpt lat="43.5114" lon="6.6245">
        <ele>81.3</ele>
        <time>2023-11-05T08:59:59Z</time>
      </trkpt>
      <trkpt lat="43.51141" lon="6.62452">
        <ele>81.1</ele>
        <time>2023-11-05T09:00:00Z</time>
      </trkpt>
      <trkpt lat="43.51141" lon="6.62453">
        <ele>81</ele>
        <time>2023-11-05T09:00:01Z</time>
      </trkpt>
      <trkpt lat="43.51142" lon="6.62455">
        <ele>80.8</ele>
        <time>2023-11-05T09:00:02Z</time>
      </trkpt>
      <trkpt lat="43.51142" lon="6.62456">
        <ele>80.6</ele>
        <time>2023-11-05T09:00:03Z</time>
      </trkpt>
      <trkpt lat="43.51142" lon="6.62458">
        <ele>80.4</ele>
        <time>2023-11-05T09:00:04Z</time>
      </trkpt>
      <trkpt lat="43.51142" lon="6.6246">
        <ele>80.2</ele>
        <time>2023-11-05T09:00:05Z</time>
      </trkpt>
      <trkpt lat="43.51143" lon="6.62461">
        <ele>79.9</ele>
        <time>2023-11-05T09:00:06Z</time>
      </trkpt>
      <trkpt lat="43.51143" lon="6.62462">
        <ele>79.7</ele>
        <time>2023-11-05T09:00:07Z</time>
      </trkpt>
      <trkpt lat="43.51144" lon="6.62464">
        <ele>79.4</ele>
        <time>2023-11-05T09:00:08Z</time>
      </trkpt>
      <trkpt lat="43.51144" lon="6.62466">
        <ele>79.2</ele>
        <time>2023-11-05T09:00:09Z</time>
      </trkpt>
      <trkpt lat="43.51144" lon="6.62467">
        <ele>79.1</ele>
        <time>2023-11-05T09:00:10Z</time>
      </trkpt>
      <trkpt lat="43.51144" lon="6.62467">
        <ele>79</ele>
        <time>2023-11-05T09:00:11Z</time>
      </trkpt>
      <trkpt lat="43.51144" lon="6.62468">
        <ele>78.9</ele>
        <time>2023-11-05T09:00:12Z</time>
      </trkpt>
      <trkpt lat="43.51144" lon="6.62468">
        <ele>78.9</ele>
        <time>2023-11-05T09:00:13Z</time>
      </trkpt>
      <trkpt lat="43.51144" lon="6.62468">
        <ele>78.9</ele>
        <time>2023-11-05T09:00:14Z</time>
      </trkpt>
      <trkpt lat="43.51144" lon="6.62469">
        <ele>78.8</ele>
        <time>2023-11-05T09:00:15Z</time>
      </trkpt>
      <trkpt lat="43.51143" lon="6.62471">
        <ele>78.8</ele>
        <time>2023-11-05T09:00:16Z</time>
      </trkpt>
      <trkpt lat="43.51143" lon="6.62472">
        <ele>78.9</ele>
        <time>2023-11-05T09:00:17Z</time>
      </trkpt>
      <trkpt lat="43.51143" lon="6.62474">
        <ele>78.9</ele>
        <time>2023-11-05T09:00:18Z</time>
      </trkpt>
      <trkpt lat="43.51142" lon="6.62475">
        <ele>79</ele>
        <time>2023-11-05T09:00:19Z</time>
      </trkpt>
      <trkpt lat="43.51142" lon="6.62477">
        <ele>79</ele>
        <time>2023-11-05T09:00:20Z</time>
      </trkpt>
      <trkpt lat="43.51141" lon="6.62479">
        <ele>79.1</ele>
        <time>2023-11-05T09:00:21Z</time>
      </trkpt>
      <trkpt lat="43.51141" lon="6.6248">
        <ele>79.2</ele>
        <time>2023-11-05T09:00:22Z</time>
      </trkpt>
      <trkpt lat="43.5114" lon="6.62482">
        <ele>79.3</ele>
        <time>2023-11-05T09:00:23Z</time>
      </trkpt>
      <trkpt lat="43.5114" lon="6.62483">
        <ele>79.4</ele>
        <time>2023-11-05T09:00:24Z</time>
      </trkpt>
      <trkpt lat="43.5114" lon="6.62485">
        <ele>79.5</ele>
        <time>2023-11-05T09:00:25Z</time>
      </trkpt>
      <trkpt lat="43.51139" lon="6.62486">
        <ele>79.6</ele>
        <time>2023-11-05T09:00:26Z</time>
      </trkpt>
      <trkpt lat="43.51139" lon="6.62488">
        <ele>79.7</ele>
        <time>2023-11-05T09:00:27Z</time>
      </trkpt>
      <trkpt lat="43.51139" lon="6.6249">
        <ele>79.8</ele>
        <time>2023-11-05T09:00:28Z</time>
      </trkpt>
      <trkpt lat="43.51139" lon="6.62491">
        <ele>79.9</ele>
        <time>2023-11-05T09:00:29Z</time>
      </trkpt>
      <trkpt lat="43.51138" lon="6.62493">
        <ele>80</ele>
        <time>2023-11-05T09:00:30Z</time>
      </trkpt>
      <trkpt lat="43.51138" lon="6.62495">
        <ele>80.1</ele>
        <time>2023-11-05T09:00:31Z</time>
      </trkpt>
      <trkpt lat="43.51138" lon="6.62497">
        <ele>80.2</ele>
        <time>2023-11-05T09:00:32Z</time>
      </trkpt>
      <trkpt lat="43.51138" lon="6.62498">
        <ele>80.2</ele>
        <time>2023-11-05T09:00:33Z</time>
      </trkpt>
      <trkpt lat="43.51138" lon="6.625">
        <ele>80.3</ele>
        <time>2023-11-05T09:00:34Z</time>
      </trkpt>
      <trkpt lat="43.51138" lon="6.62502">
        <ele>80.4</ele>
        <time>2023-11-05T09:00:35Z</time>
      </trkpt>
      <trkpt lat="43.51139" lon="6.62504">
        <ele>80.4</ele>
        <time>2023-11-05T09:00:36Z</time>
      </trkpt>
      <trkpt lat="43.51139" lon="6.62505">
        <ele>80.5</ele>
        <time>2023-11-05T09:00:37Z</time>
      </trkpt>
      <trkpt lat="43.51139" lon="6.62507">
        <ele>80.5</ele>
        <time>2023-11-05T09:00:38Z</time>
      </trkpt>
      <trkpt lat="43.51139" lon="6.62508">
        <ele>80.4</ele>
        <time>2023-11-05T09:00:39Z</time>
      </trkpt>
      <trkpt lat="43.51139" lon="6.6251">
        <ele>80.4</ele>
        <time>2023-11-05T09:00:40Z</time>
      </trkpt>
      <trkpt lat="43.51139" lon="6.62511">
        <ele>80.4</ele>
        <time>2023-11-05T09:00:41Z</time>
      </trkpt>
      <trkpt lat="43.51139" lon="6.62512">
        <ele>80.4</ele>
        <time>2023-11-05T09:00:42Z</time>
      </trkpt>
      <trkpt lat="43.51139" lon="6.62514">
        <ele>80.5</ele>
        <time>2023-11-05T09:00:43Z</time>
      </trkpt>
      <trkpt lat="43.51139" lon="6.62516">
        <ele>80.5</ele>
        <time>2023-11-05T09:00:44Z</time>
      </trkpt>
      <trkpt lat="43.51138" lon="6.62517">
        <ele>80.5</ele>
        <time>2023-11-05T09:00:45Z</time>
      </trkpt>
      <trkpt lat="43.51138" lon="6.62519">
        <ele>80.5</ele>
        <time>2023-11-05T09:00:46Z</time>
      </trkpt>
      <trkpt lat="43.51138" lon="6.6252">
        <ele>80.5</ele>
        <time>2023-11-05T09:00:47Z</time>
      </trkpt>
      <trkpt lat="43.51138" lon="6.62522">
        <ele>80.6</ele>
        <time>2023-11-05T09:00:48Z</time>
      </trkpt>
      <trkpt lat="43.51138" lon="6.62524">
        <ele>80.6</ele>
        <time>2023-11-05T09:00:49Z</time>
      </trkpt>
      <trkpt lat="43.51138" lon="6.62526">
        <ele>80.5</ele>
        <time>2023-11-05T09:00:50Z</time>
      </trkpt>
      <trkpt lat="43.51138" lon="6.62527">
        <ele>80.5</ele>
        <time>2023-11-05T09:00:51Z</time>
      </trkpt>
      <trkpt lat="43.51138" lon="6.62529">
        <ele>80.4</ele>
        <time>2023-11-05T09:00:52Z</time>
      </trkpt>
      <trkpt lat="43.51137" lon="6.6253">
        <ele>80.4</ele>
        <time>2023-11-05T09:00:53Z</time>
      </trkpt>
      <trkpt lat="43.51137" lon="6.62532">
        <ele>80.5</ele>
        <time>2023-11-05T09:00:54Z</time>
      </trkpt>
      <trkpt lat="43.51137" lon="6.62533">
        <ele>80.5</ele>
        <time>2023-11-05T09:00:55Z</time>
      </trkpt>
      <trkpt lat="43.51137" lon="6.62535">
        <ele>80.5</ele>
        <time>2023-11-05T09:00:56Z</time>
      </trkpt>
      <trkpt lat="43.51138" lon="6.62537">
        <ele>80.6</ele>
        <time>2023-11-05T09:00:57Z</time>
      </trkpt>
      <trkpt lat="43.51138" lon="6.62538">
        <ele>80.7</ele>
        <time>2023-11-05T09:00:58Z</time>
      </trkpt>
      <trkpt lat="43.51138" lon="6.6254">
        <ele>80.8</ele>
        <time>2023-11-05T09:00:59Z</time>
      </trkpt>
      <trkpt lat="43.51138" lon="6.62541">
        <ele>81</ele>
        <time>2023-11-05T09:01:00Z</time>
      </trkpt>
      <trkpt lat="43.51138" lon="6.62543">
        <ele>81.1</ele>
        <time>2023-11-05T09:01:01Z</time>
      </trkpt>
      <trkpt lat="43.51138" lon="6.62544">
        <ele>81.3</ele>
        <time>2023-11-05T09:01:02Z</time>
      </trkpt>
      <trkpt lat="43.51138" lon="6.62545">
        <ele>81.4</ele>
        <time>2023-11-05T09:01:03Z</time>
      </trkpt>
      <trkpt lat="43.51137" lon="6.62547">
        <ele>81.5</ele>
        <time>2023-11-05T09:01:04Z</time>
      </trkpt>
      <trkpt lat="43.51138" lon="6.62548">
        <ele>81.6</ele>
        <time>2023-11-05T09:01:05Z</time>
      </trkpt>
      <trkpt lat="43.51138" lon="6.6255">
        <ele>81.6</ele>
        <time>2023-11-05T09:01:06Z</time>
      </trkpt>
      <trkpt lat="43.51137" lon="6.62551">
        <ele>81.6</ele>
        <time>2023-11-05T09:01:07Z</time>
      </trkpt>
      <trkpt lat="43.51137" lon="6.62553">
        <ele>81.5</ele>
        <time>2023-11-05T09:01:08Z</time>
      </trkpt>
      <trkpt lat="43.51137" lon="6.62555">
        <ele>81.5</ele>
        <time>2023-11-05T09:01:09Z</time>
      </trkpt>
      <trkpt lat="43.51138" lon="6.62556">
        <ele>81.5</ele>
        <time>2023-11-05T09:01:10Z</time>
      </trkpt>
      <trkpt lat="43.51137" lon="6.62558">
        <ele>81.5</ele>
        <time>2023-11-05T09:01:11Z</time>
      </trkpt>
      <trkpt lat="43.51138" lon="6.6256">
        <ele>81.6</ele>
        <time>2023-11-05T09:01:12Z</time>
      </trkpt>
      <trkpt lat="43.51138" lon="6.62561">
        <ele>81.6</ele>
        <time>2023-11-05T09:01:13Z</time>
      </trkpt>
      <trkpt lat="43.51137" lon="6.62562">
        <ele>81.6</ele>
        <time>2023-11-05T09:01:14Z</time>
      </trkpt>
      <trkpt lat="43.51137" lon="6.62564">
        <ele>81.5</ele>
        <time>2023-11-05T09:01:15Z</time>
      </trkpt>
      <trkpt lat="43.51137" lon="6.62566">
        <ele>81.5</ele>
        <time>2023-11-05T09:01:16Z</time>
      </trkpt>
      <trkpt lat="43.51138" lon="6.62567">
        <ele>81.5</ele>
        <time>2023-11-05T09:01:17Z</time>
      </trkpt>
      <trkpt lat="43.51138" lon="6.62568">
        <ele>81.5</ele>
        <time>2023-11-05T09:01:18Z</time>
      </trkpt>
      <trkpt lat="43.51139" lon="6.62569">
        <ele>81.5</ele>
        <time>2023-11-05T09:01:19Z</time>
      </trkpt>
      <trkpt lat="43.51139" lon="6.62569">
        <ele>81.3</ele>
        <time>2023-11-05T09:01:20Z</time>
      </trkpt>
      <trkpt lat="43.51138" lon="6.6257">
        <ele>81.1</ele>
        <time>2023-11-05T09:01:21Z</time>
      </trkpt>
      <trkpt lat="43.51138" lon="6.62572">
        <ele>80.9</ele>
        <time>2023-11-05T09:01:22Z</time>
      </trkpt>
      <trkpt lat="43.51138" lon="6.62573">
        <ele>80.8</ele>
        <time>2023-11-05T09:01:23Z</time>
      </trkpt>
      <trkpt lat="43.51139" lon="6.62575">
        <ele>80.7</ele>
        <time>2023-11-05T09:01:24Z</time>
      </trkpt>
      <trkpt lat="43.51139" lon="6.62576">
        <ele>80.7</ele>
        <time>2023-11-05T09:01:25Z</time>
      </trkpt>
      <trkpt lat="43.51139" lon="6.62578">
        <ele>80.7</ele>
        <time>2023-11-05T09:01:26Z</time>
      </trkpt>
      <trkpt lat="43.51139" lon="6.62579">
        <ele>80.6</ele>
        <time>2023-11-05T09:01:27Z</time>
      </trkpt>
      <trkpt lat="43.51139" lon="6.62581">
        <ele>80.6</ele>
        <time>2023-11-05T09:01:28Z</time>
      </trkpt>
      <trkpt lat="43.51139" lon="6.62582">
        <ele>80.5</ele>
        <time>2023-11-05T09:01:29Z</time>
      </trkpt>
      <trkpt lat="43.5114" lon="6.62584">
        <ele>80.5</ele>
        <time>2023-11-05T09:01:30Z</time>
      </trkpt>
      <trkpt lat="43.5114" lon="6.62585">
        <ele>80.6</ele>
        <time>2023-11-05T09:01:31Z</time>
      </trkpt>
      <trkpt lat="43.51141" lon="6.62587">
        <ele>80.6</ele>
        <time>2023-11-05T09:01:32Z</time>
      </trkpt>
      <trkpt lat="43.51141" lon="6.62588">
        <ele>80.6</ele>
        <time>2023-11-05T09:01:33Z</time>
      </trkpt>
      <trkpt lat="43.51142" lon="6.6259">
        <ele>80.8</ele>
        <time>2023-11-05T09:01:34Z</time>
      </trkpt>
      <trkpt lat="43.51143" lon="6.62591">
        <ele>80.9</ele>
        <time>2023-11-05T09:01:35Z</time>
      </trkpt>
      <trkpt lat="43.51143" lon="6.62592">
        <ele>80.9</ele>
        <time>2023-11-05T09:01:36Z</time>
      </trkpt>
      <trkpt lat="43.51143" lon="6.62594">
        <ele>81.1</ele>
        <time>2023-11-05T09:01:37Z</time>
      </trkpt>
      <trkpt lat="43.51144" lon="6.62595">
        <ele>81.1</ele>
        <time>2023-11-05T09:01:38Z</time>
      </trkpt>
      <trkpt lat="43.51144" lon="6.62596">
        <ele>81.2</ele>
        <time>2023-11-05T09:01:39Z</time>
      </trkpt>
      <trkpt lat="43.51144" lon="6.62597">
        <ele>81.3</ele>
        <time>2023-11-05T09:01:40Z</time>
      </trkpt>
      <trkpt lat="43.51145" lon="6.62598">
        <ele>81.6</ele>
        <time>2023-11-05T09:01:41Z</time>
      </trkpt>
      <trkpt lat="43.51145" lon="6.626">
        <ele>81.8</ele>
        <time>2023-11-05T09:01:42Z</time>
      </trkpt>
      <trkpt lat="43.51146" lon="6.62601">
        <ele>82</ele>
        <time>2023-11-05T09:01:43Z</time>
      </trkpt>
      <trkpt lat="43.51147" lon="6.62602">
        <ele>82.2</ele>
        <time>2023-11-05T09:01:44Z</time>
      </trkpt>
      <trkpt lat="43.51147" lon="6.62603">
        <ele>82.3</ele>
        <time>2023-11-05T09:01:45Z</time>
      </trkpt>
      <trkpt lat="43.51148" lon="6.62604">
        <ele>82.6</ele>
        <time>2023-11-05T09:01:46Z</time>
      </trkpt>
      <trkpt lat="43.51148" lon="6.62605">
        <ele>82.8</ele>
        <time>2023-11-05T09:01:47Z</time>
      </trkpt>
      <trkpt lat="43.51149" lon="6.62606">
        <ele>82.9</ele>
        <time>2023-11-05T09:01:48Z</time>
      </trkpt>
      <trkpt lat="43.51149" lon="6.62607">
        <ele>83.1</ele>
        <time>2023-11-05T09:01:49Z</time>
      </trkpt>
      <trkpt lat="43.5115" lon="6.62608">
        <ele>83.2</ele>
        <time>2023-11-05T09:01:50Z</time>
      </trkpt>
      <trkpt lat="43.5115" lon="6.62609">
        <ele>83.4</ele>
        <time>2023-11-05T09:01:51Z</time>
      </trkpt>
      <trkpt lat="43.51151" lon="6.6261">
        <ele>83.5</ele>
        <time>2023-11-05T09:01:52Z</time>
      </trkpt>
      <trkpt lat="43.51151" lon="6.62611">
        <ele>83.7</ele>
        <time>2023-11-05T09:01:53Z</time>
      </trkpt>
      <trkpt lat="43.51152" lon="6.62612">
        <ele>83.8</ele>
        <time>2023-11-05T09:01:54Z</time>
      </trkpt>
      <trkpt lat="43.51152" lon="6.62613">
        <ele>84</ele>
        <time>2023-11-05T09:01:55Z</time>
      </trkpt>
      <trkpt lat="43.51153" lon="6.62614">
        <ele>84.2</ele>
        <time>2023-11-05T09:01:56Z</time>
      </trkpt>
      <trkpt lat="43.51153" lon="6.62615">
        <ele>84.4</ele>
        <time>2023-11-05T09:01:57Z</time>
      </trkpt>
      <trkpt lat="43.51153" lon="6.62616">
        <ele>84.6</ele>
        <time>2023-11-05T09:01:58Z</time>
      </trkpt>
      <trkpt lat="43.51154" lon="6.62616">
        <ele>84.8</ele>
        <time>2023-11-05T09:01:59Z</time>
      </trkpt>
      <trkpt lat="43.51155" lon="6.62617">
        <ele>84.9</ele>
        <time>2023-11-05T09:02:00Z</time>
      </trkpt>
      <trkpt lat="43.51155" lon="6.62618">
        <ele>85</ele>
        <time>2023-11-05T09:02:01Z</time>
      </trkpt>
      <trkpt lat="43.51156" lon="6.62619">
        <ele>85.3</ele>
        <time>2023-11-05T09:02:02Z</time>
      </trkpt>
      <trkpt lat="43.51156" lon="6.62619">
        <ele>85.5</ele>
        <time>2023-11-05T09:02:03Z</time>
      </trkpt>
      <trkpt lat="43.51157" lon="6.6262">
        <ele>85.6</ele>
        <time>2023-11-05T09:02:04Z</time>
      </trkpt>
      <trkpt lat="43.51158" lon="6.62621">
        <ele>85.6</ele>
        <time>2023-11-05T09:02:05Z</time>
      </trkpt>
      <trkpt lat="43.51158" lon="6.62622">
        <ele>85.7</ele>
        <time>2023-11-05T09:02:06Z</time>
      </trkpt>
      <trkpt lat="43.51159" lon="6.62623">
        <ele>86</ele>
        <time>2023-11-05T09:02:07Z</time>
      </trkpt>
      <trkpt lat="43.5116" lon="6.62624">
        <ele>86.1</ele>
        <time>2023-11-05T09:02:08Z</time>
      </trkpt>
      <trkpt lat="43.5116" lon="6.62624">
        <ele>86</ele>
        <time>2023-11-05T09:02:09Z</time>
      </trkpt>
      <trkpt lat="43.51161" lon="6.62625">
        <ele>86</ele>
        <time>2023-11-05T09:02:10Z</time>
      </trkpt>
      <trkpt lat="43.51161" lon="6.62626">
        <ele>86.1</ele>
        <time>2023-11-05T09:02:11Z</time>
      </trkpt>
      <trkpt lat="43.51162" lon="6.62627">
        <ele>86.3</ele>
        <time>2023-11-05T09:02:12Z</time>
      </trkpt>
      <trkpt lat="43.51163" lon="6.62628">
        <ele>86.5</ele>
        <time>2023-11-05T09:02:13Z</time>
      </trkpt>
      <trkpt lat="43.51163" lon="6.62629">
        <ele>86.7</ele>
        <time>2023-11-05T09:02:14Z</time>
      </trkpt>
      <trkpt lat="43.51164" lon="6.6263">
        <ele>86.8</ele>
        <time>2023-11-05T09:02:15Z</time>
      </trkpt>
      <trkpt lat="43.51164" lon="6.62631">
        <ele>86.9</ele>
        <time>2023-11-05T09:02:16Z</time>
      </trkpt>
      <trkpt lat="43.51165" lon="6.62633">
        <ele>87.1</ele>
        <time>2023-11-05T09:02:17Z</time>
      </trkpt>
      <trkpt lat="43.51165" lon="6.62634">
        <ele>87.2</ele>
        <time>2023-11-05T09:02:18Z</time>
      </trkpt>
      <trkpt lat="43.51166" lon="6.62635">
        <ele>87.4</ele>
        <time>2023-11-05T09:02:19Z</time>
      </trkpt>
      <trkpt lat="43.51166" lon="6.62636">
        <ele>87.5</ele>
        <time>2023-11-05T09:02:20Z</time>
      </trkpt>
      <trkpt lat="43.51167" lon="6.62637">
        <ele>87.5</ele>
        <time>2023-11-05T09:02:21Z</time>
      </trkpt>
      <trkpt lat="43.51168" lon="6.62638">
        <ele>87.6</ele>
        <time>2023-11-05T09:02:22Z</time>
      </trkpt>
      <trkpt lat="43.51168" lon="6.62639">
        <ele>87.7</ele>
        <time>2023-11-05T09:02:23Z</time>
      </trkpt>
      <trkpt lat="43.51169" lon="6.62641">
        <ele>87.9</ele>
        <time>2023-11-05T09:02:24Z</time>
      </trkpt>
      <trkpt lat="43.51169" lon="6.62642">
        <ele>88.1</ele>
        <time>2023-11-05T09:02:25Z</time>
      </trkpt>
      <trkpt lat="43.5117" lon="6.62643">
        <ele>88.2</ele>
        <time>2023-11-05T09:02:26Z</time>
      </trkpt>
      <trkpt lat="43.51171" lon="6.62644">
        <ele>88.3</ele>
        <time>2023-11-05T09:02:27Z</time>
      </trkpt>
      <trkpt lat="43.51171" lon="6.62645">
        <ele>88.3</ele>
        <time>2023-11-05T09:02:28Z</time>
      </trkpt>
      <trkpt lat="43.51172" lon="6.62646">
        <ele>88.4</ele>
        <time>2023-11-05T09:02:29Z</time>
      </trkpt>
      <trkpt lat="43.51173" lon="6.62647">
        <ele>88.4</ele>
        <time>2023-11-05T09:02:30Z</time>
      </trkpt>
      <trkpt lat="43.51173" lon="6.62648">
        <ele>88.5</ele>
        <time>2023-11-05T09:02:31Z</time>
      </trkpt>
      <trkpt lat="43.51173" lon="6.6265">
        <ele>88.5</ele>
        <time>2023-11-05T09:02:32Z</time>
      </trkpt>
      <trkpt lat="43.51174" lon="6.62651">
        <ele>88.6</ele>
        <time>2023-11-05T09:02:33Z</time>
      </trkpt>
      <trkpt lat="43.51175" lon="6.62652">
        <ele>88.7</ele>
        <time>2023-11-05T09:02:34Z</time>
      </trkpt>
      <trkpt lat="43.51175" lon="6.62653">
        <ele>88.7</ele>
        <time>2023-11-05T09:02:35Z</time>
      </trkpt>
      <trkpt lat="43.51176" lon="6.62654">
        <ele>88.9</ele>
        <time>2023-11-05T09:02:36Z</time>
      </trkpt>
      <trkpt lat="43.51176" lon="6.62656">
        <ele>89</ele>
        <time>2023-11-05T09:02:37Z</time>
      </trkpt>
      <trkpt lat="43.51177" lon="6.62657">
        <ele>89.2</ele>
        <time>2023-11-05T09:02:38Z</time>
      </trkpt>
      <trkpt lat="43.51178" lon="6.62658">
        <ele>89.3</ele>
        <time>2023-11-05T09:02:39Z</time>
      </trkpt>
      <trkpt lat="43.51178" lon="6.62659">
        <ele>89.4</ele>
        <time>2023-11-05T09:02:40Z</time>
      </trkpt>
      <trkpt lat="43.51179" lon="6.6266">
        <ele>89.5</ele>
        <time>2023-11-05T09:02:41Z</time>
      </trkpt>
      <trkpt lat="43.5118" lon="6.62661">
        <ele>89.5</ele>
        <time>2023-11-05T09:02:42Z</time>
      </trkpt>
      <trkpt lat="43.5118" lon="6.62662">
        <ele>89.7</ele>
        <time>2023-11-05T09:02:43Z</time>
      </trkpt>
      <trkpt lat="43.5118" lon="6.62663">
        <ele>89.9</ele>
        <time>2023-11-05T09:02:44Z</time>
      </trkpt>
      <trkpt lat="43.51181" lon="6.62665">
        <ele>90.1</ele>
        <time>2023-11-05T09:02:45Z</time>
      </trkpt>
      <trkpt lat="43.51182" lon="6.62666">
        <ele>90.3</ele>
        <time>2023-11-05T09:02:46Z</time>
      </trkpt>
      <trkpt lat="43.51182" lon="6.62667">
        <ele>90.5</ele>
        <time>2023-11-05T09:02:47Z</time>
      </trkpt>
      <trkpt lat="43.51183" lon="6.62668">
        <ele>90.7</ele>
        <time>2023-11-05T09:02:48Z</time>
      </trkpt>
      <trkpt lat="43.51184" lon="6.62669">
        <ele>90.8</ele>
        <time>2023-11-05T09:02:49Z</time>
      </trkpt>
      <trkpt lat="43.51184" lon="6.6267">
        <ele>91</ele>
        <time>2023-11-05T09:02:50Z</time>
      </trkpt>
      <trkpt lat="43.51185" lon="6.62671">
        <ele>91.2</ele>
        <time>2023-11-05T09:02:51Z</time>
      </trkpt>
      <trkpt lat="43.51186" lon="6.62672">
        <ele>91.3</ele>
        <time>2023-11-05T09:02:52Z</time>
      </trkpt>
      <trkpt lat="43.51187" lon="6.62674">
        <ele>91.4</ele>
        <time>2023-11-05T09:02:53Z</time>
      </trkpt>
      <trkpt lat="43.51187" lon="6.62675">
        <ele>91.4</ele>
        <time>2023-11-05T09:02:54Z</time>
      </trkpt>
      <trkpt lat="43.51188" lon="6.62676">
        <ele>91.6</ele>
        <time>2023-11-05T09:02:55Z</time>
      </trkpt>
      <trkpt lat="43.51188" lon="6.62677">
        <ele>91.7</ele>
        <time>2023-11-05T09:02:56Z</time>
      </trkpt>
      <trkpt lat="43.51189" lon="6.62678">
        <ele>91.7</ele>
        <time>2023-11-05T09:02:57Z</time>
      </trkpt>
      <trkpt lat="43.5119" lon="6.62679">
        <ele>91.8</ele>
        <time>2023-11-05T09:02:58Z</time>
      </trkpt>
      <trkpt lat="43.5119" lon="6.6268">
        <ele>91.9</ele>
        <time>2023-11-05T09:02:59Z</time>
      </trkpt>
      <trkpt lat="43.51191" lon="6.62681">
        <ele>91.9</ele>
        <time>2023-11-05T09:03:00Z</time>
      </trkpt>
      <trkpt lat="43.51191" lon="6.62682">
        <ele>91.9</ele>
        <time>2023-11-05T09:03:01Z</time>
      </trkpt>
      <trkpt lat="43.51192" lon="6.62683">
        <ele>91.9</ele>
        <time>2023-11-05T09:03:02Z</time>
      </trkpt>
      <trkpt lat="43.51193" lon="6.62684">
        <ele>91.8</ele>
        <time>2023-11-05T09:03:03Z</time>
      </trkpt>
      <trkpt lat="43.51193" lon="6.62685">
        <ele>91.8</ele>
        <time>2023-11-05T09:03:04Z</time>
      </trkpt>
      <trkpt lat="43.51194" lon="6.62687">
        <ele>91.8</ele>
        <time>2023-11-05T09:03:05Z</time>
      </trkpt>
      <trkpt lat="43.51195" lon="6.62688">
        <ele>91.8</ele>
        <time>2023-11-05T09:03:06Z</time>
      </trkpt>
      <trkpt lat="43.51196" lon="6.62689">
        <ele>92</ele>
        <time>2023-11-05T09:03:07Z</time>
      </trkpt>
      <trkpt lat="43.51196" lon="6.6269">
        <ele>92.2</ele>
        <time>2023-11-05T09:03:08Z</time>
      </trkpt>
      <trkpt lat="43.51197" lon="6.62691">
        <ele>92.4</ele>
        <time>2023-11-05T09:03:09Z</time>
      </trkpt>
      <trkpt lat="43.51197" lon="6.62692">
        <ele>92.5</ele>
        <time>2023-11-05T09:03:10Z</time>
      </trkpt>
      <trkpt lat="43.51198" lon="6.62694">
        <ele>92.6</ele>
        <time>2023-11-05T09:03:11Z</time>
      </trkpt>
      <trkpt lat="43.51199" lon="6.62695">
        <ele>92.9</ele>
        <time>2023-11-05T09:03:12Z</time>
      </trkpt>
      <trkpt lat="43.512" lon="6.62696">
        <ele>93.2</ele>
        <time>2023-11-05T09:03:13Z</time>
      </trkpt>
      <trkpt lat="43.512" lon="6.62697">
        <ele>93.5</ele>
        <time>2023-11-05T09:03:14Z</time>
      </trkpt>
      <trkpt lat="43.512" lon="6.62698">
        <ele>93.8</ele>
        <time>2023-11-05T09:03:15Z</time>
      </trkpt>
      <trkpt lat="43.51201" lon="6.62699">
        <ele>94.1</ele>
        <time>2023-11-05T09:03:16Z</time>
      </trkpt>
      <trkpt lat="43.51202" lon="6.627">
        <ele>94.3</ele>
        <time>2023-11-05T09:03:17Z</time>
      </trkpt>
      <trkpt lat="43.51202" lon="6.62701">
        <ele>94.6</ele>
        <time>2023-11-05T09:03:18Z</time>
      </trkpt>
      <trkpt lat="43.51203" lon="6.62702">
        <ele>94.8</ele>
        <time>2023-11-05T09:03:19Z</time>
      </trkpt>
      <trkpt lat="43.51203" lon="6.62703">
        <ele>94.9</ele>
        <time>2023-11-05T09:03:20Z</time>
      </trkpt>
      <trkpt lat="43.51204" lon="6.62704">
        <ele>95.1</ele>
        <time>2023-11-05T09:03:21Z</time>
      </trkpt>
      <trkpt lat="43.51205" lon="6.62705">
        <ele>95.2</ele>
        <time>2023-11-05T09:03:22Z</time>
      </trkpt>
      <trkpt lat="43.51205" lon="6.62706">
        <ele>95.4</ele>
        <time>2023-11-05T09:03:23Z</time>
      </trkpt>
      <trkpt lat="43.51206" lon="6.62707">
        <ele>95.7</ele>
        <time>2023-11-05T09:03:24Z</time>
      </trkpt>
      <trkpt lat="43.51207" lon="6.62708">
        <ele>95.9</ele>
        <time>2023-11-05T09:03:25Z</time>
      </trkpt>
      <trkpt lat="43.51208" lon="6.62709">
        <ele>96.1</ele>
        <time>2023-11-05T09:03:26Z</time>
      </trkpt>
      <trkpt lat="43.51208" lon="6.62709">
        <ele>96.3</ele>
        <time>2023-11-05T09:03:27Z</time>
      </trkpt>
      <trkpt lat="43.51209" lon="6.6271">
        <ele>96.6</ele>
        <time>2023-11-05T09:03:28Z</time>
      </trkpt>
      <trkpt lat="43.5121" lon="6.62711">
        <ele>96.8</ele>
        <time>2023-11-05T09:03:29Z</time>
      </trkpt>
      <trkpt lat="43.5121" lon="6.62712">
        <ele>96.9</ele>
        <time>2023-11-05T09:03:30Z</time>
      </trkpt>
      <trkpt lat="43.51211" lon="6.62713">
        <ele>96.9</ele>
        <time>2023-11-05T09:03:31Z</time>
      </trkpt>
      <trkpt lat="43.51211" lon="6.62714">
        <ele>97</ele>
        <time>2023-11-05T09:03:32Z</time>
      </trkpt>
      <trkpt lat="43.51212" lon="6.62716">
        <ele>96.9</ele>
        <time>2023-11-05T09:03:33Z</time>
      </trkpt>
      <trkpt lat="43.51212" lon="6.62717">
        <ele>96.9</ele>
        <time>2023-11-05T09:03:34Z</time>
      </trkpt>
      <trkpt lat="43.51213" lon="6.62718">
        <ele>97</ele>
        <time>2023-11-05T09:03:35Z</time>
      </trkpt>
      <trkpt lat="43.51214" lon="6.62718">
        <ele>97.1</ele>
        <time>2023-11-05T09:03:36Z</time>
      </trkpt>
      <trkpt lat="43.51214" lon="6.62719">
        <ele>97.3</ele>
        <time>2023-11-05T09:03:37Z</time>
      </trkpt>
      <trkpt lat="43.51215" lon="6.6272">
        <ele>97.5</ele>
        <time>2023-11-05T09:03:38Z</time>
      </trkpt>
      <trkpt lat="43.51216" lon="6.62721">
        <ele>97.6</ele>
        <time>2023-11-05T09:03:39Z</time>
      </trkpt>
      <trkpt lat="43.51217" lon="6.62722">
        <ele>97.7</ele>
        <time>2023-11-05T09:03:40Z</time>
      </trkpt>
      <trkpt lat="43.51218" lon="6.62723">
        <ele>97.7</ele>
        <time>2023-11-05T09:03:41Z</time>
      </trkpt>
      <trkpt lat="43.51218" lon="6.62724">
        <ele>97.8</ele>
        <time>2023-11-05T09:03:42Z</time>
      </trkpt>
      <trkpt lat="43.51219" lon="6.62726">
        <ele>97.8</ele>
        <time>2023-11-05T09:03:43Z</time>
      </trkpt>
      <trkpt lat="43.5122" lon="6.62727">
        <ele>97.8</ele>
        <time>2023-11-05T09:03:44Z</time>
      </trkpt>
      <trkpt lat="43.5122" lon="6.62727">
        <ele>97.9</ele>
        <time>2023-11-05T09:03:45Z</time>
      </trkpt>
      <trkpt lat="43.51221" lon="6.62729">
        <ele>98</ele>
        <time>2023-11-05T09:03:46Z</time>
      </trkpt>
      <trkpt lat="43.51222" lon="6.62729">
        <ele>98.1</ele>
        <time>2023-11-05T09:03:47Z</time>
      </trkpt>
      <trkpt lat="43.51223" lon="6.6273">
        <ele>98.2</ele>
        <time>2023-11-05T09:03:48Z</time>
      </trkpt>
      <trkpt lat="43.51223" lon="6.62732">
        <ele>98.5</ele>
        <time>2023-11-05T09:03:49Z</time>
      </trkpt>
      <trkpt lat="43.51224" lon="6.62733">
        <ele>98.7</ele>
        <time>2023-11-05T09:03:50Z</time>
      </trkpt>
      <trkpt lat="43.51225" lon="6.62734">
        <ele>98.9</ele>
        <time>2023-11-05T09:03:51Z</time>
      </trkpt>
      <trkpt lat="43.51225" lon="6.62735">
        <ele>99.1</ele>
        <time>2023-11-05T09:03:52Z</time>
      </trkpt>
      <trkpt lat="43.51226" lon="6.62736">
        <ele>99.2</ele>
        <time>2023-11-05T09:03:53Z</time>
      </trkpt>
      <trkpt lat="43.51227" lon="6.62737">
        <ele>99.3</ele>
        <time>2023-11-05T09:03:54Z</time>
      </trkpt>
      <trkpt lat="43.51227" lon="6.62738">
        <ele>99.3</ele>
        <time>2023-11-05T09:03:55Z</time>
      </trkpt>
      <trkpt lat="43.51228" lon="6.62739">
        <ele>99.4</ele>
        <time>2023-11-05T09:03:56Z</time>
      </trkpt>
      <trkpt lat="43.51228" lon="6.6274">
        <ele>99.4</ele>
        <time>2023-11-05T09:03:57Z</time>
      </trkpt>
      <trkpt lat="43.51229" lon="6.62741">
        <ele>99.4</ele>
        <time>2023-11-05T09:03:58Z</time>
      </trkpt>
      <trkpt lat="43.51229" lon="6.62743">
        <ele>99.6</ele>
        <time>2023-11-05T09:03:59Z</time>
      </trkpt>
      <trkpt lat="43.5123" lon="6.62744">
        <ele>99.9</ele>
        <time>2023-11-05T09:04:00Z</time>
      </trkpt>
      <trkpt lat="43.51231" lon="6.62745">
        <ele>100</ele>
        <time>2023-11-05T09:04:01Z</time>
      </trkpt>
      <trkpt lat="43.51231" lon="6.62746">
        <ele>100.2</ele>
        <time>2023-11-05T09:04:02Z</time>
      </trkpt>
      <trkpt lat="43.51232" lon="6.62747">
        <ele>100.3</ele>
        <time>2023-11-05T09:04:03Z</time>
      </trkpt>
      <trkpt lat="43.51232" lon="6.62747">
        <ele>100.2</ele>
        <time>2023-11-05T09:04:04Z</time>
      </trkpt>
      <trkpt lat="43.51233" lon="6.62748">
        <ele>100.4</ele>
        <time>2023-11-05T09:04:05Z</time>
      </trkpt>
      <trkpt lat="43.51233" lon="6.62749">
        <ele>100.5</ele>
        <time>2023-11-05T09:04:06Z</time>
      </trkpt>
      <trkpt lat="43.51234" lon="6.6275">
        <ele>100.6</ele>
        <time>2023-11-05T09:04:07Z</time>
      </trkpt>
      <trkpt lat="43.51234" lon="6.62751">
        <ele>100.8</ele>
        <time>2023-11-05T09:04:08Z</time>
      </trkpt>
      <trkpt lat="43.51235" lon="6.62752">
        <ele>100.9</ele>
        <time>2023-11-05T09:04:09Z</time>
      </trkpt>
      <trkpt lat="43.51235" lon="6.62753">
        <ele>101.1</ele>
        <time>2023-11-05T09:04:10Z</time>
      </trkpt>
      <trkpt lat="43.51236" lon="6.62754">
        <ele>101.4</ele>
        <time>2023-11-05T09:04:11Z</time>
      </trkpt>
      <trkpt lat="43.51236" lon="6.62755">
        <ele>101.7</ele>
        <time>2023-11-05T09:04:12Z</time>
      </trkpt>
      <trkpt lat="43.51237" lon="6.62756">
        <ele>101.8</ele>
        <time>2023-11-05T09:04:13Z</time>
      </trkpt>
      <trkpt lat="43.51238" lon="6.62757">
        <ele>102</ele>
        <time>2023-11-05T09:04:14Z</time>
      </trkpt>
      <trkpt lat="43.51238" lon="6.62758">
        <ele>102.2</ele>
        <time>2023-11-05T09:04:15Z</time>
      </trkpt>
      <trkpt lat="43.51239" lon="6.62759">
        <ele>102.3</ele>
        <time>2023-11-05T09:04:16Z</time>
      </trkpt>
      <trkpt lat="43.51239" lon="6.6276">
        <ele>102.5</ele>
        <time>2023-11-05T09:04:17Z</time>
      </trkpt>
      <trkpt lat="43.5124" lon="6.62761">
        <ele>102.7</ele>
        <time>2023-11-05T09:04:18Z</time>
      </trkpt>
      <trkpt lat="43.51241" lon="6.62762">
        <ele>102.8</ele>
        <time>2023-11-05T09:04:19Z</time>
      </trkpt>
      <trkpt lat="43.51241" lon="6.62764">
        <ele>102.9</ele>
        <time>2023-11-05T09:04:20Z</time>
      </trkpt>
      <trkpt lat="43.51242" lon="6.62765">
        <ele>103</ele>
        <time>2023-11-05T09:04:21Z</time>
      </trkpt>
      <trkpt lat="43.51242" lon="6.62766">
        <ele>103.2</ele>
        <time>2023-11-05T09:04:22Z</time>
      </trkpt>
      <trkpt lat="43.51243" lon="6.62767">
        <ele>103.4</ele>
        <time>2023-11-05T09:04:23Z</time>
      </trkpt>
      <trkpt lat="43.51243" lon="6.62769">
        <ele>103.6</ele>
        <time>2023-11-05T09:04:24Z</time>
      </trkpt>
      <trkpt lat="43.51244" lon="6.6277">
        <ele>103.6</ele>
        <time>2023-11-05T09:04:25Z</time>
      </trkpt>
      <trkpt lat="43.51245" lon="6.62771">
        <ele>103.8</ele>
        <time>2023-11-05T09:04:26Z</time>
      </trkpt>
      <trkpt lat="43.51245" lon="6.62772">
        <ele>103.9</ele>
        <time>2023-11-05T09:04:27Z</time>
      </trkpt>
      <trkpt lat="43.51246" lon="6.62773">
        <ele>104.1</ele>
        <time>2023-11-05T09:04:28Z</time>
      </trkpt>
      <trkpt lat="43.51247" lon="6.62774">
        <ele>104.2</ele>
        <time>2023-11-05T09:04:29Z</time>
      </trkpt>
      <trkpt lat="43.51247" lon="6.62775">
        <ele>104.3</ele>
        <time>2023-11-05T09:04:30Z</time>
      </trkpt>
      <trkpt lat="43.51248" lon="6.62776">
        <ele>104.4</ele>
        <time>2023-11-05T09:04:31Z</time>
      </trkpt>
      <trkpt lat="43.51248" lon="6.62778">
        <ele>104.6</ele>
        <time>2023-11-05T09:04:32Z</time>
      </trkpt>
      <trkpt lat="43.51249" lon="6.62779">
        <ele>104.7</ele>
        <time>2023-11-05T09:04:33Z</time>
      </trkpt>
      <trkpt lat="43.51249" lon="6.6278">
        <ele>104.8</ele>
        <time>2023-11-05T09:04:34Z</time>
      </trkpt>
      <trkpt lat="43.5125" lon="6.62781">
        <ele>104.9</ele>
        <time>2023-11-05T09:04:35Z</time>
      </trkpt>
      <trkpt lat="43.51251" lon="6.62782">
        <ele>105</ele>
        <time>2023-11-05T09:04:36Z</time>
      </trkpt>
      <trkpt lat="43.51251" lon="6.62783">
        <ele>105.1</ele>
        <time>2023-11-05T09:04:37Z</time>
      </trkpt>
      <trkpt lat="43.51252" lon="6.62784">
        <ele>105.2</ele>
        <time>2023-11-05T09:04:38Z</time>
      </trkpt>
      <trkpt lat="43.51253" lon="6.62785">
        <ele>105.2</ele>
        <time>2023-11-05T09:04:39Z</time>
      </trkpt>
      <trkpt lat="43.51254" lon="6.62786">
        <ele>105.3</ele>
        <time>2023-11-05T09:04:40Z</time>
      </trkpt>
      <trkpt lat="43.51254" lon="6.62787">
        <ele>105.4</ele>
        <time>2023-11-05T09:04:41Z</time>
      </trkpt>
      <trkpt lat="43.51255" lon="6.62788">
        <ele>105.5</ele>
        <time>2023-11-05T09:04:42Z</time>
      </trkpt>
      <trkpt lat="43.51256" lon="6.62789">
        <ele>105.5</ele>
        <time>2023-11-05T09:04:43Z</time>
      </trkpt>
      <trkpt lat="43.51256" lon="6.6279">
        <ele>105.5</ele>
        <time>2023-11-05T09:04:44Z</time>
      </trkpt>
      <trkpt lat="43.51257" lon="6.62791">
        <ele>105.7</ele>
        <time>2023-11-05T09:04:45Z</time>
      </trkpt>
      <trkpt lat="43.51258" lon="6.62792">
        <ele>106</ele>
        <time>2023-11-05T09:04:46Z</time>
      </trkpt>
      <trkpt lat="43.51259" lon="6.62793">
        <ele>106.3</ele>
        <time>2023-11-05T09:04:47Z</time>
      </trkpt>
      <trkpt lat="43.51259" lon="6.62793">
        <ele>106.5</ele>
        <time>2023-11-05T09:04:48Z</time>
      </trkpt>
      <trkpt lat="43.5126" lon="6.62794">
        <ele>106.6</ele>
        <time>2023-11-05T09:04:49Z</time>
      </trkpt>
      <trkpt lat="43.5126" lon="6.62794">
        <ele>106.8</ele>
        <time>2023-11-05T09:04:50Z</time>
      </trkpt>
      <trkpt lat="43.5126" lon="6.62794">
        <ele>106.8</ele>
        <time>2023-11-05T09:04:51Z</time>
      </trkpt>
      <trkpt lat="43.5126" lon="6.62795">
        <ele>106.8</ele>
        <time>2023-11-05T09:04:52Z</time>
      </trkpt>
      <trkpt lat="43.51261" lon="6.62796">
        <ele>106.7</ele>
        <time>2023-11-05T09:04:53Z</time>
      </trkpt>
      <trkpt lat="43.51261" lon="6.62797">
        <ele>106.8</ele>
        <time>2023-11-05T09:04:54Z</time>
      </trkpt>
      <trkpt lat="43.51262" lon="6.62798">
        <ele>106.8</ele>
        <time>2023-11-05T09:04:55Z</time>
      </trkpt>
      <trkpt lat="43.51262" lon="6.62799">
        <ele>106.8</ele>
        <time>2023-11-05T09:04:56Z</time>
      </trkpt>
      <trkpt lat="43.51263" lon="6.628">
        <ele>106.9</ele>
        <time>2023-11-05T09:04:57Z</time>
      </trkpt>
      <trkpt lat="43.51263" lon="6.62801">
        <ele>107</ele>
        <time>2023-11-05T09:04:58Z</time>
      </trkpt>
      <trkpt lat="43.51264" lon="6.62802">
        <ele>107.1</ele>
        <time>2023-11-05T09:04:59Z</time>
      </trkpt>
      <trkpt lat="43.51265" lon="6.62803">
        <ele>107.3</ele>
        <time>2023-11-05T09:05:00Z</time>
      </trkpt>
      <trkpt lat="43.51266" lon="6.62803">
        <ele>107.5</ele>
        <time>2023-11-05T09:05:01Z</time>
      </trkpt>
      <trkpt lat="43.51266" lon="6.62804">
        <ele>108</ele>
        <time>2023-11-05T09:05:02Z</time>
      </trkpt>
      <trkpt lat="43.51267" lon="6.62805">
        <ele>108.3</ele>
        <time>2023-11-05T09:05:03Z</time>
      </trkpt>
      <trkpt lat="43.51268" lon="6.62806">
        <ele>108.5</ele>
        <time>2023-11-05T09:05:04Z</time>
      </trkpt>
      <trkpt lat="43.51268" lon="6.62807">
        <ele>108.7</ele>
        <time>2023-11-05T09:05:05Z</time>
      </trkpt>
      <trkpt lat="43.51269" lon="6.62808">
        <ele>108.7</ele>
        <time>2023-11-05T09:05:06Z</time>
      </trkpt>
      <trkpt lat="43.51269" lon="6.62809">
        <ele>108.7</ele>
        <time>2023-11-05T09:05:07Z</time>
      </trkpt>
      <trkpt lat="43.5127" lon="6.62811">
        <ele>108.7</ele>
        <time>2023-11-05T09:05:08Z</time>
      </trkpt>
      <trkpt lat="43.5127" lon="6.62812">
        <ele>108.8</ele>
        <time>2023-11-05T09:05:09Z</time>
      </trkpt>
      <trkpt lat="43.51271" lon="6.62813">
        <ele>109.1</ele>
        <time>2023-11-05T09:05:10Z</time>
      </trkpt>
      <trkpt lat="43.51271" lon="6.62814">
        <ele>109.4</ele>
        <time>2023-11-05T09:05:11Z</time>
      </trkpt>
      <trkpt lat="43.51272" lon="6.62815">
        <ele>109.7</ele>
        <time>2023-11-05T09:05:12Z</time>
      </trkpt>
      <trkpt lat="43.51272" lon="6.62815">
        <ele>110</ele>
        <time>2023-11-05T09:05:13Z</time>
      </trkpt>
      <trkpt lat="43.51273" lon="6.62816">
        <ele>110.3</ele>
        <time>2023-11-05T09:05:14Z</time>
      </trkpt>
      <trkpt lat="43.51274" lon="6.62817">
        <ele>110.5</ele>
        <time>2023-11-05T09:05:15Z</time>
      </trkpt>
      <trkpt lat="43.51274" lon="6.62818">
        <ele>110.8</ele>
        <time>2023-11-05T09:05:16Z</time>
      </trkpt>
      <trkpt lat="43.51275" lon="6.62819">
        <ele>111.2</ele>
        <time>2023-11-05T09:05:17Z</time>
      </trkpt>
      <trkpt lat="43.51275" lon="6.6282">
        <ele>111.5</ele>
        <time>2023-11-05T09:05:18Z</time>
      </trkpt>
      <trkpt lat="43.51276" lon="6.62822">
        <ele>111.6</ele>
        <time>2023-11-05T09:05:19Z</time>
      </trkpt>
      <trkpt lat="43.51277" lon="6.62823">
        <ele>111.8</ele>
        <time>2023-11-05T09:05:20Z</time>
      </trkpt>
      <trkpt lat="43.51277" lon="6.62824">
        <ele>111.9</ele>
        <time>2023-11-05T09:05:21Z</time>
      </trkpt>
      <trkpt lat="43.51278" lon="6.62825">
        <ele>112.1</ele>
        <time>2023-11-05T09:05:22Z</time>
      </trkpt>
      <trkpt lat="43.51278" lon="6.62826">
        <ele>112.3</ele>
        <time>2023-11-05T09:05:23Z</time>
      </trkpt>
      <trkpt lat="43.51278" lon="6.62827">
        <ele>112.4</ele>
        <time>2023-11-05T09:05:24Z</time>
      </trkpt>
      <trkpt lat="43.51279" lon="6.62828">
        <ele>112.6</ele>
        <time>2023-11-05T09:05:25Z</time>
      </trkpt>
      <trkpt lat="43.51279" lon="6.6283">
        <ele>112.8</ele>
        <time>2023-11-05T09:05:26Z</time>
      </trkpt>
      <trkpt lat="43.5128" lon="6.62831">
        <ele>113</ele>
        <time>2023-11-05T09:05:27Z</time>
      </trkpt>
      <trkpt lat="43.5128" lon="6.62832">
        <ele>113.1</ele>
        <time>2023-11-05T09:05:28Z</time>
      </trkpt>
      <trkpt lat="43.5128" lon="6.62833">
        <ele>113.2</ele>
        <time>2023-11-05T09:05:29Z</time>
      </trkpt>
      <trkpt lat="43.51281" lon="6.62834">
        <ele>113.3</ele>
        <time>2023-11-05T09:05:30Z</time>
      </trkpt>
      <trkpt lat="43.51281" lon="6.62835">
        <ele>113.5</ele>
        <time>2023-11-05T09:05:31Z</time>
      </trkpt>
      <trkpt lat="43.51282" lon="6.62835">
        <ele>113.6</ele>
        <time>2023-11-05T09:05:32Z</time>
      </trkpt>
      <trkpt lat="43.51283" lon="6.62836">
        <ele>113.8</ele>
        <time>2023-11-05T09:05:33Z</time>
      </trkpt>
      <trkpt lat="43.51283" lon="6.62837">
        <ele>113.8</ele>
        <time>2023-11-05T09:05:34Z</time>
      </trkpt>
      <trkpt lat="43.51283" lon="6.62837">
        <ele>113.8</ele>
        <time>2023-11-05T09:05:35Z</time>
      </trkpt>
      <trkpt lat="43.51283" lon="6.62837">
        <ele>114</ele>
        <time>2023-11-05T09:05:36Z</time>
      </trkpt>
      <trkpt lat="43.51284" lon="6.62838">
        <ele>114.1</ele>
        <time>2023-11-05T09:05:37Z</time>
      </trkpt>
      <trkpt lat="43.51284" lon="6.62838">
        <ele>114.2</ele>
        <time>2023-11-05T09:05:38Z</time>
      </trkpt>
      <trkpt lat="43.51284" lon="6.62839">
        <ele>114.4</ele>
        <time>2023-11-05T09:05:39Z</time>
      </trkpt>
      <trkpt lat="43.51284" lon="6.6284">
        <ele>114.3</ele>
        <time>2023-11-05T09:05:40Z</time>
      </trkpt>
      <trkpt lat="43.51285" lon="6.62841">
        <ele>114.4</ele>
        <time>2023-11-05T09:05:41Z</time>
      </trkpt>
      <trkpt lat="43.51285" lon="6.62841">
        <ele>114.5</ele>
        <time>2023-11-05T09:05:42Z</time>
      </trkpt>
      <trkpt lat="43.51285" lon="6.62842">
        <ele>114.6</ele>
        <time>2023-11-05T09:05:43Z</time>
      </trkpt>
      <trkpt lat="43.51286" lon="6.62843">
        <ele>114.7</ele>
        <time>2023-11-05T09:05:44Z</time>
      </trkpt>
      <trkpt lat="43.51287" lon="6.62844">
        <ele>114.9</ele>
        <time>2023-11-05T09:05:45Z</time>
      </trkpt>
      <trkpt lat="43.51287" lon="6.62845">
        <ele>115.1</ele>
        <time>2023-11-05T09:05:46Z</time>
      </trkpt>
      <trkpt lat="43.51288" lon="6.62845">
        <ele>115.2</ele>
        <time>2023-11-05T09:05:47Z</time>
      </trkpt>
      <trkpt lat="43.51288" lon="6.62846">
        <ele>115.5</ele>
        <time>2023-11-05T09:05:48Z</time>
      </trkpt>
      <trkpt lat="43.51288" lon="6.62846">
        <ele>115.5</ele>
        <time>2023-11-05T09:05:49Z</time>
      </trkpt>
      <trkpt lat="43.51289" lon="6.62847">
        <ele>115.5</ele>
        <time>2023-11-05T09:05:50Z</time>
      </trkpt>
      <trkpt lat="43.51289" lon="6.62847">
        <ele>115.6</ele>
        <time>2023-11-05T09:05:51Z</time>
      </trkpt>
      <trkpt lat="43.51289" lon="6.62849">
        <ele>115.6</ele>
        <time>2023-11-05T09:05:52Z</time>
      </trkpt>
      <trkpt lat="43.5129" lon="6.6285">
        <ele>115.6</ele>
        <time>2023-11-05T09:05:53Z</time>
      </trkpt>
      <trkpt lat="43.5129" lon="6.62851">
        <ele>115.8</ele>
        <time>2023-11-05T09:05:54Z</time>
      </trkpt>
      <trkpt lat="43.51291" lon="6.62852">
        <ele>115.8</ele>
        <time>2023-11-05T09:05:55Z</time>
      </trkpt>
      <trkpt lat="43.51292" lon="6.62853">
        <ele>115.8</ele>
        <time>2023-11-05T09:05:56Z</time>
      </trkpt>
      <trkpt lat="43.51292" lon="6.62854">
        <ele>115.8</ele>
        <time>2023-11-05T09:05:57Z</time>
      </trkpt>
      <trkpt lat="43.51293" lon="6.62855">
        <ele>115.9</ele>
        <time>2023-11-05T09:05:58Z</time>
      </trkpt>
      <trkpt lat="43.51294" lon="6.62856">
        <ele>115.9</ele>
        <time>2023-11-05T09:05:59Z</time>
      </trkpt>
      <trkpt lat="43.51294" lon="6.62857">
        <ele>116</ele>
        <time>2023-11-05T09:06:00Z</time>
      </trkpt>
      <trkpt lat="43.51295" lon="6.62858">
        <ele>116.1</ele>
        <time>2023-11-05T09:06:01Z</time>
      </trkpt>
      <trkpt lat="43.51296" lon="6.62859">
        <ele>116.1</ele>
        <time>2023-11-05T09:06:02Z</time>
      </trkpt>
      <trkpt lat="43.51296" lon="6.6286">
        <ele>116.2</ele>
        <time>2023-11-05T09:06:03Z</time>
      </trkpt>
      <trkpt lat="43.51297" lon="6.62861">
        <ele>116.4</ele>
        <time>2023-11-05T09:06:04Z</time>
      </trkpt>
      <trkpt lat="43.51297" lon="6.62862">
        <ele>116.5</ele>
        <time>2023-11-05T09:06:05Z</time>
      </trkpt>
      <trkpt lat="43.51298" lon="6.62864">
        <ele>116.5</ele>
        <time>2023-11-05T09:06:06Z</time>
      </trkpt>
      <trkpt lat="43.51299" lon="6.62865">
        <ele>116.6</ele>
        <time>2023-11-05T09:06:07Z</time>
      </trkpt>
      <trkpt lat="43.513" lon="6.62866">
        <ele>116.8</ele>
        <time>2023-11-05T09:06:08Z</time>
      </trkpt>
      <trkpt lat="43.513" lon="6.62867">
        <ele>117</ele>
        <time>2023-11-05T09:06:09Z</time>
      </trkpt>
      <trkpt lat="43.51301" lon="6.62869">
        <ele>117.2</ele>
        <time>2023-11-05T09:06:10Z</time>
      </trkpt>
      <trkpt lat="43.51301" lon="6.6287">
        <ele>117.3</ele>
        <time>2023-11-05T09:06:11Z</time>
      </trkpt>
      <trkpt lat="43.51302" lon="6.62871">
        <ele>117.5</ele>
        <time>2023-11-05T09:06:12Z</time>
      </trkpt>
      <trkpt lat="43.51302" lon="6.62872">
        <ele>117.6</ele>
        <time>2023-11-05T09:06:13Z</time>
      </trkpt>
      <trkpt lat="43.51303" lon="6.62873">
        <ele>117.6</ele>
        <time>2023-11-05T09:06:14Z</time>
      </trkpt>
      <trkpt lat="43.51303" lon="6.62875">
        <ele>117.5</ele>
        <time>2023-11-05T09:06:15Z</time>
      </trkpt>
      <trkpt lat="43.51303" lon="6.62876">
        <ele>117.6</ele>
        <time>2023-11-05T09:06:16Z</time>
      </trkpt>
      <trkpt lat="43.51304" lon="6.62878">
        <ele>117.9</ele>
        <time>2023-11-05T09:06:17Z</time>
      </trkpt>
      <trkpt lat="43.51304" lon="6.62879">
        <ele>118.2</ele>
        <time>2023-11-05T09:06:18Z</time>
      </trkpt>
      <trkpt lat="43.51305" lon="6.6288">
        <ele>118.3</ele>
        <time>2023-11-05T09:06:19Z</time>
      </trkpt>
      <trkpt lat="43.51305" lon="6.62881">
        <ele>118.5</ele>
        <time>2023-11-05T09:06:20Z</time>
      </trkpt>
      <trkpt lat="43.51305" lon="6.62882">
        <ele>118.8</ele>
        <time>2023-11-05T09:06:21Z</time>
      </trkpt>
      <trkpt lat="43.51306" lon="6.62884">
        <ele>119</ele>
        <time>2023-11-05T09:06:22Z</time>
      </trkpt>
      <trkpt lat="43.51306" lon="6.62885">
        <ele>119.2</ele>
        <time>2023-11-05T09:06:23Z</time>
      </trkpt>
      <trkpt lat="43.51307" lon="6.62887">
        <ele>119.3</ele>
        <time>2023-11-05T09:06:24Z</time>
      </trkpt>
      <trkpt lat="43.51307" lon="6.62888">
        <ele>119.5</ele>
        <time>2023-11-05T09:06:25Z</time>
      </trkpt>
      <trkpt lat="43.51307" lon="6.62889">
        <ele>119.6</ele>
        <time>2023-11-05T09:06:26Z</time>
      </trkpt>
      <trkpt lat="43.51308" lon="6.62891">
        <ele>119.8</ele>
        <time>2023-11-05T09:06:27Z</time>
      </trkpt>
      <trkpt lat="43.51308" lon="6.62892">
        <ele>119.9</ele>
        <time>2023-11-05T09:06:28Z</time>
      </trkpt>
      <trkpt lat="43.51309" lon="6.62893">
        <ele>120.1</ele>
        <time>2023-11-05T09:06:29Z</time>
      </trkpt>
      <trkpt lat="43.51309" lon="6.62894">
        <ele>120.2</ele>
        <time>2023-11-05T09:06:30Z</time>
      </trkpt>
      <trkpt lat="43.51309" lon="6.62895">
        <ele>120.3</ele>
        <time>2023-11-05T09:06:31Z</time>
      </trkpt>
      <trkpt lat="43.5131" lon="6.62897">
        <ele>120.6</ele>
        <time>2023-11-05T09:06:32Z</time>
      </trkpt>
      <trkpt lat="43.5131" lon="6.62898">
        <ele>120.8</ele>
        <time>2023-11-05T09:06:33Z</time>
      </trkpt>
      <trkpt lat="43.5131" lon="6.629">
        <ele>120.9</ele>
        <time>2023-11-05T09:06:34Z</time>
      </trkpt>
      <trkpt lat="43.5131" lon="6.62901">
        <ele>121</ele>
        <time>2023-11-05T09:06:35Z</time>
      </trkpt>
      <trkpt lat="43.51311" lon="6.62903">
        <ele>121.1</ele>
        <time>2023-11-05T09:06:36Z</time>
      </trkpt>
      <trkpt lat="43.51311" lon="6.62904">
        <ele>121.1</ele>
        <time>2023-11-05T09:06:37Z</time>
      </trkpt>
      <trkpt lat="43.51311" lon="6.62906">
        <ele>121.2</ele>
        <time>2023-11-05T09:06:38Z</time>
      </trkpt>
      <trkpt lat="43.51311" lon="6.62907">
        <ele>121.2</ele>
        <time>2023-11-05T09:06:39Z</time>
      </trkpt>
      <trkpt lat="43.51311" lon="6.62909">
        <ele>121.2</ele>
        <time>2023-11-05T09:06:40Z</time>
      </trkpt>
      <trkpt lat="43.51312" lon="6.6291">
        <ele>121.2</ele>
        <time>2023-11-05T09:06:41Z</time>
      </trkpt>
      <trkpt lat="43.51312" lon="6.62911">
        <ele>121.2</ele>
        <time>2023-11-05T09:06:42Z</time>
      </trkpt>
      <trkpt lat="43.51312" lon="6.62913">
        <ele>121.3</ele>
        <time>2023-11-05T09:06:43Z</time>
      </trkpt>
      <trkpt lat="43.51313" lon="6.62914">
        <ele>121.4</ele>
        <time>2023-11-05T09:06:44Z</time>
      </trkpt>
      <trkpt lat="43.51313" lon="6.62915">
        <ele>121.5</ele>
        <time>2023-11-05T09:06:45Z</time>
      </trkpt>
      <trkpt lat="43.51313" lon="6.62917">
        <ele>121.4</ele>
        <time>2023-11-05T09:06:46Z</time>
      </trkpt>
      <trkpt lat="43.51314" lon="6.62918">
        <ele>121.4</ele>
        <time>2023-11-05T09:06:47Z</time>
      </trkpt>
      <trkpt lat="43.51314" lon="6.6292">
        <ele>121.5</ele>
        <time>2023-11-05T09:06:48Z</time>
      </trkpt>
      <trkpt lat="43.51315" lon="6.62921">
        <ele>121.6</ele>
        <time>2023-11-05T09:06:49Z</time>
      </trkpt>
      <trkpt lat="43.51315" lon="6.62923">
        <ele>121.7</ele>
        <time>2023-11-05T09:06:50Z</time>
      </trkpt>
      <trkpt lat="43.51316" lon="6.62924">
        <ele>121.7</ele>
        <time>2023-11-05T09:06:51Z</time>
      </trkpt>
      <trkpt lat="43.51316" lon="6.62926">
        <ele>121.9</ele>
        <time>2023-11-05T09:06:52Z</time>
      </trkpt>
      <trkpt lat="43.51316" lon="6.62927">
        <ele>122</ele>
        <time>2023-11-05T09:06:53Z</time>
      </trkpt>
      <trkpt lat="43.51317" lon="6.62929">
        <ele>122</ele>
        <time>2023-11-05T09:06:54Z</time>
      </trkpt>
      <trkpt lat="43.51317" lon="6.6293">
        <ele>122.2</ele>
        <time>2023-11-05T09:06:55Z</time>
      </trkpt>
      <trkpt lat="43.51317" lon="6.62932">
        <ele>122.4</ele>
        <time>2023-11-05T09:06:56Z</time>
      </trkpt>
      <trkpt lat="43.51318" lon="6.62933">
        <ele>122.5</ele>
        <time>2023-11-05T09:06:57Z</time>
      </trkpt>
      <trkpt lat="43.51318" lon="6.62935">
        <ele>122.7</ele>
        <time>2023-11-05T09:06:58Z</time>
      </trkpt>
      <trkpt lat="43.51318" lon="6.62936">
        <ele>122.8</ele>
        <time>2023-11-05T09:06:59Z</time>
      </trkpt>
      <trkpt lat="43.51319" lon="6.62938">
        <ele>123</ele>
        <time>2023-11-05T09:07:00Z</time>
      </trkpt>
      <trkpt lat="43.51319" lon="6.62939">
        <ele>123.1</ele>
        <time>2023-11-05T09:07:01Z</time>
      </trkpt>
      <trkpt lat="43.5132" lon="6.62941">
        <ele>123.1</ele>
        <time>2023-11-05T09:07:02Z</time>
      </trkpt>
      <trkpt lat="43.5132" lon="6.62942">
        <ele>123.2</ele>
        <time>2023-11-05T09:07:03Z</time>
      </trkpt>
      <trkpt lat="43.5132" lon="6.62944">
        <ele>123.3</ele>
        <time>2023-11-05T09:07:04Z</time>
      </trkpt>
      <trkpt lat="43.5132" lon="6.62945">
        <ele>123.4</ele>
        <time>2023-11-05T09:07:05Z</time>
      </trkpt>
      <trkpt lat="43.5132" lon="6.62946">
        <ele>123.5</ele>
        <time>2023-11-05T09:07:06Z</time>
      </trkpt>
      <trkpt lat="43.51321" lon="6.62948">
        <ele>123.6</ele>
        <time>2023-11-05T09:07:07Z</time>
      </trkpt>
      <trkpt lat="43.51321" lon="6.62949">
        <ele>123.8</ele>
        <time>2023-11-05T09:07:08Z</time>
      </trkpt>
      <trkpt lat="43.51321" lon="6.62951">
        <ele>123.8</ele>
        <time>2023-11-05T09:07:09Z</time>
      </trkpt>
      <trkpt lat="43.51321" lon="6.62952">
        <ele>123.9</ele>
        <time>2023-11-05T09:07:10Z</time>
      </trkpt>
      <trkpt lat="43.51321" lon="6.62954">
        <ele>124</ele>
        <time>2023-11-05T09:07:11Z</time>
      </trkpt>
      <trkpt lat="43.51321" lon="6.62955">
        <ele>124.1</ele>
        <time>2023-11-05T09:07:12Z</time>
      </trkpt>
      <trkpt lat="43.51321" lon="6.62957">
        <ele>124.2</ele>
        <time>2023-11-05T09:07:13Z</time>
      </trkpt>
      <trkpt lat="43.51322" lon="6.62959">
        <ele>124.2</ele>
        <time>2023-11-05T09:07:14Z</time>
      </trkpt>
      <trkpt lat="43.51322" lon="6.6296">
        <ele>124.3</ele>
        <time>2023-11-05T09:07:15Z</time>
      </trkpt>
      <trkpt lat="43.51322" lon="6.62962">
        <ele>124.6</ele>
        <time>2023-11-05T09:07:16Z</time>
      </trkpt>
      <trkpt lat="43.51321" lon="6.62963">
        <ele>124.7</ele>
        <time>2023-11-05T09:07:17Z</time>
      </trkpt>
      <trkpt lat="43.51322" lon="6.62965">
        <ele>124.9</ele>
        <time>2023-11-05T09:07:18Z</time>
      </trkpt>
      <trkpt lat="43.51322" lon="6.62967">
        <ele>125.1</ele>
        <time>2023-11-05T09:07:19Z</time>
      </trkpt>
      <trkpt lat="43.51322" lon="6.62968">
        <ele>125.2</ele>
        <time>2023-11-05T09:07:20Z</time>
      </trkpt>
      <trkpt lat="43.51322" lon="6.62969">
        <ele>125.3</ele>
        <time>2023-11-05T09:07:21Z</time>
      </trkpt>
      <trkpt lat="43.51322" lon="6.62971">
        <ele>125.5</ele>
        <time>2023-11-05T09:07:22Z</time>
      </trkpt>
      <trkpt lat="43.51323" lon="6.62972">
        <ele>125.7</ele>
        <time>2023-11-05T09:07:23Z</time>
      </trkpt>
      <trkpt lat="43.51323" lon="6.62973">
        <ele>125.8</ele>
        <time>2023-11-05T09:07:24Z</time>
      </trkpt>
      <trkpt lat="43.51323" lon="6.62975">
        <ele>125.9</ele>
        <time>2023-11-05T09:07:25Z</time>
      </trkpt>
      <trkpt lat="43.51323" lon="6.62976">
        <ele>125.9</ele>
        <time>2023-11-05T09:07:26Z</time>
      </trkpt>
      <trkpt lat="43.51323" lon="6.62978">
        <ele>126</ele>
        <time>2023-11-05T09:07:27Z</time>
      </trkpt>
      <trkpt lat="43.51324" lon="6.62979">
        <ele>126.2</ele>
        <time>2023-11-05T09:07:28Z</time>
      </trkpt>
      <trkpt lat="43.51324" lon="6.62981">
        <ele>126.3</ele>
        <time>2023-11-05T09:07:29Z</time>
      </trkpt>
      <trkpt lat="43.51325" lon="6.62982">
        <ele>126.5</ele>
        <time>2023-11-05T09:07:30Z</time>
      </trkpt>
      <trkpt lat="43.51325" lon="6.62984">
        <ele>126.8</ele>
        <time>2023-11-05T09:07:31Z</time>
      </trkpt>
      <trkpt lat="43.51325" lon="6.62986">
        <ele>127.1</ele>
        <time>2023-11-05T09:07:32Z</time>
      </trkpt>
      <trkpt lat="43.51325" lon="6.62987">
        <ele>127.2</ele>
        <time>2023-11-05T09:07:33Z</time>
      </trkpt>
      <trkpt lat="43.51325" lon="6.62989">
        <ele>127.3</ele>
        <time>2023-11-05T09:07:34Z</time>
      </trkpt>
      <trkpt lat="43.51325" lon="6.62991">
        <ele>127.3</ele>
        <time>2023-11-05T09:07:35Z</time>
      </trkpt>
      <trkpt lat="43.51325" lon="6.62992">
        <ele>127.4</ele>
        <time>2023-11-05T09:07:36Z</time>
      </trkpt>
      <trkpt lat="43.51325" lon="6.62994">
        <ele>127.5</ele>
        <time>2023-11-05T09:07:37Z</time>
      </trkpt>
      <trkpt lat="43.51325" lon="6.62995">
        <ele>127.6</ele>
        <time>2023-11-05T09:07:38Z</time>
      </trkpt>
      <trkpt lat="43.51326" lon="6.62997">
        <ele>127.7</ele>
        <time>2023-11-05T09:07:39Z</time>
      </trkpt>
      <trkpt lat="43.51326" lon="6.62998">
        <ele>127.7</ele>
        <time>2023-11-05T09:07:40Z</time>
      </trkpt>
      <trkpt lat="43.51326" lon="6.63">
        <ele>127.8</ele>
        <time>2023-11-05T09:07:41Z</time>
      </trkpt>
      <trkpt lat="43.51326" lon="6.63001">
        <ele>127.9</ele>
        <time>2023-11-05T09:07:42Z</time>
      </trkpt>
      <trkpt lat="43.51327" lon="6.63003">
        <ele>128</ele>
        <time>2023-11-05T09:07:43Z</time>
      </trkpt>
      <trkpt lat="43.51327" lon="6.63004">
        <ele>128.1</ele>
        <time>2023-11-05T09:07:44Z</time>
      </trkpt>
      <trkpt lat="43.51327" lon="6.63005">
        <ele>128.2</ele>
        <time>2023-11-05T09:07:45Z</time>
      </trkpt>
      <trkpt lat="43.51327" lon="6.63007">
        <ele>128.5</ele>
        <time>2023-11-05T09:07:46Z</time>
      </trkpt>
      <trkpt lat="43.51327" lon="6.63009">
        <ele>128.8</ele>
        <time>2023-11-05T09:07:47Z</time>
      </trkpt>
      <trkpt lat="43.51328" lon="6.6301">
        <ele>128.9</ele>
        <time>2023-11-05T09:07:48Z</time>
      </trkpt>
      <trkpt lat="43.51328" lon="6.63011">
        <ele>128.8</ele>
        <time>2023-11-05T09:07:49Z</time>
      </trkpt>
      <trkpt lat="43.51328" lon="6.63013">
        <ele>128.8</ele>
        <time>2023-11-05T09:07:50Z</time>
      </trkpt>
      <trkpt lat="43.51328" lon="6.63014">
        <ele>128.8</ele>
        <time>2023-11-05T09:07:51Z</time>
      </trkpt>
      <trkpt lat="43.51328" lon="6.63016">
        <ele>128.9</ele>
        <time>2023-11-05T09:07:52Z</time>
      </trkpt>
      <trkpt lat="43.51329" lon="6.63017">
        <ele>129.1</ele>
        <time>2023-11-05T09:07:53Z</time>
      </trkpt>
      <trkpt lat="43.51329" lon="6.63019">
        <ele>129.1</ele>
        <time>2023-11-05T09:07:54Z</time>
      </trkpt>
      <trkpt lat="43.51329" lon="6.6302">
        <ele>129.1</ele>
        <time>2023-11-05T09:07:55Z</time>
      </trkpt>
      <trkpt lat="43.51329" lon="6.63022">
        <ele>129.3</ele>
        <time>2023-11-05T09:07:56Z</time>
      </trkpt>
      <trkpt lat="43.51329" lon="6.63023">
        <ele>129.4</ele>
        <time>2023-11-05T09:07:57Z</time>
      </trkpt>
      <trkpt lat="43.51329" lon="6.63025">
        <ele>129.5</ele>
        <time>2023-11-05T09:07:58Z</time>
      </trkpt>
      <trkpt lat="43.51329" lon="6.63026">
        <ele>129.5</ele>
        <time>2023-11-05T09:07:59Z</time>
      </trkpt>
      <trkpt lat="43.5133" lon="6.63028">
        <ele>129.5</ele>
        <time>2023-11-05T09:08:00Z</time>
      </trkpt>
      <trkpt lat="43.5133" lon="6.6303">
        <ele>129.5</ele>
        <time>2023-11-05T09:08:01Z</time>
      </trkpt>
      <trkpt lat="43.5133" lon="6.63032">
        <ele>129.6</ele>
        <time>2023-11-05T09:08:02Z</time>
      </trkpt>
      <trkpt lat="43.5133" lon="6.63034">
        <ele>129.7</ele>
        <time>2023-11-05T09:08:03Z</time>
      </trkpt>
      <trkpt lat="43.5133" lon="6.63036">
        <ele>129.8</ele>
        <time>2023-11-05T09:08:04Z</time>
      </trkpt>
      <trkpt lat="43.51331" lon="6.63038">
        <ele>129.9</ele>
        <time>2023-11-05T09:08:05Z</time>
      </trkpt>
      <trkpt lat="43.5133" lon="6.63039">
        <ele>130</ele>
        <time>2023-11-05T09:08:06Z</time>
      </trkpt>
      <trkpt lat="43.5133" lon="6.6304">
        <ele>130</ele>
        <time>2023-11-05T09:08:07Z</time>
      </trkpt>
      <trkpt lat="43.5133" lon="6.63041">
        <ele>130</ele>
        <time>2023-11-05T09:08:08Z</time>
      </trkpt>
      <trkpt lat="43.5133" lon="6.63042">
        <ele>130</ele>
        <time>2023-11-05T09:08:09Z</time>
      </trkpt>
      <trkpt lat="43.5133" lon="6.63044">
        <ele>130</ele>
        <time>2023-11-05T09:08:10Z</time>
      </trkpt>
      <trkpt lat="43.5133" lon="6.63045">
        <ele>130.1</ele>
        <time>2023-11-05T09:08:11Z</time>
      </trkpt>
      <trkpt lat="43.5133" lon="6.63047">
        <ele>130.3</ele>
        <time>2023-11-05T09:08:12Z</time>
      </trkpt>
      <trkpt lat="43.5133" lon="6.63048">
        <ele>130.4</ele>
        <time>2023-11-05T09:08:13Z</time>
      </trkpt>
      <trkpt lat="43.5133" lon="6.63049">
        <ele>130.5</ele>
        <time>2023-11-05T09:08:14Z</time>
      </trkpt>
      <trkpt lat="43.5133" lon="6.63051">
        <ele>130.4</ele>
        <time>2023-11-05T09:08:15Z</time>
      </trkpt>
      <trkpt lat="43.5133" lon="6.63053">
        <ele>130.5</ele>
        <time>2023-11-05T09:08:16Z</time>
      </trkpt>
      <trkpt lat="43.51331" lon="6.63054">
        <ele>130.5</ele>
        <time>2023-11-05T09:08:17Z</time>
      </trkpt>
      <trkpt lat="43.51331" lon="6.63056">
        <ele>130.7</ele>
        <time>2023-11-05T09:08:18Z</time>
      </trkpt>
      <trkpt lat="43.51331" lon="6.63057">
        <ele>130.8</ele>
        <time>2023-11-05T09:08:19Z</time>
      </trkpt>
      <trkpt lat="43.51331" lon="6.63059">
        <ele>130.8</ele>
        <time>2023-11-05T09:08:20Z</time>
      </trkpt>
      <trkpt lat="43.51331" lon="6.6306">
        <ele>130.9</ele>
        <time>2023-11-05T09:08:21Z</time>
      </trkpt>
      <trkpt lat="43.51331" lon="6.63062">
        <ele>131</ele>
        <time>2023-11-05T09:08:22Z</time>
      </trkpt>
      <trkpt lat="43.51331" lon="6.63063">
        <ele>131.1</ele>
        <time>2023-11-05T09:08:23Z</time>
      </trkpt>
      <trkpt lat="43.51331" lon="6.63065">
        <ele>131.1</ele>
        <time>2023-11-05T09:08:24Z</time>
      </trkpt>
      <trkpt lat="43.51331" lon="6.63067">
        <ele>131.4</ele>
        <time>2023-11-05T09:08:25Z</time>
      </trkpt>
      <trkpt lat="43.51332" lon="6.63068">
        <ele>131.6</ele>
        <time>2023-11-05T09:08:26Z</time>
      </trkpt>
      <trkpt lat="43.51332" lon="6.63069">
        <ele>131.7</ele>
        <time>2023-11-05T09:08:27Z</time>
      </trkpt>
      <trkpt lat="43.51332" lon="6.6307">
        <ele>131.8</ele>
        <time>2023-11-05T09:08:28Z</time>
      </trkpt>
      <trkpt lat="43.51333" lon="6.63072">
        <ele>131.8</ele>
        <time>2023-11-05T09:08:29Z</time>
      </trkpt>
      <trkpt lat="43.51333" lon="6.63074">
        <ele>131.8</ele>
        <time>2023-11-05T09:08:30Z</time>
      </trkpt>
      <trkpt lat="43.51334" lon="6.63075">
        <ele>131.8</ele>
        <time>2023-11-05T09:08:31Z</time>
      </trkpt>
      <trkpt lat="43.51334" lon="6.63076">
        <ele>131.9</ele>
        <time>2023-11-05T09:08:32Z</time>
      </trkpt>
      <trkpt lat="43.51334" lon="6.63077">
        <ele>132</ele>
        <time>2023-11-05T09:08:33Z</time>
      </trkpt>
      <trkpt lat="43.51335" lon="6.63079">
        <ele>131.9</ele>
        <time>2023-11-05T09:08:34Z</time>
      </trkpt>
      <trkpt lat="43.51335" lon="6.6308">
        <ele>131.8</ele>
        <time>2023-11-05T09:08:35Z</time>
      </trkpt>
      <trkpt lat="43.51335" lon="6.63082">
        <ele>131.7</ele>
        <time>2023-11-05T09:08:36Z</time>
      </trkpt>
      <trkpt lat="43.51336" lon="6.63083">
        <ele>131.6</ele>
        <time>2023-11-05T09:08:37Z</time>
      </trkpt>
      <trkpt lat="43.51336" lon="6.63084">
        <ele>131.4</ele>
        <time>2023-11-05T09:08:38Z</time>
      </trkpt>
      <trkpt lat="43.51337" lon="6.63085">
        <ele>131.4</ele>
        <time>2023-11-05T09:08:39Z</time>
      </trkpt>
      <trkpt lat="43.51337" lon="6.63086">
        <ele>131.3</ele>
        <time>2023-11-05T09:08:40Z</time>
      </trkpt>
      <trkpt lat="43.51338" lon="6.63087">
        <ele>131.3</ele>
        <time>2023-11-05T09:08:41Z</time>
      </trkpt>
      <trkpt lat="43.51338" lon="6.63089">
        <ele>131.2</ele>
        <time>2023-11-05T09:08:42Z</time>
      </trkpt>
      <trkpt lat="43.51339" lon="6.6309">
        <ele>131.1</ele>
        <time>2023-11-05T09:08:43Z</time>
      </trkpt>
      <trkpt lat="43.51339" lon="6.63091">
        <ele>131.1</ele>
        <time>2023-11-05T09:08:44Z</time>
      </trkpt>
      <trkpt lat="43.51339" lon="6.63092">
        <ele>131.1</ele>
        <time>2023-11-05T09:08:45Z</time>
      </trkpt>
      <trkpt lat="43.5134" lon="6.63093">
        <ele>130.8</ele>
        <time>2023-11-05T09:08:46Z</time>
      </trkpt>
      <trkpt lat="43.5134" lon="6.63094">
        <ele>130.6</ele>
        <time>2023-11-05T09:08:47Z</time>
      </trkpt>
      <trkpt lat="43.51341" lon="6.63095">
        <ele>130.4</ele>
        <time>2023-11-05T09:08:48Z</time>
      </trkpt>
      <trkpt lat="43.51341" lon="6.63096">
        <ele>130.2</ele>
        <time>2023-11-05T09:08:49Z</time>
      </trkpt>
      <trkpt lat="43.51342" lon="6.63097">
        <ele>130</ele>
        <time>2023-11-05T09:08:50Z</time>
      </trkpt>
      <trkpt lat="43.51342" lon="6.63098">
        <ele>129.9</ele>
        <time>2023-11-05T09:08:51Z</time>
      </trkpt>
      <trkpt lat="43.51342" lon="6.63099">
        <ele>129.8</ele>
        <time>2023-11-05T09:08:52Z</time>
      </trkpt>
      <trkpt lat="43.51343" lon="6.63101">
        <ele>129.7</ele>
        <time>2023-11-05T09:08:53Z</time>
      </trkpt>
      <trkpt lat="43.51343" lon="6.63102">
        <ele>129.5</ele>
        <time>2023-11-05T09:08:54Z</time>
      </trkpt>
      <trkpt lat="43.51343" lon="6.63103">
        <ele>129.3</ele>
        <time>2023-11-05T09:08:55Z</time>
      </trkpt>
      <trkpt lat="43.51343" lon="6.63104">
        <ele>129.1</ele>
        <time>2023-11-05T09:08:56Z</time>
      </trkpt>
      <trkpt lat="43.51343" lon="6.63105">
        <ele>128.9</ele>
        <time>2023-11-05T09:08:57Z</time>
      </trkpt>
      <trkpt lat="43.51343" lon="6.63106">
        <ele>128.6</ele>
        <time>2023-11-05T09:08:58Z</time>
      </trkpt>
      <trkpt lat="43.51344" lon="6.63107">
        <ele>128.4</ele>
        <time>2023-11-05T09:08:59Z</time>
      </trkpt>
      <trkpt lat="43.51344" lon="6.63108">
        <ele>128.2</ele>
        <time>2023-11-05T09:09:00Z</time>
      </trkpt>
      <trkpt lat="43.51345" lon="6.63109">
        <ele>128</ele>
        <time>2023-11-05T09:09:01Z</time>
      </trkpt>
      <trkpt lat="43.51345" lon="6.6311">
        <ele>127.8</ele>
        <time>2023-11-05T09:09:02Z</time>
      </trkpt>
      <trkpt lat="43.51346" lon="6.63112">
        <ele>127.6</ele>
        <time>2023-11-05T09:09:03Z</time>
      </trkpt>
      <trkpt lat="43.51346" lon="6.63113">
        <ele>127.6</ele>
        <time>2023-11-05T09:09:04Z</time>
      </trkpt>
      <trkpt lat="43.51346" lon="6.63115">
        <ele>127.5</ele>
        <time>2023-11-05T09:09:05Z</time>
      </trkpt>
      <trkpt lat="43.51347" lon="6.63116">
        <ele>127.6</ele>
        <time>2023-11-05T09:09:06Z</time>
      </trkpt>
      <trkpt lat="43.51347" lon="6.63117">
        <ele>127.6</ele>
        <time>2023-11-05T09:09:07Z</time>
      </trkpt>
      <trkpt lat="43.51348" lon="6.63118">
        <ele>127.6</ele>
        <time>2023-11-05T09:09:08Z</time>
      </trkpt>
      <trkpt lat="43.51348" lon="6.6312">
        <ele>127.5</ele>
        <time>2023-11-05T09:09:09Z</time>
      </trkpt>
      <trkpt lat="43.51348" lon="6.63121">
        <ele>127.3</ele>
        <time>2023-11-05T09:09:10Z</time>
      </trkpt>
      <trkpt lat="43.51349" lon="6.63123">
        <ele>127.1</ele>
        <time>2023-11-05T09:09:11Z</time>
      </trkpt>
      <trkpt lat="43.51349" lon="6.63124">
        <ele>126.9</ele>
        <time>2023-11-05T09:09:12Z</time>
      </trkpt>
      <trkpt lat="43.5135" lon="6.63126">
        <ele>126.6</ele>
        <time>2023-11-05T09:09:13Z</time>
      </trkpt>
      <trkpt lat="43.51351" lon="6.63128">
        <ele>126.4</ele>
        <time>2023-11-05T09:09:14Z</time>
      </trkpt>
      <trkpt lat="43.51351" lon="6.63129">
        <ele>126.2</ele>
        <time>2023-11-05T09:09:15Z</time>
      </trkpt>
      <trkpt lat="43.51351" lon="6.6313">
        <ele>126</ele>
        <time>2023-11-05T09:09:16Z</time>
      </trkpt>
      <trkpt lat="43.51352" lon="6.63131">
        <ele>125.9</ele>
        <time>2023-11-05T09:09:17Z</time>
      </trkpt>
      <trkpt lat="43.51352" lon="6.63132">
        <ele>125.7</ele>
        <time>2023-11-05T09:09:18Z</time>
      </trkpt>
      <trkpt lat="43.51352" lon="6.63133">
        <ele>125.6</ele>
        <time>2023-11-05T09:09:19Z</time>
      </trkpt>
      <trkpt lat="43.51353" lon="6.63135">
        <ele>125.5</ele>
        <time>2023-11-05T09:09:20Z</time>
      </trkpt>
      <trkpt lat="43.51353" lon="6.63137">
        <ele>125.3</ele>
        <time>2023-11-05T09:09:21Z</time>
      </trkpt>
      <trkpt lat="43.51353" lon="6.63138">
        <ele>125.2</ele>
        <time>2023-11-05T09:09:22Z</time>
      </trkpt>
      <trkpt lat="43.51353" lon="6.63139">
        <ele>125</ele>
        <time>2023-11-05T09:09:23Z</time>
      </trkpt>
      <trkpt lat="43.51354" lon="6.63141">
        <ele>124.9</ele>
        <time>2023-11-05T09:09:24Z</time>
      </trkpt>
      <trkpt lat="43.51354" lon="6.63142">
        <ele>124.8</ele>
        <time>2023-11-05T09:09:25Z</time>
      </trkpt>
      <trkpt lat="43.51355" lon="6.63143">
        <ele>124.7</ele>
        <time>2023-11-05T09:09:26Z</time>
      </trkpt>
      <trkpt lat="43.51355" lon="6.63145">
        <ele>124.7</ele>
        <time>2023-11-05T09:09:27Z</time>
      </trkpt>
      <trkpt lat="43.51356" lon="6.63146">
        <ele>124.6</ele>
        <time>2023-11-05T09:09:28Z</time>
      </trkpt>
      <trkpt lat="43.51356" lon="6.63147">
        <ele>124.5</ele>
        <time>2023-11-05T09:09:29Z</time>
      </trkpt>
      <trkpt lat="43.51357" lon="6.63149">
        <ele>124.2</ele>
        <time>2023-11-05T09:09:30Z</time>
      </trkpt>
      <trkpt lat="43.51357" lon="6.6315">
        <ele>124</ele>
        <time>2023-11-05T09:09:31Z</time>
      </trkpt>
      <trkpt lat="43.51357" lon="6.63151">
        <ele>123.8</ele>
        <time>2023-11-05T09:09:32Z</time>
      </trkpt>
      <trkpt lat="43.51358" lon="6.63152">
        <ele>123.7</ele>
        <time>2023-11-05T09:09:33Z</time>
      </trkpt>
      <trkpt lat="43.51359" lon="6.63153">
        <ele>123.5</ele>
        <time>2023-11-05T09:09:34Z</time>
      </trkpt>
      <trkpt lat="43.51359" lon="6.63154">
        <ele>123.4</ele>
        <time>2023-11-05T09:09:35Z</time>
      </trkpt>
      <trkpt lat="43.5136" lon="6.63155">
        <ele>123.2</ele>
        <time>2023-11-05T09:09:36Z</time>
      </trkpt>
      <trkpt lat="43.51361" lon="6.63156">
        <ele>123</ele>
        <time>2023-11-05T09:09:37Z</time>
      </trkpt>
      <trkpt lat="43.51361" lon="6.63158">
        <ele>122.9</ele>
        <time>2023-11-05T09:09:38Z</time>
      </trkpt>
      <trkpt lat="43.51361" lon="6.63159">
        <ele>122.7</ele>
        <time>2023-11-05T09:09:39Z</time>
      </trkpt>
      <trkpt lat="43.51362" lon="6.6316">
        <ele>122.5</ele>
        <time>2023-11-05T09:09:40Z</time>
      </trkpt>
      <trkpt lat="43.51362" lon="6.63161">
        <ele>122.3</ele>
        <time>2023-11-05T09:09:41Z</time>
      </trkpt>
      <trkpt lat="43.51362" lon="6.63163">
        <ele>122.1</ele>
        <time>2023-11-05T09:09:42Z</time>
      </trkpt>
      <trkpt lat="43.51363" lon="6.63164">
        <ele>122.1</ele>
        <time>2023-11-05T09:09:43Z</time>
      </trkpt>
      <trkpt lat="43.51363" lon="6.63166">
        <ele>121.8</ele>
        <time>2023-11-05T09:09:44Z</time>
      </trkpt>
      <trkpt lat="43.51363" lon="6.63167">
        <ele>121.6</ele>
        <time>2023-11-05T09:09:45Z</time>
      </trkpt>
      <trkpt lat="43.51364" lon="6.63168">
        <ele>121.5</ele>
        <time>2023-11-05T09:09:46Z</time>
      </trkpt>
      <trkpt lat="43.51364" lon="6.63169">
        <ele>121.4</ele>
        <time>2023-11-05T09:09:47Z</time>
      </trkpt>
      <trkpt lat="43.51364" lon="6.63171">
        <ele>121.2</ele>
        <time>2023-11-05T09:09:48Z</time>
      </trkpt>
      <trkpt lat="43.51365" lon="6.63172">
        <ele>121</ele>
        <time>2023-11-05T09:09:49Z</time>
      </trkpt>
      <trkpt lat="43.51365" lon="6.63173">
        <ele>120.8</ele>
        <time>2023-11-05T09:09:50Z</time>
      </trkpt>
      <trkpt lat="43.51366" lon="6.63175">
        <ele>120.7</ele>
        <time>2023-11-05T09:09:51Z</time>
      </trkpt>
      <trkpt lat="43.51366" lon="6.63176">
        <ele>120.5</ele>
        <time>2023-11-05T09:09:52Z</time>
      </trkpt>
      <trkpt lat="43.51367" lon="6.63178">
        <ele>120.2</ele>
        <time>2023-11-05T09:09:53Z</time>
      </trkpt>
      <trkpt lat="43.51367" lon="6.63179">
        <ele>119.9</ele>
        <time>2023-11-05T09:09:54Z</time>
      </trkpt>
      <trkpt lat="43.51368" lon="6.63179">
        <ele>119.7</ele>
        <time>2023-11-05T09:09:55Z</time>
      </trkpt>
      <trkpt lat="43.51368" lon="6.6318">
        <ele>119.5</ele>
        <time>2023-11-05T09:09:56Z</time>
      </trkpt>
      <trkpt lat="43.51369" lon="6.63181">
        <ele>119.3</ele>
        <time>2023-11-05T09:09:57Z</time>
      </trkpt>
      <trkpt lat="43.51369" lon="6.63182">
        <ele>119.2</ele>
        <time>2023-11-05T09:09:58Z</time>
      </trkpt>
      <trkpt lat="43.51369" lon="6.63184">
        <ele>119</ele>
        <time>2023-11-05T09:09:59Z</time>
      </trkpt>
      <trkpt lat="43.5137" lon="6.63185">
        <ele>118.9</ele>
        <time>2023-11-05T09:10:00Z</time>
      </trkpt>
      <trkpt lat="43.5137" lon="6.63186">
        <ele>118.9</ele>
        <time>2023-11-05T09:10:01Z</time>
      </trkpt>
      <trkpt lat="43.5137" lon="6.63187">
        <ele>118.8</ele>
        <time>2023-11-05T09:10:02Z</time>
      </trkpt>
      <trkpt lat="43.51371" lon="6.63188">
        <ele>118.6</ele>
        <time>2023-11-05T09:10:03Z</time>
      </trkpt>
      <trkpt lat="43.51371" lon="6.6319">
        <ele>118.5</ele>
        <time>2023-11-05T09:10:04Z</time>
      </trkpt>
      <trkpt lat="43.51371" lon="6.63191">
        <ele>118.4</ele>
        <time>2023-11-05T09:10:05Z</time>
      </trkpt>
      <trkpt lat="43.51372" lon="6.63192">
        <ele>118.2</ele>
        <time>2023-11-05T09:10:06Z</time>
      </trkpt>
      <trkpt lat="43.51372" lon="6.63193">
        <ele>118.1</ele>
        <time>2023-11-05T09:10:07Z</time>
      </trkpt>
      <trkpt lat="43.51372" lon="6.63195">
        <ele>118</ele>
        <time>2023-11-05T09:10:08Z</time>
      </trkpt>
      <trkpt lat="43.51372" lon="6.63196">
        <ele>117.7</ele>
        <time>2023-11-05T09:10:09Z</time>
      </trkpt>
      <trkpt lat="43.51373" lon="6.63198">
        <ele>117.5</ele>
        <time>2023-11-05T09:10:10Z</time>
      </trkpt>
      <trkpt lat="43.51373" lon="6.63199">
        <ele>117.4</ele>
        <time>2023-11-05T09:10:11Z</time>
      </trkpt>
      <trkpt lat="43.51374" lon="6.632">
        <ele>117.3</ele>
        <time>2023-11-05T09:10:12Z</time>
      </trkpt>
      <trkpt lat="43.51374" lon="6.63201">
        <ele>117.2</ele>
        <time>2023-11-05T09:10:13Z</time>
      </trkpt>
      <trkpt lat="43.51375" lon="6.63202">
        <ele>117.1</ele>
        <time>2023-11-05T09:10:14Z</time>
      </trkpt>
      <trkpt lat="43.51375" lon="6.63203">
        <ele>117.1</ele>
        <time>2023-11-05T09:10:15Z</time>
      </trkpt>
      <trkpt lat="43.51376" lon="6.63204">
        <ele>117</ele>
        <time>2023-11-05T09:10:16Z</time>
      </trkpt>
      <trkpt lat="43.51377" lon="6.63205">
        <ele>116.9</ele>
        <time>2023-11-05T09:10:17Z</time>
      </trkpt>
      <trkpt lat="43.51377" lon="6.63206">
        <ele>116.8</ele>
        <time>2023-11-05T09:10:18Z</time>
      </trkpt>
      <trkpt lat="43.51378" lon="6.63207">
        <ele>116.7</ele>
        <time>2023-11-05T09:10:19Z</time>
      </trkpt>
      <trkpt lat="43.51379" lon="6.63208">
        <ele>116.5</ele>
        <time>2023-11-05T09:10:20Z</time>
      </trkpt>
      <trkpt lat="43.51379" lon="6.6321">
        <ele>116.3</ele>
        <time>2023-11-05T09:10:21Z</time>
      </trkpt>
      <trkpt lat="43.5138" lon="6.63211">
        <ele>116.2</ele>
        <time>2023-11-05T09:10:22Z</time>
      </trkpt>
      <trkpt lat="43.5138" lon="6.63213">
        <ele>116</ele>
        <time>2023-11-05T09:10:23Z</time>
      </trkpt>
      <trkpt lat="43.51381" lon="6.63214">
        <ele>115.8</ele>
        <time>2023-11-05T09:10:24Z</time>
      </trkpt>
      <trkpt lat="43.51381" lon="6.63215">
        <ele>115.9</ele>
        <time>2023-11-05T09:10:25Z</time>
      </trkpt>
      <trkpt lat="43.51382" lon="6.63216">
        <ele>115.9</ele>
        <time>2023-11-05T09:10:26Z</time>
      </trkpt>
      <trkpt lat="43.51382" lon="6.63218">
        <ele>115.8</ele>
        <time>2023-11-05T09:10:27Z</time>
      </trkpt>
      <trkpt lat="43.51382" lon="6.63218">
        <ele>115.7</ele>
        <time>2023-11-05T09:10:28Z</time>
      </trkpt>
      <trkpt lat="43.51383" lon="6.6322">
        <ele>115.5</ele>
        <time>2023-11-05T09:10:29Z</time>
      </trkpt>
      <trkpt lat="43.51383" lon="6.63221">
        <ele>115.3</ele>
        <time>2023-11-05T09:10:30Z</time>
      </trkpt>
      <trkpt lat="43.51384" lon="6.63223">
        <ele>115.2</ele>
        <time>2023-11-05T09:10:31Z</time>
      </trkpt>
      <trkpt lat="43.51384" lon="6.63224">
        <ele>115</ele>
        <time>2023-11-05T09:10:32Z</time>
      </trkpt>
      <trkpt lat="43.51384" lon="6.63225">
        <ele>114.8</ele>
        <time>2023-11-05T09:10:33Z</time>
      </trkpt>
      <trkpt lat="43.51385" lon="6.63226">
        <ele>114.7</ele>
        <time>2023-11-05T09:10:34Z</time>
      </trkpt>
      <trkpt lat="43.51385" lon="6.63228">
        <ele>114.7</ele>
        <time>2023-11-05T09:10:35Z</time>
      </trkpt>
      <trkpt lat="43.51386" lon="6.63229">
        <ele>114.6</ele>
        <time>2023-11-05T09:10:36Z</time>
      </trkpt>
      <trkpt lat="43.51386" lon="6.6323">
        <ele>114.6</ele>
        <time>2023-11-05T09:10:37Z</time>
      </trkpt>
      <trkpt lat="43.51386" lon="6.63232">
        <ele>114.6</ele>
        <time>2023-11-05T09:10:38Z</time>
      </trkpt>
      <trkpt lat="43.51387" lon="6.63233">
        <ele>114.6</ele>
        <time>2023-11-05T09:10:39Z</time>
      </trkpt>
      <trkpt lat="43.51387" lon="6.63234">
        <ele>114.5</ele>
        <time>2023-11-05T09:10:40Z</time>
      </trkpt>
      <trkpt lat="43.51387" lon="6.63236">
        <ele>114.4</ele>
        <time>2023-11-05T09:10:41Z</time>
      </trkpt>
      <trkpt lat="43.51388" lon="6.63237">
        <ele>114.3</ele>
        <time>2023-11-05T09:10:42Z</time>
      </trkpt>
      <trkpt lat="43.51388" lon="6.63239">
        <ele>114.2</ele>
        <time>2023-11-05T09:10:43Z</time>
      </trkpt>
      <trkpt lat="43.51388" lon="6.6324">
        <ele>114.1</ele>
        <time>2023-11-05T09:10:44Z</time>
      </trkpt>
      <trkpt lat="43.51388" lon="6.63242">
        <ele>114</ele>
        <time>2023-11-05T09:10:45Z</time>
      </trkpt>
      <trkpt lat="43.51388" lon="6.63243">
        <ele>114</ele>
        <time>2023-11-05T09:10:46Z</time>
      </trkpt>
      <trkpt lat="43.51389" lon="6.63244">
        <ele>114</ele>
        <time>2023-11-05T09:10:47Z</time>
      </trkpt>
      <trkpt lat="43.51389" lon="6.63246">
        <ele>114</ele>
        <time>2023-11-05T09:10:48Z</time>
      </trkpt>
      <trkpt lat="43.5139" lon="6.63247">
        <ele>114</ele>
        <time>2023-11-05T09:10:49Z</time>
      </trkpt>
      <trkpt lat="43.5139" lon="6.63249">
        <ele>113.9</ele>
        <time>2023-11-05T09:10:50Z</time>
      </trkpt>
      <trkpt lat="43.51391" lon="6.6325">
        <ele>113.9</ele>
        <time>2023-11-05T09:10:51Z</time>
      </trkpt>
      <trkpt lat="43.51391" lon="6.63252">
        <ele>113.9</ele>
        <time>2023-11-05T09:10:52Z</time>
      </trkpt>
      <trkpt lat="43.51391" lon="6.63254">
        <ele>113.8</ele>
        <time>2023-11-05T09:10:53Z</time>
      </trkpt>
      <trkpt lat="43.51392" lon="6.63255">
        <ele>113.8</ele>
        <time>2023-11-05T09:10:54Z</time>
      </trkpt>
      <trkpt lat="43.51392" lon="6.63257">
        <ele>113.7</ele>
        <time>2023-11-05T09:10:55Z</time>
      </trkpt>
      <trkpt lat="43.51393" lon="6.63258">
        <ele>113.5</ele>
        <time>2023-11-05T09:10:56Z</time>
      </trkpt>
      <trkpt lat="43.51393" lon="6.6326">
        <ele>113.3</ele>
        <time>2023-11-05T09:10:57Z</time>
      </trkpt>
      <trkpt lat="43.51394" lon="6.63261">
        <ele>113.2</ele>
        <time>2023-11-05T09:10:58Z</time>
      </trkpt>
      <trkpt lat="43.51394" lon="6.63262">
        <ele>113.3</ele>
        <time>2023-11-05T09:10:59Z</time>
      </trkpt>
      <trkpt lat="43.51394" lon="6.63264">
        <ele>113.3</ele>
        <time>2023-11-05T09:11:00Z</time>
      </trkpt>
      <trkpt lat="43.51394" lon="6.63265">
        <ele>113.3</ele>
        <time>2023-11-05T09:11:01Z</time>
      </trkpt>
      <trkpt lat="43.51394" lon="6.63266">
        <ele>113.4</ele>
        <time>2023-11-05T09:11:02Z</time>
      </trkpt>
      <trkpt lat="43.51395" lon="6.63268">
        <ele>113.3</ele>
        <time>2023-11-05T09:11:03Z</time>
      </trkpt>
      <trkpt lat="43.51395" lon="6.63269">
        <ele>113.3</ele>
        <time>2023-11-05T09:11:04Z</time>
      </trkpt>
      <trkpt lat="43.51396" lon="6.6327">
        <ele>113.2</ele>
        <time>2023-11-05T09:11:05Z</time>
      </trkpt>
      <trkpt lat="43.51396" lon="6.63272">
        <ele>113.1</ele>
        <time>2023-11-05T09:11:06Z</time>
      </trkpt>
      <trkpt lat="43.51396" lon="6.63273">
        <ele>112.9</ele>
        <time>2023-11-05T09:11:07Z</time>
      </trkpt>
      <trkpt lat="43.51397" lon="6.63275">
        <ele>112.7</ele>
        <time>2023-11-05T09:11:08Z</time>
      </trkpt>
      <trkpt lat="43.51397" lon="6.63276">
        <ele>112.6</ele>
        <time>2023-11-05T09:11:09Z</time>
      </trkpt>
      <trkpt lat="43.51397" lon="6.63277">
        <ele>112.5</ele>
        <time>2023-11-05T09:11:10Z</time>
      </trkpt>
      <trkpt lat="43.51398" lon="6.63278">
        <ele>112.4</ele>
        <time>2023-11-05T09:11:11Z</time>
      </trkpt>
      <trkpt lat="43.51398" lon="6.6328">
        <ele>112.3</ele>
        <time>2023-11-05T09:11:12Z</time>
      </trkpt>
      <trkpt lat="43.51398" lon="6.63281">
        <ele>112.2</ele>
        <time>2023-11-05T09:11:13Z</time>
      </trkpt>
      <trkpt lat="43.51398" lon="6.63282">
        <ele>112.1</ele>
        <time>2023-11-05T09:11:14Z</time>
      </trkpt>
      <trkpt lat="43.51399" lon="6.63284">
        <ele>112.1</ele>
        <time>2023-11-05T09:11:15Z</time>
      </trkpt>
      <trkpt lat="43.51399" lon="6.63285">
        <ele>112.2</ele>
        <time>2023-11-05T09:11:16Z</time>
      </trkpt>
      <trkpt lat="43.514" lon="6.63286">
        <ele>112</ele>
        <time>2023-11-05T09:11:17Z</time>
      </trkpt>
      <trkpt lat="43.514" lon="6.63287">
        <ele>111.9</ele>
        <time>2023-11-05T09:11:18Z</time>
      </trkpt>
      <trkpt lat="43.514" lon="6.63289">
        <ele>111.8</ele>
        <time>2023-11-05T09:11:19Z</time>
      </trkpt>
      <trkpt lat="43.514" lon="6.63291">
        <ele>111.6</ele>
        <time>2023-11-05T09:11:20Z</time>
      </trkpt>
      <trkpt lat="43.514" lon="6.63292">
        <ele>111.6</ele>
        <time>2023-11-05T09:11:21Z</time>
      </trkpt>
      <trkpt lat="43.514" lon="6.63293">
        <ele>111.5</ele>
        <time>2023-11-05T09:11:22Z</time>
      </trkpt>
      <trkpt lat="43.51401" lon="6.63294">
        <ele>111.5</ele>
        <time>2023-11-05T09:11:23Z</time>
      </trkpt>
      <trkpt lat="43.51401" lon="6.63294">
        <ele>111.4</ele>
        <time>2023-11-05T09:11:24Z</time>
      </trkpt>
      <trkpt lat="43.51401" lon="6.63295">
        <ele>111.3</ele>
        <time>2023-11-05T09:11:25Z</time>
      </trkpt>
      <trkpt lat="43.51402" lon="6.63296">
        <ele>111.1</ele>
        <time>2023-11-05T09:11:26Z</time>
      </trkpt>
      <trkpt lat="43.51402" lon="6.63297">
        <ele>110.9</ele>
        <time>2023-11-05T09:11:27Z</time>
      </trkpt>
      <trkpt lat="43.51403" lon="6.63299">
        <ele>110.6</ele>
        <time>2023-11-05T09:11:28Z</time>
      </trkpt>
      <trkpt lat="43.51403" lon="6.633">
        <ele>110.4</ele>
        <time>2023-11-05T09:11:29Z</time>
      </trkpt>
      <trkpt lat="43.51404" lon="6.63301">
        <ele>110.2</ele>
        <time>2023-11-05T09:11:30Z</time>
      </trkpt>
      <trkpt lat="43.51404" lon="6.63302">
        <ele>110</ele>
        <time>2023-11-05T09:11:31Z</time>
      </trkpt>
      <trkpt lat="43.51405" lon="6.63302">
        <ele>109.8</ele>
        <time>2023-11-05T09:11:32Z</time>
      </trkpt>
      <trkpt lat="43.51405" lon="6.63303">
        <ele>109.7</ele>
        <time>2023-11-05T09:11:33Z</time>
      </trkpt>
      <trkpt lat="43.51405" lon="6.63305">
        <ele>109.5</ele>
        <time>2023-11-05T09:11:34Z</time>
      </trkpt>
      <trkpt lat="43.51405" lon="6.63306">
        <ele>109.4</ele>
        <time>2023-11-05T09:11:35Z</time>
      </trkpt>
      <trkpt lat="43.51405" lon="6.63307">
        <ele>109.3</ele>
        <time>2023-11-05T09:11:36Z</time>
      </trkpt>
      <trkpt lat="43.51405" lon="6.63308">
        <ele>109.2</ele>
        <time>2023-11-05T09:11:37Z</time>
      </trkpt>
      <trkpt lat="43.51405" lon="6.63309">
        <ele>109.2</ele>
        <time>2023-11-05T09:11:38Z</time>
      </trkpt>
      <trkpt lat="43.51406" lon="6.6331">
        <ele>109.2</ele>
        <time>2023-11-05T09:11:39Z</time>
      </trkpt>
      <trkpt lat="43.51406" lon="6.63311">
        <ele>109.1</ele>
        <time>2023-11-05T09:11:40Z</time>
      </trkpt>
      <trkpt lat="43.51406" lon="6.63311">
        <ele>109.1</ele>
        <time>2023-11-05T09:11:41Z</time>
      </trkpt>
      <trkpt lat="43.51406" lon="6.63312">
        <ele>108.9</ele>
        <time>2023-11-05T09:11:42Z</time>
      </trkpt>
      <trkpt lat="43.51406" lon="6.63312">
        <ele>108.7</ele>
        <time>2023-11-05T09:11:43Z</time>
      </trkpt>
      <trkpt lat="43.51405" lon="6.63312">
        <ele>108.5</ele>
        <time>2023-11-05T09:11:44Z</time>
      </trkpt>
      <trkpt lat="43.51405" lon="6.63313">
        <ele>108.4</ele>
        <time>2023-11-05T09:11:45Z</time>
      </trkpt>
      <trkpt lat="43.51404" lon="6.63314">
        <ele>108.5</ele>
        <time>2023-11-05T09:11:46Z</time>
      </trkpt>
      <trkpt lat="43.51403" lon="6.63315">
        <ele>108.8</ele>
        <time>2023-11-05T09:11:47Z</time>
      </trkpt>
      <trkpt lat="43.51403" lon="6.63315">
        <ele>108.8</ele>
        <time>2023-11-05T09:11:48Z</time>
      </trkpt>
      <trkpt lat="43.51402" lon="6.63316">
        <ele>108.9</ele>
        <time>2023-11-05T09:11:49Z</time>
      </trkpt>
      <trkpt lat="43.51401" lon="6.63317">
        <ele>109.1</ele>
        <time>2023-11-05T09:11:50Z</time>
      </trkpt>
      <trkpt lat="43.514" lon="6.63318">
        <ele>109.2</ele>
        <time>2023-11-05T09:11:51Z</time>
      </trkpt>
      <trkpt lat="43.51399" lon="6.63318">
        <ele>109.2</ele>
        <time>2023-11-05T09:11:52Z</time>
      </trkpt>
      <trkpt lat="43.51398" lon="6.6332">
        <ele>109.5</ele>
        <time>2023-11-05T09:11:53Z</time>
      </trkpt>
      <trkpt lat="43.51398" lon="6.63321">
        <ele>109.7</ele>
        <time>2023-11-05T09:11:54Z</time>
      </trkpt>
      <trkpt lat="43.51397" lon="6.63322">
        <ele>109.7</ele>
        <time>2023-11-05T09:11:55Z</time>
      </trkpt>
      <trkpt lat="43.51397" lon="6.63322">
        <ele>109.5</ele>
        <time>2023-11-05T09:11:56Z</time>
      </trkpt>
      <trkpt lat="43.51397" lon="6.63323">
        <ele>109.2</ele>
        <time>2023-11-05T09:11:57Z</time>
      </trkpt>
      <trkpt lat="43.51396" lon="6.63324">
        <ele>109.1</ele>
        <time>2023-11-05T09:11:58Z</time>
      </trkpt>
      <trkpt lat="43.51396" lon="6.63325">
        <ele>108.9</ele>
        <time>2023-11-05T09:11:59Z</time>
      </trkpt>
      <trkpt lat="43.51395" lon="6.63326">
        <ele>108.8</ele>
        <time>2023-11-05T09:12:00Z</time>
      </trkpt>
      <trkpt lat="43.51395" lon="6.63327">
        <ele>108.7</ele>
        <time>2023-11-05T09:12:01Z</time>
      </trkpt>
      <trkpt lat="43.51394" lon="6.63328">
        <ele>108.6</ele>
        <time>2023-11-05T09:12:02Z</time>
      </trkpt>
      <trkpt lat="43.51394" lon="6.63328">
        <ele>108.6</ele>
        <time>2023-11-05T09:12:03Z</time>
      </trkpt>
      <trkpt lat="43.51393" lon="6.63329">
        <ele>108.5</ele>
        <time>2023-11-05T09:12:04Z</time>
      </trkpt>
      <trkpt lat="43.51393" lon="6.63329">
        <ele>108.5</ele>
        <time>2023-11-05T09:12:05Z</time>
      </trkpt>
      <trkpt lat="43.51392" lon="6.6333">
        <ele>108.4</ele>
        <time>2023-11-05T09:12:06Z</time>
      </trkpt>
      <trkpt lat="43.51392" lon="6.6333">
        <ele>108.4</ele>
        <time>2023-11-05T09:12:07Z</time>
      </trkpt>
      <trkpt lat="43.51391" lon="6.63331">
        <ele>108.5</ele>
        <time>2023-11-05T09:12:08Z</time>
      </trkpt>
      <trkpt lat="43.51391" lon="6.63332">
        <ele>108.5</ele>
        <time>2023-11-05T09:12:09Z</time>
      </trkpt>
      <trkpt lat="43.5139" lon="6.63333">
        <ele>108.5</ele>
        <time>2023-11-05T09:12:10Z</time>
      </trkpt>
      <trkpt lat="43.51389" lon="6.63334">
        <ele>108.5</ele>
        <time>2023-11-05T09:12:11Z</time>
      </trkpt>
      <trkpt lat="43.51389" lon="6.63335">
        <ele>108.5</ele>
        <time>2023-11-05T09:12:12Z</time>
      </trkpt>
      <trkpt lat="43.51388" lon="6.63337">
        <ele>108.4</ele>
        <time>2023-11-05T09:12:13Z</time>
      </trkpt>
      <trkpt lat="43.51388" lon="6.63338">
        <ele>108.3</ele>
        <time>2023-11-05T09:12:14Z</time>
      </trkpt>
      <trkpt lat="43.51387" lon="6.6334">
        <ele>108.1</ele>
        <time>2023-11-05T09:12:15Z</time>
      </trkpt>
      <trkpt lat="43.51387" lon="6.63341">
        <ele>107.9</ele>
        <time>2023-11-05T09:12:16Z</time>
      </trkpt>
      <trkpt lat="43.51386" lon="6.63342">
        <ele>107.7</ele>
        <time>2023-11-05T09:12:17Z</time>
      </trkpt>
      <trkpt lat="43.51386" lon="6.63343">
        <ele>107.5</ele>
        <time>2023-11-05T09:12:18Z</time>
      </trkpt>
      <trkpt lat="43.51385" lon="6.63345">
        <ele>107.4</ele>
        <time>2023-11-05T09:12:19Z</time>
      </trkpt>
      <trkpt lat="43.51385" lon="6.63346">
        <ele>107.4</ele>
        <time>2023-11-05T09:12:20Z</time>
      </trkpt>
      <trkpt lat="43.51384" lon="6.63346">
        <ele>107.3</ele>
        <time>2023-11-05T09:12:21Z</time>
      </trkpt>
      <trkpt lat="43.51383" lon="6.63348">
        <ele>107.2</ele>
        <time>2023-11-05T09:12:22Z</time>
      </trkpt>
      <trkpt lat="43.51383" lon="6.63349">
        <ele>107.2</ele>
        <time>2023-11-05T09:12:23Z</time>
      </trkpt>
      <trkpt lat="43.51382" lon="6.63351">
        <ele>107.3</ele>
        <time>2023-11-05T09:12:24Z</time>
      </trkpt>
      <trkpt lat="43.51381" lon="6.63353">
        <ele>107.2</ele>
        <time>2023-11-05T09:12:25Z</time>
      </trkpt>
      <trkpt lat="43.5138" lon="6.63354">
        <ele>107.1</ele>
        <time>2023-11-05T09:12:26Z</time>
      </trkpt>
      <trkpt lat="43.51379" lon="6.63356">
        <ele>107</ele>
        <time>2023-11-05T09:12:27Z</time>
      </trkpt>
      <trkpt lat="43.51379" lon="6.63358">
        <ele>107</ele>
        <time>2023-11-05T09:12:28Z</time>
      </trkpt>
      <trkpt lat="43.51379" lon="6.63358">
        <ele>107</ele>
        <time>2023-11-05T09:12:29Z</time>
      </trkpt>
      <trkpt lat="43.51378" lon="6.63359">
        <ele>107.2</ele>
        <time>2023-11-05T09:12:30Z</time>
      </trkpt>
      <trkpt lat="43.51378" lon="6.6336">
        <ele>107.5</ele>
        <time>2023-11-05T09:12:31Z</time>
      </trkpt>
      <trkpt lat="43.51377" lon="6.63361">
        <ele>107.7</ele>
        <time>2023-11-05T09:12:32Z</time>
      </trkpt>
      <trkpt lat="43.51377" lon="6.63362">
        <ele>107.9</ele>
        <time>2023-11-05T09:12:33Z</time>
      </trkpt>
      <trkpt lat="43.51376" lon="6.63363">
        <ele>107.9</ele>
        <time>2023-11-05T09:12:34Z</time>
      </trkpt>
      <trkpt lat="43.51376" lon="6.63364">
        <ele>107.9</ele>
        <time>2023-11-05T09:12:35Z</time>
      </trkpt>
      <trkpt lat="43.51375" lon="6.63366">
        <ele>107.7</ele>
        <time>2023-11-05T09:12:36Z</time>
      </trkpt>
      <trkpt lat="43.51375" lon="6.63366">
        <ele>106.5</ele>
        <time>2023-11-05T09:12:37Z</time>
      </trkpt>
      <trkpt lat="43.51374" lon="6.63367">
        <ele>105.9</ele>
        <time>2023-11-05T09:12:38Z</time>
      </trkpt>
      <trkpt lat="43.51373" lon="6.63368">
        <ele>106.2</ele>
        <time>2023-11-05T09:12:39Z</time>
      </trkpt>
      <trkpt lat="43.51372" lon="6.63369">
        <ele>106.1</ele>
        <time>2023-11-05T09:12:40Z</time>
      </trkpt>
      <trkpt lat="43.51372" lon="6.6337">
        <ele>104.2</ele>
        <time>2023-11-05T09:12:41Z</time>
      </trkpt>
      <trkpt lat="43.5137" lon="6.6337">
        <ele>104.8</ele>
        <time>2023-11-05T09:12:42Z</time>
      </trkpt>
      <trkpt lat="43.51369" lon="6.63371">
        <ele>105.3</ele>
        <time>2023-11-05T09:12:43Z</time>
      </trkpt>
      <trkpt lat="43.51369" lon="6.63373">
        <ele>105.7</ele>
        <time>2023-11-05T09:12:44Z</time>
      </trkpt>
      <trkpt lat="43.51369" lon="6.63373">
        <ele>106.1</ele>
        <time>2023-11-05T09:12:45Z</time>
      </trkpt>
      <trkpt lat="43.51368" lon="6.63375">
        <ele>106.4</ele>
        <time>2023-11-05T09:12:46Z</time>
      </trkpt>
      <trkpt lat="43.51368" lon="6.63376">
        <ele>106.5</ele>
        <time>2023-11-05T09:12:47Z</time>
      </trkpt>
      <trkpt lat="43.51367" lon="6.63377">
        <ele>106.6</ele>
        <time>2023-11-05T09:12:48Z</time>
      </trkpt>
      <trkpt lat="43.51367" lon="6.63378">
        <ele>106.8</ele>
        <time>2023-11-05T09:12:49Z</time>
      </trkpt>
      <trkpt lat="43.51366" lon="6.6338">
        <ele>106.9</ele>
        <time>2023-11-05T09:12:50Z</time>
      </trkpt>
      <trkpt lat="43.51365" lon="6.63381">
        <ele>107</ele>
        <time>2023-11-05T09:12:51Z</time>
      </trkpt>
      <trkpt lat="43.51365" lon="6.63383">
        <ele>106.9</ele>
        <time>2023-11-05T09:12:52Z</time>
      </trkpt>
      <trkpt lat="43.51364" lon="6.63384">
        <ele>106.9</ele>
        <time>2023-11-05T09:12:53Z</time>
      </trkpt>
      <trkpt lat="43.51363" lon="6.63385">
        <ele>106.7</ele>
        <time>2023-11-05T09:12:54Z</time>
      </trkpt>
      <trkpt lat="43.51363" lon="6.63386">
        <ele>106.6</ele>
        <time>2023-11-05T09:12:55Z</time>
      </trkpt>
      <trkpt lat="43.51362" lon="6.63387">
        <ele>106.5</ele>
        <time>2023-11-05T09:12:56Z</time>
      </trkpt>
      <trkpt lat="43.51361" lon="6.63387">
        <ele>106.5</ele>
        <time>2023-11-05T09:12:57Z</time>
      </trkpt>
      <trkpt lat="43.5136" lon="6.63389">
        <ele>106.4</ele>
        <time>2023-11-05T09:12:58Z</time>
      </trkpt>
      <trkpt lat="43.5136" lon="6.6339">
        <ele>106.3</ele>
        <time>2023-11-05T09:12:59Z</time>
      </trkpt>
      <trkpt lat="43.5136" lon="6.63392">
        <ele>106.3</ele>
        <time>2023-11-05T09:13:00Z</time>
      </trkpt>
      <trkpt lat="43.51359" lon="6.63393">
        <ele>106.2</ele>
        <time>2023-11-05T09:13:01Z</time>
      </trkpt>
      <trkpt lat="43.51358" lon="6.63394">
        <ele>106.2</ele>
        <time>2023-11-05T09:13:02Z</time>
      </trkpt>
      <trkpt lat="43.51358" lon="6.63395">
        <ele>106.1</ele>
        <time>2023-11-05T09:13:03Z</time>
      </trkpt>
      <trkpt lat="43.51358" lon="6.63396">
        <ele>106.1</ele>
        <time>2023-11-05T09:13:04Z</time>
      </trkpt>
      <trkpt lat="43.51358" lon="6.63396">
        <ele>106.2</ele>
        <time>2023-11-05T09:13:05Z</time>
      </trkpt>
      <trkpt lat="43.51358" lon="6.63395">
        <ele>106.2</ele>
        <time>2023-11-05T09:13:06Z</time>
      </trkpt>
      <trkpt lat="43.51357" lon="6.63395">
        <ele>106.3</ele>
        <time>2023-11-05T09:13:07Z</time>
      </trkpt>
      <trkpt lat="43.51357" lon="6.63396">
        <ele>106.3</ele>
        <time>2023-11-05T09:13:08Z</time>
      </trkpt>
      <trkpt lat="43.51357" lon="6.63397">
        <ele>106.4</ele>
        <time>2023-11-05T09:13:09Z</time>
      </trkpt>
      <trkpt lat="43.51356" lon="6.63399">
        <ele>106.3</ele>
        <time>2023-11-05T09:13:10Z</time>
      </trkpt>
      <trkpt lat="43.51356" lon="6.634">
        <ele>106.3</ele>
        <time>2023-11-05T09:13:11Z</time>
      </trkpt>
      <trkpt lat="43.51356" lon="6.63402">
        <ele>106.2</ele>
        <time>2023-11-05T09:13:12Z</time>
      </trkpt>
      <trkpt lat="43.51356" lon="6.63403">
        <ele>106.1</ele>
        <time>2023-11-05T09:13:13Z</time>
      </trkpt>
      <trkpt lat="43.51355" lon="6.63404">
        <ele>106</ele>
        <time>2023-11-05T09:13:14Z</time>
      </trkpt>
      <trkpt lat="43.51355" lon="6.63405">
        <ele>105.8</ele>
        <time>2023-11-05T09:13:15Z</time>
      </trkpt>
      <trkpt lat="43.51354" lon="6.63406">
        <ele>105.7</ele>
        <time>2023-11-05T09:13:16Z</time>
      </trkpt>
      <trkpt lat="43.51353" lon="6.63407">
        <ele>105.6</ele>
        <time>2023-11-05T09:13:17Z</time>
      </trkpt>
      <trkpt lat="43.51353" lon="6.63408">
        <ele>105.5</ele>
        <time>2023-11-05T09:13:18Z</time>
      </trkpt>
      <trkpt lat="43.51352" lon="6.63409">
        <ele>105.5</ele>
        <time>2023-11-05T09:13:19Z</time>
      </trkpt>
      <trkpt lat="43.51351" lon="6.6341">
        <ele>105.6</ele>
        <time>2023-11-05T09:13:20Z</time>
      </trkpt>
      <trkpt lat="43.5135" lon="6.63411">
        <ele>105.6</ele>
        <time>2023-11-05T09:13:21Z</time>
      </trkpt>
      <trkpt lat="43.51349" lon="6.63412">
        <ele>105.6</ele>
        <time>2023-11-05T09:13:22Z</time>
      </trkpt>
      <trkpt lat="43.51349" lon="6.63413">
        <ele>105.6</ele>
        <time>2023-11-05T09:13:23Z</time>
      </trkpt>
      <trkpt lat="43.51349" lon="6.63414">
        <ele>105.5</ele>
        <time>2023-11-05T09:13:24Z</time>
      </trkpt>
      <trkpt lat="43.51348" lon="6.63415">
        <ele>105.4</ele>
        <time>2023-11-05T09:13:25Z</time>
      </trkpt>
      <trkpt lat="43.51347" lon="6.63416">
        <ele>105.3</ele>
        <time>2023-11-05T09:13:26Z</time>
      </trkpt>
      <trkpt lat="43.51346" lon="6.63418">
        <ele>105.2</ele>
        <time>2023-11-05T09:13:27Z</time>
      </trkpt>
      <trkpt lat="43.51345" lon="6.63419">
        <ele>105</ele>
        <time>2023-11-05T09:13:28Z</time>
      </trkpt>
      <trkpt lat="43.51345" lon="6.6342">
        <ele>104.9</ele>
        <time>2023-11-05T09:13:29Z</time>
      </trkpt>
      <trkpt lat="43.51345" lon="6.63422">
        <ele>104.9</ele>
        <time>2023-11-05T09:13:30Z</time>
      </trkpt>
      <trkpt lat="43.51344" lon="6.63423">
        <ele>104.8</ele>
        <time>2023-11-05T09:13:31Z</time>
      </trkpt>
      <trkpt lat="43.51344" lon="6.63425">
        <ele>104.8</ele>
        <time>2023-11-05T09:13:32Z</time>
      </trkpt>
      <trkpt lat="43.51343" lon="6.63425">
        <ele>104.6</ele>
        <time>2023-11-05T09:13:33Z</time>
      </trkpt>
      <trkpt lat="43.51342" lon="6.63426">
        <ele>104.5</ele>
        <time>2023-11-05T09:13:34Z</time>
      </trkpt>
      <trkpt lat="43.51341" lon="6.63427">
        <ele>104.4</ele>
        <time>2023-11-05T09:13:35Z</time>
      </trkpt>
      <trkpt lat="43.5134" lon="6.63428">
        <ele>104.3</ele>
        <time>2023-11-05T09:13:36Z</time>
      </trkpt>
      <trkpt lat="43.5134" lon="6.6343">
        <ele>104.4</ele>
        <time>2023-11-05T09:13:37Z</time>
      </trkpt>
      <trkpt lat="43.5134" lon="6.63431">
        <ele>104.4</ele>
        <time>2023-11-05T09:13:38Z</time>
      </trkpt>
      <trkpt lat="43.51339" lon="6.63432">
        <ele>104.4</ele>
        <time>2023-11-05T09:13:39Z</time>
      </trkpt>
      <trkpt lat="43.51339" lon="6.63433">
        <ele>104.4</ele>
        <time>2023-11-05T09:13:40Z</time>
      </trkpt>
      <trkpt lat="43.51338" lon="6.63433">
        <ele>104.4</ele>
        <time>2023-11-05T09:13:41Z</time>
      </trkpt>
      <trkpt lat="43.51338" lon="6.63433">
        <ele>104.4</ele>
        <time>2023-11-05T09:13:42Z</time>
      </trkpt>
      <trkpt lat="43.51337" lon="6.63435">
        <ele>104.3</ele>
        <time>2023-11-05T09:13:43Z</time>
      </trkpt>
      <trkpt lat="43.51336" lon="6.63436">
        <ele>104.3</ele>
        <time>2023-11-05T09:13:44Z</time>
      </trkpt>
      <trkpt lat="43.51336" lon="6.63436">
        <ele>104.2</ele>
        <time>2023-11-05T09:13:45Z</time>
      </trkpt>
      <trkpt lat="43.51335" lon="6.63438">
        <ele>104.3</ele>
        <time>2023-11-05T09:13:46Z</time>
      </trkpt>
      <trkpt lat="43.51334" lon="6.6344">
        <ele>104.3</ele>
        <time>2023-11-05T09:13:47Z</time>
      </trkpt>
      <trkpt lat="43.51333" lon="6.63442">
        <ele>104.5</ele>
        <time>2023-11-05T09:13:48Z</time>
      </trkpt>
      <trkpt lat="43.51333" lon="6.63444">
        <ele>104.4</ele>
        <time>2023-11-05T09:13:49Z</time>
      </trkpt>
      <trkpt lat="43.51332" lon="6.63446">
        <ele>104.4</ele>
        <time>2023-11-05T09:13:50Z</time>
      </trkpt>
      <trkpt lat="43.51332" lon="6.63447">
        <ele>104.3</ele>
        <time>2023-11-05T09:13:51Z</time>
      </trkpt>
      <trkpt lat="43.51331" lon="6.63449">
        <ele>104.3</ele>
        <time>2023-11-05T09:13:52Z</time>
      </trkpt>
      <trkpt lat="43.51331" lon="6.6345">
        <ele>104.4</ele>
        <time>2023-11-05T09:13:53Z</time>
      </trkpt>
      <trkpt lat="43.5133" lon="6.63452">
        <ele>104.4</ele>
        <time>2023-11-05T09:13:54Z</time>
      </trkpt>
      <trkpt lat="43.51329" lon="6.63454">
        <ele>104.4</ele>
        <time>2023-11-05T09:13:55Z</time>
      </trkpt>
      <trkpt lat="43.51329" lon="6.63455">
        <ele>104.4</ele>
        <time>2023-11-05T09:13:56Z</time>
      </trkpt>
      <trkpt lat="43.51328" lon="6.63456">
        <ele>104.5</ele>
        <time>2023-11-05T09:13:57Z</time>
      </trkpt>
      <trkpt lat="43.51328" lon="6.63457">
        <ele>104.5</ele>
        <time>2023-11-05T09:13:58Z</time>
      </trkpt>
      <trkpt lat="43.51328" lon="6.63459">
        <ele>104.5</ele>
        <time>2023-11-05T09:13:59Z</time>
      </trkpt>
      <trkpt lat="43.51327" lon="6.6346">
        <ele>104.4</ele>
        <time>2023-11-05T09:14:00Z</time>
      </trkpt>
      <trkpt lat="43.51326" lon="6.63461">
        <ele>104.3</ele>
        <time>2023-11-05T09:14:01Z</time>
      </trkpt>
      <trkpt lat="43.51326" lon="6.63462">
        <ele>104.2</ele>
        <time>2023-11-05T09:14:02Z</time>
      </trkpt>
      <trkpt lat="43.51325" lon="6.63463">
        <ele>104.2</ele>
        <time>2023-11-05T09:14:03Z</time>
      </trkpt>
      <trkpt lat="43.51325" lon="6.63464">
        <ele>104.1</ele>
        <time>2023-11-05T09:14:04Z</time>
      </trkpt>
      <trkpt lat="43.51324" lon="6.63465">
        <ele>104</ele>
        <time>2023-11-05T09:14:05Z</time>
      </trkpt>
      <trkpt lat="43.51324" lon="6.63466">
        <ele>104</ele>
        <time>2023-11-05T09:14:06Z</time>
      </trkpt>
      <trkpt lat="43.51323" lon="6.63468">
        <ele>104</ele>
        <time>2023-11-05T09:14:07Z</time>
      </trkpt>
      <trkpt lat="43.51322" lon="6.63469">
        <ele>103.7</ele>
        <time>2023-11-05T09:14:08Z</time>
      </trkpt>
      <trkpt lat="43.51322" lon="6.6347">
        <ele>103.5</ele>
        <time>2023-11-05T09:14:09Z</time>
      </trkpt>
      <trkpt lat="43.51321" lon="6.63471">
        <ele>103.4</ele>
        <time>2023-11-05T09:14:10Z</time>
      </trkpt>
      <trkpt lat="43.5132" lon="6.63473">
        <ele>103.3</ele>
        <time>2023-11-05T09:14:11Z</time>
      </trkpt>
      <trkpt lat="43.51319" lon="6.63474">
        <ele>103.2</ele>
        <time>2023-11-05T09:14:12Z</time>
      </trkpt>
      <trkpt lat="43.51319" lon="6.63475">
        <ele>103.1</ele>
        <time>2023-11-05T09:14:13Z</time>
      </trkpt>
      <trkpt lat="43.51318" lon="6.63477">
        <ele>103</ele>
        <time>2023-11-05T09:14:14Z</time>
      </trkpt>
      <trkpt lat="43.51317" lon="6.63478">
        <ele>102.9</ele>
        <time>2023-11-05T09:14:15Z</time>
      </trkpt>
      <trkpt lat="43.51317" lon="6.63479">
        <ele>102.9</ele>
        <time>2023-11-05T09:14:16Z</time>
      </trkpt>
      <trkpt lat="43.51316" lon="6.6348">
        <ele>102.8</ele>
        <time>2023-11-05T09:14:17Z</time>
      </trkpt>
      <trkpt lat="43.51316" lon="6.63481">
        <ele>102.8</ele>
        <time>2023-11-05T09:14:18Z</time>
      </trkpt>
      <trkpt lat="43.51315" lon="6.63482">
        <ele>103.1</ele>
        <time>2023-11-05T09:14:19Z</time>
      </trkpt>
      <trkpt lat="43.51315" lon="6.63483">
        <ele>103.1</ele>
        <time>2023-11-05T09:14:20Z</time>
      </trkpt>
      <trkpt lat="43.51314" lon="6.63485">
        <ele>103.1</ele>
        <time>2023-11-05T09:14:21Z</time>
      </trkpt>
      <trkpt lat="43.51314" lon="6.63485">
        <ele>103.1</ele>
        <time>2023-11-05T09:14:22Z</time>
      </trkpt>
      <trkpt lat="43.51313" lon="6.63485">
        <ele>103.3</ele>
        <time>2023-11-05T09:14:23Z</time>
      </trkpt>
      <trkpt lat="43.51314" lon="6.63485">
        <ele>103.4</ele>
        <time>2023-11-05T09:14:24Z</time>
      </trkpt>
      <trkpt lat="43.51313" lon="6.63485">
        <ele>103.5</ele>
        <time>2023-11-05T09:14:25Z</time>
      </trkpt>
      <trkpt lat="43.51313" lon="6.63485">
        <ele>103.8</ele>
        <time>2023-11-05T09:14:26Z</time>
      </trkpt>
      <trkpt lat="43.51313" lon="6.63484">
        <ele>104</ele>
        <time>2023-11-05T09:14:27Z</time>
      </trkpt>
      <trkpt lat="43.51312" lon="6.63484">
        <ele>104.1</ele>
        <time>2023-11-05T09:14:28Z</time>
      </trkpt>
      <trkpt lat="43.51311" lon="6.63484">
        <ele>104.3</ele>
        <time>2023-11-05T09:14:29Z</time>
      </trkpt>
      <trkpt lat="43.51311" lon="6.63484">
        <ele>104.4</ele>
        <time>2023-11-05T09:14:30Z</time>
      </trkpt>
      <trkpt lat="43.5131" lon="6.63483">
        <ele>104.6</ele>
        <time>2023-11-05T09:14:31Z</time>
      </trkpt>
      <trkpt lat="43.51309" lon="6.63484">
        <ele>104.7</ele>
        <time>2023-11-05T09:14:32Z</time>
      </trkpt>
      <trkpt lat="43.51309" lon="6.63484">
        <ele>104.6</ele>
        <time>2023-11-05T09:14:33Z</time>
      </trkpt>
      <trkpt lat="43.51308" lon="6.63485">
        <ele>104.7</ele>
        <time>2023-11-05T09:14:34Z</time>
      </trkpt>
      <trkpt lat="43.51308" lon="6.63486">
        <ele>104.6</ele>
        <time>2023-11-05T09:14:35Z</time>
      </trkpt>
      <trkpt lat="43.51307" lon="6.63486">
        <ele>104.6</ele>
        <time>2023-11-05T09:14:36Z</time>
      </trkpt>
      <trkpt lat="43.51307" lon="6.63486">
        <ele>104.5</ele>
        <time>2023-11-05T09:14:37Z</time>
      </trkpt>
      <trkpt lat="43.51307" lon="6.63486">
        <ele>104.4</ele>
        <time>2023-11-05T09:14:38Z</time>
      </trkpt>
      <trkpt lat="43.51307" lon="6.63487">
        <ele>104.4</ele>
        <time>2023-11-05T09:14:39Z</time>
      </trkpt>
      <trkpt lat="43.51308" lon="6.63487">
        <ele>104.4</ele>
        <time>2023-11-05T09:14:40Z</time>
      </trkpt>
      <trkpt lat="43.51307" lon="6.63487">
        <ele>104.2</ele>
        <time>2023-11-05T09:14:41Z</time>
      </trkpt>
      <trkpt lat="43.51308" lon="6.63487">
        <ele>104</ele>
        <time>2023-11-05T09:14:42Z</time>
      </trkpt>
      <trkpt lat="43.51308" lon="6.63488">
        <ele>103.9</ele>
        <time>2023-11-05T09:14:43Z</time>
      </trkpt>
      <trkpt lat="43.51308" lon="6.63488">
        <ele>103.8</ele>
        <time>2023-11-05T09:14:44Z</time>
      </trkpt>
      <trkpt lat="43.51309" lon="6.63488">
        <ele>103.9</ele>
        <time>2023-11-05T09:14:45Z</time>
      </trkpt>
      <trkpt lat="43.5131" lon="6.63487">
        <ele>104</ele>
        <time>2023-11-05T09:14:46Z</time>
      </trkpt>
      <trkpt lat="43.51311" lon="6.63487">
        <ele>104</ele>
        <time>2023-11-05T09:14:47Z</time>
      </trkpt>
      <trkpt lat="43.51311" lon="6.63487">
        <ele>104.1</ele>
        <time>2023-11-05T09:14:48Z</time>
      </trkpt>
      <trkpt lat="43.51311" lon="6.63487">
        <ele>104.1</ele>
        <time>2023-11-05T09:14:49Z</time>
      </trkpt>
      <trkpt lat="43.51311" lon="6.63488">
        <ele>104</ele>
        <time>2023-11-05T09:14:50Z</time>
      </trkpt>
      <trkpt lat="43.51311" lon="6.63488">
        <ele>104</ele>
        <time>2023-11-05T09:14:51Z</time>
      </trkpt>
      <trkpt lat="43.51311" lon="6.63489">
        <ele>103.9</ele>
        <time>2023-11-05T09:14:52Z</time>
      </trkpt>
      <trkpt lat="43.51311" lon="6.63489">
        <ele>103.9</ele>
        <time>2023-11-05T09:14:53Z</time>
      </trkpt>
      <trkpt lat="43.51311" lon="6.63489">
        <ele>103.9</ele>
        <time>2023-11-05T09:14:54Z</time>
      </trkpt>
      <trkpt lat="43.51311" lon="6.63489">
        <ele>103.9</ele>
        <time>2023-11-05T09:14:55Z</time>
      </trkpt>
      <trkpt lat="43.51311" lon="6.6349">
        <ele>103.8</ele>
        <time>2023-11-05T09:14:56Z</time>
      </trkpt>
      <trkpt lat="43.51311" lon="6.63489">
        <ele>103.8</ele>
        <time>2023-11-05T09:14:57Z</time>
      </trkpt>
      <trkpt lat="43.51311" lon="6.63489">
        <ele>103.7</ele>
        <time>2023-11-05T09:14:58Z</time>
      </trkpt>
      <trkpt lat="43.51311" lon="6.63489">
        <ele>103.8</ele>
        <time>2023-11-05T09:14:59Z</time>
      </trkpt>
      <trkpt lat="43.51311" lon="6.63489">
        <ele>103.9</ele>
        <time>2023-11-05T09:15:00Z</time>
      </trkpt>
      <trkpt lat="43.51311" lon="6.63489">
        <ele>103.9</ele>
        <time>2023-11-05T09:15:01Z</time>
      </trkpt>
      <trkpt lat="43.51311" lon="6.63489">
        <ele>103.9</ele>
        <time>2023-11-05T09:15:02Z</time>
      </trkpt>
      <trkpt lat="43.51311" lon="6.63489">
        <ele>103.9</ele>
        <time>2023-11-05T09:15:03Z</time>
      </trkpt>
      <trkpt lat="43.51311" lon="6.63489">
        <ele>103.9</ele>
        <time>2023-11-05T09:15:04Z</time>
      </trkpt>
      <trkpt lat="43.51311" lon="6.63489">
        <ele>104</ele>
        <time>2023-11-05T09:15:05Z</time>
      </trkpt>
      <trkpt lat="43.51311" lon="6.63489">
        <ele>103.9</ele>
        <time>2023-11-05T09:15:06Z</time>
      </trkpt>
      <trkpt lat="43.51311" lon="6.63489">
        <ele>103.9</ele>
        <time>2023-11-05T09:15:07Z</time>
      </trkpt>
      <trkpt lat="43.51311" lon="6.63489">
        <ele>103.9</ele>
        <time>2023-11-05T09:15:08Z</time>
      </trkpt>
      <trkpt lat="43.51311" lon="6.63489">
        <ele>103.8</ele>
        <time>2023-11-05T09:15:09Z</time>
      </trkpt>
      <trkpt lat="43.51311" lon="6.63489">
        <ele>103.8</ele>
        <time>2023-11-05T09:15:10Z</time>
      </trkpt>
      <trkpt lat="43.51311" lon="6.63489">
        <ele>103.8</ele>
        <time>2023-11-05T09:15:11Z</time>
      </trkpt>
      <trkpt lat="43.51311" lon="6.63489">
        <ele>103.7</ele>
        <time>2023-11-05T09:15:12Z</time>
      </trkpt>
      <trkpt lat="43.51311" lon="6.63489">
        <ele>103.8</ele>
        <time>2023-11-05T09:15:13Z</time>
      </trkpt>
      <trkpt lat="43.51311" lon="6.63489">
        <ele>103.8</ele>
        <time>2023-11-05T09:15:14Z</time>
      </trkpt>
      <trkpt lat="43.51311" lon="6.63489">
        <ele>103.9</ele>
        <time>2023-11-05T09:15:15Z</time>
      </trkpt>
      <trkpt lat="43.51311" lon="6.63489">
        <ele>103.9</ele>
        <time>2023-11-05T09:15:16Z</time>
      </trkpt>
      <trkpt lat="43.51311" lon="6.63489">
        <ele>104</ele>
        <time>2023-11-05T09:15:17Z</time>
      </trkpt>
      <trkpt lat="43.51311" lon="6.63489">
        <ele>104</ele>
        <time>2023-11-05T09:15:18Z</time>
      </trkpt>
      <trkpt lat="43.51311" lon="6.63489">
        <ele>103.9</ele>
        <time>2023-11-05T09:15:19Z</time>
      </trkpt>
      <trkpt lat="43.51311" lon="6.63489">
        <ele>103.9</ele>
        <time>2023-11-05T09:15:20Z</time>
      </trkpt>
      <trkpt lat="43.51311" lon="6.63489">
        <ele>104</ele>
        <time>2023-11-05T09:15:21Z</time>
      </trkpt>
      <trkpt lat="43.51311" lon="6.6349">
        <ele>103.9</ele>
        <time>2023-11-05T09:15:22Z</time>
      </trkpt>
      <trkpt lat="43.51311" lon="6.6349">
        <ele>103.9</ele>
        <time>2023-11-05T09:15:23Z</time>
      </trkpt>
      <trkpt lat="43.51311" lon="6.6349">
        <ele>103.8</ele>
        <time>2023-11-05T09:15:24Z</time>
      </trkpt>
      <trkpt lat="43.51311" lon="6.6349">
        <ele>103.8</ele>
        <time>2023-11-05T09:15:25Z</time>
      </trkpt>
      <trkpt lat="43.51311" lon="6.6349">
        <ele>103.8</ele>
        <time>2023-11-05T09:15:26Z</time>
      </trkpt>
      <trkpt lat="43.51311" lon="6.6349">
        <ele>103.7</ele>
        <time>2023-11-05T09:15:27Z</time>
      </trkpt>
      <trkpt lat="43.51311" lon="6.63489">
        <ele>103.6</ele>
        <time>2023-11-05T09:15:28Z</time>
      </trkpt>
      <trkpt lat="43.51311" lon="6.63489">
        <ele>103.4</ele>
        <time>2023-11-05T09:15:29Z</time>
      </trkpt>
      <trkpt lat="43.51311" lon="6.63489">
        <ele>103.3</ele>
        <time>2023-11-05T09:15:30Z</time>
      </trkpt>
      <trkpt lat="43.51311" lon="6.63489">
        <ele>103.3</ele>
        <time>2023-11-05T09:15:31Z</time>
      </trkpt>
      <trkpt lat="43.51311" lon="6.63489">
        <ele>103.3</ele>
        <time>2023-11-05T09:15:32Z</time>
      </trkpt>
      <trkpt lat="43.51311" lon="6.63489">
        <ele>103.3</ele>
        <time>2023-11-05T09:15:33Z</time>
      </trkpt>
      <trkpt lat="43.51311" lon="6.63489">
        <ele>103.3</ele>
        <time>2023-11-05T09:15:34Z</time>
      </trkpt>
      <trkpt lat="43.51311" lon="6.63489">
        <ele>103.3</ele>
        <time>2023-11-05T09:15:35Z</time>
      </trkpt>
      <trkpt lat="43.51311" lon="6.63489">
        <ele>103.3</ele>
        <time>2023-11-05T09:15:36Z</time>
      </trkpt>
      <trkpt lat="43.51311" lon="6.63489">
        <ele>103.4</ele>
        <time>2023-11-05T09:15:37Z</time>
      </trkpt>
      <trkpt lat="43.51311" lon="6.63489">
        <ele>103.4</ele>
        <time>2023-11-05T09:15:38Z</time>
      </trkpt>
      <trkpt lat="43.51311" lon="6.63489">
        <ele>103.4</ele>
        <time>2023-11-05T09:15:39Z</time>
      </trkpt>
      <trkpt lat="43.5131" lon="6.63489">
        <ele>103.3</ele>
        <time>2023-11-05T09:15:40Z</time>
      </trkpt>
      <trkpt lat="43.5131" lon="6.63489">
        <ele>103.3</ele>
        <time>2023-11-05T09:15:41Z</time>
      </trkpt>
      <trkpt lat="43.51311" lon="6.63488">
        <ele>103.2</ele>
        <time>2023-11-05T09:15:42Z</time>
      </trkpt>
      <trkpt lat="43.51311" lon="6.63488">
        <ele>103.2</ele>
        <time>2023-11-05T09:15:43Z</time>
      </trkpt>
      <trkpt lat="43.51311" lon="6.63488">
        <ele>103.1</ele>
        <time>2023-11-05T09:15:44Z</time>
      </trkpt>
      <trkpt lat="43.5131" lon="6.63489">
        <ele>103.1</ele>
        <time>2023-11-05T09:15:45Z</time>
      </trkpt>
      <trkpt lat="43.5131" lon="6.63489">
        <ele>103</ele>
        <time>2023-11-05T09:15:46Z</time>
      </trkpt>
      <trkpt lat="43.5131" lon="6.63489">
        <ele>103</ele>
        <time>2023-11-05T09:15:47Z</time>
      </trkpt>
      <trkpt lat="43.5131" lon="6.63489">
        <ele>103</ele>
        <time>2023-11-05T09:15:48Z</time>
      </trkpt>
      <trkpt lat="43.5131" lon="6.63488">
        <ele>103</ele>
        <time>2023-11-05T09:15:49Z</time>
      </trkpt>
      <trkpt lat="43.5131" lon="6.63488">
        <ele>103</ele>
        <time>2023-11-05T09:15:50Z</time>
      </trkpt>
      <trkpt lat="43.5131" lon="6.63488">
        <ele>102.9</ele>
        <time>2023-11-05T09:15:51Z</time>
      </trkpt>
      <trkpt lat="43.5131" lon="6.63489">
        <ele>102.9</ele>
        <time>2023-11-05T09:15:52Z</time>
      </trkpt>
      <trkpt lat="43.5131" lon="6.63489">
        <ele>103</ele>
        <time>2023-11-05T09:15:53Z</time>
      </trkpt>
      <trkpt lat="43.5131" lon="6.63489">
        <ele>103</ele>
        <time>2023-11-05T09:15:54Z</time>
      </trkpt>
      <trkpt lat="43.5131" lon="6.63489">
        <ele>103</ele>
        <time>2023-11-05T09:15:55Z</time>
      </trkpt>
      <trkpt lat="43.5131" lon="6.63489">
        <ele>103.1</ele>
        <time>2023-11-05T09:15:56Z</time>
      </trkpt>
      <trkpt lat="43.5131" lon="6.63489">
        <ele>103.1</ele>
        <time>2023-11-05T09:15:57Z</time>
      </trkpt>
      <trkpt lat="43.5131" lon="6.63489">
        <ele>103.4</ele>
        <time>2023-11-05T09:15:58Z</time>
      </trkpt>
      <trkpt lat="43.5131" lon="6.63489">
        <ele>103.6</ele>
        <time>2023-11-05T09:15:59Z</time>
      </trkpt>
      <trkpt lat="43.5131" lon="6.63489">
        <ele>103.6</ele>
        <time>2023-11-05T09:16:00Z</time>
      </trkpt>
      <trkpt lat="43.5131" lon="6.63489">
        <ele>103.6</ele>
        <time>2023-11-05T09:16:01Z</time>
      </trkpt>
      <trkpt lat="43.5131" lon="6.63489">
        <ele>103.6</ele>
        <time>2023-11-05T09:16:02Z</time>
      </trkpt>
      <trkpt lat="43.5131" lon="6.63489">
        <ele>103.6</ele>
        <time>2023-11-05T09:16:03Z</time>
      </trkpt>
      <trkpt lat="43.51311" lon="6.63489">
        <ele>103.6</ele>
        <time>2023-11-05T09:16:04Z</time>
      </trkpt>
      <trkpt lat="43.51311" lon="6.63488">
        <ele>103.6</ele>
        <time>2023-11-05T09:16:05Z</time>
      </trkpt>
      <trkpt lat="43.5131" lon="6.63488">
        <ele>103.6</ele>
        <time>2023-11-05T09:16:06Z</time>
      </trkpt>
      <trkpt lat="43.5131" lon="6.63488">
        <ele>103.6</ele>
        <time>2023-11-05T09:16:07Z</time>
      </trkpt>
      <trkpt lat="43.51309" lon="6.63489">
        <ele>103.6</ele>
        <time>2023-11-05T09:16:08Z</time>
      </trkpt>
      <trkpt lat="43.51309" lon="6.63489">
        <ele>103.6</ele>
        <time>2023-11-05T09:16:09Z</time>
      </trkpt>
      <trkpt lat="43.51309" lon="6.63489">
        <ele>103.5</ele>
        <time>2023-11-05T09:16:10Z</time>
      </trkpt>
      <trkpt lat="43.51308" lon="6.6349">
        <ele>103.2</ele>
        <time>2023-11-05T09:16:11Z</time>
      </trkpt>
      <trkpt lat="43.51308" lon="6.6349">
        <ele>103.1</ele>
        <time>2023-11-05T09:16:12Z</time>
      </trkpt>
      <trkpt lat="43.51308" lon="6.6349">
        <ele>102.9</ele>
        <time>2023-11-05T09:16:13Z</time>
      </trkpt>
      <trkpt lat="43.51308" lon="6.6349">
        <ele>102.8</ele>
        <time>2023-11-05T09:16:14Z</time>
      </trkpt>
      <trkpt lat="43.51308" lon="6.6349">
        <ele>102.7</ele>
        <time>2023-11-05T09:16:15Z</time>
      </trkpt>
      <trkpt lat="43.51308" lon="6.6349">
        <ele>102.7</ele>
        <time>2023-11-05T09:16:16Z</time>
      </trkpt>
      <trkpt lat="43.51308" lon="6.6349">
        <ele>102.7</ele>
        <time>2023-11-05T09:16:17Z</time>
      </trkpt>
      <trkpt lat="43.51308" lon="6.6349">
        <ele>102.8</ele>
        <time>2023-11-05T09:16:18Z</time>
      </trkpt>
      <trkpt lat="43.51308" lon="6.6349">
        <ele>102.9</ele>
        <time>2023-11-05T09:16:19Z</time>
      </trkpt>
      <trkpt lat="43.51308" lon="6.6349">
        <ele>103.1</ele>
        <time>2023-11-05T09:16:20Z</time>
      </trkpt>
      <trkpt lat="43.51309" lon="6.6349">
        <ele>103.2</ele>
        <time>2023-11-05T09:16:21Z</time>
      </trkpt>
      <trkpt lat="43.51309" lon="6.6349">
        <ele>103.4</ele>
        <time>2023-11-05T09:16:22Z</time>
      </trkpt>
      <trkpt lat="43.51309" lon="6.6349">
        <ele>103.5</ele>
        <time>2023-11-05T09:16:23Z</time>
      </trkpt>
      <trkpt lat="43.51309" lon="6.63489">
        <ele>103.5</ele>
        <time>2023-11-05T09:16:24Z</time>
      </trkpt>
      <trkpt lat="43.51309" lon="6.63489">
        <ele>103.5</ele>
        <time>2023-11-05T09:16:25Z</time>
      </trkpt>
      <trkpt lat="43.51309" lon="6.63489">
        <ele>103.3</ele>
        <time>2023-11-05T09:16:26Z</time>
      </trkpt>
      <trkpt lat="43.51309" lon="6.63489">
        <ele>103.2</ele>
        <time>2023-11-05T09:16:27Z</time>
      </trkpt>
      <trkpt lat="43.51309" lon="6.63489">
        <ele>103</ele>
        <time>2023-11-05T09:16:28Z</time>
      </trkpt>
      <trkpt lat="43.51309" lon="6.63489">
        <ele>102.8</ele>
        <time>2023-11-05T09:16:29Z</time>
      </trkpt>
      <trkpt lat="43.51309" lon="6.63489">
        <ele>102.7</ele>
        <time>2023-11-05T09:16:30Z</time>
      </trkpt>
      <trkpt lat="43.51309" lon="6.63489">
        <ele>102.7</ele>
        <time>2023-11-05T09:16:31Z</time>
      </trkpt>
      <trkpt lat="43.51309" lon="6.63488">
        <ele>102.8</ele>
        <time>2023-11-05T09:16:32Z</time>
      </trkpt>
      <trkpt lat="43.51309" lon="6.63489">
        <ele>102.9</ele>
        <time>2023-11-05T09:16:33Z</time>
      </trkpt>
      <trkpt lat="43.51309" lon="6.63489">
        <ele>102.9</ele>
        <time>2023-11-05T09:16:34Z</time>
      </trkpt>
      <trkpt lat="43.5131" lon="6.63489">
        <ele>102.9</ele>
        <time>2023-11-05T09:16:35Z</time>
      </trkpt>
      <trkpt lat="43.51309" lon="6.63489">
        <ele>102.9</ele>
        <time>2023-11-05T09:16:36Z</time>
      </trkpt>
      <trkpt lat="43.5131" lon="6.63488">
        <ele>102.8</ele>
        <time>2023-11-05T09:16:37Z</time>
      </trkpt>
      <trkpt lat="43.5131" lon="6.63488">
        <ele>102.7</ele>
        <time>2023-11-05T09:16:38Z</time>
      </trkpt>
      <trkpt lat="43.5131" lon="6.63488">
        <ele>102.7</ele>
        <time>2023-11-05T09:16:39Z</time>
      </trkpt>
      <trkpt lat="43.5131" lon="6.63489">
        <ele>102.7</ele>
        <time>2023-11-05T09:16:40Z</time>
      </trkpt>
      <trkpt lat="43.5131" lon="6.63489">
        <ele>102.7</ele>
        <time>2023-11-05T09:16:41Z</time>
      </trkpt>
      <trkpt lat="43.5131" lon="6.63489">
        <ele>102.7</ele>
        <time>2023-11-05T09:16:42Z</time>
      </trkpt>
      <trkpt lat="43.5131" lon="6.63489">
        <ele>102.7</ele>
        <time>2023-11-05T09:16:43Z</time>
      </trkpt>
      <trkpt lat="43.5131" lon="6.63489">
        <ele>102.7</ele>
        <time>2023-11-05T09:16:44Z</time>
      </trkpt>
      <trkpt lat="43.5131" lon="6.63489">
        <ele>102.8</ele>
        <time>2023-11-05T09:16:45Z</time>
      </trkpt>
      <trkpt lat="43.5131" lon="6.63489">
        <ele>102.8</ele>
        <time>2023-11-05T09:16:46Z</time>
      </trkpt>
      <trkpt lat="43.5131" lon="6.63489">
        <ele>102.8</ele>
        <time>2023-11-05T09:16:47Z</time>
      </trkpt>
      <trkpt lat="43.5131" lon="6.63489">
        <ele>102.8</ele>
        <time>2023-11-05T09:16:48Z</time>
      </trkpt>
      <trkpt lat="43.5131" lon="6.63489">
        <ele>102.7</ele>
        <time>2023-11-05T09:16:49Z</time>
      </trkpt>
      <trkpt lat="43.5131" lon="6.63489">
        <ele>102.6</ele>
        <time>2023-11-05T09:16:50Z</time>
      </trkpt>
      <trkpt lat="43.5131" lon="6.6349">
        <ele>102.6</ele>
        <time>2023-11-05T09:16:51Z</time>
      </trkpt>
      <trkpt lat="43.5131" lon="6.6349">
        <ele>102.5</ele>
        <time>2023-11-05T09:16:52Z</time>
      </trkpt>
      <trkpt lat="43.5131" lon="6.6349">
        <ele>102.5</ele>
        <time>2023-11-05T09:16:53Z</time>
      </trkpt>
      <trkpt lat="43.5131" lon="6.6349">
        <ele>102.6</ele>
        <time>2023-11-05T09:16:54Z</time>
      </trkpt>
      <trkpt lat="43.5131" lon="6.6349">
        <ele>102.8</ele>
        <time>2023-11-05T09:16:55Z</time>
      </trkpt>
      <trkpt lat="43.5131" lon="6.6349">
        <ele>102.8</ele>
        <time>2023-11-05T09:16:56Z</time>
      </trkpt>
      <trkpt lat="43.5131" lon="6.6349">
        <ele>102.8</ele>
        <time>2023-11-05T09:16:57Z</time>
      </trkpt>
      <trkpt lat="43.5131" lon="6.63491">
        <ele>102.8</ele>
        <time>2023-11-05T09:16:58Z</time>
      </trkpt>
      <trkpt lat="43.5131" lon="6.63491">
        <ele>102.7</ele>
        <time>2023-11-05T09:16:59Z</time>
      </trkpt>
      <trkpt lat="43.5131" lon="6.6349">
        <ele>102.7</ele>
        <time>2023-11-05T09:17:00Z</time>
      </trkpt>
      <trkpt lat="43.51309" lon="6.6349">
        <ele>102.7</ele>
        <time>2023-11-05T09:17:01Z</time>
      </trkpt>
      <trkpt lat="43.51309" lon="6.6349">
        <ele>102.7</ele>
        <time>2023-11-05T09:17:02Z</time>
      </trkpt>
      <trkpt lat="43.51309" lon="6.6349">
        <ele>102.8</ele>
        <time>2023-11-05T09:17:03Z</time>
      </trkpt>
      <trkpt lat="43.51309" lon="6.63491">
        <ele>102.9</ele>
        <time>2023-11-05T09:17:04Z</time>
      </trkpt>
      <trkpt lat="43.51309" lon="6.63491">
        <ele>102.8</ele>
        <time>2023-11-05T09:17:05Z</time>
      </trkpt>
      <trkpt lat="43.51309" lon="6.6349">
        <ele>102.8</ele>
        <time>2023-11-05T09:17:06Z</time>
      </trkpt>
      <trkpt lat="43.51309" lon="6.6349">
        <ele>102.8</ele>
        <time>2023-11-05T09:17:07Z</time>
      </trkpt>
      <trkpt lat="43.51309" lon="6.6349">
        <ele>102.8</ele>
        <time>2023-11-05T09:17:08Z</time>
      </trkpt>
      <trkpt lat="43.51309" lon="6.6349">
        <ele>102.8</ele>
        <time>2023-11-05T09:17:09Z</time>
      </trkpt>
      <trkpt lat="43.51309" lon="6.6349">
        <ele>102.7</ele>
        <time>2023-11-05T09:17:10Z</time>
      </trkpt>
      <trkpt lat="43.51309" lon="6.6349">
        <ele>102.6</ele>
        <time>2023-11-05T09:17:11Z</time>
      </trkpt>
      <trkpt lat="43.51308" lon="6.6349">
        <ele>102.7</ele>
        <time>2023-11-05T09:17:12Z</time>
      </trkpt>
      <trkpt lat="43.51308" lon="6.6349">
        <ele>102.6</ele>
        <time>2023-11-05T09:17:13Z</time>
      </trkpt>
      <trkpt lat="43.51308" lon="6.6349">
        <ele>102.6</ele>
        <time>2023-11-05T09:17:14Z</time>
      </trkpt>
      <trkpt lat="43.51308" lon="6.6349">
        <ele>102.6</ele>
        <time>2023-11-05T09:17:15Z</time>
      </trkpt>
      <trkpt lat="43.51308" lon="6.6349">
        <ele>102.5</ele>
        <time>2023-11-05T09:17:16Z</time>
      </trkpt>
      <trkpt lat="43.51308" lon="6.6349">
        <ele>102.5</ele>
        <time>2023-11-05T09:17:17Z</time>
      </trkpt>
      <trkpt lat="43.51308" lon="6.6349">
        <ele>102.5</ele>
        <time>2023-11-05T09:17:18Z</time>
      </trkpt>
      <trkpt lat="43.51308" lon="6.6349">
        <ele>102.5</ele>
        <time>2023-11-05T09:17:19Z</time>
      </trkpt>
      <trkpt lat="43.51308" lon="6.6349">
        <ele>102.4</ele>
        <time>2023-11-05T09:17:20Z</time>
      </trkpt>
      <trkpt lat="43.51308" lon="6.6349">
        <ele>102.3</ele>
        <time>2023-11-05T09:17:21Z</time>
      </trkpt>
      <trkpt lat="43.51308" lon="6.6349">
        <ele>102.3</ele>
        <time>2023-11-05T09:17:22Z</time>
      </trkpt>
      <trkpt lat="43.51308" lon="6.6349">
        <ele>102.3</ele>
        <time>2023-11-05T09:17:23Z</time>
      </trkpt>
      <trkpt lat="43.51308" lon="6.6349">
        <ele>102.3</ele>
        <time>2023-11-05T09:17:24Z</time>
      </trkpt>
      <trkpt lat="43.51308" lon="6.6349">
        <ele>102.3</ele>
        <time>2023-11-05T09:17:25Z</time>
      </trkpt>
      <trkpt lat="43.51308" lon="6.6349">
        <ele>102.3</ele>
        <time>2023-11-05T09:17:26Z</time>
      </trkpt>
      <trkpt lat="43.51308" lon="6.6349">
        <ele>102.4</ele>
        <time>2023-11-05T09:17:27Z</time>
      </trkpt>
      <trkpt lat="43.51309" lon="6.6349">
        <ele>102.3</ele>
        <time>2023-11-05T09:17:28Z</time>
      </trkpt>
      <trkpt lat="43.51308" lon="6.6349">
        <ele>102.4</ele>
        <time>2023-11-05T09:17:29Z</time>
      </trkpt>
      <trkpt lat="43.51309" lon="6.6349">
        <ele>102.4</ele>
        <time>2023-11-05T09:17:30Z</time>
      </trkpt>
      <trkpt lat="43.51309" lon="6.6349">
        <ele>102.4</ele>
        <time>2023-11-05T09:17:31Z</time>
      </trkpt>
      <trkpt lat="43.51309" lon="6.6349">
        <ele>102.4</ele>
        <time>2023-11-05T09:17:32Z</time>
      </trkpt>
      <trkpt lat="43.51309" lon="6.6349">
        <ele>102.4</ele>
        <time>2023-11-05T09:17:33Z</time>
      </trkpt>
      <trkpt lat="43.51309" lon="6.6349">
        <ele>102.4</ele>
        <time>2023-11-05T09:17:34Z</time>
      </trkpt>
      <trkpt lat="43.51309" lon="6.6349">
        <ele>102.4</ele>
        <time>2023-11-05T09:17:35Z</time>
      </trkpt>
      <trkpt lat="43.51308" lon="6.63489">
        <ele>102.4</ele>
        <time>2023-11-05T09:17:36Z</time>
      </trkpt>
      <trkpt lat="43.51308" lon="6.63489">
        <ele>102.5</ele>
        <time>2023-11-05T09:17:37Z</time>
      </trkpt>
      <trkpt lat="43.51308" lon="6.63489">
        <ele>102.5</ele>
        <time>2023-11-05T09:17:38Z</time>
      </trkpt>
      <trkpt lat="43.51308" lon="6.63489">
        <ele>102.6</ele>
        <time>2023-11-05T09:17:39Z</time>
      </trkpt>
      <trkpt lat="43.51309" lon="6.63489">
        <ele>102.5</ele>
        <time>2023-11-05T09:17:40Z</time>
      </trkpt>
      <trkpt lat="43.51309" lon="6.63489">
        <ele>102.5</ele>
        <time>2023-11-05T09:17:41Z</time>
      </trkpt>
      <trkpt lat="43.51309" lon="6.63489">
        <ele>102.5</ele>
        <time>2023-11-05T09:17:42Z</time>
      </trkpt>
      <trkpt lat="43.51309" lon="6.63489">
        <ele>102.5</ele>
        <time>2023-11-05T09:17:43Z</time>
      </trkpt>
      <trkpt lat="43.51309" lon="6.63489">
        <ele>102.5</ele>
        <time>2023-11-05T09:17:44Z</time>
      </trkpt>
      <trkpt lat="43.51309" lon="6.63489">
        <ele>102.5</ele>
        <time>2023-11-05T09:17:45Z</time>
      </trkpt>
      <trkpt lat="43.51309" lon="6.63489">
        <ele>102.6</ele>
        <time>2023-11-05T09:17:46Z</time>
      </trkpt>
      <trkpt lat="43.51309" lon="6.63489">
        <ele>102.6</ele>
        <time>2023-11-05T09:17:47Z</time>
      </trkpt>
      <trkpt lat="43.51309" lon="6.63489">
        <ele>102.6</ele>
        <time>2023-11-05T09:17:48Z</time>
      </trkpt>
      <trkpt lat="43.51309" lon="6.63489">
        <ele>102.6</ele>
        <time>2023-11-05T09:17:49Z</time>
      </trkpt>
      <trkpt lat="43.51309" lon="6.63489">
        <ele>102.6</ele>
        <time>2023-11-05T09:17:50Z</time>
      </trkpt>
      <trkpt lat="43.51309" lon="6.63489">
        <ele>102.8</ele>
        <time>2023-11-05T09:17:51Z</time>
      </trkpt>
      <trkpt lat="43.51309" lon="6.63489">
        <ele>102.8</ele>
        <time>2023-11-05T09:17:52Z</time>
      </trkpt>
      <trkpt lat="43.51309" lon="6.63489">
        <ele>102.9</ele>
        <time>2023-11-05T09:17:53Z</time>
      </trkpt>
      <trkpt lat="43.51309" lon="6.63489">
        <ele>102.9</ele>
        <time>2023-11-05T09:17:54Z</time>
      </trkpt>
      <trkpt lat="43.51309" lon="6.63489">
        <ele>103</ele>
        <time>2023-11-05T09:17:55Z</time>
      </trkpt>
      <trkpt lat="43.51309" lon="6.63489">
        <ele>102.8</ele>
        <time>2023-11-05T09:17:56Z</time>
      </trkpt>
      <trkpt lat="43.51309" lon="6.6349">
        <ele>102.7</ele>
        <time>2023-11-05T09:17:57Z</time>
      </trkpt>
      <trkpt lat="43.51309" lon="6.6349">
        <ele>102.7</ele>
        <time>2023-11-05T09:17:58Z</time>
      </trkpt>
      <trkpt lat="43.51309" lon="6.6349">
        <ele>102.7</ele>
        <time>2023-11-05T09:17:59Z</time>
      </trkpt>
      <trkpt lat="43.51309" lon="6.6349">
        <ele>102.6</ele>
        <time>2023-11-05T09:18:00Z</time>
      </trkpt>
      <trkpt lat="43.5131" lon="6.63491">
        <ele>102.6</ele>
        <time>2023-11-05T09:18:01Z</time>
      </trkpt>
      <trkpt lat="43.5131" lon="6.63491">
        <ele>102.7</ele>
        <time>2023-11-05T09:18:02Z</time>
      </trkpt>
      <trkpt lat="43.5131" lon="6.63491">
        <ele>102.8</ele>
        <time>2023-11-05T09:18:03Z</time>
      </trkpt>
      <trkpt lat="43.5131" lon="6.63491">
        <ele>102.8</ele>
        <time>2023-11-05T09:18:04Z</time>
      </trkpt>
      <trkpt lat="43.5131" lon="6.63491">
        <ele>102.8</ele>
        <time>2023-11-05T09:18:05Z</time>
      </trkpt>
      <trkpt lat="43.5131" lon="6.63492">
        <ele>102.8</ele>
        <time>2023-11-05T09:18:06Z</time>
      </trkpt>
      <trkpt lat="43.5131" lon="6.63492">
        <ele>102.8</ele>
        <time>2023-11-05T09:18:07Z</time>
      </trkpt>
      <trkpt lat="43.5131" lon="6.63492">
        <ele>102.7</ele>
        <time>2023-11-05T09:18:08Z</time>
      </trkpt>
      <trkpt lat="43.5131" lon="6.63492">
        <ele>102.7</ele>
        <time>2023-11-05T09:18:09Z</time>
      </trkpt>
      <trkpt lat="43.5131" lon="6.63492">
        <ele>102.8</ele>
        <time>2023-11-05T09:18:10Z</time>
      </trkpt>
      <trkpt lat="43.5131" lon="6.63492">
        <ele>102.8</ele>
        <time>2023-11-05T09:18:11Z</time>
      </trkpt>
      <trkpt lat="43.5131" lon="6.63492">
        <ele>102.8</ele>
        <time>2023-11-05T09:18:12Z</time>
      </trkpt>
      <trkpt lat="43.5131" lon="6.63492">
        <ele>102.8</ele>
        <time>2023-11-05T09:18:13Z</time>
      </trkpt>
      <trkpt lat="43.5131" lon="6.63492">
        <ele>102.8</ele>
        <time>2023-11-05T09:18:14Z</time>
      </trkpt>
      <trkpt lat="43.5131" lon="6.63492">
        <ele>102.8</ele>
        <time>2023-11-05T09:18:15Z</time>
      </trkpt>
      <trkpt lat="43.5131" lon="6.63492">
        <ele>102.8</ele>
        <time>2023-11-05T09:18:16Z</time>
      </trkpt>
      <trkpt lat="43.5131" lon="6.63492">
        <ele>102.7</ele>
        <time>2023-11-05T09:18:17Z</time>
      </trkpt>
      <trkpt lat="43.5131" lon="6.63492">
        <ele>102.7</ele>
        <time>2023-11-05T09:18:18Z</time>
      </trkpt>
      <trkpt lat="43.5131" lon="6.63492">
        <ele>102.7</ele>
        <time>2023-11-05T09:18:19Z</time>
      </trkpt>
      <trkpt lat="43.5131" lon="6.63492">
        <ele>102.7</ele>
        <time>2023-11-05T09:18:20Z</time>
      </trkpt>
      <trkpt lat="43.5131" lon="6.63492">
        <ele>102.6</ele>
        <time>2023-11-05T09:18:21Z</time>
      </trkpt>
      <trkpt lat="43.5131" lon="6.63492">
        <ele>102.5</ele>
        <time>2023-11-05T09:18:22Z</time>
      </trkpt>
      <trkpt lat="43.5131" lon="6.63492">
        <ele>102.5</ele>
        <time>2023-11-05T09:18:23Z</time>
      </trkpt>
      <trkpt lat="43.51311" lon="6.63493">
        <ele>102.5</ele>
        <time>2023-11-05T09:18:24Z</time>
      </trkpt>
      <trkpt lat="43.51311" lon="6.63493">
        <ele>102.4</ele>
        <time>2023-11-05T09:18:25Z</time>
      </trkpt>
      <trkpt lat="43.51311" lon="6.63493">
        <ele>102.4</ele>
        <time>2023-11-05T09:18:26Z</time>
      </trkpt>
      <trkpt lat="43.51311" lon="6.63493">
        <ele>102.4</ele>
        <time>2023-11-05T09:18:27Z</time>
      </trkpt>
      <trkpt lat="43.51311" lon="6.63493">
        <ele>102.4</ele>
        <time>2023-11-05T09:18:28Z</time>
      </trkpt>
      <trkpt lat="43.51311" lon="6.63493">
        <ele>102.4</ele>
        <time>2023-11-05T09:18:29Z</time>
      </trkpt>
      <trkpt lat="43.51311" lon="6.63494">
        <ele>102.4</ele>
        <time>2023-11-05T09:18:30Z</time>
      </trkpt>
      <trkpt lat="43.51311" lon="6.63494">
        <ele>102.4</ele>
        <time>2023-11-05T09:18:31Z</time>
      </trkpt>
      <trkpt lat="43.51311" lon="6.63494">
        <ele>102.3</ele>
        <time>2023-11-05T09:18:32Z</time>
      </trkpt>
      <trkpt lat="43.51311" lon="6.63494">
        <ele>102.3</ele>
        <time>2023-11-05T09:18:33Z</time>
      </trkpt>
      <trkpt lat="43.51312" lon="6.63494">
        <ele>102.2</ele>
        <time>2023-11-05T09:18:34Z</time>
      </trkpt>
      <trkpt lat="43.51312" lon="6.63494">
        <ele>102.2</ele>
        <time>2023-11-05T09:18:35Z</time>
      </trkpt>
      <trkpt lat="43.51312" lon="6.63494">
        <ele>102.1</ele>
        <time>2023-11-05T09:18:36Z</time>
      </trkpt>
      <trkpt lat="43.51312" lon="6.63494">
        <ele>101.9</ele>
        <time>2023-11-05T09:18:37Z</time>
      </trkpt>
      <trkpt lat="43.51312" lon="6.63494">
        <ele>101.8</ele>
        <time>2023-11-05T09:18:38Z</time>
      </trkpt>
      <trkpt lat="43.51312" lon="6.63494">
        <ele>101.8</ele>
        <time>2023-11-05T09:18:39Z</time>
      </trkpt>
      <trkpt lat="43.51312" lon="6.63494">
        <ele>101.7</ele>
        <time>2023-11-05T09:18:40Z</time>
      </trkpt>
      <trkpt lat="43.51312" lon="6.63494">
        <ele>101.7</ele>
        <time>2023-11-05T09:18:41Z</time>
      </trkpt>
      <trkpt lat="43.51312" lon="6.63494">
        <ele>101.7</ele>
        <time>2023-11-05T09:18:42Z</time>
      </trkpt>
      <trkpt lat="43.51312" lon="6.63495">
        <ele>101.6</ele>
        <time>2023-11-05T09:18:43Z</time>
      </trkpt>
      <trkpt lat="43.51312" lon="6.63495">
        <ele>101.6</ele>
        <time>2023-11-05T09:18:44Z</time>
      </trkpt>
      <trkpt lat="43.51312" lon="6.63495">
        <ele>101.6</ele>
        <time>2023-11-05T09:18:45Z</time>
      </trkpt>
      <trkpt lat="43.51312" lon="6.63495">
        <ele>101.5</ele>
        <time>2023-11-05T09:18:46Z</time>
      </trkpt>
      <trkpt lat="43.51312" lon="6.63495">
        <ele>101.4</ele>
        <time>2023-11-05T09:18:47Z</time>
      </trkpt>
      <trkpt lat="43.51312" lon="6.63495">
        <ele>101.5</ele>
        <time>2023-11-05T09:18:48Z</time>
      </trkpt>
      <trkpt lat="43.51312" lon="6.63495">
        <ele>101.5</ele>
        <time>2023-11-05T09:18:49Z</time>
      </trkpt>
      <trkpt lat="43.51312" lon="6.63495">
        <ele>101.6</ele>
        <time>2023-11-05T09:18:50Z</time>
      </trkpt>
      <trkpt lat="43.51312" lon="6.63495">
        <ele>101.5</ele>
        <time>2023-11-05T09:18:51Z</time>
      </trkpt>
      <trkpt lat="43.51312" lon="6.63495">
        <ele>101.5</ele>
        <time>2023-11-05T09:18:52Z</time>
      </trkpt>
      <trkpt lat="43.51312" lon="6.63494">
        <ele>101.4</ele>
        <time>2023-11-05T09:18:53Z</time>
      </trkpt>
      <trkpt lat="43.51312" lon="6.63494">
        <ele>101.3</ele>
        <time>2023-11-05T09:18:54Z</time>
      </trkpt>
      <trkpt lat="43.51312" lon="6.63494">
        <ele>101.3</ele>
        <time>2023-11-05T09:18:55Z</time>
      </trkpt>
      <trkpt lat="43.51312" lon="6.63494">
        <ele>101.3</ele>
        <time>2023-11-05T09:18:56Z</time>
      </trkpt>
      <trkpt lat="43.51312" lon="6.63494">
        <ele>101.3</ele>
        <time>2023-11-05T09:18:57Z</time>
      </trkpt>
      <trkpt lat="43.51312" lon="6.63494">
        <ele>101.4</ele>
        <time>2023-11-05T09:18:58Z</time>
      </trkpt>
      <trkpt lat="43.51312" lon="6.63494">
        <ele>101.4</ele>
        <time>2023-11-05T09:18:59Z</time>
      </trkpt>
      <trkpt lat="43.51312" lon="6.63494">
        <ele>101.5</ele>
        <time>2023-11-05T09:19:00Z</time>
      </trkpt>
      <trkpt lat="43.51312" lon="6.63494">
        <ele>101.5</ele>
        <time>2023-11-05T09:19:01Z</time>
      </trkpt>
      <trkpt lat="43.51312" lon="6.63494">
        <ele>101.6</ele>
        <time>2023-11-05T09:19:02Z</time>
      </trkpt>
      <trkpt lat="43.51312" lon="6.63494">
        <ele>101.6</ele>
        <time>2023-11-05T09:19:03Z</time>
      </trkpt>
      <trkpt lat="43.51312" lon="6.63494">
        <ele>101.6</ele>
        <time>2023-11-05T09:19:04Z</time>
      </trkpt>
      <trkpt lat="43.51312" lon="6.63494">
        <ele>101.7</ele>
        <time>2023-11-05T09:19:05Z</time>
      </trkpt>
      <trkpt lat="43.51312" lon="6.63494">
        <ele>101.7</ele>
        <time>2023-11-05T09:19:06Z</time>
      </trkpt>
      <trkpt lat="43.51312" lon="6.63494">
        <ele>101.7</ele>
        <time>2023-11-05T09:19:07Z</time>
      </trkpt>
      <trkpt lat="43.51312" lon="6.63494">
        <ele>101.8</ele>
        <time>2023-11-05T09:19:08Z</time>
      </trkpt>
      <trkpt lat="43.51312" lon="6.63494">
        <ele>101.9</ele>
        <time>2023-11-05T09:19:09Z</time>
      </trkpt>
      <trkpt lat="43.51312" lon="6.63494">
        <ele>102</ele>
        <time>2023-11-05T09:19:10Z</time>
      </trkpt>
      <trkpt lat="43.51312" lon="6.63494">
        <ele>102.1</ele>
        <time>2023-11-05T09:19:11Z</time>
      </trkpt>
      <trkpt lat="43.51312" lon="6.63494">
        <ele>102.3</ele>
        <time>2023-11-05T09:19:12Z</time>
      </trkpt>
      <trkpt lat="43.51311" lon="6.63494">
        <ele>102.4</ele>
        <time>2023-11-05T09:19:13Z</time>
      </trkpt>
      <trkpt lat="43.51311" lon="6.63494">
        <ele>102.5</ele>
        <time>2023-11-05T09:19:14Z</time>
      </trkpt>
      <trkpt lat="43.51311" lon="6.63494">
        <ele>102.5</ele>
        <time>2023-11-05T09:19:15Z</time>
      </trkpt>
      <trkpt lat="43.51311" lon="6.63494">
        <ele>102.5</ele>
        <time>2023-11-05T09:19:16Z</time>
      </trkpt>
      <trkpt lat="43.51311" lon="6.63494">
        <ele>102.6</ele>
        <time>2023-11-05T09:19:17Z</time>
      </trkpt>
      <trkpt lat="43.51311" lon="6.63495">
        <ele>102.6</ele>
        <time>2023-11-05T09:19:18Z</time>
      </trkpt>
      <trkpt lat="43.51311" lon="6.63494">
        <ele>102.5</ele>
        <time>2023-11-05T09:19:19Z</time>
      </trkpt>
      <trkpt lat="43.51311" lon="6.63494">
        <ele>102.3</ele>
        <time>2023-11-05T09:19:20Z</time>
      </trkpt>
      <trkpt lat="43.51311" lon="6.63494">
        <ele>102.2</ele>
        <time>2023-11-05T09:19:21Z</time>
      </trkpt>
      <trkpt lat="43.51311" lon="6.63494">
        <ele>102.1</ele>
        <time>2023-11-05T09:19:22Z</time>
      </trkpt>
      <trkpt lat="43.51311" lon="6.63494">
        <ele>101.9</ele>
        <time>2023-11-05T09:19:23Z</time>
      </trkpt>
      <trkpt lat="43.51311" lon="6.63494">
        <ele>101.8</ele>
        <time>2023-11-05T09:19:24Z</time>
      </trkpt>
      <trkpt lat="43.51311" lon="6.63494">
        <ele>101.7</ele>
        <time>2023-11-05T09:19:25Z</time>
      </trkpt>
      <trkpt lat="43.51311" lon="6.63494">
        <ele>101.6</ele>
        <time>2023-11-05T09:19:26Z</time>
      </trkpt>
      <trkpt lat="43.51311" lon="6.63494">
        <ele>101.6</ele>
        <time>2023-11-05T09:19:27Z</time>
      </trkpt>
      <trkpt lat="43.51311" lon="6.63493">
        <ele>101.6</ele>
        <time>2023-11-05T09:19:28Z</time>
      </trkpt>
      <trkpt lat="43.51311" lon="6.63493">
        <ele>101.7</ele>
        <time>2023-11-05T09:19:29Z</time>
      </trkpt>
      <trkpt lat="43.51311" lon="6.63493">
        <ele>101.8</ele>
        <time>2023-11-05T09:19:30Z</time>
      </trkpt>
      <trkpt lat="43.51311" lon="6.63493">
        <ele>101.8</ele>
        <time>2023-11-05T09:19:31Z</time>
      </trkpt>
      <trkpt lat="43.51311" lon="6.63493">
        <ele>101.9</ele>
        <time>2023-11-05T09:19:32Z</time>
      </trkpt>
      <trkpt lat="43.51311" lon="6.63494">
        <ele>102</ele>
        <time>2023-11-05T09:19:33Z</time>
      </trkpt>
      <trkpt lat="43.51311" lon="6.63494">
        <ele>102.1</ele>
        <time>2023-11-05T09:19:34Z</time>
      </trkpt>
      <trkpt lat="43.51311" lon="6.63493">
        <ele>102.2</ele>
        <time>2023-11-05T09:19:35Z</time>
      </trkpt>
      <trkpt lat="43.51311" lon="6.63493">
        <ele>102.1</ele>
        <time>2023-11-05T09:19:36Z</time>
      </trkpt>
      <trkpt lat="43.51311" lon="6.63493">
        <ele>102</ele>
        <time>2023-11-05T09:19:37Z</time>
      </trkpt>
      <trkpt lat="43.51311" lon="6.63493">
        <ele>102</ele>
        <time>2023-11-05T09:19:38Z</time>
      </trkpt>
      <trkpt lat="43.51311" lon="6.63493">
        <ele>101.9</ele>
        <time>2023-11-05T09:19:39Z</time>
      </trkpt>
      <trkpt lat="43.51311" lon="6.63493">
        <ele>101.8</ele>
        <time>2023-11-05T09:19:40Z</time>
      </trkpt>
      <trkpt lat="43.5131" lon="6.63493">
        <ele>101.5</ele>
        <time>2023-11-05T09:19:41Z</time>
      </trkpt>
      <trkpt lat="43.5131" lon="6.63493">
        <ele>101.3</ele>
        <time>2023-11-05T09:19:42Z</time>
      </trkpt>
      <trkpt lat="43.5131" lon="6.63493">
        <ele>101.1</ele>
        <time>2023-11-05T09:19:43Z</time>
      </trkpt>
      <trkpt lat="43.5131" lon="6.63493">
        <ele>101.2</ele>
        <time>2023-11-05T09:19:44Z</time>
      </trkpt>
      <trkpt lat="43.5131" lon="6.63493">
        <ele>101.2</ele>
        <time>2023-11-05T09:19:45Z</time>
      </trkpt>
      <trkpt lat="43.5131" lon="6.63493">
        <ele>101.2</ele>
        <time>2023-11-05T09:19:46Z</time>
      </trkpt>
      <trkpt lat="43.51311" lon="6.63492">
        <ele>101.2</ele>
        <time>2023-11-05T09:19:47Z</time>
      </trkpt>
      <trkpt lat="43.51311" lon="6.63492">
        <ele>101.2</ele>
        <time>2023-11-05T09:19:48Z</time>
      </trkpt>
      <trkpt lat="43.51311" lon="6.63492">
        <ele>101.2</ele>
        <time>2023-11-05T09:19:49Z</time>
      </trkpt>
      <trkpt lat="43.51311" lon="6.63492">
        <ele>101.3</ele>
        <time>2023-11-05T09:19:50Z</time>
      </trkpt>
      <trkpt lat="43.5131" lon="6.63492">
        <ele>101.4</ele>
        <time>2023-11-05T09:19:51Z</time>
      </trkpt>
      <trkpt lat="43.5131" lon="6.63492">
        <ele>101.4</ele>
        <time>2023-11-05T09:19:52Z</time>
      </trkpt>
      <trkpt lat="43.51311" lon="6.63492">
        <ele>101.5</ele>
        <time>2023-11-05T09:19:53Z</time>
      </trkpt>
      <trkpt lat="43.51311" lon="6.63492">
        <ele>101.6</ele>
        <time>2023-11-05T09:19:54Z</time>
      </trkpt>
      <trkpt lat="43.51311" lon="6.63492">
        <ele>101.7</ele>
        <time>2023-11-05T09:19:55Z</time>
      </trkpt>
      <trkpt lat="43.51311" lon="6.63492">
        <ele>101.8</ele>
        <time>2023-11-05T09:19:56Z</time>
      </trkpt>
      <trkpt lat="43.5131" lon="6.63492">
        <ele>101.8</ele>
        <time>2023-11-05T09:19:57Z</time>
      </trkpt>
      <trkpt lat="43.5131" lon="6.63492">
        <ele>101.9</ele>
        <time>2023-11-05T09:19:58Z</time>
      </trkpt>
      <trkpt lat="43.5131" lon="6.63492">
        <ele>101.8</ele>
        <time>2023-11-05T09:19:59Z</time>
      </trkpt>
      <trkpt lat="43.5131" lon="6.63492">
        <ele>101.9</ele>
        <time>2023-11-05T09:20:00Z</time>
      </trkpt>
      <trkpt lat="43.5131" lon="6.63491">
        <ele>101.9</ele>
        <time>2023-11-05T09:20:01Z</time>
      </trkpt>
      <trkpt lat="43.5131" lon="6.63491">
        <ele>101.8</ele>
        <time>2023-11-05T09:20:02Z</time>
      </trkpt>
      <trkpt lat="43.5131" lon="6.63492">
        <ele>101.7</ele>
        <time>2023-11-05T09:20:03Z</time>
      </trkpt>
      <trkpt lat="43.5131" lon="6.63492">
        <ele>101.6</ele>
        <time>2023-11-05T09:20:04Z</time>
      </trkpt>
      <trkpt lat="43.51309" lon="6.63492">
        <ele>101.6</ele>
        <time>2023-11-05T09:20:05Z</time>
      </trkpt>
      <trkpt lat="43.5131" lon="6.63492">
        <ele>101.7</ele>
        <time>2023-11-05T09:20:06Z</time>
      </trkpt>
      <trkpt lat="43.51309" lon="6.63492">
        <ele>101.7</ele>
        <time>2023-11-05T09:20:07Z</time>
      </trkpt>
      <trkpt lat="43.5131" lon="6.63492">
        <ele>101.7</ele>
        <time>2023-11-05T09:20:08Z</time>
      </trkpt>
      <trkpt lat="43.5131" lon="6.63492">
        <ele>101.6</ele>
        <time>2023-11-05T09:20:09Z</time>
      </trkpt>
      <trkpt lat="43.5131" lon="6.63492">
        <ele>101.6</ele>
        <time>2023-11-05T09:20:10Z</time>
      </trkpt>
      <trkpt lat="43.5131" lon="6.63492">
        <ele>101.5</ele>
        <time>2023-11-05T09:20:11Z</time>
      </trkpt>
      <trkpt lat="43.5131" lon="6.63492">
        <ele>101.5</ele>
        <time>2023-11-05T09:20:12Z</time>
      </trkpt>
      <trkpt lat="43.51309" lon="6.63493">
        <ele>101.5</ele>
        <time>2023-11-05T09:20:13Z</time>
      </trkpt>
      <trkpt lat="43.51309" lon="6.63493">
        <ele>101.3</ele>
        <time>2023-11-05T09:20:14Z</time>
      </trkpt>
      <trkpt lat="43.51309" lon="6.63493">
        <ele>101.2</ele>
        <time>2023-11-05T09:20:15Z</time>
      </trkpt>
      <trkpt lat="43.51309" lon="6.63493">
        <ele>101.1</ele>
        <time>2023-11-05T09:20:16Z</time>
      </trkpt>
      <trkpt lat="43.51309" lon="6.63493">
        <ele>101.1</ele>
        <time>2023-11-05T09:20:17Z</time>
      </trkpt>
      <trkpt lat="43.51308" lon="6.63493">
        <ele>101.2</ele>
        <time>2023-11-05T09:20:18Z</time>
      </trkpt>
      <trkpt lat="43.51308" lon="6.63493">
        <ele>101.2</ele>
        <time>2023-11-05T09:20:19Z</time>
      </trkpt>
      <trkpt lat="43.51308" lon="6.63493">
        <ele>101.1</ele>
        <time>2023-11-05T09:20:20Z</time>
      </trkpt>
      <trkpt lat="43.51308" lon="6.63493">
        <ele>101.1</ele>
        <time>2023-11-05T09:20:21Z</time>
      </trkpt>
      <trkpt lat="43.51308" lon="6.63493">
        <ele>101.2</ele>
        <time>2023-11-05T09:20:22Z</time>
      </trkpt>
      <trkpt lat="43.51308" lon="6.63493">
        <ele>101.3</ele>
        <time>2023-11-05T09:20:23Z</time>
      </trkpt>
      <trkpt lat="43.51308" lon="6.63494">
        <ele>101.3</ele>
        <time>2023-11-05T09:20:24Z</time>
      </trkpt>
      <trkpt lat="43.51308" lon="6.63494">
        <ele>101.3</ele>
        <time>2023-11-05T09:20:25Z</time>
      </trkpt>
      <trkpt lat="43.51308" lon="6.63493">
        <ele>101.3</ele>
        <time>2023-11-05T09:20:26Z</time>
      </trkpt>
      <trkpt lat="43.51308" lon="6.63493">
        <ele>101.3</ele>
        <time>2023-11-05T09:20:27Z</time>
      </trkpt>
      <trkpt lat="43.51308" lon="6.63493">
        <ele>101.3</ele>
        <time>2023-11-05T09:20:28Z</time>
      </trkpt>
      <trkpt lat="43.51308" lon="6.63493">
        <ele>101.3</ele>
        <time>2023-11-05T09:20:29Z</time>
      </trkpt>
      <trkpt lat="43.51308" lon="6.63493">
        <ele>101.3</ele>
        <time>2023-11-05T09:20:30Z</time>
      </trkpt>
      <trkpt lat="43.51308" lon="6.63493">
        <ele>101.2</ele>
        <time>2023-11-05T09:20:31Z</time>
      </trkpt>
      <trkpt lat="43.51308" lon="6.63493">
        <ele>101.1</ele>
        <time>2023-11-05T09:20:32Z</time>
      </trkpt>
      <trkpt lat="43.51308" lon="6.63493">
        <ele>101.1</ele>
        <time>2023-11-05T09:20:33Z</time>
      </trkpt>
      <trkpt lat="43.51308" lon="6.63493">
        <ele>101.1</ele>
        <time>2023-11-05T09:20:34Z</time>
      </trkpt>
      <trkpt lat="43.51308" lon="6.63493">
        <ele>101.2</ele>
        <time>2023-11-05T09:20:35Z</time>
      </trkpt>
      <trkpt lat="43.51308" lon="6.63494">
        <ele>101.3</ele>
        <time>2023-11-05T09:20:36Z</time>
      </trkpt>
      <trkpt lat="43.51308" lon="6.63494">
        <ele>101.4</ele>
        <time>2023-11-05T09:20:37Z</time>
      </trkpt>
      <trkpt lat="43.51308" lon="6.63494">
        <ele>101.6</ele>
        <time>2023-11-05T09:20:38Z</time>
      </trkpt>
      <trkpt lat="43.51308" lon="6.63494">
        <ele>101.7</ele>
        <time>2023-11-05T09:20:39Z</time>
      </trkpt>
      <trkpt lat="43.51308" lon="6.63494">
        <ele>101.9</ele>
        <time>2023-11-05T09:20:40Z</time>
      </trkpt>
      <trkpt lat="43.51307" lon="6.63494">
        <ele>102</ele>
        <time>2023-11-05T09:20:41Z</time>
      </trkpt>
      <trkpt lat="43.51307" lon="6.63494">
        <ele>102.1</ele>
        <time>2023-11-05T09:20:42Z</time>
      </trkpt>
      <trkpt lat="43.51307" lon="6.63494">
        <ele>102</ele>
        <time>2023-11-05T09:20:43Z</time>
      </trkpt>
      <trkpt lat="43.51307" lon="6.63493">
        <ele>101.9</ele>
        <time>2023-11-05T09:20:44Z</time>
      </trkpt>
      <trkpt lat="43.51308" lon="6.63493">
        <ele>101.7</ele>
        <time>2023-11-05T09:20:45Z</time>
      </trkpt>
      <trkpt lat="43.51308" lon="6.63493">
        <ele>101.5</ele>
        <time>2023-11-05T09:20:46Z</time>
      </trkpt>
      <trkpt lat="43.51308" lon="6.63493">
        <ele>101.4</ele>
        <time>2023-11-05T09:20:47Z</time>
      </trkpt>
      <trkpt lat="43.51308" lon="6.63493">
        <ele>101.4</ele>
        <time>2023-11-05T09:20:48Z</time>
      </trkpt>
      <trkpt lat="43.51308" lon="6.63493">
        <ele>101.3</ele>
        <time>2023-11-05T09:20:49Z</time>
      </trkpt>
      <trkpt lat="43.51308" lon="6.63493">
        <ele>101.2</ele>
        <time>2023-11-05T09:20:50Z</time>
      </trkpt>
      <trkpt lat="43.51308" lon="6.63493">
        <ele>101.2</ele>
        <time>2023-11-05T09:20:51Z</time>
      </trkpt>
      <trkpt lat="43.51308" lon="6.63493">
        <ele>101.2</ele>
        <time>2023-11-05T09:20:52Z</time>
      </trkpt>
      <trkpt lat="43.51308" lon="6.63493">
        <ele>101.3</ele>
        <time>2023-11-05T09:20:53Z</time>
      </trkpt>
      <trkpt lat="43.51308" lon="6.63493">
        <ele>101.3</ele>
        <time>2023-11-05T09:20:54Z</time>
      </trkpt>
      <trkpt lat="43.51308" lon="6.63493">
        <ele>101.4</ele>
        <time>2023-11-05T09:20:55Z</time>
      </trkpt>
      <trkpt lat="43.51308" lon="6.63493">
        <ele>101.3</ele>
        <time>2023-11-05T09:20:56Z</time>
      </trkpt>
      <trkpt lat="43.51308" lon="6.63493">
        <ele>101.3</ele>
        <time>2023-11-05T09:20:57Z</time>
      </trkpt>
      <trkpt lat="43.51308" lon="6.63492">
        <ele>101.3</ele>
        <time>2023-11-05T09:20:58Z</time>
      </trkpt>
      <trkpt lat="43.51307" lon="6.63493">
        <ele>101.6</ele>
        <time>2023-11-05T09:20:59Z</time>
      </trkpt>
      <trkpt lat="43.51307" lon="6.63493">
        <ele>101.7</ele>
        <time>2023-11-05T09:21:00Z</time>
      </trkpt>
      <trkpt lat="43.51307" lon="6.63494">
        <ele>101.7</ele>
        <time>2023-11-05T09:21:01Z</time>
      </trkpt>
      <trkpt lat="43.51306" lon="6.63495">
        <ele>101.8</ele>
        <time>2023-11-05T09:21:02Z</time>
      </trkpt>
      <trkpt lat="43.51306" lon="6.63496">
        <ele>101.7</ele>
        <time>2023-11-05T09:21:03Z</time>
      </trkpt>
      <trkpt lat="43.51306" lon="6.63496">
        <ele>101.6</ele>
        <time>2023-11-05T09:21:04Z</time>
      </trkpt>
      <trkpt lat="43.51306" lon="6.63497">
        <ele>101.4</ele>
        <time>2023-11-05T09:21:05Z</time>
      </trkpt>
      <trkpt lat="43.51306" lon="6.63497">
        <ele>101.3</ele>
        <time>2023-11-05T09:21:06Z</time>
      </trkpt>
      <trkpt lat="43.51305" lon="6.63498">
        <ele>101.2</ele>
        <time>2023-11-05T09:21:07Z</time>
      </trkpt>
      <trkpt lat="43.51304" lon="6.63499">
        <ele>101.1</ele>
        <time>2023-11-05T09:21:08Z</time>
      </trkpt>
      <trkpt lat="43.51304" lon="6.635">
        <ele>101</ele>
        <time>2023-11-05T09:21:09Z</time>
      </trkpt>
      <trkpt lat="43.51303" lon="6.63501">
        <ele>100.9</ele>
        <time>2023-11-05T09:21:10Z</time>
      </trkpt>
      <trkpt lat="43.51303" lon="6.63502">
        <ele>100.8</ele>
        <time>2023-11-05T09:21:11Z</time>
      </trkpt>
      <trkpt lat="43.51303" lon="6.63503">
        <ele>100.5</ele>
        <time>2023-11-05T09:21:12Z</time>
      </trkpt>
      <trkpt lat="43.51302" lon="6.63504">
        <ele>100.4</ele>
        <time>2023-11-05T09:21:13Z</time>
      </trkpt>
      <trkpt lat="43.51302" lon="6.63506">
        <ele>100.3</ele>
        <time>2023-11-05T09:21:14Z</time>
      </trkpt>
      <trkpt lat="43.51302" lon="6.63506">
        <ele>100.1</ele>
        <time>2023-11-05T09:21:15Z</time>
      </trkpt>
      <trkpt lat="43.51302" lon="6.63507">
        <ele>100</ele>
        <time>2023-11-05T09:21:16Z</time>
      </trkpt>
      <trkpt lat="43.51301" lon="6.63508">
        <ele>99.9</ele>
        <time>2023-11-05T09:21:17Z</time>
      </trkpt>
      <trkpt lat="43.513" lon="6.63509">
        <ele>99.8</ele>
        <time>2023-11-05T09:21:18Z</time>
      </trkpt>
      <trkpt lat="43.513" lon="6.6351">
        <ele>99.7</ele>
        <time>2023-11-05T09:21:19Z</time>
      </trkpt>
      <trkpt lat="43.51299" lon="6.63511">
        <ele>99.5</ele>
        <time>2023-11-05T09:21:20Z</time>
      </trkpt>
      <trkpt lat="43.51298" lon="6.63512">
        <ele>99.3</ele>
        <time>2023-11-05T09:21:21Z</time>
      </trkpt>
      <trkpt lat="43.51297" lon="6.63513">
        <ele>99.2</ele>
        <time>2023-11-05T09:21:22Z</time>
      </trkpt>
      <trkpt lat="43.51297" lon="6.63515">
        <ele>99.1</ele>
        <time>2023-11-05T09:21:23Z</time>
      </trkpt>
      <trkpt lat="43.51296" lon="6.63516">
        <ele>99.1</ele>
        <time>2023-11-05T09:21:24Z</time>
      </trkpt>
      <trkpt lat="43.51295" lon="6.63517">
        <ele>99</ele>
        <time>2023-11-05T09:21:25Z</time>
      </trkpt>
      <trkpt lat="43.51295" lon="6.63518">
        <ele>99.1</ele>
        <time>2023-11-05T09:21:26Z</time>
      </trkpt>
      <trkpt lat="43.51294" lon="6.63519">
        <ele>99.1</ele>
        <time>2023-11-05T09:21:27Z</time>
      </trkpt>
      <trkpt lat="43.51294" lon="6.63521">
        <ele>99.1</ele>
        <time>2023-11-05T09:21:28Z</time>
      </trkpt>
      <trkpt lat="43.51293" lon="6.63521">
        <ele>99.1</ele>
        <time>2023-11-05T09:21:29Z</time>
      </trkpt>
      <trkpt lat="43.51293" lon="6.63522">
        <ele>99.1</ele>
        <time>2023-11-05T09:21:30Z</time>
      </trkpt>
      <trkpt lat="43.51293" lon="6.63522">
        <ele>99</ele>
        <time>2023-11-05T09:21:31Z</time>
      </trkpt>
      <trkpt lat="43.51292" lon="6.63523">
        <ele>98.9</ele>
        <time>2023-11-05T09:21:32Z</time>
      </trkpt>
      <trkpt lat="43.51291" lon="6.63524">
        <ele>98.9</ele>
        <time>2023-11-05T09:21:33Z</time>
      </trkpt>
      <trkpt lat="43.51291" lon="6.63526">
        <ele>99</ele>
        <time>2023-11-05T09:21:34Z</time>
      </trkpt>
      <trkpt lat="43.5129" lon="6.63527">
        <ele>99</ele>
        <time>2023-11-05T09:21:35Z</time>
      </trkpt>
      <trkpt lat="43.51289" lon="6.63528">
        <ele>99</ele>
        <time>2023-11-05T09:21:36Z</time>
      </trkpt>
      <trkpt lat="43.51289" lon="6.63529">
        <ele>99</ele>
        <time>2023-11-05T09:21:37Z</time>
      </trkpt>
      <trkpt lat="43.51288" lon="6.63531">
        <ele>98.9</ele>
        <time>2023-11-05T09:21:38Z</time>
      </trkpt>
      <trkpt lat="43.51287" lon="6.63533">
        <ele>98.9</ele>
        <time>2023-11-05T09:21:39Z</time>
      </trkpt>
      <trkpt lat="43.51287" lon="6.63534">
        <ele>98.7</ele>
        <time>2023-11-05T09:21:40Z</time>
      </trkpt>
      <trkpt lat="43.51286" lon="6.63535">
        <ele>98.6</ele>
        <time>2023-11-05T09:21:41Z</time>
      </trkpt>
      <trkpt lat="43.51286" lon="6.63536">
        <ele>98.5</ele>
        <time>2023-11-05T09:21:42Z</time>
      </trkpt>
      <trkpt lat="43.51286" lon="6.63538">
        <ele>98.4</ele>
        <time>2023-11-05T09:21:43Z</time>
      </trkpt>
      <trkpt lat="43.51285" lon="6.63539">
        <ele>98.3</ele>
        <time>2023-11-05T09:21:44Z</time>
      </trkpt>
      <trkpt lat="43.51284" lon="6.6354">
        <ele>98.2</ele>
        <time>2023-11-05T09:21:45Z</time>
      </trkpt>
      <trkpt lat="43.51284" lon="6.63542">
        <ele>98.2</ele>
        <time>2023-11-05T09:21:46Z</time>
      </trkpt>
      <trkpt lat="43.51283" lon="6.63543">
        <ele>98.1</ele>
        <time>2023-11-05T09:21:47Z</time>
      </trkpt>
      <trkpt lat="43.51282" lon="6.63545">
        <ele>98</ele>
        <time>2023-11-05T09:21:48Z</time>
      </trkpt>
      <trkpt lat="43.51282" lon="6.63546">
        <ele>98</ele>
        <time>2023-11-05T09:21:49Z</time>
      </trkpt>
      <trkpt lat="43.51281" lon="6.63547">
        <ele>98</ele>
        <time>2023-11-05T09:21:50Z</time>
      </trkpt>
      <trkpt lat="43.51281" lon="6.63549">
        <ele>97.9</ele>
        <time>2023-11-05T09:21:51Z</time>
      </trkpt>
      <trkpt lat="43.51281" lon="6.6355">
        <ele>98</ele>
        <time>2023-11-05T09:21:52Z</time>
      </trkpt>
      <trkpt lat="43.5128" lon="6.63551">
        <ele>98</ele>
        <time>2023-11-05T09:21:53Z</time>
      </trkpt>
      <trkpt lat="43.51279" lon="6.63552">
        <ele>98.1</ele>
        <time>2023-11-05T09:21:54Z</time>
      </trkpt>
      <trkpt lat="43.51278" lon="6.63554">
        <ele>98.1</ele>
        <time>2023-11-05T09:21:55Z</time>
      </trkpt>
      <trkpt lat="43.51278" lon="6.63556">
        <ele>98</ele>
        <time>2023-11-05T09:21:56Z</time>
      </trkpt>
      <trkpt lat="43.51277" lon="6.63557">
        <ele>98</ele>
        <time>2023-11-05T09:21:57Z</time>
      </trkpt>
      <trkpt lat="43.51277" lon="6.63559">
        <ele>98</ele>
        <time>2023-11-05T09:21:58Z</time>
      </trkpt>
      <trkpt lat="43.51277" lon="6.6356">
        <ele>97.9</ele>
        <time>2023-11-05T09:21:59Z</time>
      </trkpt>
      <trkpt lat="43.51276" lon="6.63562">
        <ele>97.8</ele>
        <time>2023-11-05T09:22:00Z</time>
      </trkpt>
      <trkpt lat="43.51276" lon="6.63563">
        <ele>97.9</ele>
        <time>2023-11-05T09:22:01Z</time>
      </trkpt>
      <trkpt lat="43.51275" lon="6.63565">
        <ele>98</ele>
        <time>2023-11-05T09:22:02Z</time>
      </trkpt>
      <trkpt lat="43.51274" lon="6.63566">
        <ele>98</ele>
        <time>2023-11-05T09:22:03Z</time>
      </trkpt>
      <trkpt lat="43.51273" lon="6.63568">
        <ele>98.1</ele>
        <time>2023-11-05T09:22:04Z</time>
      </trkpt>
      <trkpt lat="43.51273" lon="6.63569">
        <ele>98.1</ele>
        <time>2023-11-05T09:22:05Z</time>
      </trkpt>
      <trkpt lat="43.51272" lon="6.63571">
        <ele>98.2</ele>
        <time>2023-11-05T09:22:06Z</time>
      </trkpt>
      <trkpt lat="43.51272" lon="6.63572">
        <ele>98.2</ele>
        <time>2023-11-05T09:22:07Z</time>
      </trkpt>
      <trkpt lat="43.51271" lon="6.63574">
        <ele>98.2</ele>
        <time>2023-11-05T09:22:08Z</time>
      </trkpt>
      <trkpt lat="43.51271" lon="6.63576">
        <ele>98.1</ele>
        <time>2023-11-05T09:22:09Z</time>
      </trkpt>
      <trkpt lat="43.51271" lon="6.63577">
        <ele>98</ele>
        <time>2023-11-05T09:22:10Z</time>
      </trkpt>
      <trkpt lat="43.5127" lon="6.63579">
        <ele>98</ele>
        <time>2023-11-05T09:22:11Z</time>
      </trkpt>
      <trkpt lat="43.51269" lon="6.6358">
        <ele>97.9</ele>
        <time>2023-11-05T09:22:12Z</time>
      </trkpt>
      <trkpt lat="43.51269" lon="6.63582">
        <ele>97.8</ele>
        <time>2023-11-05T09:22:13Z</time>
      </trkpt>
      <trkpt lat="43.51268" lon="6.63584">
        <ele>97.8</ele>
        <time>2023-11-05T09:22:14Z</time>
      </trkpt>
      <trkpt lat="43.51267" lon="6.63586">
        <ele>97.8</ele>
        <time>2023-11-05T09:22:15Z</time>
      </trkpt>
      <trkpt lat="43.51267" lon="6.63587">
        <ele>97.7</ele>
        <time>2023-11-05T09:22:16Z</time>
      </trkpt>
      <trkpt lat="43.51266" lon="6.63588">
        <ele>97.7</ele>
        <time>2023-11-05T09:22:17Z</time>
      </trkpt>
      <trkpt lat="43.51265" lon="6.63589">
        <ele>97.7</ele>
        <time>2023-11-05T09:22:18Z</time>
      </trkpt>
      <trkpt lat="43.51265" lon="6.6359">
        <ele>97.7</ele>
        <time>2023-11-05T09:22:19Z</time>
      </trkpt>
      <trkpt lat="43.51264" lon="6.63591">
        <ele>97.8</ele>
        <time>2023-11-05T09:22:20Z</time>
      </trkpt>
      <trkpt lat="43.51264" lon="6.63592">
        <ele>97.8</ele>
        <time>2023-11-05T09:22:21Z</time>
      </trkpt>
      <trkpt lat="43.51263" lon="6.63594">
        <ele>97.7</ele>
        <time>2023-11-05T09:22:22Z</time>
      </trkpt>
      <trkpt lat="43.51263" lon="6.63595">
        <ele>97.7</ele>
        <time>2023-11-05T09:22:23Z</time>
      </trkpt>
      <trkpt lat="43.51262" lon="6.63597">
        <ele>97.6</ele>
        <time>2023-11-05T09:22:24Z</time>
      </trkpt>
      <trkpt lat="43.51261" lon="6.63599">
        <ele>97.7</ele>
        <time>2023-11-05T09:22:25Z</time>
      </trkpt>
      <trkpt lat="43.51261" lon="6.636">
        <ele>97.9</ele>
        <time>2023-11-05T09:22:26Z</time>
      </trkpt>
      <trkpt lat="43.5126" lon="6.63602">
        <ele>98.1</ele>
        <time>2023-11-05T09:22:27Z</time>
      </trkpt>
      <trkpt lat="43.5126" lon="6.63603">
        <ele>98.3</ele>
        <time>2023-11-05T09:22:28Z</time>
      </trkpt>
      <trkpt lat="43.51259" lon="6.63605">
        <ele>98.4</ele>
        <time>2023-11-05T09:22:29Z</time>
      </trkpt>
      <trkpt lat="43.51258" lon="6.63607">
        <ele>98.2</ele>
        <time>2023-11-05T09:22:30Z</time>
      </trkpt>
      <trkpt lat="43.51258" lon="6.63609">
        <ele>98</ele>
        <time>2023-11-05T09:22:31Z</time>
      </trkpt>
      <trkpt lat="43.51257" lon="6.6361">
        <ele>97.8</ele>
        <time>2023-11-05T09:22:32Z</time>
      </trkpt>
      <trkpt lat="43.51257" lon="6.63612">
        <ele>97.6</ele>
        <time>2023-11-05T09:22:33Z</time>
      </trkpt>
      <trkpt lat="43.51256" lon="6.63614">
        <ele>97.4</ele>
        <time>2023-11-05T09:22:34Z</time>
      </trkpt>
      <trkpt lat="43.51255" lon="6.63616">
        <ele>97.3</ele>
        <time>2023-11-05T09:22:35Z</time>
      </trkpt>
      <trkpt lat="43.51255" lon="6.63617">
        <ele>97.3</ele>
        <time>2023-11-05T09:22:36Z</time>
      </trkpt>
      <trkpt lat="43.51254" lon="6.63619">
        <ele>97.2</ele>
        <time>2023-11-05T09:22:37Z</time>
      </trkpt>
      <trkpt lat="43.51254" lon="6.63621">
        <ele>97.2</ele>
        <time>2023-11-05T09:22:38Z</time>
      </trkpt>
      <trkpt lat="43.51253" lon="6.63622">
        <ele>97.2</ele>
        <time>2023-11-05T09:22:39Z</time>
      </trkpt>
      <trkpt lat="43.51252" lon="6.63624">
        <ele>97.1</ele>
        <time>2023-11-05T09:22:40Z</time>
      </trkpt>
      <trkpt lat="43.51252" lon="6.63625">
        <ele>97.1</ele>
        <time>2023-11-05T09:22:41Z</time>
      </trkpt>
      <trkpt lat="43.51251" lon="6.63626">
        <ele>97.1</ele>
        <time>2023-11-05T09:22:42Z</time>
      </trkpt>
      <trkpt lat="43.5125" lon="6.63628">
        <ele>97</ele>
        <time>2023-11-05T09:22:43Z</time>
      </trkpt>
      <trkpt lat="43.5125" lon="6.6363">
        <ele>97</ele>
        <time>2023-11-05T09:22:44Z</time>
      </trkpt>
      <trkpt lat="43.51249" lon="6.63632">
        <ele>97.1</ele>
        <time>2023-11-05T09:22:45Z</time>
      </trkpt>
      <trkpt lat="43.51248" lon="6.63633">
        <ele>97.1</ele>
        <time>2023-11-05T09:22:46Z</time>
      </trkpt>
      <trkpt lat="43.51247" lon="6.63634">
        <ele>97.1</ele>
        <time>2023-11-05T09:22:47Z</time>
      </trkpt>
      <trkpt lat="43.51247" lon="6.63636">
        <ele>97.2</ele>
        <time>2023-11-05T09:22:48Z</time>
      </trkpt>
      <trkpt lat="43.51246" lon="6.63637">
        <ele>97.2</ele>
        <time>2023-11-05T09:22:49Z</time>
      </trkpt>
      <trkpt lat="43.51246" lon="6.63638">
        <ele>97.4</ele>
        <time>2023-11-05T09:22:50Z</time>
      </trkpt>
      <trkpt lat="43.51246" lon="6.6364">
        <ele>97.5</ele>
        <time>2023-11-05T09:22:51Z</time>
      </trkpt>
      <trkpt lat="43.51245" lon="6.63641">
        <ele>97.4</ele>
        <time>2023-11-05T09:22:52Z</time>
      </trkpt>
      <trkpt lat="43.51245" lon="6.63643">
        <ele>97.2</ele>
        <time>2023-11-05T09:22:53Z</time>
      </trkpt>
      <trkpt lat="43.51244" lon="6.63644">
        <ele>97</ele>
        <time>2023-11-05T09:22:54Z</time>
      </trkpt>
      <trkpt lat="43.51243" lon="6.63646">
        <ele>96.8</ele>
        <time>2023-11-05T09:22:55Z</time>
      </trkpt>
      <trkpt lat="43.51243" lon="6.63648">
        <ele>96.7</ele>
        <time>2023-11-05T09:22:56Z</time>
      </trkpt>
      <trkpt lat="43.51242" lon="6.63649">
        <ele>96.6</ele>
        <time>2023-11-05T09:22:57Z</time>
      </trkpt>
      <trkpt lat="43.51241" lon="6.6365">
        <ele>96.6</ele>
        <time>2023-11-05T09:22:58Z</time>
      </trkpt>
      <trkpt lat="43.51241" lon="6.63652">
        <ele>96.7</ele>
        <time>2023-11-05T09:22:59Z</time>
      </trkpt>
      <trkpt lat="43.5124" lon="6.63653">
        <ele>96.6</ele>
        <time>2023-11-05T09:23:00Z</time>
      </trkpt>
      <trkpt lat="43.5124" lon="6.63655">
        <ele>96.5</ele>
        <time>2023-11-05T09:23:01Z</time>
      </trkpt>
      <trkpt lat="43.51239" lon="6.63656">
        <ele>96.5</ele>
        <time>2023-11-05T09:23:02Z</time>
      </trkpt>
      <trkpt lat="43.51238" lon="6.63658">
        <ele>96.4</ele>
        <time>2023-11-05T09:23:03Z</time>
      </trkpt>
      <trkpt lat="43.51238" lon="6.6366">
        <ele>96.2</ele>
        <time>2023-11-05T09:23:04Z</time>
      </trkpt>
      <trkpt lat="43.51237" lon="6.63661">
        <ele>96.1</ele>
        <time>2023-11-05T09:23:05Z</time>
      </trkpt>
      <trkpt lat="43.51236" lon="6.63662">
        <ele>96</ele>
        <time>2023-11-05T09:23:06Z</time>
      </trkpt>
      <trkpt lat="43.51236" lon="6.63664">
        <ele>95.7</ele>
        <time>2023-11-05T09:23:07Z</time>
      </trkpt>
      <trkpt lat="43.51236" lon="6.63665">
        <ele>95.3</ele>
        <time>2023-11-05T09:23:08Z</time>
      </trkpt>
      <trkpt lat="43.51236" lon="6.63667">
        <ele>95</ele>
        <time>2023-11-05T09:23:09Z</time>
      </trkpt>
      <trkpt lat="43.51236" lon="6.63668">
        <ele>94.6</ele>
        <time>2023-11-05T09:23:10Z</time>
      </trkpt>
      <trkpt lat="43.51235" lon="6.63669">
        <ele>94.3</ele>
        <time>2023-11-05T09:23:11Z</time>
      </trkpt>
      <trkpt lat="43.51235" lon="6.6367">
        <ele>94.2</ele>
        <time>2023-11-05T09:23:12Z</time>
      </trkpt>
      <trkpt lat="43.51235" lon="6.63672">
        <ele>94.1</ele>
        <time>2023-11-05T09:23:13Z</time>
      </trkpt>
      <trkpt lat="43.51234" lon="6.63674">
        <ele>93.9</ele>
        <time>2023-11-05T09:23:14Z</time>
      </trkpt>
      <trkpt lat="43.51234" lon="6.63675">
        <ele>93.8</ele>
        <time>2023-11-05T09:23:15Z</time>
      </trkpt>
      <trkpt lat="43.51233" lon="6.63676">
        <ele>93.6</ele>
        <time>2023-11-05T09:23:16Z</time>
      </trkpt>
      <trkpt lat="43.51232" lon="6.63678">
        <ele>93.5</ele>
        <time>2023-11-05T09:23:17Z</time>
      </trkpt>
      <trkpt lat="43.51232" lon="6.63679">
        <ele>93.5</ele>
        <time>2023-11-05T09:23:18Z</time>
      </trkpt>
      <trkpt lat="43.51231" lon="6.6368">
        <ele>93.4</ele>
        <time>2023-11-05T09:23:19Z</time>
      </trkpt>
      <trkpt lat="43.5123" lon="6.63681">
        <ele>93.4</ele>
        <time>2023-11-05T09:23:20Z</time>
      </trkpt>
      <trkpt lat="43.51229" lon="6.63682">
        <ele>93.4</ele>
        <time>2023-11-05T09:23:21Z</time>
      </trkpt>
      <trkpt lat="43.51229" lon="6.63682">
        <ele>93.4</ele>
        <time>2023-11-05T09:23:22Z</time>
      </trkpt>
      <trkpt lat="43.51228" lon="6.63683">
        <ele>93.4</ele>
        <time>2023-11-05T09:23:23Z</time>
      </trkpt>
      <trkpt lat="43.51227" lon="6.63683">
        <ele>93.1</ele>
        <time>2023-11-05T09:23:24Z</time>
      </trkpt>
      <trkpt lat="43.51225" lon="6.63683">
        <ele>93.1</ele>
        <time>2023-11-05T09:23:25Z</time>
      </trkpt>
      <trkpt lat="43.51225" lon="6.63683">
        <ele>93.2</ele>
        <time>2023-11-05T09:23:26Z</time>
      </trkpt>
      <trkpt lat="43.51224" lon="6.63683">
        <ele>93.3</ele>
        <time>2023-11-05T09:23:27Z</time>
      </trkpt>
      <trkpt lat="43.51223" lon="6.63683">
        <ele>93.5</ele>
        <time>2023-11-05T09:23:28Z</time>
      </trkpt>
      <trkpt lat="43.51223" lon="6.63684">
        <ele>93.6</ele>
        <time>2023-11-05T09:23:29Z</time>
      </trkpt>
      <trkpt lat="43.51223" lon="6.63684">
        <ele>93.8</ele>
        <time>2023-11-05T09:23:30Z</time>
      </trkpt>
      <trkpt lat="43.51223" lon="6.63684">
        <ele>94</ele>
        <time>2023-11-05T09:23:31Z</time>
      </trkpt>
      <trkpt lat="43.51223" lon="6.63684">
        <ele>94.1</ele>
        <time>2023-11-05T09:23:32Z</time>
      </trkpt>
      <trkpt lat="43.51223" lon="6.63685">
        <ele>93.9</ele>
        <time>2023-11-05T09:23:33Z</time>
      </trkpt>
      <trkpt lat="43.51223" lon="6.63685">
        <ele>93.9</ele>
        <time>2023-11-05T09:23:34Z</time>
      </trkpt>
      <trkpt lat="43.51222" lon="6.63685">
        <ele>93.9</ele>
        <time>2023-11-05T09:23:35Z</time>
      </trkpt>
      <trkpt lat="43.51222" lon="6.63685">
        <ele>94</ele>
        <time>2023-11-05T09:23:36Z</time>
      </trkpt>
      <trkpt lat="43.51222" lon="6.63685">
        <ele>94.1</ele>
        <time>2023-11-05T09:23:37Z</time>
      </trkpt>
      <trkpt lat="43.51222" lon="6.63685">
        <ele>94.1</ele>
        <time>2023-11-05T09:23:38Z</time>
      </trkpt>
      <trkpt lat="43.51222" lon="6.63686">
        <ele>94.1</ele>
        <time>2023-11-05T09:23:39Z</time>
      </trkpt>
      <trkpt lat="43.51222" lon="6.63686">
        <ele>94</ele>
        <time>2023-11-05T09:23:40Z</time>
      </trkpt>
      <trkpt lat="43.51222" lon="6.63685">
        <ele>93.9</ele>
        <time>2023-11-05T09:23:41Z</time>
      </trkpt>
      <trkpt lat="43.51222" lon="6.63685">
        <ele>93.9</ele>
        <time>2023-11-05T09:23:42Z</time>
      </trkpt>
      <trkpt lat="43.51222" lon="6.63685">
        <ele>93.9</ele>
        <time>2023-11-05T09:23:43Z</time>
      </trkpt>
      <trkpt lat="43.51222" lon="6.63685">
        <ele>93.9</ele>
        <time>2023-11-05T09:23:44Z</time>
      </trkpt>
      <trkpt lat="43.51222" lon="6.63686">
        <ele>93.8</ele>
        <time>2023-11-05T09:23:45Z</time>
      </trkpt>
      <trkpt lat="43.51222" lon="6.63686">
        <ele>93.8</ele>
        <time>2023-11-05T09:23:46Z</time>
      </trkpt>
      <trkpt lat="43.51222" lon="6.63686">
        <ele>93.9</ele>
        <time>2023-11-05T09:23:47Z</time>
      </trkpt>
      <trkpt lat="43.51222" lon="6.63686">
        <ele>93.9</ele>
        <time>2023-11-05T09:23:48Z</time>
      </trkpt>
      <trkpt lat="43.51222" lon="6.63686">
        <ele>93.9</ele>
        <time>2023-11-05T09:23:49Z</time>
      </trkpt>
      <trkpt lat="43.51222" lon="6.63686">
        <ele>93.9</ele>
        <time>2023-11-05T09:23:50Z</time>
      </trkpt>
      <trkpt lat="43.51222" lon="6.63686">
        <ele>94</ele>
        <time>2023-11-05T09:23:51Z</time>
      </trkpt>
      <trkpt lat="43.51222" lon="6.63686">
        <ele>94</ele>
        <time>2023-11-05T09:23:52Z</time>
      </trkpt>
      <trkpt lat="43.51222" lon="6.63686">
        <ele>94</ele>
        <time>2023-11-05T09:23:53Z</time>
      </trkpt>
      <trkpt lat="43.51222" lon="6.63686">
        <ele>94</ele>
        <time>2023-11-05T09:23:54Z</time>
      </trkpt>
      <trkpt lat="43.51222" lon="6.63686">
        <ele>94</ele>
        <time>2023-11-05T09:23:55Z</time>
      </trkpt>
      <trkpt lat="43.51222" lon="6.63686">
        <ele>93.9</ele>
        <time>2023-11-05T09:23:56Z</time>
      </trkpt>
      <trkpt lat="43.51222" lon="6.63686">
        <ele>93.9</ele>
        <time>2023-11-05T09:23:57Z</time>
      </trkpt>
      <trkpt lat="43.51222" lon="6.63686">
        <ele>93.9</ele>
        <time>2023-11-05T09:23:58Z</time>
      </trkpt>
      <trkpt lat="43.51221" lon="6.63686">
        <ele>93.9</ele>
        <time>2023-11-05T09:23:59Z</time>
      </trkpt>
      <trkpt lat="43.51222" lon="6.63686">
        <ele>94.1</ele>
        <time>2023-11-05T09:24:00Z</time>
      </trkpt>
      <trkpt lat="43.51222" lon="6.63686">
        <ele>94.3</ele>
        <time>2023-11-05T09:24:01Z</time>
      </trkpt>
      <trkpt lat="43.51222" lon="6.63685">
        <ele>94.4</ele>
        <time>2023-11-05T09:24:02Z</time>
      </trkpt>
      <trkpt lat="43.51221" lon="6.63684">
        <ele>94.4</ele>
        <time>2023-11-05T09:24:03Z</time>
      </trkpt>
      <trkpt lat="43.5122" lon="6.63683">
        <ele>94.5</ele>
        <time>2023-11-05T09:24:04Z</time>
      </trkpt>
      <trkpt lat="43.51219" lon="6.63683">
        <ele>94.6</ele>
        <time>2023-11-05T09:24:05Z</time>
      </trkpt>
      <trkpt lat="43.51218" lon="6.63682">
        <ele>94.7</ele>
        <time>2023-11-05T09:24:06Z</time>
      </trkpt>
      <trkpt lat="43.51217" lon="6.63682">
        <ele>94.8</ele>
        <time>2023-11-05T09:24:07Z</time>
      </trkpt>
      <trkpt lat="43.51216" lon="6.63681">
        <ele>95</ele>
        <time>2023-11-05T09:24:08Z</time>
      </trkpt>
      <trkpt lat="43.51215" lon="6.6368">
        <ele>95.1</ele>
        <time>2023-11-05T09:24:09Z</time>
      </trkpt>
      <trkpt lat="43.51215" lon="6.63679">
        <ele>95.2</ele>
        <time>2023-11-05T09:24:10Z</time>
      </trkpt>
      <trkpt lat="43.51214" lon="6.63678">
        <ele>95.3</ele>
        <time>2023-11-05T09:24:11Z</time>
      </trkpt>
      <trkpt lat="43.51213" lon="6.63678">
        <ele>95.4</ele>
        <time>2023-11-05T09:24:12Z</time>
      </trkpt>
      <trkpt lat="43.51212" lon="6.63677">
        <ele>95.5</ele>
        <time>2023-11-05T09:24:13Z</time>
      </trkpt>
      <trkpt lat="43.51212" lon="6.63676">
        <ele>95.7</ele>
        <time>2023-11-05T09:24:14Z</time>
      </trkpt>
      <trkpt lat="43.51211" lon="6.63676">
        <ele>95.8</ele>
        <time>2023-11-05T09:24:15Z</time>
      </trkpt>
      <trkpt lat="43.51211" lon="6.63674">
        <ele>96</ele>
        <time>2023-11-05T09:24:16Z</time>
      </trkpt>
      <trkpt lat="43.51211" lon="6.63673">
        <ele>96.2</ele>
        <time>2023-11-05T09:24:17Z</time>
      </trkpt>
      <trkpt lat="43.51211" lon="6.63672">
        <ele>96.3</ele>
        <time>2023-11-05T09:24:18Z</time>
      </trkpt>
      <trkpt lat="43.5121" lon="6.6367">
        <ele>96.6</ele>
        <time>2023-11-05T09:24:19Z</time>
      </trkpt>
      <trkpt lat="43.5121" lon="6.63669">
        <ele>96.8</ele>
        <time>2023-11-05T09:24:20Z</time>
      </trkpt>
      <trkpt lat="43.51209" lon="6.63668">
        <ele>97</ele>
        <time>2023-11-05T09:24:21Z</time>
      </trkpt>
      <trkpt lat="43.51208" lon="6.63666">
        <ele>97</ele>
        <time>2023-11-05T09:24:22Z</time>
      </trkpt>
      <trkpt lat="43.51208" lon="6.63666">
        <ele>97.1</ele>
        <time>2023-11-05T09:24:23Z</time>
      </trkpt>
      <trkpt lat="43.51208" lon="6.63665">
        <ele>97.2</ele>
        <time>2023-11-05T09:24:24Z</time>
      </trkpt>
      <trkpt lat="43.51207" lon="6.63664">
        <ele>97.2</ele>
        <time>2023-11-05T09:24:25Z</time>
      </trkpt>
      <trkpt lat="43.51207" lon="6.63663">
        <ele>97.3</ele>
        <time>2023-11-05T09:24:26Z</time>
      </trkpt>
      <trkpt lat="43.51207" lon="6.63663">
        <ele>97.4</ele>
        <time>2023-11-05T09:24:27Z</time>
      </trkpt>
      <trkpt lat="43.51207" lon="6.63661">
        <ele>97.4</ele>
        <time>2023-11-05T09:24:28Z</time>
      </trkpt>
      <trkpt lat="43.51207" lon="6.6366">
        <ele>97.5</ele>
        <time>2023-11-05T09:24:29Z</time>
      </trkpt>
      <trkpt lat="43.51207" lon="6.63659">
        <ele>97.5</ele>
        <time>2023-11-05T09:24:30Z</time>
      </trkpt>
      <trkpt lat="43.51207" lon="6.63658">
        <ele>97.6</ele>
        <time>2023-11-05T09:24:31Z</time>
      </trkpt>
      <trkpt lat="43.51207" lon="6.63657">
        <ele>97.8</ele>
        <time>2023-11-05T09:24:32Z</time>
      </trkpt>
      <trkpt lat="43.51207" lon="6.63655">
        <ele>98.2</ele>
        <time>2023-11-05T09:24:33Z</time>
      </trkpt>
      <trkpt lat="43.51207" lon="6.63654">
        <ele>98.3</ele>
        <time>2023-11-05T09:24:34Z</time>
      </trkpt>
      <trkpt lat="43.51207" lon="6.63653">
        <ele>98.3</ele>
        <time>2023-11-05T09:24:35Z</time>
      </trkpt>
      <trkpt lat="43.51207" lon="6.63651">
        <ele>98.3</ele>
        <time>2023-11-05T09:24:36Z</time>
      </trkpt>
      <trkpt lat="43.51206" lon="6.6365">
        <ele>98.4</ele>
        <time>2023-11-05T09:24:37Z</time>
      </trkpt>
      <trkpt lat="43.51206" lon="6.63649">
        <ele>98.6</ele>
        <time>2023-11-05T09:24:38Z</time>
      </trkpt>
      <trkpt lat="43.51206" lon="6.63647">
        <ele>98.7</ele>
        <time>2023-11-05T09:24:39Z</time>
      </trkpt>
      <trkpt lat="43.51206" lon="6.63646">
        <ele>98.8</ele>
        <time>2023-11-05T09:24:40Z</time>
      </trkpt>
      <trkpt lat="43.51206" lon="6.63645">
        <ele>98.9</ele>
        <time>2023-11-05T09:24:41Z</time>
      </trkpt>
      <trkpt lat="43.51206" lon="6.63644">
        <ele>98.9</ele>
        <time>2023-11-05T09:24:42Z</time>
      </trkpt>
      <trkpt lat="43.51206" lon="6.63643">
        <ele>98.8</ele>
        <time>2023-11-05T09:24:43Z</time>
      </trkpt>
      <trkpt lat="43.51206" lon="6.63642">
        <ele>98.7</ele>
        <time>2023-11-05T09:24:44Z</time>
      </trkpt>
      <trkpt lat="43.51206" lon="6.6364">
        <ele>98.7</ele>
        <time>2023-11-05T09:24:45Z</time>
      </trkpt>
      <trkpt lat="43.51206" lon="6.63639">
        <ele>98.5</ele>
        <time>2023-11-05T09:24:46Z</time>
      </trkpt>
      <trkpt lat="43.51206" lon="6.63637">
        <ele>98.4</ele>
        <time>2023-11-05T09:24:47Z</time>
      </trkpt>
      <trkpt lat="43.51206" lon="6.63636">
        <ele>98.5</ele>
        <time>2023-11-05T09:24:48Z</time>
      </trkpt>
      <trkpt lat="43.51205" lon="6.63635">
        <ele>98.5</ele>
        <time>2023-11-05T09:24:49Z</time>
      </trkpt>
      <trkpt lat="43.51205" lon="6.63633">
        <ele>98.5</ele>
        <time>2023-11-05T09:24:50Z</time>
      </trkpt>
      <trkpt lat="43.51205" lon="6.63632">
        <ele>98.6</ele>
        <time>2023-11-05T09:24:51Z</time>
      </trkpt>
      <trkpt lat="43.51205" lon="6.63631">
        <ele>99</ele>
        <time>2023-11-05T09:24:52Z</time>
      </trkpt>
      <trkpt lat="43.51205" lon="6.6363">
        <ele>99.1</ele>
        <time>2023-11-05T09:24:53Z</time>
      </trkpt>
      <trkpt lat="43.51204" lon="6.63629">
        <ele>99.3</ele>
        <time>2023-11-05T09:24:54Z</time>
      </trkpt>
      <trkpt lat="43.51203" lon="6.63628">
        <ele>99.4</ele>
        <time>2023-11-05T09:24:55Z</time>
      </trkpt>
      <trkpt lat="43.51202" lon="6.63627">
        <ele>99.7</ele>
        <time>2023-11-05T09:24:56Z</time>
      </trkpt>
      <trkpt lat="43.51201" lon="6.63627">
        <ele>99.7</ele>
        <time>2023-11-05T09:24:57Z</time>
      </trkpt>
      <trkpt lat="43.512" lon="6.63626">
        <ele>100</ele>
        <time>2023-11-05T09:24:58Z</time>
      </trkpt>
      <trkpt lat="43.51199" lon="6.63626">
        <ele>100.2</ele>
        <time>2023-11-05T09:24:59Z</time>
      </trkpt>
      <trkpt lat="43.51198" lon="6.63626">
        <ele>100.3</ele>
        <time>2023-11-05T09:25:00Z</time>
      </trkpt>
      <trkpt lat="43.51198" lon="6.63626">
        <ele>100.5</ele>
        <time>2023-11-05T09:25:01Z</time>
      </trkpt>
      <trkpt lat="43.51197" lon="6.63626">
        <ele>100.6</ele>
        <time>2023-11-05T09:25:02Z</time>
      </trkpt>
      <trkpt lat="43.51197" lon="6.63626">
        <ele>100.8</ele>
        <time>2023-11-05T09:25:03Z</time>
      </trkpt>
      <trkpt lat="43.51196" lon="6.63626">
        <ele>101</ele>
        <time>2023-11-05T09:25:04Z</time>
      </trkpt>
      <trkpt lat="43.51195" lon="6.63626">
        <ele>101.2</ele>
        <time>2023-11-05T09:25:05Z</time>
      </trkpt>
      <trkpt lat="43.51195" lon="6.63627">
        <ele>101.5</ele>
        <time>2023-11-05T09:25:06Z</time>
      </trkpt>
      <trkpt lat="43.51194" lon="6.63627">
        <ele>101.7</ele>
        <time>2023-11-05T09:25:07Z</time>
      </trkpt>
      <trkpt lat="43.51193" lon="6.63627">
        <ele>101.9</ele>
        <time>2023-11-05T09:25:08Z</time>
      </trkpt>
      <trkpt lat="43.51191" lon="6.63627">
        <ele>102.1</ele>
        <time>2023-11-05T09:25:09Z</time>
      </trkpt>
      <trkpt lat="43.5119" lon="6.63628">
        <ele>102.3</ele>
        <time>2023-11-05T09:25:10Z</time>
      </trkpt>
      <trkpt lat="43.51189" lon="6.63628">
        <ele>102.6</ele>
        <time>2023-11-05T09:25:11Z</time>
      </trkpt>
      <trkpt lat="43.51189" lon="6.63628">
        <ele>102.8</ele>
        <time>2023-11-05T09:25:12Z</time>
      </trkpt>
      <trkpt lat="43.51188" lon="6.63628">
        <ele>102.9</ele>
        <time>2023-11-05T09:25:13Z</time>
      </trkpt>
      <trkpt lat="43.51187" lon="6.63628">
        <ele>103</ele>
        <time>2023-11-05T09:25:14Z</time>
      </trkpt>
      <trkpt lat="43.51186" lon="6.63629">
        <ele>103.3</ele>
        <time>2023-11-05T09:25:15Z</time>
      </trkpt>
      <trkpt lat="43.51186" lon="6.63629">
        <ele>103.4</ele>
        <time>2023-11-05T09:25:16Z</time>
      </trkpt>
      <trkpt lat="43.51185" lon="6.6363">
        <ele>103.5</ele>
        <time>2023-11-05T09:25:17Z</time>
      </trkpt>
      <trkpt lat="43.51185" lon="6.63631">
        <ele>103.6</ele>
        <time>2023-11-05T09:25:18Z</time>
      </trkpt>
      <trkpt lat="43.51184" lon="6.63631">
        <ele>103.7</ele>
        <time>2023-11-05T09:25:19Z</time>
      </trkpt>
      <trkpt lat="43.51184" lon="6.63631">
        <ele>104</ele>
        <time>2023-11-05T09:25:20Z</time>
      </trkpt>
      <trkpt lat="43.51183" lon="6.63632">
        <ele>104.3</ele>
        <time>2023-11-05T09:25:21Z</time>
      </trkpt>
      <trkpt lat="43.51182" lon="6.63633">
        <ele>104.6</ele>
        <time>2023-11-05T09:25:22Z</time>
      </trkpt>
      <trkpt lat="43.51182" lon="6.63633">
        <ele>104.8</ele>
        <time>2023-11-05T09:25:23Z</time>
      </trkpt>
      <trkpt lat="43.5118" lon="6.63633">
        <ele>104.9</ele>
        <time>2023-11-05T09:25:24Z</time>
      </trkpt>
      <trkpt lat="43.5118" lon="6.63634">
        <ele>105.1</ele>
        <time>2023-11-05T09:25:25Z</time>
      </trkpt>
      <trkpt lat="43.51179" lon="6.63634">
        <ele>105.3</ele>
        <time>2023-11-05T09:25:26Z</time>
      </trkpt>
      <trkpt lat="43.51179" lon="6.63636">
        <ele>105.4</ele>
        <time>2023-11-05T09:25:27Z</time>
      </trkpt>
      <trkpt lat="43.51178" lon="6.63637">
        <ele>105.6</ele>
        <time>2023-11-05T09:25:28Z</time>
      </trkpt>
      <trkpt lat="43.51179" lon="6.63638">
        <ele>105.7</ele>
        <time>2023-11-05T09:25:29Z</time>
      </trkpt>
      <trkpt lat="43.51178" lon="6.6364">
        <ele>105.8</ele>
        <time>2023-11-05T09:25:30Z</time>
      </trkpt>
      <trkpt lat="43.51178" lon="6.63641">
        <ele>105.9</ele>
        <time>2023-11-05T09:25:31Z</time>
      </trkpt>
      <trkpt lat="43.51177" lon="6.63642">
        <ele>105.8</ele>
        <time>2023-11-05T09:25:32Z</time>
      </trkpt>
      <trkpt lat="43.51177" lon="6.63644">
        <ele>105.7</ele>
        <time>2023-11-05T09:25:33Z</time>
      </trkpt>
      <trkpt lat="43.51178" lon="6.63645">
        <ele>105.7</ele>
        <time>2023-11-05T09:25:34Z</time>
      </trkpt>
      <trkpt lat="43.51178" lon="6.63646">
        <ele>105.6</ele>
        <time>2023-11-05T09:25:35Z</time>
      </trkpt>
      <trkpt lat="43.51178" lon="6.63647">
        <ele>105.5</ele>
        <time>2023-11-05T09:25:36Z</time>
      </trkpt>
      <trkpt lat="43.51178" lon="6.63648">
        <ele>105.4</ele>
        <time>2023-11-05T09:25:37Z</time>
      </trkpt>
      <trkpt lat="43.51177" lon="6.63649">
        <ele>105.2</ele>
        <time>2023-11-05T09:25:38Z</time>
      </trkpt>
      <trkpt lat="43.51177" lon="6.63651">
        <ele>105</ele>
        <time>2023-11-05T09:25:39Z</time>
      </trkpt>
      <trkpt lat="43.51176" lon="6.63652">
        <ele>104.8</ele>
        <time>2023-11-05T09:25:40Z</time>
      </trkpt>
      <trkpt lat="43.51176" lon="6.63653">
        <ele>104.6</ele>
        <time>2023-11-05T09:25:41Z</time>
      </trkpt>
      <trkpt lat="43.51176" lon="6.63654">
        <ele>104.4</ele>
        <time>2023-11-05T09:25:42Z</time>
      </trkpt>
      <trkpt lat="43.51176" lon="6.63655">
        <ele>104.2</ele>
        <time>2023-11-05T09:25:43Z</time>
      </trkpt>
      <trkpt lat="43.51175" lon="6.63656">
        <ele>104.1</ele>
        <time>2023-11-05T09:25:44Z</time>
      </trkpt>
      <trkpt lat="43.51175" lon="6.63656">
        <ele>103.8</ele>
        <time>2023-11-05T09:25:45Z</time>
      </trkpt>
      <trkpt lat="43.51174" lon="6.63657">
        <ele>103.6</ele>
        <time>2023-11-05T09:25:46Z</time>
      </trkpt>
      <trkpt lat="43.51174" lon="6.63657">
        <ele>103.5</ele>
        <time>2023-11-05T09:25:47Z</time>
      </trkpt>
      <trkpt lat="43.51174" lon="6.63657">
        <ele>103.4</ele>
        <time>2023-11-05T09:25:48Z</time>
      </trkpt>
      <trkpt lat="43.51174" lon="6.63656">
        <ele>103.3</ele>
        <time>2023-11-05T09:25:49Z</time>
      </trkpt>
      <trkpt lat="43.51174" lon="6.63656">
        <ele>103.3</ele>
        <time>2023-11-05T09:25:50Z</time>
      </trkpt>
      <trkpt lat="43.51174" lon="6.63655">
        <ele>103.5</ele>
        <time>2023-11-05T09:25:51Z</time>
      </trkpt>
      <trkpt lat="43.51173" lon="6.63654">
        <ele>103.7</ele>
        <time>2023-11-05T09:25:52Z</time>
      </trkpt>
      <trkpt lat="43.51172" lon="6.63654">
        <ele>103.9</ele>
        <time>2023-11-05T09:25:53Z</time>
      </trkpt>
      <trkpt lat="43.51172" lon="6.63653">
        <ele>104.1</ele>
        <time>2023-11-05T09:25:54Z</time>
      </trkpt>
      <trkpt lat="43.51171" lon="6.63652">
        <ele>104.3</ele>
        <time>2023-11-05T09:25:55Z</time>
      </trkpt>
      <trkpt lat="43.51171" lon="6.63652">
        <ele>104.5</ele>
        <time>2023-11-05T09:25:56Z</time>
      </trkpt>
      <trkpt lat="43.5117" lon="6.63651">
        <ele>104.6</ele>
        <time>2023-11-05T09:25:57Z</time>
      </trkpt>
      <trkpt lat="43.5117" lon="6.6365">
        <ele>104.8</ele>
        <time>2023-11-05T09:25:58Z</time>
      </trkpt>
      <trkpt lat="43.5117" lon="6.63649">
        <ele>104.9</ele>
        <time>2023-11-05T09:25:59Z</time>
      </trkpt>
      <trkpt lat="43.5117" lon="6.63649">
        <ele>105.1</ele>
        <time>2023-11-05T09:26:00Z</time>
      </trkpt>
      <trkpt lat="43.51169" lon="6.63648">
        <ele>105.1</ele>
        <time>2023-11-05T09:26:01Z</time>
      </trkpt>
      <trkpt lat="43.51169" lon="6.63647">
        <ele>105.3</ele>
        <time>2023-11-05T09:26:02Z</time>
      </trkpt>
      <trkpt lat="43.51168" lon="6.63647">
        <ele>105.5</ele>
        <time>2023-11-05T09:26:03Z</time>
      </trkpt>
      <trkpt lat="43.51168" lon="6.63646">
        <ele>105.8</ele>
        <time>2023-11-05T09:26:04Z</time>
      </trkpt>
      <trkpt lat="43.51167" lon="6.63645">
        <ele>106</ele>
        <time>2023-11-05T09:26:05Z</time>
      </trkpt>
      <trkpt lat="43.51167" lon="6.63645">
        <ele>106.3</ele>
        <time>2023-11-05T09:26:06Z</time>
      </trkpt>
      <trkpt lat="43.51166" lon="6.63644">
        <ele>106.6</ele>
        <time>2023-11-05T09:26:07Z</time>
      </trkpt>
      <trkpt lat="43.51166" lon="6.63643">
        <ele>106.8</ele>
        <time>2023-11-05T09:26:08Z</time>
      </trkpt>
      <trkpt lat="43.51165" lon="6.63643">
        <ele>107</ele>
        <time>2023-11-05T09:26:09Z</time>
      </trkpt>
      <trkpt lat="43.51165" lon="6.63642">
        <ele>107.3</ele>
        <time>2023-11-05T09:26:10Z</time>
      </trkpt>
      <trkpt lat="43.51164" lon="6.63641">
        <ele>107.6</ele>
        <time>2023-11-05T09:26:11Z</time>
      </trkpt>
      <trkpt lat="43.51163" lon="6.63641">
        <ele>107.9</ele>
        <time>2023-11-05T09:26:12Z</time>
      </trkpt>
      <trkpt lat="43.51162" lon="6.63641">
        <ele>108.2</ele>
        <time>2023-11-05T09:26:13Z</time>
      </trkpt>
      <trkpt lat="43.51162" lon="6.6364">
        <ele>108.4</ele>
        <time>2023-11-05T09:26:14Z</time>
      </trkpt>
      <trkpt lat="43.51161" lon="6.63639">
        <ele>108.5</ele>
        <time>2023-11-05T09:26:15Z</time>
      </trkpt>
      <trkpt lat="43.51162" lon="6.63639">
        <ele>108.6</ele>
        <time>2023-11-05T09:26:16Z</time>
      </trkpt>
      <trkpt lat="43.51162" lon="6.63638">
        <ele>108.7</ele>
        <time>2023-11-05T09:26:17Z</time>
      </trkpt>
      <trkpt lat="43.51162" lon="6.63637">
        <ele>108.9</ele>
        <time>2023-11-05T09:26:18Z</time>
      </trkpt>
      <trkpt lat="43.51161" lon="6.63637">
        <ele>109.1</ele>
        <time>2023-11-05T09:26:19Z</time>
      </trkpt>
      <trkpt lat="43.51161" lon="6.63636">
        <ele>109.3</ele>
        <time>2023-11-05T09:26:20Z</time>
      </trkpt>
      <trkpt lat="43.51161" lon="6.63635">
        <ele>109.5</ele>
        <time>2023-11-05T09:26:21Z</time>
      </trkpt>
      <trkpt lat="43.51161" lon="6.63634">
        <ele>109.7</ele>
        <time>2023-11-05T09:26:22Z</time>
      </trkpt>
      <trkpt lat="43.51161" lon="6.63633">
        <ele>109.9</ele>
        <time>2023-11-05T09:26:23Z</time>
      </trkpt>
      <trkpt lat="43.51161" lon="6.63632">
        <ele>110</ele>
        <time>2023-11-05T09:26:24Z</time>
      </trkpt>
      <trkpt lat="43.51161" lon="6.63631">
        <ele>110.3</ele>
        <time>2023-11-05T09:26:25Z</time>
      </trkpt>
      <trkpt lat="43.5116" lon="6.6363">
        <ele>110.5</ele>
        <time>2023-11-05T09:26:26Z</time>
      </trkpt>
      <trkpt lat="43.5116" lon="6.63629">
        <ele>110.7</ele>
        <time>2023-11-05T09:26:27Z</time>
      </trkpt>
      <trkpt lat="43.51159" lon="6.63629">
        <ele>110.9</ele>
        <time>2023-11-05T09:26:28Z</time>
      </trkpt>
      <trkpt lat="43.51159" lon="6.63628">
        <ele>111.2</ele>
        <time>2023-11-05T09:26:29Z</time>
      </trkpt>
      <trkpt lat="43.51158" lon="6.63628">
        <ele>111.4</ele>
        <time>2023-11-05T09:26:30Z</time>
      </trkpt>
      <trkpt lat="43.51158" lon="6.63627">
        <ele>111.6</ele>
        <time>2023-11-05T09:26:31Z</time>
      </trkpt>
      <trkpt lat="43.51157" lon="6.63627">
        <ele>111.8</ele>
        <time>2023-11-05T09:26:32Z</time>
      </trkpt>
      <trkpt lat="43.51157" lon="6.63627">
        <ele>112.1</ele>
        <time>2023-11-05T09:26:33Z</time>
      </trkpt>
      <trkpt lat="43.51156" lon="6.63626">
        <ele>112.3</ele>
        <time>2023-11-05T09:26:34Z</time>
      </trkpt>
      <trkpt lat="43.51156" lon="6.63626">
        <ele>112.6</ele>
        <time>2023-11-05T09:26:35Z</time>
      </trkpt>
      <trkpt lat="43.51155" lon="6.63625">
        <ele>112.9</ele>
        <time>2023-11-05T09:26:36Z</time>
      </trkpt>
      <trkpt lat="43.51155" lon="6.63624">
        <ele>113.3</ele>
        <time>2023-11-05T09:26:37Z</time>
      </trkpt>
      <trkpt lat="43.51155" lon="6.63622">
        <ele>113.7</ele>
        <time>2023-11-05T09:26:38Z</time>
      </trkpt>
      <trkpt lat="43.51155" lon="6.63621">
        <ele>114</ele>
        <time>2023-11-05T09:26:39Z</time>
      </trkpt>
      <trkpt lat="43.51155" lon="6.6362">
        <ele>114.3</ele>
        <time>2023-11-05T09:26:40Z</time>
      </trkpt>
      <trkpt lat="43.51155" lon="6.63619">
        <ele>114.5</ele>
        <time>2023-11-05T09:26:41Z</time>
      </trkpt>
      <trkpt lat="43.51155" lon="6.63618">
        <ele>114.7</ele>
        <time>2023-11-05T09:26:42Z</time>
      </trkpt>
      <trkpt lat="43.51155" lon="6.63617">
        <ele>115.1</ele>
        <time>2023-11-05T09:26:43Z</time>
      </trkpt>
      <trkpt lat="43.51155" lon="6.63616">
        <ele>115.4</ele>
        <time>2023-11-05T09:26:44Z</time>
      </trkpt>
      <trkpt lat="43.51155" lon="6.63615">
        <ele>115.6</ele>
        <time>2023-11-05T09:26:45Z</time>
      </trkpt>
      <trkpt lat="43.51155" lon="6.63614">
        <ele>115.8</ele>
        <time>2023-11-05T09:26:46Z</time>
      </trkpt>
      <trkpt lat="43.51155" lon="6.63613">
        <ele>116</ele>
        <time>2023-11-05T09:26:47Z</time>
      </trkpt>
      <trkpt lat="43.51155" lon="6.63612">
        <ele>116.2</ele>
        <time>2023-11-05T09:26:48Z</time>
      </trkpt>
      <trkpt lat="43.51155" lon="6.63611">
        <ele>116.4</ele>
        <time>2023-11-05T09:26:49Z</time>
      </trkpt>
      <trkpt lat="43.51155" lon="6.63609">
        <ele>116.5</ele>
        <time>2023-11-05T09:26:50Z</time>
      </trkpt>
      <trkpt lat="43.51156" lon="6.63608">
        <ele>116.7</ele>
        <time>2023-11-05T09:26:51Z</time>
      </trkpt>
      <trkpt lat="43.51155" lon="6.63607">
        <ele>116.8</ele>
        <time>2023-11-05T09:26:52Z</time>
      </trkpt>
      <trkpt lat="43.51156" lon="6.63606">
        <ele>117</ele>
        <time>2023-11-05T09:26:53Z</time>
      </trkpt>
      <trkpt lat="43.51156" lon="6.63605">
        <ele>117.1</ele>
        <time>2023-11-05T09:26:54Z</time>
      </trkpt>
      <trkpt lat="43.51157" lon="6.63605">
        <ele>117.6</ele>
        <time>2023-11-05T09:26:55Z</time>
      </trkpt>
      <trkpt lat="43.51157" lon="6.63603">
        <ele>117.8</ele>
        <time>2023-11-05T09:26:56Z</time>
      </trkpt>
      <trkpt lat="43.51157" lon="6.63602">
        <ele>117.9</ele>
        <time>2023-11-05T09:26:57Z</time>
      </trkpt>
      <trkpt lat="43.51157" lon="6.63601">
        <ele>117.9</ele>
        <time>2023-11-05T09:26:58Z</time>
      </trkpt>
      <trkpt lat="43.51157" lon="6.636">
        <ele>118</ele>
        <time>2023-11-05T09:26:59Z</time>
      </trkpt>
      <trkpt lat="43.51158" lon="6.63599">
        <ele>118.1</ele>
        <time>2023-11-05T09:27:00Z</time>
      </trkpt>
      <trkpt lat="43.51157" lon="6.63597">
        <ele>118.2</ele>
        <time>2023-11-05T09:27:01Z</time>
      </trkpt>
      <trkpt lat="43.51156" lon="6.63596">
        <ele>118.2</ele>
        <time>2023-11-05T09:27:02Z</time>
      </trkpt>
      <trkpt lat="43.51156" lon="6.63595">
        <ele>118.2</ele>
        <time>2023-11-05T09:27:03Z</time>
      </trkpt>
      <trkpt lat="43.51155" lon="6.63594">
        <ele>118.4</ele>
        <time>2023-11-05T09:27:04Z</time>
      </trkpt>
      <trkpt lat="43.51155" lon="6.63593">
        <ele>118.4</ele>
        <time>2023-11-05T09:27:05Z</time>
      </trkpt>
      <trkpt lat="43.51155" lon="6.63592">
        <ele>118.5</ele>
        <time>2023-11-05T09:27:06Z</time>
      </trkpt>
      <trkpt lat="43.51155" lon="6.63591">
        <ele>118.6</ele>
        <time>2023-11-05T09:27:07Z</time>
      </trkpt>
      <trkpt lat="43.51155" lon="6.6359">
        <ele>118.8</ele>
        <time>2023-11-05T09:27:08Z</time>
      </trkpt>
      <trkpt lat="43.51155" lon="6.63589">
        <ele>119</ele>
        <time>2023-11-05T09:27:09Z</time>
      </trkpt>
      <trkpt lat="43.51155" lon="6.63587">
        <ele>119.1</ele>
        <time>2023-11-05T09:27:10Z</time>
      </trkpt>
      <trkpt lat="43.51154" lon="6.63586">
        <ele>119.2</ele>
        <time>2023-11-05T09:27:11Z</time>
      </trkpt>
      <trkpt lat="43.51154" lon="6.63585">
        <ele>119.3</ele>
        <time>2023-11-05T09:27:12Z</time>
      </trkpt>
      <trkpt lat="43.51152" lon="6.63585">
        <ele>119.4</ele>
        <time>2023-11-05T09:27:13Z</time>
      </trkpt>
      <trkpt lat="43.51151" lon="6.63585">
        <ele>119.6</ele>
        <time>2023-11-05T09:27:14Z</time>
      </trkpt>
      <trkpt lat="43.5115" lon="6.63585">
        <ele>119.7</ele>
        <time>2023-11-05T09:27:15Z</time>
      </trkpt>
      <trkpt lat="43.51149" lon="6.63585">
        <ele>119.9</ele>
        <time>2023-11-05T09:27:16Z</time>
      </trkpt>
      <trkpt lat="43.51148" lon="6.63585">
        <ele>120.1</ele>
        <time>2023-11-05T09:27:17Z</time>
      </trkpt>
      <trkpt lat="43.51147" lon="6.63585">
        <ele>120.2</ele>
        <time>2023-11-05T09:27:18Z</time>
      </trkpt>
      <trkpt lat="43.51147" lon="6.63585">
        <ele>120.4</ele>
        <time>2023-11-05T09:27:19Z</time>
      </trkpt>
      <trkpt lat="43.51146" lon="6.63585">
        <ele>120.5</ele>
        <time>2023-11-05T09:27:20Z</time>
      </trkpt>
      <trkpt lat="43.51145" lon="6.63584">
        <ele>120.6</ele>
        <time>2023-11-05T09:27:21Z</time>
      </trkpt>
      <trkpt lat="43.51144" lon="6.63585">
        <ele>120.7</ele>
        <time>2023-11-05T09:27:22Z</time>
      </trkpt>
      <trkpt lat="43.51144" lon="6.63584">
        <ele>120.9</ele>
        <time>2023-11-05T09:27:23Z</time>
      </trkpt>
      <trkpt lat="43.51143" lon="6.63584">
        <ele>121.2</ele>
        <time>2023-11-05T09:27:24Z</time>
      </trkpt>
      <trkpt lat="43.51143" lon="6.63584">
        <ele>121.3</ele>
        <time>2023-11-05T09:27:25Z</time>
      </trkpt>
      <trkpt lat="43.51142" lon="6.63584">
        <ele>121.5</ele>
        <time>2023-11-05T09:27:26Z</time>
      </trkpt>
      <trkpt lat="43.51142" lon="6.63584">
        <ele>121.7</ele>
        <time>2023-11-05T09:27:27Z</time>
      </trkpt>
      <trkpt lat="43.51142" lon="6.63584">
        <ele>121.9</ele>
        <time>2023-11-05T09:27:28Z</time>
      </trkpt>
      <trkpt lat="43.51142" lon="6.63584">
        <ele>121.8</ele>
        <time>2023-11-05T09:27:29Z</time>
      </trkpt>
      <trkpt lat="43.51141" lon="6.63584">
        <ele>122</ele>
        <time>2023-11-05T09:27:30Z</time>
      </trkpt>
      <trkpt lat="43.51141" lon="6.63584">
        <ele>122.1</ele>
        <time>2023-11-05T09:27:31Z</time>
      </trkpt>
      <trkpt lat="43.51141" lon="6.63584">
        <ele>122.2</ele>
        <time>2023-11-05T09:27:32Z</time>
      </trkpt>
      <trkpt lat="43.51141" lon="6.63583">
        <ele>122.2</ele>
        <time>2023-11-05T09:27:33Z</time>
      </trkpt>
      <trkpt lat="43.51141" lon="6.63583">
        <ele>122.2</ele>
        <time>2023-11-05T09:27:34Z</time>
      </trkpt>
      <trkpt lat="43.51141" lon="6.63583">
        <ele>122.2</ele>
        <time>2023-11-05T09:27:35Z</time>
      </trkpt>
      <trkpt lat="43.51141" lon="6.63583">
        <ele>122.3</ele>
        <time>2023-11-05T09:27:36Z</time>
      </trkpt>
      <trkpt lat="43.51141" lon="6.63583">
        <ele>122.3</ele>
        <time>2023-11-05T09:27:37Z</time>
      </trkpt>
      <trkpt lat="43.51141" lon="6.63583">
        <ele>122.3</ele>
        <time>2023-11-05T09:27:38Z</time>
      </trkpt>
      <trkpt lat="43.51141" lon="6.63583">
        <ele>122.3</ele>
        <time>2023-11-05T09:27:39Z</time>
      </trkpt>
      <trkpt lat="43.51141" lon="6.63583">
        <ele>122.3</ele>
        <time>2023-11-05T09:27:40Z</time>
      </trkpt>
      <trkpt lat="43.51141" lon="6.63583">
        <ele>122.2</ele>
        <time>2023-11-05T09:27:41Z</time>
      </trkpt>
      <trkpt lat="43.51141" lon="6.63583">
        <ele>122.1</ele>
        <time>2023-11-05T09:27:42Z</time>
      </trkpt>
      <trkpt lat="43.51141" lon="6.63583">
        <ele>122.1</ele>
        <time>2023-11-05T09:27:43Z</time>
      </trkpt>
      <trkpt lat="43.51141" lon="6.63583">
        <ele>122</ele>
        <time>2023-11-05T09:27:44Z</time>
      </trkpt>
      <trkpt lat="43.51141" lon="6.63583">
        <ele>121.9</ele>
        <time>2023-11-05T09:27:45Z</time>
      </trkpt>
      <trkpt lat="43.5114" lon="6.63583">
        <ele>121.9</ele>
        <time>2023-11-05T09:27:46Z</time>
      </trkpt>
      <trkpt lat="43.5114" lon="6.63583">
        <ele>121.9</ele>
        <time>2023-11-05T09:27:47Z</time>
      </trkpt>
      <trkpt lat="43.5114" lon="6.63583">
        <ele>121.9</ele>
        <time>2023-11-05T09:27:48Z</time>
      </trkpt>
      <trkpt lat="43.5114" lon="6.63583">
        <ele>121.8</ele>
        <time>2023-11-05T09:27:49Z</time>
      </trkpt>
      <trkpt lat="43.5114" lon="6.63583">
        <ele>121.9</ele>
        <time>2023-11-05T09:27:50Z</time>
      </trkpt>
      <trkpt lat="43.5114" lon="6.63583">
        <ele>121.9</ele>
        <time>2023-11-05T09:27:51Z</time>
      </trkpt>
      <trkpt lat="43.5114" lon="6.63583">
        <ele>121.8</ele>
        <time>2023-11-05T09:27:52Z</time>
      </trkpt>
      <trkpt lat="43.5114" lon="6.63583">
        <ele>121.8</ele>
        <time>2023-11-05T09:27:53Z</time>
      </trkpt>
      <trkpt lat="43.5114" lon="6.63583">
        <ele>121.8</ele>
        <time>2023-11-05T09:27:54Z</time>
      </trkpt>
      <trkpt lat="43.5114" lon="6.63583">
        <ele>121.9</ele>
        <time>2023-11-05T09:27:55Z</time>
      </trkpt>
      <trkpt lat="43.5114" lon="6.63583">
        <ele>121.9</ele>
        <time>2023-11-05T09:27:56Z</time>
      </trkpt>
      <trkpt lat="43.5114" lon="6.63583">
        <ele>121.9</ele>
        <time>2023-11-05T09:27:57Z</time>
      </trkpt>
      <trkpt lat="43.5114" lon="6.63583">
        <ele>121.8</ele>
        <time>2023-11-05T09:27:58Z</time>
      </trkpt>
      <trkpt lat="43.5114" lon="6.63583">
        <ele>121.8</ele>
        <time>2023-11-05T09:27:59Z</time>
      </trkpt>
      <trkpt lat="43.5114" lon="6.63582">
        <ele>121.8</ele>
        <time>2023-11-05T09:28:00Z</time>
      </trkpt>
      <trkpt lat="43.5114" lon="6.63581">
        <ele>121.9</ele>
        <time>2023-11-05T09:28:01Z</time>
      </trkpt>
      <trkpt lat="43.51139" lon="6.63581">
        <ele>122.1</ele>
        <time>2023-11-05T09:28:02Z</time>
      </trkpt>
      <trkpt lat="43.51138" lon="6.6358">
        <ele>122.1</ele>
        <time>2023-11-05T09:28:03Z</time>
      </trkpt>
      <trkpt lat="43.51138" lon="6.63579">
        <ele>122.8</ele>
        <time>2023-11-05T09:28:04Z</time>
      </trkpt>
      <trkpt lat="43.51137" lon="6.63577">
        <ele>122.9</ele>
        <time>2023-11-05T09:28:05Z</time>
      </trkpt>
      <trkpt lat="43.51137" lon="6.63576">
        <ele>123.1</ele>
        <time>2023-11-05T09:28:06Z</time>
      </trkpt>
      <trkpt lat="43.51136" lon="6.63575">
        <ele>123.2</ele>
        <time>2023-11-05T09:28:07Z</time>
      </trkpt>
      <trkpt lat="43.51135" lon="6.63574">
        <ele>123.5</ele>
        <time>2023-11-05T09:28:08Z</time>
      </trkpt>
      <trkpt lat="43.51135" lon="6.63574">
        <ele>123.7</ele>
        <time>2023-11-05T09:28:09Z</time>
      </trkpt>
      <trkpt lat="43.51134" lon="6.63573">
        <ele>124.1</ele>
        <time>2023-11-05T09:28:10Z</time>
      </trkpt>
      <trkpt lat="43.51134" lon="6.63573">
        <ele>124.3</ele>
        <time>2023-11-05T09:28:11Z</time>
      </trkpt>
      <trkpt lat="43.51133" lon="6.63572">
        <ele>124.6</ele>
        <time>2023-11-05T09:28:12Z</time>
      </trkpt>
      <trkpt lat="43.51132" lon="6.63571">
        <ele>124.8</ele>
        <time>2023-11-05T09:28:13Z</time>
      </trkpt>
      <trkpt lat="43.51132" lon="6.6357">
        <ele>125</ele>
        <time>2023-11-05T09:28:14Z</time>
      </trkpt>
      <trkpt lat="43.51131" lon="6.63569">
        <ele>125.4</ele>
        <time>2023-11-05T09:28:15Z</time>
      </trkpt>
      <trkpt lat="43.51131" lon="6.63568">
        <ele>125.7</ele>
        <time>2023-11-05T09:28:16Z</time>
      </trkpt>
      <trkpt lat="43.5113" lon="6.63567">
        <ele>125.9</ele>
        <time>2023-11-05T09:28:17Z</time>
      </trkpt>
      <trkpt lat="43.5113" lon="6.63566">
        <ele>126.2</ele>
        <time>2023-11-05T09:28:18Z</time>
      </trkpt>
      <trkpt lat="43.5113" lon="6.63564">
        <ele>126.3</ele>
        <time>2023-11-05T09:28:19Z</time>
      </trkpt>
      <trkpt lat="43.5113" lon="6.63563">
        <ele>126.5</ele>
        <time>2023-11-05T09:28:20Z</time>
      </trkpt>
      <trkpt lat="43.5113" lon="6.63562">
        <ele>126.9</ele>
        <time>2023-11-05T09:28:21Z</time>
      </trkpt>
      <trkpt lat="43.5113" lon="6.63561">
        <ele>127.2</ele>
        <time>2023-11-05T09:28:22Z</time>
      </trkpt>
      <trkpt lat="43.5113" lon="6.63559">
        <ele>127.4</ele>
        <time>2023-11-05T09:28:23Z</time>
      </trkpt>
      <trkpt lat="43.5113" lon="6.63558">
        <ele>127.5</ele>
        <time>2023-11-05T09:28:24Z</time>
      </trkpt>
      <trkpt lat="43.51129" lon="6.63557">
        <ele>127.7</ele>
        <time>2023-11-05T09:28:25Z</time>
      </trkpt>
      <trkpt lat="43.51129" lon="6.63555">
        <ele>127.8</ele>
        <time>2023-11-05T09:28:26Z</time>
      </trkpt>
      <trkpt lat="43.51128" lon="6.63554">
        <ele>127.8</ele>
        <time>2023-11-05T09:28:27Z</time>
      </trkpt>
      <trkpt lat="43.51128" lon="6.63554">
        <ele>127.7</ele>
        <time>2023-11-05T09:28:28Z</time>
      </trkpt>
      <trkpt lat="43.51127" lon="6.63552">
        <ele>127.9</ele>
        <time>2023-11-05T09:28:29Z</time>
      </trkpt>
      <trkpt lat="43.51126" lon="6.63551">
        <ele>128.1</ele>
        <time>2023-11-05T09:28:30Z</time>
      </trkpt>
      <trkpt lat="43.51126" lon="6.6355">
        <ele>128.2</ele>
        <time>2023-11-05T09:28:31Z</time>
      </trkpt>
      <trkpt lat="43.51126" lon="6.63549">
        <ele>128.2</ele>
        <time>2023-11-05T09:28:32Z</time>
      </trkpt>
      <trkpt lat="43.51125" lon="6.63548">
        <ele>128.3</ele>
        <time>2023-11-05T09:28:33Z</time>
      </trkpt>
      <trkpt lat="43.51124" lon="6.63547">
        <ele>128.3</ele>
        <time>2023-11-05T09:28:34Z</time>
      </trkpt>
      <trkpt lat="43.51124" lon="6.63547">
        <ele>128.4</ele>
        <time>2023-11-05T09:28:35Z</time>
      </trkpt>
      <trkpt lat="43.51124" lon="6.63547">
        <ele>128.5</ele>
        <time>2023-11-05T09:28:36Z</time>
      </trkpt>
      <trkpt lat="43.51124" lon="6.63546">
        <ele>128.5</ele>
        <time>2023-11-05T09:28:37Z</time>
      </trkpt>
      <trkpt lat="43.51123" lon="6.63546">
        <ele>128.5</ele>
        <time>2023-11-05T09:28:38Z</time>
      </trkpt>
      <trkpt lat="43.51123" lon="6.63545">
        <ele>128.6</ele>
        <time>2023-11-05T09:28:39Z</time>
      </trkpt>
      <trkpt lat="43.51122" lon="6.63544">
        <ele>128.7</ele>
        <time>2023-11-05T09:28:40Z</time>
      </trkpt>
      <trkpt lat="43.51121" lon="6.63544">
        <ele>128.8</ele>
        <time>2023-11-05T09:28:41Z</time>
      </trkpt>
      <trkpt lat="43.51121" lon="6.63543">
        <ele>129.2</ele>
        <time>2023-11-05T09:28:42Z</time>
      </trkpt>
      <trkpt lat="43.5112" lon="6.63542">
        <ele>129.3</ele>
        <time>2023-11-05T09:28:43Z</time>
      </trkpt>
      <trkpt lat="43.5112" lon="6.63542">
        <ele>129.7</ele>
        <time>2023-11-05T09:28:44Z</time>
      </trkpt>
      <trkpt lat="43.51119" lon="6.63541">
        <ele>129.9</ele>
        <time>2023-11-05T09:28:45Z</time>
      </trkpt>
      <trkpt lat="43.51119" lon="6.6354">
        <ele>130.1</ele>
        <time>2023-11-05T09:28:46Z</time>
      </trkpt>
      <trkpt lat="43.51119" lon="6.63538">
        <ele>130.3</ele>
        <time>2023-11-05T09:28:47Z</time>
      </trkpt>
      <trkpt lat="43.51118" lon="6.63537">
        <ele>130.2</ele>
        <time>2023-11-05T09:28:48Z</time>
      </trkpt>
      <trkpt lat="43.51118" lon="6.63536">
        <ele>130.4</ele>
        <time>2023-11-05T09:28:49Z</time>
      </trkpt>
      <trkpt lat="43.51118" lon="6.63535">
        <ele>130.6</ele>
        <time>2023-11-05T09:28:50Z</time>
      </trkpt>
      <trkpt lat="43.51118" lon="6.63533">
        <ele>130.6</ele>
        <time>2023-11-05T09:28:51Z</time>
      </trkpt>
      <trkpt lat="43.51118" lon="6.63532">
        <ele>130.8</ele>
        <time>2023-11-05T09:28:52Z</time>
      </trkpt>
      <trkpt lat="43.51118" lon="6.63531">
        <ele>131.4</ele>
        <time>2023-11-05T09:28:53Z</time>
      </trkpt>
      <trkpt lat="43.51118" lon="6.6353">
        <ele>131.7</ele>
        <time>2023-11-05T09:28:54Z</time>
      </trkpt>
      <trkpt lat="43.51119" lon="6.63528">
        <ele>131.9</ele>
        <time>2023-11-05T09:28:55Z</time>
      </trkpt>
      <trkpt lat="43.51119" lon="6.63527">
        <ele>131.8</ele>
        <time>2023-11-05T09:28:56Z</time>
      </trkpt>
      <trkpt lat="43.51119" lon="6.63525">
        <ele>131.8</ele>
        <time>2023-11-05T09:28:57Z</time>
      </trkpt>
      <trkpt lat="43.5112" lon="6.63524">
        <ele>131.7</ele>
        <time>2023-11-05T09:28:58Z</time>
      </trkpt>
      <trkpt lat="43.5112" lon="6.63522">
        <ele>131.6</ele>
        <time>2023-11-05T09:28:59Z</time>
      </trkpt>
      <trkpt lat="43.5112" lon="6.63521">
        <ele>131.5</ele>
        <time>2023-11-05T09:29:00Z</time>
      </trkpt>
      <trkpt lat="43.5112" lon="6.63519">
        <ele>131.4</ele>
        <time>2023-11-05T09:29:01Z</time>
      </trkpt>
      <trkpt lat="43.51119" lon="6.63518">
        <ele>131.3</ele>
        <time>2023-11-05T09:29:02Z</time>
      </trkpt>
      <trkpt lat="43.5112" lon="6.63517">
        <ele>131.1</ele>
        <time>2023-11-05T09:29:03Z</time>
      </trkpt>
      <trkpt lat="43.51121" lon="6.63516">
        <ele>131.1</ele>
        <time>2023-11-05T09:29:04Z</time>
      </trkpt>
      <trkpt lat="43.51121" lon="6.63515">
        <ele>131.1</ele>
        <time>2023-11-05T09:29:05Z</time>
      </trkpt>
      <trkpt lat="43.51122" lon="6.63513">
        <ele>130.9</ele>
        <time>2023-11-05T09:29:06Z</time>
      </trkpt>
      <trkpt lat="43.51123" lon="6.63511">
        <ele>130.8</ele>
        <time>2023-11-05T09:29:07Z</time>
      </trkpt>
      <trkpt lat="43.51123" lon="6.6351">
        <ele>130.7</ele>
        <time>2023-11-05T09:29:08Z</time>
      </trkpt>
      <trkpt lat="43.51123" lon="6.63509">
        <ele>130.2</ele>
        <time>2023-11-05T09:29:09Z</time>
      </trkpt>
      <trkpt lat="43.51122" lon="6.63507">
        <ele>129.7</ele>
        <time>2023-11-05T09:29:10Z</time>
      </trkpt>
      <trkpt lat="43.51122" lon="6.63506">
        <ele>129.3</ele>
        <time>2023-11-05T09:29:11Z</time>
      </trkpt>
      <trkpt lat="43.51122" lon="6.63505">
        <ele>129</ele>
        <time>2023-11-05T09:29:12Z</time>
      </trkpt>
      <trkpt lat="43.51121" lon="6.63504">
        <ele>128.6</ele>
        <time>2023-11-05T09:29:13Z</time>
      </trkpt>
      <trkpt lat="43.5112" lon="6.63504">
        <ele>128.2</ele>
        <time>2023-11-05T09:29:14Z</time>
      </trkpt>
      <trkpt lat="43.51119" lon="6.63504">
        <ele>127.9</ele>
        <time>2023-11-05T09:29:15Z</time>
      </trkpt>
      <trkpt lat="43.51119" lon="6.63505">
        <ele>128.1</ele>
        <time>2023-11-05T09:29:16Z</time>
      </trkpt>
      <trkpt lat="43.51119" lon="6.63505">
        <ele>128.3</ele>
        <time>2023-11-05T09:29:17Z</time>
      </trkpt>
      <trkpt lat="43.51119" lon="6.63505">
        <ele>128.3</ele>
        <time>2023-11-05T09:29:18Z</time>
      </trkpt>
      <trkpt lat="43.51119" lon="6.63505">
        <ele>128.4</ele>
        <time>2023-11-05T09:29:19Z</time>
      </trkpt>
      <trkpt lat="43.51119" lon="6.63504">
        <ele>128.4</ele>
        <time>2023-11-05T09:29:20Z</time>
      </trkpt>
      <trkpt lat="43.51118" lon="6.63504">
        <ele>128.3</ele>
        <time>2023-11-05T09:29:21Z</time>
      </trkpt>
      <trkpt lat="43.51118" lon="6.63504">
        <ele>128.3</ele>
        <time>2023-11-05T09:29:22Z</time>
      </trkpt>
      <trkpt lat="43.51118" lon="6.63504">
        <ele>128.2</ele>
        <time>2023-11-05T09:29:23Z</time>
      </trkpt>
      <trkpt lat="43.51118" lon="6.63504">
        <ele>128.4</ele>
        <time>2023-11-05T09:29:24Z</time>
      </trkpt>
      <trkpt lat="43.51118" lon="6.63504">
        <ele>128.5</ele>
        <time>2023-11-05T09:29:25Z</time>
      </trkpt>
      <trkpt lat="43.51118" lon="6.63504">
        <ele>128.5</ele>
        <time>2023-11-05T09:29:26Z</time>
      </trkpt>
      <trkpt lat="43.51118" lon="6.63504">
        <ele>128.5</ele>
        <time>2023-11-05T09:29:27Z</time>
      </trkpt>
      <trkpt lat="43.51118" lon="6.63505">
        <ele>128.4</ele>
        <time>2023-11-05T09:29:28Z</time>
      </trkpt>
      <trkpt lat="43.51118" lon="6.63505">
        <ele>128.2</ele>
        <time>2023-11-05T09:29:29Z</time>
      </trkpt>
      <trkpt lat="43.51117" lon="6.63505">
        <ele>128.2</ele>
        <time>2023-11-05T09:29:30Z</time>
      </trkpt>
      <trkpt lat="43.51117" lon="6.63505">
        <ele>128.2</ele>
        <time>2023-11-05T09:29:31Z</time>
      </trkpt>
      <trkpt lat="43.51117" lon="6.63505">
        <ele>128.3</ele>
        <time>2023-11-05T09:29:32Z</time>
      </trkpt>
      <trkpt lat="43.51117" lon="6.63505">
        <ele>128.3</ele>
        <time>2023-11-05T09:29:33Z</time>
      </trkpt>
      <trkpt lat="43.51116" lon="6.63505">
        <ele>128.3</ele>
        <time>2023-11-05T09:29:34Z</time>
      </trkpt>
      <trkpt lat="43.51117" lon="6.63505">
        <ele>128.2</ele>
        <time>2023-11-05T09:29:35Z</time>
      </trkpt>
      <trkpt lat="43.51116" lon="6.63505">
        <ele>128.2</ele>
        <time>2023-11-05T09:29:36Z</time>
      </trkpt>
      <trkpt lat="43.51116" lon="6.63505">
        <ele>128.2</ele>
        <time>2023-11-05T09:29:37Z</time>
      </trkpt>
      <trkpt lat="43.51116" lon="6.63505">
        <ele>128.4</ele>
        <time>2023-11-05T09:29:38Z</time>
      </trkpt>
      <trkpt lat="43.51116" lon="6.63505">
        <ele>128.5</ele>
        <time>2023-11-05T09:29:39Z</time>
      </trkpt>
      <trkpt lat="43.51116" lon="6.63505">
        <ele>128.6</ele>
        <time>2023-11-05T09:29:40Z</time>
      </trkpt>
      <trkpt lat="43.51116" lon="6.63505">
        <ele>128.7</ele>
        <time>2023-11-05T09:29:41Z</time>
      </trkpt>
      <trkpt lat="43.51116" lon="6.63505">
        <ele>128.7</ele>
        <time>2023-11-05T09:29:42Z</time>
      </trkpt>
      <trkpt lat="43.51116" lon="6.63505">
        <ele>128.7</ele>
        <time>2023-11-05T09:29:43Z</time>
      </trkpt>
      <trkpt lat="43.51116" lon="6.63505">
        <ele>128.7</ele>
        <time>2023-11-05T09:29:44Z</time>
      </trkpt>
      <trkpt lat="43.51115" lon="6.63505">
        <ele>128.7</ele>
        <time>2023-11-05T09:29:45Z</time>
      </trkpt>
      <trkpt lat="43.51115" lon="6.63505">
        <ele>128.5</ele>
        <time>2023-11-05T09:29:46Z</time>
      </trkpt>
      <trkpt lat="43.51115" lon="6.63505">
        <ele>128.4</ele>
        <time>2023-11-05T09:29:47Z</time>
      </trkpt>
      <trkpt lat="43.51115" lon="6.63505">
        <ele>128.4</ele>
        <time>2023-11-05T09:29:48Z</time>
      </trkpt>
      <trkpt lat="43.51115" lon="6.63505">
        <ele>128.3</ele>
        <time>2023-11-05T09:29:49Z</time>
      </trkpt>
      <trkpt lat="43.51115" lon="6.63505">
        <ele>128.2</ele>
        <time>2023-11-05T09:29:50Z</time>
      </trkpt>
      <trkpt lat="43.51115" lon="6.63505">
        <ele>128.2</ele>
        <time>2023-11-05T09:29:51Z</time>
      </trkpt>
      <trkpt lat="43.51115" lon="6.63505">
        <ele>128.1</ele>
        <time>2023-11-05T09:29:52Z</time>
      </trkpt>
      <trkpt lat="43.51115" lon="6.63505">
        <ele>128.1</ele>
        <time>2023-11-05T09:29:53Z</time>
      </trkpt>
      <trkpt lat="43.51115" lon="6.63505">
        <ele>128.1</ele>
        <time>2023-11-05T09:29:54Z</time>
      </trkpt>
      <trkpt lat="43.51115" lon="6.63505">
        <ele>128.1</ele>
        <time>2023-11-05T09:29:55Z</time>
      </trkpt>
      <trkpt lat="43.51114" lon="6.63505">
        <ele>128.2</ele>
        <time>2023-11-05T09:29:56Z</time>
      </trkpt>
      <trkpt lat="43.51114" lon="6.63505">
        <ele>128.3</ele>
        <time>2023-11-05T09:29:57Z</time>
      </trkpt>
      <trkpt lat="43.51114" lon="6.63505">
        <ele>128.3</ele>
        <time>2023-11-05T09:29:58Z</time>
      </trkpt>
      <trkpt lat="43.51114" lon="6.63505">
        <ele>128.4</ele>
        <time>2023-11-05T09:29:59Z</time>
      </trkpt>
      <trkpt lat="43.51114" lon="6.63505">
        <ele>128.2</ele>
        <time>2023-11-05T09:30:00Z</time>
      </trkpt>
      <trkpt lat="43.51114" lon="6.63506">
        <ele>128</ele>
        <time>2023-11-05T09:30:01Z</time>
      </trkpt>
      <trkpt lat="43.51114" lon="6.63506">
        <ele>127.8</ele>
        <time>2023-11-05T09:30:02Z</time>
      </trkpt>
      <trkpt lat="43.51114" lon="6.63506">
        <ele>127.8</ele>
        <time>2023-11-05T09:30:03Z</time>
      </trkpt>
      <trkpt lat="43.51114" lon="6.63506">
        <ele>128</ele>
        <time>2023-11-05T09:30:04Z</time>
      </trkpt>
      <trkpt lat="43.51114" lon="6.63505">
        <ele>128.1</ele>
        <time>2023-11-05T09:30:05Z</time>
      </trkpt>
      <trkpt lat="43.51114" lon="6.63505">
        <ele>128</ele>
        <time>2023-11-05T09:30:06Z</time>
      </trkpt>
      <trkpt lat="43.51114" lon="6.63505">
        <ele>127.9</ele>
        <time>2023-11-05T09:30:07Z</time>
      </trkpt>
      <trkpt lat="43.51114" lon="6.63505">
        <ele>127.7</ele>
        <time>2023-11-05T09:30:08Z</time>
      </trkpt>
      <trkpt lat="43.51114" lon="6.63505">
        <ele>127.6</ele>
        <time>2023-11-05T09:30:09Z</time>
      </trkpt>
      <trkpt lat="43.51114" lon="6.63505">
        <ele>127.5</ele>
        <time>2023-11-05T09:30:10Z</time>
      </trkpt>
      <trkpt lat="43.51114" lon="6.63505">
        <ele>127.7</ele>
        <time>2023-11-05T09:30:11Z</time>
      </trkpt>
      <trkpt lat="43.51114" lon="6.63505">
        <ele>127.6</ele>
        <time>2023-11-05T09:30:12Z</time>
      </trkpt>
      <trkpt lat="43.51114" lon="6.63505">
        <ele>127.7</ele>
        <time>2023-11-05T09:30:13Z</time>
      </trkpt>
      <trkpt lat="43.51114" lon="6.63505">
        <ele>127.9</ele>
        <time>2023-11-05T09:30:14Z</time>
      </trkpt>
      <trkpt lat="43.51114" lon="6.63506">
        <ele>128.1</ele>
        <time>2023-11-05T09:30:15Z</time>
      </trkpt>
      <trkpt lat="43.51115" lon="6.63506">
        <ele>128.2</ele>
        <time>2023-11-05T09:30:16Z</time>
      </trkpt>
      <trkpt lat="43.51115" lon="6.63506">
        <ele>128.1</ele>
        <time>2023-11-05T09:30:17Z</time>
      </trkpt>
      <trkpt lat="43.51115" lon="6.63506">
        <ele>127.9</ele>
        <time>2023-11-05T09:30:18Z</time>
      </trkpt>
      <trkpt lat="43.51115" lon="6.63506">
        <ele>127.9</ele>
        <time>2023-11-05T09:30:19Z</time>
      </trkpt>
      <trkpt lat="43.51115" lon="6.63506">
        <ele>127.8</ele>
        <time>2023-11-05T09:30:20Z</time>
      </trkpt>
      <trkpt lat="43.51115" lon="6.63506">
        <ele>127.7</ele>
        <time>2023-11-05T09:30:21Z</time>
      </trkpt>
      <trkpt lat="43.51115" lon="6.63506">
        <ele>127.6</ele>
        <time>2023-11-05T09:30:22Z</time>
      </trkpt>
      <trkpt lat="43.51115" lon="6.63506">
        <ele>127.5</ele>
        <time>2023-11-05T09:30:23Z</time>
      </trkpt>
      <trkpt lat="43.51115" lon="6.63506">
        <ele>127.4</ele>
        <time>2023-11-05T09:30:24Z</time>
      </trkpt>
      <trkpt lat="43.51115" lon="6.63506">
        <ele>127.4</ele>
        <time>2023-11-05T09:30:25Z</time>
      </trkpt>
      <trkpt lat="43.51115" lon="6.63506">
        <ele>127.3</ele>
        <time>2023-11-05T09:30:26Z</time>
      </trkpt>
      <trkpt lat="43.51115" lon="6.63506">
        <ele>127.3</ele>
        <time>2023-11-05T09:30:27Z</time>
      </trkpt>
      <trkpt lat="43.51115" lon="6.63506">
        <ele>127.2</ele>
        <time>2023-11-05T09:30:28Z</time>
      </trkpt>
      <trkpt lat="43.51115" lon="6.63506">
        <ele>127.2</ele>
        <time>2023-11-05T09:30:29Z</time>
      </trkpt>
      <trkpt lat="43.51115" lon="6.63506">
        <ele>127.3</ele>
        <time>2023-11-05T09:30:30Z</time>
      </trkpt>
      <trkpt lat="43.51115" lon="6.63506">
        <ele>127.2</ele>
        <time>2023-11-05T09:30:31Z</time>
      </trkpt>
      <trkpt lat="43.51115" lon="6.63506">
        <ele>127.1</ele>
        <time>2023-11-05T09:30:32Z</time>
      </trkpt>
      <trkpt lat="43.51115" lon="6.63506">
        <ele>127.1</ele>
        <time>2023-11-05T09:30:33Z</time>
      </trkpt>
      <trkpt lat="43.51115" lon="6.63506">
        <ele>127.1</ele>
        <time>2023-11-05T09:30:34Z</time>
      </trkpt>
      <trkpt lat="43.51115" lon="6.63506">
        <ele>127.1</ele>
        <time>2023-11-05T09:30:35Z</time>
      </trkpt>
      <trkpt lat="43.51115" lon="6.63506">
        <ele>127.1</ele>
        <time>2023-11-05T09:30:36Z</time>
      </trkpt>
      <trkpt lat="43.51115" lon="6.63506">
        <ele>127.2</ele>
        <time>2023-11-05T09:30:37Z</time>
      </trkpt>
      <trkpt lat="43.51115" lon="6.63506">
        <ele>127.3</ele>
        <time>2023-11-05T09:30:38Z</time>
      </trkpt>
      <trkpt lat="43.51115" lon="6.63506">
        <ele>127.4</ele>
        <time>2023-11-05T09:30:39Z</time>
      </trkpt>
      <trkpt lat="43.51115" lon="6.63506">
        <ele>127.4</ele>
        <time>2023-11-05T09:30:40Z</time>
      </trkpt>
      <trkpt lat="43.51115" lon="6.63506">
        <ele>127.6</ele>
        <time>2023-11-05T09:30:41Z</time>
      </trkpt>
      <trkpt lat="43.51115" lon="6.63506">
        <ele>127.6</ele>
        <time>2023-11-05T09:30:42Z</time>
      </trkpt>
      <trkpt lat="43.51115" lon="6.63506">
        <ele>127.7</ele>
        <time>2023-11-05T09:30:43Z</time>
      </trkpt>
      <trkpt lat="43.51115" lon="6.63506">
        <ele>127.7</ele>
        <time>2023-11-05T09:30:44Z</time>
      </trkpt>
      <trkpt lat="43.51115" lon="6.63506">
        <ele>127.7</ele>
        <time>2023-11-05T09:30:45Z</time>
      </trkpt>
      <trkpt lat="43.51115" lon="6.63506">
        <ele>127.8</ele>
        <time>2023-11-05T09:30:46Z</time>
      </trkpt>
      <trkpt lat="43.51115" lon="6.63506">
        <ele>127.7</ele>
        <time>2023-11-05T09:30:47Z</time>
      </trkpt>
      <trkpt lat="43.51115" lon="6.63506">
        <ele>127.7</ele>
        <time>2023-11-05T09:30:48Z</time>
      </trkpt>
      <trkpt lat="43.51115" lon="6.63506">
        <ele>127.7</ele>
        <time>2023-11-05T09:30:49Z</time>
      </trkpt>
      <trkpt lat="43.51115" lon="6.63506">
        <ele>127.7</ele>
        <time>2023-11-05T09:30:50Z</time>
      </trkpt>
      <trkpt lat="43.51115" lon="6.63506">
        <ele>127.8</ele>
        <time>2023-11-05T09:30:51Z</time>
      </trkpt>
      <trkpt lat="43.51116" lon="6.63507">
        <ele>127.8</ele>
        <time>2023-11-05T09:30:52Z</time>
      </trkpt>
      <trkpt lat="43.51116" lon="6.63507">
        <ele>127.7</ele>
        <time>2023-11-05T09:30:53Z</time>
      </trkpt>
      <trkpt lat="43.51116" lon="6.63507">
        <ele>127.7</ele>
        <time>2023-11-05T09:30:54Z</time>
      </trkpt>
      <trkpt lat="43.51116" lon="6.63507">
        <ele>127.7</ele>
        <time>2023-11-05T09:30:55Z</time>
      </trkpt>
      <trkpt lat="43.51116" lon="6.63507">
        <ele>127.8</ele>
        <time>2023-11-05T09:30:56Z</time>
      </trkpt>
      <trkpt lat="43.51116" lon="6.63507">
        <ele>127.9</ele>
        <time>2023-11-05T09:30:57Z</time>
      </trkpt>
      <trkpt lat="43.51116" lon="6.63507">
        <ele>127.8</ele>
        <time>2023-11-05T09:30:58Z</time>
      </trkpt>
      <trkpt lat="43.51116" lon="6.63507">
        <ele>127.9</ele>
        <time>2023-11-05T09:30:59Z</time>
      </trkpt>
      <trkpt lat="43.51116" lon="6.63507">
        <ele>128</ele>
        <time>2023-11-05T09:31:00Z</time>
      </trkpt>
      <trkpt lat="43.51116" lon="6.63507">
        <ele>128</ele>
        <time>2023-11-05T09:31:01Z</time>
      </trkpt>
      <trkpt lat="43.51116" lon="6.63507">
        <ele>127.9</ele>
        <time>2023-11-05T09:31:02Z</time>
      </trkpt>
      <trkpt lat="43.51116" lon="6.63507">
        <ele>127.9</ele>
        <time>2023-11-05T09:31:03Z</time>
      </trkpt>
      <trkpt lat="43.51117" lon="6.63507">
        <ele>127.8</ele>
        <time>2023-11-05T09:31:04Z</time>
      </trkpt>
      <trkpt lat="43.51117" lon="6.63507">
        <ele>127.8</ele>
        <time>2023-11-05T09:31:05Z</time>
      </trkpt>
      <trkpt lat="43.51117" lon="6.63507">
        <ele>127.7</ele>
        <time>2023-11-05T09:31:06Z</time>
      </trkpt>
      <trkpt lat="43.51117" lon="6.63507">
        <ele>127.7</ele>
        <time>2023-11-05T09:31:07Z</time>
      </trkpt>
      <trkpt lat="43.51117" lon="6.63507">
        <ele>127.7</ele>
        <time>2023-11-05T09:31:08Z</time>
      </trkpt>
      <trkpt lat="43.51117" lon="6.63507">
        <ele>127.7</ele>
        <time>2023-11-05T09:31:09Z</time>
      </trkpt>
      <trkpt lat="43.51117" lon="6.63507">
        <ele>127.7</ele>
        <time>2023-11-05T09:31:10Z</time>
      </trkpt>
      <trkpt lat="43.51117" lon="6.63507">
        <ele>127.7</ele>
        <time>2023-11-05T09:31:11Z</time>
      </trkpt>
      <trkpt lat="43.51117" lon="6.63507">
        <ele>127.8</ele>
        <time>2023-11-05T09:31:12Z</time>
      </trkpt>
      <trkpt lat="43.51117" lon="6.63507">
        <ele>127.8</ele>
        <time>2023-11-05T09:31:13Z</time>
      </trkpt>
      <trkpt lat="43.51117" lon="6.63507">
        <ele>127.8</ele>
        <time>2023-11-05T09:31:14Z</time>
      </trkpt>
      <trkpt lat="43.51117" lon="6.63507">
        <ele>127.8</ele>
        <time>2023-11-05T09:31:15Z</time>
      </trkpt>
      <trkpt lat="43.51117" lon="6.63507">
        <ele>127.9</ele>
        <time>2023-11-05T09:31:16Z</time>
      </trkpt>
      <trkpt lat="43.51117" lon="6.63507">
        <ele>127.9</ele>
        <time>2023-11-05T09:31:17Z</time>
      </trkpt>
      <trkpt lat="43.51117" lon="6.63507">
        <ele>128</ele>
        <time>2023-11-05T09:31:18Z</time>
      </trkpt>
      <trkpt lat="43.51117" lon="6.63507">
        <ele>128</ele>
        <time>2023-11-05T09:31:19Z</time>
      </trkpt>
      <trkpt lat="43.51117" lon="6.63507">
        <ele>128.1</ele>
        <time>2023-11-05T09:31:20Z</time>
      </trkpt>
      <trkpt lat="43.51117" lon="6.63507">
        <ele>128.1</ele>
        <time>2023-11-05T09:31:21Z</time>
      </trkpt>
      <trkpt lat="43.51117" lon="6.63508">
        <ele>128.1</ele>
        <time>2023-11-05T09:31:22Z</time>
      </trkpt>
      <trkpt lat="43.51117" lon="6.63508">
        <ele>128.1</ele>
        <time>2023-11-05T09:31:23Z</time>
      </trkpt>
      <trkpt lat="43.51116" lon="6.63508">
        <ele>128.2</ele>
        <time>2023-11-05T09:31:24Z</time>
      </trkpt>
      <trkpt lat="43.51116" lon="6.63507">
        <ele>128.3</ele>
        <time>2023-11-05T09:31:25Z</time>
      </trkpt>
      <trkpt lat="43.51116" lon="6.63507">
        <ele>128.4</ele>
        <time>2023-11-05T09:31:26Z</time>
      </trkpt>
      <trkpt lat="43.51116" lon="6.63507">
        <ele>128.4</ele>
        <time>2023-11-05T09:31:27Z</time>
      </trkpt>
      <trkpt lat="43.51116" lon="6.63508">
        <ele>128.3</ele>
        <time>2023-11-05T09:31:28Z</time>
      </trkpt>
      <trkpt lat="43.51116" lon="6.63508">
        <ele>128.3</ele>
        <time>2023-11-05T09:31:29Z</time>
      </trkpt>
      <trkpt lat="43.51116" lon="6.63508">
        <ele>128.3</ele>
        <time>2023-11-05T09:31:30Z</time>
      </trkpt>
      <trkpt lat="43.51116" lon="6.63508">
        <ele>128.3</ele>
        <time>2023-11-05T09:31:31Z</time>
      </trkpt>
      <trkpt lat="43.51116" lon="6.63508">
        <ele>128.1</ele>
        <time>2023-11-05T09:31:32Z</time>
      </trkpt>
      <trkpt lat="43.51116" lon="6.63508">
        <ele>128.3</ele>
        <time>2023-11-05T09:31:33Z</time>
      </trkpt>
      <trkpt lat="43.51116" lon="6.63508">
        <ele>128.3</ele>
        <time>2023-11-05T09:31:34Z</time>
      </trkpt>
      <trkpt lat="43.51116" lon="6.63508">
        <ele>128.3</ele>
        <time>2023-11-05T09:31:35Z</time>
      </trkpt>
      <trkpt lat="43.51116" lon="6.63508">
        <ele>128.3</ele>
        <time>2023-11-05T09:31:36Z</time>
      </trkpt>
      <trkpt lat="43.51116" lon="6.63508">
        <ele>128.2</ele>
        <time>2023-11-05T09:31:37Z</time>
      </trkpt>
      <trkpt lat="43.51116" lon="6.63508">
        <ele>128.2</ele>
        <time>2023-11-05T09:31:38Z</time>
      </trkpt>
      <trkpt lat="43.51116" lon="6.63508">
        <ele>128.2</ele>
        <time>2023-11-05T09:31:39Z</time>
      </trkpt>
      <trkpt lat="43.51116" lon="6.63508">
        <ele>128.1</ele>
        <time>2023-11-05T09:31:40Z</time>
      </trkpt>
      <trkpt lat="43.51116" lon="6.63508">
        <ele>128</ele>
        <time>2023-11-05T09:31:41Z</time>
      </trkpt>
      <trkpt lat="43.51116" lon="6.63508">
        <ele>128.1</ele>
        <time>2023-11-05T09:31:42Z</time>
      </trkpt>
      <trkpt lat="43.51116" lon="6.63508">
        <ele>128.1</ele>
        <time>2023-11-05T09:31:43Z</time>
      </trkpt>
      <trkpt lat="43.51116" lon="6.63508">
        <ele>128</ele>
        <time>2023-11-05T09:31:44Z</time>
      </trkpt>
      <trkpt lat="43.51116" lon="6.63508">
        <ele>127.9</ele>
        <time>2023-11-05T09:31:45Z</time>
      </trkpt>
      <trkpt lat="43.51116" lon="6.63508">
        <ele>127.9</ele>
        <time>2023-11-05T09:31:46Z</time>
      </trkpt>
      <trkpt lat="43.51116" lon="6.63508">
        <ele>127.8</ele>
        <time>2023-11-05T09:31:47Z</time>
      </trkpt>
      <trkpt lat="43.51116" lon="6.63508">
        <ele>127.8</ele>
        <time>2023-11-05T09:31:48Z</time>
      </trkpt>
      <trkpt lat="43.51116" lon="6.63508">
        <ele>127.7</ele>
        <time>2023-11-05T09:31:49Z</time>
      </trkpt>
      <trkpt lat="43.51116" lon="6.63508">
        <ele>127.9</ele>
        <time>2023-11-05T09:31:50Z</time>
      </trkpt>
      <trkpt lat="43.51116" lon="6.63508">
        <ele>128.1</ele>
        <time>2023-11-05T09:31:51Z</time>
      </trkpt>
      <trkpt lat="43.51116" lon="6.63509">
        <ele>128.3</ele>
        <time>2023-11-05T09:31:52Z</time>
      </trkpt>
      <trkpt lat="43.51116" lon="6.63509">
        <ele>128.3</ele>
        <time>2023-11-05T09:31:53Z</time>
      </trkpt>
      <trkpt lat="43.51116" lon="6.63509">
        <ele>128.2</ele>
        <time>2023-11-05T09:31:54Z</time>
      </trkpt>
      <trkpt lat="43.51116" lon="6.63509">
        <ele>128.1</ele>
        <time>2023-11-05T09:31:55Z</time>
      </trkpt>
      <trkpt lat="43.51116" lon="6.63509">
        <ele>127.9</ele>
        <time>2023-11-05T09:31:56Z</time>
      </trkpt>
      <trkpt lat="43.51116" lon="6.63509">
        <ele>127.9</ele>
        <time>2023-11-05T09:31:57Z</time>
      </trkpt>
      <trkpt lat="43.51116" lon="6.63509">
        <ele>128</ele>
        <time>2023-11-05T09:31:58Z</time>
      </trkpt>
      <trkpt lat="43.51116" lon="6.63509">
        <ele>128.1</ele>
        <time>2023-11-05T09:31:59Z</time>
      </trkpt>
      <trkpt lat="43.51116" lon="6.63508">
        <ele>128.1</ele>
        <time>2023-11-05T09:32:00Z</time>
      </trkpt>
      <trkpt lat="43.51116" lon="6.63509">
        <ele>128</ele>
        <time>2023-11-05T09:32:01Z</time>
      </trkpt>
      <trkpt lat="43.51116" lon="6.63509">
        <ele>127.9</ele>
        <time>2023-11-05T09:32:02Z</time>
      </trkpt>
      <trkpt lat="43.51116" lon="6.63509">
        <ele>127.9</ele>
        <time>2023-11-05T09:32:03Z</time>
      </trkpt>
      <trkpt lat="43.51116" lon="6.63509">
        <ele>127.8</ele>
        <time>2023-11-05T09:32:04Z</time>
      </trkpt>
      <trkpt lat="43.51116" lon="6.63509">
        <ele>127.7</ele>
        <time>2023-11-05T09:32:05Z</time>
      </trkpt>
      <trkpt lat="43.51116" lon="6.63509">
        <ele>127.5</ele>
        <time>2023-11-05T09:32:06Z</time>
      </trkpt>
      <trkpt lat="43.51116" lon="6.63509">
        <ele>127.3</ele>
        <time>2023-11-05T09:32:07Z</time>
      </trkpt>
      <trkpt lat="43.51116" lon="6.63509">
        <ele>127.3</ele>
        <time>2023-11-05T09:32:08Z</time>
      </trkpt>
      <trkpt lat="43.51116" lon="6.6351">
        <ele>127.2</ele>
        <time>2023-11-05T09:32:09Z</time>
      </trkpt>
      <trkpt lat="43.51116" lon="6.6351">
        <ele>127.3</ele>
        <time>2023-11-05T09:32:10Z</time>
      </trkpt>
      <trkpt lat="43.51115" lon="6.6351">
        <ele>127.4</ele>
        <time>2023-11-05T09:32:11Z</time>
      </trkpt>
      <trkpt lat="43.51115" lon="6.6351">
        <ele>127.5</ele>
        <time>2023-11-05T09:32:12Z</time>
      </trkpt>
      <trkpt lat="43.51115" lon="6.63511">
        <ele>127.5</ele>
        <time>2023-11-05T09:32:13Z</time>
      </trkpt>
      <trkpt lat="43.51116" lon="6.63512">
        <ele>127.6</ele>
        <time>2023-11-05T09:32:14Z</time>
      </trkpt>
      <trkpt lat="43.51116" lon="6.63513">
        <ele>127.8</ele>
        <time>2023-11-05T09:32:15Z</time>
      </trkpt>
      <trkpt lat="43.51117" lon="6.63514">
        <ele>128</ele>
        <time>2023-11-05T09:32:16Z</time>
      </trkpt>
      <trkpt lat="43.51117" lon="6.63513">
        <ele>128</ele>
        <time>2023-11-05T09:32:17Z</time>
      </trkpt>
      <trkpt lat="43.51117" lon="6.63512">
        <ele>128.1</ele>
        <time>2023-11-05T09:32:18Z</time>
      </trkpt>
      <trkpt lat="43.51117" lon="6.63512">
        <ele>128.2</ele>
        <time>2023-11-05T09:32:19Z</time>
      </trkpt>
      <trkpt lat="43.51116" lon="6.63511">
        <ele>128.2</ele>
        <time>2023-11-05T09:32:20Z</time>
      </trkpt>
      <trkpt lat="43.51117" lon="6.6351">
        <ele>128.2</ele>
        <time>2023-11-05T09:32:21Z</time>
      </trkpt>
      <trkpt lat="43.51117" lon="6.63509">
        <ele>128.2</ele>
        <time>2023-11-05T09:32:22Z</time>
      </trkpt>
      <trkpt lat="43.51117" lon="6.63508">
        <ele>128.2</ele>
        <time>2023-11-05T09:32:23Z</time>
      </trkpt>
      <trkpt lat="43.51118" lon="6.63507">
        <ele>128.1</ele>
        <time>2023-11-05T09:32:24Z</time>
      </trkpt>
      <trkpt lat="43.51118" lon="6.63506">
        <ele>127.9</ele>
        <time>2023-11-05T09:32:25Z</time>
      </trkpt>
      <trkpt lat="43.51118" lon="6.63505">
        <ele>127.8</ele>
        <time>2023-11-05T09:32:26Z</time>
      </trkpt>
      <trkpt lat="43.51119" lon="6.63505">
        <ele>127.8</ele>
        <time>2023-11-05T09:32:27Z</time>
      </trkpt>
      <trkpt lat="43.51119" lon="6.63504">
        <ele>127.6</ele>
        <time>2023-11-05T09:32:28Z</time>
      </trkpt>
      <trkpt lat="43.5112" lon="6.63503">
        <ele>127.5</ele>
        <time>2023-11-05T09:32:29Z</time>
      </trkpt>
      <trkpt lat="43.5112" lon="6.63502">
        <ele>127.5</ele>
        <time>2023-11-05T09:32:30Z</time>
      </trkpt>
      <trkpt lat="43.51121" lon="6.635">
        <ele>127.3</ele>
        <time>2023-11-05T09:32:31Z</time>
      </trkpt>
      <trkpt lat="43.51121" lon="6.63499">
        <ele>127.2</ele>
        <time>2023-11-05T09:32:32Z</time>
      </trkpt>
      <trkpt lat="43.51122" lon="6.63498">
        <ele>127.3</ele>
        <time>2023-11-05T09:32:33Z</time>
      </trkpt>
      <trkpt lat="43.51122" lon="6.63496">
        <ele>127.4</ele>
        <time>2023-11-05T09:32:34Z</time>
      </trkpt>
      <trkpt lat="43.51123" lon="6.63495">
        <ele>127.4</ele>
        <time>2023-11-05T09:32:35Z</time>
      </trkpt>
      <trkpt lat="43.51123" lon="6.63493">
        <ele>127.1</ele>
        <time>2023-11-05T09:32:36Z</time>
      </trkpt>
      <trkpt lat="43.51123" lon="6.63492">
        <ele>126.9</ele>
        <time>2023-11-05T09:32:37Z</time>
      </trkpt>
      <trkpt lat="43.51124" lon="6.6349">
        <ele>127</ele>
        <time>2023-11-05T09:32:38Z</time>
      </trkpt>
      <trkpt lat="43.51124" lon="6.63489">
        <ele>126.7</ele>
        <time>2023-11-05T09:32:39Z</time>
      </trkpt>
      <trkpt lat="43.51124" lon="6.63487">
        <ele>126.6</ele>
        <time>2023-11-05T09:32:40Z</time>
      </trkpt>
      <trkpt lat="43.51124" lon="6.63486">
        <ele>126.6</ele>
        <time>2023-11-05T09:32:41Z</time>
      </trkpt>
      <trkpt lat="43.51123" lon="6.63485">
        <ele>126.6</ele>
        <time>2023-11-05T09:32:42Z</time>
      </trkpt>
      <trkpt lat="43.51122" lon="6.63484">
        <ele>126.6</ele>
        <time>2023-11-05T09:32:43Z</time>
      </trkpt>
      <trkpt lat="43.51122" lon="6.63483">
        <ele>126.9</ele>
        <time>2023-11-05T09:32:44Z</time>
      </trkpt>
      <trkpt lat="43.51122" lon="6.63482">
        <ele>126.6</ele>
        <time>2023-11-05T09:32:45Z</time>
      </trkpt>
      <trkpt lat="43.51121" lon="6.6348">
        <ele>126.3</ele>
        <time>2023-11-05T09:32:46Z</time>
      </trkpt>
      <trkpt lat="43.51119" lon="6.63479">
        <ele>126.1</ele>
        <time>2023-11-05T09:32:47Z</time>
      </trkpt>
      <trkpt lat="43.51118" lon="6.63479">
        <ele>125.9</ele>
        <time>2023-11-05T09:32:48Z</time>
      </trkpt>
      <trkpt lat="43.51118" lon="6.63479">
        <ele>125.7</ele>
        <time>2023-11-05T09:32:49Z</time>
      </trkpt>
      <trkpt lat="43.51117" lon="6.6348">
        <ele>125.3</ele>
        <time>2023-11-05T09:32:50Z</time>
      </trkpt>
      <trkpt lat="43.51116" lon="6.63481">
        <ele>125.2</ele>
        <time>2023-11-05T09:32:51Z</time>
      </trkpt>
      <trkpt lat="43.51115" lon="6.63482">
        <ele>125.3</ele>
        <time>2023-11-05T09:32:52Z</time>
      </trkpt>
      <trkpt lat="43.51115" lon="6.63483">
        <ele>125.2</ele>
        <time>2023-11-05T09:32:53Z</time>
      </trkpt>
      <trkpt lat="43.51115" lon="6.63484">
        <ele>125.1</ele>
        <time>2023-11-05T09:32:54Z</time>
      </trkpt>
      <trkpt lat="43.51114" lon="6.63486">
        <ele>125.1</ele>
        <time>2023-11-05T09:32:55Z</time>
      </trkpt>
      <trkpt lat="43.51113" lon="6.63487">
        <ele>125</ele>
        <time>2023-11-05T09:32:56Z</time>
      </trkpt>
      <trkpt lat="43.51113" lon="6.63488">
        <ele>124.9</ele>
        <time>2023-11-05T09:32:57Z</time>
      </trkpt>
      <trkpt lat="43.51112" lon="6.63489">
        <ele>124.9</ele>
        <time>2023-11-05T09:32:58Z</time>
      </trkpt>
      <trkpt lat="43.51112" lon="6.6349">
        <ele>125</ele>
        <time>2023-11-05T09:32:59Z</time>
      </trkpt>
      <trkpt lat="43.51111" lon="6.63491">
        <ele>125.4</ele>
        <time>2023-11-05T09:33:00Z</time>
      </trkpt>
      <trkpt lat="43.5111" lon="6.63492">
        <ele>125.7</ele>
        <time>2023-11-05T09:33:01Z</time>
      </trkpt>
      <trkpt lat="43.5111" lon="6.63492">
        <ele>125.9</ele>
        <time>2023-11-05T09:33:02Z</time>
      </trkpt>
      <trkpt lat="43.51109" lon="6.63493">
        <ele>126.4</ele>
        <time>2023-11-05T09:33:03Z</time>
      </trkpt>
      <trkpt lat="43.51108" lon="6.63494">
        <ele>126.6</ele>
        <time>2023-11-05T09:33:04Z</time>
      </trkpt>
      <trkpt lat="43.51107" lon="6.63495">
        <ele>126.7</ele>
        <time>2023-11-05T09:33:05Z</time>
      </trkpt>
      <trkpt lat="43.51107" lon="6.63496">
        <ele>126.8</ele>
        <time>2023-11-05T09:33:06Z</time>
      </trkpt>
      <trkpt lat="43.51106" lon="6.63497">
        <ele>126.9</ele>
        <time>2023-11-05T09:33:07Z</time>
      </trkpt>
      <trkpt lat="43.51106" lon="6.63498">
        <ele>127</ele>
        <time>2023-11-05T09:33:08Z</time>
      </trkpt>
      <trkpt lat="43.51105" lon="6.63498">
        <ele>127.2</ele>
        <time>2023-11-05T09:33:09Z</time>
      </trkpt>
      <trkpt lat="43.51104" lon="6.63499">
        <ele>127.1</ele>
        <time>2023-11-05T09:33:10Z</time>
      </trkpt>
      <trkpt lat="43.51104" lon="6.635">
        <ele>127.9</ele>
        <time>2023-11-05T09:33:11Z</time>
      </trkpt>
      <trkpt lat="43.51103" lon="6.63501">
        <ele>128.3</ele>
        <time>2023-11-05T09:33:12Z</time>
      </trkpt>
      <trkpt lat="43.51103" lon="6.63502">
        <ele>128.5</ele>
        <time>2023-11-05T09:33:13Z</time>
      </trkpt>
      <trkpt lat="43.51102" lon="6.63503">
        <ele>128.7</ele>
        <time>2023-11-05T09:33:14Z</time>
      </trkpt>
      <trkpt lat="43.51101" lon="6.63504">
        <ele>128.9</ele>
        <time>2023-11-05T09:33:15Z</time>
      </trkpt>
      <trkpt lat="43.51101" lon="6.63505">
        <ele>129.1</ele>
        <time>2023-11-05T09:33:16Z</time>
      </trkpt>
      <trkpt lat="43.511" lon="6.63506">
        <ele>129.3</ele>
        <time>2023-11-05T09:33:17Z</time>
      </trkpt>
      <trkpt lat="43.51099" lon="6.63507">
        <ele>129.5</ele>
        <time>2023-11-05T09:33:18Z</time>
      </trkpt>
      <trkpt lat="43.51099" lon="6.63508">
        <ele>129.5</ele>
        <time>2023-11-05T09:33:19Z</time>
      </trkpt>
      <trkpt lat="43.51099" lon="6.63509">
        <ele>129.3</ele>
        <time>2023-11-05T09:33:20Z</time>
      </trkpt>
      <trkpt lat="43.51098" lon="6.6351">
        <ele>129.6</ele>
        <time>2023-11-05T09:33:21Z</time>
      </trkpt>
      <trkpt lat="43.51097" lon="6.6351">
        <ele>129.9</ele>
        <time>2023-11-05T09:33:22Z</time>
      </trkpt>
      <trkpt lat="43.51097" lon="6.63512">
        <ele>130.3</ele>
        <time>2023-11-05T09:33:23Z</time>
      </trkpt>
      <trkpt lat="43.51096" lon="6.63513">
        <ele>130.7</ele>
        <time>2023-11-05T09:33:24Z</time>
      </trkpt>
      <trkpt lat="43.51095" lon="6.63513">
        <ele>130.8</ele>
        <time>2023-11-05T09:33:25Z</time>
      </trkpt>
      <trkpt lat="43.51094" lon="6.63514">
        <ele>130.8</ele>
        <time>2023-11-05T09:33:26Z</time>
      </trkpt>
      <trkpt lat="43.51093" lon="6.63515">
        <ele>130.9</ele>
        <time>2023-11-05T09:33:27Z</time>
      </trkpt>
      <trkpt lat="43.51092" lon="6.63515">
        <ele>130.9</ele>
        <time>2023-11-05T09:33:28Z</time>
      </trkpt>
      <trkpt lat="43.51092" lon="6.63516">
        <ele>130.9</ele>
        <time>2023-11-05T09:33:29Z</time>
      </trkpt>
      <trkpt lat="43.51091" lon="6.63516">
        <ele>130.9</ele>
        <time>2023-11-05T09:33:30Z</time>
      </trkpt>
      <trkpt lat="43.51091" lon="6.63518">
        <ele>130.9</ele>
        <time>2023-11-05T09:33:31Z</time>
      </trkpt>
      <trkpt lat="43.51091" lon="6.63519">
        <ele>131.2</ele>
        <time>2023-11-05T09:33:32Z</time>
      </trkpt>
      <trkpt lat="43.51091" lon="6.63519">
        <ele>131.3</ele>
        <time>2023-11-05T09:33:33Z</time>
      </trkpt>
      <trkpt lat="43.51091" lon="6.63519">
        <ele>131.2</ele>
        <time>2023-11-05T09:33:34Z</time>
      </trkpt>
      <trkpt lat="43.51091" lon="6.6352">
        <ele>131.3</ele>
        <time>2023-11-05T09:33:35Z</time>
      </trkpt>
      <trkpt lat="43.51091" lon="6.6352">
        <ele>131.5</ele>
        <time>2023-11-05T09:33:36Z</time>
      </trkpt>
      <trkpt lat="43.51091" lon="6.63521">
        <ele>131.6</ele>
        <time>2023-11-05T09:33:37Z</time>
      </trkpt>
      <trkpt lat="43.51092" lon="6.63521">
        <ele>131.7</ele>
        <time>2023-11-05T09:33:38Z</time>
      </trkpt>
      <trkpt lat="43.51092" lon="6.63521">
        <ele>131.7</ele>
        <time>2023-11-05T09:33:39Z</time>
      </trkpt>
      <trkpt lat="43.51092" lon="6.63522">
        <ele>131.7</ele>
        <time>2023-11-05T09:33:40Z</time>
      </trkpt>
      <trkpt lat="43.51092" lon="6.63522">
        <ele>131.7</ele>
        <time>2023-11-05T09:33:41Z</time>
      </trkpt>
      <trkpt lat="43.51092" lon="6.63522">
        <ele>131.6</ele>
        <time>2023-11-05T09:33:42Z</time>
      </trkpt>
      <trkpt lat="43.51091" lon="6.63522">
        <ele>131.5</ele>
        <time>2023-11-05T09:33:43Z</time>
      </trkpt>
      <trkpt lat="43.51091" lon="6.63523">
        <ele>131.5</ele>
        <time>2023-11-05T09:33:44Z</time>
      </trkpt>
      <trkpt lat="43.5109" lon="6.63524">
        <ele>131.4</ele>
        <time>2023-11-05T09:33:45Z</time>
      </trkpt>
      <trkpt lat="43.51089" lon="6.63524">
        <ele>131.3</ele>
        <time>2023-11-05T09:33:46Z</time>
      </trkpt>
      <trkpt lat="43.51088" lon="6.63524">
        <ele>131.1</ele>
        <time>2023-11-05T09:33:47Z</time>
      </trkpt>
      <trkpt lat="43.51087" lon="6.63524">
        <ele>131.1</ele>
        <time>2023-11-05T09:33:48Z</time>
      </trkpt>
      <trkpt lat="43.51086" lon="6.63524">
        <ele>131.2</ele>
        <time>2023-11-05T09:33:49Z</time>
      </trkpt>
      <trkpt lat="43.51085" lon="6.63524">
        <ele>131.3</ele>
        <time>2023-11-05T09:33:50Z</time>
      </trkpt>
      <trkpt lat="43.51085" lon="6.63524">
        <ele>131.3</ele>
        <time>2023-11-05T09:33:51Z</time>
      </trkpt>
      <trkpt lat="43.51083" lon="6.63524">
        <ele>131.3</ele>
        <time>2023-11-05T09:33:52Z</time>
      </trkpt>
      <trkpt lat="43.51082" lon="6.63524">
        <ele>131.4</ele>
        <time>2023-11-05T09:33:53Z</time>
      </trkpt>
      <trkpt lat="43.51081" lon="6.63524">
        <ele>131.4</ele>
        <time>2023-11-05T09:33:54Z</time>
      </trkpt>
      <trkpt lat="43.5108" lon="6.63523">
        <ele>131.4</ele>
        <time>2023-11-05T09:33:55Z</time>
      </trkpt>
      <trkpt lat="43.51079" lon="6.63523">
        <ele>131.3</ele>
        <time>2023-11-05T09:33:56Z</time>
      </trkpt>
      <trkpt lat="43.51078" lon="6.63522">
        <ele>131.2</ele>
        <time>2023-11-05T09:33:57Z</time>
      </trkpt>
      <trkpt lat="43.51077" lon="6.63521">
        <ele>131.1</ele>
        <time>2023-11-05T09:33:58Z</time>
      </trkpt>
      <trkpt lat="43.51076" lon="6.6352">
        <ele>130.9</ele>
        <time>2023-11-05T09:33:59Z</time>
      </trkpt>
      <trkpt lat="43.51075" lon="6.6352">
        <ele>130.7</ele>
        <time>2023-11-05T09:34:00Z</time>
      </trkpt>
      <trkpt lat="43.51074" lon="6.63519">
        <ele>130.6</ele>
        <time>2023-11-05T09:34:01Z</time>
      </trkpt>
      <trkpt lat="43.51073" lon="6.63518">
        <ele>130.6</ele>
        <time>2023-11-05T09:34:02Z</time>
      </trkpt>
      <trkpt lat="43.51072" lon="6.63518">
        <ele>130.4</ele>
        <time>2023-11-05T09:34:03Z</time>
      </trkpt>
      <trkpt lat="43.51071" lon="6.63517">
        <ele>130.2</ele>
        <time>2023-11-05T09:34:04Z</time>
      </trkpt>
      <trkpt lat="43.5107" lon="6.63517">
        <ele>130.2</ele>
        <time>2023-11-05T09:34:05Z</time>
      </trkpt>
      <trkpt lat="43.51069" lon="6.63516">
        <ele>130.3</ele>
        <time>2023-11-05T09:34:06Z</time>
      </trkpt>
      <trkpt lat="43.51068" lon="6.63516">
        <ele>130.2</ele>
        <time>2023-11-05T09:34:07Z</time>
      </trkpt>
      <trkpt lat="43.51067" lon="6.63515">
        <ele>130.2</ele>
        <time>2023-11-05T09:34:08Z</time>
      </trkpt>
      <trkpt lat="43.51066" lon="6.63515">
        <ele>130.2</ele>
        <time>2023-11-05T09:34:09Z</time>
      </trkpt>
      <trkpt lat="43.51065" lon="6.63515">
        <ele>130.2</ele>
        <time>2023-11-05T09:34:10Z</time>
      </trkpt>
      <trkpt lat="43.51064" lon="6.63515">
        <ele>130.1</ele>
        <time>2023-11-05T09:34:11Z</time>
      </trkpt>
      <trkpt lat="43.51063" lon="6.63514">
        <ele>130.5</ele>
        <time>2023-11-05T09:34:12Z</time>
      </trkpt>
      <trkpt lat="43.51062" lon="6.63514">
        <ele>130.5</ele>
        <time>2023-11-05T09:34:13Z</time>
      </trkpt>
      <trkpt lat="43.51061" lon="6.63513">
        <ele>130.7</ele>
        <time>2023-11-05T09:34:14Z</time>
      </trkpt>
      <trkpt lat="43.51059" lon="6.63513">
        <ele>130.8</ele>
        <time>2023-11-05T09:34:15Z</time>
      </trkpt>
      <trkpt lat="43.51058" lon="6.63512">
        <ele>131</ele>
        <time>2023-11-05T09:34:16Z</time>
      </trkpt>
      <trkpt lat="43.51057" lon="6.63512">
        <ele>131.1</ele>
        <time>2023-11-05T09:34:17Z</time>
      </trkpt>
      <trkpt lat="43.51056" lon="6.63511">
        <ele>131.2</ele>
        <time>2023-11-05T09:34:18Z</time>
      </trkpt>
      <trkpt lat="43.51055" lon="6.63511">
        <ele>131.3</ele>
        <time>2023-11-05T09:34:19Z</time>
      </trkpt>
      <trkpt lat="43.51054" lon="6.63511">
        <ele>131.4</ele>
        <time>2023-11-05T09:34:20Z</time>
      </trkpt>
      <trkpt lat="43.51053" lon="6.6351">
        <ele>131.6</ele>
        <time>2023-11-05T09:34:21Z</time>
      </trkpt>
      <trkpt lat="43.51052" lon="6.6351">
        <ele>131.6</ele>
        <time>2023-11-05T09:34:22Z</time>
      </trkpt>
      <trkpt lat="43.5105" lon="6.6351">
        <ele>131.4</ele>
        <time>2023-11-05T09:34:23Z</time>
      </trkpt>
      <trkpt lat="43.51049" lon="6.6351">
        <ele>131.4</ele>
        <time>2023-11-05T09:34:24Z</time>
      </trkpt>
      <trkpt lat="43.51048" lon="6.63509">
        <ele>131.5</ele>
        <time>2023-11-05T09:34:25Z</time>
      </trkpt>
      <trkpt lat="43.51047" lon="6.63508">
        <ele>131.6</ele>
        <time>2023-11-05T09:34:26Z</time>
      </trkpt>
      <trkpt lat="43.51046" lon="6.63508">
        <ele>131.8</ele>
        <time>2023-11-05T09:34:27Z</time>
      </trkpt>
      <trkpt lat="43.51045" lon="6.63509">
        <ele>131.9</ele>
        <time>2023-11-05T09:34:28Z</time>
      </trkpt>
      <trkpt lat="43.51044" lon="6.63509">
        <ele>131.8</ele>
        <time>2023-11-05T09:34:29Z</time>
      </trkpt>
      <trkpt lat="43.51043" lon="6.63509">
        <ele>131.9</ele>
        <time>2023-11-05T09:34:30Z</time>
      </trkpt>
      <trkpt lat="43.51042" lon="6.63509">
        <ele>132.1</ele>
        <time>2023-11-05T09:34:31Z</time>
      </trkpt>
      <trkpt lat="43.51042" lon="6.6351">
        <ele>132.2</ele>
        <time>2023-11-05T09:34:32Z</time>
      </trkpt>
      <trkpt lat="43.51041" lon="6.6351">
        <ele>132.4</ele>
        <time>2023-11-05T09:34:33Z</time>
      </trkpt>
      <trkpt lat="43.5104" lon="6.6351">
        <ele>132.6</ele>
        <time>2023-11-05T09:34:34Z</time>
      </trkpt>
      <trkpt lat="43.5104" lon="6.6351">
        <ele>132.9</ele>
        <time>2023-11-05T09:34:35Z</time>
      </trkpt>
      <trkpt lat="43.51039" lon="6.63511">
        <ele>133.2</ele>
        <time>2023-11-05T09:34:36Z</time>
      </trkpt>
      <trkpt lat="43.51038" lon="6.63512">
        <ele>133.1</ele>
        <time>2023-11-05T09:34:37Z</time>
      </trkpt>
      <trkpt lat="43.51038" lon="6.63514">
        <ele>132.6</ele>
        <time>2023-11-05T09:34:38Z</time>
      </trkpt>
      <trkpt lat="43.51037" lon="6.63514">
        <ele>133.6</ele>
        <time>2023-11-05T09:34:39Z</time>
      </trkpt>
      <trkpt lat="43.51036" lon="6.63516">
        <ele>134.5</ele>
        <time>2023-11-05T09:34:40Z</time>
      </trkpt>
      <trkpt lat="43.51036" lon="6.63517">
        <ele>135.2</ele>
        <time>2023-11-05T09:34:41Z</time>
      </trkpt>
      <trkpt lat="43.51036" lon="6.63518">
        <ele>136</ele>
        <time>2023-11-05T09:34:42Z</time>
      </trkpt>
      <trkpt lat="43.51035" lon="6.63519">
        <ele>136.5</ele>
        <time>2023-11-05T09:34:43Z</time>
      </trkpt>
      <trkpt lat="43.51035" lon="6.63521">
        <ele>136.9</ele>
        <time>2023-11-05T09:34:44Z</time>
      </trkpt>
      <trkpt lat="43.51034" lon="6.63522">
        <ele>137.3</ele>
        <time>2023-11-05T09:34:45Z</time>
      </trkpt>
      <trkpt lat="43.51033" lon="6.63522">
        <ele>137.6</ele>
        <time>2023-11-05T09:34:46Z</time>
      </trkpt>
      <trkpt lat="43.51032" lon="6.63523">
        <ele>137.9</ele>
        <time>2023-11-05T09:34:47Z</time>
      </trkpt>
      <trkpt lat="43.51031" lon="6.63523">
        <ele>138.4</ele>
        <time>2023-11-05T09:34:48Z</time>
      </trkpt>
      <trkpt lat="43.51031" lon="6.63525">
        <ele>138.7</ele>
        <time>2023-11-05T09:34:49Z</time>
      </trkpt>
      <trkpt lat="43.5103" lon="6.63525">
        <ele>139</ele>
        <time>2023-11-05T09:34:50Z</time>
      </trkpt>
      <trkpt lat="43.51029" lon="6.63526">
        <ele>139.1</ele>
        <time>2023-11-05T09:34:51Z</time>
      </trkpt>
      <trkpt lat="43.51029" lon="6.63528">
        <ele>139.3</ele>
        <time>2023-11-05T09:34:52Z</time>
      </trkpt>
      <trkpt lat="43.51028" lon="6.63529">
        <ele>139.5</ele>
        <time>2023-11-05T09:34:53Z</time>
      </trkpt>
      <trkpt lat="43.51029" lon="6.63529">
        <ele>139.6</ele>
        <time>2023-11-05T09:34:54Z</time>
      </trkpt>
      <trkpt lat="43.51028" lon="6.6353">
        <ele>139.8</ele>
        <time>2023-11-05T09:34:55Z</time>
      </trkpt>
      <trkpt lat="43.51028" lon="6.6353">
        <ele>140</ele>
        <time>2023-11-05T09:34:56Z</time>
      </trkpt>
      <trkpt lat="43.51028" lon="6.6353">
        <ele>139.9</ele>
        <time>2023-11-05T09:34:57Z</time>
      </trkpt>
      <trkpt lat="43.51028" lon="6.6353">
        <ele>140</ele>
        <time>2023-11-05T09:34:58Z</time>
      </trkpt>
      <trkpt lat="43.51028" lon="6.6353">
        <ele>140.2</ele>
        <time>2023-11-05T09:34:59Z</time>
      </trkpt>
      <trkpt lat="43.51027" lon="6.6353">
        <ele>140.3</ele>
        <time>2023-11-05T09:35:00Z</time>
      </trkpt>
      <trkpt lat="43.51027" lon="6.6353">
        <ele>140.4</ele>
        <time>2023-11-05T09:35:01Z</time>
      </trkpt>
      <trkpt lat="43.51027" lon="6.63531">
        <ele>140.4</ele>
        <time>2023-11-05T09:35:02Z</time>
      </trkpt>
      <trkpt lat="43.51027" lon="6.63531">
        <ele>140.4</ele>
        <time>2023-11-05T09:35:03Z</time>
      </trkpt>
      <trkpt lat="43.51026" lon="6.63532">
        <ele>140.4</ele>
        <time>2023-11-05T09:35:04Z</time>
      </trkpt>
      <trkpt lat="43.51025" lon="6.63533">
        <ele>140.6</ele>
        <time>2023-11-05T09:35:05Z</time>
      </trkpt>
      <trkpt lat="43.51025" lon="6.63535">
        <ele>140.6</ele>
        <time>2023-11-05T09:35:06Z</time>
      </trkpt>
      <trkpt lat="43.51024" lon="6.63535">
        <ele>140.7</ele>
        <time>2023-11-05T09:35:07Z</time>
      </trkpt>
      <trkpt lat="43.51023" lon="6.63536">
        <ele>140.8</ele>
        <time>2023-11-05T09:35:08Z</time>
      </trkpt>
      <trkpt lat="43.51023" lon="6.63537">
        <ele>140.8</ele>
        <time>2023-11-05T09:35:09Z</time>
      </trkpt>
      <trkpt lat="43.51023" lon="6.63538">
        <ele>140.8</ele>
        <time>2023-11-05T09:35:10Z</time>
      </trkpt>
      <trkpt lat="43.51022" lon="6.63539">
        <ele>140.9</ele>
        <time>2023-11-05T09:35:11Z</time>
      </trkpt>
      <trkpt lat="43.51021" lon="6.6354">
        <ele>140.9</ele>
        <time>2023-11-05T09:35:12Z</time>
      </trkpt>
      <trkpt lat="43.5102" lon="6.63541">
        <ele>141</ele>
        <time>2023-11-05T09:35:13Z</time>
      </trkpt>
      <trkpt lat="43.5102" lon="6.63541">
        <ele>141.1</ele>
        <time>2023-11-05T09:35:14Z</time>
      </trkpt>
      <trkpt lat="43.51019" lon="6.63542">
        <ele>141.3</ele>
        <time>2023-11-05T09:35:15Z</time>
      </trkpt>
      <trkpt lat="43.51018" lon="6.63543">
        <ele>141.4</ele>
        <time>2023-11-05T09:35:16Z</time>
      </trkpt>
      <trkpt lat="43.51017" lon="6.63544">
        <ele>141.6</ele>
        <time>2023-11-05T09:35:17Z</time>
      </trkpt>
      <trkpt lat="43.51016" lon="6.63544">
        <ele>141.6</ele>
        <time>2023-11-05T09:35:18Z</time>
      </trkpt>
      <trkpt lat="43.51016" lon="6.63545">
        <ele>141.7</ele>
        <time>2023-11-05T09:35:19Z</time>
      </trkpt>
      <trkpt lat="43.51015" lon="6.63545">
        <ele>141.9</ele>
        <time>2023-11-05T09:35:20Z</time>
      </trkpt>
      <trkpt lat="43.51014" lon="6.63546">
        <ele>142.1</ele>
        <time>2023-11-05T09:35:21Z</time>
      </trkpt>
      <trkpt lat="43.51013" lon="6.63546">
        <ele>142.2</ele>
        <time>2023-11-05T09:35:22Z</time>
      </trkpt>
      <trkpt lat="43.51012" lon="6.63546">
        <ele>142.2</ele>
        <time>2023-11-05T09:35:23Z</time>
      </trkpt>
      <trkpt lat="43.51012" lon="6.63547">
        <ele>142.1</ele>
        <time>2023-11-05T09:35:24Z</time>
      </trkpt>
      <trkpt lat="43.51011" lon="6.63548">
        <ele>142.3</ele>
        <time>2023-11-05T09:35:25Z</time>
      </trkpt>
      <trkpt lat="43.5101" lon="6.63548">
        <ele>142.6</ele>
        <time>2023-11-05T09:35:26Z</time>
      </trkpt>
      <trkpt lat="43.5101" lon="6.63549">
        <ele>142.8</ele>
        <time>2023-11-05T09:35:27Z</time>
      </trkpt>
      <trkpt lat="43.51009" lon="6.63549">
        <ele>143.3</ele>
        <time>2023-11-05T09:35:28Z</time>
      </trkpt>
      <trkpt lat="43.51008" lon="6.6355">
        <ele>143.6</ele>
        <time>2023-11-05T09:35:29Z</time>
      </trkpt>
      <trkpt lat="43.51008" lon="6.6355">
        <ele>143.5</ele>
        <time>2023-11-05T09:35:30Z</time>
      </trkpt>
      <trkpt lat="43.51007" lon="6.63551">
        <ele>143.6</ele>
        <time>2023-11-05T09:35:31Z</time>
      </trkpt>
      <trkpt lat="43.51006" lon="6.6355">
        <ele>143.7</ele>
        <time>2023-11-05T09:35:32Z</time>
      </trkpt>
      <trkpt lat="43.51005" lon="6.6355">
        <ele>144.1</ele>
        <time>2023-11-05T09:35:33Z</time>
      </trkpt>
      <trkpt lat="43.51004" lon="6.63551">
        <ele>144.5</ele>
        <time>2023-11-05T09:35:34Z</time>
      </trkpt>
      <trkpt lat="43.51003" lon="6.63551">
        <ele>144.7</ele>
        <time>2023-11-05T09:35:35Z</time>
      </trkpt>
      <trkpt lat="43.51003" lon="6.63551">
        <ele>145</ele>
        <time>2023-11-05T09:35:36Z</time>
      </trkpt>
      <trkpt lat="43.51002" lon="6.63551">
        <ele>145.2</ele>
        <time>2023-11-05T09:35:37Z</time>
      </trkpt>
      <trkpt lat="43.51001" lon="6.63551">
        <ele>145.4</ele>
        <time>2023-11-05T09:35:38Z</time>
      </trkpt>
      <trkpt lat="43.51001" lon="6.63551">
        <ele>145.7</ele>
        <time>2023-11-05T09:35:39Z</time>
      </trkpt>
      <trkpt lat="43.51" lon="6.63552">
        <ele>146</ele>
        <time>2023-11-05T09:35:40Z</time>
      </trkpt>
      <trkpt lat="43.50999" lon="6.63552">
        <ele>146.4</ele>
        <time>2023-11-05T09:35:41Z</time>
      </trkpt>
      <trkpt lat="43.50998" lon="6.63552">
        <ele>146.7</ele>
        <time>2023-11-05T09:35:42Z</time>
      </trkpt>
      <trkpt lat="43.50998" lon="6.63553">
        <ele>147</ele>
        <time>2023-11-05T09:35:43Z</time>
      </trkpt>
      <trkpt lat="43.50997" lon="6.63553">
        <ele>147.2</ele>
        <time>2023-11-05T09:35:44Z</time>
      </trkpt>
      <trkpt lat="43.50996" lon="6.63553">
        <ele>147.6</ele>
        <time>2023-11-05T09:35:45Z</time>
      </trkpt>
      <trkpt lat="43.50996" lon="6.63554">
        <ele>147.8</ele>
        <time>2023-11-05T09:35:46Z</time>
      </trkpt>
      <trkpt lat="43.50995" lon="6.63555">
        <ele>148</ele>
        <time>2023-11-05T09:35:47Z</time>
      </trkpt>
      <trkpt lat="43.50995" lon="6.63555">
        <ele>148.1</ele>
        <time>2023-11-05T09:35:48Z</time>
      </trkpt>
      <trkpt lat="43.50994" lon="6.63556">
        <ele>148.2</ele>
        <time>2023-11-05T09:35:49Z</time>
      </trkpt>
      <trkpt lat="43.50993" lon="6.63556">
        <ele>148.4</ele>
        <time>2023-11-05T09:35:50Z</time>
      </trkpt>
      <trkpt lat="43.50993" lon="6.63556">
        <ele>148.7</ele>
        <time>2023-11-05T09:35:51Z</time>
      </trkpt>
      <trkpt lat="43.50992" lon="6.63556">
        <ele>148.8</ele>
        <time>2023-11-05T09:35:52Z</time>
      </trkpt>
      <trkpt lat="43.50992" lon="6.63556">
        <ele>148.9</ele>
        <time>2023-11-05T09:35:53Z</time>
      </trkpt>
      <trkpt lat="43.5099" lon="6.63556">
        <ele>149.1</ele>
        <time>2023-11-05T09:35:54Z</time>
      </trkpt>
      <trkpt lat="43.5099" lon="6.63556">
        <ele>149.4</ele>
        <time>2023-11-05T09:35:55Z</time>
      </trkpt>
      <trkpt lat="43.50989" lon="6.63557">
        <ele>149.7</ele>
        <time>2023-11-05T09:35:56Z</time>
      </trkpt>
      <trkpt lat="43.50989" lon="6.63558">
        <ele>149.9</ele>
        <time>2023-11-05T09:35:57Z</time>
      </trkpt>
      <trkpt lat="43.5099" lon="6.63558">
        <ele>150.1</ele>
        <time>2023-11-05T09:35:58Z</time>
      </trkpt>
      <trkpt lat="43.5099" lon="6.63559">
        <ele>150.4</ele>
        <time>2023-11-05T09:35:59Z</time>
      </trkpt>
      <trkpt lat="43.5099" lon="6.6356">
        <ele>150.6</ele>
        <time>2023-11-05T09:36:00Z</time>
      </trkpt>
      <trkpt lat="43.5099" lon="6.63561">
        <ele>150.9</ele>
        <time>2023-11-05T09:36:01Z</time>
      </trkpt>
      <trkpt lat="43.5099" lon="6.63561">
        <ele>151.1</ele>
        <time>2023-11-05T09:36:02Z</time>
      </trkpt>
      <trkpt lat="43.50991" lon="6.63561">
        <ele>151.1</ele>
        <time>2023-11-05T09:36:03Z</time>
      </trkpt>
      <trkpt lat="43.50991" lon="6.63562">
        <ele>151.2</ele>
        <time>2023-11-05T09:36:04Z</time>
      </trkpt>
      <trkpt lat="43.50991" lon="6.63563">
        <ele>151.2</ele>
        <time>2023-11-05T09:36:05Z</time>
      </trkpt>
      <trkpt lat="43.50991" lon="6.63563">
        <ele>151.3</ele>
        <time>2023-11-05T09:36:06Z</time>
      </trkpt>
      <trkpt lat="43.50991" lon="6.63563">
        <ele>151.6</ele>
        <time>2023-11-05T09:36:07Z</time>
      </trkpt>
      <trkpt lat="43.50991" lon="6.63563">
        <ele>151.7</ele>
        <time>2023-11-05T09:36:08Z</time>
      </trkpt>
      <trkpt lat="43.50991" lon="6.63562">
        <ele>151.8</ele>
        <time>2023-11-05T09:36:09Z</time>
      </trkpt>
      <trkpt lat="43.5099" lon="6.63562">
        <ele>152</ele>
        <time>2023-11-05T09:36:10Z</time>
      </trkpt>
      <trkpt lat="43.50989" lon="6.63562">
        <ele>152.1</ele>
        <time>2023-11-05T09:36:11Z</time>
      </trkpt>
      <trkpt lat="43.50989" lon="6.63563">
        <ele>152.2</ele>
        <time>2023-11-05T09:36:12Z</time>
      </trkpt>
      <trkpt lat="43.50988" lon="6.63562">
        <ele>152.4</ele>
        <time>2023-11-05T09:36:13Z</time>
      </trkpt>
      <trkpt lat="43.50988" lon="6.63562">
        <ele>152.6</ele>
        <time>2023-11-05T09:36:14Z</time>
      </trkpt>
      <trkpt lat="43.50987" lon="6.63562">
        <ele>153</ele>
        <time>2023-11-05T09:36:15Z</time>
      </trkpt>
      <trkpt lat="43.50987" lon="6.63561">
        <ele>153.2</ele>
        <time>2023-11-05T09:36:16Z</time>
      </trkpt>
      <trkpt lat="43.50986" lon="6.6356">
        <ele>153.6</ele>
        <time>2023-11-05T09:36:17Z</time>
      </trkpt>
      <trkpt lat="43.50985" lon="6.6356">
        <ele>154</ele>
        <time>2023-11-05T09:36:18Z</time>
      </trkpt>
      <trkpt lat="43.50985" lon="6.6356">
        <ele>154.2</ele>
        <time>2023-11-05T09:36:19Z</time>
      </trkpt>
      <trkpt lat="43.50984" lon="6.6356">
        <ele>154.7</ele>
        <time>2023-11-05T09:36:20Z</time>
      </trkpt>
      <trkpt lat="43.50983" lon="6.63559">
        <ele>155.1</ele>
        <time>2023-11-05T09:36:21Z</time>
      </trkpt>
      <trkpt lat="43.50983" lon="6.6356">
        <ele>155.7</ele>
        <time>2023-11-05T09:36:22Z</time>
      </trkpt>
      <trkpt lat="43.50982" lon="6.63559">
        <ele>156.1</ele>
        <time>2023-11-05T09:36:23Z</time>
      </trkpt>
      <trkpt lat="43.50981" lon="6.63559">
        <ele>156.5</ele>
        <time>2023-11-05T09:36:24Z</time>
      </trkpt>
      <trkpt lat="43.50981" lon="6.63559">
        <ele>157.2</ele>
        <time>2023-11-05T09:36:25Z</time>
      </trkpt>
      <trkpt lat="43.5098" lon="6.63559">
        <ele>157.5</ele>
        <time>2023-11-05T09:36:26Z</time>
      </trkpt>
      <trkpt lat="43.5098" lon="6.63559">
        <ele>158</ele>
        <time>2023-11-05T09:36:27Z</time>
      </trkpt>
      <trkpt lat="43.5098" lon="6.63559">
        <ele>158.3</ele>
        <time>2023-11-05T09:36:28Z</time>
      </trkpt>
      <trkpt lat="43.5098" lon="6.6356">
        <ele>158.6</ele>
        <time>2023-11-05T09:36:29Z</time>
      </trkpt>
      <trkpt lat="43.5098" lon="6.6356">
        <ele>158.9</ele>
        <time>2023-11-05T09:36:30Z</time>
      </trkpt>
      <trkpt lat="43.5098" lon="6.6356">
        <ele>159.1</ele>
        <time>2023-11-05T09:36:31Z</time>
      </trkpt>
      <trkpt lat="43.5098" lon="6.6356">
        <ele>159.3</ele>
        <time>2023-11-05T09:36:32Z</time>
      </trkpt>
      <trkpt lat="43.5098" lon="6.63561">
        <ele>159.3</ele>
        <time>2023-11-05T09:36:33Z</time>
      </trkpt>
      <trkpt lat="43.5098" lon="6.63561">
        <ele>159.3</ele>
        <time>2023-11-05T09:36:34Z</time>
      </trkpt>
      <trkpt lat="43.5098" lon="6.63561">
        <ele>159.3</ele>
        <time>2023-11-05T09:36:35Z</time>
      </trkpt>
      <trkpt lat="43.5098" lon="6.63561">
        <ele>159.2</ele>
        <time>2023-11-05T09:36:36Z</time>
      </trkpt>
      <trkpt lat="43.50979" lon="6.63561">
        <ele>159.2</ele>
        <time>2023-11-05T09:36:37Z</time>
      </trkpt>
      <trkpt lat="43.50979" lon="6.63561">
        <ele>159.4</ele>
        <time>2023-11-05T09:36:38Z</time>
      </trkpt>
      <trkpt lat="43.50979" lon="6.63561">
        <ele>159.6</ele>
        <time>2023-11-05T09:36:39Z</time>
      </trkpt>
      <trkpt lat="43.50979" lon="6.63561">
        <ele>159.6</ele>
        <time>2023-11-05T09:36:40Z</time>
      </trkpt>
      <trkpt lat="43.50979" lon="6.63561">
        <ele>159.7</ele>
        <time>2023-11-05T09:36:41Z</time>
      </trkpt>
      <trkpt lat="43.50979" lon="6.63562">
        <ele>159.7</ele>
        <time>2023-11-05T09:36:42Z</time>
      </trkpt>
      <trkpt lat="43.50979" lon="6.63562">
        <ele>159.7</ele>
        <time>2023-11-05T09:36:43Z</time>
      </trkpt>
      <trkpt lat="43.50979" lon="6.63562">
        <ele>159.8</ele>
        <time>2023-11-05T09:36:44Z</time>
      </trkpt>
      <trkpt lat="43.50979" lon="6.63562">
        <ele>159.8</ele>
        <time>2023-11-05T09:36:45Z</time>
      </trkpt>
      <trkpt lat="43.50979" lon="6.63562">
        <ele>159.8</ele>
        <time>2023-11-05T09:36:46Z</time>
      </trkpt>
      <trkpt lat="43.50978" lon="6.63562">
        <ele>159.8</ele>
        <time>2023-11-05T09:36:47Z</time>
      </trkpt>
      <trkpt lat="43.50978" lon="6.63562">
        <ele>159.8</ele>
        <time>2023-11-05T09:36:48Z</time>
      </trkpt>
      <trkpt lat="43.50978" lon="6.63562">
        <ele>159.9</ele>
        <time>2023-11-05T09:36:49Z</time>
      </trkpt>
      <trkpt lat="43.50978" lon="6.63562">
        <ele>159.8</ele>
        <time>2023-11-05T09:36:50Z</time>
      </trkpt>
      <trkpt lat="43.50978" lon="6.63562">
        <ele>159.8</ele>
        <time>2023-11-05T09:36:51Z</time>
      </trkpt>
      <trkpt lat="43.50978" lon="6.63562">
        <ele>159.7</ele>
        <time>2023-11-05T09:36:52Z</time>
      </trkpt>
      <trkpt lat="43.50978" lon="6.63562">
        <ele>159.6</ele>
        <time>2023-11-05T09:36:53Z</time>
      </trkpt>
      <trkpt lat="43.50978" lon="6.63562">
        <ele>159.7</ele>
        <time>2023-11-05T09:36:54Z</time>
      </trkpt>
      <trkpt lat="43.50977" lon="6.63562">
        <ele>159.7</ele>
        <time>2023-11-05T09:36:55Z</time>
      </trkpt>
      <trkpt lat="43.50977" lon="6.63562">
        <ele>159.8</ele>
        <time>2023-11-05T09:36:56Z</time>
      </trkpt>
      <trkpt lat="43.50977" lon="6.63562">
        <ele>159.8</ele>
        <time>2023-11-05T09:36:57Z</time>
      </trkpt>
      <trkpt lat="43.50977" lon="6.63562">
        <ele>159.9</ele>
        <time>2023-11-05T09:36:58Z</time>
      </trkpt>
      <trkpt lat="43.50977" lon="6.63562">
        <ele>160</ele>
        <time>2023-11-05T09:36:59Z</time>
      </trkpt>
      <trkpt lat="43.50977" lon="6.63562">
        <ele>160</ele>
        <time>2023-11-05T09:37:00Z</time>
      </trkpt>
      <trkpt lat="43.50977" lon="6.63562">
        <ele>160.1</ele>
        <time>2023-11-05T09:37:01Z</time>
      </trkpt>
      <trkpt lat="43.50977" lon="6.63562">
        <ele>160.1</ele>
        <time>2023-11-05T09:37:02Z</time>
      </trkpt>
      <trkpt lat="43.50977" lon="6.63562">
        <ele>160.1</ele>
        <time>2023-11-05T09:37:03Z</time>
      </trkpt>
      <trkpt lat="43.50977" lon="6.63562">
        <ele>160.2</ele>
        <time>2023-11-05T09:37:04Z</time>
      </trkpt>
      <trkpt lat="43.50977" lon="6.63562">
        <ele>160.2</ele>
        <time>2023-11-05T09:37:05Z</time>
      </trkpt>
      <trkpt lat="43.50977" lon="6.63562">
        <ele>160.2</ele>
        <time>2023-11-05T09:37:06Z</time>
      </trkpt>
      <trkpt lat="43.50977" lon="6.63562">
        <ele>160.2</ele>
        <time>2023-11-05T09:37:07Z</time>
      </trkpt>
      <trkpt lat="43.50977" lon="6.63562">
        <ele>160.3</ele>
        <time>2023-11-05T09:37:08Z</time>
      </trkpt>
      <trkpt lat="43.50977" lon="6.63562">
        <ele>160.3</ele>
        <time>2023-11-05T09:37:09Z</time>
      </trkpt>
      <trkpt lat="43.50977" lon="6.63562">
        <ele>160.4</ele>
        <time>2023-11-05T09:37:10Z</time>
      </trkpt>
      <trkpt lat="43.50977" lon="6.63562">
        <ele>160.4</ele>
        <time>2023-11-05T09:37:11Z</time>
      </trkpt>
      <trkpt lat="43.50976" lon="6.63562">
        <ele>160.4</ele>
        <time>2023-11-05T09:37:12Z</time>
      </trkpt>
      <trkpt lat="43.50976" lon="6.63562">
        <ele>160.5</ele>
        <time>2023-11-05T09:37:13Z</time>
      </trkpt>
      <trkpt lat="43.50976" lon="6.63562">
        <ele>160.5</ele>
        <time>2023-11-05T09:37:14Z</time>
      </trkpt>
      <trkpt lat="43.50976" lon="6.63562">
        <ele>160.4</ele>
        <time>2023-11-05T09:37:15Z</time>
      </trkpt>
      <trkpt lat="43.50976" lon="6.63562">
        <ele>160.5</ele>
        <time>2023-11-05T09:37:16Z</time>
      </trkpt>
      <trkpt lat="43.50976" lon="6.63562">
        <ele>160.5</ele>
        <time>2023-11-05T09:37:17Z</time>
      </trkpt>
      <trkpt lat="43.50976" lon="6.63562">
        <ele>160.5</ele>
        <time>2023-11-05T09:37:18Z</time>
      </trkpt>
      <trkpt lat="43.50976" lon="6.63562">
        <ele>160.5</ele>
        <time>2023-11-05T09:37:19Z</time>
      </trkpt>
      <trkpt lat="43.50975" lon="6.63562">
        <ele>160.4</ele>
        <time>2023-11-05T09:37:20Z</time>
      </trkpt>
      <trkpt lat="43.50975" lon="6.63562">
        <ele>160.3</ele>
        <time>2023-11-05T09:37:21Z</time>
      </trkpt>
      <trkpt lat="43.50975" lon="6.63562">
        <ele>160.1</ele>
        <time>2023-11-05T09:37:22Z</time>
      </trkpt>
      <trkpt lat="43.50975" lon="6.63562">
        <ele>160.1</ele>
        <time>2023-11-05T09:37:23Z</time>
      </trkpt>
      <trkpt lat="43.50975" lon="6.63562">
        <ele>160</ele>
        <time>2023-11-05T09:37:24Z</time>
      </trkpt>
      <trkpt lat="43.50975" lon="6.63562">
        <ele>160.1</ele>
        <time>2023-11-05T09:37:25Z</time>
      </trkpt>
      <trkpt lat="43.50975" lon="6.63561">
        <ele>160.2</ele>
        <time>2023-11-05T09:37:26Z</time>
      </trkpt>
      <trkpt lat="43.50975" lon="6.63561">
        <ele>160.1</ele>
        <time>2023-11-05T09:37:27Z</time>
      </trkpt>
      <trkpt lat="43.50974" lon="6.6356">
        <ele>160.3</ele>
        <time>2023-11-05T09:37:28Z</time>
      </trkpt>
      <trkpt lat="43.50974" lon="6.6356">
        <ele>160.4</ele>
        <time>2023-11-05T09:37:29Z</time>
      </trkpt>
      <trkpt lat="43.50974" lon="6.63559">
        <ele>160.5</ele>
        <time>2023-11-05T09:37:30Z</time>
      </trkpt>
      <trkpt lat="43.50974" lon="6.63558">
        <ele>160.7</ele>
        <time>2023-11-05T09:37:31Z</time>
      </trkpt>
      <trkpt lat="43.50974" lon="6.63557">
        <ele>160.8</ele>
        <time>2023-11-05T09:37:32Z</time>
      </trkpt>
      <trkpt lat="43.50973" lon="6.63556">
        <ele>160.9</ele>
        <time>2023-11-05T09:37:33Z</time>
      </trkpt>
      <trkpt lat="43.50973" lon="6.63555">
        <ele>161.2</ele>
        <time>2023-11-05T09:37:34Z</time>
      </trkpt>
      <trkpt lat="43.50972" lon="6.63554">
        <ele>161.5</ele>
        <time>2023-11-05T09:37:35Z</time>
      </trkpt>
      <trkpt lat="43.50972" lon="6.63553">
        <ele>161.6</ele>
        <time>2023-11-05T09:37:36Z</time>
      </trkpt>
      <trkpt lat="43.50972" lon="6.63552">
        <ele>161.8</ele>
        <time>2023-11-05T09:37:37Z</time>
      </trkpt>
      <trkpt lat="43.50971" lon="6.63551">
        <ele>161.9</ele>
        <time>2023-11-05T09:37:38Z</time>
      </trkpt>
      <trkpt lat="43.50971" lon="6.6355">
        <ele>162.2</ele>
        <time>2023-11-05T09:37:39Z</time>
      </trkpt>
      <trkpt lat="43.50971" lon="6.63549">
        <ele>162.4</ele>
        <time>2023-11-05T09:37:40Z</time>
      </trkpt>
      <trkpt lat="43.50971" lon="6.63548">
        <ele>162.6</ele>
        <time>2023-11-05T09:37:41Z</time>
      </trkpt>
      <trkpt lat="43.50971" lon="6.63547">
        <ele>162.7</ele>
        <time>2023-11-05T09:37:42Z</time>
      </trkpt>
      <trkpt lat="43.50971" lon="6.63546">
        <ele>162.8</ele>
        <time>2023-11-05T09:37:43Z</time>
      </trkpt>
      <trkpt lat="43.50971" lon="6.63545">
        <ele>163.3</ele>
        <time>2023-11-05T09:37:44Z</time>
      </trkpt>
      <trkpt lat="43.50971" lon="6.63544">
        <ele>163.5</ele>
        <time>2023-11-05T09:37:45Z</time>
      </trkpt>
      <trkpt lat="43.50971" lon="6.63543">
        <ele>163.6</ele>
        <time>2023-11-05T09:37:46Z</time>
      </trkpt>
      <trkpt lat="43.50971" lon="6.63542">
        <ele>163.9</ele>
        <time>2023-11-05T09:37:47Z</time>
      </trkpt>
      <trkpt lat="43.50971" lon="6.63541">
        <ele>164</ele>
        <time>2023-11-05T09:37:48Z</time>
      </trkpt>
      <trkpt lat="43.50971" lon="6.6354">
        <ele>164.1</ele>
        <time>2023-11-05T09:37:49Z</time>
      </trkpt>
      <trkpt lat="43.50971" lon="6.63539">
        <ele>164.2</ele>
        <time>2023-11-05T09:37:50Z</time>
      </trkpt>
      <trkpt lat="43.50971" lon="6.63537">
        <ele>164.3</ele>
        <time>2023-11-05T09:37:51Z</time>
      </trkpt>
      <trkpt lat="43.50971" lon="6.63536">
        <ele>164.5</ele>
        <time>2023-11-05T09:37:52Z</time>
      </trkpt>
      <trkpt lat="43.5097" lon="6.63535">
        <ele>164.5</ele>
        <time>2023-11-05T09:37:53Z</time>
      </trkpt>
      <trkpt lat="43.5097" lon="6.63534">
        <ele>164.6</ele>
        <time>2023-11-05T09:37:54Z</time>
      </trkpt>
      <trkpt lat="43.5097" lon="6.63533">
        <ele>164.5</ele>
        <time>2023-11-05T09:37:55Z</time>
      </trkpt>
      <trkpt lat="43.5097" lon="6.63533">
        <ele>164.4</ele>
        <time>2023-11-05T09:37:56Z</time>
      </trkpt>
      <trkpt lat="43.5097" lon="6.63531">
        <ele>164.4</ele>
        <time>2023-11-05T09:37:57Z</time>
      </trkpt>
      <trkpt lat="43.5097" lon="6.6353">
        <ele>164.4</ele>
        <time>2023-11-05T09:37:58Z</time>
      </trkpt>
      <trkpt lat="43.5097" lon="6.63528">
        <ele>164.2</ele>
        <time>2023-11-05T09:37:59Z</time>
      </trkpt>
      <trkpt lat="43.5097" lon="6.63527">
        <ele>164.1</ele>
        <time>2023-11-05T09:38:00Z</time>
      </trkpt>
      <trkpt lat="43.5097" lon="6.63526">
        <ele>164</ele>
        <time>2023-11-05T09:38:01Z</time>
      </trkpt>
      <trkpt lat="43.5097" lon="6.63525">
        <ele>164</ele>
        <time>2023-11-05T09:38:02Z</time>
      </trkpt>
      <trkpt lat="43.50969" lon="6.63524">
        <ele>164.1</ele>
        <time>2023-11-05T09:38:03Z</time>
      </trkpt>
      <trkpt lat="43.50969" lon="6.63523">
        <ele>164.1</ele>
        <time>2023-11-05T09:38:04Z</time>
      </trkpt>
      <trkpt lat="43.50968" lon="6.63523">
        <ele>164.2</ele>
        <time>2023-11-05T09:38:05Z</time>
      </trkpt>
      <trkpt lat="43.50968" lon="6.63523">
        <ele>164.3</ele>
        <time>2023-11-05T09:38:06Z</time>
      </trkpt>
      <trkpt lat="43.50968" lon="6.63522">
        <ele>164.5</ele>
        <time>2023-11-05T09:38:07Z</time>
      </trkpt>
      <trkpt lat="43.50968" lon="6.63521">
        <ele>164.6</ele>
        <time>2023-11-05T09:38:08Z</time>
      </trkpt>
      <trkpt lat="43.50968" lon="6.63521">
        <ele>164.6</ele>
        <time>2023-11-05T09:38:09Z</time>
      </trkpt>
      <trkpt lat="43.50968" lon="6.63521">
        <ele>164.7</ele>
        <time>2023-11-05T09:38:10Z</time>
      </trkpt>
      <trkpt lat="43.50968" lon="6.63521">
        <ele>164.8</ele>
        <time>2023-11-05T09:38:11Z</time>
      </trkpt>
      <trkpt lat="43.50967" lon="6.63521">
        <ele>164.8</ele>
        <time>2023-11-05T09:38:12Z</time>
      </trkpt>
      <trkpt lat="43.50966" lon="6.63521">
        <ele>164.6</ele>
        <time>2023-11-05T09:38:13Z</time>
      </trkpt>
      <trkpt lat="43.50966" lon="6.63521">
        <ele>164.7</ele>
        <time>2023-11-05T09:38:14Z</time>
      </trkpt>
      <trkpt lat="43.50966" lon="6.63521">
        <ele>164.7</ele>
        <time>2023-11-05T09:38:15Z</time>
      </trkpt>
      <trkpt lat="43.50966" lon="6.63521">
        <ele>164.8</ele>
        <time>2023-11-05T09:38:16Z</time>
      </trkpt>
      <trkpt lat="43.50966" lon="6.63521">
        <ele>164.7</ele>
        <time>2023-11-05T09:38:17Z</time>
      </trkpt>
      <trkpt lat="43.50966" lon="6.63521">
        <ele>164.6</ele>
        <time>2023-11-05T09:38:18Z</time>
      </trkpt>
      <trkpt lat="43.50966" lon="6.63521">
        <ele>164.6</ele>
        <time>2023-11-05T09:38:19Z</time>
      </trkpt>
      <trkpt lat="43.50966" lon="6.63521">
        <ele>164.3</ele>
        <time>2023-11-05T09:38:20Z</time>
      </trkpt>
      <trkpt lat="43.50966" lon="6.63521">
        <ele>164.1</ele>
        <time>2023-11-05T09:38:21Z</time>
      </trkpt>
      <trkpt lat="43.50966" lon="6.63521">
        <ele>164</ele>
        <time>2023-11-05T09:38:22Z</time>
      </trkpt>
      <trkpt lat="43.50965" lon="6.63522">
        <ele>163.8</ele>
        <time>2023-11-05T09:38:23Z</time>
      </trkpt>
      <trkpt lat="43.50965" lon="6.63522">
        <ele>163.7</ele>
        <time>2023-11-05T09:38:24Z</time>
      </trkpt>
      <trkpt lat="43.50965" lon="6.63522">
        <ele>163.5</ele>
        <time>2023-11-05T09:38:25Z</time>
      </trkpt>
      <trkpt lat="43.50965" lon="6.63522">
        <ele>163.6</ele>
        <time>2023-11-05T09:38:26Z</time>
      </trkpt>
      <trkpt lat="43.50965" lon="6.63522">
        <ele>163.6</ele>
        <time>2023-11-05T09:38:27Z</time>
      </trkpt>
      <trkpt lat="43.50965" lon="6.63522">
        <ele>163.6</ele>
        <time>2023-11-05T09:38:28Z</time>
      </trkpt>
      <trkpt lat="43.50965" lon="6.63522">
        <ele>163.6</ele>
        <time>2023-11-05T09:38:29Z</time>
      </trkpt>
      <trkpt lat="43.50965" lon="6.63522">
        <ele>163.5</ele>
        <time>2023-11-05T09:38:30Z</time>
      </trkpt>
      <trkpt lat="43.50965" lon="6.63522">
        <ele>163.4</ele>
        <time>2023-11-05T09:38:31Z</time>
      </trkpt>
      <trkpt lat="43.50964" lon="6.63522">
        <ele>163.4</ele>
        <time>2023-11-05T09:38:32Z</time>
      </trkpt>
      <trkpt lat="43.50964" lon="6.63523">
        <ele>163.4</ele>
        <time>2023-11-05T09:38:33Z</time>
      </trkpt>
      <trkpt lat="43.50964" lon="6.63523">
        <ele>163.4</ele>
        <time>2023-11-05T09:38:34Z</time>
      </trkpt>
      <trkpt lat="43.50964" lon="6.63523">
        <ele>163.3</ele>
        <time>2023-11-05T09:38:35Z</time>
      </trkpt>
      <trkpt lat="43.50964" lon="6.63523">
        <ele>163.3</ele>
        <time>2023-11-05T09:38:36Z</time>
      </trkpt>
      <trkpt lat="43.50964" lon="6.63523">
        <ele>163.3</ele>
        <time>2023-11-05T09:38:37Z</time>
      </trkpt>
      <trkpt lat="43.50964" lon="6.63523">
        <ele>163.5</ele>
        <time>2023-11-05T09:38:38Z</time>
      </trkpt>
      <trkpt lat="43.50964" lon="6.63523">
        <ele>163.5</ele>
        <time>2023-11-05T09:38:39Z</time>
      </trkpt>
      <trkpt lat="43.50963" lon="6.63524">
        <ele>163.7</ele>
        <time>2023-11-05T09:38:40Z</time>
      </trkpt>
      <trkpt lat="43.50963" lon="6.63524">
        <ele>163.8</ele>
        <time>2023-11-05T09:38:41Z</time>
      </trkpt>
      <trkpt lat="43.50963" lon="6.63524">
        <ele>163.7</ele>
        <time>2023-11-05T09:38:42Z</time>
      </trkpt>
      <trkpt lat="43.50963" lon="6.63524">
        <ele>163.6</ele>
        <time>2023-11-05T09:38:43Z</time>
      </trkpt>
      <trkpt lat="43.50963" lon="6.63524">
        <ele>163.7</ele>
        <time>2023-11-05T09:38:44Z</time>
      </trkpt>
      <trkpt lat="43.50963" lon="6.63524">
        <ele>163.8</ele>
        <time>2023-11-05T09:38:45Z</time>
      </trkpt>
      <trkpt lat="43.50963" lon="6.63524">
        <ele>163.9</ele>
        <time>2023-11-05T09:38:46Z</time>
      </trkpt>
      <trkpt lat="43.50963" lon="6.63525">
        <ele>163.8</ele>
        <time>2023-11-05T09:38:47Z</time>
      </trkpt>
      <trkpt lat="43.50963" lon="6.63525">
        <ele>163.7</ele>
        <time>2023-11-05T09:38:48Z</time>
      </trkpt>
      <trkpt lat="43.50963" lon="6.63524">
        <ele>163.7</ele>
        <time>2023-11-05T09:38:49Z</time>
      </trkpt>
      <trkpt lat="43.50963" lon="6.63524">
        <ele>163.9</ele>
        <time>2023-11-05T09:38:50Z</time>
      </trkpt>
      <trkpt lat="43.50963" lon="6.63524">
        <ele>163.9</ele>
        <time>2023-11-05T09:38:51Z</time>
      </trkpt>
      <trkpt lat="43.50963" lon="6.63524">
        <ele>163.9</ele>
        <time>2023-11-05T09:38:52Z</time>
      </trkpt>
      <trkpt lat="43.50963" lon="6.63524">
        <ele>164</ele>
        <time>2023-11-05T09:38:53Z</time>
      </trkpt>
      <trkpt lat="43.50963" lon="6.63524">
        <ele>164</ele>
        <time>2023-11-05T09:38:54Z</time>
      </trkpt>
      <trkpt lat="43.50963" lon="6.63524">
        <ele>164</ele>
        <time>2023-11-05T09:38:55Z</time>
      </trkpt>
      <trkpt lat="43.50963" lon="6.63524">
        <ele>164.1</ele>
        <time>2023-11-05T09:38:56Z</time>
      </trkpt>
      <trkpt lat="43.50963" lon="6.63524">
        <ele>164.3</ele>
        <time>2023-11-05T09:38:57Z</time>
      </trkpt>
      <trkpt lat="43.50963" lon="6.63524">
        <ele>164.2</ele>
        <time>2023-11-05T09:38:58Z</time>
      </trkpt>
      <trkpt lat="43.50963" lon="6.63524">
        <ele>164.1</ele>
        <time>2023-11-05T09:38:59Z</time>
      </trkpt>
      <trkpt lat="43.50963" lon="6.63522">
        <ele>164</ele>
        <time>2023-11-05T09:39:00Z</time>
      </trkpt>
      <trkpt lat="43.50964" lon="6.63521">
        <ele>164</ele>
        <time>2023-11-05T09:39:01Z</time>
      </trkpt>
      <trkpt lat="43.50965" lon="6.63519">
        <ele>163.9</ele>
        <time>2023-11-05T09:39:02Z</time>
      </trkpt>
      <trkpt lat="43.50965" lon="6.63517">
        <ele>163.8</ele>
        <time>2023-11-05T09:39:03Z</time>
      </trkpt>
      <trkpt lat="43.50964" lon="6.63515">
        <ele>163.8</ele>
        <time>2023-11-05T09:39:04Z</time>
      </trkpt>
      <trkpt lat="43.50964" lon="6.63514">
        <ele>163.8</ele>
        <time>2023-11-05T09:39:05Z</time>
      </trkpt>
      <trkpt lat="43.50963" lon="6.63513">
        <ele>163.8</ele>
        <time>2023-11-05T09:39:06Z</time>
      </trkpt>
      <trkpt lat="43.50963" lon="6.63511">
        <ele>163.8</ele>
        <time>2023-11-05T09:39:07Z</time>
      </trkpt>
      <trkpt lat="43.50962" lon="6.6351">
        <ele>163.6</ele>
        <time>2023-11-05T09:39:08Z</time>
      </trkpt>
      <trkpt lat="43.50962" lon="6.63509">
        <ele>163.5</ele>
        <time>2023-11-05T09:39:09Z</time>
      </trkpt>
      <trkpt lat="43.50961" lon="6.63507">
        <ele>163.5</ele>
        <time>2023-11-05T09:39:10Z</time>
      </trkpt>
      <trkpt lat="43.5096" lon="6.63506">
        <ele>163.6</ele>
        <time>2023-11-05T09:39:11Z</time>
      </trkpt>
      <trkpt lat="43.50959" lon="6.63504">
        <ele>163.6</ele>
        <time>2023-11-05T09:39:12Z</time>
      </trkpt>
      <trkpt lat="43.50958" lon="6.63503">
        <ele>163.6</ele>
        <time>2023-11-05T09:39:13Z</time>
      </trkpt>
      <trkpt lat="43.50958" lon="6.63502">
        <ele>163.6</ele>
        <time>2023-11-05T09:39:14Z</time>
      </trkpt>
      <trkpt lat="43.50957" lon="6.635">
        <ele>163.6</ele>
        <time>2023-11-05T09:39:15Z</time>
      </trkpt>
      <trkpt lat="43.50957" lon="6.63499">
        <ele>163.7</ele>
        <time>2023-11-05T09:39:16Z</time>
      </trkpt>
      <trkpt lat="43.50957" lon="6.63498">
        <ele>163.7</ele>
        <time>2023-11-05T09:39:17Z</time>
      </trkpt>
      <trkpt lat="43.50956" lon="6.63497">
        <ele>163.6</ele>
        <time>2023-11-05T09:39:18Z</time>
      </trkpt>
      <trkpt lat="43.50956" lon="6.63496">
        <ele>163.6</ele>
        <time>2023-11-05T09:39:19Z</time>
      </trkpt>
      <trkpt lat="43.50956" lon="6.63495">
        <ele>163.6</ele>
        <time>2023-11-05T09:39:20Z</time>
      </trkpt>
      <trkpt lat="43.50956" lon="6.63495">
        <ele>163.5</ele>
        <time>2023-11-05T09:39:21Z</time>
      </trkpt>
      <trkpt lat="43.50956" lon="6.63495">
        <ele>163.4</ele>
        <time>2023-11-05T09:39:22Z</time>
      </trkpt>
      <trkpt lat="43.50956" lon="6.63494">
        <ele>163.4</ele>
        <time>2023-11-05T09:39:23Z</time>
      </trkpt>
      <trkpt lat="43.50956" lon="6.63495">
        <ele>163.5</ele>
        <time>2023-11-05T09:39:24Z</time>
      </trkpt>
      <trkpt lat="43.50956" lon="6.63495">
        <ele>163.6</ele>
        <time>2023-11-05T09:39:25Z</time>
      </trkpt>
      <trkpt lat="43.50955" lon="6.63495">
        <ele>163.7</ele>
        <time>2023-11-05T09:39:26Z</time>
      </trkpt>
      <trkpt lat="43.50955" lon="6.63495">
        <ele>163.8</ele>
        <time>2023-11-05T09:39:27Z</time>
      </trkpt>
      <trkpt lat="43.50956" lon="6.63494">
        <ele>163.8</ele>
        <time>2023-11-05T09:39:28Z</time>
      </trkpt>
      <trkpt lat="43.50956" lon="6.63494">
        <ele>163.9</ele>
        <time>2023-11-05T09:39:29Z</time>
      </trkpt>
      <trkpt lat="43.50956" lon="6.63494">
        <ele>163.8</ele>
        <time>2023-11-05T09:39:30Z</time>
      </trkpt>
      <trkpt lat="43.50956" lon="6.63493">
        <ele>163.8</ele>
        <time>2023-11-05T09:39:31Z</time>
      </trkpt>
      <trkpt lat="43.50955" lon="6.63492">
        <ele>163.8</ele>
        <time>2023-11-05T09:39:32Z</time>
      </trkpt>
      <trkpt lat="43.50955" lon="6.63491">
        <ele>163.8</ele>
        <time>2023-11-05T09:39:33Z</time>
      </trkpt>
      <trkpt lat="43.50955" lon="6.6349">
        <ele>163.9</ele>
        <time>2023-11-05T09:39:34Z</time>
      </trkpt>
      <trkpt lat="43.50954" lon="6.63488">
        <ele>163.9</ele>
        <time>2023-11-05T09:39:35Z</time>
      </trkpt>
      <trkpt lat="43.50954" lon="6.63487">
        <ele>163.7</ele>
        <time>2023-11-05T09:39:36Z</time>
      </trkpt>
      <trkpt lat="43.50953" lon="6.63486">
        <ele>163.7</ele>
        <time>2023-11-05T09:39:37Z</time>
      </trkpt>
      <trkpt lat="43.50953" lon="6.63484">
        <ele>163.6</ele>
        <time>2023-11-05T09:39:38Z</time>
      </trkpt>
      <trkpt lat="43.50952" lon="6.63483">
        <ele>163.5</ele>
        <time>2023-11-05T09:39:39Z</time>
      </trkpt>
      <trkpt lat="43.50952" lon="6.63482">
        <ele>163.4</ele>
        <time>2023-11-05T09:39:40Z</time>
      </trkpt>
      <trkpt lat="43.50951" lon="6.63481">
        <ele>163.4</ele>
        <time>2023-11-05T09:39:41Z</time>
      </trkpt>
      <trkpt lat="43.50951" lon="6.6348">
        <ele>163.3</ele>
        <time>2023-11-05T09:39:42Z</time>
      </trkpt>
      <trkpt lat="43.50951" lon="6.63478">
        <ele>163.3</ele>
        <time>2023-11-05T09:39:43Z</time>
      </trkpt>
      <trkpt lat="43.50951" lon="6.63477">
        <ele>163.1</ele>
        <time>2023-11-05T09:39:44Z</time>
      </trkpt>
      <trkpt lat="43.5095" lon="6.63476">
        <ele>162.9</ele>
        <time>2023-11-05T09:39:45Z</time>
      </trkpt>
      <trkpt lat="43.5095" lon="6.63475">
        <ele>163</ele>
        <time>2023-11-05T09:39:46Z</time>
      </trkpt>
      <trkpt lat="43.5095" lon="6.63473">
        <ele>163</ele>
        <time>2023-11-05T09:39:47Z</time>
      </trkpt>
      <trkpt lat="43.5095" lon="6.63472">
        <ele>163</ele>
        <time>2023-11-05T09:39:48Z</time>
      </trkpt>
      <trkpt lat="43.50949" lon="6.63471">
        <ele>163.1</ele>
        <time>2023-11-05T09:39:49Z</time>
      </trkpt>
      <trkpt lat="43.50949" lon="6.6347">
        <ele>163.1</ele>
        <time>2023-11-05T09:39:50Z</time>
      </trkpt>
      <trkpt lat="43.50948" lon="6.63469">
        <ele>163.3</ele>
        <time>2023-11-05T09:39:51Z</time>
      </trkpt>
      <trkpt lat="43.50947" lon="6.63467">
        <ele>163.2</ele>
        <time>2023-11-05T09:39:52Z</time>
      </trkpt>
      <trkpt lat="43.50946" lon="6.63466">
        <ele>163.1</ele>
        <time>2023-11-05T09:39:53Z</time>
      </trkpt>
      <trkpt lat="43.50945" lon="6.63466">
        <ele>163.1</ele>
        <time>2023-11-05T09:39:54Z</time>
      </trkpt>
      <trkpt lat="43.50944" lon="6.63465">
        <ele>163.1</ele>
        <time>2023-11-05T09:39:55Z</time>
      </trkpt>
      <trkpt lat="43.50942" lon="6.63464">
        <ele>163.1</ele>
        <time>2023-11-05T09:39:56Z</time>
      </trkpt>
      <trkpt lat="43.50941" lon="6.63464">
        <ele>163.2</ele>
        <time>2023-11-05T09:39:57Z</time>
      </trkpt>
      <trkpt lat="43.5094" lon="6.63463">
        <ele>163.2</ele>
        <time>2023-11-05T09:39:58Z</time>
      </trkpt>
      <trkpt lat="43.50938" lon="6.63462">
        <ele>163.2</ele>
        <time>2023-11-05T09:39:59Z</time>
      </trkpt>
      <trkpt lat="43.50937" lon="6.63462">
        <ele>163.3</ele>
        <time>2023-11-05T09:40:00Z</time>
      </trkpt>
      <trkpt lat="43.50936" lon="6.63461">
        <ele>163.3</ele>
        <time>2023-11-05T09:40:01Z</time>
      </trkpt>
      <trkpt lat="43.50935" lon="6.6346">
        <ele>163.3</ele>
        <time>2023-11-05T09:40:02Z</time>
      </trkpt>
      <trkpt lat="43.50934" lon="6.6346">
        <ele>163.3</ele>
        <time>2023-11-05T09:40:03Z</time>
      </trkpt>
      <trkpt lat="43.50933" lon="6.63459">
        <ele>163.4</ele>
        <time>2023-11-05T09:40:04Z</time>
      </trkpt>
      <trkpt lat="43.50932" lon="6.63458">
        <ele>163.5</ele>
        <time>2023-11-05T09:40:05Z</time>
      </trkpt>
      <trkpt lat="43.50932" lon="6.63457">
        <ele>163.7</ele>
        <time>2023-11-05T09:40:06Z</time>
      </trkpt>
      <trkpt lat="43.50931" lon="6.63457">
        <ele>163.8</ele>
        <time>2023-11-05T09:40:07Z</time>
      </trkpt>
      <trkpt lat="43.5093" lon="6.63455">
        <ele>164</ele>
        <time>2023-11-05T09:40:08Z</time>
      </trkpt>
      <trkpt lat="43.50929" lon="6.63454">
        <ele>164.1</ele>
        <time>2023-11-05T09:40:09Z</time>
      </trkpt>
      <trkpt lat="43.50928" lon="6.63454">
        <ele>164.1</ele>
        <time>2023-11-05T09:40:10Z</time>
      </trkpt>
      <trkpt lat="43.50928" lon="6.63454">
        <ele>164</ele>
        <time>2023-11-05T09:40:11Z</time>
      </trkpt>
      <trkpt lat="43.50927" lon="6.63453">
        <ele>163.9</ele>
        <time>2023-11-05T09:40:12Z</time>
      </trkpt>
      <trkpt lat="43.50926" lon="6.63453">
        <ele>163.9</ele>
        <time>2023-11-05T09:40:13Z</time>
      </trkpt>
      <trkpt lat="43.50926" lon="6.63452">
        <ele>163.9</ele>
        <time>2023-11-05T09:40:14Z</time>
      </trkpt>
      <trkpt lat="43.50925" lon="6.63451">
        <ele>163.9</ele>
        <time>2023-11-05T09:40:15Z</time>
      </trkpt>
      <trkpt lat="43.50924" lon="6.6345">
        <ele>163.9</ele>
        <time>2023-11-05T09:40:16Z</time>
      </trkpt>
      <trkpt lat="43.50923" lon="6.63449">
        <ele>163.8</ele>
        <time>2023-11-05T09:40:17Z</time>
      </trkpt>
      <trkpt lat="43.50922" lon="6.63448">
        <ele>163.7</ele>
        <time>2023-11-05T09:40:18Z</time>
      </trkpt>
      <trkpt lat="43.50921" lon="6.63447">
        <ele>163.7</ele>
        <time>2023-11-05T09:40:19Z</time>
      </trkpt>
      <trkpt lat="43.50921" lon="6.63447">
        <ele>163.7</ele>
        <time>2023-11-05T09:40:20Z</time>
      </trkpt>
      <trkpt lat="43.5092" lon="6.63446">
        <ele>163.8</ele>
        <time>2023-11-05T09:40:21Z</time>
      </trkpt>
      <trkpt lat="43.50919" lon="6.63445">
        <ele>163.8</ele>
        <time>2023-11-05T09:40:22Z</time>
      </trkpt>
      <trkpt lat="43.50918" lon="6.63444">
        <ele>164.1</ele>
        <time>2023-11-05T09:40:23Z</time>
      </trkpt>
      <trkpt lat="43.50917" lon="6.63443">
        <ele>164.2</ele>
        <time>2023-11-05T09:40:24Z</time>
      </trkpt>
      <trkpt lat="43.50916" lon="6.63443">
        <ele>164.3</ele>
        <time>2023-11-05T09:40:25Z</time>
      </trkpt>
      <trkpt lat="43.50915" lon="6.63442">
        <ele>164.1</ele>
        <time>2023-11-05T09:40:26Z</time>
      </trkpt>
      <trkpt lat="43.50915" lon="6.63441">
        <ele>164.1</ele>
        <time>2023-11-05T09:40:27Z</time>
      </trkpt>
      <trkpt lat="43.50914" lon="6.6344">
        <ele>164.1</ele>
        <time>2023-11-05T09:40:28Z</time>
      </trkpt>
      <trkpt lat="43.50913" lon="6.6344">
        <ele>164.4</ele>
        <time>2023-11-05T09:40:29Z</time>
      </trkpt>
      <trkpt lat="43.50912" lon="6.63439">
        <ele>164.6</ele>
        <time>2023-11-05T09:40:30Z</time>
      </trkpt>
      <trkpt lat="43.50911" lon="6.63438">
        <ele>164.7</ele>
        <time>2023-11-05T09:40:31Z</time>
      </trkpt>
      <trkpt lat="43.50911" lon="6.63437">
        <ele>164.8</ele>
        <time>2023-11-05T09:40:32Z</time>
      </trkpt>
      <trkpt lat="43.5091" lon="6.63436">
        <ele>164.9</ele>
        <time>2023-11-05T09:40:33Z</time>
      </trkpt>
      <trkpt lat="43.50909" lon="6.63435">
        <ele>164.6</ele>
        <time>2023-11-05T09:40:34Z</time>
      </trkpt>
      <trkpt lat="43.50908" lon="6.63434">
        <ele>164.7</ele>
        <time>2023-11-05T09:40:35Z</time>
      </trkpt>
      <trkpt lat="43.50907" lon="6.63433">
        <ele>164.9</ele>
        <time>2023-11-05T09:40:36Z</time>
      </trkpt>
      <trkpt lat="43.50906" lon="6.63433">
        <ele>165.2</ele>
        <time>2023-11-05T09:40:37Z</time>
      </trkpt>
      <trkpt lat="43.50905" lon="6.63433">
        <ele>165.3</ele>
        <time>2023-11-05T09:40:38Z</time>
      </trkpt>
      <trkpt lat="43.50904" lon="6.63432">
        <ele>165.6</ele>
        <time>2023-11-05T09:40:39Z</time>
      </trkpt>
      <trkpt lat="43.50903" lon="6.63431">
        <ele>165.8</ele>
        <time>2023-11-05T09:40:40Z</time>
      </trkpt>
      <trkpt lat="43.50903" lon="6.6343">
        <ele>165.9</ele>
        <time>2023-11-05T09:40:41Z</time>
      </trkpt>
      <trkpt lat="43.50902" lon="6.63428">
        <ele>166.1</ele>
        <time>2023-11-05T09:40:42Z</time>
      </trkpt>
      <trkpt lat="43.50901" lon="6.63427">
        <ele>166.3</ele>
        <time>2023-11-05T09:40:43Z</time>
      </trkpt>
      <trkpt lat="43.509" lon="6.63427">
        <ele>166.5</ele>
        <time>2023-11-05T09:40:44Z</time>
      </trkpt>
      <trkpt lat="43.509" lon="6.63426">
        <ele>166.6</ele>
        <time>2023-11-05T09:40:45Z</time>
      </trkpt>
      <trkpt lat="43.50899" lon="6.63425">
        <ele>166.7</ele>
        <time>2023-11-05T09:40:46Z</time>
      </trkpt>
      <trkpt lat="43.50898" lon="6.63424">
        <ele>166.9</ele>
        <time>2023-11-05T09:40:47Z</time>
      </trkpt>
      <trkpt lat="43.50897" lon="6.63423">
        <ele>167.1</ele>
        <time>2023-11-05T09:40:48Z</time>
      </trkpt>
      <trkpt lat="43.50896" lon="6.63423">
        <ele>167.3</ele>
        <time>2023-11-05T09:40:49Z</time>
      </trkpt>
      <trkpt lat="43.50895" lon="6.63422">
        <ele>167.5</ele>
        <time>2023-11-05T09:40:50Z</time>
      </trkpt>
      <trkpt lat="43.50895" lon="6.63422">
        <ele>167.6</ele>
        <time>2023-11-05T09:40:51Z</time>
      </trkpt>
      <trkpt lat="43.50894" lon="6.63421">
        <ele>167.7</ele>
        <time>2023-11-05T09:40:52Z</time>
      </trkpt>
      <trkpt lat="43.50893" lon="6.6342">
        <ele>167.9</ele>
        <time>2023-11-05T09:40:53Z</time>
      </trkpt>
      <trkpt lat="43.50892" lon="6.63419">
        <ele>167.9</ele>
        <time>2023-11-05T09:40:54Z</time>
      </trkpt>
      <trkpt lat="43.50891" lon="6.63419">
        <ele>168</ele>
        <time>2023-11-05T09:40:55Z</time>
      </trkpt>
      <trkpt lat="43.5089" lon="6.63418">
        <ele>168.1</ele>
        <time>2023-11-05T09:40:56Z</time>
      </trkpt>
      <trkpt lat="43.5089" lon="6.63417">
        <ele>168.4</ele>
        <time>2023-11-05T09:40:57Z</time>
      </trkpt>
      <trkpt lat="43.50889" lon="6.63417">
        <ele>168.8</ele>
        <time>2023-11-05T09:40:58Z</time>
      </trkpt>
      <trkpt lat="43.50888" lon="6.63417">
        <ele>169</ele>
        <time>2023-11-05T09:40:59Z</time>
      </trkpt>
      <trkpt lat="43.50888" lon="6.63416">
        <ele>169.2</ele>
        <time>2023-11-05T09:41:00Z</time>
      </trkpt>
      <trkpt lat="43.50887" lon="6.63414">
        <ele>169.3</ele>
        <time>2023-11-05T09:41:01Z</time>
      </trkpt>
      <trkpt lat="43.50886" lon="6.63413">
        <ele>169.4</ele>
        <time>2023-11-05T09:41:02Z</time>
      </trkpt>
      <trkpt lat="43.50885" lon="6.63413">
        <ele>169.4</ele>
        <time>2023-11-05T09:41:03Z</time>
      </trkpt>
      <trkpt lat="43.50885" lon="6.63412">
        <ele>169.5</ele>
        <time>2023-11-05T09:41:04Z</time>
      </trkpt>
      <trkpt lat="43.50884" lon="6.63411">
        <ele>169.5</ele>
        <time>2023-11-05T09:41:05Z</time>
      </trkpt>
      <trkpt lat="43.50883" lon="6.6341">
        <ele>169.5</ele>
        <time>2023-11-05T09:41:06Z</time>
      </trkpt>
      <trkpt lat="43.50882" lon="6.63409">
        <ele>169.6</ele>
        <time>2023-11-05T09:41:07Z</time>
      </trkpt>
      <trkpt lat="43.50881" lon="6.63409">
        <ele>169.6</ele>
        <time>2023-11-05T09:41:08Z</time>
      </trkpt>
      <trkpt lat="43.5088" lon="6.63408">
        <ele>169.7</ele>
        <time>2023-11-05T09:41:09Z</time>
      </trkpt>
      <trkpt lat="43.50879" lon="6.63407">
        <ele>169.8</ele>
        <time>2023-11-05T09:41:10Z</time>
      </trkpt>
      <trkpt lat="43.50878" lon="6.63406">
        <ele>169.9</ele>
        <time>2023-11-05T09:41:11Z</time>
      </trkpt>
      <trkpt lat="43.50877" lon="6.63405">
        <ele>170.1</ele>
        <time>2023-11-05T09:41:12Z</time>
      </trkpt>
      <trkpt lat="43.50876" lon="6.63404">
        <ele>170.2</ele>
        <time>2023-11-05T09:41:13Z</time>
      </trkpt>
      <trkpt lat="43.50876" lon="6.63403">
        <ele>170.4</ele>
        <time>2023-11-05T09:41:14Z</time>
      </trkpt>
      <trkpt lat="43.50875" lon="6.63402">
        <ele>170.5</ele>
        <time>2023-11-05T09:41:15Z</time>
      </trkpt>
      <trkpt lat="43.50874" lon="6.63401">
        <ele>170.7</ele>
        <time>2023-11-05T09:41:16Z</time>
      </trkpt>
      <trkpt lat="43.50873" lon="6.634">
        <ele>170.9</ele>
        <time>2023-11-05T09:41:17Z</time>
      </trkpt>
      <trkpt lat="43.50872" lon="6.63399">
        <ele>171.1</ele>
        <time>2023-11-05T09:41:18Z</time>
      </trkpt>
      <trkpt lat="43.50871" lon="6.63399">
        <ele>171.2</ele>
        <time>2023-11-05T09:41:19Z</time>
      </trkpt>
      <trkpt lat="43.50871" lon="6.63398">
        <ele>171.4</ele>
        <time>2023-11-05T09:41:20Z</time>
      </trkpt>
      <trkpt lat="43.5087" lon="6.63397">
        <ele>171.6</ele>
        <time>2023-11-05T09:41:21Z</time>
      </trkpt>
      <trkpt lat="43.50869" lon="6.63397">
        <ele>171.7</ele>
        <time>2023-11-05T09:41:22Z</time>
      </trkpt>
      <trkpt lat="43.50868" lon="6.63396">
        <ele>171.8</ele>
        <time>2023-11-05T09:41:23Z</time>
      </trkpt>
      <trkpt lat="43.50867" lon="6.63395">
        <ele>172</ele>
        <time>2023-11-05T09:41:24Z</time>
      </trkpt>
      <trkpt lat="43.50866" lon="6.63394">
        <ele>172.2</ele>
        <time>2023-11-05T09:41:25Z</time>
      </trkpt>
      <trkpt lat="43.50865" lon="6.63393">
        <ele>172.5</ele>
        <time>2023-11-05T09:41:26Z</time>
      </trkpt>
      <trkpt lat="43.50865" lon="6.63393">
        <ele>172.7</ele>
        <time>2023-11-05T09:41:27Z</time>
      </trkpt>
      <trkpt lat="43.50864" lon="6.63392">
        <ele>172.7</ele>
        <time>2023-11-05T09:41:28Z</time>
      </trkpt>
      <trkpt lat="43.50864" lon="6.63392">
        <ele>172.9</ele>
        <time>2023-11-05T09:41:29Z</time>
      </trkpt>
      <trkpt lat="43.50863" lon="6.63391">
        <ele>172.7</ele>
        <time>2023-11-05T09:41:30Z</time>
      </trkpt>
      <trkpt lat="43.50862" lon="6.6339">
        <ele>172.6</ele>
        <time>2023-11-05T09:41:31Z</time>
      </trkpt>
      <trkpt lat="43.50861" lon="6.6339">
        <ele>172.8</ele>
        <time>2023-11-05T09:41:32Z</time>
      </trkpt>
      <trkpt lat="43.5086" lon="6.63389">
        <ele>173.1</ele>
        <time>2023-11-05T09:41:33Z</time>
      </trkpt>
      <trkpt lat="43.5086" lon="6.63388">
        <ele>173.3</ele>
        <time>2023-11-05T09:41:34Z</time>
      </trkpt>
      <trkpt lat="43.50859" lon="6.63388">
        <ele>173.5</ele>
        <time>2023-11-05T09:41:35Z</time>
      </trkpt>
      <trkpt lat="43.50858" lon="6.63387">
        <ele>173.7</ele>
        <time>2023-11-05T09:41:36Z</time>
      </trkpt>
      <trkpt lat="43.50857" lon="6.63386">
        <ele>173.6</ele>
        <time>2023-11-05T09:41:37Z</time>
      </trkpt>
      <trkpt lat="43.50856" lon="6.63386">
        <ele>173.9</ele>
        <time>2023-11-05T09:41:38Z</time>
      </trkpt>
      <trkpt lat="43.50855" lon="6.63385">
        <ele>174</ele>
        <time>2023-11-05T09:41:39Z</time>
      </trkpt>
      <trkpt lat="43.50854" lon="6.63385">
        <ele>173.9</ele>
        <time>2023-11-05T09:41:40Z</time>
      </trkpt>
      <trkpt lat="43.50853" lon="6.63385">
        <ele>173.9</ele>
        <time>2023-11-05T09:41:41Z</time>
      </trkpt>
      <trkpt lat="43.50852" lon="6.63385">
        <ele>173.9</ele>
        <time>2023-11-05T09:41:42Z</time>
      </trkpt>
      <trkpt lat="43.50852" lon="6.63385">
        <ele>174.1</ele>
        <time>2023-11-05T09:41:43Z</time>
      </trkpt>
      <trkpt lat="43.50851" lon="6.63385">
        <ele>174.4</ele>
        <time>2023-11-05T09:41:44Z</time>
      </trkpt>
      <trkpt lat="43.5085" lon="6.63386">
        <ele>174.5</ele>
        <time>2023-11-05T09:41:45Z</time>
      </trkpt>
      <trkpt lat="43.5085" lon="6.63386">
        <ele>174.6</ele>
        <time>2023-11-05T09:41:46Z</time>
      </trkpt>
      <trkpt lat="43.5085" lon="6.63386">
        <ele>174.6</ele>
        <time>2023-11-05T09:41:47Z</time>
      </trkpt>
      <trkpt lat="43.50849" lon="6.63387">
        <ele>174.7</ele>
        <time>2023-11-05T09:41:48Z</time>
      </trkpt>
      <trkpt lat="43.50849" lon="6.63387">
        <ele>174.8</ele>
        <time>2023-11-05T09:41:49Z</time>
      </trkpt>
      <trkpt lat="43.50849" lon="6.63387">
        <ele>175</ele>
        <time>2023-11-05T09:41:50Z</time>
      </trkpt>
      <trkpt lat="43.50849" lon="6.63387">
        <ele>175</ele>
        <time>2023-11-05T09:41:51Z</time>
      </trkpt>
      <trkpt lat="43.50849" lon="6.63387">
        <ele>175.1</ele>
        <time>2023-11-05T09:41:52Z</time>
      </trkpt>
      <trkpt lat="43.50849" lon="6.63387">
        <ele>175</ele>
        <time>2023-11-05T09:41:53Z</time>
      </trkpt>
      <trkpt lat="43.50849" lon="6.63387">
        <ele>174.9</ele>
        <time>2023-11-05T09:41:54Z</time>
      </trkpt>
      <trkpt lat="43.50849" lon="6.63387">
        <ele>174.9</ele>
        <time>2023-11-05T09:41:55Z</time>
      </trkpt>
      <trkpt lat="43.50849" lon="6.63387">
        <ele>174.9</ele>
        <time>2023-11-05T09:41:56Z</time>
      </trkpt>
      <trkpt lat="43.50849" lon="6.63387">
        <ele>174.9</ele>
        <time>2023-11-05T09:41:57Z</time>
      </trkpt>
      <trkpt lat="43.50848" lon="6.63387">
        <ele>174.9</ele>
        <time>2023-11-05T09:41:58Z</time>
      </trkpt>
      <trkpt lat="43.50848" lon="6.63387">
        <ele>174.9</ele>
        <time>2023-11-05T09:41:59Z</time>
      </trkpt>
      <trkpt lat="43.50848" lon="6.63387">
        <ele>175.1</ele>
        <time>2023-11-05T09:42:00Z</time>
      </trkpt>
      <trkpt lat="43.50848" lon="6.63388">
        <ele>175.2</ele>
        <time>2023-11-05T09:42:01Z</time>
      </trkpt>
      <trkpt lat="43.50848" lon="6.63387">
        <ele>175.3</ele>
        <time>2023-11-05T09:42:02Z</time>
      </trkpt>
      <trkpt lat="43.50848" lon="6.63388">
        <ele>175.4</ele>
        <time>2023-11-05T09:42:03Z</time>
      </trkpt>
      <trkpt lat="43.50848" lon="6.63388">
        <ele>175.4</ele>
        <time>2023-11-05T09:42:04Z</time>
      </trkpt>
      <trkpt lat="43.50848" lon="6.63388">
        <ele>175.4</ele>
        <time>2023-11-05T09:42:05Z</time>
      </trkpt>
      <trkpt lat="43.50848" lon="6.63389">
        <ele>175.3</ele>
        <time>2023-11-05T09:42:06Z</time>
      </trkpt>
      <trkpt lat="43.50848" lon="6.63389">
        <ele>175.2</ele>
        <time>2023-11-05T09:42:07Z</time>
      </trkpt>
      <trkpt lat="43.50848" lon="6.63389">
        <ele>175.1</ele>
        <time>2023-11-05T09:42:08Z</time>
      </trkpt>
      <trkpt lat="43.50848" lon="6.63389">
        <ele>175.1</ele>
        <time>2023-11-05T09:42:09Z</time>
      </trkpt>
      <trkpt lat="43.50848" lon="6.63389">
        <ele>175</ele>
        <time>2023-11-05T09:42:10Z</time>
      </trkpt>
      <trkpt lat="43.50848" lon="6.63389">
        <ele>175.2</ele>
        <time>2023-11-05T09:42:11Z</time>
      </trkpt>
      <trkpt lat="43.50848" lon="6.6339">
        <ele>175.2</ele>
        <time>2023-11-05T09:42:12Z</time>
      </trkpt>
      <trkpt lat="43.50847" lon="6.6339">
        <ele>175.2</ele>
        <time>2023-11-05T09:42:13Z</time>
      </trkpt>
      <trkpt lat="43.50847" lon="6.6339">
        <ele>175.2</ele>
        <time>2023-11-05T09:42:14Z</time>
      </trkpt>
      <trkpt lat="43.50848" lon="6.63389">
        <ele>175.2</ele>
        <time>2023-11-05T09:42:15Z</time>
      </trkpt>
      <trkpt lat="43.50848" lon="6.63389">
        <ele>175.2</ele>
        <time>2023-11-05T09:42:16Z</time>
      </trkpt>
      <trkpt lat="43.50847" lon="6.6339">
        <ele>175.2</ele>
        <time>2023-11-05T09:42:17Z</time>
      </trkpt>
      <trkpt lat="43.50847" lon="6.6339">
        <ele>175.1</ele>
        <time>2023-11-05T09:42:18Z</time>
      </trkpt>
      <trkpt lat="43.50847" lon="6.6339">
        <ele>175</ele>
        <time>2023-11-05T09:42:19Z</time>
      </trkpt>
      <trkpt lat="43.50847" lon="6.6339">
        <ele>175</ele>
        <time>2023-11-05T09:42:20Z</time>
      </trkpt>
      <trkpt lat="43.50847" lon="6.63389">
        <ele>174.9</ele>
        <time>2023-11-05T09:42:21Z</time>
      </trkpt>
      <trkpt lat="43.50847" lon="6.63389">
        <ele>174.9</ele>
        <time>2023-11-05T09:42:22Z</time>
      </trkpt>
      <trkpt lat="43.50847" lon="6.63389">
        <ele>174.8</ele>
        <time>2023-11-05T09:42:23Z</time>
      </trkpt>
      <trkpt lat="43.50847" lon="6.63389">
        <ele>174.9</ele>
        <time>2023-11-05T09:42:24Z</time>
      </trkpt>
      <trkpt lat="43.50847" lon="6.63389">
        <ele>175</ele>
        <time>2023-11-05T09:42:25Z</time>
      </trkpt>
      <trkpt lat="43.50847" lon="6.63389">
        <ele>175</ele>
        <time>2023-11-05T09:42:26Z</time>
      </trkpt>
      <trkpt lat="43.50847" lon="6.63388">
        <ele>175</ele>
        <time>2023-11-05T09:42:27Z</time>
      </trkpt>
      <trkpt lat="43.50846" lon="6.63388">
        <ele>175.1</ele>
        <time>2023-11-05T09:42:28Z</time>
      </trkpt>
      <trkpt lat="43.50846" lon="6.63388">
        <ele>175.1</ele>
        <time>2023-11-05T09:42:29Z</time>
      </trkpt>
      <trkpt lat="43.50846" lon="6.63388">
        <ele>175.1</ele>
        <time>2023-11-05T09:42:30Z</time>
      </trkpt>
      <trkpt lat="43.50846" lon="6.63388">
        <ele>175.1</ele>
        <time>2023-11-05T09:42:31Z</time>
      </trkpt>
      <trkpt lat="43.50846" lon="6.63388">
        <ele>175.1</ele>
        <time>2023-11-05T09:42:32Z</time>
      </trkpt>
      <trkpt lat="43.50846" lon="6.63388">
        <ele>175.1</ele>
        <time>2023-11-05T09:42:33Z</time>
      </trkpt>
      <trkpt lat="43.50846" lon="6.63388">
        <ele>175</ele>
        <time>2023-11-05T09:42:34Z</time>
      </trkpt>
      <trkpt lat="43.50846" lon="6.63387">
        <ele>175</ele>
        <time>2023-11-05T09:42:35Z</time>
      </trkpt>
      <trkpt lat="43.50846" lon="6.63387">
        <ele>174.9</ele>
        <time>2023-11-05T09:42:36Z</time>
      </trkpt>
      <trkpt lat="43.50846" lon="6.63387">
        <ele>174.9</ele>
        <time>2023-11-05T09:42:37Z</time>
      </trkpt>
      <trkpt lat="43.50846" lon="6.63387">
        <ele>174.8</ele>
        <time>2023-11-05T09:42:38Z</time>
      </trkpt>
      <trkpt lat="43.50846" lon="6.63387">
        <ele>175</ele>
        <time>2023-11-05T09:42:39Z</time>
      </trkpt>
      <trkpt lat="43.50846" lon="6.63387">
        <ele>175</ele>
        <time>2023-11-05T09:42:40Z</time>
      </trkpt>
      <trkpt lat="43.50846" lon="6.63387">
        <ele>175.1</ele>
        <time>2023-11-05T09:42:41Z</time>
      </trkpt>
      <trkpt lat="43.50846" lon="6.63387">
        <ele>175.2</ele>
        <time>2023-11-05T09:42:42Z</time>
      </trkpt>
      <trkpt lat="43.50846" lon="6.63387">
        <ele>175.2</ele>
        <time>2023-11-05T09:42:43Z</time>
      </trkpt>
      <trkpt lat="43.50846" lon="6.63387">
        <ele>175.1</ele>
        <time>2023-11-05T09:42:44Z</time>
      </trkpt>
      <trkpt lat="43.50845" lon="6.63388">
        <ele>175</ele>
        <time>2023-11-05T09:42:45Z</time>
      </trkpt>
      <trkpt lat="43.50845" lon="6.63389">
        <ele>174.9</ele>
        <time>2023-11-05T09:42:46Z</time>
      </trkpt>
      <trkpt lat="43.50845" lon="6.6339">
        <ele>174.8</ele>
        <time>2023-11-05T09:42:47Z</time>
      </trkpt>
      <trkpt lat="43.50846" lon="6.63391">
        <ele>174.7</ele>
        <time>2023-11-05T09:42:48Z</time>
      </trkpt>
      <trkpt lat="43.50846" lon="6.63391">
        <ele>174.7</ele>
        <time>2023-11-05T09:42:49Z</time>
      </trkpt>
      <trkpt lat="43.50847" lon="6.63392">
        <ele>174.6</ele>
        <time>2023-11-05T09:42:50Z</time>
      </trkpt>
      <trkpt lat="43.50847" lon="6.63392">
        <ele>175.1</ele>
        <time>2023-11-05T09:42:51Z</time>
      </trkpt>
      <trkpt lat="43.50847" lon="6.63393">
        <ele>175.1</ele>
        <time>2023-11-05T09:42:52Z</time>
      </trkpt>
      <trkpt lat="43.50847" lon="6.63393">
        <ele>175.1</ele>
        <time>2023-11-05T09:42:53Z</time>
      </trkpt>
      <trkpt lat="43.50847" lon="6.63394">
        <ele>175.2</ele>
        <time>2023-11-05T09:42:54Z</time>
      </trkpt>
      <trkpt lat="43.50848" lon="6.63395">
        <ele>175.1</ele>
        <time>2023-11-05T09:42:55Z</time>
      </trkpt>
      <trkpt lat="43.50848" lon="6.63397">
        <ele>175.1</ele>
        <time>2023-11-05T09:42:56Z</time>
      </trkpt>
      <trkpt lat="43.50849" lon="6.63398">
        <ele>175.1</ele>
        <time>2023-11-05T09:42:57Z</time>
      </trkpt>
      <trkpt lat="43.50849" lon="6.634">
        <ele>175.2</ele>
        <time>2023-11-05T09:42:58Z</time>
      </trkpt>
      <trkpt lat="43.5085" lon="6.63401">
        <ele>175.1</ele>
        <time>2023-11-05T09:42:59Z</time>
      </trkpt>
      <trkpt lat="43.5085" lon="6.63403">
        <ele>175.1</ele>
        <time>2023-11-05T09:43:00Z</time>
      </trkpt>
      <trkpt lat="43.50851" lon="6.63404">
        <ele>175.1</ele>
        <time>2023-11-05T09:43:01Z</time>
      </trkpt>
      <trkpt lat="43.50852" lon="6.63405">
        <ele>175.1</ele>
        <time>2023-11-05T09:43:02Z</time>
      </trkpt>
      <trkpt lat="43.50852" lon="6.63406">
        <ele>175</ele>
        <time>2023-11-05T09:43:03Z</time>
      </trkpt>
      <trkpt lat="43.50852" lon="6.63407">
        <ele>175.1</ele>
        <time>2023-11-05T09:43:04Z</time>
      </trkpt>
      <trkpt lat="43.50853" lon="6.63409">
        <ele>175.1</ele>
        <time>2023-11-05T09:43:05Z</time>
      </trkpt>
      <trkpt lat="43.50853" lon="6.6341">
        <ele>175.1</ele>
        <time>2023-11-05T09:43:06Z</time>
      </trkpt>
      <trkpt lat="43.50854" lon="6.63412">
        <ele>175.1</ele>
        <time>2023-11-05T09:43:07Z</time>
      </trkpt>
      <trkpt lat="43.50854" lon="6.63413">
        <ele>175.2</ele>
        <time>2023-11-05T09:43:08Z</time>
      </trkpt>
      <trkpt lat="43.50855" lon="6.63414">
        <ele>175.4</ele>
        <time>2023-11-05T09:43:09Z</time>
      </trkpt>
      <trkpt lat="43.50855" lon="6.63416">
        <ele>175.6</ele>
        <time>2023-11-05T09:43:10Z</time>
      </trkpt>
      <trkpt lat="43.50855" lon="6.63417">
        <ele>175.7</ele>
        <time>2023-11-05T09:43:11Z</time>
      </trkpt>
      <trkpt lat="43.50855" lon="6.63419">
        <ele>175.9</ele>
        <time>2023-11-05T09:43:12Z</time>
      </trkpt>
      <trkpt lat="43.50855" lon="6.6342">
        <ele>176.1</ele>
        <time>2023-11-05T09:43:13Z</time>
      </trkpt>
      <trkpt lat="43.50856" lon="6.63422">
        <ele>175.9</ele>
        <time>2023-11-05T09:43:14Z</time>
      </trkpt>
      <trkpt lat="43.50856" lon="6.63423">
        <ele>175.7</ele>
        <time>2023-11-05T09:43:15Z</time>
      </trkpt>
      <trkpt lat="43.50856" lon="6.63424">
        <ele>175.7</ele>
        <time>2023-11-05T09:43:16Z</time>
      </trkpt>
      <trkpt lat="43.50856" lon="6.63425">
        <ele>175.7</ele>
        <time>2023-11-05T09:43:17Z</time>
      </trkpt>
      <trkpt lat="43.50857" lon="6.63426">
        <ele>175.7</ele>
        <time>2023-11-05T09:43:18Z</time>
      </trkpt>
      <trkpt lat="43.50857" lon="6.63427">
        <ele>175.7</ele>
        <time>2023-11-05T09:43:19Z</time>
      </trkpt>
      <trkpt lat="43.50857" lon="6.63428">
        <ele>175.7</ele>
        <time>2023-11-05T09:43:20Z</time>
      </trkpt>
      <trkpt lat="43.50857" lon="6.6343">
        <ele>175.7</ele>
        <time>2023-11-05T09:43:21Z</time>
      </trkpt>
      <trkpt lat="43.50857" lon="6.63431">
        <ele>175.7</ele>
        <time>2023-11-05T09:43:22Z</time>
      </trkpt>
      <trkpt lat="43.50857" lon="6.63433">
        <ele>176.1</ele>
        <time>2023-11-05T09:43:23Z</time>
      </trkpt>
      <trkpt lat="43.50857" lon="6.63434">
        <ele>176.4</ele>
        <time>2023-11-05T09:43:24Z</time>
      </trkpt>
      <trkpt lat="43.50858" lon="6.63435">
        <ele>176.4</ele>
        <time>2023-11-05T09:43:25Z</time>
      </trkpt>
      <trkpt lat="43.50858" lon="6.63437">
        <ele>176.4</ele>
        <time>2023-11-05T09:43:26Z</time>
      </trkpt>
      <trkpt lat="43.50858" lon="6.63438">
        <ele>176.4</ele>
        <time>2023-11-05T09:43:27Z</time>
      </trkpt>
      <trkpt lat="43.50858" lon="6.6344">
        <ele>176.3</ele>
        <time>2023-11-05T09:43:28Z</time>
      </trkpt>
      <trkpt lat="43.50858" lon="6.63441">
        <ele>176.4</ele>
        <time>2023-11-05T09:43:29Z</time>
      </trkpt>
      <trkpt lat="43.50858" lon="6.63442">
        <ele>176.4</ele>
        <time>2023-11-05T09:43:30Z</time>
      </trkpt>
      <trkpt lat="43.50858" lon="6.63444">
        <ele>176.4</ele>
        <time>2023-11-05T09:43:31Z</time>
      </trkpt>
      <trkpt lat="43.50858" lon="6.63445">
        <ele>176.5</ele>
        <time>2023-11-05T09:43:32Z</time>
      </trkpt>
      <trkpt lat="43.50858" lon="6.63446">
        <ele>176.6</ele>
        <time>2023-11-05T09:43:33Z</time>
      </trkpt>
      <trkpt lat="43.50858" lon="6.63448">
        <ele>176.7</ele>
        <time>2023-11-05T09:43:34Z</time>
      </trkpt>
      <trkpt lat="43.50859" lon="6.63449">
        <ele>176.6</ele>
        <time>2023-11-05T09:43:35Z</time>
      </trkpt>
      <trkpt lat="43.50858" lon="6.63451">
        <ele>176.6</ele>
        <time>2023-11-05T09:43:36Z</time>
      </trkpt>
      <trkpt lat="43.50859" lon="6.63453">
        <ele>176.8</ele>
        <time>2023-11-05T09:43:37Z</time>
      </trkpt>
      <trkpt lat="43.50859" lon="6.63454">
        <ele>176.7</ele>
        <time>2023-11-05T09:43:38Z</time>
      </trkpt>
      <trkpt lat="43.50859" lon="6.63455">
        <ele>176.8</ele>
        <time>2023-11-05T09:43:39Z</time>
      </trkpt>
      <trkpt lat="43.50859" lon="6.63457">
        <ele>176.8</ele>
        <time>2023-11-05T09:43:40Z</time>
      </trkpt>
      <trkpt lat="43.50859" lon="6.63458">
        <ele>176.8</ele>
        <time>2023-11-05T09:43:41Z</time>
      </trkpt>
      <trkpt lat="43.50859" lon="6.6346">
        <ele>176.8</ele>
        <time>2023-11-05T09:43:42Z</time>
      </trkpt>
      <trkpt lat="43.50859" lon="6.63461">
        <ele>176.9</ele>
        <time>2023-11-05T09:43:43Z</time>
      </trkpt>
      <trkpt lat="43.50859" lon="6.63463">
        <ele>177.1</ele>
        <time>2023-11-05T09:43:44Z</time>
      </trkpt>
      <trkpt lat="43.50859" lon="6.63464">
        <ele>177.1</ele>
        <time>2023-11-05T09:43:45Z</time>
      </trkpt>
      <trkpt lat="43.50859" lon="6.63466">
        <ele>177.2</ele>
        <time>2023-11-05T09:43:46Z</time>
      </trkpt>
      <trkpt lat="43.50859" lon="6.63467">
        <ele>177.2</ele>
        <time>2023-11-05T09:43:47Z</time>
      </trkpt>
      <trkpt lat="43.5086" lon="6.63468">
        <ele>177.5</ele>
        <time>2023-11-05T09:43:48Z</time>
      </trkpt>
      <trkpt lat="43.5086" lon="6.6347">
        <ele>177.9</ele>
        <time>2023-11-05T09:43:49Z</time>
      </trkpt>
      <trkpt lat="43.5086" lon="6.63471">
        <ele>178.1</ele>
        <time>2023-11-05T09:43:50Z</time>
      </trkpt>
      <trkpt lat="43.50861" lon="6.63472">
        <ele>178.5</ele>
        <time>2023-11-05T09:43:51Z</time>
      </trkpt>
      <trkpt lat="43.50861" lon="6.63474">
        <ele>178.8</ele>
        <time>2023-11-05T09:43:52Z</time>
      </trkpt>
      <trkpt lat="43.50861" lon="6.63475">
        <ele>179.1</ele>
        <time>2023-11-05T09:43:53Z</time>
      </trkpt>
      <trkpt lat="43.50861" lon="6.63476">
        <ele>179.3</ele>
        <time>2023-11-05T09:43:54Z</time>
      </trkpt>
      <trkpt lat="43.50861" lon="6.63478">
        <ele>179.6</ele>
        <time>2023-11-05T09:43:55Z</time>
      </trkpt>
      <trkpt lat="43.5086" lon="6.63479">
        <ele>179.7</ele>
        <time>2023-11-05T09:43:56Z</time>
      </trkpt>
      <trkpt lat="43.5086" lon="6.63481">
        <ele>179.9</ele>
        <time>2023-11-05T09:43:57Z</time>
      </trkpt>
      <trkpt lat="43.5086" lon="6.63482">
        <ele>180</ele>
        <time>2023-11-05T09:43:58Z</time>
      </trkpt>
      <trkpt lat="43.5086" lon="6.63484">
        <ele>180.1</ele>
        <time>2023-11-05T09:43:59Z</time>
      </trkpt>
      <trkpt lat="43.5086" lon="6.63485">
        <ele>180.2</ele>
        <time>2023-11-05T09:44:00Z</time>
      </trkpt>
      <trkpt lat="43.5086" lon="6.63487">
        <ele>180.2</ele>
        <time>2023-11-05T09:44:01Z</time>
      </trkpt>
      <trkpt lat="43.50861" lon="6.63488">
        <ele>180.3</ele>
        <time>2023-11-05T09:44:02Z</time>
      </trkpt>
      <trkpt lat="43.50861" lon="6.6349">
        <ele>180.5</ele>
        <time>2023-11-05T09:44:03Z</time>
      </trkpt>
      <trkpt lat="43.50861" lon="6.63491">
        <ele>180.4</ele>
        <time>2023-11-05T09:44:04Z</time>
      </trkpt>
      <trkpt lat="43.50861" lon="6.63492">
        <ele>180.6</ele>
        <time>2023-11-05T09:44:05Z</time>
      </trkpt>
      <trkpt lat="43.50861" lon="6.63493">
        <ele>180.9</ele>
        <time>2023-11-05T09:44:06Z</time>
      </trkpt>
      <trkpt lat="43.50861" lon="6.63494">
        <ele>181.1</ele>
        <time>2023-11-05T09:44:07Z</time>
      </trkpt>
      <trkpt lat="43.50861" lon="6.63496">
        <ele>181.1</ele>
        <time>2023-11-05T09:44:08Z</time>
      </trkpt>
      <trkpt lat="43.50862" lon="6.63498">
        <ele>181.2</ele>
        <time>2023-11-05T09:44:09Z</time>
      </trkpt>
      <trkpt lat="43.50862" lon="6.63499">
        <ele>181.4</ele>
        <time>2023-11-05T09:44:10Z</time>
      </trkpt>
      <trkpt lat="43.50862" lon="6.63501">
        <ele>181.7</ele>
        <time>2023-11-05T09:44:11Z</time>
      </trkpt>
      <trkpt lat="43.50862" lon="6.63502">
        <ele>181.9</ele>
        <time>2023-11-05T09:44:12Z</time>
      </trkpt>
      <trkpt lat="43.50862" lon="6.63504">
        <ele>182.1</ele>
        <time>2023-11-05T09:44:13Z</time>
      </trkpt>
      <trkpt lat="43.50863" lon="6.63505">
        <ele>182.3</ele>
        <time>2023-11-05T09:44:14Z</time>
      </trkpt>
      <trkpt lat="43.50863" lon="6.63507">
        <ele>182.4</ele>
        <time>2023-11-05T09:44:15Z</time>
      </trkpt>
      <trkpt lat="43.50862" lon="6.63508">
        <ele>182.6</ele>
        <time>2023-11-05T09:44:16Z</time>
      </trkpt>
      <trkpt lat="43.50863" lon="6.6351">
        <ele>182.7</ele>
        <time>2023-11-05T09:44:17Z</time>
      </trkpt>
      <trkpt lat="43.50863" lon="6.63512">
        <ele>182.9</ele>
        <time>2023-11-05T09:44:18Z</time>
      </trkpt>
      <trkpt lat="43.50863" lon="6.63513">
        <ele>182.9</ele>
        <time>2023-11-05T09:44:19Z</time>
      </trkpt>
      <trkpt lat="43.50863" lon="6.63514">
        <ele>183.1</ele>
        <time>2023-11-05T09:44:20Z</time>
      </trkpt>
      <trkpt lat="43.50863" lon="6.63516">
        <ele>183.3</ele>
        <time>2023-11-05T09:44:21Z</time>
      </trkpt>
      <trkpt lat="43.50863" lon="6.63517">
        <ele>183.7</ele>
        <time>2023-11-05T09:44:22Z</time>
      </trkpt>
      <trkpt lat="43.50863" lon="6.63518">
        <ele>184</ele>
        <time>2023-11-05T09:44:23Z</time>
      </trkpt>
      <trkpt lat="43.50863" lon="6.6352">
        <ele>184.2</ele>
        <time>2023-11-05T09:44:24Z</time>
      </trkpt>
      <trkpt lat="43.50863" lon="6.63521">
        <ele>184.4</ele>
        <time>2023-11-05T09:44:25Z</time>
      </trkpt>
      <trkpt lat="43.50863" lon="6.63522">
        <ele>184.7</ele>
        <time>2023-11-05T09:44:26Z</time>
      </trkpt>
      <trkpt lat="43.50863" lon="6.63523">
        <ele>184.9</ele>
        <time>2023-11-05T09:44:27Z</time>
      </trkpt>
      <trkpt lat="43.50863" lon="6.63525">
        <ele>185.1</ele>
        <time>2023-11-05T09:44:28Z</time>
      </trkpt>
      <trkpt lat="43.50863" lon="6.63526">
        <ele>185.3</ele>
        <time>2023-11-05T09:44:29Z</time>
      </trkpt>
      <trkpt lat="43.50864" lon="6.63527">
        <ele>185.5</ele>
        <time>2023-11-05T09:44:30Z</time>
      </trkpt>
      <trkpt lat="43.50864" lon="6.63529">
        <ele>185.6</ele>
        <time>2023-11-05T09:44:31Z</time>
      </trkpt>
      <trkpt lat="43.50864" lon="6.6353">
        <ele>185.6</ele>
        <time>2023-11-05T09:44:32Z</time>
      </trkpt>
      <trkpt lat="43.50863" lon="6.63532">
        <ele>185.8</ele>
        <time>2023-11-05T09:44:33Z</time>
      </trkpt>
      <trkpt lat="43.50863" lon="6.63533">
        <ele>186.1</ele>
        <time>2023-11-05T09:44:34Z</time>
      </trkpt>
      <trkpt lat="43.50863" lon="6.63534">
        <ele>186.4</ele>
        <time>2023-11-05T09:44:35Z</time>
      </trkpt>
      <trkpt lat="43.50863" lon="6.63535">
        <ele>186.6</ele>
        <time>2023-11-05T09:44:36Z</time>
      </trkpt>
      <trkpt lat="43.50863" lon="6.63537">
        <ele>186.9</ele>
        <time>2023-11-05T09:44:37Z</time>
      </trkpt>
      <trkpt lat="43.50864" lon="6.63539">
        <ele>187.2</ele>
        <time>2023-11-05T09:44:38Z</time>
      </trkpt>
      <trkpt lat="43.50864" lon="6.6354">
        <ele>187.4</ele>
        <time>2023-11-05T09:44:39Z</time>
      </trkpt>
      <trkpt lat="43.50864" lon="6.63541">
        <ele>187.4</ele>
        <time>2023-11-05T09:44:40Z</time>
      </trkpt>
      <trkpt lat="43.50864" lon="6.63543">
        <ele>188</ele>
        <time>2023-11-05T09:44:41Z</time>
      </trkpt>
      <trkpt lat="43.50865" lon="6.63544">
        <ele>188.5</ele>
        <time>2023-11-05T09:44:42Z</time>
      </trkpt>
      <trkpt lat="43.50865" lon="6.63546">
        <ele>188.5</ele>
        <time>2023-11-05T09:44:43Z</time>
      </trkpt>
      <trkpt lat="43.50866" lon="6.63547">
        <ele>188.4</ele>
        <time>2023-11-05T09:44:44Z</time>
      </trkpt>
      <trkpt lat="43.50866" lon="6.63548">
        <ele>188.3</ele>
        <time>2023-11-05T09:44:45Z</time>
      </trkpt>
      <trkpt lat="43.50866" lon="6.6355">
        <ele>188.5</ele>
        <time>2023-11-05T09:44:46Z</time>
      </trkpt>
      <trkpt lat="43.50867" lon="6.63551">
        <ele>189</ele>
        <time>2023-11-05T09:44:47Z</time>
      </trkpt>
      <trkpt lat="43.50866" lon="6.63552">
        <ele>189.3</ele>
        <time>2023-11-05T09:44:48Z</time>
      </trkpt>
      <trkpt lat="43.50866" lon="6.63552">
        <ele>189.3</ele>
        <time>2023-11-05T09:44:49Z</time>
      </trkpt>
      <trkpt lat="43.50866" lon="6.63553">
        <ele>189.1</ele>
        <time>2023-11-05T09:44:50Z</time>
      </trkpt>
      <trkpt lat="43.50865" lon="6.63553">
        <ele>189.3</ele>
        <time>2023-11-05T09:44:51Z</time>
      </trkpt>
      <trkpt lat="43.50864" lon="6.63553">
        <ele>189.4</ele>
        <time>2023-11-05T09:44:52Z</time>
      </trkpt>
      <trkpt lat="43.50864" lon="6.63553">
        <ele>189.4</ele>
        <time>2023-11-05T09:44:53Z</time>
      </trkpt>
      <trkpt lat="43.50864" lon="6.63553">
        <ele>189.5</ele>
        <time>2023-11-05T09:44:54Z</time>
      </trkpt>
      <trkpt lat="43.50863" lon="6.63552">
        <ele>189.7</ele>
        <time>2023-11-05T09:44:55Z</time>
      </trkpt>
      <trkpt lat="43.50863" lon="6.63552">
        <ele>189.8</ele>
        <time>2023-11-05T09:44:56Z</time>
      </trkpt>
      <trkpt lat="43.50862" lon="6.63551">
        <ele>190.1</ele>
        <time>2023-11-05T09:44:57Z</time>
      </trkpt>
      <trkpt lat="43.50861" lon="6.63551">
        <ele>190.5</ele>
        <time>2023-11-05T09:44:58Z</time>
      </trkpt>
      <trkpt lat="43.50861" lon="6.6355">
        <ele>190.6</ele>
        <time>2023-11-05T09:44:59Z</time>
      </trkpt>
      <trkpt lat="43.50861" lon="6.63549">
        <ele>190.7</ele>
        <time>2023-11-05T09:45:00Z</time>
      </trkpt>
      <trkpt lat="43.5086" lon="6.63549">
        <ele>190.7</ele>
        <time>2023-11-05T09:45:01Z</time>
      </trkpt>
      <trkpt lat="43.50859" lon="6.63548">
        <ele>190.8</ele>
        <time>2023-11-05T09:45:02Z</time>
      </trkpt>
      <trkpt lat="43.50859" lon="6.63547">
        <ele>190.8</ele>
        <time>2023-11-05T09:45:03Z</time>
      </trkpt>
      <trkpt lat="43.50858" lon="6.63546">
        <ele>190.8</ele>
        <time>2023-11-05T09:45:04Z</time>
      </trkpt>
      <trkpt lat="43.50858" lon="6.63545">
        <ele>190.8</ele>
        <time>2023-11-05T09:45:05Z</time>
      </trkpt>
      <trkpt lat="43.50857" lon="6.63545">
        <ele>190.8</ele>
        <time>2023-11-05T09:45:06Z</time>
      </trkpt>
      <trkpt lat="43.50857" lon="6.63544">
        <ele>190.9</ele>
        <time>2023-11-05T09:45:07Z</time>
      </trkpt>
      <trkpt lat="43.50856" lon="6.63543">
        <ele>191</ele>
        <time>2023-11-05T09:45:08Z</time>
      </trkpt>
      <trkpt lat="43.50855" lon="6.63543">
        <ele>191</ele>
        <time>2023-11-05T09:45:09Z</time>
      </trkpt>
      <trkpt lat="43.50855" lon="6.63542">
        <ele>191.1</ele>
        <time>2023-11-05T09:45:10Z</time>
      </trkpt>
      <trkpt lat="43.50854" lon="6.63541">
        <ele>191.1</ele>
        <time>2023-11-05T09:45:11Z</time>
      </trkpt>
      <trkpt lat="43.50853" lon="6.6354">
        <ele>191.2</ele>
        <time>2023-11-05T09:45:12Z</time>
      </trkpt>
      <trkpt lat="43.50852" lon="6.6354">
        <ele>191.3</ele>
        <time>2023-11-05T09:45:13Z</time>
      </trkpt>
      <trkpt lat="43.50851" lon="6.63539">
        <ele>191.3</ele>
        <time>2023-11-05T09:45:14Z</time>
      </trkpt>
      <trkpt lat="43.5085" lon="6.63538">
        <ele>191.4</ele>
        <time>2023-11-05T09:45:15Z</time>
      </trkpt>
      <trkpt lat="43.5085" lon="6.63537">
        <ele>191.5</ele>
        <time>2023-11-05T09:45:16Z</time>
      </trkpt>
      <trkpt lat="43.50849" lon="6.63537">
        <ele>191.5</ele>
        <time>2023-11-05T09:45:17Z</time>
      </trkpt>
      <trkpt lat="43.50848" lon="6.63536">
        <ele>191.6</ele>
        <time>2023-11-05T09:45:18Z</time>
      </trkpt>
      <trkpt lat="43.50847" lon="6.63536">
        <ele>191.6</ele>
        <time>2023-11-05T09:45:19Z</time>
      </trkpt>
      <trkpt lat="43.50846" lon="6.63535">
        <ele>191.5</ele>
        <time>2023-11-05T09:45:20Z</time>
      </trkpt>
      <trkpt lat="43.50846" lon="6.63534">
        <ele>191.5</ele>
        <time>2023-11-05T09:45:21Z</time>
      </trkpt>
      <trkpt lat="43.50845" lon="6.63534">
        <ele>191.6</ele>
        <time>2023-11-05T09:45:22Z</time>
      </trkpt>
      <trkpt lat="43.50844" lon="6.63533">
        <ele>191.7</ele>
        <time>2023-11-05T09:45:23Z</time>
      </trkpt>
      <trkpt lat="43.50843" lon="6.63532">
        <ele>191.8</ele>
        <time>2023-11-05T09:45:24Z</time>
      </trkpt>
      <trkpt lat="43.50842" lon="6.63532">
        <ele>191.9</ele>
        <time>2023-11-05T09:45:25Z</time>
      </trkpt>
      <trkpt lat="43.50841" lon="6.63531">
        <ele>191.9</ele>
        <time>2023-11-05T09:45:26Z</time>
      </trkpt>
      <trkpt lat="43.5084" lon="6.63531">
        <ele>192</ele>
        <time>2023-11-05T09:45:27Z</time>
      </trkpt>
      <trkpt lat="43.5084" lon="6.63531">
        <ele>192</ele>
        <time>2023-11-05T09:45:28Z</time>
      </trkpt>
      <trkpt lat="43.50839" lon="6.6353">
        <ele>192</ele>
        <time>2023-11-05T09:45:29Z</time>
      </trkpt>
      <trkpt lat="43.50838" lon="6.6353">
        <ele>192</ele>
        <time>2023-11-05T09:45:30Z</time>
      </trkpt>
      <trkpt lat="43.50837" lon="6.63529">
        <ele>192</ele>
        <time>2023-11-05T09:45:31Z</time>
      </trkpt>
      <trkpt lat="43.50836" lon="6.63529">
        <ele>191.9</ele>
        <time>2023-11-05T09:45:32Z</time>
      </trkpt>
      <trkpt lat="43.50835" lon="6.63529">
        <ele>191.9</ele>
        <time>2023-11-05T09:45:33Z</time>
      </trkpt>
      <trkpt lat="43.50834" lon="6.63529">
        <ele>192.1</ele>
        <time>2023-11-05T09:45:34Z</time>
      </trkpt>
      <trkpt lat="43.50833" lon="6.63529">
        <ele>192.3</ele>
        <time>2023-11-05T09:45:35Z</time>
      </trkpt>
      <trkpt lat="43.50832" lon="6.63529">
        <ele>192.5</ele>
        <time>2023-11-05T09:45:36Z</time>
      </trkpt>
      <trkpt lat="43.50831" lon="6.63528">
        <ele>192.6</ele>
        <time>2023-11-05T09:45:37Z</time>
      </trkpt>
      <trkpt lat="43.50831" lon="6.63528">
        <ele>192.5</ele>
        <time>2023-11-05T09:45:38Z</time>
      </trkpt>
      <trkpt lat="43.5083" lon="6.63528">
        <ele>192.5</ele>
        <time>2023-11-05T09:45:39Z</time>
      </trkpt>
      <trkpt lat="43.50829" lon="6.63527">
        <ele>192.5</ele>
        <time>2023-11-05T09:45:40Z</time>
      </trkpt>
      <trkpt lat="43.50828" lon="6.63528">
        <ele>192.4</ele>
        <time>2023-11-05T09:45:41Z</time>
      </trkpt>
      <trkpt lat="43.50828" lon="6.63528">
        <ele>192.5</ele>
        <time>2023-11-05T09:45:42Z</time>
      </trkpt>
      <trkpt lat="43.50827" lon="6.63528">
        <ele>192.6</ele>
        <time>2023-11-05T09:45:43Z</time>
      </trkpt>
      <trkpt lat="43.50826" lon="6.63528">
        <ele>192.7</ele>
        <time>2023-11-05T09:45:44Z</time>
      </trkpt>
      <trkpt lat="43.50825" lon="6.63527">
        <ele>192.6</ele>
        <time>2023-11-05T09:45:45Z</time>
      </trkpt>
      <trkpt lat="43.50824" lon="6.63528">
        <ele>192.3</ele>
        <time>2023-11-05T09:45:46Z</time>
      </trkpt>
      <trkpt lat="43.50824" lon="6.63528">
        <ele>192.8</ele>
        <time>2023-11-05T09:45:47Z</time>
      </trkpt>
      <trkpt lat="43.50823" lon="6.63528">
        <ele>192.8</ele>
        <time>2023-11-05T09:45:48Z</time>
      </trkpt>
      <trkpt lat="43.50823" lon="6.63529">
        <ele>192.6</ele>
        <time>2023-11-05T09:45:49Z</time>
      </trkpt>
      <trkpt lat="43.50823" lon="6.63529">
        <ele>192.9</ele>
        <time>2023-11-05T09:45:50Z</time>
      </trkpt>
      <trkpt lat="43.50822" lon="6.63529">
        <ele>193.2</ele>
        <time>2023-11-05T09:45:51Z</time>
      </trkpt>
      <trkpt lat="43.50822" lon="6.63529">
        <ele>193.3</ele>
        <time>2023-11-05T09:45:52Z</time>
      </trkpt>
      <trkpt lat="43.50821" lon="6.63529">
        <ele>193.4</ele>
        <time>2023-11-05T09:45:53Z</time>
      </trkpt>
      <trkpt lat="43.50821" lon="6.63529">
        <ele>193.5</ele>
        <time>2023-11-05T09:45:54Z</time>
      </trkpt>
      <trkpt lat="43.5082" lon="6.63529">
        <ele>193.3</ele>
        <time>2023-11-05T09:45:55Z</time>
      </trkpt>
      <trkpt lat="43.50819" lon="6.6353">
        <ele>193.1</ele>
        <time>2023-11-05T09:45:56Z</time>
      </trkpt>
      <trkpt lat="43.50819" lon="6.6353">
        <ele>192.9</ele>
        <time>2023-11-05T09:45:57Z</time>
      </trkpt>
      <trkpt lat="43.50818" lon="6.63531">
        <ele>193</ele>
        <time>2023-11-05T09:45:58Z</time>
      </trkpt>
      <trkpt lat="43.50817" lon="6.63531">
        <ele>193</ele>
        <time>2023-11-05T09:45:59Z</time>
      </trkpt>
      <trkpt lat="43.50817" lon="6.63532">
        <ele>192.7</ele>
        <time>2023-11-05T09:46:00Z</time>
      </trkpt>
      <trkpt lat="43.50816" lon="6.63532">
        <ele>192.7</ele>
        <time>2023-11-05T09:46:01Z</time>
      </trkpt>
      <trkpt lat="43.50816" lon="6.63532">
        <ele>192.7</ele>
        <time>2023-11-05T09:46:02Z</time>
      </trkpt>
      <trkpt lat="43.50815" lon="6.63533">
        <ele>192.7</ele>
        <time>2023-11-05T09:46:03Z</time>
      </trkpt>
      <trkpt lat="43.50814" lon="6.63533">
        <ele>192.9</ele>
        <time>2023-11-05T09:46:04Z</time>
      </trkpt>
      <trkpt lat="43.50813" lon="6.63534">
        <ele>192.7</ele>
        <time>2023-11-05T09:46:05Z</time>
      </trkpt>
      <trkpt lat="43.50813" lon="6.63535">
        <ele>192.9</ele>
        <time>2023-11-05T09:46:06Z</time>
      </trkpt>
      <trkpt lat="43.50812" lon="6.63536">
        <ele>193</ele>
        <time>2023-11-05T09:46:07Z</time>
      </trkpt>
      <trkpt lat="43.50811" lon="6.63536">
        <ele>193.5</ele>
        <time>2023-11-05T09:46:08Z</time>
      </trkpt>
      <trkpt lat="43.50811" lon="6.63538">
        <ele>193.6</ele>
        <time>2023-11-05T09:46:09Z</time>
      </trkpt>
      <trkpt lat="43.5081" lon="6.63539">
        <ele>193.7</ele>
        <time>2023-11-05T09:46:10Z</time>
      </trkpt>
      <trkpt lat="43.50809" lon="6.6354">
        <ele>193.9</ele>
        <time>2023-11-05T09:46:11Z</time>
      </trkpt>
      <trkpt lat="43.50808" lon="6.63541">
        <ele>193.9</ele>
        <time>2023-11-05T09:46:12Z</time>
      </trkpt>
      <trkpt lat="43.50808" lon="6.63542">
        <ele>193.9</ele>
        <time>2023-11-05T09:46:13Z</time>
      </trkpt>
      <trkpt lat="43.50807" lon="6.63544">
        <ele>194.1</ele>
        <time>2023-11-05T09:46:14Z</time>
      </trkpt>
      <trkpt lat="43.50806" lon="6.63545">
        <ele>194.1</ele>
        <time>2023-11-05T09:46:15Z</time>
      </trkpt>
      <trkpt lat="43.50805" lon="6.63546">
        <ele>194.1</ele>
        <time>2023-11-05T09:46:16Z</time>
      </trkpt>
      <trkpt lat="43.50804" lon="6.63546">
        <ele>194</ele>
        <time>2023-11-05T09:46:17Z</time>
      </trkpt>
      <trkpt lat="43.50804" lon="6.63547">
        <ele>194</ele>
        <time>2023-11-05T09:46:18Z</time>
      </trkpt>
      <trkpt lat="43.50803" lon="6.63548">
        <ele>194.1</ele>
        <time>2023-11-05T09:46:19Z</time>
      </trkpt>
      <trkpt lat="43.50802" lon="6.63549">
        <ele>194.4</ele>
        <time>2023-11-05T09:46:20Z</time>
      </trkpt>
      <trkpt lat="43.50801" lon="6.6355">
        <ele>194.7</ele>
        <time>2023-11-05T09:46:21Z</time>
      </trkpt>
      <trkpt lat="43.508" lon="6.63551">
        <ele>195</ele>
        <time>2023-11-05T09:46:22Z</time>
      </trkpt>
      <trkpt lat="43.50799" lon="6.63553">
        <ele>195.1</ele>
        <time>2023-11-05T09:46:23Z</time>
      </trkpt>
      <trkpt lat="43.50799" lon="6.63554">
        <ele>195.2</ele>
        <time>2023-11-05T09:46:24Z</time>
      </trkpt>
      <trkpt lat="43.50798" lon="6.63555">
        <ele>195.3</ele>
        <time>2023-11-05T09:46:25Z</time>
      </trkpt>
      <trkpt lat="43.50797" lon="6.63556">
        <ele>195.5</ele>
        <time>2023-11-05T09:46:26Z</time>
      </trkpt>
      <trkpt lat="43.50796" lon="6.63557">
        <ele>195.7</ele>
        <time>2023-11-05T09:46:27Z</time>
      </trkpt>
      <trkpt lat="43.50795" lon="6.63559">
        <ele>195.8</ele>
        <time>2023-11-05T09:46:28Z</time>
      </trkpt>
      <trkpt lat="43.50794" lon="6.6356">
        <ele>196</ele>
        <time>2023-11-05T09:46:29Z</time>
      </trkpt>
      <trkpt lat="43.50794" lon="6.63561">
        <ele>196</ele>
        <time>2023-11-05T09:46:30Z</time>
      </trkpt>
      <trkpt lat="43.50793" lon="6.63562">
        <ele>196.1</ele>
        <time>2023-11-05T09:46:31Z</time>
      </trkpt>
      <trkpt lat="43.50793" lon="6.63565">
        <ele>196.3</ele>
        <time>2023-11-05T09:46:32Z</time>
      </trkpt>
      <trkpt lat="43.50792" lon="6.63566">
        <ele>195.9</ele>
        <time>2023-11-05T09:46:33Z</time>
      </trkpt>
      <trkpt lat="43.50791" lon="6.63567">
        <ele>195.7</ele>
        <time>2023-11-05T09:46:34Z</time>
      </trkpt>
      <trkpt lat="43.50791" lon="6.63569">
        <ele>195.8</ele>
        <time>2023-11-05T09:46:35Z</time>
      </trkpt>
      <trkpt lat="43.5079" lon="6.6357">
        <ele>196.1</ele>
        <time>2023-11-05T09:46:36Z</time>
      </trkpt>
      <trkpt lat="43.50789" lon="6.63571">
        <ele>196.3</ele>
        <time>2023-11-05T09:46:37Z</time>
      </trkpt>
      <trkpt lat="43.50789" lon="6.63572">
        <ele>195.9</ele>
        <time>2023-11-05T09:46:38Z</time>
      </trkpt>
      <trkpt lat="43.50788" lon="6.63574">
        <ele>195.3</ele>
        <time>2023-11-05T09:46:39Z</time>
      </trkpt>
      <trkpt lat="43.50787" lon="6.63575">
        <ele>195.7</ele>
        <time>2023-11-05T09:46:40Z</time>
      </trkpt>
      <trkpt lat="43.50785" lon="6.63576">
        <ele>195.9</ele>
        <time>2023-11-05T09:46:41Z</time>
      </trkpt>
      <trkpt lat="43.50784" lon="6.63577">
        <ele>196</ele>
        <time>2023-11-05T09:46:42Z</time>
      </trkpt>
      <trkpt lat="43.50784" lon="6.63578">
        <ele>196.3</ele>
        <time>2023-11-05T09:46:43Z</time>
      </trkpt>
      <trkpt lat="43.50782" lon="6.63579">
        <ele>196.6</ele>
        <time>2023-11-05T09:46:44Z</time>
      </trkpt>
      <trkpt lat="43.50782" lon="6.63581">
        <ele>197</ele>
        <time>2023-11-05T09:46:45Z</time>
      </trkpt>
      <trkpt lat="43.50782" lon="6.63583">
        <ele>197.3</ele>
        <time>2023-11-05T09:46:46Z</time>
      </trkpt>
      <trkpt lat="43.50781" lon="6.63584">
        <ele>197.5</ele>
        <time>2023-11-05T09:46:47Z</time>
      </trkpt>
      <trkpt lat="43.50781" lon="6.63586">
        <ele>197.5</ele>
        <time>2023-11-05T09:46:48Z</time>
      </trkpt>
      <trkpt lat="43.5078" lon="6.63587">
        <ele>197.9</ele>
        <time>2023-11-05T09:46:49Z</time>
      </trkpt>
      <trkpt lat="43.5078" lon="6.63589">
        <ele>198.1</ele>
        <time>2023-11-05T09:46:50Z</time>
      </trkpt>
      <trkpt lat="43.5078" lon="6.63591">
        <ele>198.6</ele>
        <time>2023-11-05T09:46:51Z</time>
      </trkpt>
      <trkpt lat="43.5078" lon="6.63593">
        <ele>199.1</ele>
        <time>2023-11-05T09:46:52Z</time>
      </trkpt>
      <trkpt lat="43.50779" lon="6.63594">
        <ele>199.5</ele>
        <time>2023-11-05T09:46:53Z</time>
      </trkpt>
      <trkpt lat="43.50779" lon="6.63596">
        <ele>199.5</ele>
        <time>2023-11-05T09:46:54Z</time>
      </trkpt>
      <trkpt lat="43.50779" lon="6.63597">
        <ele>199.7</ele>
        <time>2023-11-05T09:46:55Z</time>
      </trkpt>
      <trkpt lat="43.5078" lon="6.63598">
        <ele>200</ele>
        <time>2023-11-05T09:46:56Z</time>
      </trkpt>
      <trkpt lat="43.5078" lon="6.636">
        <ele>200.2</ele>
        <time>2023-11-05T09:46:57Z</time>
      </trkpt>
      <trkpt lat="43.5078" lon="6.63601">
        <ele>200.3</ele>
        <time>2023-11-05T09:46:58Z</time>
      </trkpt>
      <trkpt lat="43.5078" lon="6.63603">
        <ele>200.4</ele>
        <time>2023-11-05T09:46:59Z</time>
      </trkpt>
      <trkpt lat="43.50781" lon="6.63605">
        <ele>200.6</ele>
        <time>2023-11-05T09:47:00Z</time>
      </trkpt>
      <trkpt lat="43.50781" lon="6.63606">
        <ele>200.8</ele>
        <time>2023-11-05T09:47:01Z</time>
      </trkpt>
      <trkpt lat="43.50781" lon="6.63607">
        <ele>200.9</ele>
        <time>2023-11-05T09:47:02Z</time>
      </trkpt>
      <trkpt lat="43.50781" lon="6.63609">
        <ele>201.3</ele>
        <time>2023-11-05T09:47:03Z</time>
      </trkpt>
      <trkpt lat="43.50782" lon="6.63611">
        <ele>201.4</ele>
        <time>2023-11-05T09:47:04Z</time>
      </trkpt>
      <trkpt lat="43.50782" lon="6.63612">
        <ele>201.6</ele>
        <time>2023-11-05T09:47:05Z</time>
      </trkpt>
      <trkpt lat="43.50782" lon="6.63614">
        <ele>201.9</ele>
        <time>2023-11-05T09:47:06Z</time>
      </trkpt>
      <trkpt lat="43.50782" lon="6.63615">
        <ele>202.7</ele>
        <time>2023-11-05T09:47:07Z</time>
      </trkpt>
      <trkpt lat="43.50782" lon="6.63617">
        <ele>203.1</ele>
        <time>2023-11-05T09:47:08Z</time>
      </trkpt>
      <trkpt lat="43.50782" lon="6.63618">
        <ele>203.3</ele>
        <time>2023-11-05T09:47:09Z</time>
      </trkpt>
      <trkpt lat="43.50783" lon="6.63619">
        <ele>203.3</ele>
        <time>2023-11-05T09:47:10Z</time>
      </trkpt>
      <trkpt lat="43.50783" lon="6.63621">
        <ele>203.3</ele>
        <time>2023-11-05T09:47:11Z</time>
      </trkpt>
      <trkpt lat="43.50783" lon="6.63622">
        <ele>203.3</ele>
        <time>2023-11-05T09:47:12Z</time>
      </trkpt>
      <trkpt lat="43.50783" lon="6.63624">
        <ele>203.4</ele>
        <time>2023-11-05T09:47:13Z</time>
      </trkpt>
      <trkpt lat="43.50783" lon="6.63625">
        <ele>203.5</ele>
        <time>2023-11-05T09:47:14Z</time>
      </trkpt>
      <trkpt lat="43.50783" lon="6.63626">
        <ele>203.9</ele>
        <time>2023-11-05T09:47:15Z</time>
      </trkpt>
      <trkpt lat="43.50783" lon="6.63628">
        <ele>204.2</ele>
        <time>2023-11-05T09:47:16Z</time>
      </trkpt>
      <trkpt lat="43.50784" lon="6.6363">
        <ele>204.5</ele>
        <time>2023-11-05T09:47:17Z</time>
      </trkpt>
      <trkpt lat="43.50784" lon="6.63631">
        <ele>204.7</ele>
        <time>2023-11-05T09:47:18Z</time>
      </trkpt>
      <trkpt lat="43.50784" lon="6.63633">
        <ele>204.9</ele>
        <time>2023-11-05T09:47:19Z</time>
      </trkpt>
      <trkpt lat="43.50784" lon="6.63635">
        <ele>205.5</ele>
        <time>2023-11-05T09:47:20Z</time>
      </trkpt>
      <trkpt lat="43.50784" lon="6.63636">
        <ele>206.3</ele>
        <time>2023-11-05T09:47:21Z</time>
      </trkpt>
      <trkpt lat="43.50784" lon="6.63637">
        <ele>206.4</ele>
        <time>2023-11-05T09:47:22Z</time>
      </trkpt>
      <trkpt lat="43.50784" lon="6.63639">
        <ele>206.5</ele>
        <time>2023-11-05T09:47:23Z</time>
      </trkpt>
      <trkpt lat="43.50783" lon="6.6364">
        <ele>206.6</ele>
        <time>2023-11-05T09:47:24Z</time>
      </trkpt>
      <trkpt lat="43.50783" lon="6.63642">
        <ele>207.3</ele>
        <time>2023-11-05T09:47:25Z</time>
      </trkpt>
      <trkpt lat="43.50783" lon="6.63644">
        <ele>207.7</ele>
        <time>2023-11-05T09:47:26Z</time>
      </trkpt>
      <trkpt lat="43.50783" lon="6.63645">
        <ele>208.2</ele>
        <time>2023-11-05T09:47:27Z</time>
      </trkpt>
      <trkpt lat="43.50783" lon="6.63646">
        <ele>208.6</ele>
        <time>2023-11-05T09:47:28Z</time>
      </trkpt>
      <trkpt lat="43.50783" lon="6.63648">
        <ele>209</ele>
        <time>2023-11-05T09:47:29Z</time>
      </trkpt>
      <trkpt lat="43.50783" lon="6.6365">
        <ele>209.2</ele>
        <time>2023-11-05T09:47:30Z</time>
      </trkpt>
      <trkpt lat="43.50783" lon="6.63651">
        <ele>209.2</ele>
        <time>2023-11-05T09:47:31Z</time>
      </trkpt>
      <trkpt lat="43.50783" lon="6.63652">
        <ele>209.7</ele>
        <time>2023-11-05T09:47:32Z</time>
      </trkpt>
      <trkpt lat="43.50783" lon="6.63652">
        <ele>209.9</ele>
        <time>2023-11-05T09:47:33Z</time>
      </trkpt>
      <trkpt lat="43.50783" lon="6.63652">
        <ele>210.4</ele>
        <time>2023-11-05T09:47:34Z</time>
      </trkpt>
      <trkpt lat="43.50783" lon="6.63653">
        <ele>210.3</ele>
        <time>2023-11-05T09:47:35Z</time>
      </trkpt>
      <trkpt lat="43.50783" lon="6.63653">
        <ele>210.3</ele>
        <time>2023-11-05T09:47:36Z</time>
      </trkpt>
      <trkpt lat="43.50783" lon="6.63653">
        <ele>210.2</ele>
        <time>2023-11-05T09:47:37Z</time>
      </trkpt>
      <trkpt lat="43.50783" lon="6.63654">
        <ele>210.7</ele>
        <time>2023-11-05T09:47:38Z</time>
      </trkpt>
      <trkpt lat="43.50783" lon="6.63654">
        <ele>210.8</ele>
        <time>2023-11-05T09:47:39Z</time>
      </trkpt>
      <trkpt lat="43.50783" lon="6.63654">
        <ele>210.9</ele>
        <time>2023-11-05T09:47:40Z</time>
      </trkpt>
      <trkpt lat="43.50784" lon="6.63654">
        <ele>211.2</ele>
        <time>2023-11-05T09:47:41Z</time>
      </trkpt>
      <trkpt lat="43.50784" lon="6.63654">
        <ele>211.3</ele>
        <time>2023-11-05T09:47:42Z</time>
      </trkpt>
      <trkpt lat="43.50785" lon="6.63654">
        <ele>211.5</ele>
        <time>2023-11-05T09:47:43Z</time>
      </trkpt>
      <trkpt lat="43.50785" lon="6.63654">
        <ele>211.6</ele>
        <time>2023-11-05T09:47:44Z</time>
      </trkpt>
      <trkpt lat="43.50785" lon="6.63654">
        <ele>211.3</ele>
        <time>2023-11-05T09:47:45Z</time>
      </trkpt>
      <trkpt lat="43.50785" lon="6.63654">
        <ele>211.3</ele>
        <time>2023-11-05T09:47:46Z</time>
      </trkpt>
      <trkpt lat="43.50786" lon="6.63654">
        <ele>211.2</ele>
        <time>2023-11-05T09:47:47Z</time>
      </trkpt>
      <trkpt lat="43.50786" lon="6.63654">
        <ele>211</ele>
        <time>2023-11-05T09:47:48Z</time>
      </trkpt>
      <trkpt lat="43.50786" lon="6.63655">
        <ele>210.9</ele>
        <time>2023-11-05T09:47:49Z</time>
      </trkpt>
      <trkpt lat="43.50786" lon="6.63655">
        <ele>210.8</ele>
        <time>2023-11-05T09:47:50Z</time>
      </trkpt>
      <trkpt lat="43.50786" lon="6.63655">
        <ele>210.6</ele>
        <time>2023-11-05T09:47:51Z</time>
      </trkpt>
      <trkpt lat="43.50786" lon="6.63655">
        <ele>210.6</ele>
        <time>2023-11-05T09:47:52Z</time>
      </trkpt>
      <trkpt lat="43.50786" lon="6.63655">
        <ele>210.3</ele>
        <time>2023-11-05T09:47:53Z</time>
      </trkpt>
      <trkpt lat="43.50786" lon="6.63655">
        <ele>210.4</ele>
        <time>2023-11-05T09:47:54Z</time>
      </trkpt>
      <trkpt lat="43.50786" lon="6.63655">
        <ele>210.5</ele>
        <time>2023-11-05T09:47:55Z</time>
      </trkpt>
      <trkpt lat="43.50786" lon="6.63655">
        <ele>210.3</ele>
        <time>2023-11-05T09:47:56Z</time>
      </trkpt>
      <trkpt lat="43.50786" lon="6.63655">
        <ele>210.1</ele>
        <time>2023-11-05T09:47:57Z</time>
      </trkpt>
      <trkpt lat="43.50786" lon="6.63655">
        <ele>210.1</ele>
        <time>2023-11-05T09:47:58Z</time>
      </trkpt>
      <trkpt lat="43.50786" lon="6.63655">
        <ele>210.2</ele>
        <time>2023-11-05T09:47:59Z</time>
      </trkpt>
      <trkpt lat="43.50786" lon="6.63655">
        <ele>209.9</ele>
        <time>2023-11-05T09:48:00Z</time>
      </trkpt>
      <trkpt lat="43.50786" lon="6.63655">
        <ele>209.6</ele>
        <time>2023-11-05T09:48:01Z</time>
      </trkpt>
      <trkpt lat="43.50786" lon="6.63655">
        <ele>209.4</ele>
        <time>2023-11-05T09:48:02Z</time>
      </trkpt>
      <trkpt lat="43.50786" lon="6.63655">
        <ele>209.2</ele>
        <time>2023-11-05T09:48:03Z</time>
      </trkpt>
      <trkpt lat="43.50786" lon="6.63655">
        <ele>209.1</ele>
        <time>2023-11-05T09:48:04Z</time>
      </trkpt>
      <trkpt lat="43.50787" lon="6.63655">
        <ele>209.1</ele>
        <time>2023-11-05T09:48:05Z</time>
      </trkpt>
      <trkpt lat="43.50787" lon="6.63655">
        <ele>209.1</ele>
        <time>2023-11-05T09:48:06Z</time>
      </trkpt>
      <trkpt lat="43.50787" lon="6.63655">
        <ele>209.1</ele>
        <time>2023-11-05T09:48:07Z</time>
      </trkpt>
      <trkpt lat="43.50787" lon="6.63655">
        <ele>209.2</ele>
        <time>2023-11-05T09:48:08Z</time>
      </trkpt>
      <trkpt lat="43.50787" lon="6.63655">
        <ele>209</ele>
        <time>2023-11-05T09:48:09Z</time>
      </trkpt>
      <trkpt lat="43.50787" lon="6.63655">
        <ele>208.9</ele>
        <time>2023-11-05T09:48:10Z</time>
      </trkpt>
      <trkpt lat="43.50787" lon="6.63655">
        <ele>208.7</ele>
        <time>2023-11-05T09:48:11Z</time>
      </trkpt>
      <trkpt lat="43.50787" lon="6.63655">
        <ele>208.6</ele>
        <time>2023-11-05T09:48:12Z</time>
      </trkpt>
      <trkpt lat="43.50787" lon="6.63655">
        <ele>208.2</ele>
        <time>2023-11-05T09:48:13Z</time>
      </trkpt>
      <trkpt lat="43.50787" lon="6.63655">
        <ele>207.9</ele>
        <time>2023-11-05T09:48:14Z</time>
      </trkpt>
      <trkpt lat="43.50787" lon="6.63655">
        <ele>208</ele>
        <time>2023-11-05T09:48:15Z</time>
      </trkpt>
      <trkpt lat="43.50788" lon="6.63655">
        <ele>208</ele>
        <time>2023-11-05T09:48:16Z</time>
      </trkpt>
      <trkpt lat="43.50788" lon="6.63655">
        <ele>208.2</ele>
        <time>2023-11-05T09:48:17Z</time>
      </trkpt>
      <trkpt lat="43.50788" lon="6.63655">
        <ele>208.3</ele>
        <time>2023-11-05T09:48:18Z</time>
      </trkpt>
      <trkpt lat="43.50788" lon="6.63655">
        <ele>208.3</ele>
        <time>2023-11-05T09:48:19Z</time>
      </trkpt>
      <trkpt lat="43.50788" lon="6.63655">
        <ele>208.2</ele>
        <time>2023-11-05T09:48:20Z</time>
      </trkpt>
      <trkpt lat="43.50788" lon="6.63654">
        <ele>208.1</ele>
        <time>2023-11-05T09:48:21Z</time>
      </trkpt>
      <trkpt lat="43.50788" lon="6.63654">
        <ele>208.2</ele>
        <time>2023-11-05T09:48:22Z</time>
      </trkpt>
      <trkpt lat="43.50788" lon="6.63654">
        <ele>208.3</ele>
        <time>2023-11-05T09:48:23Z</time>
      </trkpt>
      <trkpt lat="43.50788" lon="6.63654">
        <ele>208.3</ele>
        <time>2023-11-05T09:48:24Z</time>
      </trkpt>
      <trkpt lat="43.50788" lon="6.63655">
        <ele>208.2</ele>
        <time>2023-11-05T09:48:25Z</time>
      </trkpt>
      <trkpt lat="43.50788" lon="6.63655">
        <ele>208.2</ele>
        <time>2023-11-05T09:48:26Z</time>
      </trkpt>
      <trkpt lat="43.50788" lon="6.63655">
        <ele>208.1</ele>
        <time>2023-11-05T09:48:27Z</time>
      </trkpt>
      <trkpt lat="43.50788" lon="6.63655">
        <ele>207.9</ele>
        <time>2023-11-05T09:48:28Z</time>
      </trkpt>
      <trkpt lat="43.50788" lon="6.63655">
        <ele>207.7</ele>
        <time>2023-11-05T09:48:29Z</time>
      </trkpt>
      <trkpt lat="43.50788" lon="6.63655">
        <ele>207.6</ele>
        <time>2023-11-05T09:48:30Z</time>
      </trkpt>
      <trkpt lat="43.50788" lon="6.63656">
        <ele>207.6</ele>
        <time>2023-11-05T09:48:31Z</time>
      </trkpt>
      <trkpt lat="43.50788" lon="6.63657">
        <ele>207.6</ele>
        <time>2023-11-05T09:48:32Z</time>
      </trkpt>
      <trkpt lat="43.50787" lon="6.63659">
        <ele>207.6</ele>
        <time>2023-11-05T09:48:33Z</time>
      </trkpt>
      <trkpt lat="43.50787" lon="6.6366">
        <ele>207.6</ele>
        <time>2023-11-05T09:48:34Z</time>
      </trkpt>
      <trkpt lat="43.50787" lon="6.63662">
        <ele>207.6</ele>
        <time>2023-11-05T09:48:35Z</time>
      </trkpt>
      <trkpt lat="43.50787" lon="6.63663">
        <ele>207.7</ele>
        <time>2023-11-05T09:48:36Z</time>
      </trkpt>
      <trkpt lat="43.50787" lon="6.63665">
        <ele>207.8</ele>
        <time>2023-11-05T09:48:37Z</time>
      </trkpt>
      <trkpt lat="43.50787" lon="6.63666">
        <ele>207.7</ele>
        <time>2023-11-05T09:48:38Z</time>
      </trkpt>
      <trkpt lat="43.50788" lon="6.63667">
        <ele>207.7</ele>
        <time>2023-11-05T09:48:39Z</time>
      </trkpt>
      <trkpt lat="43.50788" lon="6.63669">
        <ele>207.8</ele>
        <time>2023-11-05T09:48:40Z</time>
      </trkpt>
      <trkpt lat="43.50788" lon="6.63671">
        <ele>207.8</ele>
        <time>2023-11-05T09:48:41Z</time>
      </trkpt>
      <trkpt lat="43.50789" lon="6.63672">
        <ele>207.8</ele>
        <time>2023-11-05T09:48:42Z</time>
      </trkpt>
      <trkpt lat="43.50789" lon="6.63674">
        <ele>207.8</ele>
        <time>2023-11-05T09:48:43Z</time>
      </trkpt>
      <trkpt lat="43.50789" lon="6.63674">
        <ele>207.8</ele>
        <time>2023-11-05T09:48:44Z</time>
      </trkpt>
      <trkpt lat="43.50789" lon="6.63675">
        <ele>207.8</ele>
        <time>2023-11-05T09:48:45Z</time>
      </trkpt>
      <trkpt lat="43.5079" lon="6.63677">
        <ele>207.9</ele>
        <time>2023-11-05T09:48:46Z</time>
      </trkpt>
      <trkpt lat="43.5079" lon="6.63678">
        <ele>208.1</ele>
        <time>2023-11-05T09:48:47Z</time>
      </trkpt>
      <trkpt lat="43.50791" lon="6.63679">
        <ele>208.2</ele>
        <time>2023-11-05T09:48:48Z</time>
      </trkpt>
      <trkpt lat="43.50792" lon="6.6368">
        <ele>208.3</ele>
        <time>2023-11-05T09:48:49Z</time>
      </trkpt>
      <trkpt lat="43.50792" lon="6.63682">
        <ele>208.5</ele>
        <time>2023-11-05T09:48:50Z</time>
      </trkpt>
      <trkpt lat="43.50792" lon="6.63684">
        <ele>208.7</ele>
        <time>2023-11-05T09:48:51Z</time>
      </trkpt>
      <trkpt lat="43.50793" lon="6.63684">
        <ele>208.8</ele>
        <time>2023-11-05T09:48:52Z</time>
      </trkpt>
      <trkpt lat="43.50793" lon="6.63685">
        <ele>208.8</ele>
        <time>2023-11-05T09:48:53Z</time>
      </trkpt>
      <trkpt lat="43.50794" lon="6.63686">
        <ele>209</ele>
        <time>2023-11-05T09:48:54Z</time>
      </trkpt>
      <trkpt lat="43.50794" lon="6.63687">
        <ele>209.2</ele>
        <time>2023-11-05T09:48:55Z</time>
      </trkpt>
      <trkpt lat="43.50795" lon="6.63687">
        <ele>209.5</ele>
        <time>2023-11-05T09:48:56Z</time>
      </trkpt>
      <trkpt lat="43.50796" lon="6.63688">
        <ele>209.9</ele>
        <time>2023-11-05T09:48:57Z</time>
      </trkpt>
      <trkpt lat="43.50796" lon="6.63689">
        <ele>210.3</ele>
        <time>2023-11-05T09:48:58Z</time>
      </trkpt>
      <trkpt lat="43.50796" lon="6.63689">
        <ele>210.7</ele>
        <time>2023-11-05T09:48:59Z</time>
      </trkpt>
      <trkpt lat="43.50796" lon="6.63688">
        <ele>211</ele>
        <time>2023-11-05T09:49:00Z</time>
      </trkpt>
      <trkpt lat="43.50796" lon="6.63688">
        <ele>211.2</ele>
        <time>2023-11-05T09:49:01Z</time>
      </trkpt>
      <trkpt lat="43.50796" lon="6.63688">
        <ele>211.5</ele>
        <time>2023-11-05T09:49:02Z</time>
      </trkpt>
      <trkpt lat="43.50796" lon="6.63688">
        <ele>211.7</ele>
        <time>2023-11-05T09:49:03Z</time>
      </trkpt>
      <trkpt lat="43.50796" lon="6.63688">
        <ele>212</ele>
        <time>2023-11-05T09:49:04Z</time>
      </trkpt>
      <trkpt lat="43.50795" lon="6.63688">
        <ele>212.2</ele>
        <time>2023-11-05T09:49:05Z</time>
      </trkpt>
      <trkpt lat="43.50796" lon="6.63687">
        <ele>212.2</ele>
        <time>2023-11-05T09:49:06Z</time>
      </trkpt>
      <trkpt lat="43.50796" lon="6.63687">
        <ele>212.3</ele>
        <time>2023-11-05T09:49:07Z</time>
      </trkpt>
      <trkpt lat="43.50796" lon="6.63686">
        <ele>212.7</ele>
        <time>2023-11-05T09:49:08Z</time>
      </trkpt>
      <trkpt lat="43.50796" lon="6.63686">
        <ele>212.8</ele>
        <time>2023-11-05T09:49:09Z</time>
      </trkpt>
      <trkpt lat="43.50796" lon="6.63685">
        <ele>212.9</ele>
        <time>2023-11-05T09:49:10Z</time>
      </trkpt>
      <trkpt lat="43.50796" lon="6.63685">
        <ele>213</ele>
        <time>2023-11-05T09:49:11Z</time>
      </trkpt>
      <trkpt lat="43.50796" lon="6.63685">
        <ele>213</ele>
        <time>2023-11-05T09:49:12Z</time>
      </trkpt>
      <trkpt lat="43.50797" lon="6.63685">
        <ele>212.9</ele>
        <time>2023-11-05T09:49:13Z</time>
      </trkpt>
      <trkpt lat="43.50796" lon="6.63684">
        <ele>212.2</ele>
        <time>2023-11-05T09:49:14Z</time>
      </trkpt>
      <trkpt lat="43.50796" lon="6.63684">
        <ele>212.2</ele>
        <time>2023-11-05T09:49:15Z</time>
      </trkpt>
      <trkpt lat="43.50796" lon="6.63684">
        <ele>212.1</ele>
        <time>2023-11-05T09:49:16Z</time>
      </trkpt>
      <trkpt lat="43.50796" lon="6.63684">
        <ele>212</ele>
        <time>2023-11-05T09:49:17Z</time>
      </trkpt>
      <trkpt lat="43.50796" lon="6.63684">
        <ele>211.7</ele>
        <time>2023-11-05T09:49:18Z</time>
      </trkpt>
      <trkpt lat="43.50796" lon="6.63684">
        <ele>211.6</ele>
        <time>2023-11-05T09:49:19Z</time>
      </trkpt>
      <trkpt lat="43.50796" lon="6.63684">
        <ele>211.7</ele>
        <time>2023-11-05T09:49:20Z</time>
      </trkpt>
      <trkpt lat="43.50795" lon="6.63684">
        <ele>211.6</ele>
        <time>2023-11-05T09:49:21Z</time>
      </trkpt>
      <trkpt lat="43.50795" lon="6.63684">
        <ele>211.6</ele>
        <time>2023-11-05T09:49:22Z</time>
      </trkpt>
      <trkpt lat="43.50795" lon="6.63684">
        <ele>211.7</ele>
        <time>2023-11-05T09:49:23Z</time>
      </trkpt>
      <trkpt lat="43.50795" lon="6.63684">
        <ele>211.6</ele>
        <time>2023-11-05T09:49:24Z</time>
      </trkpt>
      <trkpt lat="43.50794" lon="6.63684">
        <ele>211.8</ele>
        <time>2023-11-05T09:49:25Z</time>
      </trkpt>
      <trkpt lat="43.50794" lon="6.63684">
        <ele>211.6</ele>
        <time>2023-11-05T09:49:26Z</time>
      </trkpt>
      <trkpt lat="43.50794" lon="6.63685">
        <ele>211.6</ele>
        <time>2023-11-05T09:49:27Z</time>
      </trkpt>
      <trkpt lat="43.50794" lon="6.63685">
        <ele>211.6</ele>
        <time>2023-11-05T09:49:28Z</time>
      </trkpt>
      <trkpt lat="43.50794" lon="6.63685">
        <ele>211.6</ele>
        <time>2023-11-05T09:49:29Z</time>
      </trkpt>
      <trkpt lat="43.50794" lon="6.63685">
        <ele>211.3</ele>
        <time>2023-11-05T09:49:30Z</time>
      </trkpt>
      <trkpt lat="43.50794" lon="6.63685">
        <ele>210.9</ele>
        <time>2023-11-05T09:49:31Z</time>
      </trkpt>
      <trkpt lat="43.50794" lon="6.63685">
        <ele>210.9</ele>
        <time>2023-11-05T09:49:32Z</time>
      </trkpt>
      <trkpt lat="43.50794" lon="6.63685">
        <ele>210.7</ele>
        <time>2023-11-05T09:49:33Z</time>
      </trkpt>
      <trkpt lat="43.50794" lon="6.63684">
        <ele>210.8</ele>
        <time>2023-11-05T09:49:34Z</time>
      </trkpt>
      <trkpt lat="43.50794" lon="6.63684">
        <ele>211</ele>
        <time>2023-11-05T09:49:35Z</time>
      </trkpt>
      <trkpt lat="43.50794" lon="6.63684">
        <ele>210.8</ele>
        <time>2023-11-05T09:49:36Z</time>
      </trkpt>
      <trkpt lat="43.50794" lon="6.63684">
        <ele>210.6</ele>
        <time>2023-11-05T09:49:37Z</time>
      </trkpt>
      <trkpt lat="43.50794" lon="6.63684">
        <ele>210.3</ele>
        <time>2023-11-05T09:49:38Z</time>
      </trkpt>
      <trkpt lat="43.50794" lon="6.63684">
        <ele>210.5</ele>
        <time>2023-11-05T09:49:39Z</time>
      </trkpt>
      <trkpt lat="43.50794" lon="6.63684">
        <ele>210.5</ele>
        <time>2023-11-05T09:49:40Z</time>
      </trkpt>
      <trkpt lat="43.50794" lon="6.63684">
        <ele>210.6</ele>
        <time>2023-11-05T09:49:41Z</time>
      </trkpt>
      <trkpt lat="43.50794" lon="6.63684">
        <ele>210.4</ele>
        <time>2023-11-05T09:49:42Z</time>
      </trkpt>
      <trkpt lat="43.50794" lon="6.63684">
        <ele>210.2</ele>
        <time>2023-11-05T09:49:43Z</time>
      </trkpt>
      <trkpt lat="43.50795" lon="6.63683">
        <ele>210.2</ele>
        <time>2023-11-05T09:49:44Z</time>
      </trkpt>
      <trkpt lat="43.50795" lon="6.63683">
        <ele>210.2</ele>
        <time>2023-11-05T09:49:45Z</time>
      </trkpt>
      <trkpt lat="43.50795" lon="6.63683">
        <ele>210.4</ele>
        <time>2023-11-05T09:49:46Z</time>
      </trkpt>
      <trkpt lat="43.50795" lon="6.63683">
        <ele>210.4</ele>
        <time>2023-11-05T09:49:47Z</time>
      </trkpt>
      <trkpt lat="43.50795" lon="6.63683">
        <ele>210.4</ele>
        <time>2023-11-05T09:49:48Z</time>
      </trkpt>
      <trkpt lat="43.50795" lon="6.63682">
        <ele>210.7</ele>
        <time>2023-11-05T09:49:49Z</time>
      </trkpt>
      <trkpt lat="43.50795" lon="6.63682">
        <ele>210.8</ele>
        <time>2023-11-05T09:49:50Z</time>
      </trkpt>
      <trkpt lat="43.50796" lon="6.63682">
        <ele>210.9</ele>
        <time>2023-11-05T09:49:51Z</time>
      </trkpt>
      <trkpt lat="43.50796" lon="6.63682">
        <ele>210.9</ele>
        <time>2023-11-05T09:49:52Z</time>
      </trkpt>
      <trkpt lat="43.50796" lon="6.63682">
        <ele>210.9</ele>
        <time>2023-11-05T09:49:53Z</time>
      </trkpt>
      <trkpt lat="43.50796" lon="6.63682">
        <ele>211</ele>
        <time>2023-11-05T09:49:54Z</time>
      </trkpt>
      <trkpt lat="43.50796" lon="6.63682">
        <ele>211</ele>
        <time>2023-11-05T09:49:55Z</time>
      </trkpt>
      <trkpt lat="43.50796" lon="6.63682">
        <ele>211</ele>
        <time>2023-11-05T09:49:56Z</time>
      </trkpt>
      <trkpt lat="43.50796" lon="6.63682">
        <ele>211.3</ele>
        <time>2023-11-05T09:49:57Z</time>
      </trkpt>
      <trkpt lat="43.50796" lon="6.63682">
        <ele>211.3</ele>
        <time>2023-11-05T09:49:58Z</time>
      </trkpt>
      <trkpt lat="43.50796" lon="6.63682">
        <ele>211.1</ele>
        <time>2023-11-05T09:49:59Z</time>
      </trkpt>
      <trkpt lat="43.50796" lon="6.63681">
        <ele>210.9</ele>
        <time>2023-11-05T09:50:00Z</time>
      </trkpt>
      <trkpt lat="43.50796" lon="6.63681">
        <ele>211</ele>
        <time>2023-11-05T09:50:01Z</time>
      </trkpt>
      <trkpt lat="43.50796" lon="6.63681">
        <ele>210.7</ele>
        <time>2023-11-05T09:50:02Z</time>
      </trkpt>
      <trkpt lat="43.50796" lon="6.63681">
        <ele>210.6</ele>
        <time>2023-11-05T09:50:03Z</time>
      </trkpt>
      <trkpt lat="43.50796" lon="6.63681">
        <ele>210.5</ele>
        <time>2023-11-05T09:50:04Z</time>
      </trkpt>
      <trkpt lat="43.50797" lon="6.63681">
        <ele>210.4</ele>
        <time>2023-11-05T09:50:05Z</time>
      </trkpt>
      <trkpt lat="43.50797" lon="6.63681">
        <ele>210.4</ele>
        <time>2023-11-05T09:50:06Z</time>
      </trkpt>
      <trkpt lat="43.50797" lon="6.6368">
        <ele>210.4</ele>
        <time>2023-11-05T09:50:07Z</time>
      </trkpt>
      <trkpt lat="43.50797" lon="6.6368">
        <ele>210.2</ele>
        <time>2023-11-05T09:50:08Z</time>
      </trkpt>
      <trkpt lat="43.50797" lon="6.6368">
        <ele>210.1</ele>
        <time>2023-11-05T09:50:09Z</time>
      </trkpt>
      <trkpt lat="43.50797" lon="6.6368">
        <ele>210</ele>
        <time>2023-11-05T09:50:10Z</time>
      </trkpt>
      <trkpt lat="43.50797" lon="6.6368">
        <ele>209.9</ele>
        <time>2023-11-05T09:50:11Z</time>
      </trkpt>
      <trkpt lat="43.50797" lon="6.6368">
        <ele>209.7</ele>
        <time>2023-11-05T09:50:12Z</time>
      </trkpt>
      <trkpt lat="43.50797" lon="6.6368">
        <ele>209.8</ele>
        <time>2023-11-05T09:50:13Z</time>
      </trkpt>
      <trkpt lat="43.50797" lon="6.6368">
        <ele>209.9</ele>
        <time>2023-11-05T09:50:14Z</time>
      </trkpt>
      <trkpt lat="43.50797" lon="6.6368">
        <ele>209.8</ele>
        <time>2023-11-05T09:50:15Z</time>
      </trkpt>
      <trkpt lat="43.50797" lon="6.63681">
        <ele>209.8</ele>
        <time>2023-11-05T09:50:16Z</time>
      </trkpt>
      <trkpt lat="43.50797" lon="6.63681">
        <ele>209.8</ele>
        <time>2023-11-05T09:50:17Z</time>
      </trkpt>
      <trkpt lat="43.50797" lon="6.63681">
        <ele>209.9</ele>
        <time>2023-11-05T09:50:18Z</time>
      </trkpt>
      <trkpt lat="43.50797" lon="6.63681">
        <ele>209.9</ele>
        <time>2023-11-05T09:50:19Z</time>
      </trkpt>
      <trkpt lat="43.50797" lon="6.63681">
        <ele>210</ele>
        <time>2023-11-05T09:50:20Z</time>
      </trkpt>
      <trkpt lat="43.50797" lon="6.63681">
        <ele>210.2</ele>
        <time>2023-11-05T09:50:21Z</time>
      </trkpt>
      <trkpt lat="43.50797" lon="6.63681">
        <ele>210.4</ele>
        <time>2023-11-05T09:50:22Z</time>
      </trkpt>
      <trkpt lat="43.50797" lon="6.63681">
        <ele>210.7</ele>
        <time>2023-11-05T09:50:23Z</time>
      </trkpt>
      <trkpt lat="43.50797" lon="6.6368">
        <ele>210.8</ele>
        <time>2023-11-05T09:50:24Z</time>
      </trkpt>
      <trkpt lat="43.50796" lon="6.6368">
        <ele>210.7</ele>
        <time>2023-11-05T09:50:25Z</time>
      </trkpt>
      <trkpt lat="43.50796" lon="6.6368">
        <ele>210.7</ele>
        <time>2023-11-05T09:50:26Z</time>
      </trkpt>
      <trkpt lat="43.50795" lon="6.63679">
        <ele>210.7</ele>
        <time>2023-11-05T09:50:27Z</time>
      </trkpt>
      <trkpt lat="43.50794" lon="6.63679">
        <ele>210.3</ele>
        <time>2023-11-05T09:50:28Z</time>
      </trkpt>
      <trkpt lat="43.50793" lon="6.6368">
        <ele>210</ele>
        <time>2023-11-05T09:50:29Z</time>
      </trkpt>
      <trkpt lat="43.50793" lon="6.6368">
        <ele>210.1</ele>
        <time>2023-11-05T09:50:30Z</time>
      </trkpt>
      <trkpt lat="43.50792" lon="6.63681">
        <ele>209.7</ele>
        <time>2023-11-05T09:50:31Z</time>
      </trkpt>
      <trkpt lat="43.50792" lon="6.63682">
        <ele>209.3</ele>
        <time>2023-11-05T09:50:32Z</time>
      </trkpt>
      <trkpt lat="43.50792" lon="6.63682">
        <ele>209.3</ele>
        <time>2023-11-05T09:50:33Z</time>
      </trkpt>
      <trkpt lat="43.50791" lon="6.63683">
        <ele>209.4</ele>
        <time>2023-11-05T09:50:34Z</time>
      </trkpt>
      <trkpt lat="43.50792" lon="6.63683">
        <ele>209.4</ele>
        <time>2023-11-05T09:50:35Z</time>
      </trkpt>
      <trkpt lat="43.50792" lon="6.63684">
        <ele>209.4</ele>
        <time>2023-11-05T09:50:36Z</time>
      </trkpt>
      <trkpt lat="43.50792" lon="6.63684">
        <ele>209.5</ele>
        <time>2023-11-05T09:50:37Z</time>
      </trkpt>
      <trkpt lat="43.50792" lon="6.63683">
        <ele>209.6</ele>
        <time>2023-11-05T09:50:38Z</time>
      </trkpt>
      <trkpt lat="43.50793" lon="6.63683">
        <ele>209.8</ele>
        <time>2023-11-05T09:50:39Z</time>
      </trkpt>
      <trkpt lat="43.50793" lon="6.63682">
        <ele>210</ele>
        <time>2023-11-05T09:50:40Z</time>
      </trkpt>
      <trkpt lat="43.50793" lon="6.63682">
        <ele>209.9</ele>
        <time>2023-11-05T09:50:41Z</time>
      </trkpt>
      <trkpt lat="43.50794" lon="6.63681">
        <ele>209.7</ele>
        <time>2023-11-05T09:50:42Z</time>
      </trkpt>
      <trkpt lat="43.50794" lon="6.63681">
        <ele>209.6</ele>
        <time>2023-11-05T09:50:43Z</time>
      </trkpt>
      <trkpt lat="43.50794" lon="6.63681">
        <ele>209.6</ele>
        <time>2023-11-05T09:50:44Z</time>
      </trkpt>
      <trkpt lat="43.50795" lon="6.6368">
        <ele>209.6</ele>
        <time>2023-11-05T09:50:45Z</time>
      </trkpt>
      <trkpt lat="43.50795" lon="6.6368">
        <ele>209.5</ele>
        <time>2023-11-05T09:50:46Z</time>
      </trkpt>
      <trkpt lat="43.50795" lon="6.63681">
        <ele>209.5</ele>
        <time>2023-11-05T09:50:47Z</time>
      </trkpt>
      <trkpt lat="43.50795" lon="6.63682">
        <ele>209.3</ele>
        <time>2023-11-05T09:50:48Z</time>
      </trkpt>
      <trkpt lat="43.50795" lon="6.63682">
        <ele>209.3</ele>
        <time>2023-11-05T09:50:49Z</time>
      </trkpt>
      <trkpt lat="43.50795" lon="6.63682">
        <ele>209.2</ele>
        <time>2023-11-05T09:50:50Z</time>
      </trkpt>
      <trkpt lat="43.50795" lon="6.63684">
        <ele>209.4</ele>
        <time>2023-11-05T09:50:51Z</time>
      </trkpt>
      <trkpt lat="43.50796" lon="6.63683">
        <ele>209.7</ele>
        <time>2023-11-05T09:50:52Z</time>
      </trkpt>
      <trkpt lat="43.50796" lon="6.63684">
        <ele>209.9</ele>
        <time>2023-11-05T09:50:53Z</time>
      </trkpt>
      <trkpt lat="43.50796" lon="6.63683">
        <ele>209.9</ele>
        <time>2023-11-05T09:50:54Z</time>
      </trkpt>
      <trkpt lat="43.50796" lon="6.63683">
        <ele>209.8</ele>
        <time>2023-11-05T09:50:55Z</time>
      </trkpt>
      <trkpt lat="43.50796" lon="6.63683">
        <ele>209.6</ele>
        <time>2023-11-05T09:50:56Z</time>
      </trkpt>
      <trkpt lat="43.50796" lon="6.63683">
        <ele>209.6</ele>
        <time>2023-11-05T09:50:57Z</time>
      </trkpt>
      <trkpt lat="43.50797" lon="6.63683">
        <ele>209.5</ele>
        <time>2023-11-05T09:50:58Z</time>
      </trkpt>
      <trkpt lat="43.50797" lon="6.63683">
        <ele>209.5</ele>
        <time>2023-11-05T09:50:59Z</time>
      </trkpt>
      <trkpt lat="43.50797" lon="6.63683">
        <ele>209.6</ele>
        <time>2023-11-05T09:51:00Z</time>
      </trkpt>
      <trkpt lat="43.50797" lon="6.63683">
        <ele>209.9</ele>
        <time>2023-11-05T09:51:01Z</time>
      </trkpt>
      <trkpt lat="43.50796" lon="6.63683">
        <ele>210</ele>
        <time>2023-11-05T09:51:02Z</time>
      </trkpt>
      <trkpt lat="43.50796" lon="6.63683">
        <ele>209.9</ele>
        <time>2023-11-05T09:51:03Z</time>
      </trkpt>
      <trkpt lat="43.50796" lon="6.63683">
        <ele>209.9</ele>
        <time>2023-11-05T09:51:04Z</time>
      </trkpt>
      <trkpt lat="43.50796" lon="6.63683">
        <ele>210</ele>
        <time>2023-11-05T09:51:05Z</time>
      </trkpt>
      <trkpt lat="43.50796" lon="6.63683">
        <ele>209.9</ele>
        <time>2023-11-05T09:51:06Z</time>
      </trkpt>
      <trkpt lat="43.50796" lon="6.63683">
        <ele>209.8</ele>
        <time>2023-11-05T09:51:07Z</time>
      </trkpt>
      <trkpt lat="43.50796" lon="6.63683">
        <ele>209.6</ele>
        <time>2023-11-05T09:51:08Z</time>
      </trkpt>
      <trkpt lat="43.50796" lon="6.63683">
        <ele>209.6</ele>
        <time>2023-11-05T09:51:09Z</time>
      </trkpt>
      <trkpt lat="43.50796" lon="6.63683">
        <ele>209.6</ele>
        <time>2023-11-05T09:51:10Z</time>
      </trkpt>
      <trkpt lat="43.50796" lon="6.63682">
        <ele>209.9</ele>
        <time>2023-11-05T09:51:11Z</time>
      </trkpt>
      <trkpt lat="43.50796" lon="6.63682">
        <ele>209.8</ele>
        <time>2023-11-05T09:51:12Z</time>
      </trkpt>
      <trkpt lat="43.50796" lon="6.63683">
        <ele>209.8</ele>
        <time>2023-11-05T09:51:13Z</time>
      </trkpt>
      <trkpt lat="43.50796" lon="6.63683">
        <ele>209.9</ele>
        <time>2023-11-05T09:51:14Z</time>
      </trkpt>
      <trkpt lat="43.50796" lon="6.63683">
        <ele>209.9</ele>
        <time>2023-11-05T09:51:15Z</time>
      </trkpt>
      <trkpt lat="43.50796" lon="6.63683">
        <ele>209.9</ele>
        <time>2023-11-05T09:51:16Z</time>
      </trkpt>
      <trkpt lat="43.50796" lon="6.63683">
        <ele>209.8</ele>
        <time>2023-11-05T09:51:17Z</time>
      </trkpt>
      <trkpt lat="43.50796" lon="6.63683">
        <ele>209.8</ele>
        <time>2023-11-05T09:51:18Z</time>
      </trkpt>
      <trkpt lat="43.50796" lon="6.63684">
        <ele>209.9</ele>
        <time>2023-11-05T09:51:19Z</time>
      </trkpt>
      <trkpt lat="43.50796" lon="6.63684">
        <ele>210.1</ele>
        <time>2023-11-05T09:51:20Z</time>
      </trkpt>
      <trkpt lat="43.50796" lon="6.63684">
        <ele>210.2</ele>
        <time>2023-11-05T09:51:21Z</time>
      </trkpt>
      <trkpt lat="43.50796" lon="6.63684">
        <ele>210.4</ele>
        <time>2023-11-05T09:51:22Z</time>
      </trkpt>
      <trkpt lat="43.50796" lon="6.63684">
        <ele>210.7</ele>
        <time>2023-11-05T09:51:23Z</time>
      </trkpt>
      <trkpt lat="43.50796" lon="6.63684">
        <ele>210.7</ele>
        <time>2023-11-05T09:51:24Z</time>
      </trkpt>
      <trkpt lat="43.50796" lon="6.63684">
        <ele>210.5</ele>
        <time>2023-11-05T09:51:25Z</time>
      </trkpt>
      <trkpt lat="43.50796" lon="6.63684">
        <ele>210.4</ele>
        <time>2023-11-05T09:51:26Z</time>
      </trkpt>
      <trkpt lat="43.50796" lon="6.63684">
        <ele>210.3</ele>
        <time>2023-11-05T09:51:27Z</time>
      </trkpt>
      <trkpt lat="43.50796" lon="6.63685">
        <ele>210.3</ele>
        <time>2023-11-05T09:51:28Z</time>
      </trkpt>
      <trkpt lat="43.50796" lon="6.63685">
        <ele>210.2</ele>
        <time>2023-11-05T09:51:29Z</time>
      </trkpt>
      <trkpt lat="43.50796" lon="6.63685">
        <ele>210</ele>
        <time>2023-11-05T09:51:30Z</time>
      </trkpt>
      <trkpt lat="43.50796" lon="6.63685">
        <ele>209.8</ele>
        <time>2023-11-05T09:51:31Z</time>
      </trkpt>
      <trkpt lat="43.50796" lon="6.63685">
        <ele>209.8</ele>
        <time>2023-11-05T09:51:32Z</time>
      </trkpt>
      <trkpt lat="43.50796" lon="6.63685">
        <ele>209.8</ele>
        <time>2023-11-05T09:51:33Z</time>
      </trkpt>
      <trkpt lat="43.50796" lon="6.63685">
        <ele>209.7</ele>
        <time>2023-11-05T09:51:34Z</time>
      </trkpt>
      <trkpt lat="43.50796" lon="6.63685">
        <ele>209.9</ele>
        <time>2023-11-05T09:51:35Z</time>
      </trkpt>
      <trkpt lat="43.50795" lon="6.63686">
        <ele>210.1</ele>
        <time>2023-11-05T09:51:36Z</time>
      </trkpt>
      <trkpt lat="43.50796" lon="6.63685">
        <ele>210.4</ele>
        <time>2023-11-05T09:51:37Z</time>
      </trkpt>
      <trkpt lat="43.50796" lon="6.63685">
        <ele>210.4</ele>
        <time>2023-11-05T09:51:38Z</time>
      </trkpt>
      <trkpt lat="43.50796" lon="6.63685">
        <ele>210.4</ele>
        <time>2023-11-05T09:51:39Z</time>
      </trkpt>
      <trkpt lat="43.50796" lon="6.63685">
        <ele>210.4</ele>
        <time>2023-11-05T09:51:40Z</time>
      </trkpt>
      <trkpt lat="43.50796" lon="6.63685">
        <ele>210.6</ele>
        <time>2023-11-05T09:51:41Z</time>
      </trkpt>
      <trkpt lat="43.50796" lon="6.63685">
        <ele>210.8</ele>
        <time>2023-11-05T09:51:42Z</time>
      </trkpt>
      <trkpt lat="43.50796" lon="6.63685">
        <ele>210.8</ele>
        <time>2023-11-05T09:51:43Z</time>
      </trkpt>
      <trkpt lat="43.50797" lon="6.63685">
        <ele>210.8</ele>
        <time>2023-11-05T09:51:44Z</time>
      </trkpt>
      <trkpt lat="43.50797" lon="6.63685">
        <ele>210.6</ele>
        <time>2023-11-05T09:51:45Z</time>
      </trkpt>
      <trkpt lat="43.50797" lon="6.63685">
        <ele>210.6</ele>
        <time>2023-11-05T09:51:46Z</time>
      </trkpt>
      <trkpt lat="43.50796" lon="6.63684">
        <ele>210.6</ele>
        <time>2023-11-05T09:51:47Z</time>
      </trkpt>
      <trkpt lat="43.50796" lon="6.63684">
        <ele>210.2</ele>
        <time>2023-11-05T09:51:48Z</time>
      </trkpt>
      <trkpt lat="43.50796" lon="6.63684">
        <ele>209.9</ele>
        <time>2023-11-05T09:51:49Z</time>
      </trkpt>
      <trkpt lat="43.50796" lon="6.63684">
        <ele>210</ele>
        <time>2023-11-05T09:51:50Z</time>
      </trkpt>
      <trkpt lat="43.50796" lon="6.63684">
        <ele>210</ele>
        <time>2023-11-05T09:51:51Z</time>
      </trkpt>
      <trkpt lat="43.50797" lon="6.63684">
        <ele>209.9</ele>
        <time>2023-11-05T09:51:52Z</time>
      </trkpt>
      <trkpt lat="43.50797" lon="6.63684">
        <ele>209.7</ele>
        <time>2023-11-05T09:51:53Z</time>
      </trkpt>
      <trkpt lat="43.50797" lon="6.63684">
        <ele>209.6</ele>
        <time>2023-11-05T09:51:54Z</time>
      </trkpt>
      <trkpt lat="43.50797" lon="6.63685">
        <ele>209.5</ele>
        <time>2023-11-05T09:51:55Z</time>
      </trkpt>
      <trkpt lat="43.50797" lon="6.63685">
        <ele>209.4</ele>
        <time>2023-11-05T09:51:56Z</time>
      </trkpt>
      <trkpt lat="43.50797" lon="6.63685">
        <ele>209.6</ele>
        <time>2023-11-05T09:51:57Z</time>
      </trkpt>
      <trkpt lat="43.50797" lon="6.63685">
        <ele>210</ele>
        <time>2023-11-05T09:51:58Z</time>
      </trkpt>
      <trkpt lat="43.50797" lon="6.63685">
        <ele>210.4</ele>
        <time>2023-11-05T09:51:59Z</time>
      </trkpt>
      <trkpt lat="43.50797" lon="6.63685">
        <ele>210.5</ele>
        <time>2023-11-05T09:52:00Z</time>
      </trkpt>
      <trkpt lat="43.50798" lon="6.63685">
        <ele>210.5</ele>
        <time>2023-11-05T09:52:01Z</time>
      </trkpt>
      <trkpt lat="43.50798" lon="6.63685">
        <ele>210.6</ele>
        <time>2023-11-05T09:52:02Z</time>
      </trkpt>
      <trkpt lat="43.50797" lon="6.63685">
        <ele>210.5</ele>
        <time>2023-11-05T09:52:03Z</time>
      </trkpt>
      <trkpt lat="43.50797" lon="6.63685">
        <ele>210.4</ele>
        <time>2023-11-05T09:52:04Z</time>
      </trkpt>
      <trkpt lat="43.50797" lon="6.63685">
        <ele>210.6</ele>
        <time>2023-11-05T09:52:05Z</time>
      </trkpt>
      <trkpt lat="43.50797" lon="6.63685">
        <ele>210.7</ele>
        <time>2023-11-05T09:52:06Z</time>
      </trkpt>
      <trkpt lat="43.50797" lon="6.63685">
        <ele>210.7</ele>
        <time>2023-11-05T09:52:07Z</time>
      </trkpt>
      <trkpt lat="43.50797" lon="6.63685">
        <ele>210.8</ele>
        <time>2023-11-05T09:52:08Z</time>
      </trkpt>
      <trkpt lat="43.50797" lon="6.63685">
        <ele>210.7</ele>
        <time>2023-11-05T09:52:09Z</time>
      </trkpt>
      <trkpt lat="43.50797" lon="6.63686">
        <ele>210.5</ele>
        <time>2023-11-05T09:52:10Z</time>
      </trkpt>
      <trkpt lat="43.50797" lon="6.63686">
        <ele>210.3</ele>
        <time>2023-11-05T09:52:11Z</time>
      </trkpt>
      <trkpt lat="43.50797" lon="6.63685">
        <ele>210.3</ele>
        <time>2023-11-05T09:52:12Z</time>
      </trkpt>
      <trkpt lat="43.50797" lon="6.63685">
        <ele>210.2</ele>
        <time>2023-11-05T09:52:13Z</time>
      </trkpt>
      <trkpt lat="43.50797" lon="6.63685">
        <ele>210.3</ele>
        <time>2023-11-05T09:52:14Z</time>
      </trkpt>
      <trkpt lat="43.50797" lon="6.63685">
        <ele>210.3</ele>
        <time>2023-11-05T09:52:15Z</time>
      </trkpt>
      <trkpt lat="43.50797" lon="6.63686">
        <ele>210.3</ele>
        <time>2023-11-05T09:52:16Z</time>
      </trkpt>
      <trkpt lat="43.50797" lon="6.63686">
        <ele>210.1</ele>
        <time>2023-11-05T09:52:17Z</time>
      </trkpt>
      <trkpt lat="43.50798" lon="6.63685">
        <ele>210</ele>
        <time>2023-11-05T09:52:18Z</time>
      </trkpt>
      <trkpt lat="43.50798" lon="6.63685">
        <ele>209.8</ele>
        <time>2023-11-05T09:52:19Z</time>
      </trkpt>
      <trkpt lat="43.50798" lon="6.63686">
        <ele>209.6</ele>
        <time>2023-11-05T09:52:20Z</time>
      </trkpt>
      <trkpt lat="43.50798" lon="6.63686">
        <ele>209.6</ele>
        <time>2023-11-05T09:52:21Z</time>
      </trkpt>
      <trkpt lat="43.50798" lon="6.63686">
        <ele>209.6</ele>
        <time>2023-11-05T09:52:22Z</time>
      </trkpt>
      <trkpt lat="43.50798" lon="6.63686">
        <ele>209.6</ele>
        <time>2023-11-05T09:52:23Z</time>
      </trkpt>
      <trkpt lat="43.50798" lon="6.63686">
        <ele>209.5</ele>
        <time>2023-11-05T09:52:24Z</time>
      </trkpt>
      <trkpt lat="43.50798" lon="6.63686">
        <ele>209.4</ele>
        <time>2023-11-05T09:52:25Z</time>
      </trkpt>
      <trkpt lat="43.50798" lon="6.63686">
        <ele>209.3</ele>
        <time>2023-11-05T09:52:26Z</time>
      </trkpt>
      <trkpt lat="43.50798" lon="6.63686">
        <ele>209.2</ele>
        <time>2023-11-05T09:52:27Z</time>
      </trkpt>
      <trkpt lat="43.50798" lon="6.63686">
        <ele>209.2</ele>
        <time>2023-11-05T09:52:28Z</time>
      </trkpt>
      <trkpt lat="43.50798" lon="6.63686">
        <ele>209.5</ele>
        <time>2023-11-05T09:52:29Z</time>
      </trkpt>
      <trkpt lat="43.50798" lon="6.63686">
        <ele>209.7</ele>
        <time>2023-11-05T09:52:30Z</time>
      </trkpt>
      <trkpt lat="43.50798" lon="6.63687">
        <ele>209.8</ele>
        <time>2023-11-05T09:52:31Z</time>
      </trkpt>
      <trkpt lat="43.50798" lon="6.63686">
        <ele>209.8</ele>
        <time>2023-11-05T09:52:32Z</time>
      </trkpt>
      <trkpt lat="43.50798" lon="6.63686">
        <ele>210.2</ele>
        <time>2023-11-05T09:52:33Z</time>
      </trkpt>
      <trkpt lat="43.50798" lon="6.63686">
        <ele>210.4</ele>
        <time>2023-11-05T09:52:34Z</time>
      </trkpt>
      <trkpt lat="43.50798" lon="6.63685">
        <ele>210.4</ele>
        <time>2023-11-05T09:52:35Z</time>
      </trkpt>
      <trkpt lat="43.50798" lon="6.63684">
        <ele>210.4</ele>
        <time>2023-11-05T09:52:36Z</time>
      </trkpt>
      <trkpt lat="43.50798" lon="6.63683">
        <ele>210.2</ele>
        <time>2023-11-05T09:52:37Z</time>
      </trkpt>
      <trkpt lat="43.50797" lon="6.63682">
        <ele>209.8</ele>
        <time>2023-11-05T09:52:38Z</time>
      </trkpt>
      <trkpt lat="43.50797" lon="6.63681">
        <ele>209.5</ele>
        <time>2023-11-05T09:52:39Z</time>
      </trkpt>
      <trkpt lat="43.50797" lon="6.6368">
        <ele>209.6</ele>
        <time>2023-11-05T09:52:40Z</time>
      </trkpt>
      <trkpt lat="43.50797" lon="6.63679">
        <ele>209.5</ele>
        <time>2023-11-05T09:52:41Z</time>
      </trkpt>
      <trkpt lat="43.50797" lon="6.63678">
        <ele>209.4</ele>
        <time>2023-11-05T09:52:42Z</time>
      </trkpt>
      <trkpt lat="43.50796" lon="6.63677">
        <ele>209.3</ele>
        <time>2023-11-05T09:52:43Z</time>
      </trkpt>
      <trkpt lat="43.50796" lon="6.63676">
        <ele>209.4</ele>
        <time>2023-11-05T09:52:44Z</time>
      </trkpt>
      <trkpt lat="43.50796" lon="6.63675">
        <ele>209.6</ele>
        <time>2023-11-05T09:52:45Z</time>
      </trkpt>
      <trkpt lat="43.50796" lon="6.63675">
        <ele>209.9</ele>
        <time>2023-11-05T09:52:46Z</time>
      </trkpt>
      <trkpt lat="43.50795" lon="6.63674">
        <ele>209.9</ele>
        <time>2023-11-05T09:52:47Z</time>
      </trkpt>
      <trkpt lat="43.50795" lon="6.63673">
        <ele>209.9</ele>
        <time>2023-11-05T09:52:48Z</time>
      </trkpt>
      <trkpt lat="43.50795" lon="6.63672">
        <ele>209.7</ele>
        <time>2023-11-05T09:52:49Z</time>
      </trkpt>
      <trkpt lat="43.50794" lon="6.63672">
        <ele>209.7</ele>
        <time>2023-11-05T09:52:50Z</time>
      </trkpt>
      <trkpt lat="43.50794" lon="6.63671">
        <ele>209.5</ele>
        <time>2023-11-05T09:52:51Z</time>
      </trkpt>
      <trkpt lat="43.50793" lon="6.6367">
        <ele>209.3</ele>
        <time>2023-11-05T09:52:52Z</time>
      </trkpt>
      <trkpt lat="43.50792" lon="6.63669">
        <ele>209.2</ele>
        <time>2023-11-05T09:52:53Z</time>
      </trkpt>
      <trkpt lat="43.50792" lon="6.63668">
        <ele>209</ele>
        <time>2023-11-05T09:52:54Z</time>
      </trkpt>
      <trkpt lat="43.50791" lon="6.63667">
        <ele>208.8</ele>
        <time>2023-11-05T09:52:55Z</time>
      </trkpt>
      <trkpt lat="43.5079" lon="6.63666">
        <ele>209</ele>
        <time>2023-11-05T09:52:56Z</time>
      </trkpt>
      <trkpt lat="43.50789" lon="6.63665">
        <ele>208.7</ele>
        <time>2023-11-05T09:52:57Z</time>
      </trkpt>
      <trkpt lat="43.50788" lon="6.63665">
        <ele>208</ele>
        <time>2023-11-05T09:52:58Z</time>
      </trkpt>
      <trkpt lat="43.50787" lon="6.63665">
        <ele>208.1</ele>
        <time>2023-11-05T09:52:59Z</time>
      </trkpt>
      <trkpt lat="43.50786" lon="6.63665">
        <ele>208.1</ele>
        <time>2023-11-05T09:53:00Z</time>
      </trkpt>
      <trkpt lat="43.50786" lon="6.63665">
        <ele>208.2</ele>
        <time>2023-11-05T09:53:01Z</time>
      </trkpt>
      <trkpt lat="43.50786" lon="6.63666">
        <ele>208.5</ele>
        <time>2023-11-05T09:53:02Z</time>
      </trkpt>
      <trkpt lat="43.50786" lon="6.63665">
        <ele>208.2</ele>
        <time>2023-11-05T09:53:03Z</time>
      </trkpt>
      <trkpt lat="43.50786" lon="6.63665">
        <ele>207.9</ele>
        <time>2023-11-05T09:53:04Z</time>
      </trkpt>
      <trkpt lat="43.50785" lon="6.63665">
        <ele>207.7</ele>
        <time>2023-11-05T09:53:05Z</time>
      </trkpt>
      <trkpt lat="43.50785" lon="6.63665">
        <ele>207.7</ele>
        <time>2023-11-05T09:53:06Z</time>
      </trkpt>
      <trkpt lat="43.50785" lon="6.63665">
        <ele>207.9</ele>
        <time>2023-11-05T09:53:07Z</time>
      </trkpt>
      <trkpt lat="43.50785" lon="6.63665">
        <ele>207.9</ele>
        <time>2023-11-05T09:53:08Z</time>
      </trkpt>
      <trkpt lat="43.50784" lon="6.63665">
        <ele>207.8</ele>
        <time>2023-11-05T09:53:09Z</time>
      </trkpt>
      <trkpt lat="43.50784" lon="6.63666">
        <ele>207.7</ele>
        <time>2023-11-05T09:53:10Z</time>
      </trkpt>
      <trkpt lat="43.50784" lon="6.63667">
        <ele>207.7</ele>
        <time>2023-11-05T09:53:11Z</time>
      </trkpt>
      <trkpt lat="43.50785" lon="6.63668">
        <ele>207.6</ele>
        <time>2023-11-05T09:53:12Z</time>
      </trkpt>
      <trkpt lat="43.50785" lon="6.63669">
        <ele>207.5</ele>
        <time>2023-11-05T09:53:13Z</time>
      </trkpt>
      <trkpt lat="43.50785" lon="6.6367">
        <ele>207.2</ele>
        <time>2023-11-05T09:53:14Z</time>
      </trkpt>
      <trkpt lat="43.50785" lon="6.63671">
        <ele>207.3</ele>
        <time>2023-11-05T09:53:15Z</time>
      </trkpt>
      <trkpt lat="43.50786" lon="6.63672">
        <ele>207</ele>
        <time>2023-11-05T09:53:16Z</time>
      </trkpt>
      <trkpt lat="43.50786" lon="6.63673">
        <ele>206.9</ele>
        <time>2023-11-05T09:53:17Z</time>
      </trkpt>
      <trkpt lat="43.50787" lon="6.63674">
        <ele>206.8</ele>
        <time>2023-11-05T09:53:18Z</time>
      </trkpt>
      <trkpt lat="43.50787" lon="6.63676">
        <ele>206.9</ele>
        <time>2023-11-05T09:53:19Z</time>
      </trkpt>
      <trkpt lat="43.50787" lon="6.63677">
        <ele>207.5</ele>
        <time>2023-11-05T09:53:20Z</time>
      </trkpt>
      <trkpt lat="43.50787" lon="6.63678">
        <ele>207.6</ele>
        <time>2023-11-05T09:53:21Z</time>
      </trkpt>
      <trkpt lat="43.50788" lon="6.63678">
        <ele>207.6</ele>
        <time>2023-11-05T09:53:22Z</time>
      </trkpt>
      <trkpt lat="43.50788" lon="6.63679">
        <ele>207.6</ele>
        <time>2023-11-05T09:53:23Z</time>
      </trkpt>
      <trkpt lat="43.50789" lon="6.6368">
        <ele>207.7</ele>
        <time>2023-11-05T09:53:24Z</time>
      </trkpt>
      <trkpt lat="43.50789" lon="6.6368">
        <ele>207.6</ele>
        <time>2023-11-05T09:53:25Z</time>
      </trkpt>
      <trkpt lat="43.5079" lon="6.63681">
        <ele>207.6</ele>
        <time>2023-11-05T09:53:26Z</time>
      </trkpt>
      <trkpt lat="43.5079" lon="6.63682">
        <ele>207.7</ele>
        <time>2023-11-05T09:53:27Z</time>
      </trkpt>
      <trkpt lat="43.5079" lon="6.63683">
        <ele>207.9</ele>
        <time>2023-11-05T09:53:28Z</time>
      </trkpt>
      <trkpt lat="43.50791" lon="6.63684">
        <ele>207.9</ele>
        <time>2023-11-05T09:53:29Z</time>
      </trkpt>
      <trkpt lat="43.50791" lon="6.63684">
        <ele>208</ele>
        <time>2023-11-05T09:53:30Z</time>
      </trkpt>
      <trkpt lat="43.5079" lon="6.63684">
        <ele>208.2</ele>
        <time>2023-11-05T09:53:31Z</time>
      </trkpt>
      <trkpt lat="43.5079" lon="6.63685">
        <ele>208.4</ele>
        <time>2023-11-05T09:53:32Z</time>
      </trkpt>
      <trkpt lat="43.5079" lon="6.63685">
        <ele>208.3</ele>
        <time>2023-11-05T09:53:33Z</time>
      </trkpt>
      <trkpt lat="43.5079" lon="6.63685">
        <ele>208.9</ele>
        <time>2023-11-05T09:53:34Z</time>
      </trkpt>
      <trkpt lat="43.5079" lon="6.63685">
        <ele>209.2</ele>
        <time>2023-11-05T09:53:35Z</time>
      </trkpt>
      <trkpt lat="43.50789" lon="6.63685">
        <ele>209.4</ele>
        <time>2023-11-05T09:53:36Z</time>
      </trkpt>
      <trkpt lat="43.50789" lon="6.63685">
        <ele>209.3</ele>
        <time>2023-11-05T09:53:37Z</time>
      </trkpt>
      <trkpt lat="43.50789" lon="6.63685">
        <ele>209.3</ele>
        <time>2023-11-05T09:53:38Z</time>
      </trkpt>
      <trkpt lat="43.50789" lon="6.63685">
        <ele>209.4</ele>
        <time>2023-11-05T09:53:39Z</time>
      </trkpt>
      <trkpt lat="43.5079" lon="6.63685">
        <ele>209.5</ele>
        <time>2023-11-05T09:53:40Z</time>
      </trkpt>
      <trkpt lat="43.5079" lon="6.63685">
        <ele>209.3</ele>
        <time>2023-11-05T09:53:41Z</time>
      </trkpt>
      <trkpt lat="43.5079" lon="6.63685">
        <ele>209.4</ele>
        <time>2023-11-05T09:53:42Z</time>
      </trkpt>
      <trkpt lat="43.5079" lon="6.63685">
        <ele>209.2</ele>
        <time>2023-11-05T09:53:43Z</time>
      </trkpt>
      <trkpt lat="43.5079" lon="6.63685">
        <ele>209.1</ele>
        <time>2023-11-05T09:53:44Z</time>
      </trkpt>
      <trkpt lat="43.5079" lon="6.63685">
        <ele>209.4</ele>
        <time>2023-11-05T09:53:45Z</time>
      </trkpt>
      <trkpt lat="43.50791" lon="6.63685">
        <ele>209.5</ele>
        <time>2023-11-05T09:53:46Z</time>
      </trkpt>
      <trkpt lat="43.50791" lon="6.63685">
        <ele>209.5</ele>
        <time>2023-11-05T09:53:47Z</time>
      </trkpt>
      <trkpt lat="43.5079" lon="6.63685">
        <ele>209.6</ele>
        <time>2023-11-05T09:53:48Z</time>
      </trkpt>
      <trkpt lat="43.5079" lon="6.63685">
        <ele>209.7</ele>
        <time>2023-11-05T09:53:49Z</time>
      </trkpt>
      <trkpt lat="43.50791" lon="6.63685">
        <ele>209.7</ele>
        <time>2023-11-05T09:53:50Z</time>
      </trkpt>
      <trkpt lat="43.50791" lon="6.63685">
        <ele>209.7</ele>
        <time>2023-11-05T09:53:51Z</time>
      </trkpt>
      <trkpt lat="43.50792" lon="6.63685">
        <ele>209.8</ele>
        <time>2023-11-05T09:53:52Z</time>
      </trkpt>
      <trkpt lat="43.50792" lon="6.63685">
        <ele>209.6</ele>
        <time>2023-11-05T09:53:53Z</time>
      </trkpt>
      <trkpt lat="43.50792" lon="6.63686">
        <ele>209.5</ele>
        <time>2023-11-05T09:53:54Z</time>
      </trkpt>
      <trkpt lat="43.50792" lon="6.63685">
        <ele>209.7</ele>
        <time>2023-11-05T09:53:55Z</time>
      </trkpt>
      <trkpt lat="43.50792" lon="6.63685">
        <ele>209.8</ele>
        <time>2023-11-05T09:53:56Z</time>
      </trkpt>
      <trkpt lat="43.50793" lon="6.63685">
        <ele>209.8</ele>
        <time>2023-11-05T09:53:57Z</time>
      </trkpt>
      <trkpt lat="43.50793" lon="6.63686">
        <ele>209.9</ele>
        <time>2023-11-05T09:53:58Z</time>
      </trkpt>
      <trkpt lat="43.50793" lon="6.63686">
        <ele>209.7</ele>
        <time>2023-11-05T09:53:59Z</time>
      </trkpt>
      <trkpt lat="43.50793" lon="6.63686">
        <ele>209.9</ele>
        <time>2023-11-05T09:54:00Z</time>
      </trkpt>
      <trkpt lat="43.50793" lon="6.63686">
        <ele>209.7</ele>
        <time>2023-11-05T09:54:01Z</time>
      </trkpt>
      <trkpt lat="43.50794" lon="6.63686">
        <ele>209.7</ele>
        <time>2023-11-05T09:54:02Z</time>
      </trkpt>
      <trkpt lat="43.50794" lon="6.63686">
        <ele>209.4</ele>
        <time>2023-11-05T09:54:03Z</time>
      </trkpt>
      <trkpt lat="43.50794" lon="6.63686">
        <ele>209.4</ele>
        <time>2023-11-05T09:54:04Z</time>
      </trkpt>
      <trkpt lat="43.50794" lon="6.63686">
        <ele>209.3</ele>
        <time>2023-11-05T09:54:05Z</time>
      </trkpt>
      <trkpt lat="43.50795" lon="6.63685">
        <ele>209.1</ele>
        <time>2023-11-05T09:54:06Z</time>
      </trkpt>
      <trkpt lat="43.50795" lon="6.63685">
        <ele>209</ele>
        <time>2023-11-05T09:54:07Z</time>
      </trkpt>
      <trkpt lat="43.50795" lon="6.63685">
        <ele>208.8</ele>
        <time>2023-11-05T09:54:08Z</time>
      </trkpt>
      <trkpt lat="43.50796" lon="6.63685">
        <ele>208.8</ele>
        <time>2023-11-05T09:54:09Z</time>
      </trkpt>
      <trkpt lat="43.50796" lon="6.63685">
        <ele>208.8</ele>
        <time>2023-11-05T09:54:10Z</time>
      </trkpt>
      <trkpt lat="43.50796" lon="6.63685">
        <ele>208.9</ele>
        <time>2023-11-05T09:54:11Z</time>
      </trkpt>
      <trkpt lat="43.50796" lon="6.63686">
        <ele>208.8</ele>
        <time>2023-11-05T09:54:12Z</time>
      </trkpt>
      <trkpt lat="43.50796" lon="6.63686">
        <ele>208.7</ele>
        <time>2023-11-05T09:54:13Z</time>
      </trkpt>
      <trkpt lat="43.50796" lon="6.63686">
        <ele>208.6</ele>
        <time>2023-11-05T09:54:14Z</time>
      </trkpt>
      <trkpt lat="43.50796" lon="6.63686">
        <ele>208.4</ele>
        <time>2023-11-05T09:54:15Z</time>
      </trkpt>
      <trkpt lat="43.50796" lon="6.63686">
        <ele>208.2</ele>
        <time>2023-11-05T09:54:16Z</time>
      </trkpt>
      <trkpt lat="43.50796" lon="6.63686">
        <ele>208.5</ele>
        <time>2023-11-05T09:54:17Z</time>
      </trkpt>
      <trkpt lat="43.50796" lon="6.63686">
        <ele>208.9</ele>
        <time>2023-11-05T09:54:18Z</time>
      </trkpt>
      <trkpt lat="43.50796" lon="6.63686">
        <ele>209.1</ele>
        <time>2023-11-05T09:54:19Z</time>
      </trkpt>
      <trkpt lat="43.50797" lon="6.63686">
        <ele>209.1</ele>
        <time>2023-11-05T09:54:20Z</time>
      </trkpt>
      <trkpt lat="43.50797" lon="6.63686">
        <ele>209</ele>
        <time>2023-11-05T09:54:21Z</time>
      </trkpt>
      <trkpt lat="43.50797" lon="6.63686">
        <ele>209</ele>
        <time>2023-11-05T09:54:22Z</time>
      </trkpt>
      <trkpt lat="43.50797" lon="6.63686">
        <ele>209</ele>
        <time>2023-11-05T09:54:23Z</time>
      </trkpt>
      <trkpt lat="43.50797" lon="6.63686">
        <ele>208.9</ele>
        <time>2023-11-05T09:54:24Z</time>
      </trkpt>
      <trkpt lat="43.50797" lon="6.63686">
        <ele>208.8</ele>
        <time>2023-11-05T09:54:25Z</time>
      </trkpt>
      <trkpt lat="43.50798" lon="6.63686">
        <ele>208.7</ele>
        <time>2023-11-05T09:54:26Z</time>
      </trkpt>
      <trkpt lat="43.50798" lon="6.63686">
        <ele>208.7</ele>
        <time>2023-11-05T09:54:27Z</time>
      </trkpt>
      <trkpt lat="43.50798" lon="6.63686">
        <ele>208.8</ele>
        <time>2023-11-05T09:54:28Z</time>
      </trkpt>
      <trkpt lat="43.50798" lon="6.63685">
        <ele>208.9</ele>
        <time>2023-11-05T09:54:29Z</time>
      </trkpt>
      <trkpt lat="43.50798" lon="6.63685">
        <ele>209</ele>
        <time>2023-11-05T09:54:30Z</time>
      </trkpt>
      <trkpt lat="43.50798" lon="6.63685">
        <ele>209.1</ele>
        <time>2023-11-05T09:54:31Z</time>
      </trkpt>
      <trkpt lat="43.50798" lon="6.63685">
        <ele>209.2</ele>
        <time>2023-11-05T09:54:32Z</time>
      </trkpt>
      <trkpt lat="43.50798" lon="6.63686">
        <ele>208.9</ele>
        <time>2023-11-05T09:54:33Z</time>
      </trkpt>
      <trkpt lat="43.50798" lon="6.63686">
        <ele>208.7</ele>
        <time>2023-11-05T09:54:34Z</time>
      </trkpt>
      <trkpt lat="43.50798" lon="6.63686">
        <ele>208.7</ele>
        <time>2023-11-05T09:54:35Z</time>
      </trkpt>
      <trkpt lat="43.50798" lon="6.63686">
        <ele>208.7</ele>
        <time>2023-11-05T09:54:36Z</time>
      </trkpt>
      <trkpt lat="43.50798" lon="6.63686">
        <ele>208.9</ele>
        <time>2023-11-05T09:54:37Z</time>
      </trkpt>
      <trkpt lat="43.50799" lon="6.63685">
        <ele>208.8</ele>
        <time>2023-11-05T09:54:38Z</time>
      </trkpt>
      <trkpt lat="43.50799" lon="6.63685">
        <ele>209</ele>
        <time>2023-11-05T09:54:39Z</time>
      </trkpt>
      <trkpt lat="43.50799" lon="6.63685">
        <ele>209.2</ele>
        <time>2023-11-05T09:54:40Z</time>
      </trkpt>
      <trkpt lat="43.50799" lon="6.63685">
        <ele>209.2</ele>
        <time>2023-11-05T09:54:41Z</time>
      </trkpt>
      <trkpt lat="43.50799" lon="6.63685">
        <ele>209.2</ele>
        <time>2023-11-05T09:54:42Z</time>
      </trkpt>
      <trkpt lat="43.50799" lon="6.63685">
        <ele>209.2</ele>
        <time>2023-11-05T09:54:43Z</time>
      </trkpt>
      <trkpt lat="43.50799" lon="6.63685">
        <ele>209.1</ele>
        <time>2023-11-05T09:54:44Z</time>
      </trkpt>
      <trkpt lat="43.50799" lon="6.63685">
        <ele>209</ele>
        <time>2023-11-05T09:54:45Z</time>
      </trkpt>
      <trkpt lat="43.50799" lon="6.63685">
        <ele>208.9</ele>
        <time>2023-11-05T09:54:46Z</time>
      </trkpt>
      <trkpt lat="43.50799" lon="6.63685">
        <ele>208.8</ele>
        <time>2023-11-05T09:54:47Z</time>
      </trkpt>
      <trkpt lat="43.50799" lon="6.63684">
        <ele>208.6</ele>
        <time>2023-11-05T09:54:48Z</time>
      </trkpt>
      <trkpt lat="43.50799" lon="6.63684">
        <ele>208.7</ele>
        <time>2023-11-05T09:54:49Z</time>
      </trkpt>
      <trkpt lat="43.50799" lon="6.63684">
        <ele>208.8</ele>
        <time>2023-11-05T09:54:50Z</time>
      </trkpt>
      <trkpt lat="43.50799" lon="6.63684">
        <ele>209</ele>
        <time>2023-11-05T09:54:51Z</time>
      </trkpt>
      <trkpt lat="43.508" lon="6.63684">
        <ele>209.2</ele>
        <time>2023-11-05T09:54:52Z</time>
      </trkpt>
      <trkpt lat="43.508" lon="6.63684">
        <ele>209.3</ele>
        <time>2023-11-05T09:54:53Z</time>
      </trkpt>
      <trkpt lat="43.508" lon="6.63684">
        <ele>209.3</ele>
        <time>2023-11-05T09:54:54Z</time>
      </trkpt>
      <trkpt lat="43.508" lon="6.63684">
        <ele>209.3</ele>
        <time>2023-11-05T09:54:55Z</time>
      </trkpt>
      <trkpt lat="43.508" lon="6.63684">
        <ele>209.3</ele>
        <time>2023-11-05T09:54:56Z</time>
      </trkpt>
      <trkpt lat="43.508" lon="6.63684">
        <ele>209.3</ele>
        <time>2023-11-05T09:54:57Z</time>
      </trkpt>
      <trkpt lat="43.508" lon="6.63684">
        <ele>209.3</ele>
        <time>2023-11-05T09:54:58Z</time>
      </trkpt>
      <trkpt lat="43.508" lon="6.63684">
        <ele>209.3</ele>
        <time>2023-11-05T09:54:59Z</time>
      </trkpt>
      <trkpt lat="43.508" lon="6.63684">
        <ele>209.3</ele>
        <time>2023-11-05T09:55:00Z</time>
      </trkpt>
      <trkpt lat="43.50799" lon="6.63684">
        <ele>209.4</ele>
        <time>2023-11-05T09:55:01Z</time>
      </trkpt>
      <trkpt lat="43.50799" lon="6.63683">
        <ele>209.5</ele>
        <time>2023-11-05T09:55:02Z</time>
      </trkpt>
      <trkpt lat="43.50799" lon="6.63684">
        <ele>209.5</ele>
        <time>2023-11-05T09:55:03Z</time>
      </trkpt>
      <trkpt lat="43.50799" lon="6.63684">
        <ele>209.5</ele>
        <time>2023-11-05T09:55:04Z</time>
      </trkpt>
      <trkpt lat="43.50799" lon="6.63684">
        <ele>209.5</ele>
        <time>2023-11-05T09:55:05Z</time>
      </trkpt>
      <trkpt lat="43.50799" lon="6.63684">
        <ele>209.5</ele>
        <time>2023-11-05T09:55:06Z</time>
      </trkpt>
      <trkpt lat="43.50799" lon="6.63684">
        <ele>209.5</ele>
        <time>2023-11-05T09:55:07Z</time>
      </trkpt>
      <trkpt lat="43.50799" lon="6.63684">
        <ele>209.5</ele>
        <time>2023-11-05T09:55:08Z</time>
      </trkpt>
      <trkpt lat="43.50799" lon="6.63684">
        <ele>209.4</ele>
        <time>2023-11-05T09:55:09Z</time>
      </trkpt>
      <trkpt lat="43.50799" lon="6.63684">
        <ele>209.3</ele>
        <time>2023-11-05T09:55:10Z</time>
      </trkpt>
      <trkpt lat="43.50799" lon="6.63684">
        <ele>209.1</ele>
        <time>2023-11-05T09:55:11Z</time>
      </trkpt>
      <trkpt lat="43.50798" lon="6.63684">
        <ele>209.1</ele>
        <time>2023-11-05T09:55:12Z</time>
      </trkpt>
      <trkpt lat="43.50798" lon="6.63683">
        <ele>209</ele>
        <time>2023-11-05T09:55:13Z</time>
      </trkpt>
      <trkpt lat="43.50799" lon="6.63683">
        <ele>209</ele>
        <time>2023-11-05T09:55:14Z</time>
      </trkpt>
      <trkpt lat="43.50798" lon="6.63684">
        <ele>209</ele>
        <time>2023-11-05T09:55:15Z</time>
      </trkpt>
      <trkpt lat="43.50798" lon="6.63684">
        <ele>208.8</ele>
        <time>2023-11-05T09:55:16Z</time>
      </trkpt>
      <trkpt lat="43.50798" lon="6.63684">
        <ele>208.7</ele>
        <time>2023-11-05T09:55:17Z</time>
      </trkpt>
      <trkpt lat="43.50798" lon="6.63684">
        <ele>208.8</ele>
        <time>2023-11-05T09:55:18Z</time>
      </trkpt>
      <trkpt lat="43.50798" lon="6.63684">
        <ele>208.9</ele>
        <time>2023-11-05T09:55:19Z</time>
      </trkpt>
      <trkpt lat="43.50798" lon="6.63684">
        <ele>209</ele>
        <time>2023-11-05T09:55:20Z</time>
      </trkpt>
      <trkpt lat="43.50799" lon="6.63684">
        <ele>209</ele>
        <time>2023-11-05T09:55:21Z</time>
      </trkpt>
      <trkpt lat="43.50799" lon="6.63684">
        <ele>208.9</ele>
        <time>2023-11-05T09:55:22Z</time>
      </trkpt>
      <trkpt lat="43.50799" lon="6.63684">
        <ele>208.9</ele>
        <time>2023-11-05T09:55:23Z</time>
      </trkpt>
      <trkpt lat="43.50799" lon="6.63684">
        <ele>208.8</ele>
        <time>2023-11-05T09:55:24Z</time>
      </trkpt>
      <trkpt lat="43.50799" lon="6.63684">
        <ele>208.9</ele>
        <time>2023-11-05T09:55:25Z</time>
      </trkpt>
      <trkpt lat="43.50799" lon="6.63684">
        <ele>209</ele>
        <time>2023-11-05T09:55:26Z</time>
      </trkpt>
      <trkpt lat="43.50799" lon="6.63684">
        <ele>209</ele>
        <time>2023-11-05T09:55:27Z</time>
      </trkpt>
      <trkpt lat="43.50799" lon="6.63684">
        <ele>209.6</ele>
        <time>2023-11-05T09:55:28Z</time>
      </trkpt>
      <trkpt lat="43.50799" lon="6.63684">
        <ele>209.7</ele>
        <time>2023-11-05T09:55:29Z</time>
      </trkpt>
      <trkpt lat="43.50799" lon="6.63684">
        <ele>209.7</ele>
        <time>2023-11-05T09:55:30Z</time>
      </trkpt>
      <trkpt lat="43.50799" lon="6.63684">
        <ele>209.7</ele>
        <time>2023-11-05T09:55:31Z</time>
      </trkpt>
      <trkpt lat="43.50799" lon="6.63684">
        <ele>209.7</ele>
        <time>2023-11-05T09:55:32Z</time>
      </trkpt>
      <trkpt lat="43.50799" lon="6.63684">
        <ele>209.9</ele>
        <time>2023-11-05T09:55:33Z</time>
      </trkpt>
      <trkpt lat="43.50799" lon="6.63684">
        <ele>210</ele>
        <time>2023-11-05T09:55:34Z</time>
      </trkpt>
      <trkpt lat="43.50799" lon="6.63684">
        <ele>210</ele>
        <time>2023-11-05T09:55:35Z</time>
      </trkpt>
      <trkpt lat="43.50799" lon="6.63684">
        <ele>209.9</ele>
        <time>2023-11-05T09:55:36Z</time>
      </trkpt>
      <trkpt lat="43.50799" lon="6.63684">
        <ele>209.9</ele>
        <time>2023-11-05T09:55:37Z</time>
      </trkpt>
      <trkpt lat="43.50799" lon="6.63684">
        <ele>209.9</ele>
        <time>2023-11-05T09:55:38Z</time>
      </trkpt>
      <trkpt lat="43.50799" lon="6.63684">
        <ele>209.8</ele>
        <time>2023-11-05T09:55:39Z</time>
      </trkpt>
      <trkpt lat="43.50799" lon="6.63684">
        <ele>209.7</ele>
        <time>2023-11-05T09:55:40Z</time>
      </trkpt>
      <trkpt lat="43.50799" lon="6.63684">
        <ele>209.6</ele>
        <time>2023-11-05T09:55:41Z</time>
      </trkpt>
      <trkpt lat="43.508" lon="6.63684">
        <ele>209.5</ele>
        <time>2023-11-05T09:55:42Z</time>
      </trkpt>
      <trkpt lat="43.50799" lon="6.63684">
        <ele>209.4</ele>
        <time>2023-11-05T09:55:43Z</time>
      </trkpt>
      <trkpt lat="43.50799" lon="6.63684">
        <ele>209.3</ele>
        <time>2023-11-05T09:55:44Z</time>
      </trkpt>
      <trkpt lat="43.50799" lon="6.63683">
        <ele>209.2</ele>
        <time>2023-11-05T09:55:45Z</time>
      </trkpt>
      <trkpt lat="43.50799" lon="6.63683">
        <ele>209.4</ele>
        <time>2023-11-05T09:55:46Z</time>
      </trkpt>
      <trkpt lat="43.50799" lon="6.63684">
        <ele>209.3</ele>
        <time>2023-11-05T09:55:47Z</time>
      </trkpt>
      <trkpt lat="43.50799" lon="6.63683">
        <ele>209.3</ele>
        <time>2023-11-05T09:55:48Z</time>
      </trkpt>
      <trkpt lat="43.50799" lon="6.63683">
        <ele>209.1</ele>
        <time>2023-11-05T09:55:49Z</time>
      </trkpt>
      <trkpt lat="43.50799" lon="6.63683">
        <ele>209.3</ele>
        <time>2023-11-05T09:55:50Z</time>
      </trkpt>
      <trkpt lat="43.50799" lon="6.63683">
        <ele>209.2</ele>
        <time>2023-11-05T09:55:51Z</time>
      </trkpt>
      <trkpt lat="43.50799" lon="6.63683">
        <ele>209.1</ele>
        <time>2023-11-05T09:55:52Z</time>
      </trkpt>
      <trkpt lat="43.50799" lon="6.63683">
        <ele>209</ele>
        <time>2023-11-05T09:55:53Z</time>
      </trkpt>
      <trkpt lat="43.50799" lon="6.63683">
        <ele>208.9</ele>
        <time>2023-11-05T09:55:54Z</time>
      </trkpt>
      <trkpt lat="43.50799" lon="6.63684">
        <ele>208.7</ele>
        <time>2023-11-05T09:55:55Z</time>
      </trkpt>
      <trkpt lat="43.50799" lon="6.63684">
        <ele>208.7</ele>
        <time>2023-11-05T09:55:56Z</time>
      </trkpt>
      <trkpt lat="43.50799" lon="6.63684">
        <ele>208.9</ele>
        <time>2023-11-05T09:55:57Z</time>
      </trkpt>
      <trkpt lat="43.50799" lon="6.63684">
        <ele>208.9</ele>
        <time>2023-11-05T09:55:58Z</time>
      </trkpt>
      <trkpt lat="43.50799" lon="6.63683">
        <ele>208.9</ele>
        <time>2023-11-05T09:55:59Z</time>
      </trkpt>
      <trkpt lat="43.50799" lon="6.63683">
        <ele>208.8</ele>
        <time>2023-11-05T09:56:00Z</time>
      </trkpt>
      <trkpt lat="43.50799" lon="6.63683">
        <ele>208.6</ele>
        <time>2023-11-05T09:56:01Z</time>
      </trkpt>
      <trkpt lat="43.50799" lon="6.63684">
        <ele>208.4</ele>
        <time>2023-11-05T09:56:02Z</time>
      </trkpt>
      <trkpt lat="43.50799" lon="6.63684">
        <ele>208.2</ele>
        <time>2023-11-05T09:56:03Z</time>
      </trkpt>
      <trkpt lat="43.50799" lon="6.63683">
        <ele>208.1</ele>
        <time>2023-11-05T09:56:04Z</time>
      </trkpt>
      <trkpt lat="43.50798" lon="6.63684">
        <ele>207.7</ele>
        <time>2023-11-05T09:56:05Z</time>
      </trkpt>
      <trkpt lat="43.50798" lon="6.63684">
        <ele>207.4</ele>
        <time>2023-11-05T09:56:06Z</time>
      </trkpt>
      <trkpt lat="43.50798" lon="6.63684">
        <ele>207.2</ele>
        <time>2023-11-05T09:56:07Z</time>
      </trkpt>
      <trkpt lat="43.50798" lon="6.63684">
        <ele>207.4</ele>
        <time>2023-11-05T09:56:08Z</time>
      </trkpt>
      <trkpt lat="43.50798" lon="6.63683">
        <ele>207.6</ele>
        <time>2023-11-05T09:56:09Z</time>
      </trkpt>
      <trkpt lat="43.50798" lon="6.63683">
        <ele>207.7</ele>
        <time>2023-11-05T09:56:10Z</time>
      </trkpt>
      <trkpt lat="43.50797" lon="6.63683">
        <ele>207.8</ele>
        <time>2023-11-05T09:56:11Z</time>
      </trkpt>
      <trkpt lat="43.50797" lon="6.63683">
        <ele>207.8</ele>
        <time>2023-11-05T09:56:12Z</time>
      </trkpt>
      <trkpt lat="43.50797" lon="6.63683">
        <ele>207.7</ele>
        <time>2023-11-05T09:56:13Z</time>
      </trkpt>
      <trkpt lat="43.50797" lon="6.63683">
        <ele>207.7</ele>
        <time>2023-11-05T09:56:14Z</time>
      </trkpt>
      <trkpt lat="43.50797" lon="6.63683">
        <ele>207.8</ele>
        <time>2023-11-05T09:56:15Z</time>
      </trkpt>
      <trkpt lat="43.50797" lon="6.63683">
        <ele>207.8</ele>
        <time>2023-11-05T09:56:16Z</time>
      </trkpt>
      <trkpt lat="43.50797" lon="6.63683">
        <ele>207.8</ele>
        <time>2023-11-05T09:56:17Z</time>
      </trkpt>
      <trkpt lat="43.50797" lon="6.63682">
        <ele>207.6</ele>
        <time>2023-11-05T09:56:18Z</time>
      </trkpt>
      <trkpt lat="43.50796" lon="6.63682">
        <ele>207.5</ele>
        <time>2023-11-05T09:56:19Z</time>
      </trkpt>
      <trkpt lat="43.50796" lon="6.63682">
        <ele>207.4</ele>
        <time>2023-11-05T09:56:20Z</time>
      </trkpt>
      <trkpt lat="43.50796" lon="6.63683">
        <ele>207.3</ele>
        <time>2023-11-05T09:56:21Z</time>
      </trkpt>
      <trkpt lat="43.50795" lon="6.63683">
        <ele>207.3</ele>
        <time>2023-11-05T09:56:22Z</time>
      </trkpt>
      <trkpt lat="43.50794" lon="6.63683">
        <ele>207.2</ele>
        <time>2023-11-05T09:56:23Z</time>
      </trkpt>
      <trkpt lat="43.50794" lon="6.63684">
        <ele>207</ele>
        <time>2023-11-05T09:56:24Z</time>
      </trkpt>
      <trkpt lat="43.50793" lon="6.63684">
        <ele>206.9</ele>
        <time>2023-11-05T09:56:25Z</time>
      </trkpt>
      <trkpt lat="43.50793" lon="6.63684">
        <ele>206.9</ele>
        <time>2023-11-05T09:56:26Z</time>
      </trkpt>
      <trkpt lat="43.50792" lon="6.63684">
        <ele>207.1</ele>
        <time>2023-11-05T09:56:27Z</time>
      </trkpt>
      <trkpt lat="43.50792" lon="6.63685">
        <ele>207.2</ele>
        <time>2023-11-05T09:56:28Z</time>
      </trkpt>
      <trkpt lat="43.50792" lon="6.63685">
        <ele>206.9</ele>
        <time>2023-11-05T09:56:29Z</time>
      </trkpt>
      <trkpt lat="43.50792" lon="6.63685">
        <ele>206.9</ele>
        <time>2023-11-05T09:56:30Z</time>
      </trkpt>
      <trkpt lat="43.50792" lon="6.63685">
        <ele>206.9</ele>
        <time>2023-11-05T09:56:31Z</time>
      </trkpt>
      <trkpt lat="43.50792" lon="6.63685">
        <ele>206.7</ele>
        <time>2023-11-05T09:56:32Z</time>
      </trkpt>
      <trkpt lat="43.50791" lon="6.63684">
        <ele>206.6</ele>
        <time>2023-11-05T09:56:33Z</time>
      </trkpt>
      <trkpt lat="43.50791" lon="6.63684">
        <ele>206.5</ele>
        <time>2023-11-05T09:56:34Z</time>
      </trkpt>
      <trkpt lat="43.50791" lon="6.63685">
        <ele>206.4</ele>
        <time>2023-11-05T09:56:35Z</time>
      </trkpt>
      <trkpt lat="43.50792" lon="6.63684">
        <ele>206.7</ele>
        <time>2023-11-05T09:56:36Z</time>
      </trkpt>
      <trkpt lat="43.50792" lon="6.63684">
        <ele>206.9</ele>
        <time>2023-11-05T09:56:37Z</time>
      </trkpt>
      <trkpt lat="43.50792" lon="6.63683">
        <ele>207.5</ele>
        <time>2023-11-05T09:56:38Z</time>
      </trkpt>
      <trkpt lat="43.50792" lon="6.63682">
        <ele>207.8</ele>
        <time>2023-11-05T09:56:39Z</time>
      </trkpt>
      <trkpt lat="43.50792" lon="6.63681">
        <ele>207.7</ele>
        <time>2023-11-05T09:56:40Z</time>
      </trkpt>
      <trkpt lat="43.50792" lon="6.63681">
        <ele>207.5</ele>
        <time>2023-11-05T09:56:41Z</time>
      </trkpt>
      <trkpt lat="43.50792" lon="6.63681">
        <ele>207.4</ele>
        <time>2023-11-05T09:56:42Z</time>
      </trkpt>
      <trkpt lat="43.50792" lon="6.63681">
        <ele>207.3</ele>
        <time>2023-11-05T09:56:43Z</time>
      </trkpt>
      <trkpt lat="43.50792" lon="6.63681">
        <ele>207.3</ele>
        <time>2023-11-05T09:56:44Z</time>
      </trkpt>
      <trkpt lat="43.50792" lon="6.6368">
        <ele>207.3</ele>
        <time>2023-11-05T09:56:45Z</time>
      </trkpt>
      <trkpt lat="43.50792" lon="6.63681">
        <ele>207.2</ele>
        <time>2023-11-05T09:56:46Z</time>
      </trkpt>
      <trkpt lat="43.50792" lon="6.6368">
        <ele>207.4</ele>
        <time>2023-11-05T09:56:47Z</time>
      </trkpt>
      <trkpt lat="43.50791" lon="6.63679">
        <ele>207.5</ele>
        <time>2023-11-05T09:56:48Z</time>
      </trkpt>
      <trkpt lat="43.50791" lon="6.63679">
        <ele>207.5</ele>
        <time>2023-11-05T09:56:49Z</time>
      </trkpt>
      <trkpt lat="43.50791" lon="6.63678">
        <ele>207.5</ele>
        <time>2023-11-05T09:56:50Z</time>
      </trkpt>
      <trkpt lat="43.5079" lon="6.63678">
        <ele>207.1</ele>
        <time>2023-11-05T09:56:51Z</time>
      </trkpt>
      <trkpt lat="43.5079" lon="6.63677">
        <ele>206.9</ele>
        <time>2023-11-05T09:56:52Z</time>
      </trkpt>
      <trkpt lat="43.5079" lon="6.63677">
        <ele>206.7</ele>
        <time>2023-11-05T09:56:53Z</time>
      </trkpt>
      <trkpt lat="43.5079" lon="6.63677">
        <ele>206.6</ele>
        <time>2023-11-05T09:56:54Z</time>
      </trkpt>
      <trkpt lat="43.5079" lon="6.63677">
        <ele>206.5</ele>
        <time>2023-11-05T09:56:55Z</time>
      </trkpt>
      <trkpt lat="43.5079" lon="6.63678">
        <ele>206.5</ele>
        <time>2023-11-05T09:56:56Z</time>
      </trkpt>
      <trkpt lat="43.50791" lon="6.63678">
        <ele>206.6</ele>
        <time>2023-11-05T09:56:57Z</time>
      </trkpt>
      <trkpt lat="43.50791" lon="6.63678">
        <ele>206.7</ele>
        <time>2023-11-05T09:56:58Z</time>
      </trkpt>
      <trkpt lat="43.50791" lon="6.63678">
        <ele>206.8</ele>
        <time>2023-11-05T09:56:59Z</time>
      </trkpt>
      <trkpt lat="43.50791" lon="6.63678">
        <ele>206.8</ele>
        <time>2023-11-05T09:57:00Z</time>
      </trkpt>
      <trkpt lat="43.50791" lon="6.63679">
        <ele>206.8</ele>
        <time>2023-11-05T09:57:01Z</time>
      </trkpt>
      <trkpt lat="43.50791" lon="6.63679">
        <ele>206.8</ele>
        <time>2023-11-05T09:57:02Z</time>
      </trkpt>
      <trkpt lat="43.50791" lon="6.63679">
        <ele>206.9</ele>
        <time>2023-11-05T09:57:03Z</time>
      </trkpt>
      <trkpt lat="43.50791" lon="6.63679">
        <ele>206.8</ele>
        <time>2023-11-05T09:57:04Z</time>
      </trkpt>
      <trkpt lat="43.50791" lon="6.63679">
        <ele>206.8</ele>
        <time>2023-11-05T09:57:05Z</time>
      </trkpt>
      <trkpt lat="43.50791" lon="6.6368">
        <ele>206.9</ele>
        <time>2023-11-05T09:57:06Z</time>
      </trkpt>
      <trkpt lat="43.50791" lon="6.6368">
        <ele>206.8</ele>
        <time>2023-11-05T09:57:07Z</time>
      </trkpt>
      <trkpt lat="43.50791" lon="6.63679">
        <ele>206.9</ele>
        <time>2023-11-05T09:57:08Z</time>
      </trkpt>
      <trkpt lat="43.50791" lon="6.63679">
        <ele>206.9</ele>
        <time>2023-11-05T09:57:09Z</time>
      </trkpt>
      <trkpt lat="43.5079" lon="6.63679">
        <ele>206.9</ele>
        <time>2023-11-05T09:57:10Z</time>
      </trkpt>
      <trkpt lat="43.50789" lon="6.63678">
        <ele>206.9</ele>
        <time>2023-11-05T09:57:11Z</time>
      </trkpt>
      <trkpt lat="43.50788" lon="6.63678">
        <ele>206.8</ele>
        <time>2023-11-05T09:57:12Z</time>
      </trkpt>
      <trkpt lat="43.50788" lon="6.63677">
        <ele>206.7</ele>
        <time>2023-11-05T09:57:13Z</time>
      </trkpt>
      <trkpt lat="43.50788" lon="6.63676">
        <ele>206.6</ele>
        <time>2023-11-05T09:57:14Z</time>
      </trkpt>
      <trkpt lat="43.50787" lon="6.63675">
        <ele>206.9</ele>
        <time>2023-11-05T09:57:15Z</time>
      </trkpt>
      <trkpt lat="43.50787" lon="6.63674">
        <ele>206.9</ele>
        <time>2023-11-05T09:57:16Z</time>
      </trkpt>
      <trkpt lat="43.50787" lon="6.63672">
        <ele>206.7</ele>
        <time>2023-11-05T09:57:17Z</time>
      </trkpt>
      <trkpt lat="43.50785" lon="6.63671">
        <ele>206.6</ele>
        <time>2023-11-05T09:57:18Z</time>
      </trkpt>
      <trkpt lat="43.50785" lon="6.63671">
        <ele>206.4</ele>
        <time>2023-11-05T09:57:19Z</time>
      </trkpt>
      <trkpt lat="43.50783" lon="6.6367">
        <ele>206.3</ele>
        <time>2023-11-05T09:57:20Z</time>
      </trkpt>
      <trkpt lat="43.50783" lon="6.6367">
        <ele>206.2</ele>
        <time>2023-11-05T09:57:21Z</time>
      </trkpt>
      <trkpt lat="43.50783" lon="6.63668">
        <ele>206.3</ele>
        <time>2023-11-05T09:57:22Z</time>
      </trkpt>
      <trkpt lat="43.50783" lon="6.63667">
        <ele>206.3</ele>
        <time>2023-11-05T09:57:23Z</time>
      </trkpt>
      <trkpt lat="43.50783" lon="6.63665">
        <ele>206.4</ele>
        <time>2023-11-05T09:57:24Z</time>
      </trkpt>
      <trkpt lat="43.50783" lon="6.63664">
        <ele>206.5</ele>
        <time>2023-11-05T09:57:25Z</time>
      </trkpt>
      <trkpt lat="43.50783" lon="6.63662">
        <ele>206.4</ele>
        <time>2023-11-05T09:57:26Z</time>
      </trkpt>
      <trkpt lat="43.50783" lon="6.63661">
        <ele>206.1</ele>
        <time>2023-11-05T09:57:27Z</time>
      </trkpt>
      <trkpt lat="43.50783" lon="6.6366">
        <ele>206.2</ele>
        <time>2023-11-05T09:57:28Z</time>
      </trkpt>
      <trkpt lat="43.50784" lon="6.63659">
        <ele>206.1</ele>
        <time>2023-11-05T09:57:29Z</time>
      </trkpt>
      <trkpt lat="43.50785" lon="6.63659">
        <ele>206</ele>
        <time>2023-11-05T09:57:30Z</time>
      </trkpt>
      <trkpt lat="43.50785" lon="6.63658">
        <ele>205.9</ele>
        <time>2023-11-05T09:57:31Z</time>
      </trkpt>
      <trkpt lat="43.50785" lon="6.63658">
        <ele>205.7</ele>
        <time>2023-11-05T09:57:32Z</time>
      </trkpt>
      <trkpt lat="43.50785" lon="6.63657">
        <ele>205.6</ele>
        <time>2023-11-05T09:57:33Z</time>
      </trkpt>
      <trkpt lat="43.50786" lon="6.63655">
        <ele>205.5</ele>
        <time>2023-11-05T09:57:34Z</time>
      </trkpt>
      <trkpt lat="43.50786" lon="6.63654">
        <ele>205.7</ele>
        <time>2023-11-05T09:57:35Z</time>
      </trkpt>
      <trkpt lat="43.50786" lon="6.63652">
        <ele>205.9</ele>
        <time>2023-11-05T09:57:36Z</time>
      </trkpt>
      <trkpt lat="43.50787" lon="6.63651">
        <ele>205.9</ele>
        <time>2023-11-05T09:57:37Z</time>
      </trkpt>
      <trkpt lat="43.50788" lon="6.63649">
        <ele>205.9</ele>
        <time>2023-11-05T09:57:38Z</time>
      </trkpt>
      <trkpt lat="43.50788" lon="6.63647">
        <ele>205.9</ele>
        <time>2023-11-05T09:57:39Z</time>
      </trkpt>
      <trkpt lat="43.50788" lon="6.63645">
        <ele>205.6</ele>
        <time>2023-11-05T09:57:40Z</time>
      </trkpt>
      <trkpt lat="43.50788" lon="6.63644">
        <ele>205.5</ele>
        <time>2023-11-05T09:57:41Z</time>
      </trkpt>
      <trkpt lat="43.50789" lon="6.63642">
        <ele>205.5</ele>
        <time>2023-11-05T09:57:42Z</time>
      </trkpt>
      <trkpt lat="43.50789" lon="6.63641">
        <ele>205.5</ele>
        <time>2023-11-05T09:57:43Z</time>
      </trkpt>
      <trkpt lat="43.5079" lon="6.6364">
        <ele>205.1</ele>
        <time>2023-11-05T09:57:44Z</time>
      </trkpt>
      <trkpt lat="43.5079" lon="6.63638">
        <ele>204.6</ele>
        <time>2023-11-05T09:57:45Z</time>
      </trkpt>
      <trkpt lat="43.5079" lon="6.63637">
        <ele>204.3</ele>
        <time>2023-11-05T09:57:46Z</time>
      </trkpt>
      <trkpt lat="43.5079" lon="6.63635">
        <ele>204.3</ele>
        <time>2023-11-05T09:57:47Z</time>
      </trkpt>
      <trkpt lat="43.5079" lon="6.63634">
        <ele>204.2</ele>
        <time>2023-11-05T09:57:48Z</time>
      </trkpt>
      <trkpt lat="43.5079" lon="6.63632">
        <ele>203.8</ele>
        <time>2023-11-05T09:57:49Z</time>
      </trkpt>
      <trkpt lat="43.5079" lon="6.63631">
        <ele>203.6</ele>
        <time>2023-11-05T09:57:50Z</time>
      </trkpt>
      <trkpt lat="43.50789" lon="6.63629">
        <ele>203.5</ele>
        <time>2023-11-05T09:57:51Z</time>
      </trkpt>
      <trkpt lat="43.50789" lon="6.63628">
        <ele>203</ele>
        <time>2023-11-05T09:57:52Z</time>
      </trkpt>
      <trkpt lat="43.50789" lon="6.63626">
        <ele>202.5</ele>
        <time>2023-11-05T09:57:53Z</time>
      </trkpt>
      <trkpt lat="43.5079" lon="6.63625">
        <ele>202.2</ele>
        <time>2023-11-05T09:57:54Z</time>
      </trkpt>
      <trkpt lat="43.5079" lon="6.63624">
        <ele>202</ele>
        <time>2023-11-05T09:57:55Z</time>
      </trkpt>
      <trkpt lat="43.5079" lon="6.63622">
        <ele>201.8</ele>
        <time>2023-11-05T09:57:56Z</time>
      </trkpt>
      <trkpt lat="43.5079" lon="6.6362">
        <ele>201.5</ele>
        <time>2023-11-05T09:57:57Z</time>
      </trkpt>
      <trkpt lat="43.50789" lon="6.63619">
        <ele>201.1</ele>
        <time>2023-11-05T09:57:58Z</time>
      </trkpt>
      <trkpt lat="43.50789" lon="6.63617">
        <ele>200.8</ele>
        <time>2023-11-05T09:57:59Z</time>
      </trkpt>
      <trkpt lat="43.50789" lon="6.63616">
        <ele>200.4</ele>
        <time>2023-11-05T09:58:00Z</time>
      </trkpt>
      <trkpt lat="43.50789" lon="6.63615">
        <ele>200.1</ele>
        <time>2023-11-05T09:58:01Z</time>
      </trkpt>
      <trkpt lat="43.50789" lon="6.63614">
        <ele>199.9</ele>
        <time>2023-11-05T09:58:02Z</time>
      </trkpt>
      <trkpt lat="43.50789" lon="6.63613">
        <ele>199.6</ele>
        <time>2023-11-05T09:58:03Z</time>
      </trkpt>
      <trkpt lat="43.50789" lon="6.63611">
        <ele>199.4</ele>
        <time>2023-11-05T09:58:04Z</time>
      </trkpt>
      <trkpt lat="43.50789" lon="6.6361">
        <ele>199.3</ele>
        <time>2023-11-05T09:58:05Z</time>
      </trkpt>
      <trkpt lat="43.50789" lon="6.63609">
        <ele>198.9</ele>
        <time>2023-11-05T09:58:06Z</time>
      </trkpt>
      <trkpt lat="43.50789" lon="6.63607">
        <ele>198.7</ele>
        <time>2023-11-05T09:58:07Z</time>
      </trkpt>
      <trkpt lat="43.50788" lon="6.63605">
        <ele>198.4</ele>
        <time>2023-11-05T09:58:08Z</time>
      </trkpt>
      <trkpt lat="43.50788" lon="6.63604">
        <ele>198</ele>
        <time>2023-11-05T09:58:09Z</time>
      </trkpt>
      <trkpt lat="43.50788" lon="6.63602">
        <ele>197.7</ele>
        <time>2023-11-05T09:58:10Z</time>
      </trkpt>
      <trkpt lat="43.50788" lon="6.636">
        <ele>197.5</ele>
        <time>2023-11-05T09:58:11Z</time>
      </trkpt>
      <trkpt lat="43.50788" lon="6.63599">
        <ele>197.4</ele>
        <time>2023-11-05T09:58:12Z</time>
      </trkpt>
      <trkpt lat="43.50788" lon="6.63597">
        <ele>197.2</ele>
        <time>2023-11-05T09:58:13Z</time>
      </trkpt>
      <trkpt lat="43.50788" lon="6.63596">
        <ele>197</ele>
        <time>2023-11-05T09:58:14Z</time>
      </trkpt>
      <trkpt lat="43.50788" lon="6.63594">
        <ele>197.4</ele>
        <time>2023-11-05T09:58:15Z</time>
      </trkpt>
      <trkpt lat="43.50788" lon="6.63593">
        <ele>197.4</ele>
        <time>2023-11-05T09:58:16Z</time>
      </trkpt>
      <trkpt lat="43.50788" lon="6.63591">
        <ele>197.3</ele>
        <time>2023-11-05T09:58:17Z</time>
      </trkpt>
      <trkpt lat="43.50789" lon="6.6359">
        <ele>197.1</ele>
        <time>2023-11-05T09:58:18Z</time>
      </trkpt>
      <trkpt lat="43.50789" lon="6.63588">
        <ele>197</ele>
        <time>2023-11-05T09:58:19Z</time>
      </trkpt>
      <trkpt lat="43.50789" lon="6.63587">
        <ele>197.1</ele>
        <time>2023-11-05T09:58:20Z</time>
      </trkpt>
      <trkpt lat="43.50789" lon="6.63586">
        <ele>197.2</ele>
        <time>2023-11-05T09:58:21Z</time>
      </trkpt>
      <trkpt lat="43.5079" lon="6.63584">
        <ele>197.5</ele>
        <time>2023-11-05T09:58:22Z</time>
      </trkpt>
      <trkpt lat="43.5079" lon="6.63583">
        <ele>197.3</ele>
        <time>2023-11-05T09:58:23Z</time>
      </trkpt>
      <trkpt lat="43.50791" lon="6.63582">
        <ele>197.3</ele>
        <time>2023-11-05T09:58:24Z</time>
      </trkpt>
      <trkpt lat="43.50791" lon="6.63581">
        <ele>197.2</ele>
        <time>2023-11-05T09:58:25Z</time>
      </trkpt>
      <trkpt lat="43.50791" lon="6.6358">
        <ele>197.1</ele>
        <time>2023-11-05T09:58:26Z</time>
      </trkpt>
      <trkpt lat="43.50792" lon="6.63579">
        <ele>197</ele>
        <time>2023-11-05T09:58:27Z</time>
      </trkpt>
      <trkpt lat="43.50792" lon="6.63578">
        <ele>196.8</ele>
        <time>2023-11-05T09:58:28Z</time>
      </trkpt>
      <trkpt lat="43.50794" lon="6.63576">
        <ele>196.7</ele>
        <time>2023-11-05T09:58:29Z</time>
      </trkpt>
      <trkpt lat="43.50795" lon="6.63575">
        <ele>196.3</ele>
        <time>2023-11-05T09:58:30Z</time>
      </trkpt>
      <trkpt lat="43.50795" lon="6.63574">
        <ele>196.2</ele>
        <time>2023-11-05T09:58:31Z</time>
      </trkpt>
      <trkpt lat="43.50796" lon="6.63573">
        <ele>195.9</ele>
        <time>2023-11-05T09:58:32Z</time>
      </trkpt>
      <trkpt lat="43.50796" lon="6.63572">
        <ele>195.6</ele>
        <time>2023-11-05T09:58:33Z</time>
      </trkpt>
      <trkpt lat="43.50796" lon="6.63571">
        <ele>195.4</ele>
        <time>2023-11-05T09:58:34Z</time>
      </trkpt>
      <trkpt lat="43.50797" lon="6.63569">
        <ele>195</ele>
        <time>2023-11-05T09:58:35Z</time>
      </trkpt>
      <trkpt lat="43.50797" lon="6.63568">
        <ele>194.7</ele>
        <time>2023-11-05T09:58:36Z</time>
      </trkpt>
      <trkpt lat="43.50798" lon="6.63566">
        <ele>194.4</ele>
        <time>2023-11-05T09:58:37Z</time>
      </trkpt>
      <trkpt lat="43.50799" lon="6.63565">
        <ele>194.3</ele>
        <time>2023-11-05T09:58:38Z</time>
      </trkpt>
      <trkpt lat="43.508" lon="6.63564">
        <ele>194.1</ele>
        <time>2023-11-05T09:58:39Z</time>
      </trkpt>
      <trkpt lat="43.508" lon="6.63563">
        <ele>193.9</ele>
        <time>2023-11-05T09:58:40Z</time>
      </trkpt>
      <trkpt lat="43.50801" lon="6.63562">
        <ele>193.8</ele>
        <time>2023-11-05T09:58:41Z</time>
      </trkpt>
      <trkpt lat="43.50801" lon="6.63561">
        <ele>193.8</ele>
        <time>2023-11-05T09:58:42Z</time>
      </trkpt>
      <trkpt lat="43.50802" lon="6.63559">
        <ele>193.6</ele>
        <time>2023-11-05T09:58:43Z</time>
      </trkpt>
      <trkpt lat="43.50803" lon="6.63558">
        <ele>193.5</ele>
        <time>2023-11-05T09:58:44Z</time>
      </trkpt>
      <trkpt lat="43.50804" lon="6.63557">
        <ele>193.4</ele>
        <time>2023-11-05T09:58:45Z</time>
      </trkpt>
      <trkpt lat="43.50805" lon="6.63556">
        <ele>193.1</ele>
        <time>2023-11-05T09:58:46Z</time>
      </trkpt>
      <trkpt lat="43.50805" lon="6.63555">
        <ele>192.9</ele>
        <time>2023-11-05T09:58:47Z</time>
      </trkpt>
      <trkpt lat="43.50806" lon="6.63554">
        <ele>192.7</ele>
        <time>2023-11-05T09:58:48Z</time>
      </trkpt>
      <trkpt lat="43.50806" lon="6.63553">
        <ele>192.6</ele>
        <time>2023-11-05T09:58:49Z</time>
      </trkpt>
      <trkpt lat="43.50807" lon="6.63552">
        <ele>192.5</ele>
        <time>2023-11-05T09:58:50Z</time>
      </trkpt>
      <trkpt lat="43.50808" lon="6.6355">
        <ele>192.7</ele>
        <time>2023-11-05T09:58:51Z</time>
      </trkpt>
      <trkpt lat="43.50809" lon="6.63549">
        <ele>192.7</ele>
        <time>2023-11-05T09:58:52Z</time>
      </trkpt>
      <trkpt lat="43.5081" lon="6.63548">
        <ele>192.7</ele>
        <time>2023-11-05T09:58:53Z</time>
      </trkpt>
      <trkpt lat="43.5081" lon="6.63547">
        <ele>192.6</ele>
        <time>2023-11-05T09:58:54Z</time>
      </trkpt>
      <trkpt lat="43.50811" lon="6.63546">
        <ele>192.6</ele>
        <time>2023-11-05T09:58:55Z</time>
      </trkpt>
      <trkpt lat="43.50812" lon="6.63544">
        <ele>192.5</ele>
        <time>2023-11-05T09:58:56Z</time>
      </trkpt>
      <trkpt lat="43.50813" lon="6.63543">
        <ele>192.3</ele>
        <time>2023-11-05T09:58:57Z</time>
      </trkpt>
      <trkpt lat="43.50813" lon="6.63542">
        <ele>192.2</ele>
        <time>2023-11-05T09:58:58Z</time>
      </trkpt>
      <trkpt lat="43.50814" lon="6.63541">
        <ele>192.2</ele>
        <time>2023-11-05T09:58:59Z</time>
      </trkpt>
      <trkpt lat="43.50815" lon="6.6354">
        <ele>192.1</ele>
        <time>2023-11-05T09:59:00Z</time>
      </trkpt>
      <trkpt lat="43.50816" lon="6.63539">
        <ele>192</ele>
        <time>2023-11-05T09:59:01Z</time>
      </trkpt>
      <trkpt lat="43.50817" lon="6.63539">
        <ele>191.8</ele>
        <time>2023-11-05T09:59:02Z</time>
      </trkpt>
      <trkpt lat="43.50817" lon="6.63538">
        <ele>191.7</ele>
        <time>2023-11-05T09:59:03Z</time>
      </trkpt>
      <trkpt lat="43.50818" lon="6.63537">
        <ele>191.6</ele>
        <time>2023-11-05T09:59:04Z</time>
      </trkpt>
      <trkpt lat="43.50819" lon="6.63537">
        <ele>191.8</ele>
        <time>2023-11-05T09:59:05Z</time>
      </trkpt>
      <trkpt lat="43.50819" lon="6.63536">
        <ele>191.9</ele>
        <time>2023-11-05T09:59:06Z</time>
      </trkpt>
      <trkpt lat="43.5082" lon="6.63536">
        <ele>192</ele>
        <time>2023-11-05T09:59:07Z</time>
      </trkpt>
      <trkpt lat="43.50821" lon="6.63536">
        <ele>192</ele>
        <time>2023-11-05T09:59:08Z</time>
      </trkpt>
      <trkpt lat="43.50822" lon="6.63535">
        <ele>191.9</ele>
        <time>2023-11-05T09:59:09Z</time>
      </trkpt>
      <trkpt lat="43.50822" lon="6.63535">
        <ele>191.8</ele>
        <time>2023-11-05T09:59:10Z</time>
      </trkpt>
      <trkpt lat="43.50824" lon="6.63535">
        <ele>191.7</ele>
        <time>2023-11-05T09:59:11Z</time>
      </trkpt>
      <trkpt lat="43.50824" lon="6.63535">
        <ele>191.4</ele>
        <time>2023-11-05T09:59:12Z</time>
      </trkpt>
      <trkpt lat="43.50825" lon="6.63536">
        <ele>191.1</ele>
        <time>2023-11-05T09:59:13Z</time>
      </trkpt>
      <trkpt lat="43.50826" lon="6.63536">
        <ele>190.8</ele>
        <time>2023-11-05T09:59:14Z</time>
      </trkpt>
      <trkpt lat="43.50826" lon="6.63536">
        <ele>190.6</ele>
        <time>2023-11-05T09:59:15Z</time>
      </trkpt>
      <trkpt lat="43.50827" lon="6.63536">
        <ele>190.4</ele>
        <time>2023-11-05T09:59:16Z</time>
      </trkpt>
      <trkpt lat="43.50828" lon="6.63536">
        <ele>190.3</ele>
        <time>2023-11-05T09:59:17Z</time>
      </trkpt>
      <trkpt lat="43.50829" lon="6.63536">
        <ele>190.1</ele>
        <time>2023-11-05T09:59:18Z</time>
      </trkpt>
      <trkpt lat="43.50831" lon="6.63536">
        <ele>190</ele>
        <time>2023-11-05T09:59:19Z</time>
      </trkpt>
      <trkpt lat="43.50832" lon="6.63536">
        <ele>189.9</ele>
        <time>2023-11-05T09:59:20Z</time>
      </trkpt>
      <trkpt lat="43.50833" lon="6.63537">
        <ele>189.7</ele>
        <time>2023-11-05T09:59:21Z</time>
      </trkpt>
      <trkpt lat="43.50834" lon="6.63537">
        <ele>189.5</ele>
        <time>2023-11-05T09:59:22Z</time>
      </trkpt>
      <trkpt lat="43.50835" lon="6.63537">
        <ele>189.4</ele>
        <time>2023-11-05T09:59:23Z</time>
      </trkpt>
      <trkpt lat="43.50835" lon="6.63537">
        <ele>189.3</ele>
        <time>2023-11-05T09:59:24Z</time>
      </trkpt>
      <trkpt lat="43.50836" lon="6.63538">
        <ele>189.2</ele>
        <time>2023-11-05T09:59:25Z</time>
      </trkpt>
      <trkpt lat="43.50838" lon="6.63538">
        <ele>189.1</ele>
        <time>2023-11-05T09:59:26Z</time>
      </trkpt>
      <trkpt lat="43.50839" lon="6.63538">
        <ele>188.9</ele>
        <time>2023-11-05T09:59:27Z</time>
      </trkpt>
      <trkpt lat="43.5084" lon="6.63539">
        <ele>188.7</ele>
        <time>2023-11-05T09:59:28Z</time>
      </trkpt>
      <trkpt lat="43.50841" lon="6.63539">
        <ele>188.5</ele>
        <time>2023-11-05T09:59:29Z</time>
      </trkpt>
      <trkpt lat="43.50842" lon="6.6354">
        <ele>188.4</ele>
        <time>2023-11-05T09:59:30Z</time>
      </trkpt>
      <trkpt lat="43.50842" lon="6.6354">
        <ele>188.4</ele>
        <time>2023-11-05T09:59:31Z</time>
      </trkpt>
      <trkpt lat="43.50843" lon="6.63541">
        <ele>188.3</ele>
        <time>2023-11-05T09:59:32Z</time>
      </trkpt>
      <trkpt lat="43.50844" lon="6.63542">
        <ele>188.1</ele>
        <time>2023-11-05T09:59:33Z</time>
      </trkpt>
      <trkpt lat="43.50844" lon="6.63543">
        <ele>188</ele>
        <time>2023-11-05T09:59:34Z</time>
      </trkpt>
      <trkpt lat="43.50845" lon="6.63544">
        <ele>187.9</ele>
        <time>2023-11-05T09:59:35Z</time>
      </trkpt>
      <trkpt lat="43.50846" lon="6.63545">
        <ele>187.8</ele>
        <time>2023-11-05T09:59:36Z</time>
      </trkpt>
      <trkpt lat="43.50847" lon="6.63545">
        <ele>187.7</ele>
        <time>2023-11-05T09:59:37Z</time>
      </trkpt>
      <trkpt lat="43.50847" lon="6.63546">
        <ele>187.5</ele>
        <time>2023-11-05T09:59:38Z</time>
      </trkpt>
      <trkpt lat="43.50848" lon="6.63547">
        <ele>187.4</ele>
        <time>2023-11-05T09:59:39Z</time>
      </trkpt>
      <trkpt lat="43.50849" lon="6.63547">
        <ele>187.2</ele>
        <time>2023-11-05T09:59:40Z</time>
      </trkpt>
      <trkpt lat="43.5085" lon="6.63548">
        <ele>187</ele>
        <time>2023-11-05T09:59:41Z</time>
      </trkpt>
      <trkpt lat="43.50851" lon="6.63548">
        <ele>186.9</ele>
        <time>2023-11-05T09:59:42Z</time>
      </trkpt>
      <trkpt lat="43.50852" lon="6.63549">
        <ele>186.9</ele>
        <time>2023-11-05T09:59:43Z</time>
      </trkpt>
      <trkpt lat="43.50852" lon="6.6355">
        <ele>186.9</ele>
        <time>2023-11-05T09:59:44Z</time>
      </trkpt>
      <trkpt lat="43.50853" lon="6.63551">
        <ele>186.8</ele>
        <time>2023-11-05T09:59:45Z</time>
      </trkpt>
      <trkpt lat="43.50854" lon="6.63552">
        <ele>186.8</ele>
        <time>2023-11-05T09:59:46Z</time>
      </trkpt>
      <trkpt lat="43.50855" lon="6.63553">
        <ele>186.8</ele>
        <time>2023-11-05T09:59:47Z</time>
      </trkpt>
      <trkpt lat="43.50856" lon="6.63554">
        <ele>186.7</ele>
        <time>2023-11-05T09:59:48Z</time>
      </trkpt>
      <trkpt lat="43.50857" lon="6.63554">
        <ele>186.6</ele>
        <time>2023-11-05T09:59:49Z</time>
      </trkpt>
      <trkpt lat="43.50858" lon="6.63554">
        <ele>186.6</ele>
        <time>2023-11-05T09:59:50Z</time>
      </trkpt>
      <trkpt lat="43.50858" lon="6.63555">
        <ele>186.5</ele>
        <time>2023-11-05T09:59:51Z</time>
      </trkpt>
      <trkpt lat="43.50859" lon="6.63556">
        <ele>186.5</ele>
        <time>2023-11-05T09:59:52Z</time>
      </trkpt>
      <trkpt lat="43.5086" lon="6.63557">
        <ele>186.4</ele>
        <time>2023-11-05T09:59:53Z</time>
      </trkpt>
      <trkpt lat="43.50861" lon="6.63558">
        <ele>186.3</ele>
        <time>2023-11-05T09:59:54Z</time>
      </trkpt>
      <trkpt lat="43.50861" lon="6.63559">
        <ele>186.2</ele>
        <time>2023-11-05T09:59:55Z</time>
      </trkpt>
      <trkpt lat="43.50862" lon="6.63559">
        <ele>186.1</ele>
        <time>2023-11-05T09:59:56Z</time>
      </trkpt>
      <trkpt lat="43.50863" lon="6.63559">
        <ele>186.1</ele>
        <time>2023-11-05T09:59:57Z</time>
      </trkpt>
      <trkpt lat="43.50864" lon="6.63558">
        <ele>186.1</ele>
        <time>2023-11-05T09:59:58Z</time>
      </trkpt>
      <trkpt lat="43.50863" lon="6.63557">
        <ele>186.4</ele>
        <time>2023-11-05T09:59:59Z</time>
      </trkpt>
      <trkpt lat="43.50863" lon="6.63557">
        <ele>186.3</ele>
        <time>2023-11-05T10:00:00Z</time>
      </trkpt>
      <trkpt lat="43.50863" lon="6.63557">
        <ele>186.3</ele>
        <time>2023-11-05T10:00:01Z</time>
      </trkpt>
      <trkpt lat="43.50864" lon="6.63556">
        <ele>186.3</ele>
        <time>2023-11-05T10:00:02Z</time>
      </trkpt>
      <trkpt lat="43.50864" lon="6.63555">
        <ele>186.1</ele>
        <time>2023-11-05T10:00:03Z</time>
      </trkpt>
      <trkpt lat="43.50864" lon="6.63554">
        <ele>185.8</ele>
        <time>2023-11-05T10:00:04Z</time>
      </trkpt>
      <trkpt lat="43.50864" lon="6.63554">
        <ele>185.6</ele>
        <time>2023-11-05T10:00:05Z</time>
      </trkpt>
      <trkpt lat="43.50865" lon="6.63553">
        <ele>185.5</ele>
        <time>2023-11-05T10:00:06Z</time>
      </trkpt>
      <trkpt lat="43.50865" lon="6.63553">
        <ele>185.3</ele>
        <time>2023-11-05T10:00:07Z</time>
      </trkpt>
      <trkpt lat="43.50865" lon="6.63553">
        <ele>185.1</ele>
        <time>2023-11-05T10:00:08Z</time>
      </trkpt>
      <trkpt lat="43.50865" lon="6.63553">
        <ele>185</ele>
        <time>2023-11-05T10:00:09Z</time>
      </trkpt>
      <trkpt lat="43.50865" lon="6.63553">
        <ele>185</ele>
        <time>2023-11-05T10:00:10Z</time>
      </trkpt>
      <trkpt lat="43.50865" lon="6.63553">
        <ele>185</ele>
        <time>2023-11-05T10:00:11Z</time>
      </trkpt>
      <trkpt lat="43.50864" lon="6.63553">
        <ele>185</ele>
        <time>2023-11-05T10:00:12Z</time>
      </trkpt>
      <trkpt lat="43.50865" lon="6.63553">
        <ele>185.1</ele>
        <time>2023-11-05T10:00:13Z</time>
      </trkpt>
      <trkpt lat="43.50865" lon="6.63553">
        <ele>185.2</ele>
        <time>2023-11-05T10:00:14Z</time>
      </trkpt>
      <trkpt lat="43.50865" lon="6.63553">
        <ele>185.1</ele>
        <time>2023-11-05T10:00:15Z</time>
      </trkpt>
      <trkpt lat="43.50865" lon="6.63553">
        <ele>185.1</ele>
        <time>2023-11-05T10:00:16Z</time>
      </trkpt>
      <trkpt lat="43.50865" lon="6.63553">
        <ele>185.2</ele>
        <time>2023-11-05T10:00:17Z</time>
      </trkpt>
      <trkpt lat="43.50865" lon="6.63553">
        <ele>185.4</ele>
        <time>2023-11-05T10:00:18Z</time>
      </trkpt>
      <trkpt lat="43.50865" lon="6.63553">
        <ele>185.6</ele>
        <time>2023-11-05T10:00:19Z</time>
      </trkpt>
      <trkpt lat="43.50865" lon="6.63553">
        <ele>185.6</ele>
        <time>2023-11-05T10:00:20Z</time>
      </trkpt>
      <trkpt lat="43.50865" lon="6.63553">
        <ele>185.6</ele>
        <time>2023-11-05T10:00:21Z</time>
      </trkpt>
      <trkpt lat="43.50865" lon="6.63553">
        <ele>185.6</ele>
        <time>2023-11-05T10:00:22Z</time>
      </trkpt>
      <trkpt lat="43.50865" lon="6.63553">
        <ele>185.6</ele>
        <time>2023-11-05T10:00:23Z</time>
      </trkpt>
      <trkpt lat="43.50865" lon="6.63553">
        <ele>185.7</ele>
        <time>2023-11-05T10:00:24Z</time>
      </trkpt>
      <trkpt lat="43.50865" lon="6.63552">
        <ele>185.7</ele>
        <time>2023-11-05T10:00:25Z</time>
      </trkpt>
      <trkpt lat="43.50865" lon="6.63551">
        <ele>185.8</ele>
        <time>2023-11-05T10:00:26Z</time>
      </trkpt>
      <trkpt lat="43.50865" lon="6.63549">
        <ele>185.6</ele>
        <time>2023-11-05T10:00:27Z</time>
      </trkpt>
      <trkpt lat="43.50865" lon="6.63548">
        <ele>185.6</ele>
        <time>2023-11-05T10:00:28Z</time>
      </trkpt>
      <trkpt lat="43.50864" lon="6.63547">
        <ele>185.5</ele>
        <time>2023-11-05T10:00:29Z</time>
      </trkpt>
      <trkpt lat="43.50864" lon="6.63546">
        <ele>185.4</ele>
        <time>2023-11-05T10:00:30Z</time>
      </trkpt>
      <trkpt lat="43.50864" lon="6.63545">
        <ele>185.3</ele>
        <time>2023-11-05T10:00:31Z</time>
      </trkpt>
      <trkpt lat="43.50864" lon="6.63544">
        <ele>185</ele>
        <time>2023-11-05T10:00:32Z</time>
      </trkpt>
      <trkpt lat="43.50865" lon="6.63542">
        <ele>185.1</ele>
        <time>2023-11-05T10:00:33Z</time>
      </trkpt>
      <trkpt lat="43.50865" lon="6.63541">
        <ele>185</ele>
        <time>2023-11-05T10:00:34Z</time>
      </trkpt>
      <trkpt lat="43.50865" lon="6.63539">
        <ele>184.9</ele>
        <time>2023-11-05T10:00:35Z</time>
      </trkpt>
      <trkpt lat="43.50865" lon="6.63537">
        <ele>184.6</ele>
        <time>2023-11-05T10:00:36Z</time>
      </trkpt>
      <trkpt lat="43.50865" lon="6.63536">
        <ele>184.3</ele>
        <time>2023-11-05T10:00:37Z</time>
      </trkpt>
      <trkpt lat="43.50865" lon="6.63534">
        <ele>184</ele>
        <time>2023-11-05T10:00:38Z</time>
      </trkpt>
      <trkpt lat="43.50865" lon="6.63533">
        <ele>183.8</ele>
        <time>2023-11-05T10:00:39Z</time>
      </trkpt>
      <trkpt lat="43.50865" lon="6.63532">
        <ele>183.8</ele>
        <time>2023-11-05T10:00:40Z</time>
      </trkpt>
      <trkpt lat="43.50865" lon="6.6353">
        <ele>183.6</ele>
        <time>2023-11-05T10:00:41Z</time>
      </trkpt>
      <trkpt lat="43.50865" lon="6.63529">
        <ele>183.6</ele>
        <time>2023-11-05T10:00:42Z</time>
      </trkpt>
      <trkpt lat="43.50865" lon="6.63527">
        <ele>183.5</ele>
        <time>2023-11-05T10:00:43Z</time>
      </trkpt>
      <trkpt lat="43.50866" lon="6.63526">
        <ele>183.3</ele>
        <time>2023-11-05T10:00:44Z</time>
      </trkpt>
      <trkpt lat="43.50866" lon="6.63524">
        <ele>183.1</ele>
        <time>2023-11-05T10:00:45Z</time>
      </trkpt>
      <trkpt lat="43.50866" lon="6.63523">
        <ele>182.8</ele>
        <time>2023-11-05T10:00:46Z</time>
      </trkpt>
      <trkpt lat="43.50866" lon="6.63522">
        <ele>182.6</ele>
        <time>2023-11-05T10:00:47Z</time>
      </trkpt>
      <trkpt lat="43.50866" lon="6.6352">
        <ele>182.4</ele>
        <time>2023-11-05T10:00:48Z</time>
      </trkpt>
      <trkpt lat="43.50866" lon="6.63519">
        <ele>182.3</ele>
        <time>2023-11-05T10:00:49Z</time>
      </trkpt>
      <trkpt lat="43.50866" lon="6.63518">
        <ele>182.2</ele>
        <time>2023-11-05T10:00:50Z</time>
      </trkpt>
      <trkpt lat="43.50866" lon="6.63517">
        <ele>182</ele>
        <time>2023-11-05T10:00:51Z</time>
      </trkpt>
      <trkpt lat="43.50867" lon="6.63515">
        <ele>181.8</ele>
        <time>2023-11-05T10:00:52Z</time>
      </trkpt>
      <trkpt lat="43.50867" lon="6.63514">
        <ele>181.6</ele>
        <time>2023-11-05T10:00:53Z</time>
      </trkpt>
      <trkpt lat="43.50867" lon="6.63512">
        <ele>181.4</ele>
        <time>2023-11-05T10:00:54Z</time>
      </trkpt>
      <trkpt lat="43.50867" lon="6.6351">
        <ele>181.1</ele>
        <time>2023-11-05T10:00:55Z</time>
      </trkpt>
      <trkpt lat="43.50867" lon="6.63509">
        <ele>180.8</ele>
        <time>2023-11-05T10:00:56Z</time>
      </trkpt>
      <trkpt lat="43.50867" lon="6.63507">
        <ele>180.6</ele>
        <time>2023-11-05T10:00:57Z</time>
      </trkpt>
      <trkpt lat="43.50866" lon="6.63506">
        <ele>180.4</ele>
        <time>2023-11-05T10:00:58Z</time>
      </trkpt>
      <trkpt lat="43.50866" lon="6.63505">
        <ele>180.2</ele>
        <time>2023-11-05T10:00:59Z</time>
      </trkpt>
      <trkpt lat="43.50866" lon="6.63504">
        <ele>179.8</ele>
        <time>2023-11-05T10:01:00Z</time>
      </trkpt>
      <trkpt lat="43.50866" lon="6.63502">
        <ele>179.5</ele>
        <time>2023-11-05T10:01:01Z</time>
      </trkpt>
      <trkpt lat="43.50866" lon="6.63501">
        <ele>179.3</ele>
        <time>2023-11-05T10:01:02Z</time>
      </trkpt>
      <trkpt lat="43.50865" lon="6.63499">
        <ele>179.1</ele>
        <time>2023-11-05T10:01:03Z</time>
      </trkpt>
      <trkpt lat="43.50866" lon="6.63498">
        <ele>178.9</ele>
        <time>2023-11-05T10:01:04Z</time>
      </trkpt>
      <trkpt lat="43.50866" lon="6.63496">
        <ele>178.7</ele>
        <time>2023-11-05T10:01:05Z</time>
      </trkpt>
      <trkpt lat="43.50866" lon="6.63495">
        <ele>178.5</ele>
        <time>2023-11-05T10:01:06Z</time>
      </trkpt>
      <trkpt lat="43.50867" lon="6.63493">
        <ele>178.3</ele>
        <time>2023-11-05T10:01:07Z</time>
      </trkpt>
      <trkpt lat="43.50867" lon="6.63492">
        <ele>178.1</ele>
        <time>2023-11-05T10:01:08Z</time>
      </trkpt>
      <trkpt lat="43.50867" lon="6.6349">
        <ele>178</ele>
        <time>2023-11-05T10:01:09Z</time>
      </trkpt>
      <trkpt lat="43.50867" lon="6.63489">
        <ele>177.8</ele>
        <time>2023-11-05T10:01:10Z</time>
      </trkpt>
      <trkpt lat="43.50866" lon="6.63488">
        <ele>177.7</ele>
        <time>2023-11-05T10:01:11Z</time>
      </trkpt>
      <trkpt lat="43.50866" lon="6.63487">
        <ele>177.5</ele>
        <time>2023-11-05T10:01:12Z</time>
      </trkpt>
      <trkpt lat="43.50866" lon="6.63486">
        <ele>177.3</ele>
        <time>2023-11-05T10:01:13Z</time>
      </trkpt>
      <trkpt lat="43.50866" lon="6.63484">
        <ele>177.1</ele>
        <time>2023-11-05T10:01:14Z</time>
      </trkpt>
      <trkpt lat="43.50866" lon="6.63483">
        <ele>176.9</ele>
        <time>2023-11-05T10:01:15Z</time>
      </trkpt>
      <trkpt lat="43.50866" lon="6.63481">
        <ele>176.7</ele>
        <time>2023-11-05T10:01:16Z</time>
      </trkpt>
      <trkpt lat="43.50866" lon="6.6348">
        <ele>176.5</ele>
        <time>2023-11-05T10:01:17Z</time>
      </trkpt>
      <trkpt lat="43.50866" lon="6.63479">
        <ele>176.2</ele>
        <time>2023-11-05T10:01:18Z</time>
      </trkpt>
      <trkpt lat="43.50866" lon="6.63478">
        <ele>176</ele>
        <time>2023-11-05T10:01:19Z</time>
      </trkpt>
      <trkpt lat="43.50865" lon="6.63476">
        <ele>175.8</ele>
        <time>2023-11-05T10:01:20Z</time>
      </trkpt>
      <trkpt lat="43.50865" lon="6.63475">
        <ele>175.7</ele>
        <time>2023-11-05T10:01:21Z</time>
      </trkpt>
      <trkpt lat="43.50865" lon="6.63474">
        <ele>175.5</ele>
        <time>2023-11-05T10:01:22Z</time>
      </trkpt>
      <trkpt lat="43.50865" lon="6.63473">
        <ele>175.3</ele>
        <time>2023-11-05T10:01:23Z</time>
      </trkpt>
      <trkpt lat="43.50865" lon="6.63471">
        <ele>175.1</ele>
        <time>2023-11-05T10:01:24Z</time>
      </trkpt>
      <trkpt lat="43.50865" lon="6.6347">
        <ele>175</ele>
        <time>2023-11-05T10:01:25Z</time>
      </trkpt>
      <trkpt lat="43.50864" lon="6.63469">
        <ele>174.9</ele>
        <time>2023-11-05T10:01:26Z</time>
      </trkpt>
      <trkpt lat="43.50864" lon="6.63468">
        <ele>174.8</ele>
        <time>2023-11-05T10:01:27Z</time>
      </trkpt>
      <trkpt lat="43.50864" lon="6.63466">
        <ele>174.7</ele>
        <time>2023-11-05T10:01:28Z</time>
      </trkpt>
      <trkpt lat="43.50864" lon="6.63465">
        <ele>174.7</ele>
        <time>2023-11-05T10:01:29Z</time>
      </trkpt>
      <trkpt lat="43.50864" lon="6.63463">
        <ele>174.7</ele>
        <time>2023-11-05T10:01:30Z</time>
      </trkpt>
      <trkpt lat="43.50864" lon="6.63462">
        <ele>174.7</ele>
        <time>2023-11-05T10:01:31Z</time>
      </trkpt>
      <trkpt lat="43.50863" lon="6.6346">
        <ele>174.8</ele>
        <time>2023-11-05T10:01:32Z</time>
      </trkpt>
      <trkpt lat="43.50863" lon="6.63459">
        <ele>174.7</ele>
        <time>2023-11-05T10:01:33Z</time>
      </trkpt>
      <trkpt lat="43.50863" lon="6.63458">
        <ele>174.6</ele>
        <time>2023-11-05T10:01:34Z</time>
      </trkpt>
      <trkpt lat="43.50862" lon="6.63457">
        <ele>174.6</ele>
        <time>2023-11-05T10:01:35Z</time>
      </trkpt>
      <trkpt lat="43.50863" lon="6.63456">
        <ele>174.6</ele>
        <time>2023-11-05T10:01:36Z</time>
      </trkpt>
      <trkpt lat="43.50863" lon="6.63454">
        <ele>174.5</ele>
        <time>2023-11-05T10:01:37Z</time>
      </trkpt>
      <trkpt lat="43.50863" lon="6.63453">
        <ele>174.4</ele>
        <time>2023-11-05T10:01:38Z</time>
      </trkpt>
      <trkpt lat="43.50863" lon="6.63452">
        <ele>174.4</ele>
        <time>2023-11-05T10:01:39Z</time>
      </trkpt>
      <trkpt lat="43.50863" lon="6.6345">
        <ele>174.4</ele>
        <time>2023-11-05T10:01:40Z</time>
      </trkpt>
      <trkpt lat="43.50862" lon="6.63449">
        <ele>174.3</ele>
        <time>2023-11-05T10:01:41Z</time>
      </trkpt>
      <trkpt lat="43.50862" lon="6.63447">
        <ele>174.1</ele>
        <time>2023-11-05T10:01:42Z</time>
      </trkpt>
      <trkpt lat="43.50862" lon="6.63446">
        <ele>173.9</ele>
        <time>2023-11-05T10:01:43Z</time>
      </trkpt>
      <trkpt lat="43.50862" lon="6.63444">
        <ele>173.8</ele>
        <time>2023-11-05T10:01:44Z</time>
      </trkpt>
      <trkpt lat="43.50862" lon="6.63442">
        <ele>173.6</ele>
        <time>2023-11-05T10:01:45Z</time>
      </trkpt>
      <trkpt lat="43.50861" lon="6.63441">
        <ele>173.5</ele>
        <time>2023-11-05T10:01:46Z</time>
      </trkpt>
      <trkpt lat="43.50861" lon="6.6344">
        <ele>173.4</ele>
        <time>2023-11-05T10:01:47Z</time>
      </trkpt>
      <trkpt lat="43.5086" lon="6.63438">
        <ele>173.2</ele>
        <time>2023-11-05T10:01:48Z</time>
      </trkpt>
      <trkpt lat="43.5086" lon="6.63437">
        <ele>173.1</ele>
        <time>2023-11-05T10:01:49Z</time>
      </trkpt>
      <trkpt lat="43.5086" lon="6.63435">
        <ele>173</ele>
        <time>2023-11-05T10:01:50Z</time>
      </trkpt>
      <trkpt lat="43.5086" lon="6.63434">
        <ele>172.9</ele>
        <time>2023-11-05T10:01:51Z</time>
      </trkpt>
      <trkpt lat="43.5086" lon="6.63432">
        <ele>172.8</ele>
        <time>2023-11-05T10:01:52Z</time>
      </trkpt>
      <trkpt lat="43.5086" lon="6.63431">
        <ele>172.6</ele>
        <time>2023-11-05T10:01:53Z</time>
      </trkpt>
      <trkpt lat="43.50859" lon="6.63429">
        <ele>172.5</ele>
        <time>2023-11-05T10:01:54Z</time>
      </trkpt>
      <trkpt lat="43.50859" lon="6.63428">
        <ele>172.4</ele>
        <time>2023-11-05T10:01:55Z</time>
      </trkpt>
      <trkpt lat="43.50859" lon="6.63427">
        <ele>172.4</ele>
        <time>2023-11-05T10:01:56Z</time>
      </trkpt>
      <trkpt lat="43.50858" lon="6.63425">
        <ele>172.4</ele>
        <time>2023-11-05T10:01:57Z</time>
      </trkpt>
      <trkpt lat="43.50858" lon="6.63423">
        <ele>172.4</ele>
        <time>2023-11-05T10:01:58Z</time>
      </trkpt>
      <trkpt lat="43.50858" lon="6.63422">
        <ele>172.3</ele>
        <time>2023-11-05T10:01:59Z</time>
      </trkpt>
      <trkpt lat="43.50857" lon="6.6342">
        <ele>172.2</ele>
        <time>2023-11-05T10:02:00Z</time>
      </trkpt>
      <trkpt lat="43.50857" lon="6.63419">
        <ele>172</ele>
        <time>2023-11-05T10:02:01Z</time>
      </trkpt>
      <trkpt lat="43.50857" lon="6.63418">
        <ele>172</ele>
        <time>2023-11-05T10:02:02Z</time>
      </trkpt>
      <trkpt lat="43.50856" lon="6.63416">
        <ele>172.1</ele>
        <time>2023-11-05T10:02:03Z</time>
      </trkpt>
      <trkpt lat="43.50855" lon="6.63415">
        <ele>172.2</ele>
        <time>2023-11-05T10:02:04Z</time>
      </trkpt>
      <trkpt lat="43.50855" lon="6.63414">
        <ele>172.3</ele>
        <time>2023-11-05T10:02:05Z</time>
      </trkpt>
      <trkpt lat="43.50855" lon="6.63412">
        <ele>172.3</ele>
        <time>2023-11-05T10:02:06Z</time>
      </trkpt>
      <trkpt lat="43.50855" lon="6.63411">
        <ele>172.3</ele>
        <time>2023-11-05T10:02:07Z</time>
      </trkpt>
      <trkpt lat="43.50854" lon="6.63409">
        <ele>172.2</ele>
        <time>2023-11-05T10:02:08Z</time>
      </trkpt>
      <trkpt lat="43.50854" lon="6.63408">
        <ele>172.2</ele>
        <time>2023-11-05T10:02:09Z</time>
      </trkpt>
      <trkpt lat="43.50853" lon="6.63407">
        <ele>172.3</ele>
        <time>2023-11-05T10:02:10Z</time>
      </trkpt>
      <trkpt lat="43.50853" lon="6.63405">
        <ele>172.5</ele>
        <time>2023-11-05T10:02:11Z</time>
      </trkpt>
      <trkpt lat="43.50852" lon="6.63404">
        <ele>172.5</ele>
        <time>2023-11-05T10:02:12Z</time>
      </trkpt>
      <trkpt lat="43.50852" lon="6.63403">
        <ele>172.5</ele>
        <time>2023-11-05T10:02:13Z</time>
      </trkpt>
      <trkpt lat="43.50851" lon="6.63402">
        <ele>172.3</ele>
        <time>2023-11-05T10:02:14Z</time>
      </trkpt>
      <trkpt lat="43.50851" lon="6.63401">
        <ele>172.2</ele>
        <time>2023-11-05T10:02:15Z</time>
      </trkpt>
      <trkpt lat="43.50851" lon="6.63399">
        <ele>172.3</ele>
        <time>2023-11-05T10:02:16Z</time>
      </trkpt>
      <trkpt lat="43.5085" lon="6.63398">
        <ele>172.1</ele>
        <time>2023-11-05T10:02:17Z</time>
      </trkpt>
      <trkpt lat="43.50849" lon="6.63397">
        <ele>171.8</ele>
        <time>2023-11-05T10:02:18Z</time>
      </trkpt>
      <trkpt lat="43.50849" lon="6.63395">
        <ele>171.7</ele>
        <time>2023-11-05T10:02:19Z</time>
      </trkpt>
      <trkpt lat="43.50848" lon="6.63394">
        <ele>171.5</ele>
        <time>2023-11-05T10:02:20Z</time>
      </trkpt>
      <trkpt lat="43.50848" lon="6.63393">
        <ele>171.6</ele>
        <time>2023-11-05T10:02:21Z</time>
      </trkpt>
      <trkpt lat="43.50847" lon="6.63392">
        <ele>171.6</ele>
        <time>2023-11-05T10:02:22Z</time>
      </trkpt>
      <trkpt lat="43.50847" lon="6.63391">
        <ele>171.5</ele>
        <time>2023-11-05T10:02:23Z</time>
      </trkpt>
      <trkpt lat="43.50847" lon="6.6339">
        <ele>171.4</ele>
        <time>2023-11-05T10:02:24Z</time>
      </trkpt>
      <trkpt lat="43.50847" lon="6.6339">
        <ele>171.4</ele>
        <time>2023-11-05T10:02:25Z</time>
      </trkpt>
      <trkpt lat="43.50847" lon="6.6339">
        <ele>171.3</ele>
        <time>2023-11-05T10:02:26Z</time>
      </trkpt>
      <trkpt lat="43.50847" lon="6.6339">
        <ele>171.2</ele>
        <time>2023-11-05T10:02:27Z</time>
      </trkpt>
      <trkpt lat="43.50847" lon="6.63389">
        <ele>171.2</ele>
        <time>2023-11-05T10:02:28Z</time>
      </trkpt>
      <trkpt lat="43.50846" lon="6.63389">
        <ele>171.3</ele>
        <time>2023-11-05T10:02:29Z</time>
      </trkpt>
      <trkpt lat="43.50846" lon="6.63389">
        <ele>171.3</ele>
        <time>2023-11-05T10:02:30Z</time>
      </trkpt>
      <trkpt lat="43.50846" lon="6.63389">
        <ele>171.4</ele>
        <time>2023-11-05T10:02:31Z</time>
      </trkpt>
      <trkpt lat="43.50846" lon="6.63389">
        <ele>171.5</ele>
        <time>2023-11-05T10:02:32Z</time>
      </trkpt>
      <trkpt lat="43.50846" lon="6.63389">
        <ele>171.7</ele>
        <time>2023-11-05T10:02:33Z</time>
      </trkpt>
      <trkpt lat="43.50845" lon="6.63389">
        <ele>171.8</ele>
        <time>2023-11-05T10:02:34Z</time>
      </trkpt>
      <trkpt lat="43.50845" lon="6.63389">
        <ele>171.9</ele>
        <time>2023-11-05T10:02:35Z</time>
      </trkpt>
      <trkpt lat="43.50845" lon="6.63389">
        <ele>171.9</ele>
        <time>2023-11-05T10:02:36Z</time>
      </trkpt>
      <trkpt lat="43.50845" lon="6.63389">
        <ele>171.7</ele>
        <time>2023-11-05T10:02:37Z</time>
      </trkpt>
      <trkpt lat="43.50844" lon="6.6339">
        <ele>171.6</ele>
        <time>2023-11-05T10:02:38Z</time>
      </trkpt>
      <trkpt lat="43.50844" lon="6.6339">
        <ele>171.5</ele>
        <time>2023-11-05T10:02:39Z</time>
      </trkpt>
      <trkpt lat="43.50844" lon="6.6339">
        <ele>171.4</ele>
        <time>2023-11-05T10:02:40Z</time>
      </trkpt>
      <trkpt lat="43.50844" lon="6.6339">
        <ele>171.6</ele>
        <time>2023-11-05T10:02:41Z</time>
      </trkpt>
      <trkpt lat="43.50844" lon="6.6339">
        <ele>171.5</ele>
        <time>2023-11-05T10:02:42Z</time>
      </trkpt>
      <trkpt lat="43.50844" lon="6.63389">
        <ele>171.5</ele>
        <time>2023-11-05T10:02:43Z</time>
      </trkpt>
      <trkpt lat="43.50844" lon="6.6339">
        <ele>171.4</ele>
        <time>2023-11-05T10:02:44Z</time>
      </trkpt>
      <trkpt lat="43.50844" lon="6.63389">
        <ele>171.4</ele>
        <time>2023-11-05T10:02:45Z</time>
      </trkpt>
      <trkpt lat="43.50844" lon="6.6339">
        <ele>171.3</ele>
        <time>2023-11-05T10:02:46Z</time>
      </trkpt>
      <trkpt lat="43.50844" lon="6.6339">
        <ele>171.3</ele>
        <time>2023-11-05T10:02:47Z</time>
      </trkpt>
      <trkpt lat="43.50844" lon="6.6339">
        <ele>171.3</ele>
        <time>2023-11-05T10:02:48Z</time>
      </trkpt>
      <trkpt lat="43.50844" lon="6.6339">
        <ele>171.2</ele>
        <time>2023-11-05T10:02:49Z</time>
      </trkpt>
      <trkpt lat="43.50844" lon="6.6339">
        <ele>171.1</ele>
        <time>2023-11-05T10:02:50Z</time>
      </trkpt>
      <trkpt lat="43.50844" lon="6.6339">
        <ele>171</ele>
        <time>2023-11-05T10:02:51Z</time>
      </trkpt>
      <trkpt lat="43.50844" lon="6.6339">
        <ele>170.9</ele>
        <time>2023-11-05T10:02:52Z</time>
      </trkpt>
      <trkpt lat="43.50844" lon="6.6339">
        <ele>171</ele>
        <time>2023-11-05T10:02:53Z</time>
      </trkpt>
      <trkpt lat="43.50844" lon="6.6339">
        <ele>171.1</ele>
        <time>2023-11-05T10:02:54Z</time>
      </trkpt>
      <trkpt lat="43.50844" lon="6.63389">
        <ele>171.2</ele>
        <time>2023-11-05T10:02:55Z</time>
      </trkpt>
      <trkpt lat="43.50844" lon="6.63389">
        <ele>171.2</ele>
        <time>2023-11-05T10:02:56Z</time>
      </trkpt>
      <trkpt lat="43.50844" lon="6.63388">
        <ele>171.1</ele>
        <time>2023-11-05T10:02:57Z</time>
      </trkpt>
      <trkpt lat="43.50844" lon="6.63388">
        <ele>171</ele>
        <time>2023-11-05T10:02:58Z</time>
      </trkpt>
      <trkpt lat="43.50844" lon="6.63388">
        <ele>170.8</ele>
        <time>2023-11-05T10:02:59Z</time>
      </trkpt>
      <trkpt lat="43.50845" lon="6.63388">
        <ele>170.7</ele>
        <time>2023-11-05T10:03:00Z</time>
      </trkpt>
      <trkpt lat="43.50846" lon="6.63387">
        <ele>170.6</ele>
        <time>2023-11-05T10:03:01Z</time>
      </trkpt>
      <trkpt lat="43.50847" lon="6.63387">
        <ele>170.5</ele>
        <time>2023-11-05T10:03:02Z</time>
      </trkpt>
      <trkpt lat="43.50848" lon="6.63387">
        <ele>170.4</ele>
        <time>2023-11-05T10:03:03Z</time>
      </trkpt>
      <trkpt lat="43.50849" lon="6.63387">
        <ele>170.5</ele>
        <time>2023-11-05T10:03:04Z</time>
      </trkpt>
      <trkpt lat="43.50849" lon="6.63387">
        <ele>170.5</ele>
        <time>2023-11-05T10:03:05Z</time>
      </trkpt>
      <trkpt lat="43.5085" lon="6.63388">
        <ele>170.5</ele>
        <time>2023-11-05T10:03:06Z</time>
      </trkpt>
      <trkpt lat="43.50851" lon="6.63389">
        <ele>170.5</ele>
        <time>2023-11-05T10:03:07Z</time>
      </trkpt>
      <trkpt lat="43.50852" lon="6.63389">
        <ele>170.5</ele>
        <time>2023-11-05T10:03:08Z</time>
      </trkpt>
      <trkpt lat="43.50853" lon="6.6339">
        <ele>170.5</ele>
        <time>2023-11-05T10:03:09Z</time>
      </trkpt>
      <trkpt lat="43.50853" lon="6.6339">
        <ele>170.5</ele>
        <time>2023-11-05T10:03:10Z</time>
      </trkpt>
      <trkpt lat="43.50854" lon="6.6339">
        <ele>170.5</ele>
        <time>2023-11-05T10:03:11Z</time>
      </trkpt>
      <trkpt lat="43.50854" lon="6.63391">
        <ele>170.5</ele>
        <time>2023-11-05T10:03:12Z</time>
      </trkpt>
      <trkpt lat="43.50854" lon="6.63392">
        <ele>170.4</ele>
        <time>2023-11-05T10:03:13Z</time>
      </trkpt>
      <trkpt lat="43.50855" lon="6.63393">
        <ele>170.2</ele>
        <time>2023-11-05T10:03:14Z</time>
      </trkpt>
      <trkpt lat="43.50856" lon="6.63393">
        <ele>170</ele>
        <time>2023-11-05T10:03:15Z</time>
      </trkpt>
      <trkpt lat="43.50856" lon="6.63394">
        <ele>169.9</ele>
        <time>2023-11-05T10:03:16Z</time>
      </trkpt>
      <trkpt lat="43.50857" lon="6.63395">
        <ele>169.7</ele>
        <time>2023-11-05T10:03:17Z</time>
      </trkpt>
      <trkpt lat="43.50858" lon="6.63395">
        <ele>169.5</ele>
        <time>2023-11-05T10:03:18Z</time>
      </trkpt>
      <trkpt lat="43.50859" lon="6.63396">
        <ele>169.4</ele>
        <time>2023-11-05T10:03:19Z</time>
      </trkpt>
      <trkpt lat="43.50859" lon="6.63396">
        <ele>169.3</ele>
        <time>2023-11-05T10:03:20Z</time>
      </trkpt>
      <trkpt lat="43.50859" lon="6.63396">
        <ele>169.1</ele>
        <time>2023-11-05T10:03:21Z</time>
      </trkpt>
      <trkpt lat="43.50859" lon="6.63396">
        <ele>169</ele>
        <time>2023-11-05T10:03:22Z</time>
      </trkpt>
      <trkpt lat="43.5086" lon="6.63396">
        <ele>168.9</ele>
        <time>2023-11-05T10:03:23Z</time>
      </trkpt>
      <trkpt lat="43.50859" lon="6.63396">
        <ele>169</ele>
        <time>2023-11-05T10:03:24Z</time>
      </trkpt>
      <trkpt lat="43.50859" lon="6.63397">
        <ele>169</ele>
        <time>2023-11-05T10:03:25Z</time>
      </trkpt>
      <trkpt lat="43.50859" lon="6.63397">
        <ele>169</ele>
        <time>2023-11-05T10:03:26Z</time>
      </trkpt>
      <trkpt lat="43.5086" lon="6.63398">
        <ele>169.3</ele>
        <time>2023-11-05T10:03:27Z</time>
      </trkpt>
      <trkpt lat="43.5086" lon="6.63399">
        <ele>169.5</ele>
        <time>2023-11-05T10:03:28Z</time>
      </trkpt>
      <trkpt lat="43.50861" lon="6.634">
        <ele>169.3</ele>
        <time>2023-11-05T10:03:29Z</time>
      </trkpt>
      <trkpt lat="43.50862" lon="6.634">
        <ele>169.3</ele>
        <time>2023-11-05T10:03:30Z</time>
      </trkpt>
      <trkpt lat="43.50863" lon="6.63401">
        <ele>169.2</ele>
        <time>2023-11-05T10:03:31Z</time>
      </trkpt>
      <trkpt lat="43.50864" lon="6.63402">
        <ele>169.1</ele>
        <time>2023-11-05T10:03:32Z</time>
      </trkpt>
      <trkpt lat="43.50865" lon="6.63402">
        <ele>168.9</ele>
        <time>2023-11-05T10:03:33Z</time>
      </trkpt>
      <trkpt lat="43.50866" lon="6.63403">
        <ele>168.8</ele>
        <time>2023-11-05T10:03:34Z</time>
      </trkpt>
      <trkpt lat="43.50866" lon="6.63403">
        <ele>168.6</ele>
        <time>2023-11-05T10:03:35Z</time>
      </trkpt>
      <trkpt lat="43.50867" lon="6.63405">
        <ele>168.5</ele>
        <time>2023-11-05T10:03:36Z</time>
      </trkpt>
      <trkpt lat="43.50868" lon="6.63405">
        <ele>168.3</ele>
        <time>2023-11-05T10:03:37Z</time>
      </trkpt>
      <trkpt lat="43.50869" lon="6.63406">
        <ele>168.1</ele>
        <time>2023-11-05T10:03:38Z</time>
      </trkpt>
      <trkpt lat="43.50869" lon="6.63407">
        <ele>168</ele>
        <time>2023-11-05T10:03:39Z</time>
      </trkpt>
      <trkpt lat="43.5087" lon="6.63407">
        <ele>168.2</ele>
        <time>2023-11-05T10:03:40Z</time>
      </trkpt>
      <trkpt lat="43.50871" lon="6.63408">
        <ele>168</ele>
        <time>2023-11-05T10:03:41Z</time>
      </trkpt>
      <trkpt lat="43.50872" lon="6.63409">
        <ele>167.9</ele>
        <time>2023-11-05T10:03:42Z</time>
      </trkpt>
      <trkpt lat="43.50873" lon="6.63409">
        <ele>167.8</ele>
        <time>2023-11-05T10:03:43Z</time>
      </trkpt>
      <trkpt lat="43.50873" lon="6.6341">
        <ele>167.8</ele>
        <time>2023-11-05T10:03:44Z</time>
      </trkpt>
      <trkpt lat="43.50874" lon="6.63411">
        <ele>167.7</ele>
        <time>2023-11-05T10:03:45Z</time>
      </trkpt>
      <trkpt lat="43.50875" lon="6.63412">
        <ele>167.4</ele>
        <time>2023-11-05T10:03:46Z</time>
      </trkpt>
      <trkpt lat="43.50876" lon="6.63413">
        <ele>167.3</ele>
        <time>2023-11-05T10:03:47Z</time>
      </trkpt>
      <trkpt lat="43.50877" lon="6.63414">
        <ele>167</ele>
        <time>2023-11-05T10:03:48Z</time>
      </trkpt>
      <trkpt lat="43.50878" lon="6.63414">
        <ele>166.8</ele>
        <time>2023-11-05T10:03:49Z</time>
      </trkpt>
      <trkpt lat="43.50879" lon="6.63415">
        <ele>166.6</ele>
        <time>2023-11-05T10:03:50Z</time>
      </trkpt>
      <trkpt lat="43.50879" lon="6.63415">
        <ele>166.5</ele>
        <time>2023-11-05T10:03:51Z</time>
      </trkpt>
      <trkpt lat="43.5088" lon="6.63416">
        <ele>166.2</ele>
        <time>2023-11-05T10:03:52Z</time>
      </trkpt>
      <trkpt lat="43.50881" lon="6.63417">
        <ele>166</ele>
        <time>2023-11-05T10:03:53Z</time>
      </trkpt>
      <trkpt lat="43.50882" lon="6.63418">
        <ele>166</ele>
        <time>2023-11-05T10:03:54Z</time>
      </trkpt>
      <trkpt lat="43.50883" lon="6.63419">
        <ele>166.1</ele>
        <time>2023-11-05T10:03:55Z</time>
      </trkpt>
      <trkpt lat="43.50884" lon="6.6342">
        <ele>166.2</ele>
        <time>2023-11-05T10:03:56Z</time>
      </trkpt>
      <trkpt lat="43.50885" lon="6.6342">
        <ele>166.2</ele>
        <time>2023-11-05T10:03:57Z</time>
      </trkpt>
      <trkpt lat="43.50886" lon="6.63421">
        <ele>165.9</ele>
        <time>2023-11-05T10:03:58Z</time>
      </trkpt>
      <trkpt lat="43.50887" lon="6.63422">
        <ele>165.4</ele>
        <time>2023-11-05T10:03:59Z</time>
      </trkpt>
      <trkpt lat="43.50887" lon="6.63423">
        <ele>165.1</ele>
        <time>2023-11-05T10:04:00Z</time>
      </trkpt>
      <trkpt lat="43.50888" lon="6.63424">
        <ele>164.7</ele>
        <time>2023-11-05T10:04:01Z</time>
      </trkpt>
      <trkpt lat="43.50889" lon="6.63425">
        <ele>164.5</ele>
        <time>2023-11-05T10:04:02Z</time>
      </trkpt>
      <trkpt lat="43.5089" lon="6.63425">
        <ele>164.3</ele>
        <time>2023-11-05T10:04:03Z</time>
      </trkpt>
      <trkpt lat="43.50891" lon="6.63426">
        <ele>164.2</ele>
        <time>2023-11-05T10:04:04Z</time>
      </trkpt>
      <trkpt lat="43.50892" lon="6.63426">
        <ele>164.2</ele>
        <time>2023-11-05T10:04:05Z</time>
      </trkpt>
      <trkpt lat="43.50893" lon="6.63427">
        <ele>164.1</ele>
        <time>2023-11-05T10:04:06Z</time>
      </trkpt>
      <trkpt lat="43.50894" lon="6.63428">
        <ele>164.1</ele>
        <time>2023-11-05T10:04:07Z</time>
      </trkpt>
      <trkpt lat="43.50895" lon="6.63429">
        <ele>164.1</ele>
        <time>2023-11-05T10:04:08Z</time>
      </trkpt>
      <trkpt lat="43.50896" lon="6.63431">
        <ele>163.9</ele>
        <time>2023-11-05T10:04:09Z</time>
      </trkpt>
      <trkpt lat="43.50897" lon="6.63431">
        <ele>163.7</ele>
        <time>2023-11-05T10:04:10Z</time>
      </trkpt>
      <trkpt lat="43.50897" lon="6.63432">
        <ele>163.6</ele>
        <time>2023-11-05T10:04:11Z</time>
      </trkpt>
      <trkpt lat="43.50898" lon="6.63433">
        <ele>163.5</ele>
        <time>2023-11-05T10:04:12Z</time>
      </trkpt>
      <trkpt lat="43.50899" lon="6.63433">
        <ele>163.5</ele>
        <time>2023-11-05T10:04:13Z</time>
      </trkpt>
      <trkpt lat="43.509" lon="6.63434">
        <ele>163.3</ele>
        <time>2023-11-05T10:04:14Z</time>
      </trkpt>
      <trkpt lat="43.50901" lon="6.63435">
        <ele>163</ele>
        <time>2023-11-05T10:04:15Z</time>
      </trkpt>
      <trkpt lat="43.50902" lon="6.63436">
        <ele>162.8</ele>
        <time>2023-11-05T10:04:16Z</time>
      </trkpt>
      <trkpt lat="43.50903" lon="6.63436">
        <ele>162.6</ele>
        <time>2023-11-05T10:04:17Z</time>
      </trkpt>
      <trkpt lat="43.50904" lon="6.63437">
        <ele>162.4</ele>
        <time>2023-11-05T10:04:18Z</time>
      </trkpt>
      <trkpt lat="43.50905" lon="6.63438">
        <ele>162.2</ele>
        <time>2023-11-05T10:04:19Z</time>
      </trkpt>
      <trkpt lat="43.50906" lon="6.63439">
        <ele>162.1</ele>
        <time>2023-11-05T10:04:20Z</time>
      </trkpt>
      <trkpt lat="43.50906" lon="6.6344">
        <ele>162</ele>
        <time>2023-11-05T10:04:21Z</time>
      </trkpt>
      <trkpt lat="43.50907" lon="6.63441">
        <ele>161.7</ele>
        <time>2023-11-05T10:04:22Z</time>
      </trkpt>
      <trkpt lat="43.50908" lon="6.63441">
        <ele>161.4</ele>
        <time>2023-11-05T10:04:23Z</time>
      </trkpt>
      <trkpt lat="43.50909" lon="6.63442">
        <ele>161</ele>
        <time>2023-11-05T10:04:24Z</time>
      </trkpt>
      <trkpt lat="43.5091" lon="6.63442">
        <ele>160.8</ele>
        <time>2023-11-05T10:04:25Z</time>
      </trkpt>
      <trkpt lat="43.50911" lon="6.63443">
        <ele>160.7</ele>
        <time>2023-11-05T10:04:26Z</time>
      </trkpt>
      <trkpt lat="43.50912" lon="6.63444">
        <ele>160.6</ele>
        <time>2023-11-05T10:04:27Z</time>
      </trkpt>
      <trkpt lat="43.50913" lon="6.63445">
        <ele>160.6</ele>
        <time>2023-11-05T10:04:28Z</time>
      </trkpt>
      <trkpt lat="43.50913" lon="6.63446">
        <ele>160.6</ele>
        <time>2023-11-05T10:04:29Z</time>
      </trkpt>
      <trkpt lat="43.50914" lon="6.63446">
        <ele>160.5</ele>
        <time>2023-11-05T10:04:30Z</time>
      </trkpt>
      <trkpt lat="43.50915" lon="6.63447">
        <ele>160.2</ele>
        <time>2023-11-05T10:04:31Z</time>
      </trkpt>
      <trkpt lat="43.50916" lon="6.63448">
        <ele>160</ele>
        <time>2023-11-05T10:04:32Z</time>
      </trkpt>
      <trkpt lat="43.50917" lon="6.63449">
        <ele>159.9</ele>
        <time>2023-11-05T10:04:33Z</time>
      </trkpt>
      <trkpt lat="43.50917" lon="6.6345">
        <ele>159.9</ele>
        <time>2023-11-05T10:04:34Z</time>
      </trkpt>
      <trkpt lat="43.50918" lon="6.63451">
        <ele>159.8</ele>
        <time>2023-11-05T10:04:35Z</time>
      </trkpt>
      <trkpt lat="43.50919" lon="6.63451">
        <ele>159.5</ele>
        <time>2023-11-05T10:04:36Z</time>
      </trkpt>
      <trkpt lat="43.5092" lon="6.63452">
        <ele>159.2</ele>
        <time>2023-11-05T10:04:37Z</time>
      </trkpt>
      <trkpt lat="43.50921" lon="6.63453">
        <ele>159.1</ele>
        <time>2023-11-05T10:04:38Z</time>
      </trkpt>
      <trkpt lat="43.50922" lon="6.63453">
        <ele>159</ele>
        <time>2023-11-05T10:04:39Z</time>
      </trkpt>
      <trkpt lat="43.50923" lon="6.63454">
        <ele>158.9</ele>
        <time>2023-11-05T10:04:40Z</time>
      </trkpt>
      <trkpt lat="43.50923" lon="6.63455">
        <ele>159</ele>
        <time>2023-11-05T10:04:41Z</time>
      </trkpt>
      <trkpt lat="43.50924" lon="6.63456">
        <ele>158.9</ele>
        <time>2023-11-05T10:04:42Z</time>
      </trkpt>
      <trkpt lat="43.50925" lon="6.63456">
        <ele>158.7</ele>
        <time>2023-11-05T10:04:43Z</time>
      </trkpt>
      <trkpt lat="43.50926" lon="6.63457">
        <ele>158.6</ele>
        <time>2023-11-05T10:04:44Z</time>
      </trkpt>
      <trkpt lat="43.50927" lon="6.63457">
        <ele>158.5</ele>
        <time>2023-11-05T10:04:45Z</time>
      </trkpt>
      <trkpt lat="43.50928" lon="6.63458">
        <ele>158.3</ele>
        <time>2023-11-05T10:04:46Z</time>
      </trkpt>
      <trkpt lat="43.50929" lon="6.63458">
        <ele>158.2</ele>
        <time>2023-11-05T10:04:47Z</time>
      </trkpt>
      <trkpt lat="43.5093" lon="6.63458">
        <ele>158.1</ele>
        <time>2023-11-05T10:04:48Z</time>
      </trkpt>
      <trkpt lat="43.50931" lon="6.63459">
        <ele>158</ele>
        <time>2023-11-05T10:04:49Z</time>
      </trkpt>
      <trkpt lat="43.50932" lon="6.63459">
        <ele>157.8</ele>
        <time>2023-11-05T10:04:50Z</time>
      </trkpt>
      <trkpt lat="43.50933" lon="6.6346">
        <ele>157.8</ele>
        <time>2023-11-05T10:04:51Z</time>
      </trkpt>
      <trkpt lat="43.50933" lon="6.6346">
        <ele>157.6</ele>
        <time>2023-11-05T10:04:52Z</time>
      </trkpt>
      <trkpt lat="43.50934" lon="6.6346">
        <ele>157.5</ele>
        <time>2023-11-05T10:04:53Z</time>
      </trkpt>
      <trkpt lat="43.50935" lon="6.63459">
        <ele>157.5</ele>
        <time>2023-11-05T10:04:54Z</time>
      </trkpt>
      <trkpt lat="43.50935" lon="6.63458">
        <ele>157.4</ele>
        <time>2023-11-05T10:04:55Z</time>
      </trkpt>
      <trkpt lat="43.50935" lon="6.63458">
        <ele>157.4</ele>
        <time>2023-11-05T10:04:56Z</time>
      </trkpt>
      <trkpt lat="43.50935" lon="6.63457">
        <ele>157.3</ele>
        <time>2023-11-05T10:04:57Z</time>
      </trkpt>
      <trkpt lat="43.50935" lon="6.63457">
        <ele>157.1</ele>
        <time>2023-11-05T10:04:58Z</time>
      </trkpt>
      <trkpt lat="43.50935" lon="6.63457">
        <ele>157</ele>
        <time>2023-11-05T10:04:59Z</time>
      </trkpt>
      <trkpt lat="43.50935" lon="6.63457">
        <ele>157</ele>
        <time>2023-11-05T10:05:00Z</time>
      </trkpt>
      <trkpt lat="43.50935" lon="6.63457">
        <ele>157</ele>
        <time>2023-11-05T10:05:01Z</time>
      </trkpt>
      <trkpt lat="43.50935" lon="6.63457">
        <ele>157</ele>
        <time>2023-11-05T10:05:02Z</time>
      </trkpt>
      <trkpt lat="43.50935" lon="6.63457">
        <ele>157.1</ele>
        <time>2023-11-05T10:05:03Z</time>
      </trkpt>
      <trkpt lat="43.50935" lon="6.63457">
        <ele>157.1</ele>
        <time>2023-11-05T10:05:04Z</time>
      </trkpt>
      <trkpt lat="43.50935" lon="6.63457">
        <ele>157.2</ele>
        <time>2023-11-05T10:05:05Z</time>
      </trkpt>
      <trkpt lat="43.50935" lon="6.63457">
        <ele>157.3</ele>
        <time>2023-11-05T10:05:06Z</time>
      </trkpt>
      <trkpt lat="43.50935" lon="6.63457">
        <ele>157.3</ele>
        <time>2023-11-05T10:05:07Z</time>
      </trkpt>
      <trkpt lat="43.50935" lon="6.63457">
        <ele>157.3</ele>
        <time>2023-11-05T10:05:08Z</time>
      </trkpt>
      <trkpt lat="43.50935" lon="6.63457">
        <ele>157.4</ele>
        <time>2023-11-05T10:05:09Z</time>
      </trkpt>
      <trkpt lat="43.50935" lon="6.63457">
        <ele>157.4</ele>
        <time>2023-11-05T10:05:10Z</time>
      </trkpt>
      <trkpt lat="43.50935" lon="6.63457">
        <ele>157.4</ele>
        <time>2023-11-05T10:05:11Z</time>
      </trkpt>
      <trkpt lat="43.50935" lon="6.63457">
        <ele>157.3</ele>
        <time>2023-11-05T10:05:12Z</time>
      </trkpt>
      <trkpt lat="43.50935" lon="6.63457">
        <ele>157.3</ele>
        <time>2023-11-05T10:05:13Z</time>
      </trkpt>
      <trkpt lat="43.50935" lon="6.63457">
        <ele>157.3</ele>
        <time>2023-11-05T10:05:14Z</time>
      </trkpt>
      <trkpt lat="43.50935" lon="6.63457">
        <ele>157.3</ele>
        <time>2023-11-05T10:05:15Z</time>
      </trkpt>
      <trkpt lat="43.50935" lon="6.63458">
        <ele>157.4</ele>
        <time>2023-11-05T10:05:16Z</time>
      </trkpt>
      <trkpt lat="43.50935" lon="6.63457">
        <ele>157.4</ele>
        <time>2023-11-05T10:05:17Z</time>
      </trkpt>
      <trkpt lat="43.50935" lon="6.63457">
        <ele>157.4</ele>
        <time>2023-11-05T10:05:18Z</time>
      </trkpt>
      <trkpt lat="43.50935" lon="6.63457">
        <ele>157.5</ele>
        <time>2023-11-05T10:05:19Z</time>
      </trkpt>
      <trkpt lat="43.50935" lon="6.63457">
        <ele>157.5</ele>
        <time>2023-11-05T10:05:20Z</time>
      </trkpt>
      <trkpt lat="43.50935" lon="6.63457">
        <ele>157.6</ele>
        <time>2023-11-05T10:05:21Z</time>
      </trkpt>
      <trkpt lat="43.50935" lon="6.63457">
        <ele>157.6</ele>
        <time>2023-11-05T10:05:22Z</time>
      </trkpt>
      <trkpt lat="43.50935" lon="6.63457">
        <ele>157.5</ele>
        <time>2023-11-05T10:05:23Z</time>
      </trkpt>
      <trkpt lat="43.50935" lon="6.63457">
        <ele>157.4</ele>
        <time>2023-11-05T10:05:24Z</time>
      </trkpt>
      <trkpt lat="43.50935" lon="6.63458">
        <ele>157.3</ele>
        <time>2023-11-05T10:05:25Z</time>
      </trkpt>
      <trkpt lat="43.50935" lon="6.63458">
        <ele>157.3</ele>
        <time>2023-11-05T10:05:26Z</time>
      </trkpt>
      <trkpt lat="43.50935" lon="6.63458">
        <ele>157.3</ele>
        <time>2023-11-05T10:05:27Z</time>
      </trkpt>
      <trkpt lat="43.50935" lon="6.63458">
        <ele>157.3</ele>
        <time>2023-11-05T10:05:28Z</time>
      </trkpt>
      <trkpt lat="43.50935" lon="6.63458">
        <ele>157.3</ele>
        <time>2023-11-05T10:05:29Z</time>
      </trkpt>
      <trkpt lat="43.50936" lon="6.63458">
        <ele>157.3</ele>
        <time>2023-11-05T10:05:30Z</time>
      </trkpt>
      <trkpt lat="43.50936" lon="6.63458">
        <ele>157.3</ele>
        <time>2023-11-05T10:05:31Z</time>
      </trkpt>
      <trkpt lat="43.50936" lon="6.63458">
        <ele>157.4</ele>
        <time>2023-11-05T10:05:32Z</time>
      </trkpt>
      <trkpt lat="43.50936" lon="6.63458">
        <ele>157.4</ele>
        <time>2023-11-05T10:05:33Z</time>
      </trkpt>
      <trkpt lat="43.50936" lon="6.63458">
        <ele>157.5</ele>
        <time>2023-11-05T10:05:34Z</time>
      </trkpt>
      <trkpt lat="43.50936" lon="6.63458">
        <ele>157.5</ele>
        <time>2023-11-05T10:05:35Z</time>
      </trkpt>
      <trkpt lat="43.50936" lon="6.63458">
        <ele>157.5</ele>
        <time>2023-11-05T10:05:36Z</time>
      </trkpt>
      <trkpt lat="43.50936" lon="6.63458">
        <ele>157.6</ele>
        <time>2023-11-05T10:05:37Z</time>
      </trkpt>
      <trkpt lat="43.50936" lon="6.63458">
        <ele>157.6</ele>
        <time>2023-11-05T10:05:38Z</time>
      </trkpt>
      <trkpt lat="43.50936" lon="6.63458">
        <ele>157.5</ele>
        <time>2023-11-05T10:05:39Z</time>
      </trkpt>
      <trkpt lat="43.50936" lon="6.63458">
        <ele>157.5</ele>
        <time>2023-11-05T10:05:40Z</time>
      </trkpt>
      <trkpt lat="43.50936" lon="6.63458">
        <ele>157.5</ele>
        <time>2023-11-05T10:05:41Z</time>
      </trkpt>
      <trkpt lat="43.50937" lon="6.63458">
        <ele>157.4</ele>
        <time>2023-11-05T10:05:42Z</time>
      </trkpt>
      <trkpt lat="43.50936" lon="6.63458">
        <ele>157.4</ele>
        <time>2023-11-05T10:05:43Z</time>
      </trkpt>
      <trkpt lat="43.50936" lon="6.63458">
        <ele>157.4</ele>
        <time>2023-11-05T10:05:44Z</time>
      </trkpt>
      <trkpt lat="43.50936" lon="6.63458">
        <ele>157.5</ele>
        <time>2023-11-05T10:05:45Z</time>
      </trkpt>
      <trkpt lat="43.50936" lon="6.63458">
        <ele>157.5</ele>
        <time>2023-11-05T10:05:46Z</time>
      </trkpt>
      <trkpt lat="43.50937" lon="6.63458">
        <ele>157.5</ele>
        <time>2023-11-05T10:05:47Z</time>
      </trkpt>
      <trkpt lat="43.50937" lon="6.63458">
        <ele>157.6</ele>
        <time>2023-11-05T10:05:48Z</time>
      </trkpt>
      <trkpt lat="43.50937" lon="6.63458">
        <ele>157.7</ele>
        <time>2023-11-05T10:05:49Z</time>
      </trkpt>
      <trkpt lat="43.50937" lon="6.63457">
        <ele>157.7</ele>
        <time>2023-11-05T10:05:50Z</time>
      </trkpt>
      <trkpt lat="43.50937" lon="6.63456">
        <ele>157.7</ele>
        <time>2023-11-05T10:05:51Z</time>
      </trkpt>
      <trkpt lat="43.50936" lon="6.63456">
        <ele>157.7</ele>
        <time>2023-11-05T10:05:52Z</time>
      </trkpt>
      <trkpt lat="43.50935" lon="6.63455">
        <ele>157.5</ele>
        <time>2023-11-05T10:05:53Z</time>
      </trkpt>
      <trkpt lat="43.50935" lon="6.63455">
        <ele>157.4</ele>
        <time>2023-11-05T10:05:54Z</time>
      </trkpt>
      <trkpt lat="43.50935" lon="6.63455">
        <ele>157.3</ele>
        <time>2023-11-05T10:05:55Z</time>
      </trkpt>
      <trkpt lat="43.50935" lon="6.63454">
        <ele>157.3</ele>
        <time>2023-11-05T10:05:56Z</time>
      </trkpt>
      <trkpt lat="43.50935" lon="6.63453">
        <ele>157.2</ele>
        <time>2023-11-05T10:05:57Z</time>
      </trkpt>
      <trkpt lat="43.50935" lon="6.63452">
        <ele>157.1</ele>
        <time>2023-11-05T10:05:58Z</time>
      </trkpt>
      <trkpt lat="43.50935" lon="6.63452">
        <ele>157</ele>
        <time>2023-11-05T10:05:59Z</time>
      </trkpt>
      <trkpt lat="43.50935" lon="6.63452">
        <ele>156.9</ele>
        <time>2023-11-05T10:06:00Z</time>
      </trkpt>
      <trkpt lat="43.50935" lon="6.63451">
        <ele>156.8</ele>
        <time>2023-11-05T10:06:01Z</time>
      </trkpt>
      <trkpt lat="43.50935" lon="6.6345">
        <ele>156.7</ele>
        <time>2023-11-05T10:06:02Z</time>
      </trkpt>
      <trkpt lat="43.50935" lon="6.6345">
        <ele>156.6</ele>
        <time>2023-11-05T10:06:03Z</time>
      </trkpt>
      <trkpt lat="43.50935" lon="6.63449">
        <ele>156.6</ele>
        <time>2023-11-05T10:06:04Z</time>
      </trkpt>
      <trkpt lat="43.50935" lon="6.63447">
        <ele>156.4</ele>
        <time>2023-11-05T10:06:05Z</time>
      </trkpt>
      <trkpt lat="43.50934" lon="6.63446">
        <ele>156.3</ele>
        <time>2023-11-05T10:06:06Z</time>
      </trkpt>
      <trkpt lat="43.50934" lon="6.63445">
        <ele>156.2</ele>
        <time>2023-11-05T10:06:07Z</time>
      </trkpt>
      <trkpt lat="43.50934" lon="6.63444">
        <ele>156.1</ele>
        <time>2023-11-05T10:06:08Z</time>
      </trkpt>
      <trkpt lat="43.50934" lon="6.63442">
        <ele>156</ele>
        <time>2023-11-05T10:06:09Z</time>
      </trkpt>
      <trkpt lat="43.50934" lon="6.63441">
        <ele>155.9</ele>
        <time>2023-11-05T10:06:10Z</time>
      </trkpt>
      <trkpt lat="43.50933" lon="6.6344">
        <ele>155.9</ele>
        <time>2023-11-05T10:06:11Z</time>
      </trkpt>
      <trkpt lat="43.50933" lon="6.63439">
        <ele>155.8</ele>
        <time>2023-11-05T10:06:12Z</time>
      </trkpt>
      <trkpt lat="43.50933" lon="6.63439">
        <ele>155.7</ele>
        <time>2023-11-05T10:06:13Z</time>
      </trkpt>
      <trkpt lat="43.50932" lon="6.63438">
        <ele>155.6</ele>
        <time>2023-11-05T10:06:14Z</time>
      </trkpt>
      <trkpt lat="43.50932" lon="6.63437">
        <ele>155.5</ele>
        <time>2023-11-05T10:06:15Z</time>
      </trkpt>
      <trkpt lat="43.50932" lon="6.63436">
        <ele>155.4</ele>
        <time>2023-11-05T10:06:16Z</time>
      </trkpt>
      <trkpt lat="43.50931" lon="6.63436">
        <ele>155.2</ele>
        <time>2023-11-05T10:06:17Z</time>
      </trkpt>
      <trkpt lat="43.50931" lon="6.63435">
        <ele>155</ele>
        <time>2023-11-05T10:06:18Z</time>
      </trkpt>
      <trkpt lat="43.50931" lon="6.63434">
        <ele>154.9</ele>
        <time>2023-11-05T10:06:19Z</time>
      </trkpt>
      <trkpt lat="43.50932" lon="6.63433">
        <ele>154.7</ele>
        <time>2023-11-05T10:06:20Z</time>
      </trkpt>
      <trkpt lat="43.50932" lon="6.63432">
        <ele>154.5</ele>
        <time>2023-11-05T10:06:21Z</time>
      </trkpt>
      <trkpt lat="43.50933" lon="6.63431">
        <ele>154.4</ele>
        <time>2023-11-05T10:06:22Z</time>
      </trkpt>
      <trkpt lat="43.50933" lon="6.6343">
        <ele>154.2</ele>
        <time>2023-11-05T10:06:23Z</time>
      </trkpt>
      <trkpt lat="43.50933" lon="6.63429">
        <ele>154.1</ele>
        <time>2023-11-05T10:06:24Z</time>
      </trkpt>
      <trkpt lat="43.50933" lon="6.63428">
        <ele>154</ele>
        <time>2023-11-05T10:06:25Z</time>
      </trkpt>
      <trkpt lat="43.50932" lon="6.63427">
        <ele>154</ele>
        <time>2023-11-05T10:06:26Z</time>
      </trkpt>
      <trkpt lat="43.50933" lon="6.63427">
        <ele>153.9</ele>
        <time>2023-11-05T10:06:27Z</time>
      </trkpt>
      <trkpt lat="43.50933" lon="6.63426">
        <ele>153.8</ele>
        <time>2023-11-05T10:06:28Z</time>
      </trkpt>
      <trkpt lat="43.50933" lon="6.63424">
        <ele>153.6</ele>
        <time>2023-11-05T10:06:29Z</time>
      </trkpt>
      <trkpt lat="43.50933" lon="6.63423">
        <ele>153.6</ele>
        <time>2023-11-05T10:06:30Z</time>
      </trkpt>
      <trkpt lat="43.50933" lon="6.63422">
        <ele>153.5</ele>
        <time>2023-11-05T10:06:31Z</time>
      </trkpt>
      <trkpt lat="43.50933" lon="6.63421">
        <ele>153.5</ele>
        <time>2023-11-05T10:06:32Z</time>
      </trkpt>
      <trkpt lat="43.50933" lon="6.63419">
        <ele>153.4</ele>
        <time>2023-11-05T10:06:33Z</time>
      </trkpt>
      <trkpt lat="43.50933" lon="6.63418">
        <ele>153.3</ele>
        <time>2023-11-05T10:06:34Z</time>
      </trkpt>
      <trkpt lat="43.50934" lon="6.63417">
        <ele>153.1</ele>
        <time>2023-11-05T10:06:35Z</time>
      </trkpt>
      <trkpt lat="43.50934" lon="6.63416">
        <ele>152.9</ele>
        <time>2023-11-05T10:06:36Z</time>
      </trkpt>
      <trkpt lat="43.50933" lon="6.63414">
        <ele>152.7</ele>
        <time>2023-11-05T10:06:37Z</time>
      </trkpt>
      <trkpt lat="43.50933" lon="6.63413">
        <ele>152.5</ele>
        <time>2023-11-05T10:06:38Z</time>
      </trkpt>
      <trkpt lat="43.50933" lon="6.63413">
        <ele>152.4</ele>
        <time>2023-11-05T10:06:39Z</time>
      </trkpt>
      <trkpt lat="43.50933" lon="6.63412">
        <ele>152.1</ele>
        <time>2023-11-05T10:06:40Z</time>
      </trkpt>
      <trkpt lat="43.50933" lon="6.6341">
        <ele>151.9</ele>
        <time>2023-11-05T10:06:41Z</time>
      </trkpt>
      <trkpt lat="43.50933" lon="6.63409">
        <ele>151.7</ele>
        <time>2023-11-05T10:06:42Z</time>
      </trkpt>
      <trkpt lat="43.50933" lon="6.63408">
        <ele>151.6</ele>
        <time>2023-11-05T10:06:43Z</time>
      </trkpt>
      <trkpt lat="43.50932" lon="6.63408">
        <ele>151.5</ele>
        <time>2023-11-05T10:06:44Z</time>
      </trkpt>
      <trkpt lat="43.50933" lon="6.63407">
        <ele>151.4</ele>
        <time>2023-11-05T10:06:45Z</time>
      </trkpt>
      <trkpt lat="43.50932" lon="6.63406">
        <ele>151.2</ele>
        <time>2023-11-05T10:06:46Z</time>
      </trkpt>
      <trkpt lat="43.50932" lon="6.63405">
        <ele>151</ele>
        <time>2023-11-05T10:06:47Z</time>
      </trkpt>
      <trkpt lat="43.50932" lon="6.63404">
        <ele>150.8</ele>
        <time>2023-11-05T10:06:48Z</time>
      </trkpt>
      <trkpt lat="43.50932" lon="6.63403">
        <ele>150.5</ele>
        <time>2023-11-05T10:06:49Z</time>
      </trkpt>
      <trkpt lat="43.50932" lon="6.63402">
        <ele>150.3</ele>
        <time>2023-11-05T10:06:50Z</time>
      </trkpt>
      <trkpt lat="43.50932" lon="6.63401">
        <ele>150</ele>
        <time>2023-11-05T10:06:51Z</time>
      </trkpt>
      <trkpt lat="43.50932" lon="6.634">
        <ele>149.6</ele>
        <time>2023-11-05T10:06:52Z</time>
      </trkpt>
      <trkpt lat="43.50932" lon="6.63399">
        <ele>149.5</ele>
        <time>2023-11-05T10:06:53Z</time>
      </trkpt>
      <trkpt lat="43.50932" lon="6.63397">
        <ele>149.3</ele>
        <time>2023-11-05T10:06:54Z</time>
      </trkpt>
      <trkpt lat="43.50932" lon="6.63396">
        <ele>149.2</ele>
        <time>2023-11-05T10:06:55Z</time>
      </trkpt>
      <trkpt lat="43.50932" lon="6.63395">
        <ele>149.1</ele>
        <time>2023-11-05T10:06:56Z</time>
      </trkpt>
      <trkpt lat="43.50932" lon="6.63394">
        <ele>149</ele>
        <time>2023-11-05T10:06:57Z</time>
      </trkpt>
      <trkpt lat="43.50932" lon="6.63393">
        <ele>149.3</ele>
        <time>2023-11-05T10:06:58Z</time>
      </trkpt>
      <trkpt lat="43.50932" lon="6.63391">
        <ele>149.6</ele>
        <time>2023-11-05T10:06:59Z</time>
      </trkpt>
      <trkpt lat="43.50931" lon="6.6339">
        <ele>149.7</ele>
        <time>2023-11-05T10:07:00Z</time>
      </trkpt>
      <trkpt lat="43.50931" lon="6.63389">
        <ele>149.5</ele>
        <time>2023-11-05T10:07:01Z</time>
      </trkpt>
      <trkpt lat="43.50931" lon="6.63387">
        <ele>149.4</ele>
        <time>2023-11-05T10:07:02Z</time>
      </trkpt>
      <trkpt lat="43.50931" lon="6.63386">
        <ele>149.4</ele>
        <time>2023-11-05T10:07:03Z</time>
      </trkpt>
      <trkpt lat="43.50931" lon="6.63385">
        <ele>149.3</ele>
        <time>2023-11-05T10:07:04Z</time>
      </trkpt>
      <trkpt lat="43.50931" lon="6.63384">
        <ele>149.2</ele>
        <time>2023-11-05T10:07:05Z</time>
      </trkpt>
      <trkpt lat="43.50932" lon="6.63383">
        <ele>149</ele>
        <time>2023-11-05T10:07:06Z</time>
      </trkpt>
      <trkpt lat="43.50932" lon="6.63382">
        <ele>148.6</ele>
        <time>2023-11-05T10:07:07Z</time>
      </trkpt>
      <trkpt lat="43.50932" lon="6.63381">
        <ele>148.6</ele>
        <time>2023-11-05T10:07:08Z</time>
      </trkpt>
      <trkpt lat="43.50931" lon="6.63379">
        <ele>148.5</ele>
        <time>2023-11-05T10:07:09Z</time>
      </trkpt>
      <trkpt lat="43.50931" lon="6.63378">
        <ele>148.3</ele>
        <time>2023-11-05T10:07:10Z</time>
      </trkpt>
      <trkpt lat="43.50931" lon="6.63377">
        <ele>148.2</ele>
        <time>2023-11-05T10:07:11Z</time>
      </trkpt>
      <trkpt lat="43.5093" lon="6.63375">
        <ele>148.1</ele>
        <time>2023-11-05T10:07:12Z</time>
      </trkpt>
      <trkpt lat="43.5093" lon="6.63374">
        <ele>148.1</ele>
        <time>2023-11-05T10:07:13Z</time>
      </trkpt>
      <trkpt lat="43.5093" lon="6.63373">
        <ele>148.1</ele>
        <time>2023-11-05T10:07:14Z</time>
      </trkpt>
      <trkpt lat="43.50929" lon="6.63372">
        <ele>148.4</ele>
        <time>2023-11-05T10:07:15Z</time>
      </trkpt>
      <trkpt lat="43.50929" lon="6.63371">
        <ele>148.3</ele>
        <time>2023-11-05T10:07:16Z</time>
      </trkpt>
      <trkpt lat="43.50929" lon="6.63369">
        <ele>148.2</ele>
        <time>2023-11-05T10:07:17Z</time>
      </trkpt>
      <trkpt lat="43.50929" lon="6.63368">
        <ele>148.2</ele>
        <time>2023-11-05T10:07:18Z</time>
      </trkpt>
      <trkpt lat="43.50929" lon="6.63367">
        <ele>148.2</ele>
        <time>2023-11-05T10:07:19Z</time>
      </trkpt>
      <trkpt lat="43.50929" lon="6.63366">
        <ele>148.2</ele>
        <time>2023-11-05T10:07:20Z</time>
      </trkpt>
      <trkpt lat="43.50929" lon="6.63365">
        <ele>148.3</ele>
        <time>2023-11-05T10:07:21Z</time>
      </trkpt>
      <trkpt lat="43.50929" lon="6.63364">
        <ele>148.4</ele>
        <time>2023-11-05T10:07:22Z</time>
      </trkpt>
      <trkpt lat="43.50929" lon="6.63362">
        <ele>148.3</ele>
        <time>2023-11-05T10:07:23Z</time>
      </trkpt>
      <trkpt lat="43.50929" lon="6.63362">
        <ele>148.4</ele>
        <time>2023-11-05T10:07:24Z</time>
      </trkpt>
      <trkpt lat="43.50928" lon="6.63361">
        <ele>148.4</ele>
        <time>2023-11-05T10:07:25Z</time>
      </trkpt>
      <trkpt lat="43.50928" lon="6.6336">
        <ele>148.5</ele>
        <time>2023-11-05T10:07:26Z</time>
      </trkpt>
      <trkpt lat="43.50929" lon="6.63359">
        <ele>148.5</ele>
        <time>2023-11-05T10:07:27Z</time>
      </trkpt>
      <trkpt lat="43.50928" lon="6.63358">
        <ele>148.4</ele>
        <time>2023-11-05T10:07:28Z</time>
      </trkpt>
      <trkpt lat="43.50929" lon="6.63356">
        <ele>148.2</ele>
        <time>2023-11-05T10:07:29Z</time>
      </trkpt>
      <trkpt lat="43.50928" lon="6.63355">
        <ele>148.1</ele>
        <time>2023-11-05T10:07:30Z</time>
      </trkpt>
      <trkpt lat="43.50929" lon="6.63354">
        <ele>148</ele>
        <time>2023-11-05T10:07:31Z</time>
      </trkpt>
      <trkpt lat="43.50929" lon="6.63353">
        <ele>148.1</ele>
        <time>2023-11-05T10:07:32Z</time>
      </trkpt>
      <trkpt lat="43.50929" lon="6.63353">
        <ele>148</ele>
        <time>2023-11-05T10:07:33Z</time>
      </trkpt>
      <trkpt lat="43.50929" lon="6.63353">
        <ele>148.1</ele>
        <time>2023-11-05T10:07:34Z</time>
      </trkpt>
      <trkpt lat="43.50929" lon="6.63352">
        <ele>147.9</ele>
        <time>2023-11-05T10:07:35Z</time>
      </trkpt>
      <trkpt lat="43.50929" lon="6.63351">
        <ele>147.7</ele>
        <time>2023-11-05T10:07:36Z</time>
      </trkpt>
      <trkpt lat="43.50928" lon="6.63351">
        <ele>147.4</ele>
        <time>2023-11-05T10:07:37Z</time>
      </trkpt>
      <trkpt lat="43.50928" lon="6.6335">
        <ele>147.1</ele>
        <time>2023-11-05T10:07:38Z</time>
      </trkpt>
      <trkpt lat="43.50928" lon="6.63349">
        <ele>146.9</ele>
        <time>2023-11-05T10:07:39Z</time>
      </trkpt>
      <trkpt lat="43.50928" lon="6.63349">
        <ele>146.7</ele>
        <time>2023-11-05T10:07:40Z</time>
      </trkpt>
      <trkpt lat="43.50928" lon="6.63348">
        <ele>146.6</ele>
        <time>2023-11-05T10:07:41Z</time>
      </trkpt>
      <trkpt lat="43.50927" lon="6.63347">
        <ele>146.5</ele>
        <time>2023-11-05T10:07:42Z</time>
      </trkpt>
      <trkpt lat="43.50928" lon="6.63346">
        <ele>146.4</ele>
        <time>2023-11-05T10:07:43Z</time>
      </trkpt>
      <trkpt lat="43.50928" lon="6.63346">
        <ele>146.3</ele>
        <time>2023-11-05T10:07:44Z</time>
      </trkpt>
      <trkpt lat="43.50928" lon="6.63344">
        <ele>146.2</ele>
        <time>2023-11-05T10:07:45Z</time>
      </trkpt>
      <trkpt lat="43.50928" lon="6.63343">
        <ele>146.1</ele>
        <time>2023-11-05T10:07:46Z</time>
      </trkpt>
      <trkpt lat="43.50928" lon="6.63342">
        <ele>146</ele>
        <time>2023-11-05T10:07:47Z</time>
      </trkpt>
      <trkpt lat="43.50928" lon="6.63341">
        <ele>145.9</ele>
        <time>2023-11-05T10:07:48Z</time>
      </trkpt>
      <trkpt lat="43.50929" lon="6.6334">
        <ele>145.9</ele>
        <time>2023-11-05T10:07:49Z</time>
      </trkpt>
      <trkpt lat="43.50929" lon="6.63338">
        <ele>145.8</ele>
        <time>2023-11-05T10:07:50Z</time>
      </trkpt>
      <trkpt lat="43.50929" lon="6.63337">
        <ele>145.7</ele>
        <time>2023-11-05T10:07:51Z</time>
      </trkpt>
      <trkpt lat="43.50929" lon="6.63336">
        <ele>145.7</ele>
        <time>2023-11-05T10:07:52Z</time>
      </trkpt>
      <trkpt lat="43.50928" lon="6.63335">
        <ele>145.6</ele>
        <time>2023-11-05T10:07:53Z</time>
      </trkpt>
      <trkpt lat="43.50929" lon="6.63334">
        <ele>145.5</ele>
        <time>2023-11-05T10:07:54Z</time>
      </trkpt>
      <trkpt lat="43.50929" lon="6.63333">
        <ele>145.4</ele>
        <time>2023-11-05T10:07:55Z</time>
      </trkpt>
      <trkpt lat="43.50929" lon="6.63332">
        <ele>145.4</ele>
        <time>2023-11-05T10:07:56Z</time>
      </trkpt>
      <trkpt lat="43.50928" lon="6.63331">
        <ele>145.2</ele>
        <time>2023-11-05T10:07:57Z</time>
      </trkpt>
      <trkpt lat="43.50928" lon="6.6333">
        <ele>145.2</ele>
        <time>2023-11-05T10:07:58Z</time>
      </trkpt>
      <trkpt lat="43.50928" lon="6.63329">
        <ele>145.1</ele>
        <time>2023-11-05T10:07:59Z</time>
      </trkpt>
      <trkpt lat="43.50929" lon="6.63328">
        <ele>145.1</ele>
        <time>2023-11-05T10:08:00Z</time>
      </trkpt>
      <trkpt lat="43.50929" lon="6.63327">
        <ele>145</ele>
        <time>2023-11-05T10:08:01Z</time>
      </trkpt>
      <trkpt lat="43.50929" lon="6.63325">
        <ele>145</ele>
        <time>2023-11-05T10:08:02Z</time>
      </trkpt>
      <trkpt lat="43.50929" lon="6.63324">
        <ele>144.8</ele>
        <time>2023-11-05T10:08:03Z</time>
      </trkpt>
      <trkpt lat="43.50929" lon="6.63323">
        <ele>144.7</ele>
        <time>2023-11-05T10:08:04Z</time>
      </trkpt>
      <trkpt lat="43.50929" lon="6.63322">
        <ele>144.6</ele>
        <time>2023-11-05T10:08:05Z</time>
      </trkpt>
      <trkpt lat="43.50929" lon="6.6332">
        <ele>144.6</ele>
        <time>2023-11-05T10:08:06Z</time>
      </trkpt>
      <trkpt lat="43.50929" lon="6.63319">
        <ele>144.6</ele>
        <time>2023-11-05T10:08:07Z</time>
      </trkpt>
      <trkpt lat="43.50929" lon="6.63318">
        <ele>144.5</ele>
        <time>2023-11-05T10:08:08Z</time>
      </trkpt>
      <trkpt lat="43.50929" lon="6.63317">
        <ele>144.6</ele>
        <time>2023-11-05T10:08:09Z</time>
      </trkpt>
      <trkpt lat="43.50929" lon="6.63316">
        <ele>144.6</ele>
        <time>2023-11-05T10:08:10Z</time>
      </trkpt>
      <trkpt lat="43.50929" lon="6.63315">
        <ele>144.4</ele>
        <time>2023-11-05T10:08:11Z</time>
      </trkpt>
      <trkpt lat="43.50929" lon="6.63314">
        <ele>144.2</ele>
        <time>2023-11-05T10:08:12Z</time>
      </trkpt>
      <trkpt lat="43.50929" lon="6.63313">
        <ele>144.1</ele>
        <time>2023-11-05T10:08:13Z</time>
      </trkpt>
      <trkpt lat="43.50929" lon="6.63312">
        <ele>144</ele>
        <time>2023-11-05T10:08:14Z</time>
      </trkpt>
      <trkpt lat="43.50928" lon="6.6331">
        <ele>143.8</ele>
        <time>2023-11-05T10:08:15Z</time>
      </trkpt>
      <trkpt lat="43.50928" lon="6.6331">
        <ele>143.8</ele>
        <time>2023-11-05T10:08:16Z</time>
      </trkpt>
      <trkpt lat="43.50928" lon="6.63309">
        <ele>143.5</ele>
        <time>2023-11-05T10:08:17Z</time>
      </trkpt>
      <trkpt lat="43.50928" lon="6.63308">
        <ele>143.4</ele>
        <time>2023-11-05T10:08:18Z</time>
      </trkpt>
      <trkpt lat="43.50928" lon="6.63307">
        <ele>143.2</ele>
        <time>2023-11-05T10:08:19Z</time>
      </trkpt>
      <trkpt lat="43.50928" lon="6.63307">
        <ele>142.9</ele>
        <time>2023-11-05T10:08:20Z</time>
      </trkpt>
      <trkpt lat="43.50928" lon="6.63306">
        <ele>142.7</ele>
        <time>2023-11-05T10:08:21Z</time>
      </trkpt>
      <trkpt lat="43.50927" lon="6.63306">
        <ele>142.3</ele>
        <time>2023-11-05T10:08:22Z</time>
      </trkpt>
      <trkpt lat="43.50928" lon="6.63305">
        <ele>142.1</ele>
        <time>2023-11-05T10:08:23Z</time>
      </trkpt>
      <trkpt lat="43.50928" lon="6.63304">
        <ele>142</ele>
        <time>2023-11-05T10:08:24Z</time>
      </trkpt>
      <trkpt lat="43.50928" lon="6.63303">
        <ele>141.9</ele>
        <time>2023-11-05T10:08:25Z</time>
      </trkpt>
      <trkpt lat="43.50928" lon="6.63302">
        <ele>141.7</ele>
        <time>2023-11-05T10:08:26Z</time>
      </trkpt>
      <trkpt lat="43.50928" lon="6.63301">
        <ele>141.6</ele>
        <time>2023-11-05T10:08:27Z</time>
      </trkpt>
      <trkpt lat="43.50928" lon="6.633">
        <ele>141.4</ele>
        <time>2023-11-05T10:08:28Z</time>
      </trkpt>
      <trkpt lat="43.50928" lon="6.63299">
        <ele>141.3</ele>
        <time>2023-11-05T10:08:29Z</time>
      </trkpt>
      <trkpt lat="43.50927" lon="6.63298">
        <ele>141.3</ele>
        <time>2023-11-05T10:08:30Z</time>
      </trkpt>
      <trkpt lat="43.50927" lon="6.63297">
        <ele>141.1</ele>
        <time>2023-11-05T10:08:31Z</time>
      </trkpt>
      <trkpt lat="43.50926" lon="6.63297">
        <ele>140.8</ele>
        <time>2023-11-05T10:08:32Z</time>
      </trkpt>
      <trkpt lat="43.50925" lon="6.63296">
        <ele>140.6</ele>
        <time>2023-11-05T10:08:33Z</time>
      </trkpt>
      <trkpt lat="43.50925" lon="6.63295">
        <ele>140.5</ele>
        <time>2023-11-05T10:08:34Z</time>
      </trkpt>
      <trkpt lat="43.50925" lon="6.63293">
        <ele>140.3</ele>
        <time>2023-11-05T10:08:35Z</time>
      </trkpt>
      <trkpt lat="43.50924" lon="6.63292">
        <ele>140.3</ele>
        <time>2023-11-05T10:08:36Z</time>
      </trkpt>
      <trkpt lat="43.50924" lon="6.63291">
        <ele>140.3</ele>
        <time>2023-11-05T10:08:37Z</time>
      </trkpt>
      <trkpt lat="43.50924" lon="6.6329">
        <ele>140.3</ele>
        <time>2023-11-05T10:08:38Z</time>
      </trkpt>
      <trkpt lat="43.50924" lon="6.63289">
        <ele>140.2</ele>
        <time>2023-11-05T10:08:39Z</time>
      </trkpt>
      <trkpt lat="43.50923" lon="6.63288">
        <ele>140</ele>
        <time>2023-11-05T10:08:40Z</time>
      </trkpt>
      <trkpt lat="43.50923" lon="6.63287">
        <ele>139.8</ele>
        <time>2023-11-05T10:08:41Z</time>
      </trkpt>
      <trkpt lat="43.50922" lon="6.63286">
        <ele>139.8</ele>
        <time>2023-11-05T10:08:42Z</time>
      </trkpt>
      <trkpt lat="43.50922" lon="6.63286">
        <ele>139.1</ele>
        <time>2023-11-05T10:08:43Z</time>
      </trkpt>
      <trkpt lat="43.50922" lon="6.63285">
        <ele>138.7</ele>
        <time>2023-11-05T10:08:44Z</time>
      </trkpt>
      <trkpt lat="43.50922" lon="6.63284">
        <ele>138.7</ele>
        <time>2023-11-05T10:08:45Z</time>
      </trkpt>
      <trkpt lat="43.50921" lon="6.63284">
        <ele>138.7</ele>
        <time>2023-11-05T10:08:46Z</time>
      </trkpt>
      <trkpt lat="43.50921" lon="6.63282">
        <ele>138.8</ele>
        <time>2023-11-05T10:08:47Z</time>
      </trkpt>
      <trkpt lat="43.5092" lon="6.63282">
        <ele>139</ele>
        <time>2023-11-05T10:08:48Z</time>
      </trkpt>
      <trkpt lat="43.50919" lon="6.63281">
        <ele>139.1</ele>
        <time>2023-11-05T10:08:49Z</time>
      </trkpt>
      <trkpt lat="43.50919" lon="6.6328">
        <ele>139.2</ele>
        <time>2023-11-05T10:08:50Z</time>
      </trkpt>
      <trkpt lat="43.50919" lon="6.6328">
        <ele>139</ele>
        <time>2023-11-05T10:08:51Z</time>
      </trkpt>
      <trkpt lat="43.50918" lon="6.63278">
        <ele>139</ele>
        <time>2023-11-05T10:08:52Z</time>
      </trkpt>
      <trkpt lat="43.50917" lon="6.63278">
        <ele>139.2</ele>
        <time>2023-11-05T10:08:53Z</time>
      </trkpt>
      <trkpt lat="43.50917" lon="6.63277">
        <ele>139.3</ele>
        <time>2023-11-05T10:08:54Z</time>
      </trkpt>
      <trkpt lat="43.50916" lon="6.63277">
        <ele>139.3</ele>
        <time>2023-11-05T10:08:55Z</time>
      </trkpt>
      <trkpt lat="43.50916" lon="6.63276">
        <ele>139.3</ele>
        <time>2023-11-05T10:08:56Z</time>
      </trkpt>
      <trkpt lat="43.50916" lon="6.63275">
        <ele>138.9</ele>
        <time>2023-11-05T10:08:57Z</time>
      </trkpt>
      <trkpt lat="43.50916" lon="6.63274">
        <ele>138.4</ele>
        <time>2023-11-05T10:08:58Z</time>
      </trkpt>
      <trkpt lat="43.50915" lon="6.63273">
        <ele>138</ele>
        <time>2023-11-05T10:08:59Z</time>
      </trkpt>
      <trkpt lat="43.50915" lon="6.63273">
        <ele>137.7</ele>
        <time>2023-11-05T10:09:00Z</time>
      </trkpt>
      <trkpt lat="43.50916" lon="6.63272">
        <ele>137.2</ele>
        <time>2023-11-05T10:09:01Z</time>
      </trkpt>
      <trkpt lat="43.50916" lon="6.63271">
        <ele>136.9</ele>
        <time>2023-11-05T10:09:02Z</time>
      </trkpt>
      <trkpt lat="43.50916" lon="6.6327">
        <ele>136.8</ele>
        <time>2023-11-05T10:09:03Z</time>
      </trkpt>
      <trkpt lat="43.50917" lon="6.63269">
        <ele>136.4</ele>
        <time>2023-11-05T10:09:04Z</time>
      </trkpt>
      <trkpt lat="43.50917" lon="6.63269">
        <ele>136.2</ele>
        <time>2023-11-05T10:09:05Z</time>
      </trkpt>
      <trkpt lat="43.50917" lon="6.63269">
        <ele>135.9</ele>
        <time>2023-11-05T10:09:06Z</time>
      </trkpt>
      <trkpt lat="43.50918" lon="6.63268">
        <ele>135.7</ele>
        <time>2023-11-05T10:09:07Z</time>
      </trkpt>
      <trkpt lat="43.50918" lon="6.63268">
        <ele>135.5</ele>
        <time>2023-11-05T10:09:08Z</time>
      </trkpt>
      <trkpt lat="43.50919" lon="6.63268">
        <ele>135.3</ele>
        <time>2023-11-05T10:09:09Z</time>
      </trkpt>
      <trkpt lat="43.50919" lon="6.63268">
        <ele>135.2</ele>
        <time>2023-11-05T10:09:10Z</time>
      </trkpt>
      <trkpt lat="43.5092" lon="6.63267">
        <ele>134.9</ele>
        <time>2023-11-05T10:09:11Z</time>
      </trkpt>
      <trkpt lat="43.5092" lon="6.63267">
        <ele>134.8</ele>
        <time>2023-11-05T10:09:12Z</time>
      </trkpt>
      <trkpt lat="43.50921" lon="6.63266">
        <ele>134.7</ele>
        <time>2023-11-05T10:09:13Z</time>
      </trkpt>
      <trkpt lat="43.50921" lon="6.63266">
        <ele>134.6</ele>
        <time>2023-11-05T10:09:14Z</time>
      </trkpt>
      <trkpt lat="43.50922" lon="6.63265">
        <ele>134.3</ele>
        <time>2023-11-05T10:09:15Z</time>
      </trkpt>
      <trkpt lat="43.50922" lon="6.63264">
        <ele>134.1</ele>
        <time>2023-11-05T10:09:16Z</time>
      </trkpt>
      <trkpt lat="43.50923" lon="6.63263">
        <ele>133.9</ele>
        <time>2023-11-05T10:09:17Z</time>
      </trkpt>
      <trkpt lat="43.50924" lon="6.63262">
        <ele>133.8</ele>
        <time>2023-11-05T10:09:18Z</time>
      </trkpt>
      <trkpt lat="43.50924" lon="6.63261">
        <ele>133.7</ele>
        <time>2023-11-05T10:09:19Z</time>
      </trkpt>
      <trkpt lat="43.50925" lon="6.63261">
        <ele>133.5</ele>
        <time>2023-11-05T10:09:20Z</time>
      </trkpt>
      <trkpt lat="43.50925" lon="6.6326">
        <ele>133.3</ele>
        <time>2023-11-05T10:09:21Z</time>
      </trkpt>
      <trkpt lat="43.50925" lon="6.63259">
        <ele>133.2</ele>
        <time>2023-11-05T10:09:22Z</time>
      </trkpt>
      <trkpt lat="43.50925" lon="6.63258">
        <ele>133</ele>
        <time>2023-11-05T10:09:23Z</time>
      </trkpt>
      <trkpt lat="43.50925" lon="6.63257">
        <ele>132.9</ele>
        <time>2023-11-05T10:09:24Z</time>
      </trkpt>
      <trkpt lat="43.50925" lon="6.63256">
        <ele>132.8</ele>
        <time>2023-11-05T10:09:25Z</time>
      </trkpt>
      <trkpt lat="43.50925" lon="6.63255">
        <ele>132.7</ele>
        <time>2023-11-05T10:09:26Z</time>
      </trkpt>
      <trkpt lat="43.50925" lon="6.63254">
        <ele>132.5</ele>
        <time>2023-11-05T10:09:27Z</time>
      </trkpt>
      <trkpt lat="43.50925" lon="6.63253">
        <ele>132.4</ele>
        <time>2023-11-05T10:09:28Z</time>
      </trkpt>
      <trkpt lat="43.50926" lon="6.63252">
        <ele>132.3</ele>
        <time>2023-11-05T10:09:29Z</time>
      </trkpt>
      <trkpt lat="43.50926" lon="6.63252">
        <ele>132.2</ele>
        <time>2023-11-05T10:09:30Z</time>
      </trkpt>
      <trkpt lat="43.50926" lon="6.63251">
        <ele>132</ele>
        <time>2023-11-05T10:09:31Z</time>
      </trkpt>
      <trkpt lat="43.50926" lon="6.6325">
        <ele>131.8</ele>
        <time>2023-11-05T10:09:32Z</time>
      </trkpt>
      <trkpt lat="43.50926" lon="6.63249">
        <ele>131.6</ele>
        <time>2023-11-05T10:09:33Z</time>
      </trkpt>
      <trkpt lat="43.50926" lon="6.63248">
        <ele>131.3</ele>
        <time>2023-11-05T10:09:34Z</time>
      </trkpt>
      <trkpt lat="43.50926" lon="6.63248">
        <ele>131.2</ele>
        <time>2023-11-05T10:09:35Z</time>
      </trkpt>
      <trkpt lat="43.50927" lon="6.63247">
        <ele>131.1</ele>
        <time>2023-11-05T10:09:36Z</time>
      </trkpt>
      <trkpt lat="43.50927" lon="6.63246">
        <ele>131</ele>
        <time>2023-11-05T10:09:37Z</time>
      </trkpt>
      <trkpt lat="43.50927" lon="6.63244">
        <ele>130.8</ele>
        <time>2023-11-05T10:09:38Z</time>
      </trkpt>
      <trkpt lat="43.50926" lon="6.63244">
        <ele>130.6</ele>
        <time>2023-11-05T10:09:39Z</time>
      </trkpt>
      <trkpt lat="43.50926" lon="6.63243">
        <ele>130.3</ele>
        <time>2023-11-05T10:09:40Z</time>
      </trkpt>
      <trkpt lat="43.50927" lon="6.63243">
        <ele>130.2</ele>
        <time>2023-11-05T10:09:41Z</time>
      </trkpt>
      <trkpt lat="43.50927" lon="6.63242">
        <ele>130</ele>
        <time>2023-11-05T10:09:42Z</time>
      </trkpt>
      <trkpt lat="43.50927" lon="6.63242">
        <ele>129.9</ele>
        <time>2023-11-05T10:09:43Z</time>
      </trkpt>
      <trkpt lat="43.50928" lon="6.6324">
        <ele>129.8</ele>
        <time>2023-11-05T10:09:44Z</time>
      </trkpt>
      <trkpt lat="43.50928" lon="6.6324">
        <ele>129.5</ele>
        <time>2023-11-05T10:09:45Z</time>
      </trkpt>
      <trkpt lat="43.50928" lon="6.63239">
        <ele>129.2</ele>
        <time>2023-11-05T10:09:46Z</time>
      </trkpt>
      <trkpt lat="43.50928" lon="6.63238">
        <ele>129</ele>
        <time>2023-11-05T10:09:47Z</time>
      </trkpt>
      <trkpt lat="43.50928" lon="6.63238">
        <ele>128.9</ele>
        <time>2023-11-05T10:09:48Z</time>
      </trkpt>
      <trkpt lat="43.50928" lon="6.63237">
        <ele>129.1</ele>
        <time>2023-11-05T10:09:49Z</time>
      </trkpt>
      <trkpt lat="43.50928" lon="6.63236">
        <ele>128.9</ele>
        <time>2023-11-05T10:09:50Z</time>
      </trkpt>
      <trkpt lat="43.50928" lon="6.63235">
        <ele>128.8</ele>
        <time>2023-11-05T10:09:51Z</time>
      </trkpt>
      <trkpt lat="43.50929" lon="6.63234">
        <ele>128.6</ele>
        <time>2023-11-05T10:09:52Z</time>
      </trkpt>
      <trkpt lat="43.50928" lon="6.63234">
        <ele>128.4</ele>
        <time>2023-11-05T10:09:53Z</time>
      </trkpt>
      <trkpt lat="43.50928" lon="6.63233">
        <ele>128.1</ele>
        <time>2023-11-05T10:09:54Z</time>
      </trkpt>
      <trkpt lat="43.50929" lon="6.63232">
        <ele>127.9</ele>
        <time>2023-11-05T10:09:55Z</time>
      </trkpt>
      <trkpt lat="43.50929" lon="6.63231">
        <ele>127.8</ele>
        <time>2023-11-05T10:09:56Z</time>
      </trkpt>
      <trkpt lat="43.50928" lon="6.63231">
        <ele>127.7</ele>
        <time>2023-11-05T10:09:57Z</time>
      </trkpt>
      <trkpt lat="43.50928" lon="6.6323">
        <ele>127.6</ele>
        <time>2023-11-05T10:09:58Z</time>
      </trkpt>
      <trkpt lat="43.50929" lon="6.63228">
        <ele>127.4</ele>
        <time>2023-11-05T10:09:59Z</time>
      </trkpt>
      <trkpt lat="43.50928" lon="6.63227">
        <ele>127.2</ele>
        <time>2023-11-05T10:10:00Z</time>
      </trkpt>
      <trkpt lat="43.50929" lon="6.63227">
        <ele>127.1</ele>
        <time>2023-11-05T10:10:01Z</time>
      </trkpt>
      <trkpt lat="43.50929" lon="6.63226">
        <ele>127</ele>
        <time>2023-11-05T10:10:02Z</time>
      </trkpt>
      <trkpt lat="43.50929" lon="6.63225">
        <ele>126.8</ele>
        <time>2023-11-05T10:10:03Z</time>
      </trkpt>
      <trkpt lat="43.50929" lon="6.63224">
        <ele>126.6</ele>
        <time>2023-11-05T10:10:04Z</time>
      </trkpt>
      <trkpt lat="43.50929" lon="6.63223">
        <ele>126.3</ele>
        <time>2023-11-05T10:10:05Z</time>
      </trkpt>
      <trkpt lat="43.50929" lon="6.63222">
        <ele>126.2</ele>
        <time>2023-11-05T10:10:06Z</time>
      </trkpt>
      <trkpt lat="43.50929" lon="6.63221">
        <ele>126.1</ele>
        <time>2023-11-05T10:10:07Z</time>
      </trkpt>
      <trkpt lat="43.50929" lon="6.6322">
        <ele>125.8</ele>
        <time>2023-11-05T10:10:08Z</time>
      </trkpt>
      <trkpt lat="43.50929" lon="6.63219">
        <ele>125.4</ele>
        <time>2023-11-05T10:10:09Z</time>
      </trkpt>
      <trkpt lat="43.50929" lon="6.63218">
        <ele>125</ele>
        <time>2023-11-05T10:10:10Z</time>
      </trkpt>
      <trkpt lat="43.50929" lon="6.63217">
        <ele>124.8</ele>
        <time>2023-11-05T10:10:11Z</time>
      </trkpt>
      <trkpt lat="43.50929" lon="6.63217">
        <ele>124.6</ele>
        <time>2023-11-05T10:10:12Z</time>
      </trkpt>
      <trkpt lat="43.50929" lon="6.63216">
        <ele>124.4</ele>
        <time>2023-11-05T10:10:13Z</time>
      </trkpt>
      <trkpt lat="43.50929" lon="6.63216">
        <ele>124.3</ele>
        <time>2023-11-05T10:10:14Z</time>
      </trkpt>
      <trkpt lat="43.50928" lon="6.63215">
        <ele>124.2</ele>
        <time>2023-11-05T10:10:15Z</time>
      </trkpt>
      <trkpt lat="43.50928" lon="6.63214">
        <ele>124</ele>
        <time>2023-11-05T10:10:16Z</time>
      </trkpt>
      <trkpt lat="43.50928" lon="6.63213">
        <ele>123.9</ele>
        <time>2023-11-05T10:10:17Z</time>
      </trkpt>
      <trkpt lat="43.50927" lon="6.63212">
        <ele>123.8</ele>
        <time>2023-11-05T10:10:18Z</time>
      </trkpt>
      <trkpt lat="43.50926" lon="6.63211">
        <ele>123.6</ele>
        <time>2023-11-05T10:10:19Z</time>
      </trkpt>
      <trkpt lat="43.50926" lon="6.6321">
        <ele>123.5</ele>
        <time>2023-11-05T10:10:20Z</time>
      </trkpt>
      <trkpt lat="43.50925" lon="6.6321">
        <ele>123.4</ele>
        <time>2023-11-05T10:10:21Z</time>
      </trkpt>
      <trkpt lat="43.50924" lon="6.63209">
        <ele>123.1</ele>
        <time>2023-11-05T10:10:22Z</time>
      </trkpt>
      <trkpt lat="43.50923" lon="6.63209">
        <ele>122.9</ele>
        <time>2023-11-05T10:10:23Z</time>
      </trkpt>
      <trkpt lat="43.50923" lon="6.63208">
        <ele>122.6</ele>
        <time>2023-11-05T10:10:24Z</time>
      </trkpt>
      <trkpt lat="43.50922" lon="6.63207">
        <ele>122.4</ele>
        <time>2023-11-05T10:10:25Z</time>
      </trkpt>
      <trkpt lat="43.50922" lon="6.63206">
        <ele>122</ele>
        <time>2023-11-05T10:10:26Z</time>
      </trkpt>
      <trkpt lat="43.50922" lon="6.63205">
        <ele>121.8</ele>
        <time>2023-11-05T10:10:27Z</time>
      </trkpt>
      <trkpt lat="43.50922" lon="6.63204">
        <ele>121.5</ele>
        <time>2023-11-05T10:10:28Z</time>
      </trkpt>
      <trkpt lat="43.50922" lon="6.63203">
        <ele>121.3</ele>
        <time>2023-11-05T10:10:29Z</time>
      </trkpt>
      <trkpt lat="43.50922" lon="6.63202">
        <ele>121</ele>
        <time>2023-11-05T10:10:30Z</time>
      </trkpt>
      <trkpt lat="43.50922" lon="6.63201">
        <ele>120.8</ele>
        <time>2023-11-05T10:10:31Z</time>
      </trkpt>
      <trkpt lat="43.50922" lon="6.632">
        <ele>120.6</ele>
        <time>2023-11-05T10:10:32Z</time>
      </trkpt>
      <trkpt lat="43.50922" lon="6.63199">
        <ele>120.4</ele>
        <time>2023-11-05T10:10:33Z</time>
      </trkpt>
      <trkpt lat="43.50921" lon="6.63198">
        <ele>120.3</ele>
        <time>2023-11-05T10:10:34Z</time>
      </trkpt>
      <trkpt lat="43.50921" lon="6.63197">
        <ele>120.2</ele>
        <time>2023-11-05T10:10:35Z</time>
      </trkpt>
      <trkpt lat="43.50921" lon="6.63196">
        <ele>120.1</ele>
        <time>2023-11-05T10:10:36Z</time>
      </trkpt>
      <trkpt lat="43.50922" lon="6.63195">
        <ele>120</ele>
        <time>2023-11-05T10:10:37Z</time>
      </trkpt>
      <trkpt lat="43.50922" lon="6.63195">
        <ele>120</ele>
        <time>2023-11-05T10:10:38Z</time>
      </trkpt>
      <trkpt lat="43.50923" lon="6.63194">
        <ele>120</ele>
        <time>2023-11-05T10:10:39Z</time>
      </trkpt>
      <trkpt lat="43.50923" lon="6.63192">
        <ele>120</ele>
        <time>2023-11-05T10:10:40Z</time>
      </trkpt>
      <trkpt lat="43.50923" lon="6.63192">
        <ele>119.9</ele>
        <time>2023-11-05T10:10:41Z</time>
      </trkpt>
      <trkpt lat="43.50923" lon="6.63191">
        <ele>119.8</ele>
        <time>2023-11-05T10:10:42Z</time>
      </trkpt>
      <trkpt lat="43.50923" lon="6.6319">
        <ele>119.7</ele>
        <time>2023-11-05T10:10:43Z</time>
      </trkpt>
      <trkpt lat="43.50922" lon="6.6319">
        <ele>119.6</ele>
        <time>2023-11-05T10:10:44Z</time>
      </trkpt>
      <trkpt lat="43.50922" lon="6.6319">
        <ele>119.6</ele>
        <time>2023-11-05T10:10:45Z</time>
      </trkpt>
      <trkpt lat="43.50921" lon="6.63189">
        <ele>119.6</ele>
        <time>2023-11-05T10:10:46Z</time>
      </trkpt>
      <trkpt lat="43.50922" lon="6.63189">
        <ele>119.4</ele>
        <time>2023-11-05T10:10:47Z</time>
      </trkpt>
      <trkpt lat="43.50922" lon="6.63188">
        <ele>119.2</ele>
        <time>2023-11-05T10:10:48Z</time>
      </trkpt>
      <trkpt lat="43.50922" lon="6.63187">
        <ele>119.1</ele>
        <time>2023-11-05T10:10:49Z</time>
      </trkpt>
      <trkpt lat="43.50922" lon="6.63186">
        <ele>118.8</ele>
        <time>2023-11-05T10:10:50Z</time>
      </trkpt>
      <trkpt lat="43.50921" lon="6.63185">
        <ele>118.6</ele>
        <time>2023-11-05T10:10:51Z</time>
      </trkpt>
      <trkpt lat="43.50922" lon="6.63184">
        <ele>118.5</ele>
        <time>2023-11-05T10:10:52Z</time>
      </trkpt>
      <trkpt lat="43.50922" lon="6.63183">
        <ele>118.3</ele>
        <time>2023-11-05T10:10:53Z</time>
      </trkpt>
      <trkpt lat="43.50922" lon="6.63182">
        <ele>118.2</ele>
        <time>2023-11-05T10:10:54Z</time>
      </trkpt>
      <trkpt lat="43.50922" lon="6.63181">
        <ele>118</ele>
        <time>2023-11-05T10:10:55Z</time>
      </trkpt>
      <trkpt lat="43.50922" lon="6.6318">
        <ele>117.9</ele>
        <time>2023-11-05T10:10:56Z</time>
      </trkpt>
      <trkpt lat="43.50922" lon="6.63179">
        <ele>117.5</ele>
        <time>2023-11-05T10:10:57Z</time>
      </trkpt>
      <trkpt lat="43.50921" lon="6.63178">
        <ele>117.3</ele>
        <time>2023-11-05T10:10:58Z</time>
      </trkpt>
      <trkpt lat="43.50921" lon="6.63177">
        <ele>117.1</ele>
        <time>2023-11-05T10:10:59Z</time>
      </trkpt>
      <trkpt lat="43.50921" lon="6.63176">
        <ele>116.9</ele>
        <time>2023-11-05T10:11:00Z</time>
      </trkpt>
      <trkpt lat="43.50921" lon="6.63175">
        <ele>116.8</ele>
        <time>2023-11-05T10:11:01Z</time>
      </trkpt>
      <trkpt lat="43.50921" lon="6.63174">
        <ele>116.7</ele>
        <time>2023-11-05T10:11:02Z</time>
      </trkpt>
      <trkpt lat="43.50921" lon="6.63173">
        <ele>116.6</ele>
        <time>2023-11-05T10:11:03Z</time>
      </trkpt>
      <trkpt lat="43.50921" lon="6.63173">
        <ele>116.5</ele>
        <time>2023-11-05T10:11:04Z</time>
      </trkpt>
      <trkpt lat="43.50921" lon="6.63172">
        <ele>116.2</ele>
        <time>2023-11-05T10:11:05Z</time>
      </trkpt>
      <trkpt lat="43.50921" lon="6.63171">
        <ele>115.9</ele>
        <time>2023-11-05T10:11:06Z</time>
      </trkpt>
      <trkpt lat="43.50922" lon="6.6317">
        <ele>115.7</ele>
        <time>2023-11-05T10:11:07Z</time>
      </trkpt>
      <trkpt lat="43.50922" lon="6.63169">
        <ele>115.5</ele>
        <time>2023-11-05T10:11:08Z</time>
      </trkpt>
      <trkpt lat="43.50922" lon="6.63169">
        <ele>115.4</ele>
        <time>2023-11-05T10:11:09Z</time>
      </trkpt>
      <trkpt lat="43.50922" lon="6.63168">
        <ele>115.2</ele>
        <time>2023-11-05T10:11:10Z</time>
      </trkpt>
      <trkpt lat="43.50922" lon="6.63167">
        <ele>115</ele>
        <time>2023-11-05T10:11:11Z</time>
      </trkpt>
      <trkpt lat="43.50923" lon="6.63167">
        <ele>114.8</ele>
        <time>2023-11-05T10:11:12Z</time>
      </trkpt>
      <trkpt lat="43.50923" lon="6.63166">
        <ele>114.6</ele>
        <time>2023-11-05T10:11:13Z</time>
      </trkpt>
      <trkpt lat="43.50924" lon="6.63165">
        <ele>114.4</ele>
        <time>2023-11-05T10:11:14Z</time>
      </trkpt>
      <trkpt lat="43.50924" lon="6.63164">
        <ele>114.4</ele>
        <time>2023-11-05T10:11:15Z</time>
      </trkpt>
      <trkpt lat="43.50924" lon="6.63163">
        <ele>114.1</ele>
        <time>2023-11-05T10:11:16Z</time>
      </trkpt>
      <trkpt lat="43.50924" lon="6.63163">
        <ele>114</ele>
        <time>2023-11-05T10:11:17Z</time>
      </trkpt>
      <trkpt lat="43.50925" lon="6.63162">
        <ele>113.8</ele>
        <time>2023-11-05T10:11:18Z</time>
      </trkpt>
      <trkpt lat="43.50926" lon="6.63161">
        <ele>113.7</ele>
        <time>2023-11-05T10:11:19Z</time>
      </trkpt>
      <trkpt lat="43.50927" lon="6.6316">
        <ele>113.7</ele>
        <time>2023-11-05T10:11:20Z</time>
      </trkpt>
      <trkpt lat="43.50927" lon="6.63159">
        <ele>113.8</ele>
        <time>2023-11-05T10:11:21Z</time>
      </trkpt>
      <trkpt lat="43.50928" lon="6.63158">
        <ele>113.9</ele>
        <time>2023-11-05T10:11:22Z</time>
      </trkpt>
      <trkpt lat="43.50928" lon="6.63157">
        <ele>114</ele>
        <time>2023-11-05T10:11:23Z</time>
      </trkpt>
      <trkpt lat="43.50928" lon="6.63156">
        <ele>113.9</ele>
        <time>2023-11-05T10:11:24Z</time>
      </trkpt>
      <trkpt lat="43.50928" lon="6.63155">
        <ele>113.9</ele>
        <time>2023-11-05T10:11:25Z</time>
      </trkpt>
      <trkpt lat="43.50929" lon="6.63154">
        <ele>113.9</ele>
        <time>2023-11-05T10:11:26Z</time>
      </trkpt>
      <trkpt lat="43.50929" lon="6.63153">
        <ele>113.9</ele>
        <time>2023-11-05T10:11:27Z</time>
      </trkpt>
      <trkpt lat="43.50929" lon="6.63151">
        <ele>113.7</ele>
        <time>2023-11-05T10:11:28Z</time>
      </trkpt>
      <trkpt lat="43.50929" lon="6.6315">
        <ele>113.5</ele>
        <time>2023-11-05T10:11:29Z</time>
      </trkpt>
      <trkpt lat="43.50929" lon="6.63149">
        <ele>113.3</ele>
        <time>2023-11-05T10:11:30Z</time>
      </trkpt>
      <trkpt lat="43.50929" lon="6.63147">
        <ele>113.1</ele>
        <time>2023-11-05T10:11:31Z</time>
      </trkpt>
      <trkpt lat="43.50929" lon="6.63147">
        <ele>112.9</ele>
        <time>2023-11-05T10:11:32Z</time>
      </trkpt>
      <trkpt lat="43.50929" lon="6.63146">
        <ele>112.7</ele>
        <time>2023-11-05T10:11:33Z</time>
      </trkpt>
      <trkpt lat="43.50929" lon="6.63145">
        <ele>112.5</ele>
        <time>2023-11-05T10:11:34Z</time>
      </trkpt>
      <trkpt lat="43.5093" lon="6.63144">
        <ele>112.2</ele>
        <time>2023-11-05T10:11:35Z</time>
      </trkpt>
      <trkpt lat="43.50929" lon="6.63143">
        <ele>111.9</ele>
        <time>2023-11-05T10:11:36Z</time>
      </trkpt>
      <trkpt lat="43.50929" lon="6.63143">
        <ele>111.6</ele>
        <time>2023-11-05T10:11:37Z</time>
      </trkpt>
      <trkpt lat="43.50929" lon="6.63142">
        <ele>111.5</ele>
        <time>2023-11-05T10:11:38Z</time>
      </trkpt>
      <trkpt lat="43.50929" lon="6.63141">
        <ele>111.2</ele>
        <time>2023-11-05T10:11:39Z</time>
      </trkpt>
      <trkpt lat="43.50928" lon="6.6314">
        <ele>111.1</ele>
        <time>2023-11-05T10:11:40Z</time>
      </trkpt>
      <trkpt lat="43.50927" lon="6.63139">
        <ele>111</ele>
        <time>2023-11-05T10:11:41Z</time>
      </trkpt>
      <trkpt lat="43.50927" lon="6.63139">
        <ele>110.9</ele>
        <time>2023-11-05T10:11:42Z</time>
      </trkpt>
      <trkpt lat="43.50926" lon="6.63138">
        <ele>110.8</ele>
        <time>2023-11-05T10:11:43Z</time>
      </trkpt>
      <trkpt lat="43.50925" lon="6.63137">
        <ele>110.6</ele>
        <time>2023-11-05T10:11:44Z</time>
      </trkpt>
      <trkpt lat="43.50924" lon="6.63137">
        <ele>110.5</ele>
        <time>2023-11-05T10:11:45Z</time>
      </trkpt>
      <trkpt lat="43.50924" lon="6.63136">
        <ele>110.4</ele>
        <time>2023-11-05T10:11:46Z</time>
      </trkpt>
      <trkpt lat="43.50923" lon="6.63136">
        <ele>110.3</ele>
        <time>2023-11-05T10:11:47Z</time>
      </trkpt>
      <trkpt lat="43.50922" lon="6.63136">
        <ele>110.2</ele>
        <time>2023-11-05T10:11:48Z</time>
      </trkpt>
      <trkpt lat="43.50922" lon="6.63136">
        <ele>110.1</ele>
        <time>2023-11-05T10:11:49Z</time>
      </trkpt>
      <trkpt lat="43.50922" lon="6.63134">
        <ele>109.9</ele>
        <time>2023-11-05T10:11:50Z</time>
      </trkpt>
      <trkpt lat="43.50922" lon="6.63134">
        <ele>109.6</ele>
        <time>2023-11-05T10:11:51Z</time>
      </trkpt>
      <trkpt lat="43.50922" lon="6.63133">
        <ele>109.4</ele>
        <time>2023-11-05T10:11:52Z</time>
      </trkpt>
      <trkpt lat="43.50922" lon="6.63132">
        <ele>109</ele>
        <time>2023-11-05T10:11:53Z</time>
      </trkpt>
      <trkpt lat="43.50921" lon="6.63131">
        <ele>108.7</ele>
        <time>2023-11-05T10:11:54Z</time>
      </trkpt>
      <trkpt lat="43.50921" lon="6.6313">
        <ele>108.4</ele>
        <time>2023-11-05T10:11:55Z</time>
      </trkpt>
      <trkpt lat="43.50921" lon="6.63129">
        <ele>108.3</ele>
        <time>2023-11-05T10:11:56Z</time>
      </trkpt>
      <trkpt lat="43.5092" lon="6.63128">
        <ele>108.2</ele>
        <time>2023-11-05T10:11:57Z</time>
      </trkpt>
      <trkpt lat="43.50919" lon="6.63128">
        <ele>108.1</ele>
        <time>2023-11-05T10:11:58Z</time>
      </trkpt>
      <trkpt lat="43.50918" lon="6.63128">
        <ele>108.1</ele>
        <time>2023-11-05T10:11:59Z</time>
      </trkpt>
      <trkpt lat="43.50917" lon="6.63128">
        <ele>108</ele>
        <time>2023-11-05T10:12:00Z</time>
      </trkpt>
      <trkpt lat="43.50917" lon="6.63128">
        <ele>108</ele>
        <time>2023-11-05T10:12:01Z</time>
      </trkpt>
      <trkpt lat="43.50916" lon="6.63128">
        <ele>107.9</ele>
        <time>2023-11-05T10:12:02Z</time>
      </trkpt>
      <trkpt lat="43.50915" lon="6.63127">
        <ele>107.9</ele>
        <time>2023-11-05T10:12:03Z</time>
      </trkpt>
      <trkpt lat="43.50915" lon="6.63128">
        <ele>107.8</ele>
        <time>2023-11-05T10:12:04Z</time>
      </trkpt>
      <trkpt lat="43.50914" lon="6.63127">
        <ele>107.4</ele>
        <time>2023-11-05T10:12:05Z</time>
      </trkpt>
      <trkpt lat="43.50913" lon="6.63128">
        <ele>107</ele>
        <time>2023-11-05T10:12:06Z</time>
      </trkpt>
      <trkpt lat="43.50912" lon="6.63128">
        <ele>106.6</ele>
        <time>2023-11-05T10:12:07Z</time>
      </trkpt>
      <trkpt lat="43.50912" lon="6.63127">
        <ele>106.3</ele>
        <time>2023-11-05T10:12:08Z</time>
      </trkpt>
      <trkpt lat="43.50911" lon="6.63127">
        <ele>105.9</ele>
        <time>2023-11-05T10:12:09Z</time>
      </trkpt>
      <trkpt lat="43.50911" lon="6.63127">
        <ele>105.6</ele>
        <time>2023-11-05T10:12:10Z</time>
      </trkpt>
      <trkpt lat="43.5091" lon="6.63126">
        <ele>105.2</ele>
        <time>2023-11-05T10:12:11Z</time>
      </trkpt>
      <trkpt lat="43.50909" lon="6.63125">
        <ele>105</ele>
        <time>2023-11-05T10:12:12Z</time>
      </trkpt>
      <trkpt lat="43.50909" lon="6.63125">
        <ele>104.8</ele>
        <time>2023-11-05T10:12:13Z</time>
      </trkpt>
      <trkpt lat="43.50908" lon="6.63125">
        <ele>104.6</ele>
        <time>2023-11-05T10:12:14Z</time>
      </trkpt>
      <trkpt lat="43.50907" lon="6.63124">
        <ele>104.3</ele>
        <time>2023-11-05T10:12:15Z</time>
      </trkpt>
      <trkpt lat="43.50907" lon="6.63124">
        <ele>104.1</ele>
        <time>2023-11-05T10:12:16Z</time>
      </trkpt>
      <trkpt lat="43.50906" lon="6.63123">
        <ele>103.9</ele>
        <time>2023-11-05T10:12:17Z</time>
      </trkpt>
      <trkpt lat="43.50905" lon="6.63122">
        <ele>103.6</ele>
        <time>2023-11-05T10:12:18Z</time>
      </trkpt>
      <trkpt lat="43.50905" lon="6.63122">
        <ele>103.4</ele>
        <time>2023-11-05T10:12:19Z</time>
      </trkpt>
      <trkpt lat="43.50904" lon="6.63122">
        <ele>103.3</ele>
        <time>2023-11-05T10:12:20Z</time>
      </trkpt>
      <trkpt lat="43.50903" lon="6.63122">
        <ele>103</ele>
        <time>2023-11-05T10:12:21Z</time>
      </trkpt>
      <trkpt lat="43.50903" lon="6.63121">
        <ele>102.8</ele>
        <time>2023-11-05T10:12:22Z</time>
      </trkpt>
      <trkpt lat="43.50902" lon="6.63121">
        <ele>102.6</ele>
        <time>2023-11-05T10:12:23Z</time>
      </trkpt>
      <trkpt lat="43.50901" lon="6.6312">
        <ele>102.5</ele>
        <time>2023-11-05T10:12:24Z</time>
      </trkpt>
      <trkpt lat="43.50901" lon="6.6312">
        <ele>102.3</ele>
        <time>2023-11-05T10:12:25Z</time>
      </trkpt>
      <trkpt lat="43.509" lon="6.63119">
        <ele>102.1</ele>
        <time>2023-11-05T10:12:26Z</time>
      </trkpt>
      <trkpt lat="43.50899" lon="6.63118">
        <ele>102</ele>
        <time>2023-11-05T10:12:27Z</time>
      </trkpt>
      <trkpt lat="43.50898" lon="6.63118">
        <ele>101.9</ele>
        <time>2023-11-05T10:12:28Z</time>
      </trkpt>
      <trkpt lat="43.50897" lon="6.63117">
        <ele>101.7</ele>
        <time>2023-11-05T10:12:29Z</time>
      </trkpt>
      <trkpt lat="43.50897" lon="6.63117">
        <ele>101.6</ele>
        <time>2023-11-05T10:12:30Z</time>
      </trkpt>
      <trkpt lat="43.50896" lon="6.63116">
        <ele>101.3</ele>
        <time>2023-11-05T10:12:31Z</time>
      </trkpt>
      <trkpt lat="43.50896" lon="6.63116">
        <ele>101.2</ele>
        <time>2023-11-05T10:12:32Z</time>
      </trkpt>
      <trkpt lat="43.50895" lon="6.63116">
        <ele>101</ele>
        <time>2023-11-05T10:12:33Z</time>
      </trkpt>
      <trkpt lat="43.50894" lon="6.63116">
        <ele>100.9</ele>
        <time>2023-11-05T10:12:34Z</time>
      </trkpt>
      <trkpt lat="43.50894" lon="6.63117">
        <ele>100.8</ele>
        <time>2023-11-05T10:12:35Z</time>
      </trkpt>
      <trkpt lat="43.50893" lon="6.63116">
        <ele>100.8</ele>
        <time>2023-11-05T10:12:36Z</time>
      </trkpt>
      <trkpt lat="43.50892" lon="6.63116">
        <ele>100.6</ele>
        <time>2023-11-05T10:12:37Z</time>
      </trkpt>
      <trkpt lat="43.50891" lon="6.63116">
        <ele>100.4</ele>
        <time>2023-11-05T10:12:38Z</time>
      </trkpt>
      <trkpt lat="43.5089" lon="6.63116">
        <ele>100.3</ele>
        <time>2023-11-05T10:12:39Z</time>
      </trkpt>
      <trkpt lat="43.50889" lon="6.63117">
        <ele>100</ele>
        <time>2023-11-05T10:12:40Z</time>
      </trkpt>
      <trkpt lat="43.50888" lon="6.63117">
        <ele>99.8</ele>
        <time>2023-11-05T10:12:41Z</time>
      </trkpt>
      <trkpt lat="43.50888" lon="6.63117">
        <ele>99.6</ele>
        <time>2023-11-05T10:12:42Z</time>
      </trkpt>
      <trkpt lat="43.50887" lon="6.63117">
        <ele>99.4</ele>
        <time>2023-11-05T10:12:43Z</time>
      </trkpt>
      <trkpt lat="43.50886" lon="6.63117">
        <ele>99.3</ele>
        <time>2023-11-05T10:12:44Z</time>
      </trkpt>
      <trkpt lat="43.50885" lon="6.63117">
        <ele>99.1</ele>
        <time>2023-11-05T10:12:45Z</time>
      </trkpt>
      <trkpt lat="43.50884" lon="6.63117">
        <ele>99</ele>
        <time>2023-11-05T10:12:46Z</time>
      </trkpt>
      <trkpt lat="43.50883" lon="6.63117">
        <ele>98.9</ele>
        <time>2023-11-05T10:12:47Z</time>
      </trkpt>
      <trkpt lat="43.50882" lon="6.63117">
        <ele>98.7</ele>
        <time>2023-11-05T10:12:48Z</time>
      </trkpt>
      <trkpt lat="43.50881" lon="6.63117">
        <ele>98.6</ele>
        <time>2023-11-05T10:12:49Z</time>
      </trkpt>
      <trkpt lat="43.5088" lon="6.63117">
        <ele>98.5</ele>
        <time>2023-11-05T10:12:50Z</time>
      </trkpt>
      <trkpt lat="43.50879" lon="6.63118">
        <ele>98.3</ele>
        <time>2023-11-05T10:12:51Z</time>
      </trkpt>
      <trkpt lat="43.50878" lon="6.63118">
        <ele>98.1</ele>
        <time>2023-11-05T10:12:52Z</time>
      </trkpt>
      <trkpt lat="43.50877" lon="6.63118">
        <ele>98</ele>
        <time>2023-11-05T10:12:53Z</time>
      </trkpt>
      <trkpt lat="43.50876" lon="6.63118">
        <ele>97.8</ele>
        <time>2023-11-05T10:12:54Z</time>
      </trkpt>
      <trkpt lat="43.50875" lon="6.63117">
        <ele>97.7</ele>
        <time>2023-11-05T10:12:55Z</time>
      </trkpt>
      <trkpt lat="43.50874" lon="6.63117">
        <ele>97.6</ele>
        <time>2023-11-05T10:12:56Z</time>
      </trkpt>
      <trkpt lat="43.50873" lon="6.63117">
        <ele>97.7</ele>
        <time>2023-11-05T10:12:57Z</time>
      </trkpt>
      <trkpt lat="43.50873" lon="6.63116">
        <ele>97.7</ele>
        <time>2023-11-05T10:12:58Z</time>
      </trkpt>
      <trkpt lat="43.50872" lon="6.63116">
        <ele>97.8</ele>
        <time>2023-11-05T10:12:59Z</time>
      </trkpt>
      <trkpt lat="43.50871" lon="6.63116">
        <ele>97.7</ele>
        <time>2023-11-05T10:13:00Z</time>
      </trkpt>
      <trkpt lat="43.50869" lon="6.63116">
        <ele>97.6</ele>
        <time>2023-11-05T10:13:01Z</time>
      </trkpt>
      <trkpt lat="43.50869" lon="6.63115">
        <ele>97.5</ele>
        <time>2023-11-05T10:13:02Z</time>
      </trkpt>
      <trkpt lat="43.50867" lon="6.63114">
        <ele>97.4</ele>
        <time>2023-11-05T10:13:03Z</time>
      </trkpt>
      <trkpt lat="43.50867" lon="6.63115">
        <ele>97.4</ele>
        <time>2023-11-05T10:13:04Z</time>
      </trkpt>
      <trkpt lat="43.50866" lon="6.63115">
        <ele>97.4</ele>
        <time>2023-11-05T10:13:05Z</time>
      </trkpt>
      <trkpt lat="43.50865" lon="6.63114">
        <ele>97.4</ele>
        <time>2023-11-05T10:13:06Z</time>
      </trkpt>
      <trkpt lat="43.50865" lon="6.63114">
        <ele>97.4</ele>
        <time>2023-11-05T10:13:07Z</time>
      </trkpt>
      <trkpt lat="43.50865" lon="6.63113">
        <ele>97.3</ele>
        <time>2023-11-05T10:13:08Z</time>
      </trkpt>
      <trkpt lat="43.50864" lon="6.63112">
        <ele>97.3</ele>
        <time>2023-11-05T10:13:09Z</time>
      </trkpt>
      <trkpt lat="43.50863" lon="6.63111">
        <ele>97.4</ele>
        <time>2023-11-05T10:13:10Z</time>
      </trkpt>
      <trkpt lat="43.50863" lon="6.6311">
        <ele>97.4</ele>
        <time>2023-11-05T10:13:11Z</time>
      </trkpt>
      <trkpt lat="43.50863" lon="6.6311">
        <ele>97.4</ele>
        <time>2023-11-05T10:13:12Z</time>
      </trkpt>
      <trkpt lat="43.50862" lon="6.63109">
        <ele>97.2</ele>
        <time>2023-11-05T10:13:13Z</time>
      </trkpt>
      <trkpt lat="43.50861" lon="6.63108">
        <ele>97.1</ele>
        <time>2023-11-05T10:13:14Z</time>
      </trkpt>
      <trkpt lat="43.50861" lon="6.63108">
        <ele>97</ele>
        <time>2023-11-05T10:13:15Z</time>
      </trkpt>
      <trkpt lat="43.50861" lon="6.63107">
        <ele>96.9</ele>
        <time>2023-11-05T10:13:16Z</time>
      </trkpt>
      <trkpt lat="43.5086" lon="6.63106">
        <ele>96.7</ele>
        <time>2023-11-05T10:13:17Z</time>
      </trkpt>
      <trkpt lat="43.5086" lon="6.63105">
        <ele>96.6</ele>
        <time>2023-11-05T10:13:18Z</time>
      </trkpt>
      <trkpt lat="43.50859" lon="6.63104">
        <ele>96.4</ele>
        <time>2023-11-05T10:13:19Z</time>
      </trkpt>
      <trkpt lat="43.50858" lon="6.63104">
        <ele>96.3</ele>
        <time>2023-11-05T10:13:20Z</time>
      </trkpt>
      <trkpt lat="43.50858" lon="6.63102">
        <ele>96.1</ele>
        <time>2023-11-05T10:13:21Z</time>
      </trkpt>
      <trkpt lat="43.50858" lon="6.63101">
        <ele>95.9</ele>
        <time>2023-11-05T10:13:22Z</time>
      </trkpt>
      <trkpt lat="43.50858" lon="6.631">
        <ele>95.6</ele>
        <time>2023-11-05T10:13:23Z</time>
      </trkpt>
      <trkpt lat="43.50858" lon="6.63098">
        <ele>95.5</ele>
        <time>2023-11-05T10:13:24Z</time>
      </trkpt>
      <trkpt lat="43.50857" lon="6.63097">
        <ele>95.3</ele>
        <time>2023-11-05T10:13:25Z</time>
      </trkpt>
      <trkpt lat="43.50857" lon="6.63096">
        <ele>95.1</ele>
        <time>2023-11-05T10:13:26Z</time>
      </trkpt>
      <trkpt lat="43.50857" lon="6.63095">
        <ele>95</ele>
        <time>2023-11-05T10:13:27Z</time>
      </trkpt>
      <trkpt lat="43.50856" lon="6.63094">
        <ele>94.7</ele>
        <time>2023-11-05T10:13:28Z</time>
      </trkpt>
      <trkpt lat="43.50856" lon="6.63093">
        <ele>94.5</ele>
        <time>2023-11-05T10:13:29Z</time>
      </trkpt>
      <trkpt lat="43.50855" lon="6.63092">
        <ele>94.3</ele>
        <time>2023-11-05T10:13:30Z</time>
      </trkpt>
      <trkpt lat="43.50855" lon="6.63091">
        <ele>94</ele>
        <time>2023-11-05T10:13:31Z</time>
      </trkpt>
      <trkpt lat="43.50854" lon="6.6309">
        <ele>93.8</ele>
        <time>2023-11-05T10:13:32Z</time>
      </trkpt>
      <trkpt lat="43.50854" lon="6.63089">
        <ele>93.6</ele>
        <time>2023-11-05T10:13:33Z</time>
      </trkpt>
      <trkpt lat="43.50853" lon="6.63088">
        <ele>93.4</ele>
        <time>2023-11-05T10:13:34Z</time>
      </trkpt>
      <trkpt lat="43.50853" lon="6.63087">
        <ele>93.2</ele>
        <time>2023-11-05T10:13:35Z</time>
      </trkpt>
      <trkpt lat="43.50852" lon="6.63086">
        <ele>93</ele>
        <time>2023-11-05T10:13:36Z</time>
      </trkpt>
      <trkpt lat="43.50851" lon="6.63085">
        <ele>92.7</ele>
        <time>2023-11-05T10:13:37Z</time>
      </trkpt>
      <trkpt lat="43.50851" lon="6.63085">
        <ele>92.6</ele>
        <time>2023-11-05T10:13:38Z</time>
      </trkpt>
      <trkpt lat="43.50851" lon="6.63084">
        <ele>92.4</ele>
        <time>2023-11-05T10:13:39Z</time>
      </trkpt>
      <trkpt lat="43.50852" lon="6.63083">
        <ele>92.1</ele>
        <time>2023-11-05T10:13:40Z</time>
      </trkpt>
      <trkpt lat="43.50852" lon="6.63082">
        <ele>92</ele>
        <time>2023-11-05T10:13:41Z</time>
      </trkpt>
      <trkpt lat="43.50853" lon="6.63081">
        <ele>91.8</ele>
        <time>2023-11-05T10:13:42Z</time>
      </trkpt>
      <trkpt lat="43.50853" lon="6.6308">
        <ele>91.7</ele>
        <time>2023-11-05T10:13:43Z</time>
      </trkpt>
      <trkpt lat="43.50854" lon="6.63079">
        <ele>91.6</ele>
        <time>2023-11-05T10:13:44Z</time>
      </trkpt>
      <trkpt lat="43.50854" lon="6.63078">
        <ele>91.6</ele>
        <time>2023-11-05T10:13:45Z</time>
      </trkpt>
      <trkpt lat="43.50854" lon="6.63076">
        <ele>91.5</ele>
        <time>2023-11-05T10:13:46Z</time>
      </trkpt>
      <trkpt lat="43.50854" lon="6.63075">
        <ele>91.5</ele>
        <time>2023-11-05T10:13:47Z</time>
      </trkpt>
      <trkpt lat="43.50854" lon="6.63074">
        <ele>91.4</ele>
        <time>2023-11-05T10:13:48Z</time>
      </trkpt>
      <trkpt lat="43.50853" lon="6.63073">
        <ele>91.4</ele>
        <time>2023-11-05T10:13:49Z</time>
      </trkpt>
      <trkpt lat="43.50853" lon="6.63072">
        <ele>91.3</ele>
        <time>2023-11-05T10:13:50Z</time>
      </trkpt>
      <trkpt lat="43.50852" lon="6.63072">
        <ele>91.2</ele>
        <time>2023-11-05T10:13:51Z</time>
      </trkpt>
      <trkpt lat="43.50851" lon="6.63071">
        <ele>91.1</ele>
        <time>2023-11-05T10:13:52Z</time>
      </trkpt>
      <trkpt lat="43.50851" lon="6.6307">
        <ele>91</ele>
        <time>2023-11-05T10:13:53Z</time>
      </trkpt>
      <trkpt lat="43.5085" lon="6.63069">
        <ele>90.8</ele>
        <time>2023-11-05T10:13:54Z</time>
      </trkpt>
      <trkpt lat="43.5085" lon="6.63067">
        <ele>90.6</ele>
        <time>2023-11-05T10:13:55Z</time>
      </trkpt>
      <trkpt lat="43.50849" lon="6.63066">
        <ele>90.4</ele>
        <time>2023-11-05T10:13:56Z</time>
      </trkpt>
      <trkpt lat="43.50848" lon="6.63065">
        <ele>90.4</ele>
        <time>2023-11-05T10:13:57Z</time>
      </trkpt>
      <trkpt lat="43.50847" lon="6.63065">
        <ele>90.3</ele>
        <time>2023-11-05T10:13:58Z</time>
      </trkpt>
      <trkpt lat="43.50847" lon="6.63064">
        <ele>90.2</ele>
        <time>2023-11-05T10:13:59Z</time>
      </trkpt>
      <trkpt lat="43.50846" lon="6.63063">
        <ele>90.1</ele>
        <time>2023-11-05T10:14:00Z</time>
      </trkpt>
      <trkpt lat="43.50845" lon="6.63063">
        <ele>90</ele>
        <time>2023-11-05T10:14:01Z</time>
      </trkpt>
      <trkpt lat="43.50844" lon="6.63062">
        <ele>90</ele>
        <time>2023-11-05T10:14:02Z</time>
      </trkpt>
      <trkpt lat="43.50844" lon="6.63061">
        <ele>89.9</ele>
        <time>2023-11-05T10:14:03Z</time>
      </trkpt>
      <trkpt lat="43.50843" lon="6.6306">
        <ele>89.7</ele>
        <time>2023-11-05T10:14:04Z</time>
      </trkpt>
      <trkpt lat="43.50842" lon="6.63059">
        <ele>89.5</ele>
        <time>2023-11-05T10:14:05Z</time>
      </trkpt>
      <trkpt lat="43.50842" lon="6.63059">
        <ele>89.4</ele>
        <time>2023-11-05T10:14:06Z</time>
      </trkpt>
      <trkpt lat="43.50842" lon="6.63058">
        <ele>89.1</ele>
        <time>2023-11-05T10:14:07Z</time>
      </trkpt>
      <trkpt lat="43.50841" lon="6.63057">
        <ele>89</ele>
        <time>2023-11-05T10:14:08Z</time>
      </trkpt>
      <trkpt lat="43.5084" lon="6.63055">
        <ele>88.8</ele>
        <time>2023-11-05T10:14:09Z</time>
      </trkpt>
      <trkpt lat="43.50839" lon="6.63054">
        <ele>88.7</ele>
        <time>2023-11-05T10:14:10Z</time>
      </trkpt>
      <trkpt lat="43.50839" lon="6.63054">
        <ele>88.6</ele>
        <time>2023-11-05T10:14:11Z</time>
      </trkpt>
      <trkpt lat="43.50838" lon="6.63053">
        <ele>88.4</ele>
        <time>2023-11-05T10:14:12Z</time>
      </trkpt>
      <trkpt lat="43.50837" lon="6.63052">
        <ele>88.3</ele>
        <time>2023-11-05T10:14:13Z</time>
      </trkpt>
      <trkpt lat="43.50837" lon="6.63051">
        <ele>88.2</ele>
        <time>2023-11-05T10:14:14Z</time>
      </trkpt>
      <trkpt lat="43.50836" lon="6.6305">
        <ele>88.1</ele>
        <time>2023-11-05T10:14:15Z</time>
      </trkpt>
      <trkpt lat="43.50836" lon="6.63049">
        <ele>87.9</ele>
        <time>2023-11-05T10:14:16Z</time>
      </trkpt>
      <trkpt lat="43.50835" lon="6.63048">
        <ele>87.7</ele>
        <time>2023-11-05T10:14:17Z</time>
      </trkpt>
      <trkpt lat="43.50835" lon="6.63047">
        <ele>87.6</ele>
        <time>2023-11-05T10:14:18Z</time>
      </trkpt>
      <trkpt lat="43.50834" lon="6.63046">
        <ele>87.4</ele>
        <time>2023-11-05T10:14:19Z</time>
      </trkpt>
      <trkpt lat="43.50833" lon="6.63046">
        <ele>87.2</ele>
        <time>2023-11-05T10:14:20Z</time>
      </trkpt>
      <trkpt lat="43.50832" lon="6.63045">
        <ele>87</ele>
        <time>2023-11-05T10:14:21Z</time>
      </trkpt>
      <trkpt lat="43.50832" lon="6.63044">
        <ele>86.7</ele>
        <time>2023-11-05T10:14:22Z</time>
      </trkpt>
      <trkpt lat="43.50831" lon="6.63043">
        <ele>86.6</ele>
        <time>2023-11-05T10:14:23Z</time>
      </trkpt>
      <trkpt lat="43.5083" lon="6.63042">
        <ele>86.5</ele>
        <time>2023-11-05T10:14:24Z</time>
      </trkpt>
      <trkpt lat="43.5083" lon="6.63042">
        <ele>86.4</ele>
        <time>2023-11-05T10:14:25Z</time>
      </trkpt>
      <trkpt lat="43.50829" lon="6.63041">
        <ele>86.2</ele>
        <time>2023-11-05T10:14:26Z</time>
      </trkpt>
      <trkpt lat="43.50829" lon="6.6304">
        <ele>86.1</ele>
        <time>2023-11-05T10:14:27Z</time>
      </trkpt>
      <trkpt lat="43.50829" lon="6.63039">
        <ele>85.9</ele>
        <time>2023-11-05T10:14:28Z</time>
      </trkpt>
      <trkpt lat="43.50828" lon="6.63038">
        <ele>85.8</ele>
        <time>2023-11-05T10:14:29Z</time>
      </trkpt>
      <trkpt lat="43.50827" lon="6.63038">
        <ele>85.5</ele>
        <time>2023-11-05T10:14:30Z</time>
      </trkpt>
      <trkpt lat="43.50826" lon="6.63038">
        <ele>85.3</ele>
        <time>2023-11-05T10:14:31Z</time>
      </trkpt>
      <trkpt lat="43.50826" lon="6.63037">
        <ele>85.1</ele>
        <time>2023-11-05T10:14:32Z</time>
      </trkpt>
      <trkpt lat="43.50825" lon="6.63036">
        <ele>85</ele>
        <time>2023-11-05T10:14:33Z</time>
      </trkpt>
      <trkpt lat="43.50824" lon="6.63036">
        <ele>84.8</ele>
        <time>2023-11-05T10:14:34Z</time>
      </trkpt>
      <trkpt lat="43.50823" lon="6.63036">
        <ele>84.7</ele>
        <time>2023-11-05T10:14:35Z</time>
      </trkpt>
      <trkpt lat="43.50822" lon="6.63035">
        <ele>84.5</ele>
        <time>2023-11-05T10:14:36Z</time>
      </trkpt>
      <trkpt lat="43.50822" lon="6.63035">
        <ele>84.2</ele>
        <time>2023-11-05T10:14:37Z</time>
      </trkpt>
      <trkpt lat="43.50821" lon="6.63035">
        <ele>84</ele>
        <time>2023-11-05T10:14:38Z</time>
      </trkpt>
      <trkpt lat="43.5082" lon="6.63034">
        <ele>83.8</ele>
        <time>2023-11-05T10:14:39Z</time>
      </trkpt>
      <trkpt lat="43.5082" lon="6.63033">
        <ele>83.6</ele>
        <time>2023-11-05T10:14:40Z</time>
      </trkpt>
      <trkpt lat="43.50819" lon="6.63032">
        <ele>83.2</ele>
        <time>2023-11-05T10:14:41Z</time>
      </trkpt>
      <trkpt lat="43.50818" lon="6.63031">
        <ele>83</ele>
        <time>2023-11-05T10:14:42Z</time>
      </trkpt>
      <trkpt lat="43.50818" lon="6.6303">
        <ele>82.8</ele>
        <time>2023-11-05T10:14:43Z</time>
      </trkpt>
      <trkpt lat="43.50817" lon="6.63029">
        <ele>82.6</ele>
        <time>2023-11-05T10:14:44Z</time>
      </trkpt>
      <trkpt lat="43.50816" lon="6.63029">
        <ele>82.3</ele>
        <time>2023-11-05T10:14:45Z</time>
      </trkpt>
      <trkpt lat="43.50816" lon="6.63029">
        <ele>82.2</ele>
        <time>2023-11-05T10:14:46Z</time>
      </trkpt>
      <trkpt lat="43.50815" lon="6.63028">
        <ele>82</ele>
        <time>2023-11-05T10:14:47Z</time>
      </trkpt>
      <trkpt lat="43.50815" lon="6.63028">
        <ele>81.8</ele>
        <time>2023-11-05T10:14:48Z</time>
      </trkpt>
      <trkpt lat="43.50814" lon="6.63028">
        <ele>81.6</ele>
        <time>2023-11-05T10:14:49Z</time>
      </trkpt>
      <trkpt lat="43.50813" lon="6.63027">
        <ele>81.3</ele>
        <time>2023-11-05T10:14:50Z</time>
      </trkpt>
      <trkpt lat="43.50813" lon="6.63027">
        <ele>81</ele>
        <time>2023-11-05T10:14:51Z</time>
      </trkpt>
      <trkpt lat="43.50812" lon="6.63026">
        <ele>80.8</ele>
        <time>2023-11-05T10:14:52Z</time>
      </trkpt>
      <trkpt lat="43.50812" lon="6.63025">
        <ele>80.5</ele>
        <time>2023-11-05T10:14:53Z</time>
      </trkpt>
      <trkpt lat="43.50811" lon="6.63024">
        <ele>80.2</ele>
        <time>2023-11-05T10:14:54Z</time>
      </trkpt>
      <trkpt lat="43.5081" lon="6.63024">
        <ele>80</ele>
        <time>2023-11-05T10:14:55Z</time>
      </trkpt>
      <trkpt lat="43.5081" lon="6.63024">
        <ele>79.8</ele>
        <time>2023-11-05T10:14:56Z</time>
      </trkpt>
      <trkpt lat="43.50809" lon="6.63024">
        <ele>79.6</ele>
        <time>2023-11-05T10:14:57Z</time>
      </trkpt>
      <trkpt lat="43.50808" lon="6.63023">
        <ele>79.4</ele>
        <time>2023-11-05T10:14:58Z</time>
      </trkpt>
      <trkpt lat="43.50808" lon="6.63022">
        <ele>79.1</ele>
        <time>2023-11-05T10:14:59Z</time>
      </trkpt>
      <trkpt lat="43.50807" lon="6.63021">
        <ele>78.8</ele>
        <time>2023-11-05T10:15:00Z</time>
      </trkpt>
      <trkpt lat="43.50806" lon="6.63021">
        <ele>78.5</ele>
        <time>2023-11-05T10:15:01Z</time>
      </trkpt>
      <trkpt lat="43.50805" lon="6.63021">
        <ele>78.3</ele>
        <time>2023-11-05T10:15:02Z</time>
      </trkpt>
      <trkpt lat="43.50805" lon="6.6302">
        <ele>78</ele>
        <time>2023-11-05T10:15:03Z</time>
      </trkpt>
      <trkpt lat="43.50804" lon="6.6302">
        <ele>77.9</ele>
        <time>2023-11-05T10:15:04Z</time>
      </trkpt>
      <trkpt lat="43.50803" lon="6.6302">
        <ele>77.7</ele>
        <time>2023-11-05T10:15:05Z</time>
      </trkpt>
      <trkpt lat="43.50802" lon="6.63019">
        <ele>77.6</ele>
        <time>2023-11-05T10:15:06Z</time>
      </trkpt>
      <trkpt lat="43.50801" lon="6.63019">
        <ele>77.5</ele>
        <time>2023-11-05T10:15:07Z</time>
      </trkpt>
      <trkpt lat="43.50799" lon="6.63018">
        <ele>77.5</ele>
        <time>2023-11-05T10:15:08Z</time>
      </trkpt>
      <trkpt lat="43.50798" lon="6.63018">
        <ele>77.5</ele>
        <time>2023-11-05T10:15:09Z</time>
      </trkpt>
      <trkpt lat="43.50797" lon="6.63017">
        <ele>77.5</ele>
        <time>2023-11-05T10:15:10Z</time>
      </trkpt>
      <trkpt lat="43.50796" lon="6.63017">
        <ele>77.7</ele>
        <time>2023-11-05T10:15:11Z</time>
      </trkpt>
      <trkpt lat="43.50795" lon="6.63018">
        <ele>77.7</ele>
        <time>2023-11-05T10:15:12Z</time>
      </trkpt>
      <trkpt lat="43.50794" lon="6.63018">
        <ele>77.7</ele>
        <time>2023-11-05T10:15:13Z</time>
      </trkpt>
      <trkpt lat="43.50793" lon="6.63018">
        <ele>77.8</ele>
        <time>2023-11-05T10:15:14Z</time>
      </trkpt>
      <trkpt lat="43.50792" lon="6.63019">
        <ele>77.8</ele>
        <time>2023-11-05T10:15:15Z</time>
      </trkpt>
      <trkpt lat="43.5079" lon="6.63018">
        <ele>77.9</ele>
        <time>2023-11-05T10:15:16Z</time>
      </trkpt>
      <trkpt lat="43.50789" lon="6.63019">
        <ele>77.9</ele>
        <time>2023-11-05T10:15:17Z</time>
      </trkpt>
      <trkpt lat="43.50788" lon="6.63019">
        <ele>78</ele>
        <time>2023-11-05T10:15:18Z</time>
      </trkpt>
      <trkpt lat="43.50787" lon="6.63019">
        <ele>78</ele>
        <time>2023-11-05T10:15:19Z</time>
      </trkpt>
      <trkpt lat="43.50786" lon="6.6302">
        <ele>78</ele>
        <time>2023-11-05T10:15:20Z</time>
      </trkpt>
      <trkpt lat="43.50784" lon="6.6302">
        <ele>78</ele>
        <time>2023-11-05T10:15:21Z</time>
      </trkpt>
      <trkpt lat="43.50783" lon="6.6302">
        <ele>77.9</ele>
        <time>2023-11-05T10:15:22Z</time>
      </trkpt>
      <trkpt lat="43.50783" lon="6.63021">
        <ele>77.8</ele>
        <time>2023-11-05T10:15:23Z</time>
      </trkpt>
      <trkpt lat="43.50782" lon="6.63021">
        <ele>77.6</ele>
        <time>2023-11-05T10:15:24Z</time>
      </trkpt>
      <trkpt lat="43.50781" lon="6.63021">
        <ele>77.4</ele>
        <time>2023-11-05T10:15:25Z</time>
      </trkpt>
      <trkpt lat="43.50779" lon="6.63021">
        <ele>77.2</ele>
        <time>2023-11-05T10:15:26Z</time>
      </trkpt>
      <trkpt lat="43.50778" lon="6.63021">
        <ele>76.9</ele>
        <time>2023-11-05T10:15:27Z</time>
      </trkpt>
      <trkpt lat="43.50777" lon="6.6302">
        <ele>76.5</ele>
        <time>2023-11-05T10:15:28Z</time>
      </trkpt>
      <trkpt lat="43.50776" lon="6.6302">
        <ele>76.3</ele>
        <time>2023-11-05T10:15:29Z</time>
      </trkpt>
      <trkpt lat="43.50775" lon="6.63019">
        <ele>76.2</ele>
        <time>2023-11-05T10:15:30Z</time>
      </trkpt>
      <trkpt lat="43.50774" lon="6.6302">
        <ele>75.9</ele>
        <time>2023-11-05T10:15:31Z</time>
      </trkpt>
      <trkpt lat="43.50774" lon="6.6302">
        <ele>75.7</ele>
        <time>2023-11-05T10:15:32Z</time>
      </trkpt>
      <trkpt lat="43.50773" lon="6.6302">
        <ele>75.6</ele>
        <time>2023-11-05T10:15:33Z</time>
      </trkpt>
      <trkpt lat="43.50772" lon="6.6302">
        <ele>75.4</ele>
        <time>2023-11-05T10:15:34Z</time>
      </trkpt>
      <trkpt lat="43.50771" lon="6.6302">
        <ele>75.3</ele>
        <time>2023-11-05T10:15:35Z</time>
      </trkpt>
      <trkpt lat="43.5077" lon="6.63018">
        <ele>75.1</ele>
        <time>2023-11-05T10:15:36Z</time>
      </trkpt>
      <trkpt lat="43.50769" lon="6.63018">
        <ele>75</ele>
        <time>2023-11-05T10:15:37Z</time>
      </trkpt>
      <trkpt lat="43.50768" lon="6.63018">
        <ele>75</ele>
        <time>2023-11-05T10:15:38Z</time>
      </trkpt>
      <trkpt lat="43.50767" lon="6.63018">
        <ele>74.9</ele>
        <time>2023-11-05T10:15:39Z</time>
      </trkpt>
      <trkpt lat="43.50766" lon="6.63018">
        <ele>74.9</ele>
        <time>2023-11-05T10:15:40Z</time>
      </trkpt>
      <trkpt lat="43.50765" lon="6.63017">
        <ele>74.7</ele>
        <time>2023-11-05T10:15:41Z</time>
      </trkpt>
      <trkpt lat="43.50764" lon="6.63017">
        <ele>74.7</ele>
        <time>2023-11-05T10:15:42Z</time>
      </trkpt>
      <trkpt lat="43.50763" lon="6.63017">
        <ele>74.6</ele>
        <time>2023-11-05T10:15:43Z</time>
      </trkpt>
      <trkpt lat="43.50762" lon="6.63017">
        <ele>74.6</ele>
        <time>2023-11-05T10:15:44Z</time>
      </trkpt>
      <trkpt lat="43.50761" lon="6.63017">
        <ele>74.6</ele>
        <time>2023-11-05T10:15:45Z</time>
      </trkpt>
      <trkpt lat="43.5076" lon="6.63016">
        <ele>74.8</ele>
        <time>2023-11-05T10:15:46Z</time>
      </trkpt>
      <trkpt lat="43.50759" lon="6.63016">
        <ele>75</ele>
        <time>2023-11-05T10:15:47Z</time>
      </trkpt>
      <trkpt lat="43.50758" lon="6.63016">
        <ele>75.3</ele>
        <time>2023-11-05T10:15:48Z</time>
      </trkpt>
      <trkpt lat="43.50758" lon="6.63016">
        <ele>75.5</ele>
        <time>2023-11-05T10:15:49Z</time>
      </trkpt>
      <trkpt lat="43.50757" lon="6.63016">
        <ele>75.6</ele>
        <time>2023-11-05T10:15:50Z</time>
      </trkpt>
      <trkpt lat="43.50757" lon="6.63017">
        <ele>75.8</ele>
        <time>2023-11-05T10:15:51Z</time>
      </trkpt>
      <trkpt lat="43.50757" lon="6.63017">
        <ele>75.8</ele>
        <time>2023-11-05T10:15:52Z</time>
      </trkpt>
      <trkpt lat="43.50757" lon="6.63018">
        <ele>75.8</ele>
        <time>2023-11-05T10:15:53Z</time>
      </trkpt>
      <trkpt lat="43.50757" lon="6.63018">
        <ele>75.7</ele>
        <time>2023-11-05T10:15:54Z</time>
      </trkpt>
      <trkpt lat="43.50757" lon="6.63018">
        <ele>75.7</ele>
        <time>2023-11-05T10:15:55Z</time>
      </trkpt>
      <trkpt lat="43.50757" lon="6.63018">
        <ele>75.6</ele>
        <time>2023-11-05T10:15:56Z</time>
      </trkpt>
      <trkpt lat="43.50756" lon="6.63018">
        <ele>75.4</ele>
        <time>2023-11-05T10:15:57Z</time>
      </trkpt>
      <trkpt lat="43.50756" lon="6.63018">
        <ele>75.3</ele>
        <time>2023-11-05T10:15:58Z</time>
      </trkpt>
      <trkpt lat="43.50755" lon="6.63018">
        <ele>75.3</ele>
        <time>2023-11-05T10:15:59Z</time>
      </trkpt>
      <trkpt lat="43.50754" lon="6.63018">
        <ele>75.3</ele>
        <time>2023-11-05T10:16:00Z</time>
      </trkpt>
      <trkpt lat="43.50753" lon="6.63017">
        <ele>75.2</ele>
        <time>2023-11-05T10:16:01Z</time>
      </trkpt>
      <trkpt lat="43.50753" lon="6.63017">
        <ele>75.2</ele>
        <time>2023-11-05T10:16:02Z</time>
      </trkpt>
      <trkpt lat="43.50752" lon="6.63017">
        <ele>75.1</ele>
        <time>2023-11-05T10:16:03Z</time>
      </trkpt>
      <trkpt lat="43.50751" lon="6.63017">
        <ele>75.1</ele>
        <time>2023-11-05T10:16:04Z</time>
      </trkpt>
      <trkpt lat="43.5075" lon="6.63017">
        <ele>75.1</ele>
        <time>2023-11-05T10:16:05Z</time>
      </trkpt>
      <trkpt lat="43.50749" lon="6.63016">
        <ele>75</ele>
        <time>2023-11-05T10:16:06Z</time>
      </trkpt>
      <trkpt lat="43.50749" lon="6.63015">
        <ele>75</ele>
        <time>2023-11-05T10:16:07Z</time>
      </trkpt>
      <trkpt lat="43.50748" lon="6.63015">
        <ele>74.9</ele>
        <time>2023-11-05T10:16:08Z</time>
      </trkpt>
      <trkpt lat="43.50747" lon="6.63015">
        <ele>74.9</ele>
        <time>2023-11-05T10:16:09Z</time>
      </trkpt>
      <trkpt lat="43.50746" lon="6.63015">
        <ele>74.7</ele>
        <time>2023-11-05T10:16:10Z</time>
      </trkpt>
      <trkpt lat="43.50745" lon="6.63014">
        <ele>74.6</ele>
        <time>2023-11-05T10:16:11Z</time>
      </trkpt>
      <trkpt lat="43.50744" lon="6.63014">
        <ele>74.6</ele>
        <time>2023-11-05T10:16:12Z</time>
      </trkpt>
      <trkpt lat="43.50743" lon="6.63014">
        <ele>74.5</ele>
        <time>2023-11-05T10:16:13Z</time>
      </trkpt>
      <trkpt lat="43.50742" lon="6.63014">
        <ele>74.4</ele>
        <time>2023-11-05T10:16:14Z</time>
      </trkpt>
      <trkpt lat="43.50741" lon="6.63013">
        <ele>74.3</ele>
        <time>2023-11-05T10:16:15Z</time>
      </trkpt>
      <trkpt lat="43.5074" lon="6.63013">
        <ele>74.2</ele>
        <time>2023-11-05T10:16:16Z</time>
      </trkpt>
      <trkpt lat="43.50739" lon="6.63013">
        <ele>74.1</ele>
        <time>2023-11-05T10:16:17Z</time>
      </trkpt>
      <trkpt lat="43.50738" lon="6.63014">
        <ele>74.1</ele>
        <time>2023-11-05T10:16:18Z</time>
      </trkpt>
      <trkpt lat="43.50737" lon="6.63015">
        <ele>74</ele>
        <time>2023-11-05T10:16:19Z</time>
      </trkpt>
      <trkpt lat="43.50737" lon="6.63015">
        <ele>74</ele>
        <time>2023-11-05T10:16:20Z</time>
      </trkpt>
      <trkpt lat="43.50736" lon="6.63014">
        <ele>74</ele>
        <time>2023-11-05T10:16:21Z</time>
      </trkpt>
      <trkpt lat="43.50735" lon="6.63014">
        <ele>74.1</ele>
        <time>2023-11-05T10:16:22Z</time>
      </trkpt>
      <trkpt lat="43.50734" lon="6.63014">
        <ele>74</ele>
        <time>2023-11-05T10:16:23Z</time>
      </trkpt>
      <trkpt lat="43.50733" lon="6.63014">
        <ele>73.9</ele>
        <time>2023-11-05T10:16:24Z</time>
      </trkpt>
      <trkpt lat="43.50732" lon="6.63014">
        <ele>73.8</ele>
        <time>2023-11-05T10:16:25Z</time>
      </trkpt>
      <trkpt lat="43.50731" lon="6.63013">
        <ele>73.8</ele>
        <time>2023-11-05T10:16:26Z</time>
      </trkpt>
      <trkpt lat="43.5073" lon="6.63013">
        <ele>73.7</ele>
        <time>2023-11-05T10:16:27Z</time>
      </trkpt>
      <trkpt lat="43.50729" lon="6.63013">
        <ele>73.7</ele>
        <time>2023-11-05T10:16:28Z</time>
      </trkpt>
      <trkpt lat="43.50728" lon="6.63013">
        <ele>73.7</ele>
        <time>2023-11-05T10:16:29Z</time>
      </trkpt>
      <trkpt lat="43.50728" lon="6.63013">
        <ele>73.7</ele>
        <time>2023-11-05T10:16:30Z</time>
      </trkpt>
      <trkpt lat="43.50727" lon="6.63013">
        <ele>73.9</ele>
        <time>2023-11-05T10:16:31Z</time>
      </trkpt>
      <trkpt lat="43.50726" lon="6.63012">
        <ele>73.8</ele>
        <time>2023-11-05T10:16:32Z</time>
      </trkpt>
      <trkpt lat="43.50725" lon="6.63011">
        <ele>73.8</ele>
        <time>2023-11-05T10:16:33Z</time>
      </trkpt>
      <trkpt lat="43.50724" lon="6.63012">
        <ele>73.8</ele>
        <time>2023-11-05T10:16:34Z</time>
      </trkpt>
      <trkpt lat="43.50723" lon="6.63012">
        <ele>73.9</ele>
        <time>2023-11-05T10:16:35Z</time>
      </trkpt>
      <trkpt lat="43.50722" lon="6.63012">
        <ele>74</ele>
        <time>2023-11-05T10:16:36Z</time>
      </trkpt>
      <trkpt lat="43.50721" lon="6.63012">
        <ele>74.3</ele>
        <time>2023-11-05T10:16:37Z</time>
      </trkpt>
      <trkpt lat="43.5072" lon="6.6301">
        <ele>74.4</ele>
        <time>2023-11-05T10:16:38Z</time>
      </trkpt>
      <trkpt lat="43.50719" lon="6.6301">
        <ele>74.5</ele>
        <time>2023-11-05T10:16:39Z</time>
      </trkpt>
      <trkpt lat="43.50718" lon="6.63009">
        <ele>74.5</ele>
        <time>2023-11-05T10:16:40Z</time>
      </trkpt>
      <trkpt lat="43.50717" lon="6.63009">
        <ele>74.4</ele>
        <time>2023-11-05T10:16:41Z</time>
      </trkpt>
      <trkpt lat="43.50717" lon="6.63009">
        <ele>74.4</ele>
        <time>2023-11-05T10:16:42Z</time>
      </trkpt>
      <trkpt lat="43.50715" lon="6.63008">
        <ele>74.2</ele>
        <time>2023-11-05T10:16:43Z</time>
      </trkpt>
      <trkpt lat="43.50714" lon="6.63008">
        <ele>74.1</ele>
        <time>2023-11-05T10:16:44Z</time>
      </trkpt>
      <trkpt lat="43.50713" lon="6.63007">
        <ele>74</ele>
        <time>2023-11-05T10:16:45Z</time>
      </trkpt>
      <trkpt lat="43.50713" lon="6.63007">
        <ele>73.8</ele>
        <time>2023-11-05T10:16:46Z</time>
      </trkpt>
      <trkpt lat="43.50712" lon="6.63007">
        <ele>73.6</ele>
        <time>2023-11-05T10:16:47Z</time>
      </trkpt>
      <trkpt lat="43.50711" lon="6.63006">
        <ele>73.7</ele>
        <time>2023-11-05T10:16:48Z</time>
      </trkpt>
      <trkpt lat="43.50711" lon="6.63005">
        <ele>73.8</ele>
        <time>2023-11-05T10:16:49Z</time>
      </trkpt>
      <trkpt lat="43.5071" lon="6.63005">
        <ele>73.8</ele>
        <time>2023-11-05T10:16:50Z</time>
      </trkpt>
      <trkpt lat="43.50709" lon="6.63004">
        <ele>73.8</ele>
        <time>2023-11-05T10:16:51Z</time>
      </trkpt>
      <trkpt lat="43.50708" lon="6.63003">
        <ele>73.8</ele>
        <time>2023-11-05T10:16:52Z</time>
      </trkpt>
      <trkpt lat="43.50707" lon="6.63003">
        <ele>73.7</ele>
        <time>2023-11-05T10:16:53Z</time>
      </trkpt>
      <trkpt lat="43.50706" lon="6.63002">
        <ele>73.6</ele>
        <time>2023-11-05T10:16:54Z</time>
      </trkpt>
      <trkpt lat="43.50705" lon="6.63002">
        <ele>73.4</ele>
        <time>2023-11-05T10:16:55Z</time>
      </trkpt>
      <trkpt lat="43.50705" lon="6.63001">
        <ele>73.3</ele>
        <time>2023-11-05T10:16:56Z</time>
      </trkpt>
      <trkpt lat="43.50704" lon="6.63">
        <ele>73.2</ele>
        <time>2023-11-05T10:16:57Z</time>
      </trkpt>
      <trkpt lat="43.50703" lon="6.63">
        <ele>73.2</ele>
        <time>2023-11-05T10:16:58Z</time>
      </trkpt>
      <trkpt lat="43.50702" lon="6.62999">
        <ele>73.3</ele>
        <time>2023-11-05T10:16:59Z</time>
      </trkpt>
      <trkpt lat="43.50701" lon="6.62999">
        <ele>73.4</ele>
        <time>2023-11-05T10:17:00Z</time>
      </trkpt>
      <trkpt lat="43.507" lon="6.62999">
        <ele>73.4</ele>
        <time>2023-11-05T10:17:01Z</time>
      </trkpt>
      <trkpt lat="43.50699" lon="6.62998">
        <ele>73.4</ele>
        <time>2023-11-05T10:17:02Z</time>
      </trkpt>
      <trkpt lat="43.50698" lon="6.62998">
        <ele>73.4</ele>
        <time>2023-11-05T10:17:03Z</time>
      </trkpt>
      <trkpt lat="43.50697" lon="6.62997">
        <ele>73</ele>
        <time>2023-11-05T10:17:04Z</time>
      </trkpt>
      <trkpt lat="43.50696" lon="6.62997">
        <ele>72.5</ele>
        <time>2023-11-05T10:17:05Z</time>
      </trkpt>
      <trkpt lat="43.50695" lon="6.62996">
        <ele>72.1</ele>
        <time>2023-11-05T10:17:06Z</time>
      </trkpt>
      <trkpt lat="43.50694" lon="6.62996">
        <ele>71.9</ele>
        <time>2023-11-05T10:17:07Z</time>
      </trkpt>
      <trkpt lat="43.50693" lon="6.62995">
        <ele>72</ele>
        <time>2023-11-05T10:17:08Z</time>
      </trkpt>
      <trkpt lat="43.50692" lon="6.62994">
        <ele>72.1</ele>
        <time>2023-11-05T10:17:09Z</time>
      </trkpt>
      <trkpt lat="43.50691" lon="6.62996">
        <ele>72.2</ele>
        <time>2023-11-05T10:17:10Z</time>
      </trkpt>
      <trkpt lat="43.50691" lon="6.62996">
        <ele>72.2</ele>
        <time>2023-11-05T10:17:11Z</time>
      </trkpt>
      <trkpt lat="43.5069" lon="6.62995">
        <ele>72.3</ele>
        <time>2023-11-05T10:17:12Z</time>
      </trkpt>
      <trkpt lat="43.50689" lon="6.62995">
        <ele>72.4</ele>
        <time>2023-11-05T10:17:13Z</time>
      </trkpt>
      <trkpt lat="43.50688" lon="6.62996">
        <ele>72.4</ele>
        <time>2023-11-05T10:17:14Z</time>
      </trkpt>
      <trkpt lat="43.50686" lon="6.62996">
        <ele>72.6</ele>
        <time>2023-11-05T10:17:15Z</time>
      </trkpt>
      <trkpt lat="43.50685" lon="6.62995">
        <ele>72.6</ele>
        <time>2023-11-05T10:17:16Z</time>
      </trkpt>
      <trkpt lat="43.50684" lon="6.62995">
        <ele>72.7</ele>
        <time>2023-11-05T10:17:17Z</time>
      </trkpt>
      <trkpt lat="43.50684" lon="6.62995">
        <ele>72.9</ele>
        <time>2023-11-05T10:17:18Z</time>
      </trkpt>
      <trkpt lat="43.50683" lon="6.62996">
        <ele>73</ele>
        <time>2023-11-05T10:17:19Z</time>
      </trkpt>
      <trkpt lat="43.50682" lon="6.62996">
        <ele>72.9</ele>
        <time>2023-11-05T10:17:20Z</time>
      </trkpt>
      <trkpt lat="43.5068" lon="6.62996">
        <ele>72.9</ele>
        <time>2023-11-05T10:17:21Z</time>
      </trkpt>
      <trkpt lat="43.50679" lon="6.62996">
        <ele>72.9</ele>
        <time>2023-11-05T10:17:22Z</time>
      </trkpt>
      <trkpt lat="43.50679" lon="6.62997">
        <ele>73</ele>
        <time>2023-11-05T10:17:23Z</time>
      </trkpt>
      <trkpt lat="43.50677" lon="6.62997">
        <ele>73.3</ele>
        <time>2023-11-05T10:17:24Z</time>
      </trkpt>
      <trkpt lat="43.50677" lon="6.62997">
        <ele>73.5</ele>
        <time>2023-11-05T10:17:25Z</time>
      </trkpt>
      <trkpt lat="43.50676" lon="6.62997">
        <ele>73.7</ele>
        <time>2023-11-05T10:17:26Z</time>
      </trkpt>
      <trkpt lat="43.50675" lon="6.62998">
        <ele>73.8</ele>
        <time>2023-11-05T10:17:27Z</time>
      </trkpt>
      <trkpt lat="43.50674" lon="6.62998">
        <ele>73.9</ele>
        <time>2023-11-05T10:17:28Z</time>
      </trkpt>
      <trkpt lat="43.50673" lon="6.62999">
        <ele>73.9</ele>
        <time>2023-11-05T10:17:29Z</time>
      </trkpt>
      <trkpt lat="43.50672" lon="6.62999">
        <ele>73.9</ele>
        <time>2023-11-05T10:17:30Z</time>
      </trkpt>
      <trkpt lat="43.50671" lon="6.63">
        <ele>73.9</ele>
        <time>2023-11-05T10:17:31Z</time>
      </trkpt>
      <trkpt lat="43.5067" lon="6.63">
        <ele>73.9</ele>
        <time>2023-11-05T10:17:32Z</time>
      </trkpt>
      <trkpt lat="43.50669" lon="6.63001">
        <ele>73.9</ele>
        <time>2023-11-05T10:17:33Z</time>
      </trkpt>
      <trkpt lat="43.50668" lon="6.63001">
        <ele>73.9</ele>
        <time>2023-11-05T10:17:34Z</time>
      </trkpt>
      <trkpt lat="43.50667" lon="6.63001">
        <ele>73.8</ele>
        <time>2023-11-05T10:17:35Z</time>
      </trkpt>
      <trkpt lat="43.50667" lon="6.63002">
        <ele>73.8</ele>
        <time>2023-11-05T10:17:36Z</time>
      </trkpt>
      <trkpt lat="43.50666" lon="6.63002">
        <ele>73.8</ele>
        <time>2023-11-05T10:17:37Z</time>
      </trkpt>
      <trkpt lat="43.50665" lon="6.63003">
        <ele>73.8</ele>
        <time>2023-11-05T10:17:38Z</time>
      </trkpt>
      <trkpt lat="43.50664" lon="6.63003">
        <ele>73.8</ele>
        <time>2023-11-05T10:17:39Z</time>
      </trkpt>
      <trkpt lat="43.50663" lon="6.63004">
        <ele>73.8</ele>
        <time>2023-11-05T10:17:40Z</time>
      </trkpt>
      <trkpt lat="43.50662" lon="6.63004">
        <ele>73.8</ele>
        <time>2023-11-05T10:17:41Z</time>
      </trkpt>
      <trkpt lat="43.50662" lon="6.63006">
        <ele>73.8</ele>
        <time>2023-11-05T10:17:42Z</time>
      </trkpt>
      <trkpt lat="43.50661" lon="6.63007">
        <ele>73.8</ele>
        <time>2023-11-05T10:17:43Z</time>
      </trkpt>
      <trkpt lat="43.5066" lon="6.63008">
        <ele>73.8</ele>
        <time>2023-11-05T10:17:44Z</time>
      </trkpt>
      <trkpt lat="43.50659" lon="6.63008">
        <ele>73.7</ele>
        <time>2023-11-05T10:17:45Z</time>
      </trkpt>
      <trkpt lat="43.50658" lon="6.63009">
        <ele>73.6</ele>
        <time>2023-11-05T10:17:46Z</time>
      </trkpt>
      <trkpt lat="43.50657" lon="6.63009">
        <ele>73.5</ele>
        <time>2023-11-05T10:17:47Z</time>
      </trkpt>
      <trkpt lat="43.50656" lon="6.6301">
        <ele>73.4</ele>
        <time>2023-11-05T10:17:48Z</time>
      </trkpt>
      <trkpt lat="43.50655" lon="6.6301">
        <ele>73.3</ele>
        <time>2023-11-05T10:17:49Z</time>
      </trkpt>
      <trkpt lat="43.50655" lon="6.63011">
        <ele>73.4</ele>
        <time>2023-11-05T10:17:50Z</time>
      </trkpt>
      <trkpt lat="43.50654" lon="6.63012">
        <ele>73.4</ele>
        <time>2023-11-05T10:17:51Z</time>
      </trkpt>
      <trkpt lat="43.50653" lon="6.63013">
        <ele>73.4</ele>
        <time>2023-11-05T10:17:52Z</time>
      </trkpt>
      <trkpt lat="43.50652" lon="6.63013">
        <ele>73.3</ele>
        <time>2023-11-05T10:17:53Z</time>
      </trkpt>
      <trkpt lat="43.50651" lon="6.63014">
        <ele>73.2</ele>
        <time>2023-11-05T10:17:54Z</time>
      </trkpt>
      <trkpt lat="43.5065" lon="6.63014">
        <ele>73.1</ele>
        <time>2023-11-05T10:17:55Z</time>
      </trkpt>
      <trkpt lat="43.5065" lon="6.63015">
        <ele>73</ele>
        <time>2023-11-05T10:17:56Z</time>
      </trkpt>
      <trkpt lat="43.50649" lon="6.63016">
        <ele>72.9</ele>
        <time>2023-11-05T10:17:57Z</time>
      </trkpt>
      <trkpt lat="43.50648" lon="6.63016">
        <ele>72.9</ele>
        <time>2023-11-05T10:17:58Z</time>
      </trkpt>
      <trkpt lat="43.50647" lon="6.63017">
        <ele>72.6</ele>
        <time>2023-11-05T10:17:59Z</time>
      </trkpt>
      <trkpt lat="43.50646" lon="6.63017">
        <ele>72.5</ele>
        <time>2023-11-05T10:18:00Z</time>
      </trkpt>
      <trkpt lat="43.50645" lon="6.63018">
        <ele>72.4</ele>
        <time>2023-11-05T10:18:01Z</time>
      </trkpt>
      <trkpt lat="43.50644" lon="6.63018">
        <ele>72.3</ele>
        <time>2023-11-05T10:18:02Z</time>
      </trkpt>
      <trkpt lat="43.50643" lon="6.63018">
        <ele>72.2</ele>
        <time>2023-11-05T10:18:03Z</time>
      </trkpt>
      <trkpt lat="43.50642" lon="6.63017">
        <ele>72.1</ele>
        <time>2023-11-05T10:18:04Z</time>
      </trkpt>
      <trkpt lat="43.50641" lon="6.63018">
        <ele>72.1</ele>
        <time>2023-11-05T10:18:05Z</time>
      </trkpt>
      <trkpt lat="43.5064" lon="6.63019">
        <ele>71.9</ele>
        <time>2023-11-05T10:18:06Z</time>
      </trkpt>
      <trkpt lat="43.50639" lon="6.63019">
        <ele>71.8</ele>
        <time>2023-11-05T10:18:07Z</time>
      </trkpt>
      <trkpt lat="43.50638" lon="6.63019">
        <ele>71.7</ele>
        <time>2023-11-05T10:18:08Z</time>
      </trkpt>
      <trkpt lat="43.50637" lon="6.6302">
        <ele>71.6</ele>
        <time>2023-11-05T10:18:09Z</time>
      </trkpt>
      <trkpt lat="43.50636" lon="6.6302">
        <ele>71.5</ele>
        <time>2023-11-05T10:18:10Z</time>
      </trkpt>
      <trkpt lat="43.50636" lon="6.63019">
        <ele>71.4</ele>
        <time>2023-11-05T10:18:11Z</time>
      </trkpt>
      <trkpt lat="43.50635" lon="6.63019">
        <ele>71.3</ele>
        <time>2023-11-05T10:18:12Z</time>
      </trkpt>
      <trkpt lat="43.50634" lon="6.63019">
        <ele>71.2</ele>
        <time>2023-11-05T10:18:13Z</time>
      </trkpt>
      <trkpt lat="43.50633" lon="6.63019">
        <ele>71.2</ele>
        <time>2023-11-05T10:18:14Z</time>
      </trkpt>
      <trkpt lat="43.50632" lon="6.63019">
        <ele>71.1</ele>
        <time>2023-11-05T10:18:15Z</time>
      </trkpt>
      <trkpt lat="43.50631" lon="6.63019">
        <ele>71</ele>
        <time>2023-11-05T10:18:16Z</time>
      </trkpt>
      <trkpt lat="43.5063" lon="6.63019">
        <ele>70.9</ele>
        <time>2023-11-05T10:18:17Z</time>
      </trkpt>
      <trkpt lat="43.50629" lon="6.63019">
        <ele>70.7</ele>
        <time>2023-11-05T10:18:18Z</time>
      </trkpt>
      <trkpt lat="43.50628" lon="6.63019">
        <ele>70.4</ele>
        <time>2023-11-05T10:18:19Z</time>
      </trkpt>
      <trkpt lat="43.50627" lon="6.63019">
        <ele>70.1</ele>
        <time>2023-11-05T10:18:20Z</time>
      </trkpt>
      <trkpt lat="43.50626" lon="6.63019">
        <ele>69.9</ele>
        <time>2023-11-05T10:18:21Z</time>
      </trkpt>
      <trkpt lat="43.50625" lon="6.63018">
        <ele>69.8</ele>
        <time>2023-11-05T10:18:22Z</time>
      </trkpt>
      <trkpt lat="43.50624" lon="6.63018">
        <ele>69.7</ele>
        <time>2023-11-05T10:18:23Z</time>
      </trkpt>
      <trkpt lat="43.50623" lon="6.63018">
        <ele>69.5</ele>
        <time>2023-11-05T10:18:24Z</time>
      </trkpt>
      <trkpt lat="43.50622" lon="6.63018">
        <ele>69.5</ele>
        <time>2023-11-05T10:18:25Z</time>
      </trkpt>
      <trkpt lat="43.50622" lon="6.63017">
        <ele>69.5</ele>
        <time>2023-11-05T10:18:26Z</time>
      </trkpt>
      <trkpt lat="43.50621" lon="6.63016">
        <ele>69.5</ele>
        <time>2023-11-05T10:18:27Z</time>
      </trkpt>
      <trkpt lat="43.5062" lon="6.63016">
        <ele>69.5</ele>
        <time>2023-11-05T10:18:28Z</time>
      </trkpt>
      <trkpt lat="43.50619" lon="6.63016">
        <ele>69.5</ele>
        <time>2023-11-05T10:18:29Z</time>
      </trkpt>
      <trkpt lat="43.50618" lon="6.63016">
        <ele>69.5</ele>
        <time>2023-11-05T10:18:30Z</time>
      </trkpt>
      <trkpt lat="43.50616" lon="6.63015">
        <ele>69.3</ele>
        <time>2023-11-05T10:18:31Z</time>
      </trkpt>
      <trkpt lat="43.50616" lon="6.63014">
        <ele>69.2</ele>
        <time>2023-11-05T10:18:32Z</time>
      </trkpt>
      <trkpt lat="43.50616" lon="6.63014">
        <ele>69.1</ele>
        <time>2023-11-05T10:18:33Z</time>
      </trkpt>
      <trkpt lat="43.50615" lon="6.63014">
        <ele>69.1</ele>
        <time>2023-11-05T10:18:34Z</time>
      </trkpt>
      <trkpt lat="43.50615" lon="6.63014">
        <ele>69</ele>
        <time>2023-11-05T10:18:35Z</time>
      </trkpt>
      <trkpt lat="43.50615" lon="6.63014">
        <ele>69</ele>
        <time>2023-11-05T10:18:36Z</time>
      </trkpt>
      <trkpt lat="43.50614" lon="6.63015">
        <ele>68.9</ele>
        <time>2023-11-05T10:18:37Z</time>
      </trkpt>
      <trkpt lat="43.50614" lon="6.63015">
        <ele>68.9</ele>
        <time>2023-11-05T10:18:38Z</time>
      </trkpt>
      <trkpt lat="43.50614" lon="6.63015">
        <ele>68.9</ele>
        <time>2023-11-05T10:18:39Z</time>
      </trkpt>
      <trkpt lat="43.50614" lon="6.63015">
        <ele>68.8</ele>
        <time>2023-11-05T10:18:40Z</time>
      </trkpt>
      <trkpt lat="43.50614" lon="6.63015">
        <ele>68.9</ele>
        <time>2023-11-05T10:18:41Z</time>
      </trkpt>
      <trkpt lat="43.50614" lon="6.63015">
        <ele>68.9</ele>
        <time>2023-11-05T10:18:42Z</time>
      </trkpt>
      <trkpt lat="43.50614" lon="6.63016">
        <ele>68.9</ele>
        <time>2023-11-05T10:18:43Z</time>
      </trkpt>
      <trkpt lat="43.50614" lon="6.63016">
        <ele>68.9</ele>
        <time>2023-11-05T10:18:44Z</time>
      </trkpt>
      <trkpt lat="43.50614" lon="6.63016">
        <ele>69</ele>
        <time>2023-11-05T10:18:45Z</time>
      </trkpt>
      <trkpt lat="43.50613" lon="6.63016">
        <ele>69.2</ele>
        <time>2023-11-05T10:18:46Z</time>
      </trkpt>
      <trkpt lat="43.50613" lon="6.63016">
        <ele>69.4</ele>
        <time>2023-11-05T10:18:47Z</time>
      </trkpt>
      <trkpt lat="43.50613" lon="6.63016">
        <ele>69.5</ele>
        <time>2023-11-05T10:18:48Z</time>
      </trkpt>
      <trkpt lat="43.50613" lon="6.63016">
        <ele>69.6</ele>
        <time>2023-11-05T10:18:49Z</time>
      </trkpt>
      <trkpt lat="43.50613" lon="6.63016">
        <ele>69.6</ele>
        <time>2023-11-05T10:18:50Z</time>
      </trkpt>
      <trkpt lat="43.50613" lon="6.63016">
        <ele>69.5</ele>
        <time>2023-11-05T10:18:51Z</time>
      </trkpt>
      <trkpt lat="43.50613" lon="6.63016">
        <ele>69.5</ele>
        <time>2023-11-05T10:18:52Z</time>
      </trkpt>
      <trkpt lat="43.50613" lon="6.63016">
        <ele>69.4</ele>
        <time>2023-11-05T10:18:53Z</time>
      </trkpt>
      <trkpt lat="43.50612" lon="6.63016">
        <ele>69.4</ele>
        <time>2023-11-05T10:18:54Z</time>
      </trkpt>
      <trkpt lat="43.50612" lon="6.63016">
        <ele>69.6</ele>
        <time>2023-11-05T10:18:55Z</time>
      </trkpt>
      <trkpt lat="43.50612" lon="6.63016">
        <ele>69.8</ele>
        <time>2023-11-05T10:18:56Z</time>
      </trkpt>
      <trkpt lat="43.50612" lon="6.63016">
        <ele>70</ele>
        <time>2023-11-05T10:18:57Z</time>
      </trkpt>
      <trkpt lat="43.50612" lon="6.63017">
        <ele>70.1</ele>
        <time>2023-11-05T10:18:58Z</time>
      </trkpt>
      <trkpt lat="43.50611" lon="6.63017">
        <ele>70.1</ele>
        <time>2023-11-05T10:18:59Z</time>
      </trkpt>
      <trkpt lat="43.50611" lon="6.63017">
        <ele>70.1</ele>
        <time>2023-11-05T10:19:00Z</time>
      </trkpt>
      <trkpt lat="43.50611" lon="6.63017">
        <ele>70</ele>
        <time>2023-11-05T10:19:01Z</time>
      </trkpt>
      <trkpt lat="43.50612" lon="6.63017">
        <ele>69.9</ele>
        <time>2023-11-05T10:19:02Z</time>
      </trkpt>
      <trkpt lat="43.50612" lon="6.63017">
        <ele>69.9</ele>
        <time>2023-11-05T10:19:03Z</time>
      </trkpt>
      <trkpt lat="43.50612" lon="6.63017">
        <ele>69.7</ele>
        <time>2023-11-05T10:19:04Z</time>
      </trkpt>
      <trkpt lat="43.50612" lon="6.63017">
        <ele>69.5</ele>
        <time>2023-11-05T10:19:05Z</time>
      </trkpt>
      <trkpt lat="43.50612" lon="6.63017">
        <ele>69.4</ele>
        <time>2023-11-05T10:19:06Z</time>
      </trkpt>
      <trkpt lat="43.50612" lon="6.63017">
        <ele>69.3</ele>
        <time>2023-11-05T10:19:07Z</time>
      </trkpt>
      <trkpt lat="43.50612" lon="6.63017">
        <ele>69.2</ele>
        <time>2023-11-05T10:19:08Z</time>
      </trkpt>
      <trkpt lat="43.50612" lon="6.63017">
        <ele>69.1</ele>
        <time>2023-11-05T10:19:09Z</time>
      </trkpt>
      <trkpt lat="43.50612" lon="6.63017">
        <ele>69.2</ele>
        <time>2023-11-05T10:19:10Z</time>
      </trkpt>
      <trkpt lat="43.50612" lon="6.63018">
        <ele>69.3</ele>
        <time>2023-11-05T10:19:11Z</time>
      </trkpt>
      <trkpt lat="43.50612" lon="6.63018">
        <ele>69.4</ele>
        <time>2023-11-05T10:19:12Z</time>
      </trkpt>
      <trkpt lat="43.50612" lon="6.63018">
        <ele>69.6</ele>
        <time>2023-11-05T10:19:13Z</time>
      </trkpt>
      <trkpt lat="43.50612" lon="6.63018">
        <ele>70.1</ele>
        <time>2023-11-05T10:19:14Z</time>
      </trkpt>
      <trkpt lat="43.50612" lon="6.63018">
        <ele>70.1</ele>
        <time>2023-11-05T10:19:15Z</time>
      </trkpt>
      <trkpt lat="43.50612" lon="6.63018">
        <ele>70.1</ele>
        <time>2023-11-05T10:19:16Z</time>
      </trkpt>
      <trkpt lat="43.50612" lon="6.63018">
        <ele>70.1</ele>
        <time>2023-11-05T10:19:17Z</time>
      </trkpt>
      <trkpt lat="43.50612" lon="6.63018">
        <ele>70.1</ele>
        <time>2023-11-05T10:19:18Z</time>
      </trkpt>
      <trkpt lat="43.50611" lon="6.63019">
        <ele>70.1</ele>
        <time>2023-11-05T10:19:19Z</time>
      </trkpt>
      <trkpt lat="43.50611" lon="6.63019">
        <ele>70</ele>
        <time>2023-11-05T10:19:20Z</time>
      </trkpt>
      <trkpt lat="43.50611" lon="6.63019">
        <ele>69.9</ele>
        <time>2023-11-05T10:19:21Z</time>
      </trkpt>
      <trkpt lat="43.50611" lon="6.63019">
        <ele>70</ele>
        <time>2023-11-05T10:19:22Z</time>
      </trkpt>
      <trkpt lat="43.50611" lon="6.63019">
        <ele>70.1</ele>
        <time>2023-11-05T10:19:23Z</time>
      </trkpt>
      <trkpt lat="43.50611" lon="6.63019">
        <ele>70.2</ele>
        <time>2023-11-05T10:19:24Z</time>
      </trkpt>
      <trkpt lat="43.50611" lon="6.63019">
        <ele>70.2</ele>
        <time>2023-11-05T10:19:25Z</time>
      </trkpt>
      <trkpt lat="43.50611" lon="6.63019">
        <ele>70.4</ele>
        <time>2023-11-05T10:19:26Z</time>
      </trkpt>
      <trkpt lat="43.50611" lon="6.63019">
        <ele>70.4</ele>
        <time>2023-11-05T10:19:27Z</time>
      </trkpt>
      <trkpt lat="43.50611" lon="6.63019">
        <ele>70.4</ele>
        <time>2023-11-05T10:19:28Z</time>
      </trkpt>
      <trkpt lat="43.50611" lon="6.63019">
        <ele>70.2</ele>
        <time>2023-11-05T10:19:29Z</time>
      </trkpt>
      <trkpt lat="43.50611" lon="6.63019">
        <ele>70</ele>
        <time>2023-11-05T10:19:30Z</time>
      </trkpt>
      <trkpt lat="43.50611" lon="6.63019">
        <ele>69.9</ele>
        <time>2023-11-05T10:19:31Z</time>
      </trkpt>
      <trkpt lat="43.50611" lon="6.63019">
        <ele>69.9</ele>
        <time>2023-11-05T10:19:32Z</time>
      </trkpt>
      <trkpt lat="43.50611" lon="6.63019">
        <ele>69.8</ele>
        <time>2023-11-05T10:19:33Z</time>
      </trkpt>
      <trkpt lat="43.50611" lon="6.63019">
        <ele>69.7</ele>
        <time>2023-11-05T10:19:34Z</time>
      </trkpt>
      <trkpt lat="43.50611" lon="6.63019">
        <ele>69.6</ele>
        <time>2023-11-05T10:19:35Z</time>
      </trkpt>
      <trkpt lat="43.50611" lon="6.63019">
        <ele>69.5</ele>
        <time>2023-11-05T10:19:36Z</time>
      </trkpt>
      <trkpt lat="43.50611" lon="6.63019">
        <ele>69.5</ele>
        <time>2023-11-05T10:19:37Z</time>
      </trkpt>
      <trkpt lat="43.50611" lon="6.63019">
        <ele>69.4</ele>
        <time>2023-11-05T10:19:38Z</time>
      </trkpt>
      <trkpt lat="43.50611" lon="6.63019">
        <ele>69.4</ele>
        <time>2023-11-05T10:19:39Z</time>
      </trkpt>
      <trkpt lat="43.50612" lon="6.6302">
        <ele>69.4</ele>
        <time>2023-11-05T10:19:40Z</time>
      </trkpt>
      <trkpt lat="43.50612" lon="6.6302">
        <ele>69.5</ele>
        <time>2023-11-05T10:19:41Z</time>
      </trkpt>
      <trkpt lat="43.50612" lon="6.6302">
        <ele>69.5</ele>
        <time>2023-11-05T10:19:42Z</time>
      </trkpt>
      <trkpt lat="43.50612" lon="6.6302">
        <ele>69.5</ele>
        <time>2023-11-05T10:19:43Z</time>
      </trkpt>
      <trkpt lat="43.50612" lon="6.6302">
        <ele>69.4</ele>
        <time>2023-11-05T10:19:44Z</time>
      </trkpt>
      <trkpt lat="43.50612" lon="6.6302">
        <ele>69.4</ele>
        <time>2023-11-05T10:19:45Z</time>
      </trkpt>
      <trkpt lat="43.50612" lon="6.6302">
        <ele>69.4</ele>
        <time>2023-11-05T10:19:46Z</time>
      </trkpt>
      <trkpt lat="43.50612" lon="6.6302">
        <ele>69.3</ele>
        <time>2023-11-05T10:19:47Z</time>
      </trkpt>
      <trkpt lat="43.50612" lon="6.6302">
        <ele>69.4</ele>
        <time>2023-11-05T10:19:48Z</time>
      </trkpt>
      <trkpt lat="43.50611" lon="6.6302">
        <ele>69.5</ele>
        <time>2023-11-05T10:19:49Z</time>
      </trkpt>
      <trkpt lat="43.50611" lon="6.63021">
        <ele>69.6</ele>
        <time>2023-11-05T10:19:50Z</time>
      </trkpt>
      <trkpt lat="43.50611" lon="6.63021">
        <ele>69.7</ele>
        <time>2023-11-05T10:19:51Z</time>
      </trkpt>
      <trkpt lat="43.50611" lon="6.6302">
        <ele>69.8</ele>
        <time>2023-11-05T10:19:52Z</time>
      </trkpt>
      <trkpt lat="43.50611" lon="6.6302">
        <ele>69.9</ele>
        <time>2023-11-05T10:19:53Z</time>
      </trkpt>
      <trkpt lat="43.50611" lon="6.6302">
        <ele>69.9</ele>
        <time>2023-11-05T10:19:54Z</time>
      </trkpt>
      <trkpt lat="43.50612" lon="6.6302">
        <ele>69.9</ele>
        <time>2023-11-05T10:19:55Z</time>
      </trkpt>
      <trkpt lat="43.50612" lon="6.6302">
        <ele>69.8</ele>
        <time>2023-11-05T10:19:56Z</time>
      </trkpt>
      <trkpt lat="43.50612" lon="6.6302">
        <ele>69.5</ele>
        <time>2023-11-05T10:19:57Z</time>
      </trkpt>
      <trkpt lat="43.50612" lon="6.6302">
        <ele>69.3</ele>
        <time>2023-11-05T10:19:58Z</time>
      </trkpt>
      <trkpt lat="43.50611" lon="6.63021">
        <ele>69.2</ele>
        <time>2023-11-05T10:19:59Z</time>
      </trkpt>
      <trkpt lat="43.50611" lon="6.63021">
        <ele>69.4</ele>
        <time>2023-11-05T10:20:00Z</time>
      </trkpt>
      <trkpt lat="43.50611" lon="6.63021">
        <ele>69.3</ele>
        <time>2023-11-05T10:20:01Z</time>
      </trkpt>
      <trkpt lat="43.50611" lon="6.63021">
        <ele>69.2</ele>
        <time>2023-11-05T10:20:02Z</time>
      </trkpt>
      <trkpt lat="43.50611" lon="6.63022">
        <ele>69.2</ele>
        <time>2023-11-05T10:20:03Z</time>
      </trkpt>
      <trkpt lat="43.50611" lon="6.63022">
        <ele>69.2</ele>
        <time>2023-11-05T10:20:04Z</time>
      </trkpt>
      <trkpt lat="43.50612" lon="6.63022">
        <ele>69.2</ele>
        <time>2023-11-05T10:20:05Z</time>
      </trkpt>
      <trkpt lat="43.50612" lon="6.63022">
        <ele>69.2</ele>
        <time>2023-11-05T10:20:06Z</time>
      </trkpt>
      <trkpt lat="43.50611" lon="6.63022">
        <ele>69.2</ele>
        <time>2023-11-05T10:20:07Z</time>
      </trkpt>
      <trkpt lat="43.50611" lon="6.63022">
        <ele>69.1</ele>
        <time>2023-11-05T10:20:08Z</time>
      </trkpt>
      <trkpt lat="43.50611" lon="6.63022">
        <ele>69.2</ele>
        <time>2023-11-05T10:20:09Z</time>
      </trkpt>
      <trkpt lat="43.50611" lon="6.63022">
        <ele>69.3</ele>
        <time>2023-11-05T10:20:10Z</time>
      </trkpt>
      <trkpt lat="43.50611" lon="6.63022">
        <ele>69.3</ele>
        <time>2023-11-05T10:20:11Z</time>
      </trkpt>
      <trkpt lat="43.50611" lon="6.63023">
        <ele>69.4</ele>
        <time>2023-11-05T10:20:12Z</time>
      </trkpt>
      <trkpt lat="43.50611" lon="6.63023">
        <ele>69.4</ele>
        <time>2023-11-05T10:20:13Z</time>
      </trkpt>
      <trkpt lat="43.50611" lon="6.63023">
        <ele>69.6</ele>
        <time>2023-11-05T10:20:14Z</time>
      </trkpt>
      <trkpt lat="43.50611" lon="6.63023">
        <ele>69.5</ele>
        <time>2023-11-05T10:20:15Z</time>
      </trkpt>
      <trkpt lat="43.50611" lon="6.63023">
        <ele>69.5</ele>
        <time>2023-11-05T10:20:16Z</time>
      </trkpt>
      <trkpt lat="43.50611" lon="6.63023">
        <ele>69.4</ele>
        <time>2023-11-05T10:20:17Z</time>
      </trkpt>
      <trkpt lat="43.50611" lon="6.63023">
        <ele>69.3</ele>
        <time>2023-11-05T10:20:18Z</time>
      </trkpt>
      <trkpt lat="43.50611" lon="6.63023">
        <ele>69.3</ele>
        <time>2023-11-05T10:20:19Z</time>
      </trkpt>
      <trkpt lat="43.50611" lon="6.63023">
        <ele>69.3</ele>
        <time>2023-11-05T10:20:20Z</time>
      </trkpt>
      <trkpt lat="43.50611" lon="6.63023">
        <ele>69.3</ele>
        <time>2023-11-05T10:20:21Z</time>
      </trkpt>
      <trkpt lat="43.50611" lon="6.63023">
        <ele>69.3</ele>
        <time>2023-11-05T10:20:22Z</time>
      </trkpt>
      <trkpt lat="43.50611" lon="6.63022">
        <ele>69.3</ele>
        <time>2023-11-05T10:20:23Z</time>
      </trkpt>
      <trkpt lat="43.50611" lon="6.63022">
        <ele>69.2</ele>
        <time>2023-11-05T10:20:24Z</time>
      </trkpt>
      <trkpt lat="43.50611" lon="6.63022">
        <ele>69.2</ele>
        <time>2023-11-05T10:20:25Z</time>
      </trkpt>
      <trkpt lat="43.5061" lon="6.63023">
        <ele>69.2</ele>
        <time>2023-11-05T10:20:26Z</time>
      </trkpt>
      <trkpt lat="43.5061" lon="6.63023">
        <ele>69.3</ele>
        <time>2023-11-05T10:20:27Z</time>
      </trkpt>
      <trkpt lat="43.5061" lon="6.63023">
        <ele>69.3</ele>
        <time>2023-11-05T10:20:28Z</time>
      </trkpt>
      <trkpt lat="43.5061" lon="6.63023">
        <ele>69.3</ele>
        <time>2023-11-05T10:20:29Z</time>
      </trkpt>
      <trkpt lat="43.5061" lon="6.63023">
        <ele>69.3</ele>
        <time>2023-11-05T10:20:30Z</time>
      </trkpt>
      <trkpt lat="43.5061" lon="6.63023">
        <ele>69.3</ele>
        <time>2023-11-05T10:20:31Z</time>
      </trkpt>
      <trkpt lat="43.5061" lon="6.63023">
        <ele>69.3</ele>
        <time>2023-11-05T10:20:32Z</time>
      </trkpt>
      <trkpt lat="43.5061" lon="6.63023">
        <ele>69.3</ele>
        <time>2023-11-05T10:20:33Z</time>
      </trkpt>
      <trkpt lat="43.5061" lon="6.63024">
        <ele>69.3</ele>
        <time>2023-11-05T10:20:34Z</time>
      </trkpt>
      <trkpt lat="43.5061" lon="6.63024">
        <ele>69.3</ele>
        <time>2023-11-05T10:20:35Z</time>
      </trkpt>
      <trkpt lat="43.5061" lon="6.63024">
        <ele>69.3</ele>
        <time>2023-11-05T10:20:36Z</time>
      </trkpt>
      <trkpt lat="43.5061" lon="6.63024">
        <ele>69.2</ele>
        <time>2023-11-05T10:20:37Z</time>
      </trkpt>
      <trkpt lat="43.5061" lon="6.63024">
        <ele>69.3</ele>
        <time>2023-11-05T10:20:38Z</time>
      </trkpt>
      <trkpt lat="43.5061" lon="6.63024">
        <ele>69.2</ele>
        <time>2023-11-05T10:20:39Z</time>
      </trkpt>
      <trkpt lat="43.5061" lon="6.63024">
        <ele>69.1</ele>
        <time>2023-11-05T10:20:40Z</time>
      </trkpt>
      <trkpt lat="43.5061" lon="6.63024">
        <ele>69.1</ele>
        <time>2023-11-05T10:20:41Z</time>
      </trkpt>
      <trkpt lat="43.5061" lon="6.63024">
        <ele>69</ele>
        <time>2023-11-05T10:20:42Z</time>
      </trkpt>
      <trkpt lat="43.50609" lon="6.63025">
        <ele>69</ele>
        <time>2023-11-05T10:20:43Z</time>
      </trkpt>
      <trkpt lat="43.50609" lon="6.63025">
        <ele>69</ele>
        <time>2023-11-05T10:20:44Z</time>
      </trkpt>
      <trkpt lat="43.50609" lon="6.63025">
        <ele>68.9</ele>
        <time>2023-11-05T10:20:45Z</time>
      </trkpt>
      <trkpt lat="43.50609" lon="6.63025">
        <ele>68.9</ele>
        <time>2023-11-05T10:20:46Z</time>
      </trkpt>
      <trkpt lat="43.50609" lon="6.63025">
        <ele>68.9</ele>
        <time>2023-11-05T10:20:47Z</time>
      </trkpt>
      <trkpt lat="43.50609" lon="6.63025">
        <ele>69</ele>
        <time>2023-11-05T10:20:48Z</time>
      </trkpt>
      <trkpt lat="43.5061" lon="6.63025">
        <ele>68.9</ele>
        <time>2023-11-05T10:20:49Z</time>
      </trkpt>
      <trkpt lat="43.5061" lon="6.63025">
        <ele>68.9</ele>
        <time>2023-11-05T10:20:50Z</time>
      </trkpt>
      <trkpt lat="43.50609" lon="6.63025">
        <ele>68.9</ele>
        <time>2023-11-05T10:20:51Z</time>
      </trkpt>
      <trkpt lat="43.50609" lon="6.63025">
        <ele>68.9</ele>
        <time>2023-11-05T10:20:52Z</time>
      </trkpt>
      <trkpt lat="43.50609" lon="6.63025">
        <ele>68.8</ele>
        <time>2023-11-05T10:20:53Z</time>
      </trkpt>
      <trkpt lat="43.50609" lon="6.63025">
        <ele>68.8</ele>
        <time>2023-11-05T10:20:54Z</time>
      </trkpt>
      <trkpt lat="43.50609" lon="6.63025">
        <ele>68.9</ele>
        <time>2023-11-05T10:20:55Z</time>
      </trkpt>
      <trkpt lat="43.50609" lon="6.63025">
        <ele>68.9</ele>
        <time>2023-11-05T10:20:56Z</time>
      </trkpt>
      <trkpt lat="43.50609" lon="6.63025">
        <ele>69</ele>
        <time>2023-11-05T10:20:57Z</time>
      </trkpt>
      <trkpt lat="43.50609" lon="6.63025">
        <ele>69.1</ele>
        <time>2023-11-05T10:20:58Z</time>
      </trkpt>
      <trkpt lat="43.5061" lon="6.63024">
        <ele>69.1</ele>
        <time>2023-11-05T10:20:59Z</time>
      </trkpt>
      <trkpt lat="43.5061" lon="6.63024">
        <ele>69</ele>
        <time>2023-11-05T10:21:00Z</time>
      </trkpt>
      <trkpt lat="43.5061" lon="6.63024">
        <ele>69</ele>
        <time>2023-11-05T10:21:01Z</time>
      </trkpt>
      <trkpt lat="43.5061" lon="6.63024">
        <ele>69</ele>
        <time>2023-11-05T10:21:02Z</time>
      </trkpt>
      <trkpt lat="43.5061" lon="6.63024">
        <ele>69</ele>
        <time>2023-11-05T10:21:03Z</time>
      </trkpt>
      <trkpt lat="43.5061" lon="6.63025">
        <ele>68.9</ele>
        <time>2023-11-05T10:21:04Z</time>
      </trkpt>
      <trkpt lat="43.5061" lon="6.63024">
        <ele>69</ele>
        <time>2023-11-05T10:21:05Z</time>
      </trkpt>
      <trkpt lat="43.5061" lon="6.63024">
        <ele>69</ele>
        <time>2023-11-05T10:21:06Z</time>
      </trkpt>
      <trkpt lat="43.5061" lon="6.63024">
        <ele>69</ele>
        <time>2023-11-05T10:21:07Z</time>
      </trkpt>
      <trkpt lat="43.50611" lon="6.63024">
        <ele>69.1</ele>
        <time>2023-11-05T10:21:08Z</time>
      </trkpt>
      <trkpt lat="43.50611" lon="6.63024">
        <ele>69.2</ele>
        <time>2023-11-05T10:21:09Z</time>
      </trkpt>
      <trkpt lat="43.50611" lon="6.63023">
        <ele>69.3</ele>
        <time>2023-11-05T10:21:10Z</time>
      </trkpt>
      <trkpt lat="43.50611" lon="6.63023">
        <ele>69.3</ele>
        <time>2023-11-05T10:21:11Z</time>
      </trkpt>
      <trkpt lat="43.5061" lon="6.63023">
        <ele>69.2</ele>
        <time>2023-11-05T10:21:12Z</time>
      </trkpt>
      <trkpt lat="43.5061" lon="6.63023">
        <ele>69.3</ele>
        <time>2023-11-05T10:21:13Z</time>
      </trkpt>
      <trkpt lat="43.5061" lon="6.63022">
        <ele>69.2</ele>
        <time>2023-11-05T10:21:14Z</time>
      </trkpt>
      <trkpt lat="43.5061" lon="6.63021">
        <ele>69.1</ele>
        <time>2023-11-05T10:21:15Z</time>
      </trkpt>
      <trkpt lat="43.50609" lon="6.63021">
        <ele>69</ele>
        <time>2023-11-05T10:21:16Z</time>
      </trkpt>
      <trkpt lat="43.50609" lon="6.6302">
        <ele>68.8</ele>
        <time>2023-11-05T10:21:17Z</time>
      </trkpt>
      <trkpt lat="43.50608" lon="6.6302">
        <ele>68.7</ele>
        <time>2023-11-05T10:21:18Z</time>
      </trkpt>
      <trkpt lat="43.50607" lon="6.63019">
        <ele>68.6</ele>
        <time>2023-11-05T10:21:19Z</time>
      </trkpt>
      <trkpt lat="43.50606" lon="6.63019">
        <ele>68.3</ele>
        <time>2023-11-05T10:21:20Z</time>
      </trkpt>
      <trkpt lat="43.50604" lon="6.63019">
        <ele>68</ele>
        <time>2023-11-05T10:21:21Z</time>
      </trkpt>
      <trkpt lat="43.50603" lon="6.63019">
        <ele>67.7</ele>
        <time>2023-11-05T10:21:22Z</time>
      </trkpt>
      <trkpt lat="43.50603" lon="6.63018">
        <ele>67.5</ele>
        <time>2023-11-05T10:21:23Z</time>
      </trkpt>
      <trkpt lat="43.50602" lon="6.63017">
        <ele>67.3</ele>
        <time>2023-11-05T10:21:24Z</time>
      </trkpt>
      <trkpt lat="43.50601" lon="6.63016">
        <ele>67.3</ele>
        <time>2023-11-05T10:21:25Z</time>
      </trkpt>
      <trkpt lat="43.506" lon="6.63015">
        <ele>67.1</ele>
        <time>2023-11-05T10:21:26Z</time>
      </trkpt>
      <trkpt lat="43.506" lon="6.63014">
        <ele>67.1</ele>
        <time>2023-11-05T10:21:27Z</time>
      </trkpt>
      <trkpt lat="43.50599" lon="6.63012">
        <ele>67</ele>
        <time>2023-11-05T10:21:28Z</time>
      </trkpt>
      <trkpt lat="43.50598" lon="6.63011">
        <ele>67</ele>
        <time>2023-11-05T10:21:29Z</time>
      </trkpt>
      <trkpt lat="43.50597" lon="6.63011">
        <ele>66.9</ele>
        <time>2023-11-05T10:21:30Z</time>
      </trkpt>
      <trkpt lat="43.50595" lon="6.6301">
        <ele>66.6</ele>
        <time>2023-11-05T10:21:31Z</time>
      </trkpt>
      <trkpt lat="43.50594" lon="6.63009">
        <ele>66.4</ele>
        <time>2023-11-05T10:21:32Z</time>
      </trkpt>
      <trkpt lat="43.50593" lon="6.63008">
        <ele>66.3</ele>
        <time>2023-11-05T10:21:33Z</time>
      </trkpt>
      <trkpt lat="43.50593" lon="6.63007">
        <ele>66.2</ele>
        <time>2023-11-05T10:21:34Z</time>
      </trkpt>
      <trkpt lat="43.50591" lon="6.63006">
        <ele>66.4</ele>
        <time>2023-11-05T10:21:35Z</time>
      </trkpt>
      <trkpt lat="43.5059" lon="6.63005">
        <ele>66.4</ele>
        <time>2023-11-05T10:21:36Z</time>
      </trkpt>
      <trkpt lat="43.5059" lon="6.63004">
        <ele>66.3</ele>
        <time>2023-11-05T10:21:37Z</time>
      </trkpt>
      <trkpt lat="43.50589" lon="6.63003">
        <ele>66.2</ele>
        <time>2023-11-05T10:21:38Z</time>
      </trkpt>
      <trkpt lat="43.50588" lon="6.63003">
        <ele>66</ele>
        <time>2023-11-05T10:21:39Z</time>
      </trkpt>
      <trkpt lat="43.50586" lon="6.63002">
        <ele>65.7</ele>
        <time>2023-11-05T10:21:40Z</time>
      </trkpt>
      <trkpt lat="43.50585" lon="6.63001">
        <ele>65.5</ele>
        <time>2023-11-05T10:21:41Z</time>
      </trkpt>
      <trkpt lat="43.50584" lon="6.63001">
        <ele>65.3</ele>
        <time>2023-11-05T10:21:42Z</time>
      </trkpt>
      <trkpt lat="43.50583" lon="6.63">
        <ele>65</ele>
        <time>2023-11-05T10:21:43Z</time>
      </trkpt>
      <trkpt lat="43.50582" lon="6.63">
        <ele>65</ele>
        <time>2023-11-05T10:21:44Z</time>
      </trkpt>
      <trkpt lat="43.5058" lon="6.63001">
        <ele>64.9</ele>
        <time>2023-11-05T10:21:45Z</time>
      </trkpt>
      <trkpt lat="43.50579" lon="6.63002">
        <ele>64.8</ele>
        <time>2023-11-05T10:21:46Z</time>
      </trkpt>
      <trkpt lat="43.50578" lon="6.63002">
        <ele>64.8</ele>
        <time>2023-11-05T10:21:47Z</time>
      </trkpt>
      <trkpt lat="43.50577" lon="6.63001">
        <ele>64.7</ele>
        <time>2023-11-05T10:21:48Z</time>
      </trkpt>
      <trkpt lat="43.50576" lon="6.63001">
        <ele>64.6</ele>
        <time>2023-11-05T10:21:49Z</time>
      </trkpt>
      <trkpt lat="43.50575" lon="6.63">
        <ele>64.4</ele>
        <time>2023-11-05T10:21:50Z</time>
      </trkpt>
      <trkpt lat="43.50574" lon="6.63">
        <ele>64.4</ele>
        <time>2023-11-05T10:21:51Z</time>
      </trkpt>
      <trkpt lat="43.50573" lon="6.63">
        <ele>64.3</ele>
        <time>2023-11-05T10:21:52Z</time>
      </trkpt>
      <trkpt lat="43.50572" lon="6.62999">
        <ele>64.3</ele>
        <time>2023-11-05T10:21:53Z</time>
      </trkpt>
      <trkpt lat="43.50572" lon="6.62999">
        <ele>64.2</ele>
        <time>2023-11-05T10:21:54Z</time>
      </trkpt>
      <trkpt lat="43.50571" lon="6.62998">
        <ele>64.1</ele>
        <time>2023-11-05T10:21:55Z</time>
      </trkpt>
      <trkpt lat="43.5057" lon="6.62997">
        <ele>64.1</ele>
        <time>2023-11-05T10:21:56Z</time>
      </trkpt>
      <trkpt lat="43.5057" lon="6.62996">
        <ele>63.9</ele>
        <time>2023-11-05T10:21:57Z</time>
      </trkpt>
      <trkpt lat="43.5057" lon="6.62995">
        <ele>63.6</ele>
        <time>2023-11-05T10:21:58Z</time>
      </trkpt>
      <trkpt lat="43.5057" lon="6.62994">
        <ele>63.3</ele>
        <time>2023-11-05T10:21:59Z</time>
      </trkpt>
      <trkpt lat="43.50571" lon="6.62993">
        <ele>63.1</ele>
        <time>2023-11-05T10:22:00Z</time>
      </trkpt>
      <trkpt lat="43.50571" lon="6.62993">
        <ele>63.3</ele>
        <time>2023-11-05T10:22:01Z</time>
      </trkpt>
      <trkpt lat="43.50571" lon="6.62993">
        <ele>63.5</ele>
        <time>2023-11-05T10:22:02Z</time>
      </trkpt>
      <trkpt lat="43.50571" lon="6.62993">
        <ele>63.6</ele>
        <time>2023-11-05T10:22:03Z</time>
      </trkpt>
      <trkpt lat="43.50571" lon="6.62993">
        <ele>63.8</ele>
        <time>2023-11-05T10:22:04Z</time>
      </trkpt>
      <trkpt lat="43.50571" lon="6.62993">
        <ele>63.9</ele>
        <time>2023-11-05T10:22:05Z</time>
      </trkpt>
      <trkpt lat="43.50571" lon="6.62993">
        <ele>64</ele>
        <time>2023-11-05T10:22:06Z</time>
      </trkpt>
      <trkpt lat="43.50571" lon="6.62993">
        <ele>64.1</ele>
        <time>2023-11-05T10:22:07Z</time>
      </trkpt>
      <trkpt lat="43.50571" lon="6.62993">
        <ele>64.1</ele>
        <time>2023-11-05T10:22:08Z</time>
      </trkpt>
      <trkpt lat="43.50571" lon="6.62992">
        <ele>64.1</ele>
        <time>2023-11-05T10:22:09Z</time>
      </trkpt>
      <trkpt lat="43.50571" lon="6.62992">
        <ele>64.1</ele>
        <time>2023-11-05T10:22:10Z</time>
      </trkpt>
      <trkpt lat="43.50571" lon="6.62992">
        <ele>64.1</ele>
        <time>2023-11-05T10:22:11Z</time>
      </trkpt>
      <trkpt lat="43.50571" lon="6.62992">
        <ele>64.1</ele>
        <time>2023-11-05T10:22:12Z</time>
      </trkpt>
      <trkpt lat="43.50571" lon="6.62992">
        <ele>64.1</ele>
        <time>2023-11-05T10:22:13Z</time>
      </trkpt>
      <trkpt lat="43.50571" lon="6.62992">
        <ele>64.1</ele>
        <time>2023-11-05T10:22:14Z</time>
      </trkpt>
      <trkpt lat="43.50571" lon="6.62991">
        <ele>64.1</ele>
        <time>2023-11-05T10:22:15Z</time>
      </trkpt>
      <trkpt lat="43.50571" lon="6.62991">
        <ele>64</ele>
        <time>2023-11-05T10:22:16Z</time>
      </trkpt>
      <trkpt lat="43.50571" lon="6.62991">
        <ele>64</ele>
        <time>2023-11-05T10:22:17Z</time>
      </trkpt>
      <trkpt lat="43.50571" lon="6.62991">
        <ele>64</ele>
        <time>2023-11-05T10:22:18Z</time>
      </trkpt>
      <trkpt lat="43.5057" lon="6.62991">
        <ele>63.9</ele>
        <time>2023-11-05T10:22:19Z</time>
      </trkpt>
      <trkpt lat="43.5057" lon="6.62991">
        <ele>63.6</ele>
        <time>2023-11-05T10:22:20Z</time>
      </trkpt>
      <trkpt lat="43.5057" lon="6.62991">
        <ele>63.4</ele>
        <time>2023-11-05T10:22:21Z</time>
      </trkpt>
      <trkpt lat="43.5057" lon="6.62991">
        <ele>63.4</ele>
        <time>2023-11-05T10:22:22Z</time>
      </trkpt>
      <trkpt lat="43.5057" lon="6.62991">
        <ele>63.4</ele>
        <time>2023-11-05T10:22:23Z</time>
      </trkpt>
      <trkpt lat="43.5057" lon="6.62991">
        <ele>63.5</ele>
        <time>2023-11-05T10:22:24Z</time>
      </trkpt>
      <trkpt lat="43.5057" lon="6.62991">
        <ele>63.7</ele>
        <time>2023-11-05T10:22:25Z</time>
      </trkpt>
      <trkpt lat="43.50569" lon="6.62991">
        <ele>63.7</ele>
        <time>2023-11-05T10:22:26Z</time>
      </trkpt>
      <trkpt lat="43.50569" lon="6.62991">
        <ele>63.7</ele>
        <time>2023-11-05T10:22:27Z</time>
      </trkpt>
      <trkpt lat="43.50569" lon="6.62991">
        <ele>63.7</ele>
        <time>2023-11-05T10:22:28Z</time>
      </trkpt>
      <trkpt lat="43.50568" lon="6.62991">
        <ele>63.7</ele>
        <time>2023-11-05T10:22:29Z</time>
      </trkpt>
      <trkpt lat="43.50568" lon="6.62991">
        <ele>63.7</ele>
        <time>2023-11-05T10:22:30Z</time>
      </trkpt>
      <trkpt lat="43.50568" lon="6.62991">
        <ele>63.7</ele>
        <time>2023-11-05T10:22:31Z</time>
      </trkpt>
      <trkpt lat="43.50568" lon="6.62991">
        <ele>63.8</ele>
        <time>2023-11-05T10:22:32Z</time>
      </trkpt>
      <trkpt lat="43.50568" lon="6.62991">
        <ele>63.8</ele>
        <time>2023-11-05T10:22:33Z</time>
      </trkpt>
      <trkpt lat="43.50569" lon="6.62991">
        <ele>63.9</ele>
        <time>2023-11-05T10:22:34Z</time>
      </trkpt>
      <trkpt lat="43.50569" lon="6.6299">
        <ele>63.9</ele>
        <time>2023-11-05T10:22:35Z</time>
      </trkpt>
      <trkpt lat="43.50569" lon="6.6299">
        <ele>64</ele>
        <time>2023-11-05T10:22:36Z</time>
      </trkpt>
      <trkpt lat="43.50569" lon="6.6299">
        <ele>64</ele>
        <time>2023-11-05T10:22:37Z</time>
      </trkpt>
      <trkpt lat="43.50569" lon="6.6299">
        <ele>64.1</ele>
        <time>2023-11-05T10:22:38Z</time>
      </trkpt>
      <trkpt lat="43.50569" lon="6.6299">
        <ele>64.2</ele>
        <time>2023-11-05T10:22:39Z</time>
      </trkpt>
      <trkpt lat="43.50569" lon="6.6299">
        <ele>64.2</ele>
        <time>2023-11-05T10:22:40Z</time>
      </trkpt>
      <trkpt lat="43.50569" lon="6.6299">
        <ele>64.2</ele>
        <time>2023-11-05T10:22:41Z</time>
      </trkpt>
      <trkpt lat="43.50569" lon="6.6299">
        <ele>64.3</ele>
        <time>2023-11-05T10:22:42Z</time>
      </trkpt>
      <trkpt lat="43.50569" lon="6.6299">
        <ele>64.3</ele>
        <time>2023-11-05T10:22:43Z</time>
      </trkpt>
      <trkpt lat="43.50569" lon="6.6299">
        <ele>64.2</ele>
        <time>2023-11-05T10:22:44Z</time>
      </trkpt>
      <trkpt lat="43.50569" lon="6.6299">
        <ele>64.3</ele>
        <time>2023-11-05T10:22:45Z</time>
      </trkpt>
      <trkpt lat="43.50569" lon="6.6299">
        <ele>64.3</ele>
        <time>2023-11-05T10:22:46Z</time>
      </trkpt>
      <trkpt lat="43.5057" lon="6.6299">
        <ele>64.3</ele>
        <time>2023-11-05T10:22:47Z</time>
      </trkpt>
      <trkpt lat="43.5057" lon="6.6299">
        <ele>64.5</ele>
        <time>2023-11-05T10:22:48Z</time>
      </trkpt>
      <trkpt lat="43.5057" lon="6.6299">
        <ele>64.6</ele>
        <time>2023-11-05T10:22:49Z</time>
      </trkpt>
      <trkpt lat="43.5057" lon="6.6299">
        <ele>64.5</ele>
        <time>2023-11-05T10:22:50Z</time>
      </trkpt>
      <trkpt lat="43.5057" lon="6.6299">
        <ele>64.4</ele>
        <time>2023-11-05T10:22:51Z</time>
      </trkpt>
      <trkpt lat="43.5057" lon="6.6299">
        <ele>64.5</ele>
        <time>2023-11-05T10:22:52Z</time>
      </trkpt>
      <trkpt lat="43.5057" lon="6.6299">
        <ele>64.4</ele>
        <time>2023-11-05T10:22:53Z</time>
      </trkpt>
      <trkpt lat="43.5057" lon="6.62991">
        <ele>64.4</ele>
        <time>2023-11-05T10:22:54Z</time>
      </trkpt>
      <trkpt lat="43.5057" lon="6.62991">
        <ele>64.3</ele>
        <time>2023-11-05T10:22:55Z</time>
      </trkpt>
      <trkpt lat="43.5057" lon="6.62991">
        <ele>64.3</ele>
        <time>2023-11-05T10:22:56Z</time>
      </trkpt>
      <trkpt lat="43.5057" lon="6.6299">
        <ele>64.4</ele>
        <time>2023-11-05T10:22:57Z</time>
      </trkpt>
      <trkpt lat="43.5057" lon="6.6299">
        <ele>64.5</ele>
        <time>2023-11-05T10:22:58Z</time>
      </trkpt>
      <trkpt lat="43.5057" lon="6.6299">
        <ele>64.6</ele>
        <time>2023-11-05T10:22:59Z</time>
      </trkpt>
      <trkpt lat="43.5057" lon="6.6299">
        <ele>64.7</ele>
        <time>2023-11-05T10:23:00Z</time>
      </trkpt>
      <trkpt lat="43.5057" lon="6.6299">
        <ele>64.8</ele>
        <time>2023-11-05T10:23:01Z</time>
      </trkpt>
      <trkpt lat="43.5057" lon="6.6299">
        <ele>64.9</ele>
        <time>2023-11-05T10:23:02Z</time>
      </trkpt>
      <trkpt lat="43.5057" lon="6.6299">
        <ele>64.9</ele>
        <time>2023-11-05T10:23:03Z</time>
      </trkpt>
      <trkpt lat="43.5057" lon="6.6299">
        <ele>65</ele>
        <time>2023-11-05T10:23:04Z</time>
      </trkpt>
      <trkpt lat="43.5057" lon="6.6299">
        <ele>65</ele>
        <time>2023-11-05T10:23:05Z</time>
      </trkpt>
      <trkpt lat="43.5057" lon="6.6299">
        <ele>65</ele>
        <time>2023-11-05T10:23:06Z</time>
      </trkpt>
      <trkpt lat="43.5057" lon="6.6299">
        <ele>65.2</ele>
        <time>2023-11-05T10:23:07Z</time>
      </trkpt>
      <trkpt lat="43.5057" lon="6.6299">
        <ele>65.1</ele>
        <time>2023-11-05T10:23:08Z</time>
      </trkpt>
      <trkpt lat="43.5057" lon="6.6299">
        <ele>64.9</ele>
        <time>2023-11-05T10:23:09Z</time>
      </trkpt>
      <trkpt lat="43.5057" lon="6.6299">
        <ele>64.8</ele>
        <time>2023-11-05T10:23:10Z</time>
      </trkpt>
      <trkpt lat="43.5057" lon="6.6299">
        <ele>64.7</ele>
        <time>2023-11-05T10:23:11Z</time>
      </trkpt>
      <trkpt lat="43.5057" lon="6.6299">
        <ele>64.8</ele>
        <time>2023-11-05T10:23:12Z</time>
      </trkpt>
      <trkpt lat="43.5057" lon="6.6299">
        <ele>64.6</ele>
        <time>2023-11-05T10:23:13Z</time>
      </trkpt>
      <trkpt lat="43.50569" lon="6.6299">
        <ele>64.4</ele>
        <time>2023-11-05T10:23:14Z</time>
      </trkpt>
      <trkpt lat="43.50569" lon="6.6299">
        <ele>64.4</ele>
        <time>2023-11-05T10:23:15Z</time>
      </trkpt>
      <trkpt lat="43.50569" lon="6.62991">
        <ele>64.4</ele>
        <time>2023-11-05T10:23:16Z</time>
      </trkpt>
      <trkpt lat="43.50569" lon="6.62991">
        <ele>64.5</ele>
        <time>2023-11-05T10:23:17Z</time>
      </trkpt>
      <trkpt lat="43.50569" lon="6.62991">
        <ele>64.7</ele>
        <time>2023-11-05T10:23:18Z</time>
      </trkpt>
      <trkpt lat="43.50569" lon="6.62991">
        <ele>64.8</ele>
        <time>2023-11-05T10:23:19Z</time>
      </trkpt>
      <trkpt lat="43.50569" lon="6.62991">
        <ele>64.9</ele>
        <time>2023-11-05T10:23:20Z</time>
      </trkpt>
      <trkpt lat="43.50569" lon="6.62991">
        <ele>64.9</ele>
        <time>2023-11-05T10:23:21Z</time>
      </trkpt>
      <trkpt lat="43.50569" lon="6.62991">
        <ele>65</ele>
        <time>2023-11-05T10:23:22Z</time>
      </trkpt>
      <trkpt lat="43.50569" lon="6.62991">
        <ele>64.9</ele>
        <time>2023-11-05T10:23:23Z</time>
      </trkpt>
      <trkpt lat="43.50569" lon="6.62991">
        <ele>64.8</ele>
        <time>2023-11-05T10:23:24Z</time>
      </trkpt>
      <trkpt lat="43.50569" lon="6.62991">
        <ele>64.7</ele>
        <time>2023-11-05T10:23:25Z</time>
      </trkpt>
      <trkpt lat="43.50568" lon="6.62991">
        <ele>64.6</ele>
        <time>2023-11-05T10:23:26Z</time>
      </trkpt>
      <trkpt lat="43.50568" lon="6.62992">
        <ele>64.6</ele>
        <time>2023-11-05T10:23:27Z</time>
      </trkpt>
      <trkpt lat="43.50567" lon="6.62992">
        <ele>64.3</ele>
        <time>2023-11-05T10:23:28Z</time>
      </trkpt>
      <trkpt lat="43.50567" lon="6.62992">
        <ele>64.3</ele>
        <time>2023-11-05T10:23:29Z</time>
      </trkpt>
      <trkpt lat="43.50566" lon="6.62992">
        <ele>64.5</ele>
        <time>2023-11-05T10:23:30Z</time>
      </trkpt>
      <trkpt lat="43.50567" lon="6.62992">
        <ele>64.6</ele>
        <time>2023-11-05T10:23:31Z</time>
      </trkpt>
      <trkpt lat="43.50567" lon="6.62992">
        <ele>64.7</ele>
        <time>2023-11-05T10:23:32Z</time>
      </trkpt>
      <trkpt lat="43.50567" lon="6.62992">
        <ele>63.9</ele>
        <time>2023-11-05T10:23:33Z</time>
      </trkpt>
      <trkpt lat="43.50567" lon="6.62992">
        <ele>63.9</ele>
        <time>2023-11-05T10:23:34Z</time>
      </trkpt>
      <trkpt lat="43.50567" lon="6.62992">
        <ele>64</ele>
        <time>2023-11-05T10:23:35Z</time>
      </trkpt>
      <trkpt lat="43.50566" lon="6.62991">
        <ele>64.1</ele>
        <time>2023-11-05T10:23:36Z</time>
      </trkpt>
      <trkpt lat="43.50566" lon="6.62992">
        <ele>64.1</ele>
        <time>2023-11-05T10:23:37Z</time>
      </trkpt>
      <trkpt lat="43.50565" lon="6.62992">
        <ele>64</ele>
        <time>2023-11-05T10:23:38Z</time>
      </trkpt>
      <trkpt lat="43.50565" lon="6.62993">
        <ele>64.1</ele>
        <time>2023-11-05T10:23:39Z</time>
      </trkpt>
      <trkpt lat="43.50564" lon="6.62994">
        <ele>64.1</ele>
        <time>2023-11-05T10:23:40Z</time>
      </trkpt>
      <trkpt lat="43.50564" lon="6.62994">
        <ele>64</ele>
        <time>2023-11-05T10:23:41Z</time>
      </trkpt>
      <trkpt lat="43.50563" lon="6.62994">
        <ele>64</ele>
        <time>2023-11-05T10:23:42Z</time>
      </trkpt>
      <trkpt lat="43.50563" lon="6.62995">
        <ele>64</ele>
        <time>2023-11-05T10:23:43Z</time>
      </trkpt>
      <trkpt lat="43.50563" lon="6.62995">
        <ele>64</ele>
        <time>2023-11-05T10:23:44Z</time>
      </trkpt>
      <trkpt lat="43.50562" lon="6.62996">
        <ele>64</ele>
        <time>2023-11-05T10:23:45Z</time>
      </trkpt>
      <trkpt lat="43.50562" lon="6.62995">
        <ele>64</ele>
        <time>2023-11-05T10:23:46Z</time>
      </trkpt>
      <trkpt lat="43.50561" lon="6.62995">
        <ele>63.9</ele>
        <time>2023-11-05T10:23:47Z</time>
      </trkpt>
      <trkpt lat="43.50561" lon="6.62995">
        <ele>63.8</ele>
        <time>2023-11-05T10:23:48Z</time>
      </trkpt>
      <trkpt lat="43.5056" lon="6.62996">
        <ele>63.7</ele>
        <time>2023-11-05T10:23:49Z</time>
      </trkpt>
      <trkpt lat="43.50559" lon="6.62996">
        <ele>63.6</ele>
        <time>2023-11-05T10:23:50Z</time>
      </trkpt>
      <trkpt lat="43.50558" lon="6.62996">
        <ele>63.5</ele>
        <time>2023-11-05T10:23:51Z</time>
      </trkpt>
      <trkpt lat="43.50557" lon="6.62997">
        <ele>63.3</ele>
        <time>2023-11-05T10:23:52Z</time>
      </trkpt>
      <trkpt lat="43.50556" lon="6.62997">
        <ele>63.1</ele>
        <time>2023-11-05T10:23:53Z</time>
      </trkpt>
      <trkpt lat="43.50555" lon="6.62997">
        <ele>63.1</ele>
        <time>2023-11-05T10:23:54Z</time>
      </trkpt>
      <trkpt lat="43.50554" lon="6.62997">
        <ele>63.2</ele>
        <time>2023-11-05T10:23:55Z</time>
      </trkpt>
      <trkpt lat="43.50553" lon="6.62997">
        <ele>63.3</ele>
        <time>2023-11-05T10:23:56Z</time>
      </trkpt>
      <trkpt lat="43.50552" lon="6.62998">
        <ele>63.3</ele>
        <time>2023-11-05T10:23:57Z</time>
      </trkpt>
      <trkpt lat="43.50552" lon="6.62998">
        <ele>63.2</ele>
        <time>2023-11-05T10:23:58Z</time>
      </trkpt>
      <trkpt lat="43.5055" lon="6.62997">
        <ele>63.2</ele>
        <time>2023-11-05T10:23:59Z</time>
      </trkpt>
      <trkpt lat="43.5055" lon="6.62997">
        <ele>63.2</ele>
        <time>2023-11-05T10:24:00Z</time>
      </trkpt>
      <trkpt lat="43.50549" lon="6.62998">
        <ele>63.1</ele>
        <time>2023-11-05T10:24:01Z</time>
      </trkpt>
      <trkpt lat="43.50549" lon="6.62999">
        <ele>63.1</ele>
        <time>2023-11-05T10:24:02Z</time>
      </trkpt>
      <trkpt lat="43.50549" lon="6.62999">
        <ele>63.1</ele>
        <time>2023-11-05T10:24:03Z</time>
      </trkpt>
      <trkpt lat="43.50548" lon="6.62999">
        <ele>62.8</ele>
        <time>2023-11-05T10:24:04Z</time>
      </trkpt>
      <trkpt lat="43.50547" lon="6.62999">
        <ele>62.5</ele>
        <time>2023-11-05T10:24:05Z</time>
      </trkpt>
      <trkpt lat="43.50547" lon="6.62998">
        <ele>62.3</ele>
        <time>2023-11-05T10:24:06Z</time>
      </trkpt>
      <trkpt lat="43.50546" lon="6.62998">
        <ele>62.2</ele>
        <time>2023-11-05T10:24:07Z</time>
      </trkpt>
      <trkpt lat="43.50545" lon="6.62999">
        <ele>62.1</ele>
        <time>2023-11-05T10:24:08Z</time>
      </trkpt>
      <trkpt lat="43.50544" lon="6.62999">
        <ele>62.1</ele>
        <time>2023-11-05T10:24:09Z</time>
      </trkpt>
      <trkpt lat="43.50543" lon="6.62999">
        <ele>61.8</ele>
        <time>2023-11-05T10:24:10Z</time>
      </trkpt>
      <trkpt lat="43.50542" lon="6.63">
        <ele>61.5</ele>
        <time>2023-11-05T10:24:11Z</time>
      </trkpt>
      <trkpt lat="43.50542" lon="6.63">
        <ele>61.3</ele>
        <time>2023-11-05T10:24:12Z</time>
      </trkpt>
      <trkpt lat="43.50541" lon="6.63001">
        <ele>61.2</ele>
        <time>2023-11-05T10:24:13Z</time>
      </trkpt>
      <trkpt lat="43.5054" lon="6.63001">
        <ele>61.2</ele>
        <time>2023-11-05T10:24:14Z</time>
      </trkpt>
      <trkpt lat="43.50539" lon="6.63001">
        <ele>61.1</ele>
        <time>2023-11-05T10:24:15Z</time>
      </trkpt>
      <trkpt lat="43.50538" lon="6.63002">
        <ele>60.9</ele>
        <time>2023-11-05T10:24:16Z</time>
      </trkpt>
      <trkpt lat="43.50537" lon="6.63002">
        <ele>60.7</ele>
        <time>2023-11-05T10:24:17Z</time>
      </trkpt>
      <trkpt lat="43.50536" lon="6.63002">
        <ele>60.7</ele>
        <time>2023-11-05T10:24:18Z</time>
      </trkpt>
      <trkpt lat="43.50535" lon="6.63002">
        <ele>60.7</ele>
        <time>2023-11-05T10:24:19Z</time>
      </trkpt>
      <trkpt lat="43.50534" lon="6.63002">
        <ele>60.8</ele>
        <time>2023-11-05T10:24:20Z</time>
      </trkpt>
      <trkpt lat="43.50533" lon="6.63003">
        <ele>60.9</ele>
        <time>2023-11-05T10:24:21Z</time>
      </trkpt>
      <trkpt lat="43.50532" lon="6.63003">
        <ele>61</ele>
        <time>2023-11-05T10:24:22Z</time>
      </trkpt>
      <trkpt lat="43.50531" lon="6.63003">
        <ele>61</ele>
        <time>2023-11-05T10:24:23Z</time>
      </trkpt>
      <trkpt lat="43.5053" lon="6.63003">
        <ele>60.9</ele>
        <time>2023-11-05T10:24:24Z</time>
      </trkpt>
      <trkpt lat="43.50529" lon="6.63004">
        <ele>60.8</ele>
        <time>2023-11-05T10:24:25Z</time>
      </trkpt>
      <trkpt lat="43.50528" lon="6.63004">
        <ele>60.7</ele>
        <time>2023-11-05T10:24:26Z</time>
      </trkpt>
      <trkpt lat="43.50527" lon="6.63004">
        <ele>60.7</ele>
        <time>2023-11-05T10:24:27Z</time>
      </trkpt>
      <trkpt lat="43.50526" lon="6.63005">
        <ele>60.5</ele>
        <time>2023-11-05T10:24:28Z</time>
      </trkpt>
      <trkpt lat="43.50525" lon="6.63005">
        <ele>60.3</ele>
        <time>2023-11-05T10:24:29Z</time>
      </trkpt>
      <trkpt lat="43.50523" lon="6.63005">
        <ele>60.2</ele>
        <time>2023-11-05T10:24:30Z</time>
      </trkpt>
      <trkpt lat="43.50522" lon="6.63006">
        <ele>60.2</ele>
        <time>2023-11-05T10:24:31Z</time>
      </trkpt>
      <trkpt lat="43.5052" lon="6.63005">
        <ele>60</ele>
        <time>2023-11-05T10:24:32Z</time>
      </trkpt>
      <trkpt lat="43.50519" lon="6.63004">
        <ele>59.8</ele>
        <time>2023-11-05T10:24:33Z</time>
      </trkpt>
      <trkpt lat="43.50518" lon="6.63004">
        <ele>59.5</ele>
        <time>2023-11-05T10:24:34Z</time>
      </trkpt>
      <trkpt lat="43.50517" lon="6.63004">
        <ele>59.6</ele>
        <time>2023-11-05T10:24:35Z</time>
      </trkpt>
      <trkpt lat="43.50515" lon="6.63004">
        <ele>59.9</ele>
        <time>2023-11-05T10:24:36Z</time>
      </trkpt>
      <trkpt lat="43.50514" lon="6.63004">
        <ele>59.6</ele>
        <time>2023-11-05T10:24:37Z</time>
      </trkpt>
      <trkpt lat="43.50513" lon="6.63004">
        <ele>59.5</ele>
        <time>2023-11-05T10:24:38Z</time>
      </trkpt>
      <trkpt lat="43.50513" lon="6.63004">
        <ele>59.5</ele>
        <time>2023-11-05T10:24:39Z</time>
      </trkpt>
      <trkpt lat="43.50512" lon="6.63003">
        <ele>59.4</ele>
        <time>2023-11-05T10:24:40Z</time>
      </trkpt>
      <trkpt lat="43.50511" lon="6.63002">
        <ele>59.4</ele>
        <time>2023-11-05T10:24:41Z</time>
      </trkpt>
      <trkpt lat="43.5051" lon="6.63001">
        <ele>59.4</ele>
        <time>2023-11-05T10:24:42Z</time>
      </trkpt>
      <trkpt lat="43.50509" lon="6.63001">
        <ele>59.4</ele>
        <time>2023-11-05T10:24:43Z</time>
      </trkpt>
      <trkpt lat="43.50509" lon="6.63001">
        <ele>59.5</ele>
        <time>2023-11-05T10:24:44Z</time>
      </trkpt>
      <trkpt lat="43.50509" lon="6.63001">
        <ele>59.6</ele>
        <time>2023-11-05T10:24:45Z</time>
      </trkpt>
      <trkpt lat="43.50508" lon="6.63">
        <ele>59.7</ele>
        <time>2023-11-05T10:24:46Z</time>
      </trkpt>
      <trkpt lat="43.50507" lon="6.62999">
        <ele>59.8</ele>
        <time>2023-11-05T10:24:47Z</time>
      </trkpt>
      <trkpt lat="43.50506" lon="6.62999">
        <ele>59.7</ele>
        <time>2023-11-05T10:24:48Z</time>
      </trkpt>
      <trkpt lat="43.50505" lon="6.62999">
        <ele>59.7</ele>
        <time>2023-11-05T10:24:49Z</time>
      </trkpt>
      <trkpt lat="43.50504" lon="6.62998">
        <ele>59.7</ele>
        <time>2023-11-05T10:24:50Z</time>
      </trkpt>
      <trkpt lat="43.50503" lon="6.62998">
        <ele>59.7</ele>
        <time>2023-11-05T10:24:51Z</time>
      </trkpt>
      <trkpt lat="43.50502" lon="6.62996">
        <ele>59.7</ele>
        <time>2023-11-05T10:24:52Z</time>
      </trkpt>
      <trkpt lat="43.50502" lon="6.62995">
        <ele>59.6</ele>
        <time>2023-11-05T10:24:53Z</time>
      </trkpt>
      <trkpt lat="43.50501" lon="6.62994">
        <ele>59.6</ele>
        <time>2023-11-05T10:24:54Z</time>
      </trkpt>
      <trkpt lat="43.505" lon="6.62993">
        <ele>59.6</ele>
        <time>2023-11-05T10:24:55Z</time>
      </trkpt>
      <trkpt lat="43.50499" lon="6.62992">
        <ele>59.6</ele>
        <time>2023-11-05T10:24:56Z</time>
      </trkpt>
      <trkpt lat="43.50498" lon="6.62992">
        <ele>59.6</ele>
        <time>2023-11-05T10:24:57Z</time>
      </trkpt>
      <trkpt lat="43.50498" lon="6.62991">
        <ele>59.6</ele>
        <time>2023-11-05T10:24:58Z</time>
      </trkpt>
      <trkpt lat="43.50498" lon="6.62991">
        <ele>59.7</ele>
        <time>2023-11-05T10:24:59Z</time>
      </trkpt>
      <trkpt lat="43.50498" lon="6.6299">
        <ele>59.5</ele>
        <time>2023-11-05T10:25:00Z</time>
      </trkpt>
      <trkpt lat="43.50497" lon="6.62989">
        <ele>59.4</ele>
        <time>2023-11-05T10:25:01Z</time>
      </trkpt>
      <trkpt lat="43.50496" lon="6.62988">
        <ele>59.2</ele>
        <time>2023-11-05T10:25:02Z</time>
      </trkpt>
      <trkpt lat="43.50495" lon="6.62986">
        <ele>59</ele>
        <time>2023-11-05T10:25:03Z</time>
      </trkpt>
      <trkpt lat="43.50494" lon="6.62985">
        <ele>58.9</ele>
        <time>2023-11-05T10:25:04Z</time>
      </trkpt>
      <trkpt lat="43.50493" lon="6.62984">
        <ele>58.9</ele>
        <time>2023-11-05T10:25:05Z</time>
      </trkpt>
      <trkpt lat="43.50492" lon="6.62984">
        <ele>58.9</ele>
        <time>2023-11-05T10:25:06Z</time>
      </trkpt>
      <trkpt lat="43.50491" lon="6.62982">
        <ele>58.8</ele>
        <time>2023-11-05T10:25:07Z</time>
      </trkpt>
      <trkpt lat="43.5049" lon="6.62982">
        <ele>58.7</ele>
        <time>2023-11-05T10:25:08Z</time>
      </trkpt>
      <trkpt lat="43.50489" lon="6.62981">
        <ele>58.6</ele>
        <time>2023-11-05T10:25:09Z</time>
      </trkpt>
      <trkpt lat="43.50488" lon="6.6298">
        <ele>58.5</ele>
        <time>2023-11-05T10:25:10Z</time>
      </trkpt>
      <trkpt lat="43.50487" lon="6.62979">
        <ele>58.4</ele>
        <time>2023-11-05T10:25:11Z</time>
      </trkpt>
      <trkpt lat="43.50486" lon="6.62978">
        <ele>58.2</ele>
        <time>2023-11-05T10:25:12Z</time>
      </trkpt>
      <trkpt lat="43.50486" lon="6.62977">
        <ele>58</ele>
        <time>2023-11-05T10:25:13Z</time>
      </trkpt>
      <trkpt lat="43.50485" lon="6.62976">
        <ele>57.9</ele>
        <time>2023-11-05T10:25:14Z</time>
      </trkpt>
      <trkpt lat="43.50484" lon="6.62975">
        <ele>57.8</ele>
        <time>2023-11-05T10:25:15Z</time>
      </trkpt>
      <trkpt lat="43.50483" lon="6.62974">
        <ele>57.7</ele>
        <time>2023-11-05T10:25:16Z</time>
      </trkpt>
      <trkpt lat="43.50483" lon="6.62972">
        <ele>57.6</ele>
        <time>2023-11-05T10:25:17Z</time>
      </trkpt>
      <trkpt lat="43.50481" lon="6.62971">
        <ele>57.5</ele>
        <time>2023-11-05T10:25:18Z</time>
      </trkpt>
      <trkpt lat="43.5048" lon="6.6297">
        <ele>57.5</ele>
        <time>2023-11-05T10:25:19Z</time>
      </trkpt>
      <trkpt lat="43.5048" lon="6.62969">
        <ele>57.5</ele>
        <time>2023-11-05T10:25:20Z</time>
      </trkpt>
      <trkpt lat="43.50479" lon="6.62968">
        <ele>57.5</ele>
        <time>2023-11-05T10:25:21Z</time>
      </trkpt>
      <trkpt lat="43.50478" lon="6.62967">
        <ele>57.5</ele>
        <time>2023-11-05T10:25:22Z</time>
      </trkpt>
      <trkpt lat="43.50478" lon="6.62965">
        <ele>57.4</ele>
        <time>2023-11-05T10:25:23Z</time>
      </trkpt>
      <trkpt lat="43.50478" lon="6.62963">
        <ele>57.3</ele>
        <time>2023-11-05T10:25:24Z</time>
      </trkpt>
      <trkpt lat="43.50477" lon="6.62962">
        <ele>57.2</ele>
        <time>2023-11-05T10:25:25Z</time>
      </trkpt>
      <trkpt lat="43.50477" lon="6.6296">
        <ele>57.1</ele>
        <time>2023-11-05T10:25:26Z</time>
      </trkpt>
      <trkpt lat="43.50476" lon="6.62959">
        <ele>56.9</ele>
        <time>2023-11-05T10:25:27Z</time>
      </trkpt>
      <trkpt lat="43.50475" lon="6.62959">
        <ele>56.8</ele>
        <time>2023-11-05T10:25:28Z</time>
      </trkpt>
      <trkpt lat="43.50475" lon="6.62957">
        <ele>56.8</ele>
        <time>2023-11-05T10:25:29Z</time>
      </trkpt>
      <trkpt lat="43.50474" lon="6.62956">
        <ele>56.9</ele>
        <time>2023-11-05T10:25:30Z</time>
      </trkpt>
      <trkpt lat="43.50474" lon="6.62955">
        <ele>56.8</ele>
        <time>2023-11-05T10:25:31Z</time>
      </trkpt>
      <trkpt lat="43.50473" lon="6.62954">
        <ele>56.8</ele>
        <time>2023-11-05T10:25:32Z</time>
      </trkpt>
      <trkpt lat="43.50473" lon="6.62953">
        <ele>56.7</ele>
        <time>2023-11-05T10:25:33Z</time>
      </trkpt>
      <trkpt lat="43.50472" lon="6.62951">
        <ele>56.6</ele>
        <time>2023-11-05T10:25:34Z</time>
      </trkpt>
      <trkpt lat="43.50471" lon="6.6295">
        <ele>56.5</ele>
        <time>2023-11-05T10:25:35Z</time>
      </trkpt>
      <trkpt lat="43.50471" lon="6.62949">
        <ele>56.3</ele>
        <time>2023-11-05T10:25:36Z</time>
      </trkpt>
      <trkpt lat="43.50471" lon="6.62948">
        <ele>56</ele>
        <time>2023-11-05T10:25:37Z</time>
      </trkpt>
      <trkpt lat="43.50471" lon="6.62947">
        <ele>55.8</ele>
        <time>2023-11-05T10:25:38Z</time>
      </trkpt>
      <trkpt lat="43.5047" lon="6.62945">
        <ele>55.5</ele>
        <time>2023-11-05T10:25:39Z</time>
      </trkpt>
      <trkpt lat="43.5047" lon="6.62944">
        <ele>55.3</ele>
        <time>2023-11-05T10:25:40Z</time>
      </trkpt>
      <trkpt lat="43.5047" lon="6.62942">
        <ele>55.1</ele>
        <time>2023-11-05T10:25:41Z</time>
      </trkpt>
      <trkpt lat="43.50469" lon="6.62941">
        <ele>54.9</ele>
        <time>2023-11-05T10:25:42Z</time>
      </trkpt>
      <trkpt lat="43.50469" lon="6.62939">
        <ele>54.7</ele>
        <time>2023-11-05T10:25:43Z</time>
      </trkpt>
      <trkpt lat="43.50468" lon="6.62937">
        <ele>54.6</ele>
        <time>2023-11-05T10:25:44Z</time>
      </trkpt>
      <trkpt lat="43.50468" lon="6.62936">
        <ele>54.7</ele>
        <time>2023-11-05T10:25:45Z</time>
      </trkpt>
      <trkpt lat="43.50467" lon="6.62934">
        <ele>54.9</ele>
        <time>2023-11-05T10:25:46Z</time>
      </trkpt>
      <trkpt lat="43.50467" lon="6.62933">
        <ele>54.8</ele>
        <time>2023-11-05T10:25:47Z</time>
      </trkpt>
      <trkpt lat="43.50466" lon="6.62932">
        <ele>54.9</ele>
        <time>2023-11-05T10:25:48Z</time>
      </trkpt>
      <trkpt lat="43.50466" lon="6.62931">
        <ele>54.8</ele>
        <time>2023-11-05T10:25:49Z</time>
      </trkpt>
      <trkpt lat="43.50465" lon="6.62929">
        <ele>54.8</ele>
        <time>2023-11-05T10:25:50Z</time>
      </trkpt>
      <trkpt lat="43.50465" lon="6.62928">
        <ele>54.7</ele>
        <time>2023-11-05T10:25:51Z</time>
      </trkpt>
      <trkpt lat="43.50464" lon="6.62927">
        <ele>54.8</ele>
        <time>2023-11-05T10:25:52Z</time>
      </trkpt>
      <trkpt lat="43.50464" lon="6.62926">
        <ele>54.9</ele>
        <time>2023-11-05T10:25:53Z</time>
      </trkpt>
      <trkpt lat="43.50463" lon="6.62924">
        <ele>54.9</ele>
        <time>2023-11-05T10:25:54Z</time>
      </trkpt>
      <trkpt lat="43.50463" lon="6.62923">
        <ele>54.8</ele>
        <time>2023-11-05T10:25:55Z</time>
      </trkpt>
      <trkpt lat="43.50463" lon="6.62922">
        <ele>54.6</ele>
        <time>2023-11-05T10:25:56Z</time>
      </trkpt>
      <trkpt lat="43.50463" lon="6.6292">
        <ele>54.5</ele>
        <time>2023-11-05T10:25:57Z</time>
      </trkpt>
      <trkpt lat="43.50462" lon="6.62918">
        <ele>54.5</ele>
        <time>2023-11-05T10:25:58Z</time>
      </trkpt>
      <trkpt lat="43.50462" lon="6.62917">
        <ele>54.3</ele>
        <time>2023-11-05T10:25:59Z</time>
      </trkpt>
      <trkpt lat="43.50462" lon="6.62916">
        <ele>54.1</ele>
        <time>2023-11-05T10:26:00Z</time>
      </trkpt>
      <trkpt lat="43.50461" lon="6.62915">
        <ele>54.1</ele>
        <time>2023-11-05T10:26:01Z</time>
      </trkpt>
      <trkpt lat="43.50461" lon="6.62913">
        <ele>53.9</ele>
        <time>2023-11-05T10:26:02Z</time>
      </trkpt>
      <trkpt lat="43.50461" lon="6.62912">
        <ele>53.7</ele>
        <time>2023-11-05T10:26:03Z</time>
      </trkpt>
      <trkpt lat="43.5046" lon="6.62911">
        <ele>53.5</ele>
        <time>2023-11-05T10:26:04Z</time>
      </trkpt>
      <trkpt lat="43.50459" lon="6.6291">
        <ele>53.2</ele>
        <time>2023-11-05T10:26:05Z</time>
      </trkpt>
      <trkpt lat="43.50459" lon="6.6291">
        <ele>53</ele>
        <time>2023-11-05T10:26:06Z</time>
      </trkpt>
      <trkpt lat="43.50459" lon="6.6291">
        <ele>52.8</ele>
        <time>2023-11-05T10:26:07Z</time>
      </trkpt>
      <trkpt lat="43.50458" lon="6.62909">
        <ele>52.5</ele>
        <time>2023-11-05T10:26:08Z</time>
      </trkpt>
      <trkpt lat="43.50458" lon="6.62909">
        <ele>52.3</ele>
        <time>2023-11-05T10:26:09Z</time>
      </trkpt>
      <trkpt lat="43.50458" lon="6.62909">
        <ele>52.2</ele>
        <time>2023-11-05T10:26:10Z</time>
      </trkpt>
      <trkpt lat="43.50457" lon="6.62908">
        <ele>52.3</ele>
        <time>2023-11-05T10:26:11Z</time>
      </trkpt>
      <trkpt lat="43.50457" lon="6.62908">
        <ele>52.3</ele>
        <time>2023-11-05T10:26:12Z</time>
      </trkpt>
      <trkpt lat="43.50457" lon="6.62908">
        <ele>52.4</ele>
        <time>2023-11-05T10:26:13Z</time>
      </trkpt>
      <trkpt lat="43.50457" lon="6.62908">
        <ele>52.5</ele>
        <time>2023-11-05T10:26:14Z</time>
      </trkpt>
      <trkpt lat="43.50457" lon="6.62908">
        <ele>52.6</ele>
        <time>2023-11-05T10:26:15Z</time>
      </trkpt>
      <trkpt lat="43.50457" lon="6.62908">
        <ele>52.5</ele>
        <time>2023-11-05T10:26:16Z</time>
      </trkpt>
      <trkpt lat="43.50458" lon="6.62908">
        <ele>52.5</ele>
        <time>2023-11-05T10:26:17Z</time>
      </trkpt>
      <trkpt lat="43.50458" lon="6.62907">
        <ele>52.5</ele>
        <time>2023-11-05T10:26:18Z</time>
      </trkpt>
      <trkpt lat="43.50458" lon="6.62907">
        <ele>52.5</ele>
        <time>2023-11-05T10:26:19Z</time>
      </trkpt>
      <trkpt lat="43.50458" lon="6.62906">
        <ele>52.5</ele>
        <time>2023-11-05T10:26:20Z</time>
      </trkpt>
      <trkpt lat="43.50457" lon="6.62907">
        <ele>52.6</ele>
        <time>2023-11-05T10:26:21Z</time>
      </trkpt>
      <trkpt lat="43.50457" lon="6.62907">
        <ele>52.8</ele>
        <time>2023-11-05T10:26:22Z</time>
      </trkpt>
      <trkpt lat="43.50457" lon="6.62907">
        <ele>53</ele>
        <time>2023-11-05T10:26:23Z</time>
      </trkpt>
      <trkpt lat="43.50457" lon="6.62907">
        <ele>53</ele>
        <time>2023-11-05T10:26:24Z</time>
      </trkpt>
      <trkpt lat="43.50457" lon="6.62907">
        <ele>53</ele>
        <time>2023-11-05T10:26:25Z</time>
      </trkpt>
      <trkpt lat="43.50457" lon="6.62907">
        <ele>53.1</ele>
        <time>2023-11-05T10:26:26Z</time>
      </trkpt>
      <trkpt lat="43.50456" lon="6.62907">
        <ele>53.1</ele>
        <time>2023-11-05T10:26:27Z</time>
      </trkpt>
      <trkpt lat="43.50456" lon="6.62907">
        <ele>53</ele>
        <time>2023-11-05T10:26:28Z</time>
      </trkpt>
      <trkpt lat="43.50456" lon="6.62907">
        <ele>53</ele>
        <time>2023-11-05T10:26:29Z</time>
      </trkpt>
      <trkpt lat="43.50456" lon="6.62907">
        <ele>53.1</ele>
        <time>2023-11-05T10:26:30Z</time>
      </trkpt>
      <trkpt lat="43.50456" lon="6.62907">
        <ele>53.3</ele>
        <time>2023-11-05T10:26:31Z</time>
      </trkpt>
      <trkpt lat="43.50456" lon="6.62906">
        <ele>53.3</ele>
        <time>2023-11-05T10:26:32Z</time>
      </trkpt>
      <trkpt lat="43.50456" lon="6.62906">
        <ele>53.2</ele>
        <time>2023-11-05T10:26:33Z</time>
      </trkpt>
      <trkpt lat="43.50456" lon="6.62906">
        <ele>52.9</ele>
        <time>2023-11-05T10:26:34Z</time>
      </trkpt>
      <trkpt lat="43.50456" lon="6.62906">
        <ele>52.8</ele>
        <time>2023-11-05T10:26:35Z</time>
      </trkpt>
      <trkpt lat="43.50456" lon="6.62906">
        <ele>52.7</ele>
        <time>2023-11-05T10:26:36Z</time>
      </trkpt>
      <trkpt lat="43.50456" lon="6.62906">
        <ele>52.7</ele>
        <time>2023-11-05T10:26:37Z</time>
      </trkpt>
      <trkpt lat="43.50456" lon="6.62906">
        <ele>52.7</ele>
        <time>2023-11-05T10:26:38Z</time>
      </trkpt>
      <trkpt lat="43.50455" lon="6.62906">
        <ele>52.8</ele>
        <time>2023-11-05T10:26:39Z</time>
      </trkpt>
      <trkpt lat="43.50455" lon="6.62906">
        <ele>52.8</ele>
        <time>2023-11-05T10:26:40Z</time>
      </trkpt>
      <trkpt lat="43.50455" lon="6.62906">
        <ele>52.7</ele>
        <time>2023-11-05T10:26:41Z</time>
      </trkpt>
      <trkpt lat="43.50455" lon="6.62906">
        <ele>52.5</ele>
        <time>2023-11-05T10:26:42Z</time>
      </trkpt>
      <trkpt lat="43.50455" lon="6.62906">
        <ele>52.5</ele>
        <time>2023-11-05T10:26:43Z</time>
      </trkpt>
      <trkpt lat="43.50455" lon="6.62906">
        <ele>52.4</ele>
        <time>2023-11-05T10:26:44Z</time>
      </trkpt>
      <trkpt lat="43.50455" lon="6.62906">
        <ele>52.4</ele>
        <time>2023-11-05T10:26:45Z</time>
      </trkpt>
      <trkpt lat="43.50454" lon="6.62906">
        <ele>52.5</ele>
        <time>2023-11-05T10:26:46Z</time>
      </trkpt>
      <trkpt lat="43.50454" lon="6.62906">
        <ele>52.5</ele>
        <time>2023-11-05T10:26:47Z</time>
      </trkpt>
      <trkpt lat="43.50454" lon="6.62906">
        <ele>52.6</ele>
        <time>2023-11-05T10:26:48Z</time>
      </trkpt>
      <trkpt lat="43.50454" lon="6.62906">
        <ele>52.6</ele>
        <time>2023-11-05T10:26:49Z</time>
      </trkpt>
      <trkpt lat="43.50454" lon="6.62906">
        <ele>52.7</ele>
        <time>2023-11-05T10:26:50Z</time>
      </trkpt>
      <trkpt lat="43.50454" lon="6.62906">
        <ele>52.8</ele>
        <time>2023-11-05T10:26:51Z</time>
      </trkpt>
      <trkpt lat="43.50454" lon="6.62906">
        <ele>52.8</ele>
        <time>2023-11-05T10:26:52Z</time>
      </trkpt>
      <trkpt lat="43.50454" lon="6.62906">
        <ele>52.9</ele>
        <time>2023-11-05T10:26:53Z</time>
      </trkpt>
      <trkpt lat="43.50454" lon="6.62906">
        <ele>52.9</ele>
        <time>2023-11-05T10:26:54Z</time>
      </trkpt>
      <trkpt lat="43.50454" lon="6.62906">
        <ele>52.9</ele>
        <time>2023-11-05T10:26:55Z</time>
      </trkpt>
      <trkpt lat="43.50454" lon="6.62906">
        <ele>53</ele>
        <time>2023-11-05T10:26:56Z</time>
      </trkpt>
      <trkpt lat="43.50454" lon="6.62906">
        <ele>53</ele>
        <time>2023-11-05T10:26:57Z</time>
      </trkpt>
      <trkpt lat="43.50454" lon="6.62906">
        <ele>53.1</ele>
        <time>2023-11-05T10:26:58Z</time>
      </trkpt>
      <trkpt lat="43.50454" lon="6.62906">
        <ele>53.1</ele>
        <time>2023-11-05T10:26:59Z</time>
      </trkpt>
      <trkpt lat="43.50454" lon="6.62906">
        <ele>53.1</ele>
        <time>2023-11-05T10:27:00Z</time>
      </trkpt>
      <trkpt lat="43.50454" lon="6.62906">
        <ele>53</ele>
        <time>2023-11-05T10:27:01Z</time>
      </trkpt>
      <trkpt lat="43.50453" lon="6.62906">
        <ele>53</ele>
        <time>2023-11-05T10:27:02Z</time>
      </trkpt>
      <trkpt lat="43.50453" lon="6.62906">
        <ele>52.9</ele>
        <time>2023-11-05T10:27:03Z</time>
      </trkpt>
      <trkpt lat="43.50453" lon="6.62906">
        <ele>52.8</ele>
        <time>2023-11-05T10:27:04Z</time>
      </trkpt>
      <trkpt lat="43.50453" lon="6.62906">
        <ele>52.7</ele>
        <time>2023-11-05T10:27:05Z</time>
      </trkpt>
      <trkpt lat="43.50453" lon="6.62906">
        <ele>52.6</ele>
        <time>2023-11-05T10:27:06Z</time>
      </trkpt>
      <trkpt lat="43.50453" lon="6.62906">
        <ele>52.6</ele>
        <time>2023-11-05T10:27:07Z</time>
      </trkpt>
      <trkpt lat="43.50453" lon="6.62906">
        <ele>52.6</ele>
        <time>2023-11-05T10:27:08Z</time>
      </trkpt>
      <trkpt lat="43.50453" lon="6.62906">
        <ele>52.7</ele>
        <time>2023-11-05T10:27:09Z</time>
      </trkpt>
      <trkpt lat="43.50453" lon="6.62906">
        <ele>52.7</ele>
        <time>2023-11-05T10:27:10Z</time>
      </trkpt>
      <trkpt lat="43.50453" lon="6.62906">
        <ele>52.9</ele>
        <time>2023-11-05T10:27:11Z</time>
      </trkpt>
      <trkpt lat="43.50453" lon="6.62906">
        <ele>53</ele>
        <time>2023-11-05T10:27:12Z</time>
      </trkpt>
      <trkpt lat="43.50453" lon="6.62906">
        <ele>53.1</ele>
        <time>2023-11-05T10:27:13Z</time>
      </trkpt>
      <trkpt lat="43.50453" lon="6.62906">
        <ele>53</ele>
        <time>2023-11-05T10:27:14Z</time>
      </trkpt>
      <trkpt lat="43.50453" lon="6.62906">
        <ele>53</ele>
        <time>2023-11-05T10:27:15Z</time>
      </trkpt>
      <trkpt lat="43.50453" lon="6.62907">
        <ele>53</ele>
        <time>2023-11-05T10:27:16Z</time>
      </trkpt>
      <trkpt lat="43.50453" lon="6.62907">
        <ele>53</ele>
        <time>2023-11-05T10:27:17Z</time>
      </trkpt>
      <trkpt lat="43.50453" lon="6.62906">
        <ele>53</ele>
        <time>2023-11-05T10:27:18Z</time>
      </trkpt>
      <trkpt lat="43.50453" lon="6.62906">
        <ele>53.1</ele>
        <time>2023-11-05T10:27:19Z</time>
      </trkpt>
      <trkpt lat="43.50453" lon="6.62905">
        <ele>53.2</ele>
        <time>2023-11-05T10:27:20Z</time>
      </trkpt>
      <trkpt lat="43.50452" lon="6.62904">
        <ele>53.1</ele>
        <time>2023-11-05T10:27:21Z</time>
      </trkpt>
      <trkpt lat="43.50451" lon="6.62903">
        <ele>53.1</ele>
        <time>2023-11-05T10:27:22Z</time>
      </trkpt>
      <trkpt lat="43.50451" lon="6.62902">
        <ele>53.2</ele>
        <time>2023-11-05T10:27:23Z</time>
      </trkpt>
      <trkpt lat="43.50451" lon="6.629">
        <ele>53.2</ele>
        <time>2023-11-05T10:27:24Z</time>
      </trkpt>
      <trkpt lat="43.50451" lon="6.62899">
        <ele>53.1</ele>
        <time>2023-11-05T10:27:25Z</time>
      </trkpt>
      <trkpt lat="43.5045" lon="6.62897">
        <ele>53.1</ele>
        <time>2023-11-05T10:27:26Z</time>
      </trkpt>
      <trkpt lat="43.5045" lon="6.62896">
        <ele>53</ele>
        <time>2023-11-05T10:27:27Z</time>
      </trkpt>
      <trkpt lat="43.5045" lon="6.62895">
        <ele>53</ele>
        <time>2023-11-05T10:27:28Z</time>
      </trkpt>
      <trkpt lat="43.50449" lon="6.62893">
        <ele>53</ele>
        <time>2023-11-05T10:27:29Z</time>
      </trkpt>
      <trkpt lat="43.50448" lon="6.62892">
        <ele>53.2</ele>
        <time>2023-11-05T10:27:30Z</time>
      </trkpt>
      <trkpt lat="43.50448" lon="6.62891">
        <ele>53.3</ele>
        <time>2023-11-05T10:27:31Z</time>
      </trkpt>
      <trkpt lat="43.50447" lon="6.62889">
        <ele>53.5</ele>
        <time>2023-11-05T10:27:32Z</time>
      </trkpt>
      <trkpt lat="43.50447" lon="6.62888">
        <ele>53.5</ele>
        <time>2023-11-05T10:27:33Z</time>
      </trkpt>
      <trkpt lat="43.50447" lon="6.62887">
        <ele>53.5</ele>
        <time>2023-11-05T10:27:34Z</time>
      </trkpt>
      <trkpt lat="43.50447" lon="6.62885">
        <ele>53.6</ele>
        <time>2023-11-05T10:27:35Z</time>
      </trkpt>
      <trkpt lat="43.50446" lon="6.62883">
        <ele>53.6</ele>
        <time>2023-11-05T10:27:36Z</time>
      </trkpt>
      <trkpt lat="43.50447" lon="6.62882">
        <ele>53.7</ele>
        <time>2023-11-05T10:27:37Z</time>
      </trkpt>
      <trkpt lat="43.50447" lon="6.62881">
        <ele>53.7</ele>
        <time>2023-11-05T10:27:38Z</time>
      </trkpt>
      <trkpt lat="43.50447" lon="6.6288">
        <ele>53.7</ele>
        <time>2023-11-05T10:27:39Z</time>
      </trkpt>
      <trkpt lat="43.50447" lon="6.62878">
        <ele>53.7</ele>
        <time>2023-11-05T10:27:40Z</time>
      </trkpt>
      <trkpt lat="43.50447" lon="6.62876">
        <ele>53.8</ele>
        <time>2023-11-05T10:27:41Z</time>
      </trkpt>
      <trkpt lat="43.50447" lon="6.62875">
        <ele>53.8</ele>
        <time>2023-11-05T10:27:42Z</time>
      </trkpt>
      <trkpt lat="43.50447" lon="6.62873">
        <ele>53.8</ele>
        <time>2023-11-05T10:27:43Z</time>
      </trkpt>
      <trkpt lat="43.50448" lon="6.62872">
        <ele>53.8</ele>
        <time>2023-11-05T10:27:44Z</time>
      </trkpt>
      <trkpt lat="43.50448" lon="6.62871">
        <ele>53.8</ele>
        <time>2023-11-05T10:27:45Z</time>
      </trkpt>
      <trkpt lat="43.50448" lon="6.62869">
        <ele>53.8</ele>
        <time>2023-11-05T10:27:46Z</time>
      </trkpt>
      <trkpt lat="43.50448" lon="6.62868">
        <ele>53.9</ele>
        <time>2023-11-05T10:27:47Z</time>
      </trkpt>
      <trkpt lat="43.50448" lon="6.62867">
        <ele>53.8</ele>
        <time>2023-11-05T10:27:48Z</time>
      </trkpt>
      <trkpt lat="43.50449" lon="6.62865">
        <ele>53.8</ele>
        <time>2023-11-05T10:27:49Z</time>
      </trkpt>
      <trkpt lat="43.5045" lon="6.62864">
        <ele>53.8</ele>
        <time>2023-11-05T10:27:50Z</time>
      </trkpt>
      <trkpt lat="43.5045" lon="6.62862">
        <ele>53.8</ele>
        <time>2023-11-05T10:27:51Z</time>
      </trkpt>
      <trkpt lat="43.50451" lon="6.62861">
        <ele>53.8</ele>
        <time>2023-11-05T10:27:52Z</time>
      </trkpt>
      <trkpt lat="43.50452" lon="6.62859">
        <ele>53.8</ele>
        <time>2023-11-05T10:27:53Z</time>
      </trkpt>
      <trkpt lat="43.50452" lon="6.62858">
        <ele>53.7</ele>
        <time>2023-11-05T10:27:54Z</time>
      </trkpt>
      <trkpt lat="43.50452" lon="6.62857">
        <ele>53.7</ele>
        <time>2023-11-05T10:27:55Z</time>
      </trkpt>
      <trkpt lat="43.50453" lon="6.62855">
        <ele>53.7</ele>
        <time>2023-11-05T10:27:56Z</time>
      </trkpt>
      <trkpt lat="43.50454" lon="6.62854">
        <ele>53.7</ele>
        <time>2023-11-05T10:27:57Z</time>
      </trkpt>
      <trkpt lat="43.50455" lon="6.62853">
        <ele>53.7</ele>
        <time>2023-11-05T10:27:58Z</time>
      </trkpt>
      <trkpt lat="43.50456" lon="6.62852">
        <ele>53.6</ele>
        <time>2023-11-05T10:27:59Z</time>
      </trkpt>
      <trkpt lat="43.50457" lon="6.6285">
        <ele>53.5</ele>
        <time>2023-11-05T10:28:00Z</time>
      </trkpt>
      <trkpt lat="43.50458" lon="6.62849">
        <ele>53.6</ele>
        <time>2023-11-05T10:28:01Z</time>
      </trkpt>
      <trkpt lat="43.50459" lon="6.62848">
        <ele>53.5</ele>
        <time>2023-11-05T10:28:02Z</time>
      </trkpt>
      <trkpt lat="43.50459" lon="6.62847">
        <ele>53.6</ele>
        <time>2023-11-05T10:28:03Z</time>
      </trkpt>
      <trkpt lat="43.5046" lon="6.62845">
        <ele>53.7</ele>
        <time>2023-11-05T10:28:04Z</time>
      </trkpt>
      <trkpt lat="43.50461" lon="6.62844">
        <ele>53.7</ele>
        <time>2023-11-05T10:28:05Z</time>
      </trkpt>
      <trkpt lat="43.50462" lon="6.62842">
        <ele>53.5</ele>
        <time>2023-11-05T10:28:06Z</time>
      </trkpt>
      <trkpt lat="43.50463" lon="6.62841">
        <ele>53.6</ele>
        <time>2023-11-05T10:28:07Z</time>
      </trkpt>
      <trkpt lat="43.50463" lon="6.6284">
        <ele>53.7</ele>
        <time>2023-11-05T10:28:08Z</time>
      </trkpt>
      <trkpt lat="43.50464" lon="6.62838">
        <ele>53.6</ele>
        <time>2023-11-05T10:28:09Z</time>
      </trkpt>
      <trkpt lat="43.50464" lon="6.62837">
        <ele>53.6</ele>
        <time>2023-11-05T10:28:10Z</time>
      </trkpt>
      <trkpt lat="43.50465" lon="6.62836">
        <ele>53.6</ele>
        <time>2023-11-05T10:28:11Z</time>
      </trkpt>
      <trkpt lat="43.50465" lon="6.62834">
        <ele>53.7</ele>
        <time>2023-11-05T10:28:12Z</time>
      </trkpt>
      <trkpt lat="43.50466" lon="6.62832">
        <ele>53.7</ele>
        <time>2023-11-05T10:28:13Z</time>
      </trkpt>
      <trkpt lat="43.50466" lon="6.62831">
        <ele>53.7</ele>
        <time>2023-11-05T10:28:14Z</time>
      </trkpt>
      <trkpt lat="43.50466" lon="6.6283">
        <ele>53.7</ele>
        <time>2023-11-05T10:28:15Z</time>
      </trkpt>
      <trkpt lat="43.50467" lon="6.62828">
        <ele>53.7</ele>
        <time>2023-11-05T10:28:16Z</time>
      </trkpt>
      <trkpt lat="43.50467" lon="6.62827">
        <ele>53.7</ele>
        <time>2023-11-05T10:28:17Z</time>
      </trkpt>
      <trkpt lat="43.50467" lon="6.62825">
        <ele>53.8</ele>
        <time>2023-11-05T10:28:18Z</time>
      </trkpt>
      <trkpt lat="43.50468" lon="6.62823">
        <ele>53.9</ele>
        <time>2023-11-05T10:28:19Z</time>
      </trkpt>
      <trkpt lat="43.50468" lon="6.62822">
        <ele>54</ele>
        <time>2023-11-05T10:28:20Z</time>
      </trkpt>
      <trkpt lat="43.50468" lon="6.6282">
        <ele>53.9</ele>
        <time>2023-11-05T10:28:21Z</time>
      </trkpt>
      <trkpt lat="43.50468" lon="6.62819">
        <ele>53.8</ele>
        <time>2023-11-05T10:28:22Z</time>
      </trkpt>
      <trkpt lat="43.50469" lon="6.62817">
        <ele>53.7</ele>
        <time>2023-11-05T10:28:23Z</time>
      </trkpt>
      <trkpt lat="43.50469" lon="6.62816">
        <ele>53.7</ele>
        <time>2023-11-05T10:28:24Z</time>
      </trkpt>
      <trkpt lat="43.5047" lon="6.62814">
        <ele>53.7</ele>
        <time>2023-11-05T10:28:25Z</time>
      </trkpt>
      <trkpt lat="43.50471" lon="6.62813">
        <ele>53.8</ele>
        <time>2023-11-05T10:28:26Z</time>
      </trkpt>
      <trkpt lat="43.50471" lon="6.62811">
        <ele>53.8</ele>
        <time>2023-11-05T10:28:27Z</time>
      </trkpt>
      <trkpt lat="43.50472" lon="6.6281">
        <ele>53.9</ele>
        <time>2023-11-05T10:28:28Z</time>
      </trkpt>
      <trkpt lat="43.50472" lon="6.62808">
        <ele>54</ele>
        <time>2023-11-05T10:28:29Z</time>
      </trkpt>
      <trkpt lat="43.50472" lon="6.62807">
        <ele>54.1</ele>
        <time>2023-11-05T10:28:30Z</time>
      </trkpt>
      <trkpt lat="43.50473" lon="6.62805">
        <ele>54.2</ele>
        <time>2023-11-05T10:28:31Z</time>
      </trkpt>
      <trkpt lat="43.50473" lon="6.62803">
        <ele>54.2</ele>
        <time>2023-11-05T10:28:32Z</time>
      </trkpt>
      <trkpt lat="43.50473" lon="6.62802">
        <ele>54.2</ele>
        <time>2023-11-05T10:28:33Z</time>
      </trkpt>
      <trkpt lat="43.50474" lon="6.62801">
        <ele>54.3</ele>
        <time>2023-11-05T10:28:34Z</time>
      </trkpt>
      <trkpt lat="43.50474" lon="6.62799">
        <ele>54.4</ele>
        <time>2023-11-05T10:28:35Z</time>
      </trkpt>
      <trkpt lat="43.50475" lon="6.62798">
        <ele>54.5</ele>
        <time>2023-11-05T10:28:36Z</time>
      </trkpt>
      <trkpt lat="43.50475" lon="6.62797">
        <ele>54.5</ele>
        <time>2023-11-05T10:28:37Z</time>
      </trkpt>
      <trkpt lat="43.50475" lon="6.62795">
        <ele>54.5</ele>
        <time>2023-11-05T10:28:38Z</time>
      </trkpt>
      <trkpt lat="43.50475" lon="6.62794">
        <ele>54.5</ele>
        <time>2023-11-05T10:28:39Z</time>
      </trkpt>
      <trkpt lat="43.50476" lon="6.62792">
        <ele>54.3</ele>
        <time>2023-11-05T10:28:40Z</time>
      </trkpt>
      <trkpt lat="43.50476" lon="6.6279">
        <ele>54.1</ele>
        <time>2023-11-05T10:28:41Z</time>
      </trkpt>
      <trkpt lat="43.50477" lon="6.62789">
        <ele>54</ele>
        <time>2023-11-05T10:28:42Z</time>
      </trkpt>
      <trkpt lat="43.50477" lon="6.62788">
        <ele>54</ele>
        <time>2023-11-05T10:28:43Z</time>
      </trkpt>
      <trkpt lat="43.50478" lon="6.62786">
        <ele>53.9</ele>
        <time>2023-11-05T10:28:44Z</time>
      </trkpt>
      <trkpt lat="43.50478" lon="6.62785">
        <ele>53.9</ele>
        <time>2023-11-05T10:28:45Z</time>
      </trkpt>
      <trkpt lat="43.50478" lon="6.62783">
        <ele>53.8</ele>
        <time>2023-11-05T10:28:46Z</time>
      </trkpt>
      <trkpt lat="43.50478" lon="6.62782">
        <ele>53.7</ele>
        <time>2023-11-05T10:28:47Z</time>
      </trkpt>
      <trkpt lat="43.50479" lon="6.62781">
        <ele>53.6</ele>
        <time>2023-11-05T10:28:48Z</time>
      </trkpt>
      <trkpt lat="43.50479" lon="6.6278">
        <ele>53.6</ele>
        <time>2023-11-05T10:28:49Z</time>
      </trkpt>
      <trkpt lat="43.5048" lon="6.62778">
        <ele>53.8</ele>
        <time>2023-11-05T10:28:50Z</time>
      </trkpt>
      <trkpt lat="43.5048" lon="6.62777">
        <ele>53.9</ele>
        <time>2023-11-05T10:28:51Z</time>
      </trkpt>
      <trkpt lat="43.50481" lon="6.62776">
        <ele>54</ele>
        <time>2023-11-05T10:28:52Z</time>
      </trkpt>
      <trkpt lat="43.50482" lon="6.62775">
        <ele>54.1</ele>
        <time>2023-11-05T10:28:53Z</time>
      </trkpt>
      <trkpt lat="43.50483" lon="6.62773">
        <ele>54.1</ele>
        <time>2023-11-05T10:28:54Z</time>
      </trkpt>
      <trkpt lat="43.50484" lon="6.62772">
        <ele>54.1</ele>
        <time>2023-11-05T10:28:55Z</time>
      </trkpt>
      <trkpt lat="43.50484" lon="6.62771">
        <ele>54.1</ele>
        <time>2023-11-05T10:28:56Z</time>
      </trkpt>
      <trkpt lat="43.50485" lon="6.62769">
        <ele>54</ele>
        <time>2023-11-05T10:28:57Z</time>
      </trkpt>
      <trkpt lat="43.50485" lon="6.62768">
        <ele>54</ele>
        <time>2023-11-05T10:28:58Z</time>
      </trkpt>
      <trkpt lat="43.50486" lon="6.62766">
        <ele>54</ele>
        <time>2023-11-05T10:28:59Z</time>
      </trkpt>
      <trkpt lat="43.50487" lon="6.62765">
        <ele>54.1</ele>
        <time>2023-11-05T10:29:00Z</time>
      </trkpt>
      <trkpt lat="43.50488" lon="6.62764">
        <ele>54.1</ele>
        <time>2023-11-05T10:29:01Z</time>
      </trkpt>
      <trkpt lat="43.5049" lon="6.62763">
        <ele>54</ele>
        <time>2023-11-05T10:29:02Z</time>
      </trkpt>
      <trkpt lat="43.50491" lon="6.62761">
        <ele>54</ele>
        <time>2023-11-05T10:29:03Z</time>
      </trkpt>
      <trkpt lat="43.50492" lon="6.6276">
        <ele>53.7</ele>
        <time>2023-11-05T10:29:04Z</time>
      </trkpt>
      <trkpt lat="43.50492" lon="6.62759">
        <ele>53.5</ele>
        <time>2023-11-05T10:29:05Z</time>
      </trkpt>
      <trkpt lat="43.50493" lon="6.62758">
        <ele>53.2</ele>
        <time>2023-11-05T10:29:06Z</time>
      </trkpt>
      <trkpt lat="43.50494" lon="6.62756">
        <ele>53.1</ele>
        <time>2023-11-05T10:29:07Z</time>
      </trkpt>
      <trkpt lat="43.50494" lon="6.62755">
        <ele>53.1</ele>
        <time>2023-11-05T10:29:08Z</time>
      </trkpt>
      <trkpt lat="43.50495" lon="6.62754">
        <ele>53.1</ele>
        <time>2023-11-05T10:29:09Z</time>
      </trkpt>
      <trkpt lat="43.50495" lon="6.62752">
        <ele>53.1</ele>
        <time>2023-11-05T10:29:10Z</time>
      </trkpt>
      <trkpt lat="43.50496" lon="6.62751">
        <ele>53.2</ele>
        <time>2023-11-05T10:29:11Z</time>
      </trkpt>
      <trkpt lat="43.50497" lon="6.6275">
        <ele>53.2</ele>
        <time>2023-11-05T10:29:12Z</time>
      </trkpt>
      <trkpt lat="43.50498" lon="6.62748">
        <ele>53.3</ele>
        <time>2023-11-05T10:29:13Z</time>
      </trkpt>
      <trkpt lat="43.50499" lon="6.62747">
        <ele>53.4</ele>
        <time>2023-11-05T10:29:14Z</time>
      </trkpt>
      <trkpt lat="43.505" lon="6.62745">
        <ele>53.5</ele>
        <time>2023-11-05T10:29:15Z</time>
      </trkpt>
      <trkpt lat="43.505" lon="6.62744">
        <ele>53.6</ele>
        <time>2023-11-05T10:29:16Z</time>
      </trkpt>
      <trkpt lat="43.50501" lon="6.62743">
        <ele>53.7</ele>
        <time>2023-11-05T10:29:17Z</time>
      </trkpt>
      <trkpt lat="43.50501" lon="6.62741">
        <ele>53.7</ele>
        <time>2023-11-05T10:29:18Z</time>
      </trkpt>
      <trkpt lat="43.50502" lon="6.62739">
        <ele>53.7</ele>
        <time>2023-11-05T10:29:19Z</time>
      </trkpt>
      <trkpt lat="43.50503" lon="6.62738">
        <ele>53.7</ele>
        <time>2023-11-05T10:29:20Z</time>
      </trkpt>
      <trkpt lat="43.50504" lon="6.62737">
        <ele>53.6</ele>
        <time>2023-11-05T10:29:21Z</time>
      </trkpt>
      <trkpt lat="43.50505" lon="6.62735">
        <ele>53.6</ele>
        <time>2023-11-05T10:29:22Z</time>
      </trkpt>
      <trkpt lat="43.50506" lon="6.62734">
        <ele>53.4</ele>
        <time>2023-11-05T10:29:23Z</time>
      </trkpt>
      <trkpt lat="43.50506" lon="6.62732">
        <ele>53.3</ele>
        <time>2023-11-05T10:29:24Z</time>
      </trkpt>
      <trkpt lat="43.50507" lon="6.62731">
        <ele>53.2</ele>
        <time>2023-11-05T10:29:25Z</time>
      </trkpt>
      <trkpt lat="43.50507" lon="6.6273">
        <ele>53.2</ele>
        <time>2023-11-05T10:29:26Z</time>
      </trkpt>
      <trkpt lat="43.50507" lon="6.62728">
        <ele>53.2</ele>
        <time>2023-11-05T10:29:27Z</time>
      </trkpt>
      <trkpt lat="43.50507" lon="6.62727">
        <ele>53.3</ele>
        <time>2023-11-05T10:29:28Z</time>
      </trkpt>
      <trkpt lat="43.50508" lon="6.62726">
        <ele>53.4</ele>
        <time>2023-11-05T10:29:29Z</time>
      </trkpt>
      <trkpt lat="43.50508" lon="6.62724">
        <ele>53.3</ele>
        <time>2023-11-05T10:29:30Z</time>
      </trkpt>
      <trkpt lat="43.50509" lon="6.62723">
        <ele>53.2</ele>
        <time>2023-11-05T10:29:31Z</time>
      </trkpt>
      <trkpt lat="43.5051" lon="6.62722">
        <ele>53.2</ele>
        <time>2023-11-05T10:29:32Z</time>
      </trkpt>
      <trkpt lat="43.5051" lon="6.6272">
        <ele>53</ele>
        <time>2023-11-05T10:29:33Z</time>
      </trkpt>
      <trkpt lat="43.50511" lon="6.62718">
        <ele>53.1</ele>
        <time>2023-11-05T10:29:34Z</time>
      </trkpt>
      <trkpt lat="43.50512" lon="6.62716">
        <ele>53.1</ele>
        <time>2023-11-05T10:29:35Z</time>
      </trkpt>
      <trkpt lat="43.50512" lon="6.62714">
        <ele>53.1</ele>
        <time>2023-11-05T10:29:36Z</time>
      </trkpt>
      <trkpt lat="43.50512" lon="6.62713">
        <ele>53</ele>
        <time>2023-11-05T10:29:37Z</time>
      </trkpt>
      <trkpt lat="43.50513" lon="6.62712">
        <ele>52.9</ele>
        <time>2023-11-05T10:29:38Z</time>
      </trkpt>
      <trkpt lat="43.50513" lon="6.6271">
        <ele>53.1</ele>
        <time>2023-11-05T10:29:39Z</time>
      </trkpt>
      <trkpt lat="43.50514" lon="6.62708">
        <ele>53.2</ele>
        <time>2023-11-05T10:29:40Z</time>
      </trkpt>
      <trkpt lat="43.50515" lon="6.62707">
        <ele>53.3</ele>
        <time>2023-11-05T10:29:41Z</time>
      </trkpt>
      <trkpt lat="43.50515" lon="6.62706">
        <ele>53.4</ele>
        <time>2023-11-05T10:29:42Z</time>
      </trkpt>
      <trkpt lat="43.50517" lon="6.62705">
        <ele>53.4</ele>
        <time>2023-11-05T10:29:43Z</time>
      </trkpt>
      <trkpt lat="43.50518" lon="6.62703">
        <ele>53.4</ele>
        <time>2023-11-05T10:29:44Z</time>
      </trkpt>
      <trkpt lat="43.50519" lon="6.62702">
        <ele>53.4</ele>
        <time>2023-11-05T10:29:45Z</time>
      </trkpt>
      <trkpt lat="43.5052" lon="6.62701">
        <ele>53.3</ele>
        <time>2023-11-05T10:29:46Z</time>
      </trkpt>
      <trkpt lat="43.5052" lon="6.62699">
        <ele>53.2</ele>
        <time>2023-11-05T10:29:47Z</time>
      </trkpt>
      <trkpt lat="43.50521" lon="6.62698">
        <ele>53</ele>
        <time>2023-11-05T10:29:48Z</time>
      </trkpt>
      <trkpt lat="43.50522" lon="6.62697">
        <ele>53</ele>
        <time>2023-11-05T10:29:49Z</time>
      </trkpt>
      <trkpt lat="43.50523" lon="6.62696">
        <ele>52.9</ele>
        <time>2023-11-05T10:29:50Z</time>
      </trkpt>
      <trkpt lat="43.50524" lon="6.62695">
        <ele>52.9</ele>
        <time>2023-11-05T10:29:51Z</time>
      </trkpt>
      <trkpt lat="43.50525" lon="6.62694">
        <ele>52.6</ele>
        <time>2023-11-05T10:29:52Z</time>
      </trkpt>
      <trkpt lat="43.50526" lon="6.62693">
        <ele>52.5</ele>
        <time>2023-11-05T10:29:53Z</time>
      </trkpt>
      <trkpt lat="43.50527" lon="6.62692">
        <ele>52.3</ele>
        <time>2023-11-05T10:29:54Z</time>
      </trkpt>
      <trkpt lat="43.50528" lon="6.62691">
        <ele>52.4</ele>
        <time>2023-11-05T10:29:55Z</time>
      </trkpt>
      <trkpt lat="43.50529" lon="6.6269">
        <ele>52.3</ele>
        <time>2023-11-05T10:29:56Z</time>
      </trkpt>
      <trkpt lat="43.5053" lon="6.62689">
        <ele>52</ele>
        <time>2023-11-05T10:29:57Z</time>
      </trkpt>
      <trkpt lat="43.5053" lon="6.62688">
        <ele>51.9</ele>
        <time>2023-11-05T10:29:58Z</time>
      </trkpt>
      <trkpt lat="43.50532" lon="6.62687">
        <ele>51.8</ele>
        <time>2023-11-05T10:29:59Z</time>
      </trkpt>
      <trkpt lat="43.50533" lon="6.62686">
        <ele>51.7</ele>
        <time>2023-11-05T10:30:00Z</time>
      </trkpt>
      <trkpt lat="43.50533" lon="6.62685">
        <ele>51.6</ele>
        <time>2023-11-05T10:30:01Z</time>
      </trkpt>
      <trkpt lat="43.50534" lon="6.62684">
        <ele>51.6</ele>
        <time>2023-11-05T10:30:02Z</time>
      </trkpt>
      <trkpt lat="43.50536" lon="6.62683">
        <ele>51.6</ele>
        <time>2023-11-05T10:30:03Z</time>
      </trkpt>
      <trkpt lat="43.50537" lon="6.62682">
        <ele>51.6</ele>
        <time>2023-11-05T10:30:04Z</time>
      </trkpt>
      <trkpt lat="43.50537" lon="6.6268">
        <ele>51.6</ele>
        <time>2023-11-05T10:30:05Z</time>
      </trkpt>
      <trkpt lat="43.50538" lon="6.62679">
        <ele>51.5</ele>
        <time>2023-11-05T10:30:06Z</time>
      </trkpt>
      <trkpt lat="43.50538" lon="6.62677">
        <ele>51.5</ele>
        <time>2023-11-05T10:30:07Z</time>
      </trkpt>
      <trkpt lat="43.50538" lon="6.62675">
        <ele>51.5</ele>
        <time>2023-11-05T10:30:08Z</time>
      </trkpt>
      <trkpt lat="43.50538" lon="6.62674">
        <ele>51.5</ele>
        <time>2023-11-05T10:30:09Z</time>
      </trkpt>
      <trkpt lat="43.50539" lon="6.62672">
        <ele>51.5</ele>
        <time>2023-11-05T10:30:10Z</time>
      </trkpt>
      <trkpt lat="43.50539" lon="6.6267">
        <ele>51.5</ele>
        <time>2023-11-05T10:30:11Z</time>
      </trkpt>
      <trkpt lat="43.50539" lon="6.62668">
        <ele>51.5</ele>
        <time>2023-11-05T10:30:12Z</time>
      </trkpt>
      <trkpt lat="43.50539" lon="6.62667">
        <ele>51.5</ele>
        <time>2023-11-05T10:30:13Z</time>
      </trkpt>
      <trkpt lat="43.50539" lon="6.62665">
        <ele>51.4</ele>
        <time>2023-11-05T10:30:14Z</time>
      </trkpt>
      <trkpt lat="43.50539" lon="6.62663">
        <ele>51.3</ele>
        <time>2023-11-05T10:30:15Z</time>
      </trkpt>
      <trkpt lat="43.50539" lon="6.62663">
        <ele>51.2</ele>
        <time>2023-11-05T10:30:16Z</time>
      </trkpt>
      <trkpt lat="43.5054" lon="6.62662">
        <ele>51</ele>
        <time>2023-11-05T10:30:17Z</time>
      </trkpt>
      <trkpt lat="43.5054" lon="6.6266">
        <ele>51</ele>
        <time>2023-11-05T10:30:18Z</time>
      </trkpt>
      <trkpt lat="43.50541" lon="6.62658">
        <ele>50.9</ele>
        <time>2023-11-05T10:30:19Z</time>
      </trkpt>
      <trkpt lat="43.50541" lon="6.62657">
        <ele>50.9</ele>
        <time>2023-11-05T10:30:20Z</time>
      </trkpt>
      <trkpt lat="43.50541" lon="6.62655">
        <ele>50.9</ele>
        <time>2023-11-05T10:30:21Z</time>
      </trkpt>
      <trkpt lat="43.50541" lon="6.62654">
        <ele>50.8</ele>
        <time>2023-11-05T10:30:22Z</time>
      </trkpt>
      <trkpt lat="43.50542" lon="6.62652">
        <ele>50.8</ele>
        <time>2023-11-05T10:30:23Z</time>
      </trkpt>
      <trkpt lat="43.50541" lon="6.6265">
        <ele>50.8</ele>
        <time>2023-11-05T10:30:24Z</time>
      </trkpt>
      <trkpt lat="43.50541" lon="6.62648">
        <ele>50.8</ele>
        <time>2023-11-05T10:30:25Z</time>
      </trkpt>
      <trkpt lat="43.50542" lon="6.62646">
        <ele>50.8</ele>
        <time>2023-11-05T10:30:26Z</time>
      </trkpt>
      <trkpt lat="43.50542" lon="6.62645">
        <ele>50.8</ele>
        <time>2023-11-05T10:30:27Z</time>
      </trkpt>
      <trkpt lat="43.50541" lon="6.62643">
        <ele>50.8</ele>
        <time>2023-11-05T10:30:28Z</time>
      </trkpt>
      <trkpt lat="43.50541" lon="6.62641">
        <ele>50.8</ele>
        <time>2023-11-05T10:30:29Z</time>
      </trkpt>
      <trkpt lat="43.50541" lon="6.6264">
        <ele>51</ele>
        <time>2023-11-05T10:30:30Z</time>
      </trkpt>
      <trkpt lat="43.50541" lon="6.62638">
        <ele>50.8</ele>
        <time>2023-11-05T10:30:31Z</time>
      </trkpt>
      <trkpt lat="43.50541" lon="6.62637">
        <ele>50.6</ele>
        <time>2023-11-05T10:30:32Z</time>
      </trkpt>
      <trkpt lat="43.50542" lon="6.62635">
        <ele>50.6</ele>
        <time>2023-11-05T10:30:33Z</time>
      </trkpt>
      <trkpt lat="43.50541" lon="6.62634">
        <ele>50.6</ele>
        <time>2023-11-05T10:30:34Z</time>
      </trkpt>
      <trkpt lat="43.50542" lon="6.62632">
        <ele>50.3</ele>
        <time>2023-11-05T10:30:35Z</time>
      </trkpt>
      <trkpt lat="43.50542" lon="6.62631">
        <ele>50.1</ele>
        <time>2023-11-05T10:30:36Z</time>
      </trkpt>
      <trkpt lat="43.50541" lon="6.6263">
        <ele>49.9</ele>
        <time>2023-11-05T10:30:37Z</time>
      </trkpt>
      <trkpt lat="43.50542" lon="6.62628">
        <ele>49.7</ele>
        <time>2023-11-05T10:30:38Z</time>
      </trkpt>
      <trkpt lat="43.50543" lon="6.62626">
        <ele>49.6</ele>
        <time>2023-11-05T10:30:39Z</time>
      </trkpt>
      <trkpt lat="43.50544" lon="6.62626">
        <ele>49.6</ele>
        <time>2023-11-05T10:30:40Z</time>
      </trkpt>
      <trkpt lat="43.50544" lon="6.62623">
        <ele>49.4</ele>
        <time>2023-11-05T10:30:41Z</time>
      </trkpt>
      <trkpt lat="43.50545" lon="6.62622">
        <ele>49.2</ele>
        <time>2023-11-05T10:30:42Z</time>
      </trkpt>
      <trkpt lat="43.50545" lon="6.6262">
        <ele>49</ele>
        <time>2023-11-05T10:30:43Z</time>
      </trkpt>
      <trkpt lat="43.50545" lon="6.62618">
        <ele>48.9</ele>
        <time>2023-11-05T10:30:44Z</time>
      </trkpt>
      <trkpt lat="43.50545" lon="6.62617">
        <ele>48.7</ele>
        <time>2023-11-05T10:30:45Z</time>
      </trkpt>
      <trkpt lat="43.50545" lon="6.62615">
        <ele>48.8</ele>
        <time>2023-11-05T10:30:46Z</time>
      </trkpt>
      <trkpt lat="43.50545" lon="6.62613">
        <ele>48.7</ele>
        <time>2023-11-05T10:30:47Z</time>
      </trkpt>
      <trkpt lat="43.50545" lon="6.62611">
        <ele>48.6</ele>
        <time>2023-11-05T10:30:48Z</time>
      </trkpt>
      <trkpt lat="43.50545" lon="6.6261">
        <ele>48.5</ele>
        <time>2023-11-05T10:30:49Z</time>
      </trkpt>
      <trkpt lat="43.50545" lon="6.62608">
        <ele>48.3</ele>
        <time>2023-11-05T10:30:50Z</time>
      </trkpt>
      <trkpt lat="43.50545" lon="6.62605">
        <ele>48.2</ele>
        <time>2023-11-05T10:30:51Z</time>
      </trkpt>
      <trkpt lat="43.50545" lon="6.62604">
        <ele>48.1</ele>
        <time>2023-11-05T10:30:52Z</time>
      </trkpt>
      <trkpt lat="43.50545" lon="6.62602">
        <ele>48</ele>
        <time>2023-11-05T10:30:53Z</time>
      </trkpt>
      <trkpt lat="43.50544" lon="6.626">
        <ele>47.8</ele>
        <time>2023-11-05T10:30:54Z</time>
      </trkpt>
      <trkpt lat="43.50544" lon="6.62599">
        <ele>47.6</ele>
        <time>2023-11-05T10:30:55Z</time>
      </trkpt>
      <trkpt lat="43.50543" lon="6.62597">
        <ele>47.5</ele>
        <time>2023-11-05T10:30:56Z</time>
      </trkpt>
      <trkpt lat="43.50543" lon="6.62596">
        <ele>47.4</ele>
        <time>2023-11-05T10:30:57Z</time>
      </trkpt>
      <trkpt lat="43.50543" lon="6.62595">
        <ele>47.2</ele>
        <time>2023-11-05T10:30:58Z</time>
      </trkpt>
      <trkpt lat="43.50543" lon="6.62593">
        <ele>46.9</ele>
        <time>2023-11-05T10:30:59Z</time>
      </trkpt>
      <trkpt lat="43.50544" lon="6.62592">
        <ele>46.8</ele>
        <time>2023-11-05T10:31:00Z</time>
      </trkpt>
      <trkpt lat="43.50545" lon="6.62591">
        <ele>46.7</ele>
        <time>2023-11-05T10:31:01Z</time>
      </trkpt>
      <trkpt lat="43.50546" lon="6.6259">
        <ele>46.6</ele>
        <time>2023-11-05T10:31:02Z</time>
      </trkpt>
      <trkpt lat="43.50546" lon="6.62589">
        <ele>46.7</ele>
        <time>2023-11-05T10:31:03Z</time>
      </trkpt>
      <trkpt lat="43.50547" lon="6.62588">
        <ele>46.7</ele>
        <time>2023-11-05T10:31:04Z</time>
      </trkpt>
      <trkpt lat="43.50548" lon="6.62587">
        <ele>46.8</ele>
        <time>2023-11-05T10:31:05Z</time>
      </trkpt>
      <trkpt lat="43.50549" lon="6.62587">
        <ele>46.8</ele>
        <time>2023-11-05T10:31:06Z</time>
      </trkpt>
      <trkpt lat="43.5055" lon="6.62587">
        <ele>46.8</ele>
        <time>2023-11-05T10:31:07Z</time>
      </trkpt>
      <trkpt lat="43.50551" lon="6.62586">
        <ele>46.9</ele>
        <time>2023-11-05T10:31:08Z</time>
      </trkpt>
      <trkpt lat="43.50551" lon="6.62586">
        <ele>46.9</ele>
        <time>2023-11-05T10:31:09Z</time>
      </trkpt>
      <trkpt lat="43.50552" lon="6.62586">
        <ele>47</ele>
        <time>2023-11-05T10:31:10Z</time>
      </trkpt>
      <trkpt lat="43.50553" lon="6.62586">
        <ele>47</ele>
        <time>2023-11-05T10:31:11Z</time>
      </trkpt>
      <trkpt lat="43.50554" lon="6.62585">
        <ele>47.1</ele>
        <time>2023-11-05T10:31:12Z</time>
      </trkpt>
      <trkpt lat="43.50555" lon="6.62585">
        <ele>47.1</ele>
        <time>2023-11-05T10:31:13Z</time>
      </trkpt>
      <trkpt lat="43.50555" lon="6.62585">
        <ele>47.3</ele>
        <time>2023-11-05T10:31:14Z</time>
      </trkpt>
      <trkpt lat="43.50556" lon="6.62585">
        <ele>47.5</ele>
        <time>2023-11-05T10:31:15Z</time>
      </trkpt>
      <trkpt lat="43.50557" lon="6.62584">
        <ele>47.6</ele>
        <time>2023-11-05T10:31:16Z</time>
      </trkpt>
      <trkpt lat="43.50558" lon="6.62584">
        <ele>47.7</ele>
        <time>2023-11-05T10:31:17Z</time>
      </trkpt>
      <trkpt lat="43.50559" lon="6.62584">
        <ele>47.8</ele>
        <time>2023-11-05T10:31:18Z</time>
      </trkpt>
      <trkpt lat="43.50559" lon="6.62583">
        <ele>47.8</ele>
        <time>2023-11-05T10:31:19Z</time>
      </trkpt>
      <trkpt lat="43.5056" lon="6.62583">
        <ele>47.9</ele>
        <time>2023-11-05T10:31:20Z</time>
      </trkpt>
      <trkpt lat="43.50561" lon="6.62583">
        <ele>47.9</ele>
        <time>2023-11-05T10:31:21Z</time>
      </trkpt>
      <trkpt lat="43.50561" lon="6.62583">
        <ele>47.9</ele>
        <time>2023-11-05T10:31:22Z</time>
      </trkpt>
      <trkpt lat="43.50562" lon="6.62583">
        <ele>47.9</ele>
        <time>2023-11-05T10:31:23Z</time>
      </trkpt>
      <trkpt lat="43.50563" lon="6.62582">
        <ele>47.9</ele>
        <time>2023-11-05T10:31:24Z</time>
      </trkpt>
      <trkpt lat="43.50564" lon="6.62582">
        <ele>47.9</ele>
        <time>2023-11-05T10:31:25Z</time>
      </trkpt>
      <trkpt lat="43.50565" lon="6.62582">
        <ele>47.8</ele>
        <time>2023-11-05T10:31:26Z</time>
      </trkpt>
      <trkpt lat="43.50566" lon="6.62582">
        <ele>47.8</ele>
        <time>2023-11-05T10:31:27Z</time>
      </trkpt>
      <trkpt lat="43.50567" lon="6.62581">
        <ele>47.8</ele>
        <time>2023-11-05T10:31:28Z</time>
      </trkpt>
      <trkpt lat="43.50568" lon="6.62581">
        <ele>47.9</ele>
        <time>2023-11-05T10:31:29Z</time>
      </trkpt>
      <trkpt lat="43.50569" lon="6.62581">
        <ele>48</ele>
        <time>2023-11-05T10:31:30Z</time>
      </trkpt>
      <trkpt lat="43.5057" lon="6.62581">
        <ele>48.1</ele>
        <time>2023-11-05T10:31:31Z</time>
      </trkpt>
      <trkpt lat="43.50571" lon="6.62581">
        <ele>48.2</ele>
        <time>2023-11-05T10:31:32Z</time>
      </trkpt>
      <trkpt lat="43.50572" lon="6.62581">
        <ele>48.3</ele>
        <time>2023-11-05T10:31:33Z</time>
      </trkpt>
      <trkpt lat="43.50573" lon="6.62581">
        <ele>48.4</ele>
        <time>2023-11-05T10:31:34Z</time>
      </trkpt>
      <trkpt lat="43.50574" lon="6.62581">
        <ele>48.6</ele>
        <time>2023-11-05T10:31:35Z</time>
      </trkpt>
      <trkpt lat="43.50575" lon="6.62582">
        <ele>48.7</ele>
        <time>2023-11-05T10:31:36Z</time>
      </trkpt>
      <trkpt lat="43.50576" lon="6.62582">
        <ele>48.7</ele>
        <time>2023-11-05T10:31:37Z</time>
      </trkpt>
      <trkpt lat="43.50577" lon="6.62582">
        <ele>48.8</ele>
        <time>2023-11-05T10:31:38Z</time>
      </trkpt>
      <trkpt lat="43.50578" lon="6.62582">
        <ele>48.8</ele>
        <time>2023-11-05T10:31:39Z</time>
      </trkpt>
      <trkpt lat="43.50579" lon="6.62582">
        <ele>48.8</ele>
        <time>2023-11-05T10:31:40Z</time>
      </trkpt>
      <trkpt lat="43.5058" lon="6.62583">
        <ele>48.8</ele>
        <time>2023-11-05T10:31:41Z</time>
      </trkpt>
      <trkpt lat="43.50581" lon="6.62583">
        <ele>48.9</ele>
        <time>2023-11-05T10:31:42Z</time>
      </trkpt>
      <trkpt lat="43.50583" lon="6.62583">
        <ele>49.1</ele>
        <time>2023-11-05T10:31:43Z</time>
      </trkpt>
      <trkpt lat="43.50584" lon="6.62583">
        <ele>49.3</ele>
        <time>2023-11-05T10:31:44Z</time>
      </trkpt>
      <trkpt lat="43.50585" lon="6.62584">
        <ele>49.5</ele>
        <time>2023-11-05T10:31:45Z</time>
      </trkpt>
      <trkpt lat="43.50586" lon="6.62584">
        <ele>49.8</ele>
        <time>2023-11-05T10:31:46Z</time>
      </trkpt>
      <trkpt lat="43.50587" lon="6.62584">
        <ele>50</ele>
        <time>2023-11-05T10:31:47Z</time>
      </trkpt>
      <trkpt lat="43.50588" lon="6.62585">
        <ele>50.2</ele>
        <time>2023-11-05T10:31:48Z</time>
      </trkpt>
      <trkpt lat="43.5059" lon="6.62585">
        <ele>50.2</ele>
        <time>2023-11-05T10:31:49Z</time>
      </trkpt>
      <trkpt lat="43.50591" lon="6.62586">
        <ele>50.1</ele>
        <time>2023-11-05T10:31:50Z</time>
      </trkpt>
      <trkpt lat="43.50592" lon="6.62586">
        <ele>50.1</ele>
        <time>2023-11-05T10:31:51Z</time>
      </trkpt>
      <trkpt lat="43.50592" lon="6.62587">
        <ele>50.1</ele>
        <time>2023-11-05T10:31:52Z</time>
      </trkpt>
      <trkpt lat="43.50593" lon="6.62587">
        <ele>50.1</ele>
        <time>2023-11-05T10:31:53Z</time>
      </trkpt>
      <trkpt lat="43.50594" lon="6.62587">
        <ele>50</ele>
        <time>2023-11-05T10:31:54Z</time>
      </trkpt>
      <trkpt lat="43.50595" lon="6.62588">
        <ele>50</ele>
        <time>2023-11-05T10:31:55Z</time>
      </trkpt>
      <trkpt lat="43.50596" lon="6.62588">
        <ele>50</ele>
        <time>2023-11-05T10:31:56Z</time>
      </trkpt>
      <trkpt lat="43.50597" lon="6.62589">
        <ele>50</ele>
        <time>2023-11-05T10:31:57Z</time>
      </trkpt>
      <trkpt lat="43.50598" lon="6.62589">
        <ele>50.1</ele>
        <time>2023-11-05T10:31:58Z</time>
      </trkpt>
      <trkpt lat="43.50599" lon="6.6259">
        <ele>50.1</ele>
        <time>2023-11-05T10:31:59Z</time>
      </trkpt>
      <trkpt lat="43.506" lon="6.62591">
        <ele>50.2</ele>
        <time>2023-11-05T10:32:00Z</time>
      </trkpt>
      <trkpt lat="43.50601" lon="6.62592">
        <ele>50.2</ele>
        <time>2023-11-05T10:32:01Z</time>
      </trkpt>
      <trkpt lat="43.50602" lon="6.62592">
        <ele>50.1</ele>
        <time>2023-11-05T10:32:02Z</time>
      </trkpt>
      <trkpt lat="43.50602" lon="6.62593">
        <ele>50</ele>
        <time>2023-11-05T10:32:03Z</time>
      </trkpt>
      <trkpt lat="43.50603" lon="6.62594">
        <ele>50.1</ele>
        <time>2023-11-05T10:32:04Z</time>
      </trkpt>
      <trkpt lat="43.50604" lon="6.62594">
        <ele>50.1</ele>
        <time>2023-11-05T10:32:05Z</time>
      </trkpt>
      <trkpt lat="43.50605" lon="6.62594">
        <ele>50</ele>
        <time>2023-11-05T10:32:06Z</time>
      </trkpt>
      <trkpt lat="43.50606" lon="6.62594">
        <ele>50.1</ele>
        <time>2023-11-05T10:32:07Z</time>
      </trkpt>
      <trkpt lat="43.50607" lon="6.62595">
        <ele>50.3</ele>
        <time>2023-11-05T10:32:08Z</time>
      </trkpt>
      <trkpt lat="43.50609" lon="6.62596">
        <ele>50.5</ele>
        <time>2023-11-05T10:32:09Z</time>
      </trkpt>
      <trkpt lat="43.5061" lon="6.62596">
        <ele>50.6</ele>
        <time>2023-11-05T10:32:10Z</time>
      </trkpt>
      <trkpt lat="43.50611" lon="6.62596">
        <ele>50.8</ele>
        <time>2023-11-05T10:32:11Z</time>
      </trkpt>
      <trkpt lat="43.50612" lon="6.62596">
        <ele>50.9</ele>
        <time>2023-11-05T10:32:12Z</time>
      </trkpt>
      <trkpt lat="43.50613" lon="6.62595">
        <ele>51.1</ele>
        <time>2023-11-05T10:32:13Z</time>
      </trkpt>
      <trkpt lat="43.50614" lon="6.62596">
        <ele>51.2</ele>
        <time>2023-11-05T10:32:14Z</time>
      </trkpt>
      <trkpt lat="43.50615" lon="6.62595">
        <ele>51.3</ele>
        <time>2023-11-05T10:32:15Z</time>
      </trkpt>
      <trkpt lat="43.50616" lon="6.62595">
        <ele>51.4</ele>
        <time>2023-11-05T10:32:16Z</time>
      </trkpt>
      <trkpt lat="43.50617" lon="6.62594">
        <ele>51.6</ele>
        <time>2023-11-05T10:32:17Z</time>
      </trkpt>
      <trkpt lat="43.50618" lon="6.62594">
        <ele>51.6</ele>
        <time>2023-11-05T10:32:18Z</time>
      </trkpt>
      <trkpt lat="43.50619" lon="6.62594">
        <ele>51.7</ele>
        <time>2023-11-05T10:32:19Z</time>
      </trkpt>
      <trkpt lat="43.5062" lon="6.62593">
        <ele>51.8</ele>
        <time>2023-11-05T10:32:20Z</time>
      </trkpt>
      <trkpt lat="43.50621" lon="6.62593">
        <ele>51.8</ele>
        <time>2023-11-05T10:32:21Z</time>
      </trkpt>
      <trkpt lat="43.50622" lon="6.62592">
        <ele>51.9</ele>
        <time>2023-11-05T10:32:22Z</time>
      </trkpt>
      <trkpt lat="43.50623" lon="6.62591">
        <ele>52.1</ele>
        <time>2023-11-05T10:32:23Z</time>
      </trkpt>
      <trkpt lat="43.50623" lon="6.6259">
        <ele>52.4</ele>
        <time>2023-11-05T10:32:24Z</time>
      </trkpt>
      <trkpt lat="43.50624" lon="6.62589">
        <ele>52.7</ele>
        <time>2023-11-05T10:32:25Z</time>
      </trkpt>
      <trkpt lat="43.50624" lon="6.62588">
        <ele>52.9</ele>
        <time>2023-11-05T10:32:26Z</time>
      </trkpt>
      <trkpt lat="43.50624" lon="6.62588">
        <ele>53</ele>
        <time>2023-11-05T10:32:27Z</time>
      </trkpt>
      <trkpt lat="43.50624" lon="6.62588">
        <ele>53.1</ele>
        <time>2023-11-05T10:32:28Z</time>
      </trkpt>
      <trkpt lat="43.50624" lon="6.62587">
        <ele>53</ele>
        <time>2023-11-05T10:32:29Z</time>
      </trkpt>
      <trkpt lat="43.50623" lon="6.62587">
        <ele>53</ele>
        <time>2023-11-05T10:32:30Z</time>
      </trkpt>
      <trkpt lat="43.50624" lon="6.62587">
        <ele>52.9</ele>
        <time>2023-11-05T10:32:31Z</time>
      </trkpt>
      <trkpt lat="43.50624" lon="6.62587">
        <ele>52.8</ele>
        <time>2023-11-05T10:32:32Z</time>
      </trkpt>
      <trkpt lat="43.50625" lon="6.62586">
        <ele>52.6</ele>
        <time>2023-11-05T10:32:33Z</time>
      </trkpt>
      <trkpt lat="43.50625" lon="6.62586">
        <ele>52.5</ele>
        <time>2023-11-05T10:32:34Z</time>
      </trkpt>
      <trkpt lat="43.50625" lon="6.62586">
        <ele>52.6</ele>
        <time>2023-11-05T10:32:35Z</time>
      </trkpt>
      <trkpt lat="43.50625" lon="6.62586">
        <ele>52.6</ele>
        <time>2023-11-05T10:32:36Z</time>
      </trkpt>
      <trkpt lat="43.50625" lon="6.62586">
        <ele>52.6</ele>
        <time>2023-11-05T10:32:37Z</time>
      </trkpt>
      <trkpt lat="43.50625" lon="6.62586">
        <ele>52.9</ele>
        <time>2023-11-05T10:32:38Z</time>
      </trkpt>
      <trkpt lat="43.50626" lon="6.62585">
        <ele>53</ele>
        <time>2023-11-05T10:32:39Z</time>
      </trkpt>
      <trkpt lat="43.50626" lon="6.62585">
        <ele>53.2</ele>
        <time>2023-11-05T10:32:40Z</time>
      </trkpt>
      <trkpt lat="43.50626" lon="6.62585">
        <ele>53.3</ele>
        <time>2023-11-05T10:32:41Z</time>
      </trkpt>
      <trkpt lat="43.50626" lon="6.62585">
        <ele>53.3</ele>
        <time>2023-11-05T10:32:42Z</time>
      </trkpt>
      <trkpt lat="43.50626" lon="6.62585">
        <ele>53.2</ele>
        <time>2023-11-05T10:32:43Z</time>
      </trkpt>
      <trkpt lat="43.50626" lon="6.62585">
        <ele>53.1</ele>
        <time>2023-11-05T10:32:44Z</time>
      </trkpt>
      <trkpt lat="43.50625" lon="6.62585">
        <ele>53.1</ele>
        <time>2023-11-05T10:32:45Z</time>
      </trkpt>
      <trkpt lat="43.50625" lon="6.62585">
        <ele>53</ele>
        <time>2023-11-05T10:32:46Z</time>
      </trkpt>
      <trkpt lat="43.50625" lon="6.62585">
        <ele>53</ele>
        <time>2023-11-05T10:32:47Z</time>
      </trkpt>
      <trkpt lat="43.50625" lon="6.62585">
        <ele>53</ele>
        <time>2023-11-05T10:32:48Z</time>
      </trkpt>
      <trkpt lat="43.50626" lon="6.62585">
        <ele>53</ele>
        <time>2023-11-05T10:32:49Z</time>
      </trkpt>
      <trkpt lat="43.50626" lon="6.62585">
        <ele>53</ele>
        <time>2023-11-05T10:32:50Z</time>
      </trkpt>
      <trkpt lat="43.50625" lon="6.62584">
        <ele>53.1</ele>
        <time>2023-11-05T10:32:51Z</time>
      </trkpt>
      <trkpt lat="43.50626" lon="6.62584">
        <ele>53.2</ele>
        <time>2023-11-05T10:32:52Z</time>
      </trkpt>
      <trkpt lat="43.50626" lon="6.62584">
        <ele>53.3</ele>
        <time>2023-11-05T10:32:53Z</time>
      </trkpt>
      <trkpt lat="43.50625" lon="6.62584">
        <ele>53.3</ele>
        <time>2023-11-05T10:32:54Z</time>
      </trkpt>
      <trkpt lat="43.50626" lon="6.62584">
        <ele>53.4</ele>
        <time>2023-11-05T10:32:55Z</time>
      </trkpt>
      <trkpt lat="43.50626" lon="6.62584">
        <ele>53.4</ele>
        <time>2023-11-05T10:32:56Z</time>
      </trkpt>
      <trkpt lat="43.50625" lon="6.62584">
        <ele>53.5</ele>
        <time>2023-11-05T10:32:57Z</time>
      </trkpt>
      <trkpt lat="43.50626" lon="6.62584">
        <ele>53.5</ele>
        <time>2023-11-05T10:32:58Z</time>
      </trkpt>
      <trkpt lat="43.50626" lon="6.62584">
        <ele>53.4</ele>
        <time>2023-11-05T10:32:59Z</time>
      </trkpt>
      <trkpt lat="43.50626" lon="6.62585">
        <ele>53.4</ele>
        <time>2023-11-05T10:33:00Z</time>
      </trkpt>
      <trkpt lat="43.50626" lon="6.62585">
        <ele>53.4</ele>
        <time>2023-11-05T10:33:01Z</time>
      </trkpt>
      <trkpt lat="43.50626" lon="6.62585">
        <ele>53.3</ele>
        <time>2023-11-05T10:33:02Z</time>
      </trkpt>
      <trkpt lat="43.50626" lon="6.62585">
        <ele>53.3</ele>
        <time>2023-11-05T10:33:03Z</time>
      </trkpt>
      <trkpt lat="43.50626" lon="6.62585">
        <ele>53.3</ele>
        <time>2023-11-05T10:33:04Z</time>
      </trkpt>
      <trkpt lat="43.50626" lon="6.62585">
        <ele>53.3</ele>
        <time>2023-11-05T10:33:05Z</time>
      </trkpt>
      <trkpt lat="43.50626" lon="6.62585">
        <ele>53.2</ele>
        <time>2023-11-05T10:33:06Z</time>
      </trkpt>
      <trkpt lat="43.50627" lon="6.62585">
        <ele>53.1</ele>
        <time>2023-11-05T10:33:07Z</time>
      </trkpt>
      <trkpt lat="43.50627" lon="6.62585">
        <ele>53.1</ele>
        <time>2023-11-05T10:33:08Z</time>
      </trkpt>
      <trkpt lat="43.50627" lon="6.62584">
        <ele>53.1</ele>
        <time>2023-11-05T10:33:09Z</time>
      </trkpt>
      <trkpt lat="43.50627" lon="6.62584">
        <ele>53</ele>
        <time>2023-11-05T10:33:10Z</time>
      </trkpt>
      <trkpt lat="43.50627" lon="6.62584">
        <ele>52.9</ele>
        <time>2023-11-05T10:33:11Z</time>
      </trkpt>
      <trkpt lat="43.50627" lon="6.62584">
        <ele>52.8</ele>
        <time>2023-11-05T10:33:12Z</time>
      </trkpt>
      <trkpt lat="43.50627" lon="6.62584">
        <ele>52.8</ele>
        <time>2023-11-05T10:33:13Z</time>
      </trkpt>
      <trkpt lat="43.50627" lon="6.62583">
        <ele>52.8</ele>
        <time>2023-11-05T10:33:14Z</time>
      </trkpt>
      <trkpt lat="43.50627" lon="6.62583">
        <ele>52.8</ele>
        <time>2023-11-05T10:33:15Z</time>
      </trkpt>
      <trkpt lat="43.50627" lon="6.62583">
        <ele>52.7</ele>
        <time>2023-11-05T10:33:16Z</time>
      </trkpt>
      <trkpt lat="43.50627" lon="6.62583">
        <ele>52.7</ele>
        <time>2023-11-05T10:33:17Z</time>
      </trkpt>
      <trkpt lat="43.50627" lon="6.62583">
        <ele>52.8</ele>
        <time>2023-11-05T10:33:18Z</time>
      </trkpt>
      <trkpt lat="43.50627" lon="6.62582">
        <ele>52.8</ele>
        <time>2023-11-05T10:33:19Z</time>
      </trkpt>
      <trkpt lat="43.50627" lon="6.62582">
        <ele>52.9</ele>
        <time>2023-11-05T10:33:20Z</time>
      </trkpt>
      <trkpt lat="43.50627" lon="6.62582">
        <ele>52.6</ele>
        <time>2023-11-05T10:33:21Z</time>
      </trkpt>
      <trkpt lat="43.50627" lon="6.62582">
        <ele>52.6</ele>
        <time>2023-11-05T10:33:22Z</time>
      </trkpt>
      <trkpt lat="43.50627" lon="6.62582">
        <ele>52.7</ele>
        <time>2023-11-05T10:33:23Z</time>
      </trkpt>
      <trkpt lat="43.50628" lon="6.62581">
        <ele>52.7</ele>
        <time>2023-11-05T10:33:24Z</time>
      </trkpt>
      <trkpt lat="43.50627" lon="6.62581">
        <ele>52.8</ele>
        <time>2023-11-05T10:33:25Z</time>
      </trkpt>
      <trkpt lat="43.50627" lon="6.6258">
        <ele>52.7</ele>
        <time>2023-11-05T10:33:26Z</time>
      </trkpt>
      <trkpt lat="43.50627" lon="6.62579">
        <ele>52.8</ele>
        <time>2023-11-05T10:33:27Z</time>
      </trkpt>
      <trkpt lat="43.50627" lon="6.62577">
        <ele>52.8</ele>
        <time>2023-11-05T10:33:28Z</time>
      </trkpt>
      <trkpt lat="43.50628" lon="6.62576">
        <ele>52.8</ele>
        <time>2023-11-05T10:33:29Z</time>
      </trkpt>
      <trkpt lat="43.50627" lon="6.62575">
        <ele>52.6</ele>
        <time>2023-11-05T10:33:30Z</time>
      </trkpt>
      <trkpt lat="43.50627" lon="6.62574">
        <ele>52.6</ele>
        <time>2023-11-05T10:33:31Z</time>
      </trkpt>
      <trkpt lat="43.50627" lon="6.62573">
        <ele>52.5</ele>
        <time>2023-11-05T10:33:32Z</time>
      </trkpt>
      <trkpt lat="43.50627" lon="6.62572">
        <ele>52.4</ele>
        <time>2023-11-05T10:33:33Z</time>
      </trkpt>
      <trkpt lat="43.50627" lon="6.62571">
        <ele>52.4</ele>
        <time>2023-11-05T10:33:34Z</time>
      </trkpt>
      <trkpt lat="43.50627" lon="6.62571">
        <ele>52.3</ele>
        <time>2023-11-05T10:33:35Z</time>
      </trkpt>
      <trkpt lat="43.50626" lon="6.62571">
        <ele>52.2</ele>
        <time>2023-11-05T10:33:36Z</time>
      </trkpt>
      <trkpt lat="43.50626" lon="6.62569">
        <ele>52.1</ele>
        <time>2023-11-05T10:33:37Z</time>
      </trkpt>
      <trkpt lat="43.50626" lon="6.62568">
        <ele>52</ele>
        <time>2023-11-05T10:33:38Z</time>
      </trkpt>
      <trkpt lat="43.50626" lon="6.62567">
        <ele>52.1</ele>
        <time>2023-11-05T10:33:39Z</time>
      </trkpt>
      <trkpt lat="43.50626" lon="6.62566">
        <ele>52.1</ele>
        <time>2023-11-05T10:33:40Z</time>
      </trkpt>
      <trkpt lat="43.50626" lon="6.62564">
        <ele>52.1</ele>
        <time>2023-11-05T10:33:41Z</time>
      </trkpt>
      <trkpt lat="43.50626" lon="6.62563">
        <ele>51.9</ele>
        <time>2023-11-05T10:33:42Z</time>
      </trkpt>
      <trkpt lat="43.50627" lon="6.62562">
        <ele>51.9</ele>
        <time>2023-11-05T10:33:43Z</time>
      </trkpt>
      <trkpt lat="43.50627" lon="6.62561">
        <ele>51.9</ele>
        <time>2023-11-05T10:33:44Z</time>
      </trkpt>
      <trkpt lat="43.50627" lon="6.6256">
        <ele>51.8</ele>
        <time>2023-11-05T10:33:45Z</time>
      </trkpt>
      <trkpt lat="43.50627" lon="6.62559">
        <ele>51.8</ele>
        <time>2023-11-05T10:33:46Z</time>
      </trkpt>
      <trkpt lat="43.50628" lon="6.62558">
        <ele>51.8</ele>
        <time>2023-11-05T10:33:47Z</time>
      </trkpt>
      <trkpt lat="43.50629" lon="6.62558">
        <ele>51.9</ele>
        <time>2023-11-05T10:33:48Z</time>
      </trkpt>
      <trkpt lat="43.50629" lon="6.62558">
        <ele>51.7</ele>
        <time>2023-11-05T10:33:49Z</time>
      </trkpt>
      <trkpt lat="43.50629" lon="6.62558">
        <ele>51.5</ele>
        <time>2023-11-05T10:33:50Z</time>
      </trkpt>
      <trkpt lat="43.50628" lon="6.62558">
        <ele>51.3</ele>
        <time>2023-11-05T10:33:51Z</time>
      </trkpt>
      <trkpt lat="43.50628" lon="6.62558">
        <ele>51</ele>
        <time>2023-11-05T10:33:52Z</time>
      </trkpt>
      <trkpt lat="43.50628" lon="6.62558">
        <ele>50.8</ele>
        <time>2023-11-05T10:33:53Z</time>
      </trkpt>
      <trkpt lat="43.50628" lon="6.62557">
        <ele>50.7</ele>
        <time>2023-11-05T10:33:54Z</time>
      </trkpt>
      <trkpt lat="43.50629" lon="6.62556">
        <ele>50.7</ele>
        <time>2023-11-05T10:33:55Z</time>
      </trkpt>
      <trkpt lat="43.50629" lon="6.62555">
        <ele>50.6</ele>
        <time>2023-11-05T10:33:56Z</time>
      </trkpt>
      <trkpt lat="43.50629" lon="6.62556">
        <ele>50.4</ele>
        <time>2023-11-05T10:33:57Z</time>
      </trkpt>
      <trkpt lat="43.5063" lon="6.62557">
        <ele>50.2</ele>
        <time>2023-11-05T10:33:58Z</time>
      </trkpt>
      <trkpt lat="43.50631" lon="6.62557">
        <ele>50</ele>
        <time>2023-11-05T10:33:59Z</time>
      </trkpt>
      <trkpt lat="43.50631" lon="6.62556">
        <ele>49.8</ele>
        <time>2023-11-05T10:34:00Z</time>
      </trkpt>
      <trkpt lat="43.50631" lon="6.62557">
        <ele>49.7</ele>
        <time>2023-11-05T10:34:01Z</time>
      </trkpt>
      <trkpt lat="43.50631" lon="6.62557">
        <ele>49.6</ele>
        <time>2023-11-05T10:34:02Z</time>
      </trkpt>
      <trkpt lat="43.50631" lon="6.62557">
        <ele>49.5</ele>
        <time>2023-11-05T10:34:03Z</time>
      </trkpt>
      <trkpt lat="43.5063" lon="6.62557">
        <ele>49.3</ele>
        <time>2023-11-05T10:34:04Z</time>
      </trkpt>
      <trkpt lat="43.5063" lon="6.62557">
        <ele>49.3</ele>
        <time>2023-11-05T10:34:05Z</time>
      </trkpt>
      <trkpt lat="43.50631" lon="6.62557">
        <ele>49.2</ele>
        <time>2023-11-05T10:34:06Z</time>
      </trkpt>
      <trkpt lat="43.50631" lon="6.62557">
        <ele>49.2</ele>
        <time>2023-11-05T10:34:07Z</time>
      </trkpt>
      <trkpt lat="43.50631" lon="6.62556">
        <ele>49.1</ele>
        <time>2023-11-05T10:34:08Z</time>
      </trkpt>
      <trkpt lat="43.50631" lon="6.62556">
        <ele>49.1</ele>
        <time>2023-11-05T10:34:09Z</time>
      </trkpt>
      <trkpt lat="43.50631" lon="6.62556">
        <ele>49.1</ele>
        <time>2023-11-05T10:34:10Z</time>
      </trkpt>
      <trkpt lat="43.50631" lon="6.62557">
        <ele>49.1</ele>
        <time>2023-11-05T10:34:11Z</time>
      </trkpt>
      <trkpt lat="43.50631" lon="6.62557">
        <ele>49.2</ele>
        <time>2023-11-05T10:34:12Z</time>
      </trkpt>
      <trkpt lat="43.50631" lon="6.62557">
        <ele>49.2</ele>
        <time>2023-11-05T10:34:13Z</time>
      </trkpt>
      <trkpt lat="43.50631" lon="6.62556">
        <ele>49.2</ele>
        <time>2023-11-05T10:34:14Z</time>
      </trkpt>
      <trkpt lat="43.5063" lon="6.62556">
        <ele>49.1</ele>
        <time>2023-11-05T10:34:15Z</time>
      </trkpt>
      <trkpt lat="43.5063" lon="6.62556">
        <ele>49</ele>
        <time>2023-11-05T10:34:16Z</time>
      </trkpt>
      <trkpt lat="43.5063" lon="6.62556">
        <ele>48.9</ele>
        <time>2023-11-05T10:34:17Z</time>
      </trkpt>
      <trkpt lat="43.5063" lon="6.62556">
        <ele>48.9</ele>
        <time>2023-11-05T10:34:18Z</time>
      </trkpt>
      <trkpt lat="43.50631" lon="6.62556">
        <ele>48.8</ele>
        <time>2023-11-05T10:34:19Z</time>
      </trkpt>
      <trkpt lat="43.50631" lon="6.62556">
        <ele>48.8</ele>
        <time>2023-11-05T10:34:20Z</time>
      </trkpt>
      <trkpt lat="43.50631" lon="6.62556">
        <ele>48.7</ele>
        <time>2023-11-05T10:34:21Z</time>
      </trkpt>
      <trkpt lat="43.50631" lon="6.62556">
        <ele>48.6</ele>
        <time>2023-11-05T10:34:22Z</time>
      </trkpt>
      <trkpt lat="43.50631" lon="6.62556">
        <ele>48.6</ele>
        <time>2023-11-05T10:34:23Z</time>
      </trkpt>
      <trkpt lat="43.50631" lon="6.62556">
        <ele>48.6</ele>
        <time>2023-11-05T10:34:24Z</time>
      </trkpt>
      <trkpt lat="43.50631" lon="6.62556">
        <ele>48.6</ele>
        <time>2023-11-05T10:34:25Z</time>
      </trkpt>
      <trkpt lat="43.50631" lon="6.62556">
        <ele>48.7</ele>
        <time>2023-11-05T10:34:26Z</time>
      </trkpt>
      <trkpt lat="43.50631" lon="6.62556">
        <ele>48.7</ele>
        <time>2023-11-05T10:34:27Z</time>
      </trkpt>
      <trkpt lat="43.50631" lon="6.62556">
        <ele>48.8</ele>
        <time>2023-11-05T10:34:28Z</time>
      </trkpt>
      <trkpt lat="43.50631" lon="6.62556">
        <ele>48.8</ele>
        <time>2023-11-05T10:34:29Z</time>
      </trkpt>
      <trkpt lat="43.50632" lon="6.62556">
        <ele>48.8</ele>
        <time>2023-11-05T10:34:30Z</time>
      </trkpt>
      <trkpt lat="43.50631" lon="6.62556">
        <ele>48.9</ele>
        <time>2023-11-05T10:34:31Z</time>
      </trkpt>
      <trkpt lat="43.50631" lon="6.62556">
        <ele>49</ele>
        <time>2023-11-05T10:34:32Z</time>
      </trkpt>
      <trkpt lat="43.5063" lon="6.62556">
        <ele>49</ele>
        <time>2023-11-05T10:34:33Z</time>
      </trkpt>
      <trkpt lat="43.50629" lon="6.62556">
        <ele>49.2</ele>
        <time>2023-11-05T10:34:34Z</time>
      </trkpt>
      <trkpt lat="43.50629" lon="6.62556">
        <ele>49.5</ele>
        <time>2023-11-05T10:34:35Z</time>
      </trkpt>
      <trkpt lat="43.50629" lon="6.62557">
        <ele>49.7</ele>
        <time>2023-11-05T10:34:36Z</time>
      </trkpt>
      <trkpt lat="43.5063" lon="6.62556">
        <ele>49.9</ele>
        <time>2023-11-05T10:34:37Z</time>
      </trkpt>
      <trkpt lat="43.5063" lon="6.62556">
        <ele>50</ele>
        <time>2023-11-05T10:34:38Z</time>
      </trkpt>
      <trkpt lat="43.5063" lon="6.62556">
        <ele>50.1</ele>
        <time>2023-11-05T10:34:39Z</time>
      </trkpt>
      <trkpt lat="43.50629" lon="6.62556">
        <ele>50.1</ele>
        <time>2023-11-05T10:34:40Z</time>
      </trkpt>
      <trkpt lat="43.50629" lon="6.62556">
        <ele>50.1</ele>
        <time>2023-11-05T10:34:41Z</time>
      </trkpt>
      <trkpt lat="43.5063" lon="6.62557">
        <ele>50.2</ele>
        <time>2023-11-05T10:34:42Z</time>
      </trkpt>
      <trkpt lat="43.5063" lon="6.62557">
        <ele>50.3</ele>
        <time>2023-11-05T10:34:43Z</time>
      </trkpt>
      <trkpt lat="43.5063" lon="6.62557">
        <ele>50.5</ele>
        <time>2023-11-05T10:34:44Z</time>
      </trkpt>
      <trkpt lat="43.5063" lon="6.62557">
        <ele>50.6</ele>
        <time>2023-11-05T10:34:45Z</time>
      </trkpt>
      <trkpt lat="43.5063" lon="6.62556">
        <ele>50.7</ele>
        <time>2023-11-05T10:34:46Z</time>
      </trkpt>
      <trkpt lat="43.5063" lon="6.62556">
        <ele>50.8</ele>
        <time>2023-11-05T10:34:47Z</time>
      </trkpt>
      <trkpt lat="43.5063" lon="6.62556">
        <ele>50.8</ele>
        <time>2023-11-05T10:34:48Z</time>
      </trkpt>
      <trkpt lat="43.5063" lon="6.62556">
        <ele>50.7</ele>
        <time>2023-11-05T10:34:49Z</time>
      </trkpt>
      <trkpt lat="43.5063" lon="6.62556">
        <ele>50.7</ele>
        <time>2023-11-05T10:34:50Z</time>
      </trkpt>
      <trkpt lat="43.5063" lon="6.62556">
        <ele>50.8</ele>
        <time>2023-11-05T10:34:51Z</time>
      </trkpt>
      <trkpt lat="43.5063" lon="6.62556">
        <ele>50.9</ele>
        <time>2023-11-05T10:34:52Z</time>
      </trkpt>
      <trkpt lat="43.50631" lon="6.62556">
        <ele>50.9</ele>
        <time>2023-11-05T10:34:53Z</time>
      </trkpt>
      <trkpt lat="43.50631" lon="6.62557">
        <ele>50.9</ele>
        <time>2023-11-05T10:34:54Z</time>
      </trkpt>
      <trkpt lat="43.50631" lon="6.62557">
        <ele>50.9</ele>
        <time>2023-11-05T10:34:55Z</time>
      </trkpt>
      <trkpt lat="43.50631" lon="6.62557">
        <ele>50.8</ele>
        <time>2023-11-05T10:34:56Z</time>
      </trkpt>
      <trkpt lat="43.50631" lon="6.62557">
        <ele>50.8</ele>
        <time>2023-11-05T10:34:57Z</time>
      </trkpt>
      <trkpt lat="43.50632" lon="6.62558">
        <ele>50.8</ele>
        <time>2023-11-05T10:34:58Z</time>
      </trkpt>
      <trkpt lat="43.50632" lon="6.62558">
        <ele>50.7</ele>
        <time>2023-11-05T10:34:59Z</time>
      </trkpt>
      <trkpt lat="43.50632" lon="6.62558">
        <ele>50.6</ele>
        <time>2023-11-05T10:35:00Z</time>
      </trkpt>
      <trkpt lat="43.50632" lon="6.62558">
        <ele>50.5</ele>
        <time>2023-11-05T10:35:01Z</time>
      </trkpt>
      <trkpt lat="43.50632" lon="6.62558">
        <ele>50.5</ele>
        <time>2023-11-05T10:35:02Z</time>
      </trkpt>
      <trkpt lat="43.50632" lon="6.62558">
        <ele>50.5</ele>
        <time>2023-11-05T10:35:03Z</time>
      </trkpt>
      <trkpt lat="43.50632" lon="6.62558">
        <ele>50.5</ele>
        <time>2023-11-05T10:35:04Z</time>
      </trkpt>
      <trkpt lat="43.50632" lon="6.62558">
        <ele>50.5</ele>
        <time>2023-11-05T10:35:05Z</time>
      </trkpt>
      <trkpt lat="43.50632" lon="6.62558">
        <ele>50.5</ele>
        <time>2023-11-05T10:35:06Z</time>
      </trkpt>
      <trkpt lat="43.50633" lon="6.62558">
        <ele>50.5</ele>
        <time>2023-11-05T10:35:07Z</time>
      </trkpt>
      <trkpt lat="43.50633" lon="6.62558">
        <ele>50.5</ele>
        <time>2023-11-05T10:35:08Z</time>
      </trkpt>
      <trkpt lat="43.50633" lon="6.62558">
        <ele>50.5</ele>
        <time>2023-11-05T10:35:09Z</time>
      </trkpt>
      <trkpt lat="43.50633" lon="6.62558">
        <ele>50.5</ele>
        <time>2023-11-05T10:35:10Z</time>
      </trkpt>
      <trkpt lat="43.50633" lon="6.62558">
        <ele>50.5</ele>
        <time>2023-11-05T10:35:11Z</time>
      </trkpt>
      <trkpt lat="43.50633" lon="6.62559">
        <ele>50.5</ele>
        <time>2023-11-05T10:35:12Z</time>
      </trkpt>
      <trkpt lat="43.50633" lon="6.62559">
        <ele>50.5</ele>
        <time>2023-11-05T10:35:13Z</time>
      </trkpt>
      <trkpt lat="43.50633" lon="6.62559">
        <ele>50.5</ele>
        <time>2023-11-05T10:35:14Z</time>
      </trkpt>
      <trkpt lat="43.50633" lon="6.62559">
        <ele>50.4</ele>
        <time>2023-11-05T10:35:15Z</time>
      </trkpt>
      <trkpt lat="43.50634" lon="6.62559">
        <ele>50.5</ele>
        <time>2023-11-05T10:35:16Z</time>
      </trkpt>
      <trkpt lat="43.50634" lon="6.62559">
        <ele>50.6</ele>
        <time>2023-11-05T10:35:17Z</time>
      </trkpt>
      <trkpt lat="43.50633" lon="6.62558">
        <ele>50.6</ele>
        <time>2023-11-05T10:35:18Z</time>
      </trkpt>
      <trkpt lat="43.50632" lon="6.62558">
        <ele>50.7</ele>
        <time>2023-11-05T10:35:19Z</time>
      </trkpt>
      <trkpt lat="43.50631" lon="6.62558">
        <ele>50.7</ele>
        <time>2023-11-05T10:35:20Z</time>
      </trkpt>
      <trkpt lat="43.50629" lon="6.62558">
        <ele>50.9</ele>
        <time>2023-11-05T10:35:21Z</time>
      </trkpt>
      <trkpt lat="43.50629" lon="6.62558">
        <ele>51</ele>
        <time>2023-11-05T10:35:22Z</time>
      </trkpt>
      <trkpt lat="43.50628" lon="6.62558">
        <ele>51.1</ele>
        <time>2023-11-05T10:35:23Z</time>
      </trkpt>
      <trkpt lat="43.50628" lon="6.62559">
        <ele>51.3</ele>
        <time>2023-11-05T10:35:24Z</time>
      </trkpt>
      <trkpt lat="43.50628" lon="6.62559">
        <ele>51.4</ele>
        <time>2023-11-05T10:35:25Z</time>
      </trkpt>
      <trkpt lat="43.50627" lon="6.62559">
        <ele>51.5</ele>
        <time>2023-11-05T10:35:26Z</time>
      </trkpt>
      <trkpt lat="43.50627" lon="6.62559">
        <ele>51.6</ele>
        <time>2023-11-05T10:35:27Z</time>
      </trkpt>
      <trkpt lat="43.50627" lon="6.62559">
        <ele>51.7</ele>
        <time>2023-11-05T10:35:28Z</time>
      </trkpt>
      <trkpt lat="43.50628" lon="6.62559">
        <ele>51.7</ele>
        <time>2023-11-05T10:35:29Z</time>
      </trkpt>
      <trkpt lat="43.50627" lon="6.62559">
        <ele>51.8</ele>
        <time>2023-11-05T10:35:30Z</time>
      </trkpt>
      <trkpt lat="43.50626" lon="6.62559">
        <ele>51.7</ele>
        <time>2023-11-05T10:35:31Z</time>
      </trkpt>
      <trkpt lat="43.50626" lon="6.62559">
        <ele>51.7</ele>
        <time>2023-11-05T10:35:32Z</time>
      </trkpt>
      <trkpt lat="43.50625" lon="6.6256">
        <ele>51.7</ele>
        <time>2023-11-05T10:35:33Z</time>
      </trkpt>
      <trkpt lat="43.50625" lon="6.62559">
        <ele>51.7</ele>
        <time>2023-11-05T10:35:34Z</time>
      </trkpt>
      <trkpt lat="43.50625" lon="6.62559">
        <ele>51.7</ele>
        <time>2023-11-05T10:35:35Z</time>
      </trkpt>
      <trkpt lat="43.50625" lon="6.62559">
        <ele>51.7</ele>
        <time>2023-11-05T10:35:36Z</time>
      </trkpt>
      <trkpt lat="43.50625" lon="6.62559">
        <ele>51.6</ele>
        <time>2023-11-05T10:35:37Z</time>
      </trkpt>
      <trkpt lat="43.50625" lon="6.62559">
        <ele>51.5</ele>
        <time>2023-11-05T10:35:38Z</time>
      </trkpt>
      <trkpt lat="43.50624" lon="6.62559">
        <ele>51.5</ele>
        <time>2023-11-05T10:35:39Z</time>
      </trkpt>
      <trkpt lat="43.50624" lon="6.62559">
        <ele>51.5</ele>
        <time>2023-11-05T10:35:40Z</time>
      </trkpt>
      <trkpt lat="43.50624" lon="6.6256">
        <ele>51.5</ele>
        <time>2023-11-05T10:35:41Z</time>
      </trkpt>
      <trkpt lat="43.50623" lon="6.6256">
        <ele>51.6</ele>
        <time>2023-11-05T10:35:42Z</time>
      </trkpt>
      <trkpt lat="43.50623" lon="6.6256">
        <ele>51.6</ele>
        <time>2023-11-05T10:35:43Z</time>
      </trkpt>
      <trkpt lat="43.50623" lon="6.6256">
        <ele>51.5</ele>
        <time>2023-11-05T10:35:44Z</time>
      </trkpt>
      <trkpt lat="43.50623" lon="6.6256">
        <ele>51.4</ele>
        <time>2023-11-05T10:35:45Z</time>
      </trkpt>
      <trkpt lat="43.50623" lon="6.6256">
        <ele>51.2</ele>
        <time>2023-11-05T10:35:46Z</time>
      </trkpt>
      <trkpt lat="43.50623" lon="6.62561">
        <ele>51.1</ele>
        <time>2023-11-05T10:35:47Z</time>
      </trkpt>
      <trkpt lat="43.50623" lon="6.62561">
        <ele>51.1</ele>
        <time>2023-11-05T10:35:48Z</time>
      </trkpt>
      <trkpt lat="43.50622" lon="6.62561">
        <ele>51</ele>
        <time>2023-11-05T10:35:49Z</time>
      </trkpt>
      <trkpt lat="43.50622" lon="6.62561">
        <ele>51</ele>
        <time>2023-11-05T10:35:50Z</time>
      </trkpt>
      <trkpt lat="43.50622" lon="6.62561">
        <ele>51</ele>
        <time>2023-11-05T10:35:51Z</time>
      </trkpt>
      <trkpt lat="43.50622" lon="6.62561">
        <ele>51</ele>
        <time>2023-11-05T10:35:52Z</time>
      </trkpt>
      <trkpt lat="43.50622" lon="6.62561">
        <ele>51.2</ele>
        <time>2023-11-05T10:35:53Z</time>
      </trkpt>
      <trkpt lat="43.50622" lon="6.62561">
        <ele>51.3</ele>
        <time>2023-11-05T10:35:54Z</time>
      </trkpt>
      <trkpt lat="43.50622" lon="6.62561">
        <ele>51.3</ele>
        <time>2023-11-05T10:35:55Z</time>
      </trkpt>
      <trkpt lat="43.50622" lon="6.62561">
        <ele>51.3</ele>
        <time>2023-11-05T10:35:56Z</time>
      </trkpt>
      <trkpt lat="43.50623" lon="6.62561">
        <ele>51.2</ele>
        <time>2023-11-05T10:35:57Z</time>
      </trkpt>
      <trkpt lat="43.50623" lon="6.62561">
        <ele>51.2</ele>
        <time>2023-11-05T10:35:58Z</time>
      </trkpt>
      <trkpt lat="43.50622" lon="6.62561">
        <ele>51.2</ele>
        <time>2023-11-05T10:35:59Z</time>
      </trkpt>
      <trkpt lat="43.50622" lon="6.62561">
        <ele>51.2</ele>
        <time>2023-11-05T10:36:00Z</time>
      </trkpt>
      <trkpt lat="43.50622" lon="6.62561">
        <ele>51.4</ele>
        <time>2023-11-05T10:36:01Z</time>
      </trkpt>
      <trkpt lat="43.50622" lon="6.62561">
        <ele>51.4</ele>
        <time>2023-11-05T10:36:02Z</time>
      </trkpt>
      <trkpt lat="43.50623" lon="6.62561">
        <ele>51.4</ele>
        <time>2023-11-05T10:36:03Z</time>
      </trkpt>
      <trkpt lat="43.50623" lon="6.62561">
        <ele>51.4</ele>
        <time>2023-11-05T10:36:04Z</time>
      </trkpt>
      <trkpt lat="43.50623" lon="6.62561">
        <ele>51.5</ele>
        <time>2023-11-05T10:36:05Z</time>
      </trkpt>
      <trkpt lat="43.50622" lon="6.62561">
        <ele>51.5</ele>
        <time>2023-11-05T10:36:06Z</time>
      </trkpt>
      <trkpt lat="43.50622" lon="6.62561">
        <ele>51.6</ele>
        <time>2023-11-05T10:36:07Z</time>
      </trkpt>
      <trkpt lat="43.50623" lon="6.62561">
        <ele>51.6</ele>
        <time>2023-11-05T10:36:08Z</time>
      </trkpt>
      <trkpt lat="43.50622" lon="6.62561">
        <ele>51.7</ele>
        <time>2023-11-05T10:36:09Z</time>
      </trkpt>
      <trkpt lat="43.50622" lon="6.62561">
        <ele>51.7</ele>
        <time>2023-11-05T10:36:10Z</time>
      </trkpt>
      <trkpt lat="43.50622" lon="6.62561">
        <ele>51.7</ele>
        <time>2023-11-05T10:36:11Z</time>
      </trkpt>
      <trkpt lat="43.50622" lon="6.62561">
        <ele>51.6</ele>
        <time>2023-11-05T10:36:12Z</time>
      </trkpt>
      <trkpt lat="43.50621" lon="6.62561">
        <ele>51.7</ele>
        <time>2023-11-05T10:36:13Z</time>
      </trkpt>
      <trkpt lat="43.50621" lon="6.62561">
        <ele>51.6</ele>
        <time>2023-11-05T10:36:14Z</time>
      </trkpt>
      <trkpt lat="43.50621" lon="6.62561">
        <ele>51.6</ele>
        <time>2023-11-05T10:36:15Z</time>
      </trkpt>
      <trkpt lat="43.50621" lon="6.62561">
        <ele>51.6</ele>
        <time>2023-11-05T10:36:16Z</time>
      </trkpt>
      <trkpt lat="43.50621" lon="6.62561">
        <ele>51.6</ele>
        <time>2023-11-05T10:36:17Z</time>
      </trkpt>
      <trkpt lat="43.50621" lon="6.62561">
        <ele>51.6</ele>
        <time>2023-11-05T10:36:18Z</time>
      </trkpt>
      <trkpt lat="43.5062" lon="6.62561">
        <ele>51.7</ele>
        <time>2023-11-05T10:36:19Z</time>
      </trkpt>
      <trkpt lat="43.5062" lon="6.62561">
        <ele>51.7</ele>
        <time>2023-11-05T10:36:20Z</time>
      </trkpt>
      <trkpt lat="43.5062" lon="6.62561">
        <ele>51.7</ele>
        <time>2023-11-05T10:36:21Z</time>
      </trkpt>
      <trkpt lat="43.5062" lon="6.62561">
        <ele>51.7</ele>
        <time>2023-11-05T10:36:22Z</time>
      </trkpt>
      <trkpt lat="43.5062" lon="6.62561">
        <ele>51.8</ele>
        <time>2023-11-05T10:36:23Z</time>
      </trkpt>
      <trkpt lat="43.5062" lon="6.62561">
        <ele>51.8</ele>
        <time>2023-11-05T10:36:24Z</time>
      </trkpt>
      <trkpt lat="43.5062" lon="6.6256">
        <ele>51.8</ele>
        <time>2023-11-05T10:36:25Z</time>
      </trkpt>
      <trkpt lat="43.5062" lon="6.6256">
        <ele>51.7</ele>
        <time>2023-11-05T10:36:26Z</time>
      </trkpt>
      <trkpt lat="43.5062" lon="6.6256">
        <ele>51.7</ele>
        <time>2023-11-05T10:36:27Z</time>
      </trkpt>
      <trkpt lat="43.5062" lon="6.62561">
        <ele>51.7</ele>
        <time>2023-11-05T10:36:28Z</time>
      </trkpt>
      <trkpt lat="43.50621" lon="6.6256">
        <ele>51.7</ele>
        <time>2023-11-05T10:36:29Z</time>
      </trkpt>
      <trkpt lat="43.50621" lon="6.6256">
        <ele>51.6</ele>
        <time>2023-11-05T10:36:30Z</time>
      </trkpt>
      <trkpt lat="43.50621" lon="6.6256">
        <ele>51.6</ele>
        <time>2023-11-05T10:36:31Z</time>
      </trkpt>
      <trkpt lat="43.50621" lon="6.6256">
        <ele>51.5</ele>
        <time>2023-11-05T10:36:32Z</time>
      </trkpt>
      <trkpt lat="43.50621" lon="6.6256">
        <ele>51.5</ele>
        <time>2023-11-05T10:36:33Z</time>
      </trkpt>
      <trkpt lat="43.50621" lon="6.6256">
        <ele>51.5</ele>
        <time>2023-11-05T10:36:34Z</time>
      </trkpt>
      <trkpt lat="43.50621" lon="6.6256">
        <ele>51.5</ele>
        <time>2023-11-05T10:36:35Z</time>
      </trkpt>
      <trkpt lat="43.50621" lon="6.6256">
        <ele>51.5</ele>
        <time>2023-11-05T10:36:36Z</time>
      </trkpt>
      <trkpt lat="43.50621" lon="6.6256">
        <ele>51.5</ele>
        <time>2023-11-05T10:36:37Z</time>
      </trkpt>
      <trkpt lat="43.50621" lon="6.62559">
        <ele>51.4</ele>
        <time>2023-11-05T10:36:38Z</time>
      </trkpt>
      <trkpt lat="43.50621" lon="6.62559">
        <ele>51.4</ele>
        <time>2023-11-05T10:36:39Z</time>
      </trkpt>
      <trkpt lat="43.50621" lon="6.62559">
        <ele>51.3</ele>
        <time>2023-11-05T10:36:40Z</time>
      </trkpt>
      <trkpt lat="43.50621" lon="6.62559">
        <ele>51.3</ele>
        <time>2023-11-05T10:36:41Z</time>
      </trkpt>
      <trkpt lat="43.50621" lon="6.62558">
        <ele>51.3</ele>
        <time>2023-11-05T10:36:42Z</time>
      </trkpt>
      <trkpt lat="43.50621" lon="6.62558">
        <ele>51.3</ele>
        <time>2023-11-05T10:36:43Z</time>
      </trkpt>
      <trkpt lat="43.50621" lon="6.62558">
        <ele>51.3</ele>
        <time>2023-11-05T10:36:44Z</time>
      </trkpt>
      <trkpt lat="43.50621" lon="6.62557">
        <ele>51.3</ele>
        <time>2023-11-05T10:36:45Z</time>
      </trkpt>
      <trkpt lat="43.50621" lon="6.62557">
        <ele>51.3</ele>
        <time>2023-11-05T10:36:46Z</time>
      </trkpt>
      <trkpt lat="43.50622" lon="6.62557">
        <ele>51.3</ele>
        <time>2023-11-05T10:36:47Z</time>
      </trkpt>
      <trkpt lat="43.50622" lon="6.62557">
        <ele>51.2</ele>
        <time>2023-11-05T10:36:48Z</time>
      </trkpt>
      <trkpt lat="43.50622" lon="6.62556">
        <ele>51.2</ele>
        <time>2023-11-05T10:36:49Z</time>
      </trkpt>
      <trkpt lat="43.50622" lon="6.62556">
        <ele>51.2</ele>
        <time>2023-11-05T10:36:50Z</time>
      </trkpt>
      <trkpt lat="43.50621" lon="6.62556">
        <ele>51.1</ele>
        <time>2023-11-05T10:36:51Z</time>
      </trkpt>
      <trkpt lat="43.50621" lon="6.62556">
        <ele>51.1</ele>
        <time>2023-11-05T10:36:52Z</time>
      </trkpt>
      <trkpt lat="43.50621" lon="6.62556">
        <ele>51.1</ele>
        <time>2023-11-05T10:36:53Z</time>
      </trkpt>
      <trkpt lat="43.50621" lon="6.62556">
        <ele>51.1</ele>
        <time>2023-11-05T10:36:54Z</time>
      </trkpt>
      <trkpt lat="43.50622" lon="6.62555">
        <ele>51.1</ele>
        <time>2023-11-05T10:36:55Z</time>
      </trkpt>
      <trkpt lat="43.50622" lon="6.62555">
        <ele>51.1</ele>
        <time>2023-11-05T10:36:56Z</time>
      </trkpt>
      <trkpt lat="43.50622" lon="6.62555">
        <ele>51.1</ele>
        <time>2023-11-05T10:36:57Z</time>
      </trkpt>
      <trkpt lat="43.50622" lon="6.62555">
        <ele>51</ele>
        <time>2023-11-05T10:36:58Z</time>
      </trkpt>
      <trkpt lat="43.50622" lon="6.62555">
        <ele>51</ele>
        <time>2023-11-05T10:36:59Z</time>
      </trkpt>
      <trkpt lat="43.50622" lon="6.62555">
        <ele>51</ele>
        <time>2023-11-05T10:37:00Z</time>
      </trkpt>
      <trkpt lat="43.50622" lon="6.62555">
        <ele>51.1</ele>
        <time>2023-11-05T10:37:01Z</time>
      </trkpt>
      <trkpt lat="43.50622" lon="6.62555">
        <ele>51.1</ele>
        <time>2023-11-05T10:37:02Z</time>
      </trkpt>
      <trkpt lat="43.50622" lon="6.62556">
        <ele>51.1</ele>
        <time>2023-11-05T10:37:03Z</time>
      </trkpt>
      <trkpt lat="43.50622" lon="6.62556">
        <ele>51.1</ele>
        <time>2023-11-05T10:37:04Z</time>
      </trkpt>
      <trkpt lat="43.50622" lon="6.62556">
        <ele>51.1</ele>
        <time>2023-11-05T10:37:05Z</time>
      </trkpt>
      <trkpt lat="43.50622" lon="6.62556">
        <ele>51.1</ele>
        <time>2023-11-05T10:37:06Z</time>
      </trkpt>
      <trkpt lat="43.50622" lon="6.62556">
        <ele>51.1</ele>
        <time>2023-11-05T10:37:07Z</time>
      </trkpt>
      <trkpt lat="43.50622" lon="6.62556">
        <ele>51.1</ele>
        <time>2023-11-05T10:37:08Z</time>
      </trkpt>
      <trkpt lat="43.50622" lon="6.62556">
        <ele>51.1</ele>
        <time>2023-11-05T10:37:09Z</time>
      </trkpt>
      <trkpt lat="43.50622" lon="6.62556">
        <ele>51</ele>
        <time>2023-11-05T10:37:10Z</time>
      </trkpt>
      <trkpt lat="43.50622" lon="6.62556">
        <ele>51.1</ele>
        <time>2023-11-05T10:37:11Z</time>
      </trkpt>
      <trkpt lat="43.50622" lon="6.62556">
        <ele>51.1</ele>
        <time>2023-11-05T10:37:12Z</time>
      </trkpt>
      <trkpt lat="43.50622" lon="6.62556">
        <ele>51</ele>
        <time>2023-11-05T10:37:13Z</time>
      </trkpt>
      <trkpt lat="43.50622" lon="6.62556">
        <ele>51</ele>
        <time>2023-11-05T10:37:14Z</time>
      </trkpt>
      <trkpt lat="43.50622" lon="6.62556">
        <ele>51</ele>
        <time>2023-11-05T10:37:15Z</time>
      </trkpt>
      <trkpt lat="43.50622" lon="6.62556">
        <ele>51</ele>
        <time>2023-11-05T10:37:16Z</time>
      </trkpt>
      <trkpt lat="43.50622" lon="6.62556">
        <ele>51.1</ele>
        <time>2023-11-05T10:37:17Z</time>
      </trkpt>
      <trkpt lat="43.50622" lon="6.62556">
        <ele>51.1</ele>
        <time>2023-11-05T10:37:18Z</time>
      </trkpt>
      <trkpt lat="43.50622" lon="6.62556">
        <ele>51.2</ele>
        <time>2023-11-05T10:37:19Z</time>
      </trkpt>
      <trkpt lat="43.50622" lon="6.62557">
        <ele>51.2</ele>
        <time>2023-11-05T10:37:20Z</time>
      </trkpt>
      <trkpt lat="43.50622" lon="6.62557">
        <ele>51.3</ele>
        <time>2023-11-05T10:37:21Z</time>
      </trkpt>
      <trkpt lat="43.50622" lon="6.62557">
        <ele>51.4</ele>
        <time>2023-11-05T10:37:22Z</time>
      </trkpt>
      <trkpt lat="43.50622" lon="6.62557">
        <ele>51.4</ele>
        <time>2023-11-05T10:37:23Z</time>
      </trkpt>
      <trkpt lat="43.50622" lon="6.62557">
        <ele>51.4</ele>
        <time>2023-11-05T10:37:24Z</time>
      </trkpt>
      <trkpt lat="43.50622" lon="6.62557">
        <ele>51.4</ele>
        <time>2023-11-05T10:37:25Z</time>
      </trkpt>
      <trkpt lat="43.50622" lon="6.62557">
        <ele>51.4</ele>
        <time>2023-11-05T10:37:26Z</time>
      </trkpt>
      <trkpt lat="43.50622" lon="6.62557">
        <ele>51.4</ele>
        <time>2023-11-05T10:37:27Z</time>
      </trkpt>
      <trkpt lat="43.50622" lon="6.62557">
        <ele>51.4</ele>
        <time>2023-11-05T10:37:28Z</time>
      </trkpt>
      <trkpt lat="43.50622" lon="6.62558">
        <ele>51.3</ele>
        <time>2023-11-05T10:37:29Z</time>
      </trkpt>
      <trkpt lat="43.50622" lon="6.62558">
        <ele>51.3</ele>
        <time>2023-11-05T10:37:30Z</time>
      </trkpt>
      <trkpt lat="43.50622" lon="6.62558">
        <ele>51.3</ele>
        <time>2023-11-05T10:37:31Z</time>
      </trkpt>
      <trkpt lat="43.50622" lon="6.62558">
        <ele>51.3</ele>
        <time>2023-11-05T10:37:32Z</time>
      </trkpt>
      <trkpt lat="43.50622" lon="6.62559">
        <ele>51.3</ele>
        <time>2023-11-05T10:37:33Z</time>
      </trkpt>
      <trkpt lat="43.50622" lon="6.6256">
        <ele>51.2</ele>
        <time>2023-11-05T10:37:34Z</time>
      </trkpt>
      <trkpt lat="43.50622" lon="6.6256">
        <ele>51.2</ele>
        <time>2023-11-05T10:37:35Z</time>
      </trkpt>
      <trkpt lat="43.50622" lon="6.62561">
        <ele>51.2</ele>
        <time>2023-11-05T10:37:36Z</time>
      </trkpt>
      <trkpt lat="43.50622" lon="6.62562">
        <ele>51.3</ele>
        <time>2023-11-05T10:37:37Z</time>
      </trkpt>
      <trkpt lat="43.50622" lon="6.62563">
        <ele>51.4</ele>
        <time>2023-11-05T10:37:38Z</time>
      </trkpt>
      <trkpt lat="43.50622" lon="6.62564">
        <ele>51.5</ele>
        <time>2023-11-05T10:37:39Z</time>
      </trkpt>
      <trkpt lat="43.50622" lon="6.62564">
        <ele>51.5</ele>
        <time>2023-11-05T10:37:40Z</time>
      </trkpt>
      <trkpt lat="43.50622" lon="6.62566">
        <ele>51.5</ele>
        <time>2023-11-05T10:37:41Z</time>
      </trkpt>
      <trkpt lat="43.50622" lon="6.62567">
        <ele>51.5</ele>
        <time>2023-11-05T10:37:42Z</time>
      </trkpt>
      <trkpt lat="43.50622" lon="6.62568">
        <ele>51.5</ele>
        <time>2023-11-05T10:37:43Z</time>
      </trkpt>
      <trkpt lat="43.50622" lon="6.62569">
        <ele>51.5</ele>
        <time>2023-11-05T10:37:44Z</time>
      </trkpt>
      <trkpt lat="43.50622" lon="6.6257">
        <ele>51.5</ele>
        <time>2023-11-05T10:37:45Z</time>
      </trkpt>
      <trkpt lat="43.50622" lon="6.62571">
        <ele>51.6</ele>
        <time>2023-11-05T10:37:46Z</time>
      </trkpt>
      <trkpt lat="43.50622" lon="6.62572">
        <ele>51.8</ele>
        <time>2023-11-05T10:37:47Z</time>
      </trkpt>
      <trkpt lat="43.50622" lon="6.62573">
        <ele>51.8</ele>
        <time>2023-11-05T10:37:48Z</time>
      </trkpt>
      <trkpt lat="43.50623" lon="6.62574">
        <ele>51.9</ele>
        <time>2023-11-05T10:37:49Z</time>
      </trkpt>
      <trkpt lat="43.50623" lon="6.62575">
        <ele>51.9</ele>
        <time>2023-11-05T10:37:50Z</time>
      </trkpt>
      <trkpt lat="43.50623" lon="6.62575">
        <ele>51.9</ele>
        <time>2023-11-05T10:37:51Z</time>
      </trkpt>
      <trkpt lat="43.50623" lon="6.62576">
        <ele>51.9</ele>
        <time>2023-11-05T10:37:52Z</time>
      </trkpt>
      <trkpt lat="43.50623" lon="6.62577">
        <ele>51.9</ele>
        <time>2023-11-05T10:37:53Z</time>
      </trkpt>
      <trkpt lat="43.50623" lon="6.62578">
        <ele>52</ele>
        <time>2023-11-05T10:37:54Z</time>
      </trkpt>
      <trkpt lat="43.50623" lon="6.62579">
        <ele>52</ele>
        <time>2023-11-05T10:37:55Z</time>
      </trkpt>
      <trkpt lat="43.50624" lon="6.62579">
        <ele>52.1</ele>
        <time>2023-11-05T10:37:56Z</time>
      </trkpt>
      <trkpt lat="43.50624" lon="6.6258">
        <ele>52.1</ele>
        <time>2023-11-05T10:37:57Z</time>
      </trkpt>
      <trkpt lat="43.50624" lon="6.6258">
        <ele>52.4</ele>
        <time>2023-11-05T10:37:58Z</time>
      </trkpt>
      <trkpt lat="43.50624" lon="6.62579">
        <ele>52.7</ele>
        <time>2023-11-05T10:37:59Z</time>
      </trkpt>
      <trkpt lat="43.50624" lon="6.62579">
        <ele>52.9</ele>
        <time>2023-11-05T10:38:00Z</time>
      </trkpt>
      <trkpt lat="43.50624" lon="6.62579">
        <ele>53</ele>
        <time>2023-11-05T10:38:01Z</time>
      </trkpt>
      <trkpt lat="43.50624" lon="6.62579">
        <ele>53</ele>
        <time>2023-11-05T10:38:02Z</time>
      </trkpt>
      <trkpt lat="43.50624" lon="6.62579">
        <ele>52.9</ele>
        <time>2023-11-05T10:38:03Z</time>
      </trkpt>
      <trkpt lat="43.50624" lon="6.62579">
        <ele>52.8</ele>
        <time>2023-11-05T10:38:04Z</time>
      </trkpt>
      <trkpt lat="43.50624" lon="6.6258">
        <ele>52.7</ele>
        <time>2023-11-05T10:38:05Z</time>
      </trkpt>
      <trkpt lat="43.50624" lon="6.6258">
        <ele>52.7</ele>
        <time>2023-11-05T10:38:06Z</time>
      </trkpt>
      <trkpt lat="43.50624" lon="6.6258">
        <ele>52.7</ele>
        <time>2023-11-05T10:38:07Z</time>
      </trkpt>
      <trkpt lat="43.50624" lon="6.6258">
        <ele>52.7</ele>
        <time>2023-11-05T10:38:08Z</time>
      </trkpt>
      <trkpt lat="43.50624" lon="6.6258">
        <ele>52.6</ele>
        <time>2023-11-05T10:38:09Z</time>
      </trkpt>
      <trkpt lat="43.50624" lon="6.62579">
        <ele>52.5</ele>
        <time>2023-11-05T10:38:10Z</time>
      </trkpt>
      <trkpt lat="43.50624" lon="6.62579">
        <ele>52.5</ele>
        <time>2023-11-05T10:38:11Z</time>
      </trkpt>
      <trkpt lat="43.50624" lon="6.6258">
        <ele>52.5</ele>
        <time>2023-11-05T10:38:12Z</time>
      </trkpt>
      <trkpt lat="43.50624" lon="6.6258">
        <ele>52.5</ele>
        <time>2023-11-05T10:38:13Z</time>
      </trkpt>
      <trkpt lat="43.50624" lon="6.6258">
        <ele>52.6</ele>
        <time>2023-11-05T10:38:14Z</time>
      </trkpt>
      <trkpt lat="43.50624" lon="6.6258">
        <ele>52.6</ele>
        <time>2023-11-05T10:38:15Z</time>
      </trkpt>
      <trkpt lat="43.50624" lon="6.6258">
        <ele>52.6</ele>
        <time>2023-11-05T10:38:16Z</time>
      </trkpt>
      <trkpt lat="43.50624" lon="6.6258">
        <ele>52.6</ele>
        <time>2023-11-05T10:38:17Z</time>
      </trkpt>
      <trkpt lat="43.50624" lon="6.6258">
        <ele>52.6</ele>
        <time>2023-11-05T10:38:18Z</time>
      </trkpt>
      <trkpt lat="43.50624" lon="6.6258">
        <ele>52.6</ele>
        <time>2023-11-05T10:38:19Z</time>
      </trkpt>
      <trkpt lat="43.50624" lon="6.6258">
        <ele>52.6</ele>
        <time>2023-11-05T10:38:20Z</time>
      </trkpt>
      <trkpt lat="43.50624" lon="6.6258">
        <ele>52.6</ele>
        <time>2023-11-05T10:38:21Z</time>
      </trkpt>
      <trkpt lat="43.50624" lon="6.6258">
        <ele>52.6</ele>
        <time>2023-11-05T10:38:22Z</time>
      </trkpt>
      <trkpt lat="43.50624" lon="6.6258">
        <ele>52.6</ele>
        <time>2023-11-05T10:38:23Z</time>
      </trkpt>
      <trkpt lat="43.50624" lon="6.6258">
        <ele>52.5</ele>
        <time>2023-11-05T10:38:24Z</time>
      </trkpt>
      <trkpt lat="43.50624" lon="6.6258">
        <ele>52.5</ele>
        <time>2023-11-05T10:38:25Z</time>
      </trkpt>
      <trkpt lat="43.50624" lon="6.6258">
        <ele>52.4</ele>
        <time>2023-11-05T10:38:26Z</time>
      </trkpt>
      <trkpt lat="43.50624" lon="6.6258">
        <ele>52.3</ele>
        <time>2023-11-05T10:38:27Z</time>
      </trkpt>
      <trkpt lat="43.50624" lon="6.6258">
        <ele>52.3</ele>
        <time>2023-11-05T10:38:28Z</time>
      </trkpt>
      <trkpt lat="43.50624" lon="6.6258">
        <ele>52.2</ele>
        <time>2023-11-05T10:38:29Z</time>
      </trkpt>
      <trkpt lat="43.50624" lon="6.6258">
        <ele>52.2</ele>
        <time>2023-11-05T10:38:30Z</time>
      </trkpt>
      <trkpt lat="43.50624" lon="6.6258">
        <ele>52.3</ele>
        <time>2023-11-05T10:38:31Z</time>
      </trkpt>
      <trkpt lat="43.50624" lon="6.6258">
        <ele>52.3</ele>
        <time>2023-11-05T10:38:32Z</time>
      </trkpt>
      <trkpt lat="43.50624" lon="6.6258">
        <ele>52.2</ele>
        <time>2023-11-05T10:38:33Z</time>
      </trkpt>
      <trkpt lat="43.50624" lon="6.6258">
        <ele>52.1</ele>
        <time>2023-11-05T10:38:34Z</time>
      </trkpt>
      <trkpt lat="43.50624" lon="6.62579">
        <ele>52</ele>
        <time>2023-11-05T10:38:35Z</time>
      </trkpt>
      <trkpt lat="43.50624" lon="6.62579">
        <ele>52</ele>
        <time>2023-11-05T10:38:36Z</time>
      </trkpt>
      <trkpt lat="43.50624" lon="6.62579">
        <ele>52</ele>
        <time>2023-11-05T10:38:37Z</time>
      </trkpt>
      <trkpt lat="43.50624" lon="6.6258">
        <ele>52</ele>
        <time>2023-11-05T10:38:38Z</time>
      </trkpt>
      <trkpt lat="43.50624" lon="6.6258">
        <ele>52</ele>
        <time>2023-11-05T10:38:39Z</time>
      </trkpt>
      <trkpt lat="43.50624" lon="6.6258">
        <ele>52</ele>
        <time>2023-11-05T10:38:40Z</time>
      </trkpt>
      <trkpt lat="43.50624" lon="6.6258">
        <ele>52</ele>
        <time>2023-11-05T10:38:41Z</time>
      </trkpt>
      <trkpt lat="43.50624" lon="6.6258">
        <ele>52</ele>
        <time>2023-11-05T10:38:42Z</time>
      </trkpt>
      <trkpt lat="43.50624" lon="6.6258">
        <ele>52.2</ele>
        <time>2023-11-05T10:38:43Z</time>
      </trkpt>
      <trkpt lat="43.50624" lon="6.6258">
        <ele>52.3</ele>
        <time>2023-11-05T10:38:44Z</time>
      </trkpt>
      <trkpt lat="43.50624" lon="6.6258">
        <ele>52.4</ele>
        <time>2023-11-05T10:38:45Z</time>
      </trkpt>
      <trkpt lat="43.50624" lon="6.6258">
        <ele>52.4</ele>
        <time>2023-11-05T10:38:46Z</time>
      </trkpt>
      <trkpt lat="43.50624" lon="6.6258">
        <ele>52.5</ele>
        <time>2023-11-05T10:38:47Z</time>
      </trkpt>
      <trkpt lat="43.50624" lon="6.6258">
        <ele>52.6</ele>
        <time>2023-11-05T10:38:48Z</time>
      </trkpt>
      <trkpt lat="43.50624" lon="6.6258">
        <ele>52.5</ele>
        <time>2023-11-05T10:38:49Z</time>
      </trkpt>
      <trkpt lat="43.50624" lon="6.6258">
        <ele>52.5</ele>
        <time>2023-11-05T10:38:50Z</time>
      </trkpt>
      <trkpt lat="43.50624" lon="6.6258">
        <ele>52.5</ele>
        <time>2023-11-05T10:38:51Z</time>
      </trkpt>
      <trkpt lat="43.50624" lon="6.6258">
        <ele>52.4</ele>
        <time>2023-11-05T10:38:52Z</time>
      </trkpt>
      <trkpt lat="43.50624" lon="6.6258">
        <ele>52.4</ele>
        <time>2023-11-05T10:38:53Z</time>
      </trkpt>
      <trkpt lat="43.50624" lon="6.6258">
        <ele>52.4</ele>
        <time>2023-11-05T10:38:54Z</time>
      </trkpt>
      <trkpt lat="43.50624" lon="6.6258">
        <ele>52.3</ele>
        <time>2023-11-05T10:38:55Z</time>
      </trkpt>
      <trkpt lat="43.50624" lon="6.6258">
        <ele>52.2</ele>
        <time>2023-11-05T10:38:56Z</time>
      </trkpt>
      <trkpt lat="43.50624" lon="6.6258">
        <ele>52.1</ele>
        <time>2023-11-05T10:38:57Z</time>
      </trkpt>
      <trkpt lat="43.50624" lon="6.6258">
        <ele>52.1</ele>
        <time>2023-11-05T10:38:58Z</time>
      </trkpt>
      <trkpt lat="43.50624" lon="6.6258">
        <ele>52.1</ele>
        <time>2023-11-05T10:38:59Z</time>
      </trkpt>
      <trkpt lat="43.50624" lon="6.6258">
        <ele>52.1</ele>
        <time>2023-11-05T10:39:00Z</time>
      </trkpt>
      <trkpt lat="43.50624" lon="6.6258">
        <ele>52.1</ele>
        <time>2023-11-05T10:39:01Z</time>
      </trkpt>
      <trkpt lat="43.50624" lon="6.6258">
        <ele>52.1</ele>
        <time>2023-11-05T10:39:02Z</time>
      </trkpt>
      <trkpt lat="43.50624" lon="6.6258">
        <ele>52.1</ele>
        <time>2023-11-05T10:39:03Z</time>
      </trkpt>
      <trkpt lat="43.50624" lon="6.6258">
        <ele>52.1</ele>
        <time>2023-11-05T10:39:04Z</time>
      </trkpt>
      <trkpt lat="43.50624" lon="6.6258">
        <ele>52</ele>
        <time>2023-11-05T10:39:05Z</time>
      </trkpt>
      <trkpt lat="43.50624" lon="6.6258">
        <ele>52</ele>
        <time>2023-11-05T10:39:06Z</time>
      </trkpt>
      <trkpt lat="43.50624" lon="6.6258">
        <ele>52</ele>
        <time>2023-11-05T10:39:07Z</time>
      </trkpt>
      <trkpt lat="43.50624" lon="6.6258">
        <ele>52</ele>
        <time>2023-11-05T10:39:08Z</time>
      </trkpt>
      <trkpt lat="43.50624" lon="6.6258">
        <ele>51.9</ele>
        <time>2023-11-05T10:39:09Z</time>
      </trkpt>
      <trkpt lat="43.50624" lon="6.6258">
        <ele>51.9</ele>
        <time>2023-11-05T10:39:10Z</time>
      </trkpt>
      <trkpt lat="43.50624" lon="6.6258">
        <ele>52</ele>
        <time>2023-11-05T10:39:11Z</time>
      </trkpt>
      <trkpt lat="43.50624" lon="6.6258">
        <ele>52.1</ele>
        <time>2023-11-05T10:39:12Z</time>
      </trkpt>
      <trkpt lat="43.50624" lon="6.6258">
        <ele>52.2</ele>
        <time>2023-11-05T10:39:13Z</time>
      </trkpt>
      <trkpt lat="43.50624" lon="6.6258">
        <ele>52.3</ele>
        <time>2023-11-05T10:39:14Z</time>
      </trkpt>
      <trkpt lat="43.50624" lon="6.6258">
        <ele>52.4</ele>
        <time>2023-11-05T10:39:15Z</time>
      </trkpt>
      <trkpt lat="43.50624" lon="6.6258">
        <ele>52.4</ele>
        <time>2023-11-05T10:39:16Z</time>
      </trkpt>
      <trkpt lat="43.50624" lon="6.62581">
        <ele>52.4</ele>
        <time>2023-11-05T10:39:17Z</time>
      </trkpt>
      <trkpt lat="43.50624" lon="6.62581">
        <ele>52.4</ele>
        <time>2023-11-05T10:39:18Z</time>
      </trkpt>
      <trkpt lat="43.50624" lon="6.62581">
        <ele>52.4</ele>
        <time>2023-11-05T10:39:19Z</time>
      </trkpt>
      <trkpt lat="43.50624" lon="6.62581">
        <ele>52.4</ele>
        <time>2023-11-05T10:39:20Z</time>
      </trkpt>
      <trkpt lat="43.50624" lon="6.6258">
        <ele>52.4</ele>
        <time>2023-11-05T10:39:21Z</time>
      </trkpt>
      <trkpt lat="43.50623" lon="6.62581">
        <ele>52.3</ele>
        <time>2023-11-05T10:39:22Z</time>
      </trkpt>
      <trkpt lat="43.50624" lon="6.62581">
        <ele>52.3</ele>
        <time>2023-11-05T10:39:23Z</time>
      </trkpt>
      <trkpt lat="43.50624" lon="6.62581">
        <ele>52.3</ele>
        <time>2023-11-05T10:39:24Z</time>
      </trkpt>
      <trkpt lat="43.50624" lon="6.62581">
        <ele>52.2</ele>
        <time>2023-11-05T10:39:25Z</time>
      </trkpt>
      <trkpt lat="43.50624" lon="6.62581">
        <ele>52.2</ele>
        <time>2023-11-05T10:39:26Z</time>
      </trkpt>
      <trkpt lat="43.50624" lon="6.62581">
        <ele>52.2</ele>
        <time>2023-11-05T10:39:27Z</time>
      </trkpt>
      <trkpt lat="43.50624" lon="6.62581">
        <ele>52.2</ele>
        <time>2023-11-05T10:39:28Z</time>
      </trkpt>
      <trkpt lat="43.50624" lon="6.62581">
        <ele>52.2</ele>
        <time>2023-11-05T10:39:29Z</time>
      </trkpt>
      <trkpt lat="43.50624" lon="6.62581">
        <ele>52.2</ele>
        <time>2023-11-05T10:39:30Z</time>
      </trkpt>
      <trkpt lat="43.50624" lon="6.62581">
        <ele>52.2</ele>
        <time>2023-11-05T10:39:31Z</time>
      </trkpt>
      <trkpt lat="43.50624" lon="6.62581">
        <ele>52.2</ele>
        <time>2023-11-05T10:39:32Z</time>
      </trkpt>
      <trkpt lat="43.50624" lon="6.62581">
        <ele>52.2</ele>
        <time>2023-11-05T10:39:33Z</time>
      </trkpt>
      <trkpt lat="43.50624" lon="6.62581">
        <ele>52.2</ele>
        <time>2023-11-05T10:39:34Z</time>
      </trkpt>
      <trkpt lat="43.50624" lon="6.62581">
        <ele>52.2</ele>
        <time>2023-11-05T10:39:35Z</time>
      </trkpt>
      <trkpt lat="43.50624" lon="6.62581">
        <ele>52.2</ele>
        <time>2023-11-05T10:39:36Z</time>
      </trkpt>
      <trkpt lat="43.50624" lon="6.62581">
        <ele>52.3</ele>
        <time>2023-11-05T10:39:37Z</time>
      </trkpt>
      <trkpt lat="43.50624" lon="6.6258">
        <ele>52.2</ele>
        <time>2023-11-05T10:39:38Z</time>
      </trkpt>
      <trkpt lat="43.50624" lon="6.62581">
        <ele>52.2</ele>
        <time>2023-11-05T10:39:39Z</time>
      </trkpt>
      <trkpt lat="43.50624" lon="6.62581">
        <ele>52.2</ele>
        <time>2023-11-05T10:39:40Z</time>
      </trkpt>
      <trkpt lat="43.50624" lon="6.62581">
        <ele>52.2</ele>
        <time>2023-11-05T10:39:41Z</time>
      </trkpt>
      <trkpt lat="43.50624" lon="6.62581">
        <ele>52.1</ele>
        <time>2023-11-05T10:39:42Z</time>
      </trkpt>
      <trkpt lat="43.50624" lon="6.62581">
        <ele>52</ele>
        <time>2023-11-05T10:39:43Z</time>
      </trkpt>
      <trkpt lat="43.50624" lon="6.62581">
        <ele>51.9</ele>
        <time>2023-11-05T10:39:44Z</time>
      </trkpt>
      <trkpt lat="43.50624" lon="6.62581">
        <ele>51.8</ele>
        <time>2023-11-05T10:39:45Z</time>
      </trkpt>
      <trkpt lat="43.50624" lon="6.62581">
        <ele>51.7</ele>
        <time>2023-11-05T10:39:46Z</time>
      </trkpt>
      <trkpt lat="43.50624" lon="6.62581">
        <ele>51.7</ele>
        <time>2023-11-05T10:39:47Z</time>
      </trkpt>
      <trkpt lat="43.50624" lon="6.62581">
        <ele>51.6</ele>
        <time>2023-11-05T10:39:48Z</time>
      </trkpt>
      <trkpt lat="43.50624" lon="6.62581">
        <ele>51.7</ele>
        <time>2023-11-05T10:39:49Z</time>
      </trkpt>
      <trkpt lat="43.50624" lon="6.62581">
        <ele>51.7</ele>
        <time>2023-11-05T10:39:50Z</time>
      </trkpt>
      <trkpt lat="43.50624" lon="6.62581">
        <ele>51.7</ele>
        <time>2023-11-05T10:39:51Z</time>
      </trkpt>
      <trkpt lat="43.50624" lon="6.62581">
        <ele>51.7</ele>
        <time>2023-11-05T10:39:52Z</time>
      </trkpt>
      <trkpt lat="43.50623" lon="6.62581">
        <ele>51.6</ele>
        <time>2023-11-05T10:39:53Z</time>
      </trkpt>
      <trkpt lat="43.50624" lon="6.62581">
        <ele>51.6</ele>
        <time>2023-11-05T10:39:54Z</time>
      </trkpt>
      <trkpt lat="43.50624" lon="6.62581">
        <ele>51.6</ele>
        <time>2023-11-05T10:39:55Z</time>
      </trkpt>
      <trkpt lat="43.50624" lon="6.62581">
        <ele>51.6</ele>
        <time>2023-11-05T10:39:56Z</time>
      </trkpt>
      <trkpt lat="43.50623" lon="6.62581">
        <ele>51.7</ele>
        <time>2023-11-05T10:39:57Z</time>
      </trkpt>
      <trkpt lat="43.50623" lon="6.62582">
        <ele>51.8</ele>
        <time>2023-11-05T10:39:58Z</time>
      </trkpt>
      <trkpt lat="43.50623" lon="6.62582">
        <ele>51.9</ele>
        <time>2023-11-05T10:39:59Z</time>
      </trkpt>
      <trkpt lat="43.50623" lon="6.62584">
        <ele>52</ele>
        <time>2023-11-05T10:40:00Z</time>
      </trkpt>
      <trkpt lat="43.50623" lon="6.62585">
        <ele>52.2</ele>
        <time>2023-11-05T10:40:01Z</time>
      </trkpt>
      <trkpt lat="43.50623" lon="6.62585">
        <ele>52.4</ele>
        <time>2023-11-05T10:40:02Z</time>
      </trkpt>
      <trkpt lat="43.50623" lon="6.62586">
        <ele>52.2</ele>
        <time>2023-11-05T10:40:03Z</time>
      </trkpt>
      <trkpt lat="43.50623" lon="6.62586">
        <ele>52.3</ele>
        <time>2023-11-05T10:40:04Z</time>
      </trkpt>
      <trkpt lat="43.50624" lon="6.62586">
        <ele>52.3</ele>
        <time>2023-11-05T10:40:05Z</time>
      </trkpt>
      <trkpt lat="43.50623" lon="6.62586">
        <ele>52.3</ele>
        <time>2023-11-05T10:40:06Z</time>
      </trkpt>
      <trkpt lat="43.50623" lon="6.62587">
        <ele>52.1</ele>
        <time>2023-11-05T10:40:07Z</time>
      </trkpt>
      <trkpt lat="43.50622" lon="6.62588">
        <ele>52.1</ele>
        <time>2023-11-05T10:40:08Z</time>
      </trkpt>
      <trkpt lat="43.50622" lon="6.62589">
        <ele>52</ele>
        <time>2023-11-05T10:40:09Z</time>
      </trkpt>
      <trkpt lat="43.50622" lon="6.62589">
        <ele>51.9</ele>
        <time>2023-11-05T10:40:10Z</time>
      </trkpt>
      <trkpt lat="43.5062" lon="6.62589">
        <ele>51.9</ele>
        <time>2023-11-05T10:40:11Z</time>
      </trkpt>
      <trkpt lat="43.50619" lon="6.62589">
        <ele>51.8</ele>
        <time>2023-11-05T10:40:12Z</time>
      </trkpt>
      <trkpt lat="43.50619" lon="6.6259">
        <ele>51.9</ele>
        <time>2023-11-05T10:40:13Z</time>
      </trkpt>
      <trkpt lat="43.50618" lon="6.62591">
        <ele>51.7</ele>
        <time>2023-11-05T10:40:14Z</time>
      </trkpt>
      <trkpt lat="43.50617" lon="6.62591">
        <ele>51.7</ele>
        <time>2023-11-05T10:40:15Z</time>
      </trkpt>
      <trkpt lat="43.50616" lon="6.62591">
        <ele>51.7</ele>
        <time>2023-11-05T10:40:16Z</time>
      </trkpt>
      <trkpt lat="43.50615" lon="6.62591">
        <ele>51.6</ele>
        <time>2023-11-05T10:40:17Z</time>
      </trkpt>
      <trkpt lat="43.50614" lon="6.62591">
        <ele>51.6</ele>
        <time>2023-11-05T10:40:18Z</time>
      </trkpt>
      <trkpt lat="43.50613" lon="6.62591">
        <ele>51.6</ele>
        <time>2023-11-05T10:40:19Z</time>
      </trkpt>
      <trkpt lat="43.50612" lon="6.62591">
        <ele>51.6</ele>
        <time>2023-11-05T10:40:20Z</time>
      </trkpt>
      <trkpt lat="43.50611" lon="6.62591">
        <ele>51.5</ele>
        <time>2023-11-05T10:40:21Z</time>
      </trkpt>
      <trkpt lat="43.5061" lon="6.6259">
        <ele>51.1</ele>
        <time>2023-11-05T10:40:22Z</time>
      </trkpt>
      <trkpt lat="43.50609" lon="6.6259">
        <ele>50.9</ele>
        <time>2023-11-05T10:40:23Z</time>
      </trkpt>
      <trkpt lat="43.50608" lon="6.6259">
        <ele>50.6</ele>
        <time>2023-11-05T10:40:24Z</time>
      </trkpt>
      <trkpt lat="43.50607" lon="6.62589">
        <ele>50.4</ele>
        <time>2023-11-05T10:40:25Z</time>
      </trkpt>
      <trkpt lat="43.50606" lon="6.62589">
        <ele>50.2</ele>
        <time>2023-11-05T10:40:26Z</time>
      </trkpt>
      <trkpt lat="43.50605" lon="6.62588">
        <ele>50</ele>
        <time>2023-11-05T10:40:27Z</time>
      </trkpt>
      <trkpt lat="43.50604" lon="6.62588">
        <ele>49.8</ele>
        <time>2023-11-05T10:40:28Z</time>
      </trkpt>
      <trkpt lat="43.50602" lon="6.62587">
        <ele>49.7</ele>
        <time>2023-11-05T10:40:29Z</time>
      </trkpt>
      <trkpt lat="43.50602" lon="6.62586">
        <ele>49.6</ele>
        <time>2023-11-05T10:40:30Z</time>
      </trkpt>
      <trkpt lat="43.506" lon="6.62585">
        <ele>49.5</ele>
        <time>2023-11-05T10:40:31Z</time>
      </trkpt>
      <trkpt lat="43.50599" lon="6.62584">
        <ele>49.5</ele>
        <time>2023-11-05T10:40:32Z</time>
      </trkpt>
      <trkpt lat="43.50598" lon="6.62583">
        <ele>49.3</ele>
        <time>2023-11-05T10:40:33Z</time>
      </trkpt>
      <trkpt lat="43.50597" lon="6.62582">
        <ele>49.1</ele>
        <time>2023-11-05T10:40:34Z</time>
      </trkpt>
      <trkpt lat="43.50596" lon="6.62582">
        <ele>49</ele>
        <time>2023-11-05T10:40:35Z</time>
      </trkpt>
      <trkpt lat="43.50595" lon="6.62581">
        <ele>49</ele>
        <time>2023-11-05T10:40:36Z</time>
      </trkpt>
      <trkpt lat="43.50594" lon="6.6258">
        <ele>49.1</ele>
        <time>2023-11-05T10:40:37Z</time>
      </trkpt>
      <trkpt lat="43.50593" lon="6.62579">
        <ele>49.1</ele>
        <time>2023-11-05T10:40:38Z</time>
      </trkpt>
      <trkpt lat="43.50592" lon="6.62579">
        <ele>49</ele>
        <time>2023-11-05T10:40:39Z</time>
      </trkpt>
      <trkpt lat="43.5059" lon="6.62578">
        <ele>48.9</ele>
        <time>2023-11-05T10:40:40Z</time>
      </trkpt>
      <trkpt lat="43.50589" lon="6.62578">
        <ele>48.8</ele>
        <time>2023-11-05T10:40:41Z</time>
      </trkpt>
      <trkpt lat="43.50588" lon="6.62577">
        <ele>48.7</ele>
        <time>2023-11-05T10:40:42Z</time>
      </trkpt>
      <trkpt lat="43.50587" lon="6.62577">
        <ele>48.7</ele>
        <time>2023-11-05T10:40:43Z</time>
      </trkpt>
      <trkpt lat="43.50586" lon="6.62578">
        <ele>48.7</ele>
        <time>2023-11-05T10:40:44Z</time>
      </trkpt>
      <trkpt lat="43.50585" lon="6.62578">
        <ele>48.8</ele>
        <time>2023-11-05T10:40:45Z</time>
      </trkpt>
      <trkpt lat="43.50585" lon="6.62577">
        <ele>48.8</ele>
        <time>2023-11-05T10:40:46Z</time>
      </trkpt>
      <trkpt lat="43.50584" lon="6.62577">
        <ele>48.8</ele>
        <time>2023-11-05T10:40:47Z</time>
      </trkpt>
      <trkpt lat="43.50583" lon="6.62576">
        <ele>48.8</ele>
        <time>2023-11-05T10:40:48Z</time>
      </trkpt>
      <trkpt lat="43.50582" lon="6.62576">
        <ele>48.9</ele>
        <time>2023-11-05T10:40:49Z</time>
      </trkpt>
      <trkpt lat="43.50581" lon="6.62576">
        <ele>48.9</ele>
        <time>2023-11-05T10:40:50Z</time>
      </trkpt>
      <trkpt lat="43.5058" lon="6.62575">
        <ele>48.9</ele>
        <time>2023-11-05T10:40:51Z</time>
      </trkpt>
      <trkpt lat="43.50579" lon="6.62575">
        <ele>48.9</ele>
        <time>2023-11-05T10:40:52Z</time>
      </trkpt>
      <trkpt lat="43.50578" lon="6.62575">
        <ele>48.8</ele>
        <time>2023-11-05T10:40:53Z</time>
      </trkpt>
      <trkpt lat="43.50577" lon="6.62574">
        <ele>48.8</ele>
        <time>2023-11-05T10:40:54Z</time>
      </trkpt>
      <trkpt lat="43.50576" lon="6.62574">
        <ele>48.8</ele>
        <time>2023-11-05T10:40:55Z</time>
      </trkpt>
      <trkpt lat="43.50574" lon="6.62574">
        <ele>48.7</ele>
        <time>2023-11-05T10:40:56Z</time>
      </trkpt>
      <trkpt lat="43.50573" lon="6.62575">
        <ele>48.6</ele>
        <time>2023-11-05T10:40:57Z</time>
      </trkpt>
      <trkpt lat="43.50571" lon="6.62575">
        <ele>48.5</ele>
        <time>2023-11-05T10:40:58Z</time>
      </trkpt>
      <trkpt lat="43.5057" lon="6.62575">
        <ele>48.3</ele>
        <time>2023-11-05T10:40:59Z</time>
      </trkpt>
      <trkpt lat="43.50569" lon="6.62575">
        <ele>48.2</ele>
        <time>2023-11-05T10:41:00Z</time>
      </trkpt>
      <trkpt lat="43.50568" lon="6.62574">
        <ele>48</ele>
        <time>2023-11-05T10:41:01Z</time>
      </trkpt>
      <trkpt lat="43.50567" lon="6.62574">
        <ele>47.9</ele>
        <time>2023-11-05T10:41:02Z</time>
      </trkpt>
      <trkpt lat="43.50565" lon="6.62575">
        <ele>47.9</ele>
        <time>2023-11-05T10:41:03Z</time>
      </trkpt>
      <trkpt lat="43.50564" lon="6.62575">
        <ele>47.8</ele>
        <time>2023-11-05T10:41:04Z</time>
      </trkpt>
      <trkpt lat="43.50563" lon="6.62575">
        <ele>47.8</ele>
        <time>2023-11-05T10:41:05Z</time>
      </trkpt>
      <trkpt lat="43.50562" lon="6.62575">
        <ele>47.7</ele>
        <time>2023-11-05T10:41:06Z</time>
      </trkpt>
      <trkpt lat="43.5056" lon="6.62575">
        <ele>47.6</ele>
        <time>2023-11-05T10:41:07Z</time>
      </trkpt>
      <trkpt lat="43.50559" lon="6.62575">
        <ele>47.4</ele>
        <time>2023-11-05T10:41:08Z</time>
      </trkpt>
      <trkpt lat="43.50558" lon="6.62575">
        <ele>47.3</ele>
        <time>2023-11-05T10:41:09Z</time>
      </trkpt>
      <trkpt lat="43.50557" lon="6.62575">
        <ele>47.3</ele>
        <time>2023-11-05T10:41:10Z</time>
      </trkpt>
      <trkpt lat="43.50555" lon="6.62575">
        <ele>47.3</ele>
        <time>2023-11-05T10:41:11Z</time>
      </trkpt>
      <trkpt lat="43.50554" lon="6.62575">
        <ele>47.2</ele>
        <time>2023-11-05T10:41:12Z</time>
      </trkpt>
      <trkpt lat="43.50554" lon="6.62576">
        <ele>47.1</ele>
        <time>2023-11-05T10:41:13Z</time>
      </trkpt>
      <trkpt lat="43.50552" lon="6.62576">
        <ele>47</ele>
        <time>2023-11-05T10:41:14Z</time>
      </trkpt>
      <trkpt lat="43.50551" lon="6.62577">
        <ele>46.9</ele>
        <time>2023-11-05T10:41:15Z</time>
      </trkpt>
      <trkpt lat="43.5055" lon="6.62577">
        <ele>47</ele>
        <time>2023-11-05T10:41:16Z</time>
      </trkpt>
      <trkpt lat="43.50549" lon="6.62577">
        <ele>47</ele>
        <time>2023-11-05T10:41:17Z</time>
      </trkpt>
      <trkpt lat="43.50548" lon="6.62576">
        <ele>46.9</ele>
        <time>2023-11-05T10:41:18Z</time>
      </trkpt>
      <trkpt lat="43.50547" lon="6.62577">
        <ele>46.8</ele>
        <time>2023-11-05T10:41:19Z</time>
      </trkpt>
      <trkpt lat="43.50546" lon="6.62577">
        <ele>46.8</ele>
        <time>2023-11-05T10:41:20Z</time>
      </trkpt>
      <trkpt lat="43.50545" lon="6.62578">
        <ele>46.7</ele>
        <time>2023-11-05T10:41:21Z</time>
      </trkpt>
      <trkpt lat="43.50544" lon="6.62578">
        <ele>46.6</ele>
        <time>2023-11-05T10:41:22Z</time>
      </trkpt>
      <trkpt lat="43.50543" lon="6.62579">
        <ele>46.5</ele>
        <time>2023-11-05T10:41:23Z</time>
      </trkpt>
      <trkpt lat="43.50542" lon="6.62581">
        <ele>46.4</ele>
        <time>2023-11-05T10:41:24Z</time>
      </trkpt>
      <trkpt lat="43.50541" lon="6.62582">
        <ele>46.3</ele>
        <time>2023-11-05T10:41:25Z</time>
      </trkpt>
      <trkpt lat="43.50541" lon="6.62584">
        <ele>46.2</ele>
        <time>2023-11-05T10:41:26Z</time>
      </trkpt>
      <trkpt lat="43.50541" lon="6.62585">
        <ele>46.2</ele>
        <time>2023-11-05T10:41:27Z</time>
      </trkpt>
      <trkpt lat="43.50541" lon="6.62587">
        <ele>46.1</ele>
        <time>2023-11-05T10:41:28Z</time>
      </trkpt>
      <trkpt lat="43.50541" lon="6.62588">
        <ele>46.1</ele>
        <time>2023-11-05T10:41:29Z</time>
      </trkpt>
      <trkpt lat="43.50542" lon="6.62589">
        <ele>46</ele>
        <time>2023-11-05T10:41:30Z</time>
      </trkpt>
      <trkpt lat="43.50542" lon="6.6259">
        <ele>46.2</ele>
        <time>2023-11-05T10:41:31Z</time>
      </trkpt>
      <trkpt lat="43.50542" lon="6.62591">
        <ele>46.3</ele>
        <time>2023-11-05T10:41:32Z</time>
      </trkpt>
      <trkpt lat="43.50542" lon="6.62593">
        <ele>46.3</ele>
        <time>2023-11-05T10:41:33Z</time>
      </trkpt>
      <trkpt lat="43.50542" lon="6.62594">
        <ele>46.2</ele>
        <time>2023-11-05T10:41:34Z</time>
      </trkpt>
      <trkpt lat="43.50542" lon="6.62596">
        <ele>46.2</ele>
        <time>2023-11-05T10:41:35Z</time>
      </trkpt>
      <trkpt lat="43.50542" lon="6.62597">
        <ele>46.1</ele>
        <time>2023-11-05T10:41:36Z</time>
      </trkpt>
      <trkpt lat="43.50541" lon="6.62598">
        <ele>46.1</ele>
        <time>2023-11-05T10:41:37Z</time>
      </trkpt>
      <trkpt lat="43.50541" lon="6.62599">
        <ele>46</ele>
        <time>2023-11-05T10:41:38Z</time>
      </trkpt>
      <trkpt lat="43.50541" lon="6.626">
        <ele>46</ele>
        <time>2023-11-05T10:41:39Z</time>
      </trkpt>
      <trkpt lat="43.5054" lon="6.62602">
        <ele>46.1</ele>
        <time>2023-11-05T10:41:40Z</time>
      </trkpt>
      <trkpt lat="43.5054" lon="6.62604">
        <ele>46.2</ele>
        <time>2023-11-05T10:41:41Z</time>
      </trkpt>
      <trkpt lat="43.5054" lon="6.62606">
        <ele>46.2</ele>
        <time>2023-11-05T10:41:42Z</time>
      </trkpt>
      <trkpt lat="43.5054" lon="6.62608">
        <ele>46.3</ele>
        <time>2023-11-05T10:41:43Z</time>
      </trkpt>
      <trkpt lat="43.50539" lon="6.62609">
        <ele>46.4</ele>
        <time>2023-11-05T10:41:44Z</time>
      </trkpt>
      <trkpt lat="43.50539" lon="6.6261">
        <ele>46.5</ele>
        <time>2023-11-05T10:41:45Z</time>
      </trkpt>
      <trkpt lat="43.50538" lon="6.62613">
        <ele>46.6</ele>
        <time>2023-11-05T10:41:46Z</time>
      </trkpt>
      <trkpt lat="43.50539" lon="6.62615">
        <ele>46.7</ele>
        <time>2023-11-05T10:41:47Z</time>
      </trkpt>
      <trkpt lat="43.50539" lon="6.62616">
        <ele>46.8</ele>
        <time>2023-11-05T10:41:48Z</time>
      </trkpt>
      <trkpt lat="43.50538" lon="6.62619">
        <ele>47</ele>
        <time>2023-11-05T10:41:49Z</time>
      </trkpt>
      <trkpt lat="43.50539" lon="6.6262">
        <ele>47.1</ele>
        <time>2023-11-05T10:41:50Z</time>
      </trkpt>
      <trkpt lat="43.50539" lon="6.62622">
        <ele>47.2</ele>
        <time>2023-11-05T10:41:51Z</time>
      </trkpt>
      <trkpt lat="43.50538" lon="6.62623">
        <ele>47.2</ele>
        <time>2023-11-05T10:41:52Z</time>
      </trkpt>
      <trkpt lat="43.50538" lon="6.62624">
        <ele>47.3</ele>
        <time>2023-11-05T10:41:53Z</time>
      </trkpt>
      <trkpt lat="43.50538" lon="6.62625">
        <ele>47.3</ele>
        <time>2023-11-05T10:41:54Z</time>
      </trkpt>
      <trkpt lat="43.50537" lon="6.62627">
        <ele>47.4</ele>
        <time>2023-11-05T10:41:55Z</time>
      </trkpt>
      <trkpt lat="43.50537" lon="6.62628">
        <ele>47.6</ele>
        <time>2023-11-05T10:41:56Z</time>
      </trkpt>
      <trkpt lat="43.50537" lon="6.62629">
        <ele>47.8</ele>
        <time>2023-11-05T10:41:57Z</time>
      </trkpt>
      <trkpt lat="43.50537" lon="6.62632">
        <ele>47.9</ele>
        <time>2023-11-05T10:41:58Z</time>
      </trkpt>
      <trkpt lat="43.50537" lon="6.62633">
        <ele>48.1</ele>
        <time>2023-11-05T10:41:59Z</time>
      </trkpt>
      <trkpt lat="43.50536" lon="6.62635">
        <ele>48.3</ele>
        <time>2023-11-05T10:42:00Z</time>
      </trkpt>
      <trkpt lat="43.50536" lon="6.62636">
        <ele>48.4</ele>
        <time>2023-11-05T10:42:01Z</time>
      </trkpt>
      <trkpt lat="43.50536" lon="6.62638">
        <ele>48.6</ele>
        <time>2023-11-05T10:42:02Z</time>
      </trkpt>
      <trkpt lat="43.50536" lon="6.6264">
        <ele>48.7</ele>
        <time>2023-11-05T10:42:03Z</time>
      </trkpt>
      <trkpt lat="43.50536" lon="6.62641">
        <ele>48.9</ele>
        <time>2023-11-05T10:42:04Z</time>
      </trkpt>
      <trkpt lat="43.50536" lon="6.62642">
        <ele>48.9</ele>
        <time>2023-11-05T10:42:05Z</time>
      </trkpt>
      <trkpt lat="43.50536" lon="6.62643">
        <ele>49</ele>
        <time>2023-11-05T10:42:06Z</time>
      </trkpt>
      <trkpt lat="43.50536" lon="6.62645">
        <ele>49.1</ele>
        <time>2023-11-05T10:42:07Z</time>
      </trkpt>
      <trkpt lat="43.50536" lon="6.62646">
        <ele>49.3</ele>
        <time>2023-11-05T10:42:08Z</time>
      </trkpt>
      <trkpt lat="43.50535" lon="6.62648">
        <ele>49.4</ele>
        <time>2023-11-05T10:42:09Z</time>
      </trkpt>
      <trkpt lat="43.50535" lon="6.6265">
        <ele>49.4</ele>
        <time>2023-11-05T10:42:10Z</time>
      </trkpt>
      <trkpt lat="43.50535" lon="6.62651">
        <ele>49.5</ele>
        <time>2023-11-05T10:42:11Z</time>
      </trkpt>
      <trkpt lat="43.50534" lon="6.62652">
        <ele>49.7</ele>
        <time>2023-11-05T10:42:12Z</time>
      </trkpt>
      <trkpt lat="43.50534" lon="6.62653">
        <ele>49.7</ele>
        <time>2023-11-05T10:42:13Z</time>
      </trkpt>
      <trkpt lat="43.50534" lon="6.62655">
        <ele>49.6</ele>
        <time>2023-11-05T10:42:14Z</time>
      </trkpt>
      <trkpt lat="43.50534" lon="6.62656">
        <ele>49.6</ele>
        <time>2023-11-05T10:42:15Z</time>
      </trkpt>
      <trkpt lat="43.50533" lon="6.62658">
        <ele>49.6</ele>
        <time>2023-11-05T10:42:16Z</time>
      </trkpt>
      <trkpt lat="43.50533" lon="6.6266">
        <ele>49.6</ele>
        <time>2023-11-05T10:42:17Z</time>
      </trkpt>
      <trkpt lat="43.50533" lon="6.62662">
        <ele>49.7</ele>
        <time>2023-11-05T10:42:18Z</time>
      </trkpt>
      <trkpt lat="43.50533" lon="6.62664">
        <ele>49.7</ele>
        <time>2023-11-05T10:42:19Z</time>
      </trkpt>
      <trkpt lat="43.50533" lon="6.62666">
        <ele>49.8</ele>
        <time>2023-11-05T10:42:20Z</time>
      </trkpt>
      <trkpt lat="43.50533" lon="6.62666">
        <ele>49.9</ele>
        <time>2023-11-05T10:42:21Z</time>
      </trkpt>
      <trkpt lat="43.50532" lon="6.62668">
        <ele>50</ele>
        <time>2023-11-05T10:42:22Z</time>
      </trkpt>
      <trkpt lat="43.50532" lon="6.6267">
        <ele>50.1</ele>
        <time>2023-11-05T10:42:23Z</time>
      </trkpt>
      <trkpt lat="43.50532" lon="6.62671">
        <ele>50.2</ele>
        <time>2023-11-05T10:42:24Z</time>
      </trkpt>
      <trkpt lat="43.50531" lon="6.62672">
        <ele>50.2</ele>
        <time>2023-11-05T10:42:25Z</time>
      </trkpt>
      <trkpt lat="43.5053" lon="6.62674">
        <ele>50.2</ele>
        <time>2023-11-05T10:42:26Z</time>
      </trkpt>
      <trkpt lat="43.5053" lon="6.62674">
        <ele>50.3</ele>
        <time>2023-11-05T10:42:27Z</time>
      </trkpt>
      <trkpt lat="43.50529" lon="6.62675">
        <ele>50.3</ele>
        <time>2023-11-05T10:42:28Z</time>
      </trkpt>
      <trkpt lat="43.50528" lon="6.62677">
        <ele>50.2</ele>
        <time>2023-11-05T10:42:29Z</time>
      </trkpt>
      <trkpt lat="43.50527" lon="6.62678">
        <ele>50.2</ele>
        <time>2023-11-05T10:42:30Z</time>
      </trkpt>
      <trkpt lat="43.50527" lon="6.62679">
        <ele>50.3</ele>
        <time>2023-11-05T10:42:31Z</time>
      </trkpt>
      <trkpt lat="43.50526" lon="6.6268">
        <ele>50.3</ele>
        <time>2023-11-05T10:42:32Z</time>
      </trkpt>
      <trkpt lat="43.50525" lon="6.62681">
        <ele>50.3</ele>
        <time>2023-11-05T10:42:33Z</time>
      </trkpt>
      <trkpt lat="43.50524" lon="6.62682">
        <ele>50.2</ele>
        <time>2023-11-05T10:42:34Z</time>
      </trkpt>
      <trkpt lat="43.50523" lon="6.62684">
        <ele>50.2</ele>
        <time>2023-11-05T10:42:35Z</time>
      </trkpt>
      <trkpt lat="43.50523" lon="6.62685">
        <ele>50.1</ele>
        <time>2023-11-05T10:42:36Z</time>
      </trkpt>
      <trkpt lat="43.50522" lon="6.62686">
        <ele>50.1</ele>
        <time>2023-11-05T10:42:37Z</time>
      </trkpt>
      <trkpt lat="43.50521" lon="6.62686">
        <ele>50.1</ele>
        <time>2023-11-05T10:42:38Z</time>
      </trkpt>
      <trkpt lat="43.5052" lon="6.62687">
        <ele>50.2</ele>
        <time>2023-11-05T10:42:39Z</time>
      </trkpt>
      <trkpt lat="43.50519" lon="6.62688">
        <ele>50.2</ele>
        <time>2023-11-05T10:42:40Z</time>
      </trkpt>
      <trkpt lat="43.50519" lon="6.62689">
        <ele>50.3</ele>
        <time>2023-11-05T10:42:41Z</time>
      </trkpt>
      <trkpt lat="43.50518" lon="6.6269">
        <ele>50.2</ele>
        <time>2023-11-05T10:42:42Z</time>
      </trkpt>
      <trkpt lat="43.50517" lon="6.62691">
        <ele>50.2</ele>
        <time>2023-11-05T10:42:43Z</time>
      </trkpt>
      <trkpt lat="43.50517" lon="6.62692">
        <ele>50.3</ele>
        <time>2023-11-05T10:42:44Z</time>
      </trkpt>
      <trkpt lat="43.50516" lon="6.62693">
        <ele>50.5</ele>
        <time>2023-11-05T10:42:45Z</time>
      </trkpt>
      <trkpt lat="43.50515" lon="6.62693">
        <ele>50.6</ele>
        <time>2023-11-05T10:42:46Z</time>
      </trkpt>
      <trkpt lat="43.50515" lon="6.62694">
        <ele>50.8</ele>
        <time>2023-11-05T10:42:47Z</time>
      </trkpt>
      <trkpt lat="43.50514" lon="6.62696">
        <ele>51.1</ele>
        <time>2023-11-05T10:42:48Z</time>
      </trkpt>
      <trkpt lat="43.50513" lon="6.62697">
        <ele>51.2</ele>
        <time>2023-11-05T10:42:49Z</time>
      </trkpt>
      <trkpt lat="43.50512" lon="6.62698">
        <ele>51.4</ele>
        <time>2023-11-05T10:42:50Z</time>
      </trkpt>
      <trkpt lat="43.50512" lon="6.627">
        <ele>51.5</ele>
        <time>2023-11-05T10:42:51Z</time>
      </trkpt>
      <trkpt lat="43.50511" lon="6.62702">
        <ele>51.7</ele>
        <time>2023-11-05T10:42:52Z</time>
      </trkpt>
      <trkpt lat="43.50511" lon="6.62704">
        <ele>51.6</ele>
        <time>2023-11-05T10:42:53Z</time>
      </trkpt>
      <trkpt lat="43.5051" lon="6.62705">
        <ele>51.6</ele>
        <time>2023-11-05T10:42:54Z</time>
      </trkpt>
      <trkpt lat="43.5051" lon="6.62707">
        <ele>51.5</ele>
        <time>2023-11-05T10:42:55Z</time>
      </trkpt>
      <trkpt lat="43.50509" lon="6.62708">
        <ele>51.8</ele>
        <time>2023-11-05T10:42:56Z</time>
      </trkpt>
      <trkpt lat="43.50509" lon="6.62709">
        <ele>51.8</ele>
        <time>2023-11-05T10:42:57Z</time>
      </trkpt>
      <trkpt lat="43.50508" lon="6.62711">
        <ele>51.9</ele>
        <time>2023-11-05T10:42:58Z</time>
      </trkpt>
      <trkpt lat="43.50508" lon="6.62713">
        <ele>51.9</ele>
        <time>2023-11-05T10:42:59Z</time>
      </trkpt>
      <trkpt lat="43.50508" lon="6.62713">
        <ele>52</ele>
        <time>2023-11-05T10:43:00Z</time>
      </trkpt>
      <trkpt lat="43.50507" lon="6.62714">
        <ele>52</ele>
        <time>2023-11-05T10:43:01Z</time>
      </trkpt>
      <trkpt lat="43.50507" lon="6.62716">
        <ele>52</ele>
        <time>2023-11-05T10:43:02Z</time>
      </trkpt>
      <trkpt lat="43.50506" lon="6.62717">
        <ele>52.1</ele>
        <time>2023-11-05T10:43:03Z</time>
      </trkpt>
      <trkpt lat="43.50505" lon="6.62719">
        <ele>52.2</ele>
        <time>2023-11-05T10:43:04Z</time>
      </trkpt>
      <trkpt lat="43.50504" lon="6.6272">
        <ele>52.3</ele>
        <time>2023-11-05T10:43:05Z</time>
      </trkpt>
      <trkpt lat="43.50504" lon="6.62722">
        <ele>52.3</ele>
        <time>2023-11-05T10:43:06Z</time>
      </trkpt>
      <trkpt lat="43.50503" lon="6.62723">
        <ele>52.3</ele>
        <time>2023-11-05T10:43:07Z</time>
      </trkpt>
      <trkpt lat="43.50503" lon="6.62724">
        <ele>52.2</ele>
        <time>2023-11-05T10:43:08Z</time>
      </trkpt>
      <trkpt lat="43.50502" lon="6.62726">
        <ele>52.2</ele>
        <time>2023-11-05T10:43:09Z</time>
      </trkpt>
      <trkpt lat="43.50501" lon="6.62728">
        <ele>52.1</ele>
        <time>2023-11-05T10:43:10Z</time>
      </trkpt>
      <trkpt lat="43.50501" lon="6.62729">
        <ele>52.1</ele>
        <time>2023-11-05T10:43:11Z</time>
      </trkpt>
      <trkpt lat="43.505" lon="6.62731">
        <ele>52</ele>
        <time>2023-11-05T10:43:12Z</time>
      </trkpt>
      <trkpt lat="43.505" lon="6.62732">
        <ele>51.9</ele>
        <time>2023-11-05T10:43:13Z</time>
      </trkpt>
      <trkpt lat="43.50499" lon="6.62734">
        <ele>51.9</ele>
        <time>2023-11-05T10:43:14Z</time>
      </trkpt>
      <trkpt lat="43.50499" lon="6.62735">
        <ele>51.9</ele>
        <time>2023-11-05T10:43:15Z</time>
      </trkpt>
      <trkpt lat="43.50498" lon="6.62737">
        <ele>51.9</ele>
        <time>2023-11-05T10:43:16Z</time>
      </trkpt>
      <trkpt lat="43.50498" lon="6.62739">
        <ele>51.8</ele>
        <time>2023-11-05T10:43:17Z</time>
      </trkpt>
      <trkpt lat="43.50497" lon="6.6274">
        <ele>51.9</ele>
        <time>2023-11-05T10:43:18Z</time>
      </trkpt>
      <trkpt lat="43.50497" lon="6.62741">
        <ele>51.9</ele>
        <time>2023-11-05T10:43:19Z</time>
      </trkpt>
      <trkpt lat="43.50496" lon="6.62742">
        <ele>51.9</ele>
        <time>2023-11-05T10:43:20Z</time>
      </trkpt>
      <trkpt lat="43.50496" lon="6.62744">
        <ele>52</ele>
        <time>2023-11-05T10:43:21Z</time>
      </trkpt>
      <trkpt lat="43.50495" lon="6.62745">
        <ele>51.9</ele>
        <time>2023-11-05T10:43:22Z</time>
      </trkpt>
      <trkpt lat="43.50494" lon="6.62746">
        <ele>51.9</ele>
        <time>2023-11-05T10:43:23Z</time>
      </trkpt>
      <trkpt lat="43.50493" lon="6.62748">
        <ele>51.8</ele>
        <time>2023-11-05T10:43:24Z</time>
      </trkpt>
      <trkpt lat="43.50493" lon="6.62749">
        <ele>51.7</ele>
        <time>2023-11-05T10:43:25Z</time>
      </trkpt>
      <trkpt lat="43.50492" lon="6.6275">
        <ele>51.6</ele>
        <time>2023-11-05T10:43:26Z</time>
      </trkpt>
      <trkpt lat="43.50491" lon="6.62751">
        <ele>51.5</ele>
        <time>2023-11-05T10:43:27Z</time>
      </trkpt>
      <trkpt lat="43.50491" lon="6.62753">
        <ele>51.6</ele>
        <time>2023-11-05T10:43:28Z</time>
      </trkpt>
      <trkpt lat="43.5049" lon="6.62754">
        <ele>51.8</ele>
        <time>2023-11-05T10:43:29Z</time>
      </trkpt>
      <trkpt lat="43.50489" lon="6.62755">
        <ele>51.8</ele>
        <time>2023-11-05T10:43:30Z</time>
      </trkpt>
      <trkpt lat="43.50489" lon="6.62756">
        <ele>51.8</ele>
        <time>2023-11-05T10:43:31Z</time>
      </trkpt>
      <trkpt lat="43.50488" lon="6.62757">
        <ele>51.8</ele>
        <time>2023-11-05T10:43:32Z</time>
      </trkpt>
      <trkpt lat="43.50488" lon="6.62758">
        <ele>52</ele>
        <time>2023-11-05T10:43:33Z</time>
      </trkpt>
      <trkpt lat="43.50487" lon="6.6276">
        <ele>52.2</ele>
        <time>2023-11-05T10:43:34Z</time>
      </trkpt>
      <trkpt lat="43.50487" lon="6.62761">
        <ele>52.5</ele>
        <time>2023-11-05T10:43:35Z</time>
      </trkpt>
      <trkpt lat="43.50486" lon="6.62762">
        <ele>52.6</ele>
        <time>2023-11-05T10:43:36Z</time>
      </trkpt>
      <trkpt lat="43.50485" lon="6.62763">
        <ele>52.6</ele>
        <time>2023-11-05T10:43:37Z</time>
      </trkpt>
      <trkpt lat="43.50484" lon="6.62765">
        <ele>52.5</ele>
        <time>2023-11-05T10:43:38Z</time>
      </trkpt>
      <trkpt lat="43.50483" lon="6.62766">
        <ele>52.4</ele>
        <time>2023-11-05T10:43:39Z</time>
      </trkpt>
      <trkpt lat="43.50483" lon="6.62767">
        <ele>52.2</ele>
        <time>2023-11-05T10:43:40Z</time>
      </trkpt>
      <trkpt lat="43.50482" lon="6.62769">
        <ele>52.2</ele>
        <time>2023-11-05T10:43:41Z</time>
      </trkpt>
      <trkpt lat="43.50481" lon="6.6277">
        <ele>52.3</ele>
        <time>2023-11-05T10:43:42Z</time>
      </trkpt>
      <trkpt lat="43.5048" lon="6.62771">
        <ele>52.6</ele>
        <time>2023-11-05T10:43:43Z</time>
      </trkpt>
      <trkpt lat="43.5048" lon="6.62772">
        <ele>52.8</ele>
        <time>2023-11-05T10:43:44Z</time>
      </trkpt>
      <trkpt lat="43.50479" lon="6.62773">
        <ele>52.8</ele>
        <time>2023-11-05T10:43:45Z</time>
      </trkpt>
      <trkpt lat="43.50478" lon="6.62775">
        <ele>52.9</ele>
        <time>2023-11-05T10:43:46Z</time>
      </trkpt>
      <trkpt lat="43.50478" lon="6.62776">
        <ele>53.1</ele>
        <time>2023-11-05T10:43:47Z</time>
      </trkpt>
      <trkpt lat="43.50477" lon="6.62777">
        <ele>53.3</ele>
        <time>2023-11-05T10:43:48Z</time>
      </trkpt>
      <trkpt lat="43.50477" lon="6.62778">
        <ele>53.3</ele>
        <time>2023-11-05T10:43:49Z</time>
      </trkpt>
      <trkpt lat="43.50476" lon="6.6278">
        <ele>53.3</ele>
        <time>2023-11-05T10:43:50Z</time>
      </trkpt>
      <trkpt lat="43.50475" lon="6.62781">
        <ele>53.2</ele>
        <time>2023-11-05T10:43:51Z</time>
      </trkpt>
      <trkpt lat="43.50474" lon="6.62782">
        <ele>53.2</ele>
        <time>2023-11-05T10:43:52Z</time>
      </trkpt>
      <trkpt lat="43.50474" lon="6.62783">
        <ele>53.2</ele>
        <time>2023-11-05T10:43:53Z</time>
      </trkpt>
      <trkpt lat="43.50474" lon="6.62785">
        <ele>53.2</ele>
        <time>2023-11-05T10:43:54Z</time>
      </trkpt>
      <trkpt lat="43.50473" lon="6.62786">
        <ele>53.3</ele>
        <time>2023-11-05T10:43:55Z</time>
      </trkpt>
      <trkpt lat="43.50473" lon="6.62788">
        <ele>53.4</ele>
        <time>2023-11-05T10:43:56Z</time>
      </trkpt>
      <trkpt lat="43.50473" lon="6.62789">
        <ele>53.3</ele>
        <time>2023-11-05T10:43:57Z</time>
      </trkpt>
      <trkpt lat="43.50472" lon="6.62791">
        <ele>53.3</ele>
        <time>2023-11-05T10:43:58Z</time>
      </trkpt>
      <trkpt lat="43.50472" lon="6.62792">
        <ele>53.3</ele>
        <time>2023-11-05T10:43:59Z</time>
      </trkpt>
      <trkpt lat="43.50472" lon="6.62794">
        <ele>53.3</ele>
        <time>2023-11-05T10:44:00Z</time>
      </trkpt>
      <trkpt lat="43.50472" lon="6.62795">
        <ele>53.2</ele>
        <time>2023-11-05T10:44:01Z</time>
      </trkpt>
      <trkpt lat="43.50472" lon="6.62797">
        <ele>53.3</ele>
        <time>2023-11-05T10:44:02Z</time>
      </trkpt>
      <trkpt lat="43.50472" lon="6.62798">
        <ele>53.3</ele>
        <time>2023-11-05T10:44:03Z</time>
      </trkpt>
      <trkpt lat="43.50471" lon="6.628">
        <ele>53.4</ele>
        <time>2023-11-05T10:44:04Z</time>
      </trkpt>
      <trkpt lat="43.50471" lon="6.62801">
        <ele>53.5</ele>
        <time>2023-11-05T10:44:05Z</time>
      </trkpt>
      <trkpt lat="43.50471" lon="6.62803">
        <ele>53.5</ele>
        <time>2023-11-05T10:44:06Z</time>
      </trkpt>
      <trkpt lat="43.50471" lon="6.62805">
        <ele>53.5</ele>
        <time>2023-11-05T10:44:07Z</time>
      </trkpt>
      <trkpt lat="43.5047" lon="6.62806">
        <ele>53.5</ele>
        <time>2023-11-05T10:44:08Z</time>
      </trkpt>
      <trkpt lat="43.5047" lon="6.62808">
        <ele>53.6</ele>
        <time>2023-11-05T10:44:09Z</time>
      </trkpt>
      <trkpt lat="43.5047" lon="6.62809">
        <ele>53.4</ele>
        <time>2023-11-05T10:44:10Z</time>
      </trkpt>
      <trkpt lat="43.5047" lon="6.6281">
        <ele>53.3</ele>
        <time>2023-11-05T10:44:11Z</time>
      </trkpt>
      <trkpt lat="43.5047" lon="6.62812">
        <ele>53.3</ele>
        <time>2023-11-05T10:44:12Z</time>
      </trkpt>
      <trkpt lat="43.50469" lon="6.62814">
        <ele>53.3</ele>
        <time>2023-11-05T10:44:13Z</time>
      </trkpt>
      <trkpt lat="43.50469" lon="6.62815">
        <ele>53.2</ele>
        <time>2023-11-05T10:44:14Z</time>
      </trkpt>
      <trkpt lat="43.50469" lon="6.62816">
        <ele>53.2</ele>
        <time>2023-11-05T10:44:15Z</time>
      </trkpt>
      <trkpt lat="43.50468" lon="6.62818">
        <ele>53.2</ele>
        <time>2023-11-05T10:44:16Z</time>
      </trkpt>
      <trkpt lat="43.50468" lon="6.6282">
        <ele>53.2</ele>
        <time>2023-11-05T10:44:17Z</time>
      </trkpt>
      <trkpt lat="43.50468" lon="6.62821">
        <ele>53.2</ele>
        <time>2023-11-05T10:44:18Z</time>
      </trkpt>
      <trkpt lat="43.50468" lon="6.62823">
        <ele>53.1</ele>
        <time>2023-11-05T10:44:19Z</time>
      </trkpt>
      <trkpt lat="43.50468" lon="6.62824">
        <ele>53.1</ele>
        <time>2023-11-05T10:44:20Z</time>
      </trkpt>
      <trkpt lat="43.50467" lon="6.62826">
        <ele>53.1</ele>
        <time>2023-11-05T10:44:21Z</time>
      </trkpt>
      <trkpt lat="43.50467" lon="6.62827">
        <ele>53</ele>
        <time>2023-11-05T10:44:22Z</time>
      </trkpt>
      <trkpt lat="43.50467" lon="6.62829">
        <ele>53</ele>
        <time>2023-11-05T10:44:23Z</time>
      </trkpt>
      <trkpt lat="43.50466" lon="6.6283">
        <ele>53</ele>
        <time>2023-11-05T10:44:24Z</time>
      </trkpt>
      <trkpt lat="43.50466" lon="6.62832">
        <ele>52.9</ele>
        <time>2023-11-05T10:44:25Z</time>
      </trkpt>
      <trkpt lat="43.50466" lon="6.62833">
        <ele>52.9</ele>
        <time>2023-11-05T10:44:26Z</time>
      </trkpt>
      <trkpt lat="43.50465" lon="6.62834">
        <ele>52.8</ele>
        <time>2023-11-05T10:44:27Z</time>
      </trkpt>
      <trkpt lat="43.50464" lon="6.62836">
        <ele>52.6</ele>
        <time>2023-11-05T10:44:28Z</time>
      </trkpt>
      <trkpt lat="43.50464" lon="6.62837">
        <ele>52.5</ele>
        <time>2023-11-05T10:44:29Z</time>
      </trkpt>
      <trkpt lat="43.50463" lon="6.62839">
        <ele>52.5</ele>
        <time>2023-11-05T10:44:30Z</time>
      </trkpt>
      <trkpt lat="43.50463" lon="6.6284">
        <ele>52.3</ele>
        <time>2023-11-05T10:44:31Z</time>
      </trkpt>
      <trkpt lat="43.50462" lon="6.62841">
        <ele>52.2</ele>
        <time>2023-11-05T10:44:32Z</time>
      </trkpt>
      <trkpt lat="43.50461" lon="6.62842">
        <ele>52.1</ele>
        <time>2023-11-05T10:44:33Z</time>
      </trkpt>
      <trkpt lat="43.5046" lon="6.62844">
        <ele>52</ele>
        <time>2023-11-05T10:44:34Z</time>
      </trkpt>
      <trkpt lat="43.5046" lon="6.62845">
        <ele>51.9</ele>
        <time>2023-11-05T10:44:35Z</time>
      </trkpt>
      <trkpt lat="43.50459" lon="6.62847">
        <ele>51.8</ele>
        <time>2023-11-05T10:44:36Z</time>
      </trkpt>
      <trkpt lat="43.50458" lon="6.62848">
        <ele>51.7</ele>
        <time>2023-11-05T10:44:37Z</time>
      </trkpt>
      <trkpt lat="43.50457" lon="6.62849">
        <ele>51.9</ele>
        <time>2023-11-05T10:44:38Z</time>
      </trkpt>
      <trkpt lat="43.50457" lon="6.62851">
        <ele>52</ele>
        <time>2023-11-05T10:44:39Z</time>
      </trkpt>
      <trkpt lat="43.50456" lon="6.62852">
        <ele>52</ele>
        <time>2023-11-05T10:44:40Z</time>
      </trkpt>
      <trkpt lat="43.50455" lon="6.62853">
        <ele>52.1</ele>
        <time>2023-11-05T10:44:41Z</time>
      </trkpt>
      <trkpt lat="43.50454" lon="6.62854">
        <ele>52.1</ele>
        <time>2023-11-05T10:44:42Z</time>
      </trkpt>
      <trkpt lat="43.50454" lon="6.62856">
        <ele>52.1</ele>
        <time>2023-11-05T10:44:43Z</time>
      </trkpt>
      <trkpt lat="43.50453" lon="6.62857">
        <ele>52</ele>
        <time>2023-11-05T10:44:44Z</time>
      </trkpt>
      <trkpt lat="43.50452" lon="6.62858">
        <ele>52</ele>
        <time>2023-11-05T10:44:45Z</time>
      </trkpt>
      <trkpt lat="43.50451" lon="6.6286">
        <ele>51.9</ele>
        <time>2023-11-05T10:44:46Z</time>
      </trkpt>
      <trkpt lat="43.50451" lon="6.62861">
        <ele>51.8</ele>
        <time>2023-11-05T10:44:47Z</time>
      </trkpt>
      <trkpt lat="43.50451" lon="6.62863">
        <ele>51.8</ele>
        <time>2023-11-05T10:44:48Z</time>
      </trkpt>
      <trkpt lat="43.50451" lon="6.62864">
        <ele>51.7</ele>
        <time>2023-11-05T10:44:49Z</time>
      </trkpt>
      <trkpt lat="43.5045" lon="6.62866">
        <ele>51.7</ele>
        <time>2023-11-05T10:44:50Z</time>
      </trkpt>
      <trkpt lat="43.5045" lon="6.62867">
        <ele>51.6</ele>
        <time>2023-11-05T10:44:51Z</time>
      </trkpt>
      <trkpt lat="43.50449" lon="6.62869">
        <ele>51.6</ele>
        <time>2023-11-05T10:44:52Z</time>
      </trkpt>
      <trkpt lat="43.50449" lon="6.6287">
        <ele>51.5</ele>
        <time>2023-11-05T10:44:53Z</time>
      </trkpt>
      <trkpt lat="43.50449" lon="6.62871">
        <ele>51.5</ele>
        <time>2023-11-05T10:44:54Z</time>
      </trkpt>
      <trkpt lat="43.50449" lon="6.62873">
        <ele>51.4</ele>
        <time>2023-11-05T10:44:55Z</time>
      </trkpt>
      <trkpt lat="43.5045" lon="6.62875">
        <ele>51.3</ele>
        <time>2023-11-05T10:44:56Z</time>
      </trkpt>
      <trkpt lat="43.50449" lon="6.62876">
        <ele>51.2</ele>
        <time>2023-11-05T10:44:57Z</time>
      </trkpt>
      <trkpt lat="43.5045" lon="6.62878">
        <ele>51.2</ele>
        <time>2023-11-05T10:44:58Z</time>
      </trkpt>
      <trkpt lat="43.5045" lon="6.62879">
        <ele>51.2</ele>
        <time>2023-11-05T10:44:59Z</time>
      </trkpt>
      <trkpt lat="43.5045" lon="6.6288">
        <ele>51.2</ele>
        <time>2023-11-05T10:45:00Z</time>
      </trkpt>
      <trkpt lat="43.5045" lon="6.62882">
        <ele>51.3</ele>
        <time>2023-11-05T10:45:01Z</time>
      </trkpt>
      <trkpt lat="43.5045" lon="6.62883">
        <ele>51.4</ele>
        <time>2023-11-05T10:45:02Z</time>
      </trkpt>
      <trkpt lat="43.5045" lon="6.62885">
        <ele>51.5</ele>
        <time>2023-11-05T10:45:03Z</time>
      </trkpt>
      <trkpt lat="43.50451" lon="6.62886">
        <ele>51.5</ele>
        <time>2023-11-05T10:45:04Z</time>
      </trkpt>
      <trkpt lat="43.50451" lon="6.62887">
        <ele>51.5</ele>
        <time>2023-11-05T10:45:05Z</time>
      </trkpt>
      <trkpt lat="43.50451" lon="6.62888">
        <ele>51.5</ele>
        <time>2023-11-05T10:45:06Z</time>
      </trkpt>
      <trkpt lat="43.50451" lon="6.62889">
        <ele>51.4</ele>
        <time>2023-11-05T10:45:07Z</time>
      </trkpt>
      <trkpt lat="43.50452" lon="6.6289">
        <ele>51.3</ele>
        <time>2023-11-05T10:45:08Z</time>
      </trkpt>
      <trkpt lat="43.50452" lon="6.62892">
        <ele>51.2</ele>
        <time>2023-11-05T10:45:09Z</time>
      </trkpt>
      <trkpt lat="43.50453" lon="6.62893">
        <ele>51.2</ele>
        <time>2023-11-05T10:45:10Z</time>
      </trkpt>
      <trkpt lat="43.50454" lon="6.62894">
        <ele>51.1</ele>
        <time>2023-11-05T10:45:11Z</time>
      </trkpt>
      <trkpt lat="43.50454" lon="6.62895">
        <ele>51</ele>
        <time>2023-11-05T10:45:12Z</time>
      </trkpt>
      <trkpt lat="43.50455" lon="6.62897">
        <ele>51</ele>
        <time>2023-11-05T10:45:13Z</time>
      </trkpt>
      <trkpt lat="43.50455" lon="6.62898">
        <ele>51</ele>
        <time>2023-11-05T10:45:14Z</time>
      </trkpt>
      <trkpt lat="43.50455" lon="6.629">
        <ele>51</ele>
        <time>2023-11-05T10:45:15Z</time>
      </trkpt>
      <trkpt lat="43.50455" lon="6.62901">
        <ele>51</ele>
        <time>2023-11-05T10:45:16Z</time>
      </trkpt>
      <trkpt lat="43.50456" lon="6.62903">
        <ele>51</ele>
        <time>2023-11-05T10:45:17Z</time>
      </trkpt>
      <trkpt lat="43.50455" lon="6.62904">
        <ele>51</ele>
        <time>2023-11-05T10:45:18Z</time>
      </trkpt>
      <trkpt lat="43.50455" lon="6.62906">
        <ele>50.9</ele>
        <time>2023-11-05T10:45:19Z</time>
      </trkpt>
      <trkpt lat="43.50455" lon="6.62907">
        <ele>50.9</ele>
        <time>2023-11-05T10:45:20Z</time>
      </trkpt>
      <trkpt lat="43.50455" lon="6.62909">
        <ele>51</ele>
        <time>2023-11-05T10:45:21Z</time>
      </trkpt>
      <trkpt lat="43.50454" lon="6.62911">
        <ele>51</ele>
        <time>2023-11-05T10:45:22Z</time>
      </trkpt>
      <trkpt lat="43.50454" lon="6.62912">
        <ele>50.9</ele>
        <time>2023-11-05T10:45:23Z</time>
      </trkpt>
      <trkpt lat="43.50454" lon="6.62914">
        <ele>50.9</ele>
        <time>2023-11-05T10:45:24Z</time>
      </trkpt>
      <trkpt lat="43.50453" lon="6.62915">
        <ele>50.9</ele>
        <time>2023-11-05T10:45:25Z</time>
      </trkpt>
      <trkpt lat="43.50453" lon="6.62916">
        <ele>50.9</ele>
        <time>2023-11-05T10:45:26Z</time>
      </trkpt>
      <trkpt lat="43.50453" lon="6.62918">
        <ele>50.9</ele>
        <time>2023-11-05T10:45:27Z</time>
      </trkpt>
      <trkpt lat="43.50452" lon="6.62919">
        <ele>50.9</ele>
        <time>2023-11-05T10:45:28Z</time>
      </trkpt>
      <trkpt lat="43.50451" lon="6.6292">
        <ele>50.7</ele>
        <time>2023-11-05T10:45:29Z</time>
      </trkpt>
      <trkpt lat="43.5045" lon="6.62921">
        <ele>50.6</ele>
        <time>2023-11-05T10:45:30Z</time>
      </trkpt>
      <trkpt lat="43.5045" lon="6.62922">
        <ele>50.5</ele>
        <time>2023-11-05T10:45:31Z</time>
      </trkpt>
      <trkpt lat="43.50449" lon="6.62924">
        <ele>50.3</ele>
        <time>2023-11-05T10:45:32Z</time>
      </trkpt>
      <trkpt lat="43.50448" lon="6.62925">
        <ele>50.2</ele>
        <time>2023-11-05T10:45:33Z</time>
      </trkpt>
      <trkpt lat="43.50448" lon="6.62926">
        <ele>50.3</ele>
        <time>2023-11-05T10:45:34Z</time>
      </trkpt>
      <trkpt lat="43.50447" lon="6.62927">
        <ele>50.5</ele>
        <time>2023-11-05T10:45:35Z</time>
      </trkpt>
      <trkpt lat="43.50446" lon="6.62928">
        <ele>50.7</ele>
        <time>2023-11-05T10:45:36Z</time>
      </trkpt>
      <trkpt lat="43.50446" lon="6.62929">
        <ele>50.8</ele>
        <time>2023-11-05T10:45:37Z</time>
      </trkpt>
      <trkpt lat="43.50445" lon="6.6293">
        <ele>51.1</ele>
        <time>2023-11-05T10:45:38Z</time>
      </trkpt>
      <trkpt lat="43.50445" lon="6.62931">
        <ele>51.3</ele>
        <time>2023-11-05T10:45:39Z</time>
      </trkpt>
      <trkpt lat="43.50444" lon="6.62933">
        <ele>51.5</ele>
        <time>2023-11-05T10:45:40Z</time>
      </trkpt>
      <trkpt lat="43.50444" lon="6.62934">
        <ele>51.9</ele>
        <time>2023-11-05T10:45:41Z</time>
      </trkpt>
      <trkpt lat="43.50443" lon="6.62934">
        <ele>52.3</ele>
        <time>2023-11-05T10:45:42Z</time>
      </trkpt>
      <trkpt lat="43.50443" lon="6.62935">
        <ele>52.7</ele>
        <time>2023-11-05T10:45:43Z</time>
      </trkpt>
      <trkpt lat="43.50442" lon="6.62935">
        <ele>52.9</ele>
        <time>2023-11-05T10:45:44Z</time>
      </trkpt>
      <trkpt lat="43.50441" lon="6.62936">
        <ele>53</ele>
        <time>2023-11-05T10:45:45Z</time>
      </trkpt>
      <trkpt lat="43.5044" lon="6.62937">
        <ele>53</ele>
        <time>2023-11-05T10:45:46Z</time>
      </trkpt>
      <trkpt lat="43.50439" lon="6.62938">
        <ele>53</ele>
        <time>2023-11-05T10:45:47Z</time>
      </trkpt>
      <trkpt lat="43.50439" lon="6.6294">
        <ele>52.9</ele>
        <time>2023-11-05T10:45:48Z</time>
      </trkpt>
      <trkpt lat="43.50438" lon="6.62941">
        <ele>52.9</ele>
        <time>2023-11-05T10:45:49Z</time>
      </trkpt>
      <trkpt lat="43.50437" lon="6.62942">
        <ele>52.9</ele>
        <time>2023-11-05T10:45:50Z</time>
      </trkpt>
      <trkpt lat="43.50436" lon="6.62943">
        <ele>52.8</ele>
        <time>2023-11-05T10:45:51Z</time>
      </trkpt>
      <trkpt lat="43.50436" lon="6.62944">
        <ele>52.8</ele>
        <time>2023-11-05T10:45:52Z</time>
      </trkpt>
      <trkpt lat="43.50435" lon="6.62945">
        <ele>52.8</ele>
        <time>2023-11-05T10:45:53Z</time>
      </trkpt>
      <trkpt lat="43.50434" lon="6.62946">
        <ele>52.8</ele>
        <time>2023-11-05T10:45:54Z</time>
      </trkpt>
      <trkpt lat="43.50434" lon="6.62947">
        <ele>52.7</ele>
        <time>2023-11-05T10:45:55Z</time>
      </trkpt>
      <trkpt lat="43.50433" lon="6.62948">
        <ele>52.6</ele>
        <time>2023-11-05T10:45:56Z</time>
      </trkpt>
      <trkpt lat="43.50432" lon="6.62949">
        <ele>52.5</ele>
        <time>2023-11-05T10:45:57Z</time>
      </trkpt>
      <trkpt lat="43.50431" lon="6.6295">
        <ele>52.3</ele>
        <time>2023-11-05T10:45:58Z</time>
      </trkpt>
      <trkpt lat="43.50431" lon="6.62951">
        <ele>52.3</ele>
        <time>2023-11-05T10:45:59Z</time>
      </trkpt>
      <trkpt lat="43.5043" lon="6.62952">
        <ele>52.4</ele>
        <time>2023-11-05T10:46:00Z</time>
      </trkpt>
      <trkpt lat="43.50429" lon="6.62953">
        <ele>52.5</ele>
        <time>2023-11-05T10:46:01Z</time>
      </trkpt>
      <trkpt lat="43.50429" lon="6.62954">
        <ele>52.6</ele>
        <time>2023-11-05T10:46:02Z</time>
      </trkpt>
      <trkpt lat="43.50428" lon="6.62955">
        <ele>52.6</ele>
        <time>2023-11-05T10:46:03Z</time>
      </trkpt>
      <trkpt lat="43.50427" lon="6.62956">
        <ele>52.9</ele>
        <time>2023-11-05T10:46:04Z</time>
      </trkpt>
      <trkpt lat="43.50426" lon="6.62957">
        <ele>53</ele>
        <time>2023-11-05T10:46:05Z</time>
      </trkpt>
      <trkpt lat="43.50426" lon="6.62958">
        <ele>53.1</ele>
        <time>2023-11-05T10:46:06Z</time>
      </trkpt>
      <trkpt lat="43.50425" lon="6.62959">
        <ele>53.2</ele>
        <time>2023-11-05T10:46:07Z</time>
      </trkpt>
      <trkpt lat="43.50424" lon="6.6296">
        <ele>53.2</ele>
        <time>2023-11-05T10:46:08Z</time>
      </trkpt>
      <trkpt lat="43.50424" lon="6.62961">
        <ele>53.2</ele>
        <time>2023-11-05T10:46:09Z</time>
      </trkpt>
      <trkpt lat="43.50423" lon="6.62962">
        <ele>53.3</ele>
        <time>2023-11-05T10:46:10Z</time>
      </trkpt>
      <trkpt lat="43.50422" lon="6.62963">
        <ele>53.3</ele>
        <time>2023-11-05T10:46:11Z</time>
      </trkpt>
      <trkpt lat="43.50421" lon="6.62963">
        <ele>53.3</ele>
        <time>2023-11-05T10:46:12Z</time>
      </trkpt>
      <trkpt lat="43.5042" lon="6.62964">
        <ele>53.4</ele>
        <time>2023-11-05T10:46:13Z</time>
      </trkpt>
      <trkpt lat="43.50419" lon="6.62965">
        <ele>53.3</ele>
        <time>2023-11-05T10:46:14Z</time>
      </trkpt>
      <trkpt lat="43.50418" lon="6.62966">
        <ele>53.3</ele>
        <time>2023-11-05T10:46:15Z</time>
      </trkpt>
      <trkpt lat="43.50417" lon="6.62966">
        <ele>53.4</ele>
        <time>2023-11-05T10:46:16Z</time>
      </trkpt>
      <trkpt lat="43.50416" lon="6.62967">
        <ele>53.4</ele>
        <time>2023-11-05T10:46:17Z</time>
      </trkpt>
      <trkpt lat="43.50416" lon="6.62967">
        <ele>53.4</ele>
        <time>2023-11-05T10:46:18Z</time>
      </trkpt>
      <trkpt lat="43.50415" lon="6.62968">
        <ele>53.4</ele>
        <time>2023-11-05T10:46:19Z</time>
      </trkpt>
      <trkpt lat="43.50414" lon="6.62969">
        <ele>53.4</ele>
        <time>2023-11-05T10:46:20Z</time>
      </trkpt>
      <trkpt lat="43.50413" lon="6.6297">
        <ele>53.4</ele>
        <time>2023-11-05T10:46:21Z</time>
      </trkpt>
      <trkpt lat="43.50411" lon="6.6297">
        <ele>53.4</ele>
        <time>2023-11-05T10:46:22Z</time>
      </trkpt>
      <trkpt lat="43.5041" lon="6.62971">
        <ele>53.4</ele>
        <time>2023-11-05T10:46:23Z</time>
      </trkpt>
      <trkpt lat="43.50409" lon="6.62972">
        <ele>53.3</ele>
        <time>2023-11-05T10:46:24Z</time>
      </trkpt>
      <trkpt lat="43.50408" lon="6.62973">
        <ele>53.4</ele>
        <time>2023-11-05T10:46:25Z</time>
      </trkpt>
      <trkpt lat="43.50408" lon="6.62973">
        <ele>53.5</ele>
        <time>2023-11-05T10:46:26Z</time>
      </trkpt>
      <trkpt lat="43.50407" lon="6.62974">
        <ele>53.5</ele>
        <time>2023-11-05T10:46:27Z</time>
      </trkpt>
      <trkpt lat="43.50407" lon="6.62975">
        <ele>53.6</ele>
        <time>2023-11-05T10:46:28Z</time>
      </trkpt>
      <trkpt lat="43.50406" lon="6.62975">
        <ele>53.6</ele>
        <time>2023-11-05T10:46:29Z</time>
      </trkpt>
      <trkpt lat="43.50406" lon="6.62976">
        <ele>53.6</ele>
        <time>2023-11-05T10:46:30Z</time>
      </trkpt>
      <trkpt lat="43.50405" lon="6.62977">
        <ele>53.6</ele>
        <time>2023-11-05T10:46:31Z</time>
      </trkpt>
      <trkpt lat="43.50404" lon="6.62978">
        <ele>53.6</ele>
        <time>2023-11-05T10:46:32Z</time>
      </trkpt>
      <trkpt lat="43.50403" lon="6.62978">
        <ele>53.5</ele>
        <time>2023-11-05T10:46:33Z</time>
      </trkpt>
      <trkpt lat="43.50402" lon="6.62979">
        <ele>53.5</ele>
        <time>2023-11-05T10:46:34Z</time>
      </trkpt>
      <trkpt lat="43.50401" lon="6.6298">
        <ele>53.6</ele>
        <time>2023-11-05T10:46:35Z</time>
      </trkpt>
      <trkpt lat="43.504" lon="6.62981">
        <ele>53.6</ele>
        <time>2023-11-05T10:46:36Z</time>
      </trkpt>
      <trkpt lat="43.50399" lon="6.62982">
        <ele>53.8</ele>
        <time>2023-11-05T10:46:37Z</time>
      </trkpt>
      <trkpt lat="43.50399" lon="6.62984">
        <ele>53.9</ele>
        <time>2023-11-05T10:46:38Z</time>
      </trkpt>
      <trkpt lat="43.50398" lon="6.62984">
        <ele>53.9</ele>
        <time>2023-11-05T10:46:39Z</time>
      </trkpt>
      <trkpt lat="43.50397" lon="6.62985">
        <ele>54</ele>
        <time>2023-11-05T10:46:40Z</time>
      </trkpt>
      <trkpt lat="43.50396" lon="6.62986">
        <ele>54</ele>
        <time>2023-11-05T10:46:41Z</time>
      </trkpt>
      <trkpt lat="43.50395" lon="6.62987">
        <ele>54</ele>
        <time>2023-11-05T10:46:42Z</time>
      </trkpt>
      <trkpt lat="43.50394" lon="6.62988">
        <ele>54</ele>
        <time>2023-11-05T10:46:43Z</time>
      </trkpt>
      <trkpt lat="43.50393" lon="6.62989">
        <ele>54</ele>
        <time>2023-11-05T10:46:44Z</time>
      </trkpt>
      <trkpt lat="43.50392" lon="6.6299">
        <ele>54</ele>
        <time>2023-11-05T10:46:45Z</time>
      </trkpt>
      <trkpt lat="43.50391" lon="6.62991">
        <ele>53.9</ele>
        <time>2023-11-05T10:46:46Z</time>
      </trkpt>
      <trkpt lat="43.5039" lon="6.62991">
        <ele>53.9</ele>
        <time>2023-11-05T10:46:47Z</time>
      </trkpt>
      <trkpt lat="43.50389" lon="6.62992">
        <ele>53.9</ele>
        <time>2023-11-05T10:46:48Z</time>
      </trkpt>
      <trkpt lat="43.50388" lon="6.62992">
        <ele>53.9</ele>
        <time>2023-11-05T10:46:49Z</time>
      </trkpt>
      <trkpt lat="43.50387" lon="6.62992">
        <ele>53.9</ele>
        <time>2023-11-05T10:46:50Z</time>
      </trkpt>
      <trkpt lat="43.50386" lon="6.62992">
        <ele>53.9</ele>
        <time>2023-11-05T10:46:51Z</time>
      </trkpt>
      <trkpt lat="43.50385" lon="6.62993">
        <ele>54</ele>
        <time>2023-11-05T10:46:52Z</time>
      </trkpt>
      <trkpt lat="43.50384" lon="6.62993">
        <ele>54</ele>
        <time>2023-11-05T10:46:53Z</time>
      </trkpt>
      <trkpt lat="43.50383" lon="6.62992">
        <ele>54</ele>
        <time>2023-11-05T10:46:54Z</time>
      </trkpt>
      <trkpt lat="43.50382" lon="6.62992">
        <ele>54.1</ele>
        <time>2023-11-05T10:46:55Z</time>
      </trkpt>
      <trkpt lat="43.50381" lon="6.62993">
        <ele>54.2</ele>
        <time>2023-11-05T10:46:56Z</time>
      </trkpt>
      <trkpt lat="43.50379" lon="6.62993">
        <ele>54.4</ele>
        <time>2023-11-05T10:46:57Z</time>
      </trkpt>
      <trkpt lat="43.50378" lon="6.62993">
        <ele>54.6</ele>
        <time>2023-11-05T10:46:58Z</time>
      </trkpt>
      <trkpt lat="43.50377" lon="6.62993">
        <ele>54.7</ele>
        <time>2023-11-05T10:46:59Z</time>
      </trkpt>
      <trkpt lat="43.50376" lon="6.62993">
        <ele>54.8</ele>
        <time>2023-11-05T10:47:00Z</time>
      </trkpt>
      <trkpt lat="43.50375" lon="6.62993">
        <ele>54.8</ele>
        <time>2023-11-05T10:47:01Z</time>
      </trkpt>
      <trkpt lat="43.50373" lon="6.62993">
        <ele>54.9</ele>
        <time>2023-11-05T10:47:02Z</time>
      </trkpt>
      <trkpt lat="43.50372" lon="6.62993">
        <ele>54.9</ele>
        <time>2023-11-05T10:47:03Z</time>
      </trkpt>
      <trkpt lat="43.50371" lon="6.62994">
        <ele>54.9</ele>
        <time>2023-11-05T10:47:04Z</time>
      </trkpt>
      <trkpt lat="43.5037" lon="6.62994">
        <ele>54.9</ele>
        <time>2023-11-05T10:47:05Z</time>
      </trkpt>
      <trkpt lat="43.50369" lon="6.62994">
        <ele>55</ele>
        <time>2023-11-05T10:47:06Z</time>
      </trkpt>
      <trkpt lat="43.50368" lon="6.62995">
        <ele>55</ele>
        <time>2023-11-05T10:47:07Z</time>
      </trkpt>
      <trkpt lat="43.50366" lon="6.62995">
        <ele>55</ele>
        <time>2023-11-05T10:47:08Z</time>
      </trkpt>
      <trkpt lat="43.50365" lon="6.62995">
        <ele>54.8</ele>
        <time>2023-11-05T10:47:09Z</time>
      </trkpt>
      <trkpt lat="43.50364" lon="6.62995">
        <ele>54.8</ele>
        <time>2023-11-05T10:47:10Z</time>
      </trkpt>
      <trkpt lat="43.50363" lon="6.62995">
        <ele>54.8</ele>
        <time>2023-11-05T10:47:11Z</time>
      </trkpt>
      <trkpt lat="43.50361" lon="6.62996">
        <ele>54.8</ele>
        <time>2023-11-05T10:47:12Z</time>
      </trkpt>
      <trkpt lat="43.5036" lon="6.62996">
        <ele>54.8</ele>
        <time>2023-11-05T10:47:13Z</time>
      </trkpt>
      <trkpt lat="43.50359" lon="6.62997">
        <ele>54.8</ele>
        <time>2023-11-05T10:47:14Z</time>
      </trkpt>
      <trkpt lat="43.50358" lon="6.62997">
        <ele>54.8</ele>
        <time>2023-11-05T10:47:15Z</time>
      </trkpt>
      <trkpt lat="43.50357" lon="6.62997">
        <ele>54.9</ele>
        <time>2023-11-05T10:47:16Z</time>
      </trkpt>
      <trkpt lat="43.50356" lon="6.62997">
        <ele>55</ele>
        <time>2023-11-05T10:47:17Z</time>
      </trkpt>
      <trkpt lat="43.50355" lon="6.62998">
        <ele>54.9</ele>
        <time>2023-11-05T10:47:18Z</time>
      </trkpt>
      <trkpt lat="43.50353" lon="6.62998">
        <ele>54.8</ele>
        <time>2023-11-05T10:47:19Z</time>
      </trkpt>
      <trkpt lat="43.50352" lon="6.62998">
        <ele>54.8</ele>
        <time>2023-11-05T10:47:20Z</time>
      </trkpt>
      <trkpt lat="43.50351" lon="6.62999">
        <ele>54.7</ele>
        <time>2023-11-05T10:47:21Z</time>
      </trkpt>
      <trkpt lat="43.50349" lon="6.62998">
        <ele>54.5</ele>
        <time>2023-11-05T10:47:22Z</time>
      </trkpt>
      <trkpt lat="43.50348" lon="6.62998">
        <ele>54.4</ele>
        <time>2023-11-05T10:47:23Z</time>
      </trkpt>
      <trkpt lat="43.50347" lon="6.62998">
        <ele>54.3</ele>
        <time>2023-11-05T10:47:24Z</time>
      </trkpt>
      <trkpt lat="43.50346" lon="6.62998">
        <ele>54.2</ele>
        <time>2023-11-05T10:47:25Z</time>
      </trkpt>
      <trkpt lat="43.50345" lon="6.62998">
        <ele>54.1</ele>
        <time>2023-11-05T10:47:26Z</time>
      </trkpt>
      <trkpt lat="43.50343" lon="6.62997">
        <ele>54</ele>
        <time>2023-11-05T10:47:27Z</time>
      </trkpt>
      <trkpt lat="43.50342" lon="6.62997">
        <ele>54</ele>
        <time>2023-11-05T10:47:28Z</time>
      </trkpt>
      <trkpt lat="43.50341" lon="6.62997">
        <ele>54</ele>
        <time>2023-11-05T10:47:29Z</time>
      </trkpt>
      <trkpt lat="43.5034" lon="6.62997">
        <ele>53.9</ele>
        <time>2023-11-05T10:47:30Z</time>
      </trkpt>
      <trkpt lat="43.50339" lon="6.62997">
        <ele>53.8</ele>
        <time>2023-11-05T10:47:31Z</time>
      </trkpt>
      <trkpt lat="43.50338" lon="6.62997">
        <ele>53.7</ele>
        <time>2023-11-05T10:47:32Z</time>
      </trkpt>
      <trkpt lat="43.50337" lon="6.62997">
        <ele>53.7</ele>
        <time>2023-11-05T10:47:33Z</time>
      </trkpt>
      <trkpt lat="43.50336" lon="6.62997">
        <ele>53.6</ele>
        <time>2023-11-05T10:47:34Z</time>
      </trkpt>
      <trkpt lat="43.50334" lon="6.62997">
        <ele>53.5</ele>
        <time>2023-11-05T10:47:35Z</time>
      </trkpt>
      <trkpt lat="43.50333" lon="6.62997">
        <ele>53.4</ele>
        <time>2023-11-05T10:47:36Z</time>
      </trkpt>
      <trkpt lat="43.50332" lon="6.62997">
        <ele>53.4</ele>
        <time>2023-11-05T10:47:37Z</time>
      </trkpt>
      <trkpt lat="43.50331" lon="6.62997">
        <ele>53.3</ele>
        <time>2023-11-05T10:47:38Z</time>
      </trkpt>
      <trkpt lat="43.5033" lon="6.62997">
        <ele>53.2</ele>
        <time>2023-11-05T10:47:39Z</time>
      </trkpt>
      <trkpt lat="43.50328" lon="6.62997">
        <ele>53</ele>
        <time>2023-11-05T10:47:40Z</time>
      </trkpt>
      <trkpt lat="43.50327" lon="6.62997">
        <ele>53.2</ele>
        <time>2023-11-05T10:47:41Z</time>
      </trkpt>
      <trkpt lat="43.50326" lon="6.62997">
        <ele>53.3</ele>
        <time>2023-11-05T10:47:42Z</time>
      </trkpt>
      <trkpt lat="43.50325" lon="6.62997">
        <ele>53.4</ele>
        <time>2023-11-05T10:47:43Z</time>
      </trkpt>
      <trkpt lat="43.50323" lon="6.62998">
        <ele>53.4</ele>
        <time>2023-11-05T10:47:44Z</time>
      </trkpt>
      <trkpt lat="43.50322" lon="6.62998">
        <ele>53.4</ele>
        <time>2023-11-05T10:47:45Z</time>
      </trkpt>
      <trkpt lat="43.50321" lon="6.62998">
        <ele>53.4</ele>
        <time>2023-11-05T10:47:46Z</time>
      </trkpt>
      <trkpt lat="43.5032" lon="6.62998">
        <ele>53.3</ele>
        <time>2023-11-05T10:47:47Z</time>
      </trkpt>
      <trkpt lat="43.50319" lon="6.62999">
        <ele>53.3</ele>
        <time>2023-11-05T10:47:48Z</time>
      </trkpt>
      <trkpt lat="43.50318" lon="6.62999">
        <ele>53.3</ele>
        <time>2023-11-05T10:47:49Z</time>
      </trkpt>
      <trkpt lat="43.50317" lon="6.62999">
        <ele>53.2</ele>
        <time>2023-11-05T10:47:50Z</time>
      </trkpt>
      <trkpt lat="43.50315" lon="6.62999">
        <ele>53.3</ele>
        <time>2023-11-05T10:47:51Z</time>
      </trkpt>
      <trkpt lat="43.50314" lon="6.62999">
        <ele>53.3</ele>
        <time>2023-11-05T10:47:52Z</time>
      </trkpt>
      <trkpt lat="43.50313" lon="6.62999">
        <ele>53.4</ele>
        <time>2023-11-05T10:47:53Z</time>
      </trkpt>
      <trkpt lat="43.50312" lon="6.63">
        <ele>53.4</ele>
        <time>2023-11-05T10:47:54Z</time>
      </trkpt>
      <trkpt lat="43.50311" lon="6.63">
        <ele>53.3</ele>
        <time>2023-11-05T10:47:55Z</time>
      </trkpt>
      <trkpt lat="43.5031" lon="6.63001">
        <ele>53.3</ele>
        <time>2023-11-05T10:47:56Z</time>
      </trkpt>
      <trkpt lat="43.50309" lon="6.63001">
        <ele>53.2</ele>
        <time>2023-11-05T10:47:57Z</time>
      </trkpt>
      <trkpt lat="43.50308" lon="6.63001">
        <ele>53.2</ele>
        <time>2023-11-05T10:47:58Z</time>
      </trkpt>
      <trkpt lat="43.50306" lon="6.63001">
        <ele>53</ele>
        <time>2023-11-05T10:47:59Z</time>
      </trkpt>
      <trkpt lat="43.50305" lon="6.63002">
        <ele>53.2</ele>
        <time>2023-11-05T10:48:00Z</time>
      </trkpt>
      <trkpt lat="43.50304" lon="6.63003">
        <ele>53.2</ele>
        <time>2023-11-05T10:48:01Z</time>
      </trkpt>
      <trkpt lat="43.50303" lon="6.63004">
        <ele>53.2</ele>
        <time>2023-11-05T10:48:02Z</time>
      </trkpt>
      <trkpt lat="43.50302" lon="6.63005">
        <ele>53.4</ele>
        <time>2023-11-05T10:48:03Z</time>
      </trkpt>
      <trkpt lat="43.50301" lon="6.63006">
        <ele>53.4</ele>
        <time>2023-11-05T10:48:04Z</time>
      </trkpt>
      <trkpt lat="43.50301" lon="6.63008">
        <ele>53.5</ele>
        <time>2023-11-05T10:48:05Z</time>
      </trkpt>
      <trkpt lat="43.503" lon="6.63009">
        <ele>53.5</ele>
        <time>2023-11-05T10:48:06Z</time>
      </trkpt>
      <trkpt lat="43.50299" lon="6.6301">
        <ele>53.6</ele>
        <time>2023-11-05T10:48:07Z</time>
      </trkpt>
      <trkpt lat="43.50298" lon="6.63011">
        <ele>53.6</ele>
        <time>2023-11-05T10:48:08Z</time>
      </trkpt>
      <trkpt lat="43.50298" lon="6.63011">
        <ele>53.6</ele>
        <time>2023-11-05T10:48:09Z</time>
      </trkpt>
      <trkpt lat="43.50297" lon="6.63013">
        <ele>53.6</ele>
        <time>2023-11-05T10:48:10Z</time>
      </trkpt>
      <trkpt lat="43.50296" lon="6.63014">
        <ele>53.6</ele>
        <time>2023-11-05T10:48:11Z</time>
      </trkpt>
      <trkpt lat="43.50295" lon="6.63015">
        <ele>53.5</ele>
        <time>2023-11-05T10:48:12Z</time>
      </trkpt>
      <trkpt lat="43.50294" lon="6.63016">
        <ele>53.4</ele>
        <time>2023-11-05T10:48:13Z</time>
      </trkpt>
      <trkpt lat="43.50293" lon="6.63017">
        <ele>53.4</ele>
        <time>2023-11-05T10:48:14Z</time>
      </trkpt>
      <trkpt lat="43.50292" lon="6.63017">
        <ele>53.3</ele>
        <time>2023-11-05T10:48:15Z</time>
      </trkpt>
      <trkpt lat="43.50291" lon="6.63018">
        <ele>53.2</ele>
        <time>2023-11-05T10:48:16Z</time>
      </trkpt>
      <trkpt lat="43.5029" lon="6.63019">
        <ele>53.2</ele>
        <time>2023-11-05T10:48:17Z</time>
      </trkpt>
      <trkpt lat="43.50289" lon="6.63019">
        <ele>53.1</ele>
        <time>2023-11-05T10:48:18Z</time>
      </trkpt>
      <trkpt lat="43.50288" lon="6.6302">
        <ele>53</ele>
        <time>2023-11-05T10:48:19Z</time>
      </trkpt>
      <trkpt lat="43.50287" lon="6.63021">
        <ele>52.9</ele>
        <time>2023-11-05T10:48:20Z</time>
      </trkpt>
      <trkpt lat="43.50287" lon="6.63022">
        <ele>52.8</ele>
        <time>2023-11-05T10:48:21Z</time>
      </trkpt>
      <trkpt lat="43.50286" lon="6.63022">
        <ele>52.7</ele>
        <time>2023-11-05T10:48:22Z</time>
      </trkpt>
      <trkpt lat="43.50285" lon="6.63023">
        <ele>52.7</ele>
        <time>2023-11-05T10:48:23Z</time>
      </trkpt>
      <trkpt lat="43.50285" lon="6.63023">
        <ele>52.7</ele>
        <time>2023-11-05T10:48:24Z</time>
      </trkpt>
      <trkpt lat="43.50284" lon="6.63023">
        <ele>52.6</ele>
        <time>2023-11-05T10:48:25Z</time>
      </trkpt>
      <trkpt lat="43.50282" lon="6.63024">
        <ele>52.5</ele>
        <time>2023-11-05T10:48:26Z</time>
      </trkpt>
      <trkpt lat="43.50281" lon="6.63024">
        <ele>52.5</ele>
        <time>2023-11-05T10:48:27Z</time>
      </trkpt>
      <trkpt lat="43.50281" lon="6.63024">
        <ele>52.5</ele>
        <time>2023-11-05T10:48:28Z</time>
      </trkpt>
      <trkpt lat="43.5028" lon="6.63024">
        <ele>52.5</ele>
        <time>2023-11-05T10:48:29Z</time>
      </trkpt>
      <trkpt lat="43.5028" lon="6.63024">
        <ele>52.5</ele>
        <time>2023-11-05T10:48:30Z</time>
      </trkpt>
      <trkpt lat="43.5028" lon="6.63024">
        <ele>52.4</ele>
        <time>2023-11-05T10:48:31Z</time>
      </trkpt>
      <trkpt lat="43.5028" lon="6.63024">
        <ele>52.3</ele>
        <time>2023-11-05T10:48:32Z</time>
      </trkpt>
      <trkpt lat="43.50281" lon="6.63023">
        <ele>52.3</ele>
        <time>2023-11-05T10:48:33Z</time>
      </trkpt>
      <trkpt lat="43.50281" lon="6.63023">
        <ele>52.4</ele>
        <time>2023-11-05T10:48:34Z</time>
      </trkpt>
      <trkpt lat="43.50281" lon="6.63023">
        <ele>52.3</ele>
        <time>2023-11-05T10:48:35Z</time>
      </trkpt>
      <trkpt lat="43.5028" lon="6.63023">
        <ele>52.2</ele>
        <time>2023-11-05T10:48:36Z</time>
      </trkpt>
      <trkpt lat="43.5028" lon="6.63024">
        <ele>51.9</ele>
        <time>2023-11-05T10:48:37Z</time>
      </trkpt>
      <trkpt lat="43.5028" lon="6.63023">
        <ele>51.9</ele>
        <time>2023-11-05T10:48:38Z</time>
      </trkpt>
      <trkpt lat="43.5028" lon="6.63023">
        <ele>51.8</ele>
        <time>2023-11-05T10:48:39Z</time>
      </trkpt>
      <trkpt lat="43.5028" lon="6.63023">
        <ele>52.2</ele>
        <time>2023-11-05T10:48:40Z</time>
      </trkpt>
      <trkpt lat="43.5028" lon="6.63022">
        <ele>52.1</ele>
        <time>2023-11-05T10:48:41Z</time>
      </trkpt>
      <trkpt lat="43.50279" lon="6.63021">
        <ele>51.8</ele>
        <time>2023-11-05T10:48:42Z</time>
      </trkpt>
      <trkpt lat="43.50278" lon="6.6302">
        <ele>51.7</ele>
        <time>2023-11-05T10:48:43Z</time>
      </trkpt>
      <trkpt lat="43.50278" lon="6.6302">
        <ele>51.6</ele>
        <time>2023-11-05T10:48:44Z</time>
      </trkpt>
      <trkpt lat="43.50277" lon="6.63019">
        <ele>51.6</ele>
        <time>2023-11-05T10:48:45Z</time>
      </trkpt>
      <trkpt lat="43.50276" lon="6.63019">
        <ele>51.6</ele>
        <time>2023-11-05T10:48:46Z</time>
      </trkpt>
      <trkpt lat="43.50275" lon="6.63019">
        <ele>51.8</ele>
        <time>2023-11-05T10:48:47Z</time>
      </trkpt>
      <trkpt lat="43.50274" lon="6.63018">
        <ele>52</ele>
        <time>2023-11-05T10:48:48Z</time>
      </trkpt>
      <trkpt lat="43.50274" lon="6.63017">
        <ele>52.2</ele>
        <time>2023-11-05T10:48:49Z</time>
      </trkpt>
      <trkpt lat="43.50273" lon="6.63016">
        <ele>52.4</ele>
        <time>2023-11-05T10:48:50Z</time>
      </trkpt>
      <trkpt lat="43.50272" lon="6.63016">
        <ele>52.6</ele>
        <time>2023-11-05T10:48:51Z</time>
      </trkpt>
      <trkpt lat="43.5027" lon="6.63015">
        <ele>52.8</ele>
        <time>2023-11-05T10:48:52Z</time>
      </trkpt>
      <trkpt lat="43.50269" lon="6.63015">
        <ele>52.9</ele>
        <time>2023-11-05T10:48:53Z</time>
      </trkpt>
      <trkpt lat="43.50268" lon="6.63014">
        <ele>53</ele>
        <time>2023-11-05T10:48:54Z</time>
      </trkpt>
      <trkpt lat="43.50267" lon="6.63013">
        <ele>53</ele>
        <time>2023-11-05T10:48:55Z</time>
      </trkpt>
      <trkpt lat="43.50266" lon="6.63012">
        <ele>53</ele>
        <time>2023-11-05T10:48:56Z</time>
      </trkpt>
      <trkpt lat="43.50266" lon="6.63011">
        <ele>52.9</ele>
        <time>2023-11-05T10:48:57Z</time>
      </trkpt>
      <trkpt lat="43.50265" lon="6.63011">
        <ele>52.9</ele>
        <time>2023-11-05T10:48:58Z</time>
      </trkpt>
      <trkpt lat="43.50264" lon="6.63011">
        <ele>52.7</ele>
        <time>2023-11-05T10:48:59Z</time>
      </trkpt>
      <trkpt lat="43.50263" lon="6.63011">
        <ele>52.6</ele>
        <time>2023-11-05T10:49:00Z</time>
      </trkpt>
      <trkpt lat="43.50261" lon="6.6301">
        <ele>52.3</ele>
        <time>2023-11-05T10:49:01Z</time>
      </trkpt>
      <trkpt lat="43.5026" lon="6.6301">
        <ele>52.2</ele>
        <time>2023-11-05T10:49:02Z</time>
      </trkpt>
      <trkpt lat="43.5026" lon="6.6301">
        <ele>52.3</ele>
        <time>2023-11-05T10:49:03Z</time>
      </trkpt>
      <trkpt lat="43.50259" lon="6.63009">
        <ele>52.2</ele>
        <time>2023-11-05T10:49:04Z</time>
      </trkpt>
      <trkpt lat="43.50259" lon="6.63009">
        <ele>52.1</ele>
        <time>2023-11-05T10:49:05Z</time>
      </trkpt>
      <trkpt lat="43.50258" lon="6.63009">
        <ele>52.4</ele>
        <time>2023-11-05T10:49:06Z</time>
      </trkpt>
      <trkpt lat="43.50257" lon="6.63008">
        <ele>52.5</ele>
        <time>2023-11-05T10:49:07Z</time>
      </trkpt>
      <trkpt lat="43.50256" lon="6.63009">
        <ele>52.4</ele>
        <time>2023-11-05T10:49:08Z</time>
      </trkpt>
      <trkpt lat="43.50254" lon="6.63009">
        <ele>52.2</ele>
        <time>2023-11-05T10:49:09Z</time>
      </trkpt>
      <trkpt lat="43.50254" lon="6.63009">
        <ele>52.1</ele>
        <time>2023-11-05T10:49:10Z</time>
      </trkpt>
      <trkpt lat="43.50252" lon="6.63008">
        <ele>51.9</ele>
        <time>2023-11-05T10:49:11Z</time>
      </trkpt>
      <trkpt lat="43.50251" lon="6.63009">
        <ele>52</ele>
        <time>2023-11-05T10:49:12Z</time>
      </trkpt>
      <trkpt lat="43.5025" lon="6.63009">
        <ele>52</ele>
        <time>2023-11-05T10:49:13Z</time>
      </trkpt>
      <trkpt lat="43.50249" lon="6.63008">
        <ele>51.9</ele>
        <time>2023-11-05T10:49:14Z</time>
      </trkpt>
      <trkpt lat="43.50249" lon="6.63008">
        <ele>51.9</ele>
        <time>2023-11-05T10:49:15Z</time>
      </trkpt>
      <trkpt lat="43.50248" lon="6.63009">
        <ele>53.1</ele>
        <time>2023-11-05T10:49:16Z</time>
      </trkpt>
      <trkpt lat="43.50247" lon="6.63008">
        <ele>52.6</ele>
        <time>2023-11-05T10:49:17Z</time>
      </trkpt>
      <trkpt lat="43.50246" lon="6.63007">
        <ele>52.3</ele>
        <time>2023-11-05T10:49:18Z</time>
      </trkpt>
      <trkpt lat="43.50245" lon="6.63007">
        <ele>52.2</ele>
        <time>2023-11-05T10:49:19Z</time>
      </trkpt>
      <trkpt lat="43.50243" lon="6.63006">
        <ele>52</ele>
        <time>2023-11-05T10:49:20Z</time>
      </trkpt>
      <trkpt lat="43.50242" lon="6.63005">
        <ele>51.8</ele>
        <time>2023-11-05T10:49:21Z</time>
      </trkpt>
      <trkpt lat="43.50241" lon="6.63005">
        <ele>45.1</ele>
        <time>2023-11-05T10:49:22Z</time>
      </trkpt>
      <trkpt lat="43.5024" lon="6.63004">
        <ele>46.3</ele>
        <time>2023-11-05T10:49:23Z</time>
      </trkpt>
      <trkpt lat="43.50239" lon="6.63003">
        <ele>47.1</ele>
        <time>2023-11-05T10:49:24Z</time>
      </trkpt>
      <trkpt lat="43.50238" lon="6.63002">
        <ele>47.7</ele>
        <time>2023-11-05T10:49:25Z</time>
      </trkpt>
      <trkpt lat="43.50238" lon="6.63001">
        <ele>48.3</ele>
        <time>2023-11-05T10:49:26Z</time>
      </trkpt>
      <trkpt lat="43.50237" lon="6.63">
        <ele>48.7</ele>
        <time>2023-11-05T10:49:27Z</time>
      </trkpt>
      <trkpt lat="43.50236" lon="6.62999">
        <ele>49</ele>
        <time>2023-11-05T10:49:28Z</time>
      </trkpt>
      <trkpt lat="43.50236" lon="6.62998">
        <ele>49.3</ele>
        <time>2023-11-05T10:49:29Z</time>
      </trkpt>
      <trkpt lat="43.50235" lon="6.62996">
        <ele>49.4</ele>
        <time>2023-11-05T10:49:30Z</time>
      </trkpt>
      <trkpt lat="43.50234" lon="6.62995">
        <ele>49.7</ele>
        <time>2023-11-05T10:49:31Z</time>
      </trkpt>
      <trkpt lat="43.50233" lon="6.62994">
        <ele>49.9</ele>
        <time>2023-11-05T10:49:32Z</time>
      </trkpt>
      <trkpt lat="43.50233" lon="6.62992">
        <ele>50</ele>
        <time>2023-11-05T10:49:33Z</time>
      </trkpt>
      <trkpt lat="43.50232" lon="6.62991">
        <ele>50.1</ele>
        <time>2023-11-05T10:49:34Z</time>
      </trkpt>
      <trkpt lat="43.50231" lon="6.6299">
        <ele>50.2</ele>
        <time>2023-11-05T10:49:35Z</time>
      </trkpt>
      <trkpt lat="43.50231" lon="6.62989">
        <ele>50.3</ele>
        <time>2023-11-05T10:49:36Z</time>
      </trkpt>
      <trkpt lat="43.5023" lon="6.62986">
        <ele>50.3</ele>
        <time>2023-11-05T10:49:37Z</time>
      </trkpt>
      <trkpt lat="43.5023" lon="6.62985">
        <ele>50.4</ele>
        <time>2023-11-05T10:49:38Z</time>
      </trkpt>
      <trkpt lat="43.50229" lon="6.62983">
        <ele>50.5</ele>
        <time>2023-11-05T10:49:39Z</time>
      </trkpt>
      <trkpt lat="43.50228" lon="6.62981">
        <ele>50.5</ele>
        <time>2023-11-05T10:49:40Z</time>
      </trkpt>
      <trkpt lat="43.50228" lon="6.62979">
        <ele>50.4</ele>
        <time>2023-11-05T10:49:41Z</time>
      </trkpt>
      <trkpt lat="43.50227" lon="6.62978">
        <ele>50.4</ele>
        <time>2023-11-05T10:49:42Z</time>
      </trkpt>
      <trkpt lat="43.50226" lon="6.62977">
        <ele>50.3</ele>
        <time>2023-11-05T10:49:43Z</time>
      </trkpt>
      <trkpt lat="43.50225" lon="6.62975">
        <ele>50.2</ele>
        <time>2023-11-05T10:49:44Z</time>
      </trkpt>
      <trkpt lat="43.50225" lon="6.62975">
        <ele>50.2</ele>
        <time>2023-11-05T10:49:45Z</time>
      </trkpt>
      <trkpt lat="43.50224" lon="6.62973">
        <ele>50.1</ele>
        <time>2023-11-05T10:49:46Z</time>
      </trkpt>
      <trkpt lat="43.50223" lon="6.62972">
        <ele>50</ele>
        <time>2023-11-05T10:49:47Z</time>
      </trkpt>
      <trkpt lat="43.50222" lon="6.62971">
        <ele>49.9</ele>
        <time>2023-11-05T10:49:48Z</time>
      </trkpt>
      <trkpt lat="43.50221" lon="6.6297">
        <ele>50</ele>
        <time>2023-11-05T10:49:49Z</time>
      </trkpt>
      <trkpt lat="43.5022" lon="6.62968">
        <ele>49.9</ele>
        <time>2023-11-05T10:49:50Z</time>
      </trkpt>
      <trkpt lat="43.50219" lon="6.62968">
        <ele>50</ele>
        <time>2023-11-05T10:49:51Z</time>
      </trkpt>
      <trkpt lat="43.50219" lon="6.62966">
        <ele>50</ele>
        <time>2023-11-05T10:49:52Z</time>
      </trkpt>
      <trkpt lat="43.50218" lon="6.62965">
        <ele>50.1</ele>
        <time>2023-11-05T10:49:53Z</time>
      </trkpt>
      <trkpt lat="43.50217" lon="6.62964">
        <ele>50.1</ele>
        <time>2023-11-05T10:49:54Z</time>
      </trkpt>
      <trkpt lat="43.50216" lon="6.62962">
        <ele>50</ele>
        <time>2023-11-05T10:49:55Z</time>
      </trkpt>
      <trkpt lat="43.50215" lon="6.62962">
        <ele>50</ele>
        <time>2023-11-05T10:49:56Z</time>
      </trkpt>
      <trkpt lat="43.50215" lon="6.62961">
        <ele>49.9</ele>
        <time>2023-11-05T10:49:57Z</time>
      </trkpt>
      <trkpt lat="43.50214" lon="6.6296">
        <ele>49.9</ele>
        <time>2023-11-05T10:49:58Z</time>
      </trkpt>
      <trkpt lat="43.50213" lon="6.62959">
        <ele>49.8</ele>
        <time>2023-11-05T10:49:59Z</time>
      </trkpt>
      <trkpt lat="43.50213" lon="6.62958">
        <ele>50</ele>
        <time>2023-11-05T10:50:00Z</time>
      </trkpt>
      <trkpt lat="43.50212" lon="6.62957">
        <ele>50</ele>
        <time>2023-11-05T10:50:01Z</time>
      </trkpt>
      <trkpt lat="43.50211" lon="6.62956">
        <ele>50.1</ele>
        <time>2023-11-05T10:50:02Z</time>
      </trkpt>
      <trkpt lat="43.5021" lon="6.62955">
        <ele>50.3</ele>
        <time>2023-11-05T10:50:03Z</time>
      </trkpt>
      <trkpt lat="43.5021" lon="6.62955">
        <ele>50.4</ele>
        <time>2023-11-05T10:50:04Z</time>
      </trkpt>
      <trkpt lat="43.50209" lon="6.62954">
        <ele>50.5</ele>
        <time>2023-11-05T10:50:05Z</time>
      </trkpt>
      <trkpt lat="43.50208" lon="6.62953">
        <ele>50.5</ele>
        <time>2023-11-05T10:50:06Z</time>
      </trkpt>
      <trkpt lat="43.50207" lon="6.62952">
        <ele>50.5</ele>
        <time>2023-11-05T10:50:07Z</time>
      </trkpt>
      <trkpt lat="43.50206" lon="6.62951">
        <ele>50.5</ele>
        <time>2023-11-05T10:50:08Z</time>
      </trkpt>
      <trkpt lat="43.50206" lon="6.6295">
        <ele>50.5</ele>
        <time>2023-11-05T10:50:09Z</time>
      </trkpt>
      <trkpt lat="43.50205" lon="6.62948">
        <ele>50.5</ele>
        <time>2023-11-05T10:50:10Z</time>
      </trkpt>
      <trkpt lat="43.50204" lon="6.62947">
        <ele>50.5</ele>
        <time>2023-11-05T10:50:11Z</time>
      </trkpt>
      <trkpt lat="43.50204" lon="6.62946">
        <ele>50.7</ele>
        <time>2023-11-05T10:50:12Z</time>
      </trkpt>
      <trkpt lat="43.50203" lon="6.62945">
        <ele>50.8</ele>
        <time>2023-11-05T10:50:13Z</time>
      </trkpt>
      <trkpt lat="43.50202" lon="6.62945">
        <ele>50.9</ele>
        <time>2023-11-05T10:50:14Z</time>
      </trkpt>
      <trkpt lat="43.50202" lon="6.62944">
        <ele>50.9</ele>
        <time>2023-11-05T10:50:15Z</time>
      </trkpt>
      <trkpt lat="43.50201" lon="6.62943">
        <ele>50.9</ele>
        <time>2023-11-05T10:50:16Z</time>
      </trkpt>
      <trkpt lat="43.502" lon="6.62942">
        <ele>50.9</ele>
        <time>2023-11-05T10:50:17Z</time>
      </trkpt>
      <trkpt lat="43.50199" lon="6.62942">
        <ele>50.9</ele>
        <time>2023-11-05T10:50:18Z</time>
      </trkpt>
      <trkpt lat="43.50199" lon="6.62941">
        <ele>51.1</ele>
        <time>2023-11-05T10:50:19Z</time>
      </trkpt>
      <trkpt lat="43.50198" lon="6.6294">
        <ele>51.1</ele>
        <time>2023-11-05T10:50:20Z</time>
      </trkpt>
      <trkpt lat="43.50197" lon="6.62939">
        <ele>51.1</ele>
        <time>2023-11-05T10:50:21Z</time>
      </trkpt>
      <trkpt lat="43.50196" lon="6.62938">
        <ele>51.1</ele>
        <time>2023-11-05T10:50:22Z</time>
      </trkpt>
      <trkpt lat="43.50196" lon="6.62938">
        <ele>51.2</ele>
        <time>2023-11-05T10:50:23Z</time>
      </trkpt>
      <trkpt lat="43.50195" lon="6.62937">
        <ele>51.4</ele>
        <time>2023-11-05T10:50:24Z</time>
      </trkpt>
      <trkpt lat="43.50194" lon="6.62936">
        <ele>51.5</ele>
        <time>2023-11-05T10:50:25Z</time>
      </trkpt>
      <trkpt lat="43.50193" lon="6.62935">
        <ele>51.7</ele>
        <time>2023-11-05T10:50:26Z</time>
      </trkpt>
      <trkpt lat="43.50192" lon="6.62935">
        <ele>51.9</ele>
        <time>2023-11-05T10:50:27Z</time>
      </trkpt>
      <trkpt lat="43.50191" lon="6.62935">
        <ele>52</ele>
        <time>2023-11-05T10:50:28Z</time>
      </trkpt>
      <trkpt lat="43.5019" lon="6.62934">
        <ele>52.1</ele>
        <time>2023-11-05T10:50:29Z</time>
      </trkpt>
      <trkpt lat="43.50189" lon="6.62934">
        <ele>52.2</ele>
        <time>2023-11-05T10:50:30Z</time>
      </trkpt>
      <trkpt lat="43.50188" lon="6.62934">
        <ele>52.3</ele>
        <time>2023-11-05T10:50:31Z</time>
      </trkpt>
      <trkpt lat="43.50187" lon="6.62934">
        <ele>52.3</ele>
        <time>2023-11-05T10:50:32Z</time>
      </trkpt>
      <trkpt lat="43.50186" lon="6.62933">
        <ele>52.3</ele>
        <time>2023-11-05T10:50:33Z</time>
      </trkpt>
      <trkpt lat="43.50184" lon="6.62934">
        <ele>52.5</ele>
        <time>2023-11-05T10:50:34Z</time>
      </trkpt>
      <trkpt lat="43.50183" lon="6.62933">
        <ele>52.7</ele>
        <time>2023-11-05T10:50:35Z</time>
      </trkpt>
      <trkpt lat="43.50182" lon="6.62934">
        <ele>52.9</ele>
        <time>2023-11-05T10:50:36Z</time>
      </trkpt>
      <trkpt lat="43.50181" lon="6.62934">
        <ele>53</ele>
        <time>2023-11-05T10:50:37Z</time>
      </trkpt>
      <trkpt lat="43.5018" lon="6.62934">
        <ele>52.9</ele>
        <time>2023-11-05T10:50:38Z</time>
      </trkpt>
      <trkpt lat="43.50179" lon="6.62935">
        <ele>52.9</ele>
        <time>2023-11-05T10:50:39Z</time>
      </trkpt>
      <trkpt lat="43.50178" lon="6.62935">
        <ele>53</ele>
        <time>2023-11-05T10:50:40Z</time>
      </trkpt>
      <trkpt lat="43.50177" lon="6.62936">
        <ele>52.9</ele>
        <time>2023-11-05T10:50:41Z</time>
      </trkpt>
      <trkpt lat="43.50176" lon="6.62936">
        <ele>52.9</ele>
        <time>2023-11-05T10:50:42Z</time>
      </trkpt>
      <trkpt lat="43.50175" lon="6.62937">
        <ele>52.9</ele>
        <time>2023-11-05T10:50:43Z</time>
      </trkpt>
      <trkpt lat="43.50174" lon="6.62938">
        <ele>52.9</ele>
        <time>2023-11-05T10:50:44Z</time>
      </trkpt>
      <trkpt lat="43.50173" lon="6.62938">
        <ele>52.9</ele>
        <time>2023-11-05T10:50:45Z</time>
      </trkpt>
      <trkpt lat="43.50172" lon="6.62939">
        <ele>53</ele>
        <time>2023-11-05T10:50:46Z</time>
      </trkpt>
      <trkpt lat="43.50171" lon="6.62939">
        <ele>53</ele>
        <time>2023-11-05T10:50:47Z</time>
      </trkpt>
      <trkpt lat="43.5017" lon="6.6294">
        <ele>52.9</ele>
        <time>2023-11-05T10:50:48Z</time>
      </trkpt>
      <trkpt lat="43.50169" lon="6.62941">
        <ele>52.8</ele>
        <time>2023-11-05T10:50:49Z</time>
      </trkpt>
      <trkpt lat="43.50168" lon="6.62942">
        <ele>52.7</ele>
        <time>2023-11-05T10:50:50Z</time>
      </trkpt>
      <trkpt lat="43.50167" lon="6.62942">
        <ele>52.7</ele>
        <time>2023-11-05T10:50:51Z</time>
      </trkpt>
      <trkpt lat="43.50166" lon="6.62943">
        <ele>52.6</ele>
        <time>2023-11-05T10:50:52Z</time>
      </trkpt>
      <trkpt lat="43.50165" lon="6.62944">
        <ele>52.5</ele>
        <time>2023-11-05T10:50:53Z</time>
      </trkpt>
      <trkpt lat="43.50164" lon="6.62945">
        <ele>52.5</ele>
        <time>2023-11-05T10:50:54Z</time>
      </trkpt>
      <trkpt lat="43.50163" lon="6.62946">
        <ele>52.5</ele>
        <time>2023-11-05T10:50:55Z</time>
      </trkpt>
      <trkpt lat="43.50162" lon="6.62947">
        <ele>52.5</ele>
        <time>2023-11-05T10:50:56Z</time>
      </trkpt>
      <trkpt lat="43.50161" lon="6.62948">
        <ele>52.4</ele>
        <time>2023-11-05T10:50:57Z</time>
      </trkpt>
      <trkpt lat="43.5016" lon="6.62949">
        <ele>52.2</ele>
        <time>2023-11-05T10:50:58Z</time>
      </trkpt>
      <trkpt lat="43.50159" lon="6.62949">
        <ele>52.1</ele>
        <time>2023-11-05T10:50:59Z</time>
      </trkpt>
      <trkpt lat="43.50158" lon="6.6295">
        <ele>52</ele>
        <time>2023-11-05T10:51:00Z</time>
      </trkpt>
      <trkpt lat="43.50157" lon="6.62951">
        <ele>51.9</ele>
        <time>2023-11-05T10:51:01Z</time>
      </trkpt>
      <trkpt lat="43.50156" lon="6.62952">
        <ele>51.8</ele>
        <time>2023-11-05T10:51:02Z</time>
      </trkpt>
      <trkpt lat="43.50155" lon="6.62952">
        <ele>51.8</ele>
        <time>2023-11-05T10:51:03Z</time>
      </trkpt>
      <trkpt lat="43.50154" lon="6.62953">
        <ele>51.7</ele>
        <time>2023-11-05T10:51:04Z</time>
      </trkpt>
      <trkpt lat="43.50153" lon="6.62953">
        <ele>51.6</ele>
        <time>2023-11-05T10:51:05Z</time>
      </trkpt>
      <trkpt lat="43.50152" lon="6.62954">
        <ele>51.4</ele>
        <time>2023-11-05T10:51:06Z</time>
      </trkpt>
      <trkpt lat="43.50151" lon="6.62955">
        <ele>51.3</ele>
        <time>2023-11-05T10:51:07Z</time>
      </trkpt>
      <trkpt lat="43.5015" lon="6.62956">
        <ele>51.3</ele>
        <time>2023-11-05T10:51:08Z</time>
      </trkpt>
      <trkpt lat="43.50149" lon="6.62956">
        <ele>51.2</ele>
        <time>2023-11-05T10:51:09Z</time>
      </trkpt>
      <trkpt lat="43.50148" lon="6.62957">
        <ele>51.2</ele>
        <time>2023-11-05T10:51:10Z</time>
      </trkpt>
      <trkpt lat="43.50147" lon="6.62957">
        <ele>50.9</ele>
        <time>2023-11-05T10:51:11Z</time>
      </trkpt>
      <trkpt lat="43.50145" lon="6.62957">
        <ele>50.7</ele>
        <time>2023-11-05T10:51:12Z</time>
      </trkpt>
      <trkpt lat="43.50144" lon="6.62958">
        <ele>50.5</ele>
        <time>2023-11-05T10:51:13Z</time>
      </trkpt>
      <trkpt lat="43.50143" lon="6.62958">
        <ele>50.5</ele>
        <time>2023-11-05T10:51:14Z</time>
      </trkpt>
      <trkpt lat="43.50142" lon="6.62959">
        <ele>50.4</ele>
        <time>2023-11-05T10:51:15Z</time>
      </trkpt>
      <trkpt lat="43.50141" lon="6.62959">
        <ele>50.2</ele>
        <time>2023-11-05T10:51:16Z</time>
      </trkpt>
      <trkpt lat="43.5014" lon="6.62959">
        <ele>50.1</ele>
        <time>2023-11-05T10:51:17Z</time>
      </trkpt>
      <trkpt lat="43.50139" lon="6.62959">
        <ele>50</ele>
        <time>2023-11-05T10:51:18Z</time>
      </trkpt>
      <trkpt lat="43.50138" lon="6.6296">
        <ele>49.9</ele>
        <time>2023-11-05T10:51:19Z</time>
      </trkpt>
      <trkpt lat="43.50137" lon="6.6296">
        <ele>49.9</ele>
        <time>2023-11-05T10:51:20Z</time>
      </trkpt>
      <trkpt lat="43.50135" lon="6.6296">
        <ele>49.8</ele>
        <time>2023-11-05T10:51:21Z</time>
      </trkpt>
      <trkpt lat="43.50134" lon="6.6296">
        <ele>50</ele>
        <time>2023-11-05T10:51:22Z</time>
      </trkpt>
      <trkpt lat="43.50133" lon="6.6296">
        <ele>50.1</ele>
        <time>2023-11-05T10:51:23Z</time>
      </trkpt>
      <trkpt lat="43.50132" lon="6.6296">
        <ele>50.2</ele>
        <time>2023-11-05T10:51:24Z</time>
      </trkpt>
      <trkpt lat="43.50131" lon="6.62961">
        <ele>50.1</ele>
        <time>2023-11-05T10:51:25Z</time>
      </trkpt>
      <trkpt lat="43.5013" lon="6.62961">
        <ele>50</ele>
        <time>2023-11-05T10:51:26Z</time>
      </trkpt>
      <trkpt lat="43.50129" lon="6.62961">
        <ele>49.9</ele>
        <time>2023-11-05T10:51:27Z</time>
      </trkpt>
      <trkpt lat="43.50128" lon="6.62962">
        <ele>49.8</ele>
        <time>2023-11-05T10:51:28Z</time>
      </trkpt>
      <trkpt lat="43.50127" lon="6.62962">
        <ele>49.7</ele>
        <time>2023-11-05T10:51:29Z</time>
      </trkpt>
      <trkpt lat="43.50126" lon="6.62962">
        <ele>49.5</ele>
        <time>2023-11-05T10:51:30Z</time>
      </trkpt>
      <trkpt lat="43.50125" lon="6.62962">
        <ele>49.4</ele>
        <time>2023-11-05T10:51:31Z</time>
      </trkpt>
      <trkpt lat="43.50123" lon="6.62963">
        <ele>49.3</ele>
        <time>2023-11-05T10:51:32Z</time>
      </trkpt>
      <trkpt lat="43.50122" lon="6.62963">
        <ele>49.3</ele>
        <time>2023-11-05T10:51:33Z</time>
      </trkpt>
      <trkpt lat="43.50121" lon="6.62963">
        <ele>49.3</ele>
        <time>2023-11-05T10:51:34Z</time>
      </trkpt>
      <trkpt lat="43.5012" lon="6.62963">
        <ele>49.3</ele>
        <time>2023-11-05T10:51:35Z</time>
      </trkpt>
      <trkpt lat="43.50119" lon="6.62964">
        <ele>49.4</ele>
        <time>2023-11-05T10:51:36Z</time>
      </trkpt>
      <trkpt lat="43.50117" lon="6.62964">
        <ele>49.1</ele>
        <time>2023-11-05T10:51:37Z</time>
      </trkpt>
      <trkpt lat="43.50115" lon="6.62964">
        <ele>49</ele>
        <time>2023-11-05T10:51:38Z</time>
      </trkpt>
      <trkpt lat="43.50114" lon="6.62964">
        <ele>48.9</ele>
        <time>2023-11-05T10:51:39Z</time>
      </trkpt>
      <trkpt lat="43.50113" lon="6.62965">
        <ele>48.8</ele>
        <time>2023-11-05T10:51:40Z</time>
      </trkpt>
      <trkpt lat="43.50112" lon="6.62965">
        <ele>48.8</ele>
        <time>2023-11-05T10:51:41Z</time>
      </trkpt>
      <trkpt lat="43.50111" lon="6.62965">
        <ele>48.7</ele>
        <time>2023-11-05T10:51:42Z</time>
      </trkpt>
      <trkpt lat="43.5011" lon="6.62965">
        <ele>48.7</ele>
        <time>2023-11-05T10:51:43Z</time>
      </trkpt>
      <trkpt lat="43.50108" lon="6.62966">
        <ele>48.6</ele>
        <time>2023-11-05T10:51:44Z</time>
      </trkpt>
      <trkpt lat="43.50107" lon="6.62965">
        <ele>48.6</ele>
        <time>2023-11-05T10:51:45Z</time>
      </trkpt>
      <trkpt lat="43.50106" lon="6.62966">
        <ele>48.7</ele>
        <time>2023-11-05T10:51:46Z</time>
      </trkpt>
      <trkpt lat="43.50105" lon="6.62966">
        <ele>48.9</ele>
        <time>2023-11-05T10:51:47Z</time>
      </trkpt>
      <trkpt lat="43.50104" lon="6.62966">
        <ele>48.9</ele>
        <time>2023-11-05T10:51:48Z</time>
      </trkpt>
      <trkpt lat="43.50103" lon="6.62966">
        <ele>49.1</ele>
        <time>2023-11-05T10:51:49Z</time>
      </trkpt>
      <trkpt lat="43.50102" lon="6.62966">
        <ele>49.1</ele>
        <time>2023-11-05T10:51:50Z</time>
      </trkpt>
      <trkpt lat="43.501" lon="6.62967">
        <ele>49.2</ele>
        <time>2023-11-05T10:51:51Z</time>
      </trkpt>
      <trkpt lat="43.50099" lon="6.62967">
        <ele>49.2</ele>
        <time>2023-11-05T10:51:52Z</time>
      </trkpt>
      <trkpt lat="43.50098" lon="6.62967">
        <ele>49.1</ele>
        <time>2023-11-05T10:51:53Z</time>
      </trkpt>
      <trkpt lat="43.50097" lon="6.62967">
        <ele>49</ele>
        <time>2023-11-05T10:51:54Z</time>
      </trkpt>
      <trkpt lat="43.50095" lon="6.62967">
        <ele>49</ele>
        <time>2023-11-05T10:51:55Z</time>
      </trkpt>
      <trkpt lat="43.50094" lon="6.62967">
        <ele>49.1</ele>
        <time>2023-11-05T10:51:56Z</time>
      </trkpt>
      <trkpt lat="43.50094" lon="6.62967">
        <ele>49</ele>
        <time>2023-11-05T10:51:57Z</time>
      </trkpt>
      <trkpt lat="43.50092" lon="6.62967">
        <ele>48.9</ele>
        <time>2023-11-05T10:51:58Z</time>
      </trkpt>
      <trkpt lat="43.50091" lon="6.62968">
        <ele>48.8</ele>
        <time>2023-11-05T10:51:59Z</time>
      </trkpt>
      <trkpt lat="43.5009" lon="6.62968">
        <ele>48.9</ele>
        <time>2023-11-05T10:52:00Z</time>
      </trkpt>
      <trkpt lat="43.50089" lon="6.62969">
        <ele>48.9</ele>
        <time>2023-11-05T10:52:01Z</time>
      </trkpt>
      <trkpt lat="43.50088" lon="6.6297">
        <ele>48.7</ele>
        <time>2023-11-05T10:52:02Z</time>
      </trkpt>
      <trkpt lat="43.50087" lon="6.6297">
        <ele>48.8</ele>
        <time>2023-11-05T10:52:03Z</time>
      </trkpt>
      <trkpt lat="43.50085" lon="6.62971">
        <ele>48.7</ele>
        <time>2023-11-05T10:52:04Z</time>
      </trkpt>
      <trkpt lat="43.50084" lon="6.62972">
        <ele>48.7</ele>
        <time>2023-11-05T10:52:05Z</time>
      </trkpt>
      <trkpt lat="43.50083" lon="6.62972">
        <ele>48.6</ele>
        <time>2023-11-05T10:52:06Z</time>
      </trkpt>
      <trkpt lat="43.50082" lon="6.62972">
        <ele>48.5</ele>
        <time>2023-11-05T10:52:07Z</time>
      </trkpt>
      <trkpt lat="43.50081" lon="6.62972">
        <ele>48.4</ele>
        <time>2023-11-05T10:52:08Z</time>
      </trkpt>
      <trkpt lat="43.5008" lon="6.62973">
        <ele>48.3</ele>
        <time>2023-11-05T10:52:09Z</time>
      </trkpt>
      <trkpt lat="43.50079" lon="6.62974">
        <ele>48.2</ele>
        <time>2023-11-05T10:52:10Z</time>
      </trkpt>
      <trkpt lat="43.50078" lon="6.62974">
        <ele>48</ele>
        <time>2023-11-05T10:52:11Z</time>
      </trkpt>
      <trkpt lat="43.50077" lon="6.62975">
        <ele>47.9</ele>
        <time>2023-11-05T10:52:12Z</time>
      </trkpt>
      <trkpt lat="43.50076" lon="6.62975">
        <ele>47.8</ele>
        <time>2023-11-05T10:52:13Z</time>
      </trkpt>
      <trkpt lat="43.50075" lon="6.62976">
        <ele>47.7</ele>
        <time>2023-11-05T10:52:14Z</time>
      </trkpt>
      <trkpt lat="43.50074" lon="6.62977">
        <ele>47.7</ele>
        <time>2023-11-05T10:52:15Z</time>
      </trkpt>
      <trkpt lat="43.50073" lon="6.62977">
        <ele>47.7</ele>
        <time>2023-11-05T10:52:16Z</time>
      </trkpt>
      <trkpt lat="43.50072" lon="6.62977">
        <ele>47.7</ele>
        <time>2023-11-05T10:52:17Z</time>
      </trkpt>
      <trkpt lat="43.50071" lon="6.62978">
        <ele>47.7</ele>
        <time>2023-11-05T10:52:18Z</time>
      </trkpt>
      <trkpt lat="43.5007" lon="6.6298">
        <ele>47.7</ele>
        <time>2023-11-05T10:52:19Z</time>
      </trkpt>
      <trkpt lat="43.50069" lon="6.62981">
        <ele>47.6</ele>
        <time>2023-11-05T10:52:20Z</time>
      </trkpt>
      <trkpt lat="43.50069" lon="6.62982">
        <ele>47.7</ele>
        <time>2023-11-05T10:52:21Z</time>
      </trkpt>
      <trkpt lat="43.50068" lon="6.62983">
        <ele>48</ele>
        <time>2023-11-05T10:52:22Z</time>
      </trkpt>
      <trkpt lat="43.50067" lon="6.62984">
        <ele>48.1</ele>
        <time>2023-11-05T10:52:23Z</time>
      </trkpt>
      <trkpt lat="43.50066" lon="6.62985">
        <ele>48.2</ele>
        <time>2023-11-05T10:52:24Z</time>
      </trkpt>
      <trkpt lat="43.50065" lon="6.62986">
        <ele>48.2</ele>
        <time>2023-11-05T10:52:25Z</time>
      </trkpt>
      <trkpt lat="43.50064" lon="6.62987">
        <ele>47.2</ele>
        <time>2023-11-05T10:52:26Z</time>
      </trkpt>
      <trkpt lat="43.50063" lon="6.62988">
        <ele>47.2</ele>
        <time>2023-11-05T10:52:27Z</time>
      </trkpt>
      <trkpt lat="43.50063" lon="6.62991">
        <ele>47.3</ele>
        <time>2023-11-05T10:52:28Z</time>
      </trkpt>
      <trkpt lat="43.50062" lon="6.62993">
        <ele>47.3</ele>
        <time>2023-11-05T10:52:29Z</time>
      </trkpt>
      <trkpt lat="43.50061" lon="6.62995">
        <ele>47.9</ele>
        <time>2023-11-05T10:52:30Z</time>
      </trkpt>
      <trkpt lat="43.50061" lon="6.62997">
        <ele>48.2</ele>
        <time>2023-11-05T10:52:31Z</time>
      </trkpt>
      <trkpt lat="43.5006" lon="6.62998">
        <ele>48.3</ele>
        <time>2023-11-05T10:52:32Z</time>
      </trkpt>
      <trkpt lat="43.50059" lon="6.62999">
        <ele>48.4</ele>
        <time>2023-11-05T10:52:33Z</time>
      </trkpt>
      <trkpt lat="43.50058" lon="6.63001">
        <ele>48.3</ele>
        <time>2023-11-05T10:52:34Z</time>
      </trkpt>
      <trkpt lat="43.50057" lon="6.63002">
        <ele>48.3</ele>
        <time>2023-11-05T10:52:35Z</time>
      </trkpt>
      <trkpt lat="43.50057" lon="6.63003">
        <ele>48.3</ele>
        <time>2023-11-05T10:52:36Z</time>
      </trkpt>
      <trkpt lat="43.50056" lon="6.63005">
        <ele>48.2</ele>
        <time>2023-11-05T10:52:37Z</time>
      </trkpt>
      <trkpt lat="43.50055" lon="6.63006">
        <ele>48.2</ele>
        <time>2023-11-05T10:52:38Z</time>
      </trkpt>
      <trkpt lat="43.50054" lon="6.63006">
        <ele>48.3</ele>
        <time>2023-11-05T10:52:39Z</time>
      </trkpt>
      <trkpt lat="43.50053" lon="6.63007">
        <ele>48.2</ele>
        <time>2023-11-05T10:52:40Z</time>
      </trkpt>
      <trkpt lat="43.50052" lon="6.63008">
        <ele>48</ele>
        <time>2023-11-05T10:52:41Z</time>
      </trkpt>
      <trkpt lat="43.5005" lon="6.63008">
        <ele>47.9</ele>
        <time>2023-11-05T10:52:42Z</time>
      </trkpt>
      <trkpt lat="43.50049" lon="6.63009">
        <ele>47.8</ele>
        <time>2023-11-05T10:52:43Z</time>
      </trkpt>
      <trkpt lat="43.50048" lon="6.63009">
        <ele>47.9</ele>
        <time>2023-11-05T10:52:44Z</time>
      </trkpt>
      <trkpt lat="43.50047" lon="6.63009">
        <ele>47.9</ele>
        <time>2023-11-05T10:52:45Z</time>
      </trkpt>
      <trkpt lat="43.50046" lon="6.63009">
        <ele>47.8</ele>
        <time>2023-11-05T10:52:46Z</time>
      </trkpt>
      <trkpt lat="43.50045" lon="6.63009">
        <ele>47.8</ele>
        <time>2023-11-05T10:52:47Z</time>
      </trkpt>
      <trkpt lat="43.50044" lon="6.63009">
        <ele>47.6</ele>
        <time>2023-11-05T10:52:48Z</time>
      </trkpt>
      <trkpt lat="43.50043" lon="6.63009">
        <ele>47.5</ele>
        <time>2023-11-05T10:52:49Z</time>
      </trkpt>
      <trkpt lat="43.50042" lon="6.63009">
        <ele>47.4</ele>
        <time>2023-11-05T10:52:50Z</time>
      </trkpt>
      <trkpt lat="43.50041" lon="6.63009">
        <ele>47.4</ele>
        <time>2023-11-05T10:52:51Z</time>
      </trkpt>
      <trkpt lat="43.5004" lon="6.63008">
        <ele>47.3</ele>
        <time>2023-11-05T10:52:52Z</time>
      </trkpt>
      <trkpt lat="43.50039" lon="6.63008">
        <ele>47.2</ele>
        <time>2023-11-05T10:52:53Z</time>
      </trkpt>
      <trkpt lat="43.50037" lon="6.63007">
        <ele>47.2</ele>
        <time>2023-11-05T10:52:54Z</time>
      </trkpt>
      <trkpt lat="43.50036" lon="6.63007">
        <ele>47</ele>
        <time>2023-11-05T10:52:55Z</time>
      </trkpt>
      <trkpt lat="43.50035" lon="6.63006">
        <ele>46.9</ele>
        <time>2023-11-05T10:52:56Z</time>
      </trkpt>
      <trkpt lat="43.50034" lon="6.63007">
        <ele>47.1</ele>
        <time>2023-11-05T10:52:57Z</time>
      </trkpt>
      <trkpt lat="43.50034" lon="6.63006">
        <ele>47</ele>
        <time>2023-11-05T10:52:58Z</time>
      </trkpt>
      <trkpt lat="43.50033" lon="6.63006">
        <ele>47</ele>
        <time>2023-11-05T10:52:59Z</time>
      </trkpt>
      <trkpt lat="43.50032" lon="6.63005">
        <ele>46.8</ele>
        <time>2023-11-05T10:53:00Z</time>
      </trkpt>
      <trkpt lat="43.5003" lon="6.63004">
        <ele>46.6</ele>
        <time>2023-11-05T10:53:01Z</time>
      </trkpt>
      <trkpt lat="43.5003" lon="6.63003">
        <ele>46.7</ele>
        <time>2023-11-05T10:53:02Z</time>
      </trkpt>
      <trkpt lat="43.50028" lon="6.63003">
        <ele>46.8</ele>
        <time>2023-11-05T10:53:03Z</time>
      </trkpt>
      <trkpt lat="43.50028" lon="6.63004">
        <ele>46.4</ele>
        <time>2023-11-05T10:53:04Z</time>
      </trkpt>
      <trkpt lat="43.50027" lon="6.63003">
        <ele>46.2</ele>
        <time>2023-11-05T10:53:05Z</time>
      </trkpt>
      <trkpt lat="43.50026" lon="6.63004">
        <ele>46.1</ele>
        <time>2023-11-05T10:53:06Z</time>
      </trkpt>
      <trkpt lat="43.50025" lon="6.63004">
        <ele>46</ele>
        <time>2023-11-05T10:53:07Z</time>
      </trkpt>
      <trkpt lat="43.50024" lon="6.63004">
        <ele>45.8</ele>
        <time>2023-11-05T10:53:08Z</time>
      </trkpt>
      <trkpt lat="43.50023" lon="6.63003">
        <ele>45.8</ele>
        <time>2023-11-05T10:53:09Z</time>
      </trkpt>
      <trkpt lat="43.50022" lon="6.63004">
        <ele>45.6</ele>
        <time>2023-11-05T10:53:10Z</time>
      </trkpt>
      <trkpt lat="43.50022" lon="6.63004">
        <ele>45.5</ele>
        <time>2023-11-05T10:53:11Z</time>
      </trkpt>
      <trkpt lat="43.5002" lon="6.63004">
        <ele>45.5</ele>
        <time>2023-11-05T10:53:12Z</time>
      </trkpt>
      <trkpt lat="43.50019" lon="6.63004">
        <ele>45.6</ele>
        <time>2023-11-05T10:53:13Z</time>
      </trkpt>
      <trkpt lat="43.50018" lon="6.63003">
        <ele>45.7</ele>
        <time>2023-11-05T10:53:14Z</time>
      </trkpt>
      <trkpt lat="43.50017" lon="6.63003">
        <ele>45.6</ele>
        <time>2023-11-05T10:53:15Z</time>
      </trkpt>
      <trkpt lat="43.50016" lon="6.63003">
        <ele>45.6</ele>
        <time>2023-11-05T10:53:16Z</time>
      </trkpt>
      <trkpt lat="43.50015" lon="6.63003">
        <ele>45.3</ele>
        <time>2023-11-05T10:53:17Z</time>
      </trkpt>
      <trkpt lat="43.50014" lon="6.63003">
        <ele>45.1</ele>
        <time>2023-11-05T10:53:18Z</time>
      </trkpt>
      <trkpt lat="43.50013" lon="6.63003">
        <ele>44.9</ele>
        <time>2023-11-05T10:53:19Z</time>
      </trkpt>
      <trkpt lat="43.50012" lon="6.63002">
        <ele>44.8</ele>
        <time>2023-11-05T10:53:20Z</time>
      </trkpt>
      <trkpt lat="43.5001" lon="6.63002">
        <ele>44.7</ele>
        <time>2023-11-05T10:53:21Z</time>
      </trkpt>
      <trkpt lat="43.50009" lon="6.63002">
        <ele>44.7</ele>
        <time>2023-11-05T10:53:22Z</time>
      </trkpt>
      <trkpt lat="43.50008" lon="6.63001">
        <ele>44.8</ele>
        <time>2023-11-05T10:53:23Z</time>
      </trkpt>
      <trkpt lat="43.50007" lon="6.63001">
        <ele>44.7</ele>
        <time>2023-11-05T10:53:24Z</time>
      </trkpt>
      <trkpt lat="43.50006" lon="6.63001">
        <ele>44.6</ele>
        <time>2023-11-05T10:53:25Z</time>
      </trkpt>
      <trkpt lat="43.50005" lon="6.63">
        <ele>44.6</ele>
        <time>2023-11-05T10:53:26Z</time>
      </trkpt>
      <trkpt lat="43.50004" lon="6.63">
        <ele>44.5</ele>
        <time>2023-11-05T10:53:27Z</time>
      </trkpt>
      <trkpt lat="43.50003" lon="6.63">
        <ele>44.4</ele>
        <time>2023-11-05T10:53:28Z</time>
      </trkpt>
      <trkpt lat="43.50002" lon="6.63">
        <ele>44.3</ele>
        <time>2023-11-05T10:53:29Z</time>
      </trkpt>
      <trkpt lat="43.5" lon="6.63">
        <ele>44.2</ele>
        <time>2023-11-05T10:53:30Z</time>
      </trkpt>
      <trkpt lat="43.49999" lon="6.63">
        <ele>44.2</ele>
        <time>2023-11-05T10:53:31Z</time>
      </trkpt>
      <trkpt lat="43.49998" lon="6.63">
        <ele>44.4</ele>
        <time>2023-11-05T10:53:32Z</time>
      </trkpt>
      <trkpt lat="43.49997" lon="6.63">
        <ele>44.8</ele>
        <time>2023-11-05T10:53:33Z</time>
      </trkpt>
      <trkpt lat="43.49996" lon="6.63">
        <ele>45</ele>
        <time>2023-11-05T10:53:34Z</time>
      </trkpt>
      <trkpt lat="43.49995" lon="6.62999">
        <ele>44.9</ele>
        <time>2023-11-05T10:53:35Z</time>
      </trkpt>
      <trkpt lat="43.49994" lon="6.62999">
        <ele>44.7</ele>
        <time>2023-11-05T10:53:36Z</time>
      </trkpt>
      <trkpt lat="43.49993" lon="6.62999">
        <ele>44.4</ele>
        <time>2023-11-05T10:53:37Z</time>
      </trkpt>
      <trkpt lat="43.49992" lon="6.63">
        <ele>44.1</ele>
        <time>2023-11-05T10:53:38Z</time>
      </trkpt>
      <trkpt lat="43.49991" lon="6.63">
        <ele>43.8</ele>
        <time>2023-11-05T10:53:39Z</time>
      </trkpt>
      <trkpt lat="43.4999" lon="6.63">
        <ele>43.7</ele>
        <time>2023-11-05T10:53:40Z</time>
      </trkpt>
      <trkpt lat="43.49989" lon="6.63">
        <ele>43.6</ele>
        <time>2023-11-05T10:53:41Z</time>
      </trkpt>
      <trkpt lat="43.49988" lon="6.63001">
        <ele>43.5</ele>
        <time>2023-11-05T10:53:42Z</time>
      </trkpt>
      <trkpt lat="43.49987" lon="6.63002">
        <ele>43.4</ele>
        <time>2023-11-05T10:53:43Z</time>
      </trkpt>
      <trkpt lat="43.49987" lon="6.63002">
        <ele>43.3</ele>
        <time>2023-11-05T10:53:44Z</time>
      </trkpt>
      <trkpt lat="43.49987" lon="6.63003">
        <ele>43.4</ele>
        <time>2023-11-05T10:53:45Z</time>
      </trkpt>
      <trkpt lat="43.49987" lon="6.63003">
        <ele>43.4</ele>
        <time>2023-11-05T10:53:46Z</time>
      </trkpt>
      <trkpt lat="43.49987" lon="6.63004">
        <ele>43.5</ele>
        <time>2023-11-05T10:53:47Z</time>
      </trkpt>
      <trkpt lat="43.49987" lon="6.63004">
        <ele>43.5</ele>
        <time>2023-11-05T10:53:48Z</time>
      </trkpt>
      <trkpt lat="43.49987" lon="6.63004">
        <ele>43.4</ele>
        <time>2023-11-05T10:53:49Z</time>
      </trkpt>
      <trkpt lat="43.49987" lon="6.63004">
        <ele>43.3</ele>
        <time>2023-11-05T10:53:50Z</time>
      </trkpt>
      <trkpt lat="43.49987" lon="6.63005">
        <ele>43.2</ele>
        <time>2023-11-05T10:53:51Z</time>
      </trkpt>
      <trkpt lat="43.49987" lon="6.63005">
        <ele>43.1</ele>
        <time>2023-11-05T10:53:52Z</time>
      </trkpt>
      <trkpt lat="43.49987" lon="6.63005">
        <ele>43.1</ele>
        <time>2023-11-05T10:53:53Z</time>
      </trkpt>
      <trkpt lat="43.49987" lon="6.63006">
        <ele>43.2</ele>
        <time>2023-11-05T10:53:54Z</time>
      </trkpt>
      <trkpt lat="43.49987" lon="6.63006">
        <ele>43.2</ele>
        <time>2023-11-05T10:53:55Z</time>
      </trkpt>
      <trkpt lat="43.49987" lon="6.63006">
        <ele>43.2</ele>
        <time>2023-11-05T10:53:56Z</time>
      </trkpt>
      <trkpt lat="43.49987" lon="6.63007">
        <ele>43.2</ele>
        <time>2023-11-05T10:53:57Z</time>
      </trkpt>
      <trkpt lat="43.49987" lon="6.63007">
        <ele>43.2</ele>
        <time>2023-11-05T10:53:58Z</time>
      </trkpt>
      <trkpt lat="43.49987" lon="6.63007">
        <ele>43.1</ele>
        <time>2023-11-05T10:53:59Z</time>
      </trkpt>
      <trkpt lat="43.49987" lon="6.63007">
        <ele>43</ele>
        <time>2023-11-05T10:54:00Z</time>
      </trkpt>
      <trkpt lat="43.49987" lon="6.63007">
        <ele>43</ele>
        <time>2023-11-05T10:54:01Z</time>
      </trkpt>
      <trkpt lat="43.49987" lon="6.63008">
        <ele>42.9</ele>
        <time>2023-11-05T10:54:02Z</time>
      </trkpt>
      <trkpt lat="43.49987" lon="6.63008">
        <ele>42.9</ele>
        <time>2023-11-05T10:54:03Z</time>
      </trkpt>
      <trkpt lat="43.49987" lon="6.63008">
        <ele>42.8</ele>
        <time>2023-11-05T10:54:04Z</time>
      </trkpt>
      <trkpt lat="43.49987" lon="6.63008">
        <ele>42.7</ele>
        <time>2023-11-05T10:54:05Z</time>
      </trkpt>
      <trkpt lat="43.49987" lon="6.63008">
        <ele>42.7</ele>
        <time>2023-11-05T10:54:06Z</time>
      </trkpt>
      <trkpt lat="43.49987" lon="6.63008">
        <ele>42.6</ele>
        <time>2023-11-05T10:54:07Z</time>
      </trkpt>
      <trkpt lat="43.49987" lon="6.63008">
        <ele>42.6</ele>
        <time>2023-11-05T10:54:08Z</time>
      </trkpt>
      <trkpt lat="43.49987" lon="6.63008">
        <ele>42.6</ele>
        <time>2023-11-05T10:54:09Z</time>
      </trkpt>
      <trkpt lat="43.49988" lon="6.63008">
        <ele>42.6</ele>
        <time>2023-11-05T10:54:10Z</time>
      </trkpt>
      <trkpt lat="43.49987" lon="6.63008">
        <ele>42.7</ele>
        <time>2023-11-05T10:54:11Z</time>
      </trkpt>
      <trkpt lat="43.49987" lon="6.63009">
        <ele>42.8</ele>
        <time>2023-11-05T10:54:12Z</time>
      </trkpt>
      <trkpt lat="43.49987" lon="6.63009">
        <ele>42.8</ele>
        <time>2023-11-05T10:54:13Z</time>
      </trkpt>
      <trkpt lat="43.49987" lon="6.63009">
        <ele>42.8</ele>
        <time>2023-11-05T10:54:14Z</time>
      </trkpt>
      <trkpt lat="43.49987" lon="6.63009">
        <ele>42.8</ele>
        <time>2023-11-05T10:54:15Z</time>
      </trkpt>
      <trkpt lat="43.49987" lon="6.63009">
        <ele>42.8</ele>
        <time>2023-11-05T10:54:16Z</time>
      </trkpt>
      <trkpt lat="43.49987" lon="6.63009">
        <ele>42.9</ele>
        <time>2023-11-05T10:54:17Z</time>
      </trkpt>
      <trkpt lat="43.49987" lon="6.63009">
        <ele>42.9</ele>
        <time>2023-11-05T10:54:18Z</time>
      </trkpt>
      <trkpt lat="43.49987" lon="6.63009">
        <ele>42.9</ele>
        <time>2023-11-05T10:54:19Z</time>
      </trkpt>
      <trkpt lat="43.49987" lon="6.63009">
        <ele>42.9</ele>
        <time>2023-11-05T10:54:20Z</time>
      </trkpt>
      <trkpt lat="43.49987" lon="6.63009">
        <ele>42.8</ele>
        <time>2023-11-05T10:54:21Z</time>
      </trkpt>
      <trkpt lat="43.49988" lon="6.63009">
        <ele>42.8</ele>
        <time>2023-11-05T10:54:22Z</time>
      </trkpt>
      <trkpt lat="43.49988" lon="6.63009">
        <ele>42.7</ele>
        <time>2023-11-05T10:54:23Z</time>
      </trkpt>
      <trkpt lat="43.49988" lon="6.63009">
        <ele>42.7</ele>
        <time>2023-11-05T10:54:24Z</time>
      </trkpt>
      <trkpt lat="43.49987" lon="6.63009">
        <ele>42.7</ele>
        <time>2023-11-05T10:54:25Z</time>
      </trkpt>
      <trkpt lat="43.49986" lon="6.63009">
        <ele>42.6</ele>
        <time>2023-11-05T10:54:26Z</time>
      </trkpt>
      <trkpt lat="43.49986" lon="6.63009">
        <ele>42.6</ele>
        <time>2023-11-05T10:54:27Z</time>
      </trkpt>
      <trkpt lat="43.49985" lon="6.6301">
        <ele>42.5</ele>
        <time>2023-11-05T10:54:28Z</time>
      </trkpt>
      <trkpt lat="43.49984" lon="6.63011">
        <ele>42.5</ele>
        <time>2023-11-05T10:54:29Z</time>
      </trkpt>
      <trkpt lat="43.49983" lon="6.63011">
        <ele>42.7</ele>
        <time>2023-11-05T10:54:30Z</time>
      </trkpt>
      <trkpt lat="43.49982" lon="6.6301">
        <ele>42.7</ele>
        <time>2023-11-05T10:54:31Z</time>
      </trkpt>
      <trkpt lat="43.49981" lon="6.6301">
        <ele>42.7</ele>
        <time>2023-11-05T10:54:32Z</time>
      </trkpt>
      <trkpt lat="43.4998" lon="6.6301">
        <ele>42.7</ele>
        <time>2023-11-05T10:54:33Z</time>
      </trkpt>
      <trkpt lat="43.49979" lon="6.6301">
        <ele>42.8</ele>
        <time>2023-11-05T10:54:34Z</time>
      </trkpt>
      <trkpt lat="43.49978" lon="6.63011">
        <ele>42.8</ele>
        <time>2023-11-05T10:54:35Z</time>
      </trkpt>
      <trkpt lat="43.49977" lon="6.63011">
        <ele>42.7</ele>
        <time>2023-11-05T10:54:36Z</time>
      </trkpt>
      <trkpt lat="43.49976" lon="6.63011">
        <ele>42.5</ele>
        <time>2023-11-05T10:54:37Z</time>
      </trkpt>
      <trkpt lat="43.49975" lon="6.63011">
        <ele>42.5</ele>
        <time>2023-11-05T10:54:38Z</time>
      </trkpt>
      <trkpt lat="43.49974" lon="6.63011">
        <ele>42.5</ele>
        <time>2023-11-05T10:54:39Z</time>
      </trkpt>
      <trkpt lat="43.49973" lon="6.63011">
        <ele>42.6</ele>
        <time>2023-11-05T10:54:40Z</time>
      </trkpt>
      <trkpt lat="43.49972" lon="6.63011">
        <ele>42.4</ele>
        <time>2023-11-05T10:54:41Z</time>
      </trkpt>
      <trkpt lat="43.49971" lon="6.63011">
        <ele>42.4</ele>
        <time>2023-11-05T10:54:42Z</time>
      </trkpt>
      <trkpt lat="43.4997" lon="6.63011">
        <ele>42.4</ele>
        <time>2023-11-05T10:54:43Z</time>
      </trkpt>
      <trkpt lat="43.49969" lon="6.63011">
        <ele>42.4</ele>
        <time>2023-11-05T10:54:44Z</time>
      </trkpt>
      <trkpt lat="43.49968" lon="6.63011">
        <ele>42.2</ele>
        <time>2023-11-05T10:54:45Z</time>
      </trkpt>
      <trkpt lat="43.49967" lon="6.6301">
        <ele>42.2</ele>
        <time>2023-11-05T10:54:46Z</time>
      </trkpt>
      <trkpt lat="43.49966" lon="6.63009">
        <ele>42.1</ele>
        <time>2023-11-05T10:54:47Z</time>
      </trkpt>
      <trkpt lat="43.49965" lon="6.63009">
        <ele>42.1</ele>
        <time>2023-11-05T10:54:48Z</time>
      </trkpt>
      <trkpt lat="43.49965" lon="6.63008">
        <ele>42.1</ele>
        <time>2023-11-05T10:54:49Z</time>
      </trkpt>
      <trkpt lat="43.49964" lon="6.63008">
        <ele>42.1</ele>
        <time>2023-11-05T10:54:50Z</time>
      </trkpt>
      <trkpt lat="43.49964" lon="6.63007">
        <ele>42.1</ele>
        <time>2023-11-05T10:54:51Z</time>
      </trkpt>
      <trkpt lat="43.49963" lon="6.63006">
        <ele>42.2</ele>
        <time>2023-11-05T10:54:52Z</time>
      </trkpt>
      <trkpt lat="43.49962" lon="6.63006">
        <ele>42</ele>
        <time>2023-11-05T10:54:53Z</time>
      </trkpt>
      <trkpt lat="43.49962" lon="6.63005">
        <ele>41.8</ele>
        <time>2023-11-05T10:54:54Z</time>
      </trkpt>
      <trkpt lat="43.49961" lon="6.63005">
        <ele>41.6</ele>
        <time>2023-11-05T10:54:55Z</time>
      </trkpt>
      <trkpt lat="43.4996" lon="6.63005">
        <ele>41.6</ele>
        <time>2023-11-05T10:54:56Z</time>
      </trkpt>
      <trkpt lat="43.4996" lon="6.63005">
        <ele>41.5</ele>
        <time>2023-11-05T10:54:57Z</time>
      </trkpt>
      <trkpt lat="43.49959" lon="6.63004">
        <ele>41.5</ele>
        <time>2023-11-05T10:54:58Z</time>
      </trkpt>
      <trkpt lat="43.49958" lon="6.63004">
        <ele>41.5</ele>
        <time>2023-11-05T10:54:59Z</time>
      </trkpt>
      <trkpt lat="43.49957" lon="6.63004">
        <ele>41.4</ele>
        <time>2023-11-05T10:55:00Z</time>
      </trkpt>
      <trkpt lat="43.49955" lon="6.63004">
        <ele>41.3</ele>
        <time>2023-11-05T10:55:01Z</time>
      </trkpt>
      <trkpt lat="43.49954" lon="6.63004">
        <ele>41.3</ele>
        <time>2023-11-05T10:55:02Z</time>
      </trkpt>
      <trkpt lat="43.49953" lon="6.63004">
        <ele>41.2</ele>
        <time>2023-11-05T10:55:03Z</time>
      </trkpt>
      <trkpt lat="43.49952" lon="6.63004">
        <ele>41.1</ele>
        <time>2023-11-05T10:55:04Z</time>
      </trkpt>
      <trkpt lat="43.49951" lon="6.63005">
        <ele>40.8</ele>
        <time>2023-11-05T10:55:05Z</time>
      </trkpt>
      <trkpt lat="43.4995" lon="6.63005">
        <ele>40.6</ele>
        <time>2023-11-05T10:55:06Z</time>
      </trkpt>
      <trkpt lat="43.49949" lon="6.63005">
        <ele>40.4</ele>
        <time>2023-11-05T10:55:07Z</time>
      </trkpt>
      <trkpt lat="43.49948" lon="6.63005">
        <ele>40.2</ele>
        <time>2023-11-05T10:55:08Z</time>
      </trkpt>
      <trkpt lat="43.49947" lon="6.63005">
        <ele>40</ele>
        <time>2023-11-05T10:55:09Z</time>
      </trkpt>
      <trkpt lat="43.49946" lon="6.63006">
        <ele>39.9</ele>
        <time>2023-11-05T10:55:10Z</time>
      </trkpt>
      <trkpt lat="43.49945" lon="6.63006">
        <ele>39.7</ele>
        <time>2023-11-05T10:55:11Z</time>
      </trkpt>
      <trkpt lat="43.49944" lon="6.63006">
        <ele>39.5</ele>
        <time>2023-11-05T10:55:12Z</time>
      </trkpt>
      <trkpt lat="43.49943" lon="6.63006">
        <ele>39.4</ele>
        <time>2023-11-05T10:55:13Z</time>
      </trkpt>
      <trkpt lat="43.49943" lon="6.63006">
        <ele>39.2</ele>
        <time>2023-11-05T10:55:14Z</time>
      </trkpt>
      <trkpt lat="43.49943" lon="6.63006">
        <ele>39</ele>
        <time>2023-11-05T10:55:15Z</time>
      </trkpt>
      <trkpt lat="43.49943" lon="6.63006">
        <ele>38.9</ele>
        <time>2023-11-05T10:55:16Z</time>
      </trkpt>
      <trkpt lat="43.49943" lon="6.63006">
        <ele>38.8</ele>
        <time>2023-11-05T10:55:17Z</time>
      </trkpt>
      <trkpt lat="43.49942" lon="6.63007">
        <ele>38.8</ele>
        <time>2023-11-05T10:55:18Z</time>
      </trkpt>
      <trkpt lat="43.49941" lon="6.63007">
        <ele>38.8</ele>
        <time>2023-11-05T10:55:19Z</time>
      </trkpt>
      <trkpt lat="43.49939" lon="6.63006">
        <ele>38.8</ele>
        <time>2023-11-05T10:55:20Z</time>
      </trkpt>
      <trkpt lat="43.49938" lon="6.63006">
        <ele>38.8</ele>
        <time>2023-11-05T10:55:21Z</time>
      </trkpt>
      <trkpt lat="43.49937" lon="6.63006">
        <ele>38.7</ele>
        <time>2023-11-05T10:55:22Z</time>
      </trkpt>
      <trkpt lat="43.49936" lon="6.63007">
        <ele>38.6</ele>
        <time>2023-11-05T10:55:23Z</time>
      </trkpt>
      <trkpt lat="43.49935" lon="6.63007">
        <ele>38.5</ele>
        <time>2023-11-05T10:55:24Z</time>
      </trkpt>
      <trkpt lat="43.49934" lon="6.63006">
        <ele>38.3</ele>
        <time>2023-11-05T10:55:25Z</time>
      </trkpt>
      <trkpt lat="43.49933" lon="6.63006">
        <ele>38.2</ele>
        <time>2023-11-05T10:55:26Z</time>
      </trkpt>
      <trkpt lat="43.49932" lon="6.63006">
        <ele>38.1</ele>
        <time>2023-11-05T10:55:27Z</time>
      </trkpt>
      <trkpt lat="43.49931" lon="6.63006">
        <ele>37.9</ele>
        <time>2023-11-05T10:55:28Z</time>
      </trkpt>
      <trkpt lat="43.4993" lon="6.63006">
        <ele>37.7</ele>
        <time>2023-11-05T10:55:29Z</time>
      </trkpt>
      <trkpt lat="43.49929" lon="6.63005">
        <ele>37.6</ele>
        <time>2023-11-05T10:55:30Z</time>
      </trkpt>
      <trkpt lat="43.49929" lon="6.63005">
        <ele>37.4</ele>
        <time>2023-11-05T10:55:31Z</time>
      </trkpt>
      <trkpt lat="43.49928" lon="6.63004">
        <ele>37.2</ele>
        <time>2023-11-05T10:55:32Z</time>
      </trkpt>
      <trkpt lat="43.49927" lon="6.63004">
        <ele>37</ele>
        <time>2023-11-05T10:55:33Z</time>
      </trkpt>
      <trkpt lat="43.49926" lon="6.63003">
        <ele>36.9</ele>
        <time>2023-11-05T10:55:34Z</time>
      </trkpt>
      <trkpt lat="43.49925" lon="6.63003">
        <ele>36.7</ele>
        <time>2023-11-05T10:55:35Z</time>
      </trkpt>
      <trkpt lat="43.49924" lon="6.63003">
        <ele>36.6</ele>
        <time>2023-11-05T10:55:36Z</time>
      </trkpt>
      <trkpt lat="43.49923" lon="6.63002">
        <ele>36.4</ele>
        <time>2023-11-05T10:55:37Z</time>
      </trkpt>
      <trkpt lat="43.49922" lon="6.63002">
        <ele>36.3</ele>
        <time>2023-11-05T10:55:38Z</time>
      </trkpt>
      <trkpt lat="43.49922" lon="6.63001">
        <ele>36.2</ele>
        <time>2023-11-05T10:55:39Z</time>
      </trkpt>
      <trkpt lat="43.49921" lon="6.63001">
        <ele>36.1</ele>
        <time>2023-11-05T10:55:40Z</time>
      </trkpt>
      <trkpt lat="43.4992" lon="6.63001">
        <ele>36</ele>
        <time>2023-11-05T10:55:41Z</time>
      </trkpt>
      <trkpt lat="43.49919" lon="6.63001">
        <ele>35.9</ele>
        <time>2023-11-05T10:55:42Z</time>
      </trkpt>
      <trkpt lat="43.49918" lon="6.63">
        <ele>35.6</ele>
        <time>2023-11-05T10:55:43Z</time>
      </trkpt>
      <trkpt lat="43.49917" lon="6.63">
        <ele>35.5</ele>
        <time>2023-11-05T10:55:44Z</time>
      </trkpt>
      <trkpt lat="43.49916" lon="6.62999">
        <ele>34.3</ele>
        <time>2023-11-05T10:55:45Z</time>
      </trkpt>
      <trkpt lat="43.49915" lon="6.62999">
        <ele>34.3</ele>
        <time>2023-11-05T10:55:46Z</time>
      </trkpt>
      <trkpt lat="43.49914" lon="6.62999">
        <ele>34.4</ele>
        <time>2023-11-05T10:55:47Z</time>
      </trkpt>
      <trkpt lat="43.49913" lon="6.62998">
        <ele>34.4</ele>
        <time>2023-11-05T10:55:48Z</time>
      </trkpt>
      <trkpt lat="43.49912" lon="6.62998">
        <ele>34.4</ele>
        <time>2023-11-05T10:55:49Z</time>
      </trkpt>
      <trkpt lat="43.49911" lon="6.62997">
        <ele>34.3</ele>
        <time>2023-11-05T10:55:50Z</time>
      </trkpt>
      <trkpt lat="43.4991" lon="6.62997">
        <ele>34.3</ele>
        <time>2023-11-05T10:55:51Z</time>
      </trkpt>
      <trkpt lat="43.49909" lon="6.62996">
        <ele>34.3</ele>
        <time>2023-11-05T10:55:52Z</time>
      </trkpt>
      <trkpt lat="43.49908" lon="6.62996">
        <ele>34.2</ele>
        <time>2023-11-05T10:55:53Z</time>
      </trkpt>
      <trkpt lat="43.49908" lon="6.62995">
        <ele>34.2</ele>
        <time>2023-11-05T10:55:54Z</time>
      </trkpt>
      <trkpt lat="43.49907" lon="6.62995">
        <ele>34.1</ele>
        <time>2023-11-05T10:55:55Z</time>
      </trkpt>
      <trkpt lat="43.49906" lon="6.62994">
        <ele>34.1</ele>
        <time>2023-11-05T10:55:56Z</time>
      </trkpt>
      <trkpt lat="43.49905" lon="6.62993">
        <ele>33.9</ele>
        <time>2023-11-05T10:55:57Z</time>
      </trkpt>
      <trkpt lat="43.49904" lon="6.62992">
        <ele>33.8</ele>
        <time>2023-11-05T10:55:58Z</time>
      </trkpt>
      <trkpt lat="43.49903" lon="6.62992">
        <ele>33.7</ele>
        <time>2023-11-05T10:55:59Z</time>
      </trkpt>
      <trkpt lat="43.49902" lon="6.62991">
        <ele>33.5</ele>
        <time>2023-11-05T10:56:00Z</time>
      </trkpt>
      <trkpt lat="43.49901" lon="6.6299">
        <ele>33.2</ele>
        <time>2023-11-05T10:56:01Z</time>
      </trkpt>
      <trkpt lat="43.49901" lon="6.6299">
        <ele>33</ele>
        <time>2023-11-05T10:56:02Z</time>
      </trkpt>
      <trkpt lat="43.49899" lon="6.62989">
        <ele>32.7</ele>
        <time>2023-11-05T10:56:03Z</time>
      </trkpt>
      <trkpt lat="43.49899" lon="6.62989">
        <ele>32.4</ele>
        <time>2023-11-05T10:56:04Z</time>
      </trkpt>
      <trkpt lat="43.49898" lon="6.62988">
        <ele>32.1</ele>
        <time>2023-11-05T10:56:05Z</time>
      </trkpt>
      <trkpt lat="43.49897" lon="6.62988">
        <ele>31.7</ele>
        <time>2023-11-05T10:56:06Z</time>
      </trkpt>
      <trkpt lat="43.49896" lon="6.62987">
        <ele>31.4</ele>
        <time>2023-11-05T10:56:07Z</time>
      </trkpt>
      <trkpt lat="43.49895" lon="6.62986">
        <ele>31.1</ele>
        <time>2023-11-05T10:56:08Z</time>
      </trkpt>
      <trkpt lat="43.49894" lon="6.62986">
        <ele>30.8</ele>
        <time>2023-11-05T10:56:09Z</time>
      </trkpt>
      <trkpt lat="43.49894" lon="6.62985">
        <ele>30.6</ele>
        <time>2023-11-05T10:56:10Z</time>
      </trkpt>
      <trkpt lat="43.49893" lon="6.62985">
        <ele>30.5</ele>
        <time>2023-11-05T10:56:11Z</time>
      </trkpt>
      <trkpt lat="43.49892" lon="6.62983">
        <ele>30.4</ele>
        <time>2023-11-05T10:56:12Z</time>
      </trkpt>
      <trkpt lat="43.49891" lon="6.62983">
        <ele>30.5</ele>
        <time>2023-11-05T10:56:13Z</time>
      </trkpt>
      <trkpt lat="43.4989" lon="6.62981">
        <ele>30.5</ele>
        <time>2023-11-05T10:56:14Z</time>
      </trkpt>
      <trkpt lat="43.49889" lon="6.62981">
        <ele>30.5</ele>
        <time>2023-11-05T10:56:15Z</time>
      </trkpt>
      <trkpt lat="43.49888" lon="6.62981">
        <ele>30.7</ele>
        <time>2023-11-05T10:56:16Z</time>
      </trkpt>
      <trkpt lat="43.49887" lon="6.62981">
        <ele>31</ele>
        <time>2023-11-05T10:56:17Z</time>
      </trkpt>
      <trkpt lat="43.49886" lon="6.62981">
        <ele>31.2</ele>
        <time>2023-11-05T10:56:18Z</time>
      </trkpt>
      <trkpt lat="43.49885" lon="6.62981">
        <ele>31.5</ele>
        <time>2023-11-05T10:56:19Z</time>
      </trkpt>
      <trkpt lat="43.49884" lon="6.6298">
        <ele>31.6</ele>
        <time>2023-11-05T10:56:20Z</time>
      </trkpt>
      <trkpt lat="43.49883" lon="6.6298">
        <ele>31.7</ele>
        <time>2023-11-05T10:56:21Z</time>
      </trkpt>
      <trkpt lat="43.49882" lon="6.62978">
        <ele>31.8</ele>
        <time>2023-11-05T10:56:22Z</time>
      </trkpt>
      <trkpt lat="43.49881" lon="6.62977">
        <ele>31.9</ele>
        <time>2023-11-05T10:56:23Z</time>
      </trkpt>
      <trkpt lat="43.49881" lon="6.62976">
        <ele>32</ele>
        <time>2023-11-05T10:56:24Z</time>
      </trkpt>
      <trkpt lat="43.4988" lon="6.62975">
        <ele>32</ele>
        <time>2023-11-05T10:56:25Z</time>
      </trkpt>
      <trkpt lat="43.4988" lon="6.62975">
        <ele>32</ele>
        <time>2023-11-05T10:56:26Z</time>
      </trkpt>
      <trkpt lat="43.49879" lon="6.62974">
        <ele>32.1</ele>
        <time>2023-11-05T10:56:27Z</time>
      </trkpt>
      <trkpt lat="43.49878" lon="6.62974">
        <ele>32.1</ele>
        <time>2023-11-05T10:56:28Z</time>
      </trkpt>
      <trkpt lat="43.49877" lon="6.62973">
        <ele>32</ele>
        <time>2023-11-05T10:56:29Z</time>
      </trkpt>
      <trkpt lat="43.49876" lon="6.62973">
        <ele>32</ele>
        <time>2023-11-05T10:56:30Z</time>
      </trkpt>
      <trkpt lat="43.49875" lon="6.62973">
        <ele>32</ele>
        <time>2023-11-05T10:56:31Z</time>
      </trkpt>
      <trkpt lat="43.49874" lon="6.62972">
        <ele>32.1</ele>
        <time>2023-11-05T10:56:32Z</time>
      </trkpt>
      <trkpt lat="43.49873" lon="6.62973">
        <ele>32.1</ele>
        <time>2023-11-05T10:56:33Z</time>
      </trkpt>
      <trkpt lat="43.49872" lon="6.62973">
        <ele>32</ele>
        <time>2023-11-05T10:56:34Z</time>
      </trkpt>
      <trkpt lat="43.49871" lon="6.62973">
        <ele>31.8</ele>
        <time>2023-11-05T10:56:35Z</time>
      </trkpt>
      <trkpt lat="43.4987" lon="6.62972">
        <ele>31.6</ele>
        <time>2023-11-05T10:56:36Z</time>
      </trkpt>
      <trkpt lat="43.49869" lon="6.62972">
        <ele>31.3</ele>
        <time>2023-11-05T10:56:37Z</time>
      </trkpt>
      <trkpt lat="43.49868" lon="6.62971">
        <ele>31.1</ele>
        <time>2023-11-05T10:56:38Z</time>
      </trkpt>
      <trkpt lat="43.49867" lon="6.62971">
        <ele>31</ele>
        <time>2023-11-05T10:56:39Z</time>
      </trkpt>
      <trkpt lat="43.49866" lon="6.62971">
        <ele>30.8</ele>
        <time>2023-11-05T10:56:40Z</time>
      </trkpt>
      <trkpt lat="43.49865" lon="6.6297">
        <ele>30.7</ele>
        <time>2023-11-05T10:56:41Z</time>
      </trkpt>
      <trkpt lat="43.49864" lon="6.6297">
        <ele>30.7</ele>
        <time>2023-11-05T10:56:42Z</time>
      </trkpt>
      <trkpt lat="43.49862" lon="6.62969">
        <ele>30.7</ele>
        <time>2023-11-05T10:56:43Z</time>
      </trkpt>
      <trkpt lat="43.49861" lon="6.62968">
        <ele>30.6</ele>
        <time>2023-11-05T10:56:44Z</time>
      </trkpt>
      <trkpt lat="43.4986" lon="6.62967">
        <ele>30.5</ele>
        <time>2023-11-05T10:56:45Z</time>
      </trkpt>
      <trkpt lat="43.49859" lon="6.62967">
        <ele>30.5</ele>
        <time>2023-11-05T10:56:46Z</time>
      </trkpt>
      <trkpt lat="43.49858" lon="6.62966">
        <ele>30.4</ele>
        <time>2023-11-05T10:56:47Z</time>
      </trkpt>
      <trkpt lat="43.49857" lon="6.62967">
        <ele>30.3</ele>
        <time>2023-11-05T10:56:48Z</time>
      </trkpt>
      <trkpt lat="43.49856" lon="6.62966">
        <ele>30.2</ele>
        <time>2023-11-05T10:56:49Z</time>
      </trkpt>
      <trkpt lat="43.49855" lon="6.62966">
        <ele>30.2</ele>
        <time>2023-11-05T10:56:50Z</time>
      </trkpt>
      <trkpt lat="43.49854" lon="6.62966">
        <ele>30.2</ele>
        <time>2023-11-05T10:56:51Z</time>
      </trkpt>
      <trkpt lat="43.49853" lon="6.62966">
        <ele>30.1</ele>
        <time>2023-11-05T10:56:52Z</time>
      </trkpt>
      <trkpt lat="43.49852" lon="6.62966">
        <ele>30</ele>
        <time>2023-11-05T10:56:53Z</time>
      </trkpt>
      <trkpt lat="43.49851" lon="6.62965">
        <ele>30</ele>
        <time>2023-11-05T10:56:54Z</time>
      </trkpt>
      <trkpt lat="43.4985" lon="6.62965">
        <ele>29.8</ele>
        <time>2023-11-05T10:56:55Z</time>
      </trkpt>
      <trkpt lat="43.49848" lon="6.62965">
        <ele>29.8</ele>
        <time>2023-11-05T10:56:56Z</time>
      </trkpt>
      <trkpt lat="43.49847" lon="6.62965">
        <ele>29.7</ele>
        <time>2023-11-05T10:56:57Z</time>
      </trkpt>
      <trkpt lat="43.49846" lon="6.62965">
        <ele>29.6</ele>
        <time>2023-11-05T10:56:58Z</time>
      </trkpt>
      <trkpt lat="43.49845" lon="6.62964">
        <ele>29.6</ele>
        <time>2023-11-05T10:56:59Z</time>
      </trkpt>
      <trkpt lat="43.49844" lon="6.62964">
        <ele>29.5</ele>
        <time>2023-11-05T10:57:00Z</time>
      </trkpt>
      <trkpt lat="43.49842" lon="6.62963">
        <ele>29.5</ele>
        <time>2023-11-05T10:57:01Z</time>
      </trkpt>
      <trkpt lat="43.49841" lon="6.62962">
        <ele>29.4</ele>
        <time>2023-11-05T10:57:02Z</time>
      </trkpt>
      <trkpt lat="43.4984" lon="6.62962">
        <ele>29.3</ele>
        <time>2023-11-05T10:57:03Z</time>
      </trkpt>
      <trkpt lat="43.49838" lon="6.62962">
        <ele>29.1</ele>
        <time>2023-11-05T10:57:04Z</time>
      </trkpt>
      <trkpt lat="43.49837" lon="6.62961">
        <ele>28.9</ele>
        <time>2023-11-05T10:57:05Z</time>
      </trkpt>
      <trkpt lat="43.49836" lon="6.62961">
        <ele>28.9</ele>
        <time>2023-11-05T10:57:06Z</time>
      </trkpt>
      <trkpt lat="43.49835" lon="6.62961">
        <ele>28.8</ele>
        <time>2023-11-05T10:57:07Z</time>
      </trkpt>
      <trkpt lat="43.49833" lon="6.6296">
        <ele>28.9</ele>
        <time>2023-11-05T10:57:08Z</time>
      </trkpt>
      <trkpt lat="43.49832" lon="6.62959">
        <ele>28.9</ele>
        <time>2023-11-05T10:57:09Z</time>
      </trkpt>
      <trkpt lat="43.49831" lon="6.62959">
        <ele>29</ele>
        <time>2023-11-05T10:57:10Z</time>
      </trkpt>
      <trkpt lat="43.4983" lon="6.62958">
        <ele>29.1</ele>
        <time>2023-11-05T10:57:11Z</time>
      </trkpt>
      <trkpt lat="43.49829" lon="6.62958">
        <ele>29.1</ele>
        <time>2023-11-05T10:57:12Z</time>
      </trkpt>
      <trkpt lat="43.49828" lon="6.62958">
        <ele>29.2</ele>
        <time>2023-11-05T10:57:13Z</time>
      </trkpt>
      <trkpt lat="43.49827" lon="6.62958">
        <ele>29.2</ele>
        <time>2023-11-05T10:57:14Z</time>
      </trkpt>
      <trkpt lat="43.49826" lon="6.62957">
        <ele>29.3</ele>
        <time>2023-11-05T10:57:15Z</time>
      </trkpt>
      <trkpt lat="43.49825" lon="6.62957">
        <ele>29.2</ele>
        <time>2023-11-05T10:57:16Z</time>
      </trkpt>
      <trkpt lat="43.49824" lon="6.62957">
        <ele>29.2</ele>
        <time>2023-11-05T10:57:17Z</time>
      </trkpt>
      <trkpt lat="43.49822" lon="6.62957">
        <ele>29.1</ele>
        <time>2023-11-05T10:57:18Z</time>
      </trkpt>
      <trkpt lat="43.49821" lon="6.62958">
        <ele>29</ele>
        <time>2023-11-05T10:57:19Z</time>
      </trkpt>
      <trkpt lat="43.4982" lon="6.62958">
        <ele>28.9</ele>
        <time>2023-11-05T10:57:20Z</time>
      </trkpt>
      <trkpt lat="43.49819" lon="6.62958">
        <ele>28.8</ele>
        <time>2023-11-05T10:57:21Z</time>
      </trkpt>
      <trkpt lat="43.49818" lon="6.62959">
        <ele>28.7</ele>
        <time>2023-11-05T10:57:22Z</time>
      </trkpt>
      <trkpt lat="43.49817" lon="6.62959">
        <ele>28.6</ele>
        <time>2023-11-05T10:57:23Z</time>
      </trkpt>
      <trkpt lat="43.49816" lon="6.6296">
        <ele>28.4</ele>
        <time>2023-11-05T10:57:24Z</time>
      </trkpt>
      <trkpt lat="43.49815" lon="6.6296">
        <ele>28.2</ele>
        <time>2023-11-05T10:57:25Z</time>
      </trkpt>
      <trkpt lat="43.49814" lon="6.62961">
        <ele>28.1</ele>
        <time>2023-11-05T10:57:26Z</time>
      </trkpt>
      <trkpt lat="43.49812" lon="6.62961">
        <ele>28</ele>
        <time>2023-11-05T10:57:27Z</time>
      </trkpt>
      <trkpt lat="43.49811" lon="6.62961">
        <ele>28.1</ele>
        <time>2023-11-05T10:57:28Z</time>
      </trkpt>
      <trkpt lat="43.4981" lon="6.62961">
        <ele>28.1</ele>
        <time>2023-11-05T10:57:29Z</time>
      </trkpt>
      <trkpt lat="43.49809" lon="6.62962">
        <ele>28</ele>
        <time>2023-11-05T10:57:30Z</time>
      </trkpt>
      <trkpt lat="43.49808" lon="6.62962">
        <ele>27.9</ele>
        <time>2023-11-05T10:57:31Z</time>
      </trkpt>
      <trkpt lat="43.49807" lon="6.62963">
        <ele>27.8</ele>
        <time>2023-11-05T10:57:32Z</time>
      </trkpt>
      <trkpt lat="43.49806" lon="6.62963">
        <ele>27.8</ele>
        <time>2023-11-05T10:57:33Z</time>
      </trkpt>
      <trkpt lat="43.49805" lon="6.62964">
        <ele>27.6</ele>
        <time>2023-11-05T10:57:34Z</time>
      </trkpt>
      <trkpt lat="43.49804" lon="6.62964">
        <ele>27.5</ele>
        <time>2023-11-05T10:57:35Z</time>
      </trkpt>
      <trkpt lat="43.49803" lon="6.62964">
        <ele>27.4</ele>
        <time>2023-11-05T10:57:36Z</time>
      </trkpt>
      <trkpt lat="43.49802" lon="6.62964">
        <ele>27.3</ele>
        <time>2023-11-05T10:57:37Z</time>
      </trkpt>
      <trkpt lat="43.49801" lon="6.62964">
        <ele>27.3</ele>
        <time>2023-11-05T10:57:38Z</time>
      </trkpt>
      <trkpt lat="43.498" lon="6.62964">
        <ele>27.3</ele>
        <time>2023-11-05T10:57:39Z</time>
      </trkpt>
      <trkpt lat="43.49799" lon="6.62964">
        <ele>27.4</ele>
        <time>2023-11-05T10:57:40Z</time>
      </trkpt>
      <trkpt lat="43.49798" lon="6.62964">
        <ele>27.4</ele>
        <time>2023-11-05T10:57:41Z</time>
      </trkpt>
      <trkpt lat="43.49796" lon="6.62964">
        <ele>27.5</ele>
        <time>2023-11-05T10:57:42Z</time>
      </trkpt>
      <trkpt lat="43.49795" lon="6.62965">
        <ele>27.6</ele>
        <time>2023-11-05T10:57:43Z</time>
      </trkpt>
      <trkpt lat="43.49794" lon="6.62965">
        <ele>27.6</ele>
        <time>2023-11-05T10:57:44Z</time>
      </trkpt>
      <trkpt lat="43.49793" lon="6.62965">
        <ele>27.8</ele>
        <time>2023-11-05T10:57:45Z</time>
      </trkpt>
      <trkpt lat="43.49792" lon="6.62965">
        <ele>27.9</ele>
        <time>2023-11-05T10:57:46Z</time>
      </trkpt>
      <trkpt lat="43.49791" lon="6.62965">
        <ele>27.9</ele>
        <time>2023-11-05T10:57:47Z</time>
      </trkpt>
      <trkpt lat="43.4979" lon="6.62966">
        <ele>27.9</ele>
        <time>2023-11-05T10:57:48Z</time>
      </trkpt>
      <trkpt lat="43.49789" lon="6.62966">
        <ele>27.9</ele>
        <time>2023-11-05T10:57:49Z</time>
      </trkpt>
      <trkpt lat="43.49788" lon="6.62966">
        <ele>27.8</ele>
        <time>2023-11-05T10:57:50Z</time>
      </trkpt>
      <trkpt lat="43.49787" lon="6.62966">
        <ele>27.8</ele>
        <time>2023-11-05T10:57:51Z</time>
      </trkpt>
      <trkpt lat="43.49786" lon="6.62966">
        <ele>27.8</ele>
        <time>2023-11-05T10:57:52Z</time>
      </trkpt>
      <trkpt lat="43.49785" lon="6.62967">
        <ele>27.7</ele>
        <time>2023-11-05T10:57:53Z</time>
      </trkpt>
      <trkpt lat="43.49783" lon="6.62967">
        <ele>27.5</ele>
        <time>2023-11-05T10:57:54Z</time>
      </trkpt>
      <trkpt lat="43.49782" lon="6.62967">
        <ele>27.4</ele>
        <time>2023-11-05T10:57:55Z</time>
      </trkpt>
      <trkpt lat="43.49781" lon="6.62967">
        <ele>27.2</ele>
        <time>2023-11-05T10:57:56Z</time>
      </trkpt>
      <trkpt lat="43.4978" lon="6.62968">
        <ele>27.1</ele>
        <time>2023-11-05T10:57:57Z</time>
      </trkpt>
      <trkpt lat="43.49779" lon="6.62968">
        <ele>27</ele>
        <time>2023-11-05T10:57:58Z</time>
      </trkpt>
      <trkpt lat="43.49778" lon="6.62968">
        <ele>26.9</ele>
        <time>2023-11-05T10:57:59Z</time>
      </trkpt>
      <trkpt lat="43.49777" lon="6.62967">
        <ele>26.9</ele>
        <time>2023-11-05T10:58:00Z</time>
      </trkpt>
      <trkpt lat="43.49776" lon="6.62967">
        <ele>26.9</ele>
        <time>2023-11-05T10:58:01Z</time>
      </trkpt>
      <trkpt lat="43.49775" lon="6.62966">
        <ele>26.8</ele>
        <time>2023-11-05T10:58:02Z</time>
      </trkpt>
      <trkpt lat="43.49774" lon="6.62966">
        <ele>26.8</ele>
        <time>2023-11-05T10:58:03Z</time>
      </trkpt>
      <trkpt lat="43.49773" lon="6.62965">
        <ele>26.7</ele>
        <time>2023-11-05T10:58:04Z</time>
      </trkpt>
      <trkpt lat="43.49773" lon="6.62965">
        <ele>26.6</ele>
        <time>2023-11-05T10:58:05Z</time>
      </trkpt>
      <trkpt lat="43.49772" lon="6.62964">
        <ele>26.6</ele>
        <time>2023-11-05T10:58:06Z</time>
      </trkpt>
      <trkpt lat="43.49771" lon="6.62964">
        <ele>26.4</ele>
        <time>2023-11-05T10:58:07Z</time>
      </trkpt>
      <trkpt lat="43.4977" lon="6.62963">
        <ele>26.3</ele>
        <time>2023-11-05T10:58:08Z</time>
      </trkpt>
      <trkpt lat="43.49769" lon="6.62963">
        <ele>26.2</ele>
        <time>2023-11-05T10:58:09Z</time>
      </trkpt>
      <trkpt lat="43.49768" lon="6.62962">
        <ele>26.2</ele>
        <time>2023-11-05T10:58:10Z</time>
      </trkpt>
      <trkpt lat="43.49767" lon="6.62962">
        <ele>26</ele>
        <time>2023-11-05T10:58:11Z</time>
      </trkpt>
      <trkpt lat="43.49766" lon="6.62961">
        <ele>25.9</ele>
        <time>2023-11-05T10:58:12Z</time>
      </trkpt>
      <trkpt lat="43.49765" lon="6.62961">
        <ele>25.8</ele>
        <time>2023-11-05T10:58:13Z</time>
      </trkpt>
      <trkpt lat="43.49764" lon="6.62961">
        <ele>25.7</ele>
        <time>2023-11-05T10:58:14Z</time>
      </trkpt>
      <trkpt lat="43.49762" lon="6.6296">
        <ele>25.6</ele>
        <time>2023-11-05T10:58:15Z</time>
      </trkpt>
      <trkpt lat="43.49761" lon="6.62959">
        <ele>25.6</ele>
        <time>2023-11-05T10:58:16Z</time>
      </trkpt>
      <trkpt lat="43.4976" lon="6.62958">
        <ele>25.6</ele>
        <time>2023-11-05T10:58:17Z</time>
      </trkpt>
      <trkpt lat="43.49759" lon="6.62958">
        <ele>25.6</ele>
        <time>2023-11-05T10:58:18Z</time>
      </trkpt>
      <trkpt lat="43.49758" lon="6.62958">
        <ele>25.5</ele>
        <time>2023-11-05T10:58:19Z</time>
      </trkpt>
      <trkpt lat="43.49757" lon="6.62958">
        <ele>25.5</ele>
        <time>2023-11-05T10:58:20Z</time>
      </trkpt>
      <trkpt lat="43.49756" lon="6.62958">
        <ele>25.4</ele>
        <time>2023-11-05T10:58:21Z</time>
      </trkpt>
      <trkpt lat="43.49755" lon="6.62957">
        <ele>25.4</ele>
        <time>2023-11-05T10:58:22Z</time>
      </trkpt>
      <trkpt lat="43.49754" lon="6.62957">
        <ele>25.4</ele>
        <time>2023-11-05T10:58:23Z</time>
      </trkpt>
      <trkpt lat="43.49753" lon="6.62956">
        <ele>25.5</ele>
        <time>2023-11-05T10:58:24Z</time>
      </trkpt>
      <trkpt lat="43.49752" lon="6.62955">
        <ele>25.5</ele>
        <time>2023-11-05T10:58:25Z</time>
      </trkpt>
      <trkpt lat="43.49751" lon="6.62955">
        <ele>25.5</ele>
        <time>2023-11-05T10:58:26Z</time>
      </trkpt>
      <trkpt lat="43.4975" lon="6.62954">
        <ele>25.4</ele>
        <time>2023-11-05T10:58:27Z</time>
      </trkpt>
      <trkpt lat="43.49749" lon="6.62953">
        <ele>25.4</ele>
        <time>2023-11-05T10:58:28Z</time>
      </trkpt>
      <trkpt lat="43.49748" lon="6.62952">
        <ele>25.3</ele>
        <time>2023-11-05T10:58:29Z</time>
      </trkpt>
      <trkpt lat="43.49747" lon="6.62952">
        <ele>25.2</ele>
        <time>2023-11-05T10:58:30Z</time>
      </trkpt>
      <trkpt lat="43.49746" lon="6.62951">
        <ele>25.3</ele>
        <time>2023-11-05T10:58:31Z</time>
      </trkpt>
      <trkpt lat="43.49746" lon="6.6295">
        <ele>25.2</ele>
        <time>2023-11-05T10:58:32Z</time>
      </trkpt>
      <trkpt lat="43.49746" lon="6.62949">
        <ele>25.1</ele>
        <time>2023-11-05T10:58:33Z</time>
      </trkpt>
      <trkpt lat="43.49745" lon="6.62948">
        <ele>25.1</ele>
        <time>2023-11-05T10:58:34Z</time>
      </trkpt>
      <trkpt lat="43.49745" lon="6.62947">
        <ele>25</ele>
        <time>2023-11-05T10:58:35Z</time>
      </trkpt>
      <trkpt lat="43.49744" lon="6.62946">
        <ele>24.9</ele>
        <time>2023-11-05T10:58:36Z</time>
      </trkpt>
      <trkpt lat="43.49744" lon="6.62944">
        <ele>24.8</ele>
        <time>2023-11-05T10:58:37Z</time>
      </trkpt>
      <trkpt lat="43.49743" lon="6.62943">
        <ele>24.7</ele>
        <time>2023-11-05T10:58:38Z</time>
      </trkpt>
      <trkpt lat="43.49742" lon="6.62942">
        <ele>24.7</ele>
        <time>2023-11-05T10:58:39Z</time>
      </trkpt>
      <trkpt lat="43.49741" lon="6.62941">
        <ele>24.6</ele>
        <time>2023-11-05T10:58:40Z</time>
      </trkpt>
      <trkpt lat="43.49741" lon="6.6294">
        <ele>24.6</ele>
        <time>2023-11-05T10:58:41Z</time>
      </trkpt>
      <trkpt lat="43.49741" lon="6.62938">
        <ele>24.6</ele>
        <time>2023-11-05T10:58:42Z</time>
      </trkpt>
      <trkpt lat="43.4974" lon="6.62936">
        <ele>24.6</ele>
        <time>2023-11-05T10:58:43Z</time>
      </trkpt>
      <trkpt lat="43.4974" lon="6.62935">
        <ele>24.7</ele>
        <time>2023-11-05T10:58:44Z</time>
      </trkpt>
      <trkpt lat="43.49739" lon="6.62934">
        <ele>24.7</ele>
        <time>2023-11-05T10:58:45Z</time>
      </trkpt>
      <trkpt lat="43.49738" lon="6.62932">
        <ele>24.8</ele>
        <time>2023-11-05T10:58:46Z</time>
      </trkpt>
      <trkpt lat="43.49737" lon="6.6293">
        <ele>24.9</ele>
        <time>2023-11-05T10:58:47Z</time>
      </trkpt>
      <trkpt lat="43.49737" lon="6.62929">
        <ele>24.9</ele>
        <time>2023-11-05T10:58:48Z</time>
      </trkpt>
      <trkpt lat="43.49736" lon="6.62927">
        <ele>25</ele>
        <time>2023-11-05T10:58:49Z</time>
      </trkpt>
      <trkpt lat="43.49735" lon="6.62926">
        <ele>25.1</ele>
        <time>2023-11-05T10:58:50Z</time>
      </trkpt>
      <trkpt lat="43.49734" lon="6.62924">
        <ele>25.3</ele>
        <time>2023-11-05T10:58:51Z</time>
      </trkpt>
      <trkpt lat="43.49734" lon="6.62922">
        <ele>25.4</ele>
        <time>2023-11-05T10:58:52Z</time>
      </trkpt>
      <trkpt lat="43.49733" lon="6.62921">
        <ele>25.5</ele>
        <time>2023-11-05T10:58:53Z</time>
      </trkpt>
      <trkpt lat="43.49731" lon="6.62919">
        <ele>25.6</ele>
        <time>2023-11-05T10:58:54Z</time>
      </trkpt>
      <trkpt lat="43.4973" lon="6.62918">
        <ele>25.6</ele>
        <time>2023-11-05T10:58:55Z</time>
      </trkpt>
      <trkpt lat="43.49729" lon="6.62916">
        <ele>25.6</ele>
        <time>2023-11-05T10:58:56Z</time>
      </trkpt>
      <trkpt lat="43.49728" lon="6.62915">
        <ele>25.6</ele>
        <time>2023-11-05T10:58:57Z</time>
      </trkpt>
      <trkpt lat="43.49727" lon="6.62914">
        <ele>25.8</ele>
        <time>2023-11-05T10:58:58Z</time>
      </trkpt>
      <trkpt lat="43.49726" lon="6.62913">
        <ele>25.8</ele>
        <time>2023-11-05T10:58:59Z</time>
      </trkpt>
      <trkpt lat="43.49725" lon="6.62912">
        <ele>25.8</ele>
        <time>2023-11-05T10:59:00Z</time>
      </trkpt>
      <trkpt lat="43.49723" lon="6.62911">
        <ele>25.7</ele>
        <time>2023-11-05T10:59:01Z</time>
      </trkpt>
      <trkpt lat="43.49722" lon="6.62911">
        <ele>25.6</ele>
        <time>2023-11-05T10:59:02Z</time>
      </trkpt>
      <trkpt lat="43.49721" lon="6.6291">
        <ele>25.6</ele>
        <time>2023-11-05T10:59:03Z</time>
      </trkpt>
      <trkpt lat="43.4972" lon="6.6291">
        <ele>25.5</ele>
        <time>2023-11-05T10:59:04Z</time>
      </trkpt>
      <trkpt lat="43.49719" lon="6.62909">
        <ele>25.4</ele>
        <time>2023-11-05T10:59:05Z</time>
      </trkpt>
      <trkpt lat="43.49718" lon="6.62908">
        <ele>25.3</ele>
        <time>2023-11-05T10:59:06Z</time>
      </trkpt>
      <trkpt lat="43.49717" lon="6.62907">
        <ele>25.2</ele>
        <time>2023-11-05T10:59:07Z</time>
      </trkpt>
      <trkpt lat="43.49716" lon="6.62906">
        <ele>25.2</ele>
        <time>2023-11-05T10:59:08Z</time>
      </trkpt>
      <trkpt lat="43.49714" lon="6.62906">
        <ele>25.1</ele>
        <time>2023-11-05T10:59:09Z</time>
      </trkpt>
      <trkpt lat="43.49713" lon="6.62905">
        <ele>25.1</ele>
        <time>2023-11-05T10:59:10Z</time>
      </trkpt>
      <trkpt lat="43.49712" lon="6.62905">
        <ele>24.8</ele>
        <time>2023-11-05T10:59:11Z</time>
      </trkpt>
      <trkpt lat="43.49711" lon="6.62904">
        <ele>24.6</ele>
        <time>2023-11-05T10:59:12Z</time>
      </trkpt>
      <trkpt lat="43.49709" lon="6.62904">
        <ele>24.5</ele>
        <time>2023-11-05T10:59:13Z</time>
      </trkpt>
      <trkpt lat="43.49708" lon="6.62904">
        <ele>24.4</ele>
        <time>2023-11-05T10:59:14Z</time>
      </trkpt>
      <trkpt lat="43.49708" lon="6.62904">
        <ele>24.2</ele>
        <time>2023-11-05T10:59:15Z</time>
      </trkpt>
      <trkpt lat="43.49707" lon="6.62903">
        <ele>24.2</ele>
        <time>2023-11-05T10:59:16Z</time>
      </trkpt>
      <trkpt lat="43.49706" lon="6.62903">
        <ele>24.1</ele>
        <time>2023-11-05T10:59:17Z</time>
      </trkpt>
      <trkpt lat="43.49705" lon="6.62902">
        <ele>23.9</ele>
        <time>2023-11-05T10:59:18Z</time>
      </trkpt>
      <trkpt lat="43.49704" lon="6.62901">
        <ele>23.7</ele>
        <time>2023-11-05T10:59:19Z</time>
      </trkpt>
      <trkpt lat="43.49703" lon="6.629">
        <ele>23.6</ele>
        <time>2023-11-05T10:59:20Z</time>
      </trkpt>
      <trkpt lat="43.49702" lon="6.629">
        <ele>23.5</ele>
        <time>2023-11-05T10:59:21Z</time>
      </trkpt>
      <trkpt lat="43.49701" lon="6.62899">
        <ele>23.5</ele>
        <time>2023-11-05T10:59:22Z</time>
      </trkpt>
      <trkpt lat="43.497" lon="6.62899">
        <ele>23.4</ele>
        <time>2023-11-05T10:59:23Z</time>
      </trkpt>
      <trkpt lat="43.49699" lon="6.62898">
        <ele>23.3</ele>
        <time>2023-11-05T10:59:24Z</time>
      </trkpt>
      <trkpt lat="43.49698" lon="6.62897">
        <ele>23.1</ele>
        <time>2023-11-05T10:59:25Z</time>
      </trkpt>
      <trkpt lat="43.49697" lon="6.62896">
        <ele>23.1</ele>
        <time>2023-11-05T10:59:26Z</time>
      </trkpt>
      <trkpt lat="43.49696" lon="6.62895">
        <ele>23.1</ele>
        <time>2023-11-05T10:59:27Z</time>
      </trkpt>
      <trkpt lat="43.49695" lon="6.62894">
        <ele>23.1</ele>
        <time>2023-11-05T10:59:28Z</time>
      </trkpt>
      <trkpt lat="43.49694" lon="6.62893">
        <ele>22.9</ele>
        <time>2023-11-05T10:59:29Z</time>
      </trkpt>
      <trkpt lat="43.49693" lon="6.62892">
        <ele>22.8</ele>
        <time>2023-11-05T10:59:30Z</time>
      </trkpt>
      <trkpt lat="43.49692" lon="6.62891">
        <ele>22.6</ele>
        <time>2023-11-05T10:59:31Z</time>
      </trkpt>
      <trkpt lat="43.49691" lon="6.6289">
        <ele>22.5</ele>
        <time>2023-11-05T10:59:32Z</time>
      </trkpt>
      <trkpt lat="43.4969" lon="6.62889">
        <ele>22.5</ele>
        <time>2023-11-05T10:59:33Z</time>
      </trkpt>
      <trkpt lat="43.49689" lon="6.62889">
        <ele>22.6</ele>
        <time>2023-11-05T10:59:34Z</time>
      </trkpt>
      <trkpt lat="43.49689" lon="6.62888">
        <ele>22.6</ele>
        <time>2023-11-05T10:59:35Z</time>
      </trkpt>
      <trkpt lat="43.49689" lon="6.62887">
        <ele>22.6</ele>
        <time>2023-11-05T10:59:36Z</time>
      </trkpt>
      <trkpt lat="43.49688" lon="6.62888">
        <ele>22.5</ele>
        <time>2023-11-05T10:59:37Z</time>
      </trkpt>
      <trkpt lat="43.49688" lon="6.62888">
        <ele>22.4</ele>
        <time>2023-11-05T10:59:38Z</time>
      </trkpt>
      <trkpt lat="43.49688" lon="6.62888">
        <ele>22.4</ele>
        <time>2023-11-05T10:59:39Z</time>
      </trkpt>
      <trkpt lat="43.49688" lon="6.62888">
        <ele>22.3</ele>
        <time>2023-11-05T10:59:40Z</time>
      </trkpt>
      <trkpt lat="43.49687" lon="6.62887">
        <ele>22.2</ele>
        <time>2023-11-05T10:59:41Z</time>
      </trkpt>
      <trkpt lat="43.49686" lon="6.62886">
        <ele>22.1</ele>
        <time>2023-11-05T10:59:42Z</time>
      </trkpt>
      <trkpt lat="43.49686" lon="6.62886">
        <ele>22</ele>
        <time>2023-11-05T10:59:43Z</time>
      </trkpt>
      <trkpt lat="43.49686" lon="6.62886">
        <ele>22</ele>
        <time>2023-11-05T10:59:44Z</time>
      </trkpt>
      <trkpt lat="43.49686" lon="6.62887">
        <ele>21.9</ele>
        <time>2023-11-05T10:59:45Z</time>
      </trkpt>
      <trkpt lat="43.49686" lon="6.62887">
        <ele>21.9</ele>
        <time>2023-11-05T10:59:46Z</time>
      </trkpt>
      <trkpt lat="43.49686" lon="6.62887">
        <ele>21.9</ele>
        <time>2023-11-05T10:59:47Z</time>
      </trkpt>
      <trkpt lat="43.49686" lon="6.62887">
        <ele>21.8</ele>
        <time>2023-11-05T10:59:48Z</time>
      </trkpt>
      <trkpt lat="43.49685" lon="6.62887">
        <ele>21.8</ele>
        <time>2023-11-05T10:59:49Z</time>
      </trkpt>
      <trkpt lat="43.49685" lon="6.62887">
        <ele>21.8</ele>
        <time>2023-11-05T10:59:50Z</time>
      </trkpt>
      <trkpt lat="43.49685" lon="6.62887">
        <ele>21.8</ele>
        <time>2023-11-05T10:59:51Z</time>
      </trkpt>
      <trkpt lat="43.49685" lon="6.62887">
        <ele>21.7</ele>
        <time>2023-11-05T10:59:52Z</time>
      </trkpt>
      <trkpt lat="43.49685" lon="6.62887">
        <ele>21.8</ele>
        <time>2023-11-05T10:59:53Z</time>
      </trkpt>
      <trkpt lat="43.49684" lon="6.62887">
        <ele>21.8</ele>
        <time>2023-11-05T10:59:54Z</time>
      </trkpt>
      <trkpt lat="43.49684" lon="6.62886">
        <ele>21.8</ele>
        <time>2023-11-05T10:59:55Z</time>
      </trkpt>
      <trkpt lat="43.49684" lon="6.62886">
        <ele>21.8</ele>
        <time>2023-11-05T10:59:56Z</time>
      </trkpt>
      <trkpt lat="43.49684" lon="6.62886">
        <ele>22</ele>
        <time>2023-11-05T10:59:57Z</time>
      </trkpt>
      <trkpt lat="43.49684" lon="6.62887">
        <ele>22</ele>
        <time>2023-11-05T10:59:58Z</time>
      </trkpt>
      <trkpt lat="43.49684" lon="6.62887">
        <ele>22</ele>
        <time>2023-11-05T10:59:59Z</time>
      </trkpt>
      <trkpt lat="43.49684" lon="6.62887">
        <ele>22.1</ele>
        <time>2023-11-05T11:00:00Z</time>
      </trkpt>
      <trkpt lat="43.49684" lon="6.62887">
        <ele>22.1</ele>
        <time>2023-11-05T11:00:01Z</time>
      </trkpt>
      <trkpt lat="43.49684" lon="6.62887">
        <ele>22</ele>
        <time>2023-11-05T11:00:02Z</time>
      </trkpt>
      <trkpt lat="43.49684" lon="6.62887">
        <ele>22.1</ele>
        <time>2023-11-05T11:00:03Z</time>
      </trkpt>
      <trkpt lat="43.49684" lon="6.62887">
        <ele>22.1</ele>
        <time>2023-11-05T11:00:04Z</time>
      </trkpt>
      <trkpt lat="43.49684" lon="6.62887">
        <ele>22.1</ele>
        <time>2023-11-05T11:00:05Z</time>
      </trkpt>
      <trkpt lat="43.49684" lon="6.62887">
        <ele>22.2</ele>
        <time>2023-11-05T11:00:06Z</time>
      </trkpt>
      <trkpt lat="43.49683" lon="6.62886">
        <ele>22.3</ele>
        <time>2023-11-05T11:00:07Z</time>
      </trkpt>
      <trkpt lat="43.49683" lon="6.62886">
        <ele>22.2</ele>
        <time>2023-11-05T11:00:08Z</time>
      </trkpt>
      <trkpt lat="43.49683" lon="6.62886">
        <ele>22.2</ele>
        <time>2023-11-05T11:00:09Z</time>
      </trkpt>
      <trkpt lat="43.49683" lon="6.62886">
        <ele>22.1</ele>
        <time>2023-11-05T11:00:10Z</time>
      </trkpt>
      <trkpt lat="43.49683" lon="6.62886">
        <ele>22.1</ele>
        <time>2023-11-05T11:00:11Z</time>
      </trkpt>
      <trkpt lat="43.49682" lon="6.62886">
        <ele>22.1</ele>
        <time>2023-11-05T11:00:12Z</time>
      </trkpt>
      <trkpt lat="43.49682" lon="6.62886">
        <ele>22</ele>
        <time>2023-11-05T11:00:13Z</time>
      </trkpt>
      <trkpt lat="43.49682" lon="6.62887">
        <ele>22</ele>
        <time>2023-11-05T11:00:14Z</time>
      </trkpt>
      <trkpt lat="43.49682" lon="6.62887">
        <ele>22.1</ele>
        <time>2023-11-05T11:00:15Z</time>
      </trkpt>
      <trkpt lat="43.49682" lon="6.62887">
        <ele>22.1</ele>
        <time>2023-11-05T11:00:16Z</time>
      </trkpt>
      <trkpt lat="43.49682" lon="6.62888">
        <ele>22.2</ele>
        <time>2023-11-05T11:00:17Z</time>
      </trkpt>
      <trkpt lat="43.49681" lon="6.62888">
        <ele>22.2</ele>
        <time>2023-11-05T11:00:18Z</time>
      </trkpt>
      <trkpt lat="43.49681" lon="6.62888">
        <ele>22.2</ele>
        <time>2023-11-05T11:00:19Z</time>
      </trkpt>
      <trkpt lat="43.49681" lon="6.62888">
        <ele>22.2</ele>
        <time>2023-11-05T11:00:20Z</time>
      </trkpt>
      <trkpt lat="43.4968" lon="6.62888">
        <ele>22.2</ele>
        <time>2023-11-05T11:00:21Z</time>
      </trkpt>
      <trkpt lat="43.4968" lon="6.62888">
        <ele>22.2</ele>
        <time>2023-11-05T11:00:22Z</time>
      </trkpt>
      <trkpt lat="43.4968" lon="6.62888">
        <ele>22.2</ele>
        <time>2023-11-05T11:00:23Z</time>
      </trkpt>
      <trkpt lat="43.4968" lon="6.62888">
        <ele>22.1</ele>
        <time>2023-11-05T11:00:24Z</time>
      </trkpt>
      <trkpt lat="43.4968" lon="6.62888">
        <ele>22.1</ele>
        <time>2023-11-05T11:00:25Z</time>
      </trkpt>
      <trkpt lat="43.4968" lon="6.62888">
        <ele>22.1</ele>
        <time>2023-11-05T11:00:26Z</time>
      </trkpt>
      <trkpt lat="43.4968" lon="6.62888">
        <ele>22.2</ele>
        <time>2023-11-05T11:00:27Z</time>
      </trkpt>
      <trkpt lat="43.49679" lon="6.62889">
        <ele>22.2</ele>
        <time>2023-11-05T11:00:28Z</time>
      </trkpt>
      <trkpt lat="43.49679" lon="6.62889">
        <ele>22.3</ele>
        <time>2023-11-05T11:00:29Z</time>
      </trkpt>
      <trkpt lat="43.49679" lon="6.62889">
        <ele>22.3</ele>
        <time>2023-11-05T11:00:30Z</time>
      </trkpt>
      <trkpt lat="43.49679" lon="6.62889">
        <ele>22.3</ele>
        <time>2023-11-05T11:00:31Z</time>
      </trkpt>
      <trkpt lat="43.49678" lon="6.6289">
        <ele>22.2</ele>
        <time>2023-11-05T11:00:32Z</time>
      </trkpt>
      <trkpt lat="43.49678" lon="6.6289">
        <ele>22.2</ele>
        <time>2023-11-05T11:00:33Z</time>
      </trkpt>
      <trkpt lat="43.49678" lon="6.6289">
        <ele>22.2</ele>
        <time>2023-11-05T11:00:34Z</time>
      </trkpt>
      <trkpt lat="43.49678" lon="6.6289">
        <ele>22.2</ele>
        <time>2023-11-05T11:00:35Z</time>
      </trkpt>
      <trkpt lat="43.49678" lon="6.6289">
        <ele>22.2</ele>
        <time>2023-11-05T11:00:36Z</time>
      </trkpt>
      <trkpt lat="43.49678" lon="6.6289">
        <ele>22.3</ele>
        <time>2023-11-05T11:00:37Z</time>
      </trkpt>
      <trkpt lat="43.49677" lon="6.6289">
        <ele>22.3</ele>
        <time>2023-11-05T11:00:38Z</time>
      </trkpt>
      <trkpt lat="43.49677" lon="6.6289">
        <ele>22.4</ele>
        <time>2023-11-05T11:00:39Z</time>
      </trkpt>
      <trkpt lat="43.49677" lon="6.62891">
        <ele>22.4</ele>
        <time>2023-11-05T11:00:40Z</time>
      </trkpt>
      <trkpt lat="43.49677" lon="6.62891">
        <ele>22.4</ele>
        <time>2023-11-05T11:00:41Z</time>
      </trkpt>
      <trkpt lat="43.49677" lon="6.6289">
        <ele>22.5</ele>
        <time>2023-11-05T11:00:42Z</time>
      </trkpt>
      <trkpt lat="43.49677" lon="6.62891">
        <ele>22.5</ele>
        <time>2023-11-05T11:00:43Z</time>
      </trkpt>
      <trkpt lat="43.49677" lon="6.6289">
        <ele>22.6</ele>
        <time>2023-11-05T11:00:44Z</time>
      </trkpt>
      <trkpt lat="43.49677" lon="6.6289">
        <ele>22.6</ele>
        <time>2023-11-05T11:00:45Z</time>
      </trkpt>
      <trkpt lat="43.49677" lon="6.6289">
        <ele>22.6</ele>
        <time>2023-11-05T11:00:46Z</time>
      </trkpt>
      <trkpt lat="43.49677" lon="6.6289">
        <ele>22.6</ele>
        <time>2023-11-05T11:00:47Z</time>
      </trkpt>
      <trkpt lat="43.49676" lon="6.62891">
        <ele>22.6</ele>
        <time>2023-11-05T11:00:48Z</time>
      </trkpt>
      <trkpt lat="43.49676" lon="6.62891">
        <ele>22.5</ele>
        <time>2023-11-05T11:00:49Z</time>
      </trkpt>
      <trkpt lat="43.49676" lon="6.62891">
        <ele>22.5</ele>
        <time>2023-11-05T11:00:50Z</time>
      </trkpt>
      <trkpt lat="43.49676" lon="6.62891">
        <ele>22.5</ele>
        <time>2023-11-05T11:00:51Z</time>
      </trkpt>
      <trkpt lat="43.49676" lon="6.62891">
        <ele>22.4</ele>
        <time>2023-11-05T11:00:52Z</time>
      </trkpt>
      <trkpt lat="43.49675" lon="6.62891">
        <ele>22.4</ele>
        <time>2023-11-05T11:00:53Z</time>
      </trkpt>
      <trkpt lat="43.49675" lon="6.62891">
        <ele>22.3</ele>
        <time>2023-11-05T11:00:54Z</time>
      </trkpt>
      <trkpt lat="43.49675" lon="6.62891">
        <ele>22.3</ele>
        <time>2023-11-05T11:00:55Z</time>
      </trkpt>
      <trkpt lat="43.49675" lon="6.62891">
        <ele>22.3</ele>
        <time>2023-11-05T11:00:56Z</time>
      </trkpt>
      <trkpt lat="43.49675" lon="6.62891">
        <ele>22.3</ele>
        <time>2023-11-05T11:00:57Z</time>
      </trkpt>
      <trkpt lat="43.49675" lon="6.62891">
        <ele>22.3</ele>
        <time>2023-11-05T11:00:58Z</time>
      </trkpt>
      <trkpt lat="43.49675" lon="6.62891">
        <ele>22.3</ele>
        <time>2023-11-05T11:00:59Z</time>
      </trkpt>
      <trkpt lat="43.49675" lon="6.62892">
        <ele>22.3</ele>
        <time>2023-11-05T11:01:00Z</time>
      </trkpt>
      <trkpt lat="43.49675" lon="6.62892">
        <ele>22.3</ele>
        <time>2023-11-05T11:01:01Z</time>
      </trkpt>
      <trkpt lat="43.49675" lon="6.62892">
        <ele>22.3</ele>
        <time>2023-11-05T11:01:02Z</time>
      </trkpt>
      <trkpt lat="43.49676" lon="6.62892">
        <ele>22.4</ele>
        <time>2023-11-05T11:01:03Z</time>
      </trkpt>
      <trkpt lat="43.49676" lon="6.62892">
        <ele>22.5</ele>
        <time>2023-11-05T11:01:04Z</time>
      </trkpt>
      <trkpt lat="43.49676" lon="6.62892">
        <ele>22.6</ele>
        <time>2023-11-05T11:01:05Z</time>
      </trkpt>
      <trkpt lat="43.49676" lon="6.62892">
        <ele>22.7</ele>
        <time>2023-11-05T11:01:06Z</time>
      </trkpt>
      <trkpt lat="43.49676" lon="6.62892">
        <ele>22.7</ele>
        <time>2023-11-05T11:01:07Z</time>
      </trkpt>
      <trkpt lat="43.49677" lon="6.62892">
        <ele>22.7</ele>
        <time>2023-11-05T11:01:08Z</time>
      </trkpt>
      <trkpt lat="43.49677" lon="6.62892">
        <ele>22.7</ele>
        <time>2023-11-05T11:01:09Z</time>
      </trkpt>
      <trkpt lat="43.49677" lon="6.62892">
        <ele>22.7</ele>
        <time>2023-11-05T11:01:10Z</time>
      </trkpt>
      <trkpt lat="43.49677" lon="6.62892">
        <ele>22.7</ele>
        <time>2023-11-05T11:01:11Z</time>
      </trkpt>
      <trkpt lat="43.49677" lon="6.62892">
        <ele>22.7</ele>
        <time>2023-11-05T11:01:12Z</time>
      </trkpt>
      <trkpt lat="43.49677" lon="6.62892">
        <ele>22.7</ele>
        <time>2023-11-05T11:01:13Z</time>
      </trkpt>
      <trkpt lat="43.49677" lon="6.62892">
        <ele>22.7</ele>
        <time>2023-11-05T11:01:14Z</time>
      </trkpt>
      <trkpt lat="43.49677" lon="6.62893">
        <ele>22.7</ele>
        <time>2023-11-05T11:01:15Z</time>
      </trkpt>
      <trkpt lat="43.49677" lon="6.62893">
        <ele>22.7</ele>
        <time>2023-11-05T11:01:16Z</time>
      </trkpt>
      <trkpt lat="43.49677" lon="6.62893">
        <ele>22.7</ele>
        <time>2023-11-05T11:01:17Z</time>
      </trkpt>
      <trkpt lat="43.49677" lon="6.62893">
        <ele>22.7</ele>
        <time>2023-11-05T11:01:18Z</time>
      </trkpt>
      <trkpt lat="43.49677" lon="6.62892">
        <ele>22.7</ele>
        <time>2023-11-05T11:01:19Z</time>
      </trkpt>
      <trkpt lat="43.49677" lon="6.62892">
        <ele>22.7</ele>
        <time>2023-11-05T11:01:20Z</time>
      </trkpt>
      <trkpt lat="43.49677" lon="6.62892">
        <ele>22.7</ele>
        <time>2023-11-05T11:01:21Z</time>
      </trkpt>
      <trkpt lat="43.49677" lon="6.62892">
        <ele>22.6</ele>
        <time>2023-11-05T11:01:22Z</time>
      </trkpt>
      <trkpt lat="43.49677" lon="6.62893">
        <ele>22.5</ele>
        <time>2023-11-05T11:01:23Z</time>
      </trkpt>
      <trkpt lat="43.49678" lon="6.62892">
        <ele>22.4</ele>
        <time>2023-11-05T11:01:24Z</time>
      </trkpt>
      <trkpt lat="43.49678" lon="6.62892">
        <ele>22.4</ele>
        <time>2023-11-05T11:01:25Z</time>
      </trkpt>
      <trkpt lat="43.49678" lon="6.62892">
        <ele>22.3</ele>
        <time>2023-11-05T11:01:26Z</time>
      </trkpt>
      <trkpt lat="43.49678" lon="6.62892">
        <ele>22.3</ele>
        <time>2023-11-05T11:01:27Z</time>
      </trkpt>
      <trkpt lat="43.49679" lon="6.62892">
        <ele>22.3</ele>
        <time>2023-11-05T11:01:28Z</time>
      </trkpt>
      <trkpt lat="43.49679" lon="6.62892">
        <ele>22.2</ele>
        <time>2023-11-05T11:01:29Z</time>
      </trkpt>
      <trkpt lat="43.49679" lon="6.62892">
        <ele>22.2</ele>
        <time>2023-11-05T11:01:30Z</time>
      </trkpt>
      <trkpt lat="43.49679" lon="6.62892">
        <ele>22.1</ele>
        <time>2023-11-05T11:01:31Z</time>
      </trkpt>
      <trkpt lat="43.4968" lon="6.62892">
        <ele>22.1</ele>
        <time>2023-11-05T11:01:32Z</time>
      </trkpt>
      <trkpt lat="43.4968" lon="6.62892">
        <ele>22</ele>
        <time>2023-11-05T11:01:33Z</time>
      </trkpt>
      <trkpt lat="43.4968" lon="6.62892">
        <ele>22.1</ele>
        <time>2023-11-05T11:01:34Z</time>
      </trkpt>
      <trkpt lat="43.4968" lon="6.62892">
        <ele>22.1</ele>
        <time>2023-11-05T11:01:35Z</time>
      </trkpt>
      <trkpt lat="43.4968" lon="6.62892">
        <ele>22.2</ele>
        <time>2023-11-05T11:01:36Z</time>
      </trkpt>
      <trkpt lat="43.49681" lon="6.62891">
        <ele>22.2</ele>
        <time>2023-11-05T11:01:37Z</time>
      </trkpt>
      <trkpt lat="43.49681" lon="6.62891">
        <ele>22.2</ele>
        <time>2023-11-05T11:01:38Z</time>
      </trkpt>
      <trkpt lat="43.49681" lon="6.62891">
        <ele>22.2</ele>
        <time>2023-11-05T11:01:39Z</time>
      </trkpt>
      <trkpt lat="43.49681" lon="6.62891">
        <ele>22.2</ele>
        <time>2023-11-05T11:01:40Z</time>
      </trkpt>
      <trkpt lat="43.49681" lon="6.62891">
        <ele>22.2</ele>
        <time>2023-11-05T11:01:41Z</time>
      </trkpt>
      <trkpt lat="43.49681" lon="6.62891">
        <ele>22.2</ele>
        <time>2023-11-05T11:01:42Z</time>
      </trkpt>
      <trkpt lat="43.49681" lon="6.62891">
        <ele>22.3</ele>
        <time>2023-11-05T11:01:43Z</time>
      </trkpt>
      <trkpt lat="43.49681" lon="6.62891">
        <ele>22.3</ele>
        <time>2023-11-05T11:01:44Z</time>
      </trkpt>
      <trkpt lat="43.49682" lon="6.62891">
        <ele>22.4</ele>
        <time>2023-11-05T11:01:45Z</time>
      </trkpt>
      <trkpt lat="43.49682" lon="6.62891">
        <ele>22.4</ele>
        <time>2023-11-05T11:01:46Z</time>
      </trkpt>
      <trkpt lat="43.49682" lon="6.62891">
        <ele>22.4</ele>
        <time>2023-11-05T11:01:47Z</time>
      </trkpt>
      <trkpt lat="43.49682" lon="6.62891">
        <ele>22.5</ele>
        <time>2023-11-05T11:01:48Z</time>
      </trkpt>
      <trkpt lat="43.49682" lon="6.62891">
        <ele>22.5</ele>
        <time>2023-11-05T11:01:49Z</time>
      </trkpt>
      <trkpt lat="43.49682" lon="6.62891">
        <ele>22.6</ele>
        <time>2023-11-05T11:01:50Z</time>
      </trkpt>
      <trkpt lat="43.49682" lon="6.62891">
        <ele>22.6</ele>
        <time>2023-11-05T11:01:51Z</time>
      </trkpt>
      <trkpt lat="43.49682" lon="6.62891">
        <ele>22.6</ele>
        <time>2023-11-05T11:01:52Z</time>
      </trkpt>
      <trkpt lat="43.49682" lon="6.62891">
        <ele>22.7</ele>
        <time>2023-11-05T11:01:53Z</time>
      </trkpt>
      <trkpt lat="43.49682" lon="6.62891">
        <ele>22.7</ele>
        <time>2023-11-05T11:01:54Z</time>
      </trkpt>
      <trkpt lat="43.49682" lon="6.62891">
        <ele>22.7</ele>
        <time>2023-11-05T11:01:55Z</time>
      </trkpt>
      <trkpt lat="43.49682" lon="6.62891">
        <ele>22.8</ele>
        <time>2023-11-05T11:01:56Z</time>
      </trkpt>
      <trkpt lat="43.49682" lon="6.62891">
        <ele>22.7</ele>
        <time>2023-11-05T11:01:57Z</time>
      </trkpt>
      <trkpt lat="43.49683" lon="6.62891">
        <ele>22.7</ele>
        <time>2023-11-05T11:01:58Z</time>
      </trkpt>
      <trkpt lat="43.49683" lon="6.6289">
        <ele>22.7</ele>
        <time>2023-11-05T11:01:59Z</time>
      </trkpt>
      <trkpt lat="43.49683" lon="6.6289">
        <ele>22.6</ele>
        <time>2023-11-05T11:02:00Z</time>
      </trkpt>
      <trkpt lat="43.49683" lon="6.6289">
        <ele>22.6</ele>
        <time>2023-11-05T11:02:01Z</time>
      </trkpt>
      <trkpt lat="43.49683" lon="6.6289">
        <ele>22.5</ele>
        <time>2023-11-05T11:02:02Z</time>
      </trkpt>
      <trkpt lat="43.49683" lon="6.6289">
        <ele>22.4</ele>
        <time>2023-11-05T11:02:03Z</time>
      </trkpt>
      <trkpt lat="43.49684" lon="6.6289">
        <ele>22.4</ele>
        <time>2023-11-05T11:02:04Z</time>
      </trkpt>
      <trkpt lat="43.49683" lon="6.6289">
        <ele>22.4</ele>
        <time>2023-11-05T11:02:05Z</time>
      </trkpt>
      <trkpt lat="43.49683" lon="6.6289">
        <ele>22.4</ele>
        <time>2023-11-05T11:02:06Z</time>
      </trkpt>
      <trkpt lat="43.49684" lon="6.6289">
        <ele>22.4</ele>
        <time>2023-11-05T11:02:07Z</time>
      </trkpt>
      <trkpt lat="43.49684" lon="6.6289">
        <ele>22.4</ele>
        <time>2023-11-05T11:02:08Z</time>
      </trkpt>
      <trkpt lat="43.49684" lon="6.6289">
        <ele>22.4</ele>
        <time>2023-11-05T11:02:09Z</time>
      </trkpt>
      <trkpt lat="43.49684" lon="6.6289">
        <ele>22.4</ele>
        <time>2023-11-05T11:02:10Z</time>
      </trkpt>
      <trkpt lat="43.49684" lon="6.6289">
        <ele>22.3</ele>
        <time>2023-11-05T11:02:11Z</time>
      </trkpt>
      <trkpt lat="43.49684" lon="6.6289">
        <ele>22.2</ele>
        <time>2023-11-05T11:02:12Z</time>
      </trkpt>
      <trkpt lat="43.49684" lon="6.6289">
        <ele>22.1</ele>
        <time>2023-11-05T11:02:13Z</time>
      </trkpt>
      <trkpt lat="43.49684" lon="6.6289">
        <ele>22.1</ele>
        <time>2023-11-05T11:02:14Z</time>
      </trkpt>
      <trkpt lat="43.49684" lon="6.6289">
        <ele>22.1</ele>
        <time>2023-11-05T11:02:15Z</time>
      </trkpt>
      <trkpt lat="43.49684" lon="6.6289">
        <ele>22.1</ele>
        <time>2023-11-05T11:02:16Z</time>
      </trkpt>
      <trkpt lat="43.49684" lon="6.6289">
        <ele>22.1</ele>
        <time>2023-11-05T11:02:17Z</time>
      </trkpt>
      <trkpt lat="43.49684" lon="6.6289">
        <ele>22.1</ele>
        <time>2023-11-05T11:02:18Z</time>
      </trkpt>
      <trkpt lat="43.49684" lon="6.6289">
        <ele>22.2</ele>
        <time>2023-11-05T11:02:19Z</time>
      </trkpt>
      <trkpt lat="43.49684" lon="6.6289">
        <ele>22.2</ele>
        <time>2023-11-05T11:02:20Z</time>
      </trkpt>
      <trkpt lat="43.49684" lon="6.6289">
        <ele>22.3</ele>
        <time>2023-11-05T11:02:21Z</time>
      </trkpt>
      <trkpt lat="43.49684" lon="6.6289">
        <ele>22.4</ele>
        <time>2023-11-05T11:02:22Z</time>
      </trkpt>
      <trkpt lat="43.49684" lon="6.6289">
        <ele>22.4</ele>
        <time>2023-11-05T11:02:23Z</time>
      </trkpt>
      <trkpt lat="43.49684" lon="6.62889">
        <ele>22.4</ele>
        <time>2023-11-05T11:02:24Z</time>
      </trkpt>
      <trkpt lat="43.49684" lon="6.62889">
        <ele>22.5</ele>
        <time>2023-11-05T11:02:25Z</time>
      </trkpt>
      <trkpt lat="43.49684" lon="6.62889">
        <ele>22.5</ele>
        <time>2023-11-05T11:02:26Z</time>
      </trkpt>
      <trkpt lat="43.49684" lon="6.62889">
        <ele>22.6</ele>
        <time>2023-11-05T11:02:27Z</time>
      </trkpt>
      <trkpt lat="43.49683" lon="6.62889">
        <ele>22.6</ele>
        <time>2023-11-05T11:02:28Z</time>
      </trkpt>
      <trkpt lat="43.49682" lon="6.62889">
        <ele>22.6</ele>
        <time>2023-11-05T11:02:29Z</time>
      </trkpt>
      <trkpt lat="43.49681" lon="6.62889">
        <ele>22.5</ele>
        <time>2023-11-05T11:02:30Z</time>
      </trkpt>
      <trkpt lat="43.49681" lon="6.62889">
        <ele>22.5</ele>
        <time>2023-11-05T11:02:31Z</time>
      </trkpt>
      <trkpt lat="43.4968" lon="6.62889">
        <ele>22.5</ele>
        <time>2023-11-05T11:02:32Z</time>
      </trkpt>
      <trkpt lat="43.4968" lon="6.62888">
        <ele>22.5</ele>
        <time>2023-11-05T11:02:33Z</time>
      </trkpt>
      <trkpt lat="43.49679" lon="6.62888">
        <ele>22.4</ele>
        <time>2023-11-05T11:02:34Z</time>
      </trkpt>
      <trkpt lat="43.49678" lon="6.62887">
        <ele>22.4</ele>
        <time>2023-11-05T11:02:35Z</time>
      </trkpt>
      <trkpt lat="43.49677" lon="6.62887">
        <ele>22.4</ele>
        <time>2023-11-05T11:02:36Z</time>
      </trkpt>
      <trkpt lat="43.49676" lon="6.62887">
        <ele>22.4</ele>
        <time>2023-11-05T11:02:37Z</time>
      </trkpt>
      <trkpt lat="43.49675" lon="6.62886">
        <ele>22.3</ele>
        <time>2023-11-05T11:02:38Z</time>
      </trkpt>
      <trkpt lat="43.49675" lon="6.62886">
        <ele>22.3</ele>
        <time>2023-11-05T11:02:39Z</time>
      </trkpt>
      <trkpt lat="43.49673" lon="6.62885">
        <ele>22.2</ele>
        <time>2023-11-05T11:02:40Z</time>
      </trkpt>
      <trkpt lat="43.49672" lon="6.62884">
        <ele>22.2</ele>
        <time>2023-11-05T11:02:41Z</time>
      </trkpt>
      <trkpt lat="43.49671" lon="6.62884">
        <ele>22.2</ele>
        <time>2023-11-05T11:02:42Z</time>
      </trkpt>
      <trkpt lat="43.4967" lon="6.62883">
        <ele>22.2</ele>
        <time>2023-11-05T11:02:43Z</time>
      </trkpt>
      <trkpt lat="43.49669" lon="6.62882">
        <ele>22.2</ele>
        <time>2023-11-05T11:02:44Z</time>
      </trkpt>
      <trkpt lat="43.49668" lon="6.62882">
        <ele>22.2</ele>
        <time>2023-11-05T11:02:45Z</time>
      </trkpt>
      <trkpt lat="43.49667" lon="6.62881">
        <ele>22.2</ele>
        <time>2023-11-05T11:02:46Z</time>
      </trkpt>
      <trkpt lat="43.49666" lon="6.62881">
        <ele>22.1</ele>
        <time>2023-11-05T11:02:47Z</time>
      </trkpt>
      <trkpt lat="43.49665" lon="6.6288">
        <ele>21.9</ele>
        <time>2023-11-05T11:02:48Z</time>
      </trkpt>
      <trkpt lat="43.49664" lon="6.6288">
        <ele>21.8</ele>
        <time>2023-11-05T11:02:49Z</time>
      </trkpt>
      <trkpt lat="43.49663" lon="6.6288">
        <ele>21.7</ele>
        <time>2023-11-05T11:02:50Z</time>
      </trkpt>
      <trkpt lat="43.49662" lon="6.62879">
        <ele>21.6</ele>
        <time>2023-11-05T11:02:51Z</time>
      </trkpt>
      <trkpt lat="43.49661" lon="6.62879">
        <ele>21.7</ele>
        <time>2023-11-05T11:02:52Z</time>
      </trkpt>
      <trkpt lat="43.4966" lon="6.62878">
        <ele>21.8</ele>
        <time>2023-11-05T11:02:53Z</time>
      </trkpt>
      <trkpt lat="43.49659" lon="6.62878">
        <ele>21.8</ele>
        <time>2023-11-05T11:02:54Z</time>
      </trkpt>
      <trkpt lat="43.49658" lon="6.62877">
        <ele>21.8</ele>
        <time>2023-11-05T11:02:55Z</time>
      </trkpt>
      <trkpt lat="43.49657" lon="6.62876">
        <ele>21.7</ele>
        <time>2023-11-05T11:02:56Z</time>
      </trkpt>
      <trkpt lat="43.49656" lon="6.62876">
        <ele>21.7</ele>
        <time>2023-11-05T11:02:57Z</time>
      </trkpt>
      <trkpt lat="43.49655" lon="6.62875">
        <ele>21.7</ele>
        <time>2023-11-05T11:02:58Z</time>
      </trkpt>
      <trkpt lat="43.49655" lon="6.62874">
        <ele>21.8</ele>
        <time>2023-11-05T11:02:59Z</time>
      </trkpt>
      <trkpt lat="43.49654" lon="6.62874">
        <ele>21.9</ele>
        <time>2023-11-05T11:03:00Z</time>
      </trkpt>
      <trkpt lat="43.49653" lon="6.62873">
        <ele>22</ele>
        <time>2023-11-05T11:03:01Z</time>
      </trkpt>
      <trkpt lat="43.49652" lon="6.62873">
        <ele>22.1</ele>
        <time>2023-11-05T11:03:02Z</time>
      </trkpt>
      <trkpt lat="43.49651" lon="6.62872">
        <ele>22.2</ele>
        <time>2023-11-05T11:03:03Z</time>
      </trkpt>
      <trkpt lat="43.4965" lon="6.62871">
        <ele>22.3</ele>
        <time>2023-11-05T11:03:04Z</time>
      </trkpt>
      <trkpt lat="43.49649" lon="6.62869">
        <ele>22.3</ele>
        <time>2023-11-05T11:03:05Z</time>
      </trkpt>
      <trkpt lat="43.49648" lon="6.62868">
        <ele>22.4</ele>
        <time>2023-11-05T11:03:06Z</time>
      </trkpt>
      <trkpt lat="43.49648" lon="6.62867">
        <ele>22.6</ele>
        <time>2023-11-05T11:03:07Z</time>
      </trkpt>
      <trkpt lat="43.49647" lon="6.62865">
        <ele>22.7</ele>
        <time>2023-11-05T11:03:08Z</time>
      </trkpt>
      <trkpt lat="43.49647" lon="6.62864">
        <ele>22.8</ele>
        <time>2023-11-05T11:03:09Z</time>
      </trkpt>
      <trkpt lat="43.49647" lon="6.62863">
        <ele>22.9</ele>
        <time>2023-11-05T11:03:10Z</time>
      </trkpt>
      <trkpt lat="43.49647" lon="6.62861">
        <ele>22.9</ele>
        <time>2023-11-05T11:03:11Z</time>
      </trkpt>
      <trkpt lat="43.49647" lon="6.6286">
        <ele>22.9</ele>
        <time>2023-11-05T11:03:12Z</time>
      </trkpt>
      <trkpt lat="43.49647" lon="6.62859">
        <ele>23</ele>
        <time>2023-11-05T11:03:13Z</time>
      </trkpt>
      <trkpt lat="43.49647" lon="6.62857">
        <ele>23</ele>
        <time>2023-11-05T11:03:14Z</time>
      </trkpt>
      <trkpt lat="43.49646" lon="6.62856">
        <ele>23.1</ele>
        <time>2023-11-05T11:03:15Z</time>
      </trkpt>
      <trkpt lat="43.49646" lon="6.62854">
        <ele>23.1</ele>
        <time>2023-11-05T11:03:16Z</time>
      </trkpt>
      <trkpt lat="43.49646" lon="6.62853">
        <ele>23.2</ele>
        <time>2023-11-05T11:03:17Z</time>
      </trkpt>
      <trkpt lat="43.49646" lon="6.62852">
        <ele>23.4</ele>
        <time>2023-11-05T11:03:18Z</time>
      </trkpt>
      <trkpt lat="43.49645" lon="6.62851">
        <ele>23.4</ele>
        <time>2023-11-05T11:03:19Z</time>
      </trkpt>
      <trkpt lat="43.49645" lon="6.6285">
        <ele>23.5</ele>
        <time>2023-11-05T11:03:20Z</time>
      </trkpt>
      <trkpt lat="43.49645" lon="6.62848">
        <ele>23.6</ele>
        <time>2023-11-05T11:03:21Z</time>
      </trkpt>
      <trkpt lat="43.49644" lon="6.62847">
        <ele>23.6</ele>
        <time>2023-11-05T11:03:22Z</time>
      </trkpt>
      <trkpt lat="43.49644" lon="6.62845">
        <ele>23.7</ele>
        <time>2023-11-05T11:03:23Z</time>
      </trkpt>
      <trkpt lat="43.49643" lon="6.62844">
        <ele>23.8</ele>
        <time>2023-11-05T11:03:24Z</time>
      </trkpt>
      <trkpt lat="43.49643" lon="6.62843">
        <ele>23.9</ele>
        <time>2023-11-05T11:03:25Z</time>
      </trkpt>
      <trkpt lat="43.49643" lon="6.62842">
        <ele>23.9</ele>
        <time>2023-11-05T11:03:26Z</time>
      </trkpt>
      <trkpt lat="43.49643" lon="6.62841">
        <ele>24</ele>
        <time>2023-11-05T11:03:27Z</time>
      </trkpt>
      <trkpt lat="43.49642" lon="6.6284">
        <ele>24</ele>
        <time>2023-11-05T11:03:28Z</time>
      </trkpt>
      <trkpt lat="43.49641" lon="6.62839">
        <ele>24</ele>
        <time>2023-11-05T11:03:29Z</time>
      </trkpt>
      <trkpt lat="43.4964" lon="6.62838">
        <ele>24.1</ele>
        <time>2023-11-05T11:03:30Z</time>
      </trkpt>
      <trkpt lat="43.49638" lon="6.62837">
        <ele>24.2</ele>
        <time>2023-11-05T11:03:31Z</time>
      </trkpt>
      <trkpt lat="43.49638" lon="6.62836">
        <ele>24.2</ele>
        <time>2023-11-05T11:03:32Z</time>
      </trkpt>
      <trkpt lat="43.49637" lon="6.62835">
        <ele>24.3</ele>
        <time>2023-11-05T11:03:33Z</time>
      </trkpt>
      <trkpt lat="43.49637" lon="6.62834">
        <ele>24.2</ele>
        <time>2023-11-05T11:03:34Z</time>
      </trkpt>
      <trkpt lat="43.49636" lon="6.62833">
        <ele>24.2</ele>
        <time>2023-11-05T11:03:35Z</time>
      </trkpt>
      <trkpt lat="43.49635" lon="6.62832">
        <ele>24.1</ele>
        <time>2023-11-05T11:03:36Z</time>
      </trkpt>
      <trkpt lat="43.49634" lon="6.62831">
        <ele>24</ele>
        <time>2023-11-05T11:03:37Z</time>
      </trkpt>
      <trkpt lat="43.49634" lon="6.62829">
        <ele>24</ele>
        <time>2023-11-05T11:03:38Z</time>
      </trkpt>
      <trkpt lat="43.49633" lon="6.62828">
        <ele>23.9</ele>
        <time>2023-11-05T11:03:39Z</time>
      </trkpt>
      <trkpt lat="43.49632" lon="6.62826">
        <ele>23.8</ele>
        <time>2023-11-05T11:03:40Z</time>
      </trkpt>
      <trkpt lat="43.49631" lon="6.62825">
        <ele>23.9</ele>
        <time>2023-11-05T11:03:41Z</time>
      </trkpt>
      <trkpt lat="43.4963" lon="6.62824">
        <ele>23.8</ele>
        <time>2023-11-05T11:03:42Z</time>
      </trkpt>
      <trkpt lat="43.49629" lon="6.62822">
        <ele>23.8</ele>
        <time>2023-11-05T11:03:43Z</time>
      </trkpt>
      <trkpt lat="43.49628" lon="6.62821">
        <ele>23.7</ele>
        <time>2023-11-05T11:03:44Z</time>
      </trkpt>
      <trkpt lat="43.49627" lon="6.62821">
        <ele>23.8</ele>
        <time>2023-11-05T11:03:45Z</time>
      </trkpt>
      <trkpt lat="43.49626" lon="6.62819">
        <ele>23.8</ele>
        <time>2023-11-05T11:03:46Z</time>
      </trkpt>
      <trkpt lat="43.49625" lon="6.62818">
        <ele>23.8</ele>
        <time>2023-11-05T11:03:47Z</time>
      </trkpt>
      <trkpt lat="43.49624" lon="6.62817">
        <ele>23.8</ele>
        <time>2023-11-05T11:03:48Z</time>
      </trkpt>
      <trkpt lat="43.49623" lon="6.62815">
        <ele>23.7</ele>
        <time>2023-11-05T11:03:49Z</time>
      </trkpt>
      <trkpt lat="43.49622" lon="6.62814">
        <ele>23.7</ele>
        <time>2023-11-05T11:03:50Z</time>
      </trkpt>
      <trkpt lat="43.49621" lon="6.62813">
        <ele>23.7</ele>
        <time>2023-11-05T11:03:51Z</time>
      </trkpt>
      <trkpt lat="43.4962" lon="6.62812">
        <ele>23.7</ele>
        <time>2023-11-05T11:03:52Z</time>
      </trkpt>
      <trkpt lat="43.49619" lon="6.62811">
        <ele>23.7</ele>
        <time>2023-11-05T11:03:53Z</time>
      </trkpt>
      <trkpt lat="43.49619" lon="6.6281">
        <ele>23.6</ele>
        <time>2023-11-05T11:03:54Z</time>
      </trkpt>
      <trkpt lat="43.49618" lon="6.62808">
        <ele>23.6</ele>
        <time>2023-11-05T11:03:55Z</time>
      </trkpt>
      <trkpt lat="43.49616" lon="6.62807">
        <ele>23.5</ele>
        <time>2023-11-05T11:03:56Z</time>
      </trkpt>
      <trkpt lat="43.49615" lon="6.62806">
        <ele>23.4</ele>
        <time>2023-11-05T11:03:57Z</time>
      </trkpt>
      <trkpt lat="43.49615" lon="6.62806">
        <ele>23.2</ele>
        <time>2023-11-05T11:03:58Z</time>
      </trkpt>
      <trkpt lat="43.49614" lon="6.62806">
        <ele>22.9</ele>
        <time>2023-11-05T11:03:59Z</time>
      </trkpt>
      <trkpt lat="43.49612" lon="6.62804">
        <ele>22.8</ele>
        <time>2023-11-05T11:04:00Z</time>
      </trkpt>
      <trkpt lat="43.49612" lon="6.62803">
        <ele>22.7</ele>
        <time>2023-11-05T11:04:01Z</time>
      </trkpt>
      <trkpt lat="43.49611" lon="6.62802">
        <ele>22.7</ele>
        <time>2023-11-05T11:04:02Z</time>
      </trkpt>
      <trkpt lat="43.49609" lon="6.62801">
        <ele>22.7</ele>
        <time>2023-11-05T11:04:03Z</time>
      </trkpt>
      <trkpt lat="43.49608" lon="6.628">
        <ele>22.5</ele>
        <time>2023-11-05T11:04:04Z</time>
      </trkpt>
      <trkpt lat="43.49607" lon="6.62799">
        <ele>22.5</ele>
        <time>2023-11-05T11:04:05Z</time>
      </trkpt>
      <trkpt lat="43.49606" lon="6.62799">
        <ele>22.5</ele>
        <time>2023-11-05T11:04:06Z</time>
      </trkpt>
      <trkpt lat="43.49605" lon="6.62799">
        <ele>22.5</ele>
        <time>2023-11-05T11:04:07Z</time>
      </trkpt>
      <trkpt lat="43.49604" lon="6.62798">
        <ele>22.5</ele>
        <time>2023-11-05T11:04:08Z</time>
      </trkpt>
      <trkpt lat="43.49603" lon="6.62798">
        <ele>22.4</ele>
        <time>2023-11-05T11:04:09Z</time>
      </trkpt>
      <trkpt lat="43.49602" lon="6.62798">
        <ele>22.4</ele>
        <time>2023-11-05T11:04:10Z</time>
      </trkpt>
      <trkpt lat="43.49601" lon="6.62797">
        <ele>22.3</ele>
        <time>2023-11-05T11:04:11Z</time>
      </trkpt>
      <trkpt lat="43.496" lon="6.62796">
        <ele>22.3</ele>
        <time>2023-11-05T11:04:12Z</time>
      </trkpt>
      <trkpt lat="43.49599" lon="6.62795">
        <ele>22.2</ele>
        <time>2023-11-05T11:04:13Z</time>
      </trkpt>
      <trkpt lat="43.49598" lon="6.62794">
        <ele>22.2</ele>
        <time>2023-11-05T11:04:14Z</time>
      </trkpt>
      <trkpt lat="43.49597" lon="6.62794">
        <ele>22.2</ele>
        <time>2023-11-05T11:04:15Z</time>
      </trkpt>
      <trkpt lat="43.49596" lon="6.62793">
        <ele>22.1</ele>
        <time>2023-11-05T11:04:16Z</time>
      </trkpt>
      <trkpt lat="43.49595" lon="6.62792">
        <ele>21.9</ele>
        <time>2023-11-05T11:04:17Z</time>
      </trkpt>
      <trkpt lat="43.49594" lon="6.62791">
        <ele>21.9</ele>
        <time>2023-11-05T11:04:18Z</time>
      </trkpt>
      <trkpt lat="43.49593" lon="6.6279">
        <ele>21.8</ele>
        <time>2023-11-05T11:04:19Z</time>
      </trkpt>
      <trkpt lat="43.49592" lon="6.62789">
        <ele>21.7</ele>
        <time>2023-11-05T11:04:20Z</time>
      </trkpt>
      <trkpt lat="43.49591" lon="6.62788">
        <ele>21.6</ele>
        <time>2023-11-05T11:04:21Z</time>
      </trkpt>
      <trkpt lat="43.49591" lon="6.62787">
        <ele>21.4</ele>
        <time>2023-11-05T11:04:22Z</time>
      </trkpt>
      <trkpt lat="43.4959" lon="6.62786">
        <ele>21.3</ele>
        <time>2023-11-05T11:04:23Z</time>
      </trkpt>
      <trkpt lat="43.4959" lon="6.62785">
        <ele>21.2</ele>
        <time>2023-11-05T11:04:24Z</time>
      </trkpt>
      <trkpt lat="43.49589" lon="6.62784">
        <ele>21.2</ele>
        <time>2023-11-05T11:04:25Z</time>
      </trkpt>
      <trkpt lat="43.49588" lon="6.62783">
        <ele>21.2</ele>
        <time>2023-11-05T11:04:26Z</time>
      </trkpt>
      <trkpt lat="43.49588" lon="6.62782">
        <ele>21.2</ele>
        <time>2023-11-05T11:04:27Z</time>
      </trkpt>
      <trkpt lat="43.49587" lon="6.6278">
        <ele>21.2</ele>
        <time>2023-11-05T11:04:28Z</time>
      </trkpt>
      <trkpt lat="43.49587" lon="6.62779">
        <ele>21.2</ele>
        <time>2023-11-05T11:04:29Z</time>
      </trkpt>
      <trkpt lat="43.49586" lon="6.62778">
        <ele>21.2</ele>
        <time>2023-11-05T11:04:30Z</time>
      </trkpt>
      <trkpt lat="43.49586" lon="6.62777">
        <ele>21.2</ele>
        <time>2023-11-05T11:04:31Z</time>
      </trkpt>
      <trkpt lat="43.49586" lon="6.62776">
        <ele>21.2</ele>
        <time>2023-11-05T11:04:32Z</time>
      </trkpt>
      <trkpt lat="43.49585" lon="6.62775">
        <ele>21.3</ele>
        <time>2023-11-05T11:04:33Z</time>
      </trkpt>
      <trkpt lat="43.49585" lon="6.62773">
        <ele>21.3</ele>
        <time>2023-11-05T11:04:34Z</time>
      </trkpt>
      <trkpt lat="43.49584" lon="6.62772">
        <ele>21.3</ele>
        <time>2023-11-05T11:04:35Z</time>
      </trkpt>
      <trkpt lat="43.49584" lon="6.6277">
        <ele>21.3</ele>
        <time>2023-11-05T11:04:36Z</time>
      </trkpt>
      <trkpt lat="43.49583" lon="6.62769">
        <ele>21.2</ele>
        <time>2023-11-05T11:04:37Z</time>
      </trkpt>
      <trkpt lat="43.49581" lon="6.62768">
        <ele>21.2</ele>
        <time>2023-11-05T11:04:38Z</time>
      </trkpt>
      <trkpt lat="43.4958" lon="6.62767">
        <ele>21.1</ele>
        <time>2023-11-05T11:04:39Z</time>
      </trkpt>
      <trkpt lat="43.4958" lon="6.62766">
        <ele>21</ele>
        <time>2023-11-05T11:04:40Z</time>
      </trkpt>
      <trkpt lat="43.49579" lon="6.62765">
        <ele>20.9</ele>
        <time>2023-11-05T11:04:41Z</time>
      </trkpt>
      <trkpt lat="43.49578" lon="6.62765">
        <ele>20.8</ele>
        <time>2023-11-05T11:04:42Z</time>
      </trkpt>
      <trkpt lat="43.49576" lon="6.62764">
        <ele>20.7</ele>
        <time>2023-11-05T11:04:43Z</time>
      </trkpt>
      <trkpt lat="43.49575" lon="6.62763">
        <ele>20.7</ele>
        <time>2023-11-05T11:04:44Z</time>
      </trkpt>
      <trkpt lat="43.49575" lon="6.62761">
        <ele>20.7</ele>
        <time>2023-11-05T11:04:45Z</time>
      </trkpt>
      <trkpt lat="43.49574" lon="6.6276">
        <ele>20.8</ele>
        <time>2023-11-05T11:04:46Z</time>
      </trkpt>
      <trkpt lat="43.49573" lon="6.62759">
        <ele>20.8</ele>
        <time>2023-11-05T11:04:47Z</time>
      </trkpt>
      <trkpt lat="43.49572" lon="6.62758">
        <ele>20.9</ele>
        <time>2023-11-05T11:04:48Z</time>
      </trkpt>
      <trkpt lat="43.49571" lon="6.62757">
        <ele>20.9</ele>
        <time>2023-11-05T11:04:49Z</time>
      </trkpt>
      <trkpt lat="43.4957" lon="6.62756">
        <ele>20.9</ele>
        <time>2023-11-05T11:04:50Z</time>
      </trkpt>
      <trkpt lat="43.4957" lon="6.62755">
        <ele>21</ele>
        <time>2023-11-05T11:04:51Z</time>
      </trkpt>
      <trkpt lat="43.49569" lon="6.62754">
        <ele>21.1</ele>
        <time>2023-11-05T11:04:52Z</time>
      </trkpt>
      <trkpt lat="43.49568" lon="6.62754">
        <ele>21.1</ele>
        <time>2023-11-05T11:04:53Z</time>
      </trkpt>
      <trkpt lat="43.49567" lon="6.62752">
        <ele>21</ele>
        <time>2023-11-05T11:04:54Z</time>
      </trkpt>
      <trkpt lat="43.49567" lon="6.62751">
        <ele>21</ele>
        <time>2023-11-05T11:04:55Z</time>
      </trkpt>
      <trkpt lat="43.49566" lon="6.6275">
        <ele>21</ele>
        <time>2023-11-05T11:04:56Z</time>
      </trkpt>
      <trkpt lat="43.49565" lon="6.62748">
        <ele>20.9</ele>
        <time>2023-11-05T11:04:57Z</time>
      </trkpt>
      <trkpt lat="43.49564" lon="6.62747">
        <ele>21</ele>
        <time>2023-11-05T11:04:58Z</time>
      </trkpt>
      <trkpt lat="43.49564" lon="6.62746">
        <ele>21</ele>
        <time>2023-11-05T11:04:59Z</time>
      </trkpt>
      <trkpt lat="43.49563" lon="6.62745">
        <ele>21.1</ele>
        <time>2023-11-05T11:05:00Z</time>
      </trkpt>
      <trkpt lat="43.49563" lon="6.62744">
        <ele>21</ele>
        <time>2023-11-05T11:05:01Z</time>
      </trkpt>
      <trkpt lat="43.49563" lon="6.62743">
        <ele>21</ele>
        <time>2023-11-05T11:05:02Z</time>
      </trkpt>
      <trkpt lat="43.49562" lon="6.62741">
        <ele>21</ele>
        <time>2023-11-05T11:05:03Z</time>
      </trkpt>
      <trkpt lat="43.49562" lon="6.6274">
        <ele>21</ele>
        <time>2023-11-05T11:05:04Z</time>
      </trkpt>
      <trkpt lat="43.49561" lon="6.62738">
        <ele>21</ele>
        <time>2023-11-05T11:05:05Z</time>
      </trkpt>
      <trkpt lat="43.49561" lon="6.62737">
        <ele>20.9</ele>
        <time>2023-11-05T11:05:06Z</time>
      </trkpt>
      <trkpt lat="43.4956" lon="6.62736">
        <ele>20.9</ele>
        <time>2023-11-05T11:05:07Z</time>
      </trkpt>
      <trkpt lat="43.49559" lon="6.62735">
        <ele>20.8</ele>
        <time>2023-11-05T11:05:08Z</time>
      </trkpt>
      <trkpt lat="43.49558" lon="6.62734">
        <ele>20.8</ele>
        <time>2023-11-05T11:05:09Z</time>
      </trkpt>
      <trkpt lat="43.49558" lon="6.62733">
        <ele>20.6</ele>
        <time>2023-11-05T11:05:10Z</time>
      </trkpt>
      <trkpt lat="43.49557" lon="6.62732">
        <ele>20.5</ele>
        <time>2023-11-05T11:05:11Z</time>
      </trkpt>
      <trkpt lat="43.49556" lon="6.62731">
        <ele>20.5</ele>
        <time>2023-11-05T11:05:12Z</time>
      </trkpt>
      <trkpt lat="43.49555" lon="6.6273">
        <ele>20.6</ele>
        <time>2023-11-05T11:05:13Z</time>
      </trkpt>
      <trkpt lat="43.49555" lon="6.62729">
        <ele>20.7</ele>
        <time>2023-11-05T11:05:14Z</time>
      </trkpt>
      <trkpt lat="43.49554" lon="6.62729">
        <ele>20.8</ele>
        <time>2023-11-05T11:05:15Z</time>
      </trkpt>
      <trkpt lat="43.49553" lon="6.62728">
        <ele>20.8</ele>
        <time>2023-11-05T11:05:16Z</time>
      </trkpt>
      <trkpt lat="43.49552" lon="6.62727">
        <ele>20.9</ele>
        <time>2023-11-05T11:05:17Z</time>
      </trkpt>
      <trkpt lat="43.49552" lon="6.62726">
        <ele>20.8</ele>
        <time>2023-11-05T11:05:18Z</time>
      </trkpt>
      <trkpt lat="43.49551" lon="6.62725">
        <ele>20.8</ele>
        <time>2023-11-05T11:05:19Z</time>
      </trkpt>
      <trkpt lat="43.4955" lon="6.62725">
        <ele>20.7</ele>
        <time>2023-11-05T11:05:20Z</time>
      </trkpt>
      <trkpt lat="43.49549" lon="6.62724">
        <ele>20.8</ele>
        <time>2023-11-05T11:05:21Z</time>
      </trkpt>
      <trkpt lat="43.49548" lon="6.62723">
        <ele>20.9</ele>
        <time>2023-11-05T11:05:22Z</time>
      </trkpt>
      <trkpt lat="43.49547" lon="6.62722">
        <ele>21</ele>
        <time>2023-11-05T11:05:23Z</time>
      </trkpt>
      <trkpt lat="43.49546" lon="6.62721">
        <ele>21.1</ele>
        <time>2023-11-05T11:05:24Z</time>
      </trkpt>
      <trkpt lat="43.49545" lon="6.6272">
        <ele>21.1</ele>
        <time>2023-11-05T11:05:25Z</time>
      </trkpt>
      <trkpt lat="43.49544" lon="6.6272">
        <ele>21.1</ele>
        <time>2023-11-05T11:05:26Z</time>
      </trkpt>
      <trkpt lat="43.49543" lon="6.62719">
        <ele>21.1</ele>
        <time>2023-11-05T11:05:27Z</time>
      </trkpt>
      <trkpt lat="43.49542" lon="6.62718">
        <ele>21.1</ele>
        <time>2023-11-05T11:05:28Z</time>
      </trkpt>
      <trkpt lat="43.49541" lon="6.62718">
        <ele>21</ele>
        <time>2023-11-05T11:05:29Z</time>
      </trkpt>
      <trkpt lat="43.4954" lon="6.62717">
        <ele>21</ele>
        <time>2023-11-05T11:05:30Z</time>
      </trkpt>
      <trkpt lat="43.4954" lon="6.62716">
        <ele>20.9</ele>
        <time>2023-11-05T11:05:31Z</time>
      </trkpt>
      <trkpt lat="43.49539" lon="6.62716">
        <ele>20.7</ele>
        <time>2023-11-05T11:05:32Z</time>
      </trkpt>
      <trkpt lat="43.49537" lon="6.62715">
        <ele>20.7</ele>
        <time>2023-11-05T11:05:33Z</time>
      </trkpt>
      <trkpt lat="43.49536" lon="6.62715">
        <ele>20.6</ele>
        <time>2023-11-05T11:05:34Z</time>
      </trkpt>
      <trkpt lat="43.49535" lon="6.62714">
        <ele>20.6</ele>
        <time>2023-11-05T11:05:35Z</time>
      </trkpt>
      <trkpt lat="43.49534" lon="6.62713">
        <ele>20.5</ele>
        <time>2023-11-05T11:05:36Z</time>
      </trkpt>
      <trkpt lat="43.49533" lon="6.62712">
        <ele>20.4</ele>
        <time>2023-11-05T11:05:37Z</time>
      </trkpt>
      <trkpt lat="43.49533" lon="6.62711">
        <ele>20.2</ele>
        <time>2023-11-05T11:05:38Z</time>
      </trkpt>
      <trkpt lat="43.49532" lon="6.6271">
        <ele>20.1</ele>
        <time>2023-11-05T11:05:39Z</time>
      </trkpt>
      <trkpt lat="43.49531" lon="6.62709">
        <ele>20.1</ele>
        <time>2023-11-05T11:05:40Z</time>
      </trkpt>
      <trkpt lat="43.49531" lon="6.62708">
        <ele>20</ele>
        <time>2023-11-05T11:05:41Z</time>
      </trkpt>
      <trkpt lat="43.4953" lon="6.62707">
        <ele>20.2</ele>
        <time>2023-11-05T11:05:42Z</time>
      </trkpt>
      <trkpt lat="43.49529" lon="6.62707">
        <ele>20.2</ele>
        <time>2023-11-05T11:05:43Z</time>
      </trkpt>
      <trkpt lat="43.49528" lon="6.62707">
        <ele>20.2</ele>
        <time>2023-11-05T11:05:44Z</time>
      </trkpt>
      <trkpt lat="43.49527" lon="6.62706">
        <ele>20.2</ele>
        <time>2023-11-05T11:05:45Z</time>
      </trkpt>
      <trkpt lat="43.49526" lon="6.62705">
        <ele>20.3</ele>
        <time>2023-11-05T11:05:46Z</time>
      </trkpt>
      <trkpt lat="43.49525" lon="6.62705">
        <ele>20.2</ele>
        <time>2023-11-05T11:05:47Z</time>
      </trkpt>
      <trkpt lat="43.49524" lon="6.62704">
        <ele>20.2</ele>
        <time>2023-11-05T11:05:48Z</time>
      </trkpt>
      <trkpt lat="43.49523" lon="6.62704">
        <ele>20.3</ele>
        <time>2023-11-05T11:05:49Z</time>
      </trkpt>
      <trkpt lat="43.49522" lon="6.62704">
        <ele>20.4</ele>
        <time>2023-11-05T11:05:50Z</time>
      </trkpt>
      <trkpt lat="43.49521" lon="6.62703">
        <ele>20.7</ele>
        <time>2023-11-05T11:05:51Z</time>
      </trkpt>
      <trkpt lat="43.4952" lon="6.62702">
        <ele>21.1</ele>
        <time>2023-11-05T11:05:52Z</time>
      </trkpt>
      <trkpt lat="43.49519" lon="6.62702">
        <ele>21.3</ele>
        <time>2023-11-05T11:05:53Z</time>
      </trkpt>
      <trkpt lat="43.49519" lon="6.62701">
        <ele>21.4</ele>
        <time>2023-11-05T11:05:54Z</time>
      </trkpt>
      <trkpt lat="43.49518" lon="6.62701">
        <ele>21.4</ele>
        <time>2023-11-05T11:05:55Z</time>
      </trkpt>
      <trkpt lat="43.49517" lon="6.627">
        <ele>21.4</ele>
        <time>2023-11-05T11:05:56Z</time>
      </trkpt>
      <trkpt lat="43.49516" lon="6.62699">
        <ele>21.4</ele>
        <time>2023-11-05T11:05:57Z</time>
      </trkpt>
      <trkpt lat="43.49515" lon="6.62698">
        <ele>21.4</ele>
        <time>2023-11-05T11:05:58Z</time>
      </trkpt>
      <trkpt lat="43.49514" lon="6.62698">
        <ele>21.4</ele>
        <time>2023-11-05T11:05:59Z</time>
      </trkpt>
      <trkpt lat="43.49513" lon="6.62697">
        <ele>21.3</ele>
        <time>2023-11-05T11:06:00Z</time>
      </trkpt>
      <trkpt lat="43.49512" lon="6.62697">
        <ele>21.3</ele>
        <time>2023-11-05T11:06:01Z</time>
      </trkpt>
      <trkpt lat="43.49511" lon="6.62696">
        <ele>21.3</ele>
        <time>2023-11-05T11:06:02Z</time>
      </trkpt>
      <trkpt lat="43.4951" lon="6.62696">
        <ele>21.3</ele>
        <time>2023-11-05T11:06:03Z</time>
      </trkpt>
      <trkpt lat="43.49509" lon="6.62695">
        <ele>20.9</ele>
        <time>2023-11-05T11:06:04Z</time>
      </trkpt>
      <trkpt lat="43.49508" lon="6.62695">
        <ele>20.7</ele>
        <time>2023-11-05T11:06:05Z</time>
      </trkpt>
      <trkpt lat="43.49507" lon="6.62695">
        <ele>20.5</ele>
        <time>2023-11-05T11:06:06Z</time>
      </trkpt>
      <trkpt lat="43.49505" lon="6.62694">
        <ele>20.2</ele>
        <time>2023-11-05T11:06:07Z</time>
      </trkpt>
      <trkpt lat="43.49504" lon="6.62694">
        <ele>20</ele>
        <time>2023-11-05T11:06:08Z</time>
      </trkpt>
      <trkpt lat="43.49503" lon="6.62695">
        <ele>19.7</ele>
        <time>2023-11-05T11:06:09Z</time>
      </trkpt>
      <trkpt lat="43.49502" lon="6.62695">
        <ele>19.6</ele>
        <time>2023-11-05T11:06:10Z</time>
      </trkpt>
      <trkpt lat="43.49502" lon="6.62695">
        <ele>19.5</ele>
        <time>2023-11-05T11:06:11Z</time>
      </trkpt>
      <trkpt lat="43.49502" lon="6.62695">
        <ele>19.3</ele>
        <time>2023-11-05T11:06:12Z</time>
      </trkpt>
      <trkpt lat="43.49502" lon="6.62695">
        <ele>19.1</ele>
        <time>2023-11-05T11:06:13Z</time>
      </trkpt>
      <trkpt lat="43.49502" lon="6.62695">
        <ele>19.1</ele>
        <time>2023-11-05T11:06:14Z</time>
      </trkpt>
      <trkpt lat="43.49501" lon="6.62695">
        <ele>18.8</ele>
        <time>2023-11-05T11:06:15Z</time>
      </trkpt>
      <trkpt lat="43.49501" lon="6.62695">
        <ele>18.8</ele>
        <time>2023-11-05T11:06:16Z</time>
      </trkpt>
      <trkpt lat="43.49501" lon="6.62695">
        <ele>18.8</ele>
        <time>2023-11-05T11:06:17Z</time>
      </trkpt>
      <trkpt lat="43.49501" lon="6.62695">
        <ele>18.9</ele>
        <time>2023-11-05T11:06:18Z</time>
      </trkpt>
      <trkpt lat="43.49501" lon="6.62695">
        <ele>19</ele>
        <time>2023-11-05T11:06:19Z</time>
      </trkpt>
      <trkpt lat="43.49501" lon="6.62696">
        <ele>19</ele>
        <time>2023-11-05T11:06:20Z</time>
      </trkpt>
      <trkpt lat="43.49501" lon="6.62696">
        <ele>19.1</ele>
        <time>2023-11-05T11:06:21Z</time>
      </trkpt>
      <trkpt lat="43.49501" lon="6.62696">
        <ele>19.1</ele>
        <time>2023-11-05T11:06:22Z</time>
      </trkpt>
      <trkpt lat="43.49501" lon="6.62696">
        <ele>19.3</ele>
        <time>2023-11-05T11:06:23Z</time>
      </trkpt>
      <trkpt lat="43.495" lon="6.62696">
        <ele>19.3</ele>
        <time>2023-11-05T11:06:24Z</time>
      </trkpt>
      <trkpt lat="43.49501" lon="6.62696">
        <ele>19.3</ele>
        <time>2023-11-05T11:06:25Z</time>
      </trkpt>
      <trkpt lat="43.49501" lon="6.62697">
        <ele>19.2</ele>
        <time>2023-11-05T11:06:26Z</time>
      </trkpt>
      <trkpt lat="43.49501" lon="6.62697">
        <ele>19</ele>
        <time>2023-11-05T11:06:27Z</time>
      </trkpt>
      <trkpt lat="43.49501" lon="6.62697">
        <ele>18.9</ele>
        <time>2023-11-05T11:06:28Z</time>
      </trkpt>
      <trkpt lat="43.49501" lon="6.62697">
        <ele>18.9</ele>
        <time>2023-11-05T11:06:29Z</time>
      </trkpt>
      <trkpt lat="43.49501" lon="6.62697">
        <ele>18.9</ele>
        <time>2023-11-05T11:06:30Z</time>
      </trkpt>
      <trkpt lat="43.49501" lon="6.62697">
        <ele>18.9</ele>
        <time>2023-11-05T11:06:31Z</time>
      </trkpt>
      <trkpt lat="43.495" lon="6.62697">
        <ele>18.9</ele>
        <time>2023-11-05T11:06:32Z</time>
      </trkpt>
      <trkpt lat="43.49499" lon="6.62697">
        <ele>18.9</ele>
        <time>2023-11-05T11:06:33Z</time>
      </trkpt>
      <trkpt lat="43.49499" lon="6.62697">
        <ele>19</ele>
        <time>2023-11-05T11:06:34Z</time>
      </trkpt>
      <trkpt lat="43.49498" lon="6.62697">
        <ele>19</ele>
        <time>2023-11-05T11:06:35Z</time>
      </trkpt>
      <trkpt lat="43.49498" lon="6.62696">
        <ele>19.2</ele>
        <time>2023-11-05T11:06:36Z</time>
      </trkpt>
      <trkpt lat="43.49497" lon="6.62696">
        <ele>19.2</ele>
        <time>2023-11-05T11:06:37Z</time>
      </trkpt>
      <trkpt lat="43.49496" lon="6.62696">
        <ele>19.2</ele>
        <time>2023-11-05T11:06:38Z</time>
      </trkpt>
      <trkpt lat="43.49496" lon="6.62696">
        <ele>19.2</ele>
        <time>2023-11-05T11:06:39Z</time>
      </trkpt>
      <trkpt lat="43.49495" lon="6.62696">
        <ele>19.1</ele>
        <time>2023-11-05T11:06:40Z</time>
      </trkpt>
      <trkpt lat="43.49494" lon="6.62696">
        <ele>19</ele>
        <time>2023-11-05T11:06:41Z</time>
      </trkpt>
      <trkpt lat="43.49493" lon="6.62696">
        <ele>19</ele>
        <time>2023-11-05T11:06:42Z</time>
      </trkpt>
      <trkpt lat="43.49491" lon="6.62696">
        <ele>18.9</ele>
        <time>2023-11-05T11:06:43Z</time>
      </trkpt>
      <trkpt lat="43.49491" lon="6.62696">
        <ele>18.8</ele>
        <time>2023-11-05T11:06:44Z</time>
      </trkpt>
      <trkpt lat="43.49489" lon="6.62696">
        <ele>18.8</ele>
        <time>2023-11-05T11:06:45Z</time>
      </trkpt>
      <trkpt lat="43.49488" lon="6.62697">
        <ele>18.8</ele>
        <time>2023-11-05T11:06:46Z</time>
      </trkpt>
      <trkpt lat="43.49487" lon="6.62697">
        <ele>18.7</ele>
        <time>2023-11-05T11:06:47Z</time>
      </trkpt>
      <trkpt lat="43.49486" lon="6.62698">
        <ele>18.6</ele>
        <time>2023-11-05T11:06:48Z</time>
      </trkpt>
      <trkpt lat="43.49486" lon="6.627">
        <ele>18.4</ele>
        <time>2023-11-05T11:06:49Z</time>
      </trkpt>
      <trkpt lat="43.49486" lon="6.62701">
        <ele>18.2</ele>
        <time>2023-11-05T11:06:50Z</time>
      </trkpt>
      <trkpt lat="43.49486" lon="6.62702">
        <ele>18.1</ele>
        <time>2023-11-05T11:06:51Z</time>
      </trkpt>
      <trkpt lat="43.49486" lon="6.62703">
        <ele>18</ele>
        <time>2023-11-05T11:06:52Z</time>
      </trkpt>
      <trkpt lat="43.49486" lon="6.62704">
        <ele>18</ele>
        <time>2023-11-05T11:06:53Z</time>
      </trkpt>
      <trkpt lat="43.49485" lon="6.62704">
        <ele>18.1</ele>
        <time>2023-11-05T11:06:54Z</time>
      </trkpt>
      <trkpt lat="43.49485" lon="6.62704">
        <ele>18.1</ele>
        <time>2023-11-05T11:06:55Z</time>
      </trkpt>
      <trkpt lat="43.49485" lon="6.62704">
        <ele>18.2</ele>
        <time>2023-11-05T11:06:56Z</time>
      </trkpt>
      <trkpt lat="43.49485" lon="6.62705">
        <ele>18.2</ele>
        <time>2023-11-05T11:06:57Z</time>
      </trkpt>
      <trkpt lat="43.49485" lon="6.62705">
        <ele>18.2</ele>
        <time>2023-11-05T11:06:58Z</time>
      </trkpt>
      <trkpt lat="43.49484" lon="6.62705">
        <ele>18.1</ele>
        <time>2023-11-05T11:06:59Z</time>
      </trkpt>
      <trkpt lat="43.49483" lon="6.62705">
        <ele>18.2</ele>
        <time>2023-11-05T11:07:00Z</time>
      </trkpt>
      <trkpt lat="43.49482" lon="6.62705">
        <ele>18.2</ele>
        <time>2023-11-05T11:07:01Z</time>
      </trkpt>
      <trkpt lat="43.49482" lon="6.62705">
        <ele>18.3</ele>
        <time>2023-11-05T11:07:02Z</time>
      </trkpt>
      <trkpt lat="43.49481" lon="6.62705">
        <ele>18.4</ele>
        <time>2023-11-05T11:07:03Z</time>
      </trkpt>
      <trkpt lat="43.4948" lon="6.62706">
        <ele>18.5</ele>
        <time>2023-11-05T11:07:04Z</time>
      </trkpt>
      <trkpt lat="43.4948" lon="6.62706">
        <ele>18.7</ele>
        <time>2023-11-05T11:07:05Z</time>
      </trkpt>
      <trkpt lat="43.49479" lon="6.62706">
        <ele>18.7</ele>
        <time>2023-11-05T11:07:06Z</time>
      </trkpt>
      <trkpt lat="43.49478" lon="6.62707">
        <ele>18.7</ele>
        <time>2023-11-05T11:07:07Z</time>
      </trkpt>
      <trkpt lat="43.49477" lon="6.62707">
        <ele>18.8</ele>
        <time>2023-11-05T11:07:08Z</time>
      </trkpt>
      <trkpt lat="43.49476" lon="6.62708">
        <ele>18.8</ele>
        <time>2023-11-05T11:07:09Z</time>
      </trkpt>
      <trkpt lat="43.49475" lon="6.62708">
        <ele>18.9</ele>
        <time>2023-11-05T11:07:10Z</time>
      </trkpt>
      <trkpt lat="43.49475" lon="6.62707">
        <ele>18.9</ele>
        <time>2023-11-05T11:07:11Z</time>
      </trkpt>
      <trkpt lat="43.49474" lon="6.62708">
        <ele>18.9</ele>
        <time>2023-11-05T11:07:12Z</time>
      </trkpt>
      <trkpt lat="43.49473" lon="6.62708">
        <ele>18.9</ele>
        <time>2023-11-05T11:07:13Z</time>
      </trkpt>
      <trkpt lat="43.49473" lon="6.62708">
        <ele>19</ele>
        <time>2023-11-05T11:07:14Z</time>
      </trkpt>
      <trkpt lat="43.49473" lon="6.62708">
        <ele>19</ele>
        <time>2023-11-05T11:07:15Z</time>
      </trkpt>
      <trkpt lat="43.49473" lon="6.62708">
        <ele>19</ele>
        <time>2023-11-05T11:07:16Z</time>
      </trkpt>
      <trkpt lat="43.49473" lon="6.62708">
        <ele>19</ele>
        <time>2023-11-05T11:07:17Z</time>
      </trkpt>
      <trkpt lat="43.49473" lon="6.62708">
        <ele>19</ele>
        <time>2023-11-05T11:07:18Z</time>
      </trkpt>
      <trkpt lat="43.49472" lon="6.62709">
        <ele>19</ele>
        <time>2023-11-05T11:07:19Z</time>
      </trkpt>
      <trkpt lat="43.49472" lon="6.62709">
        <ele>19.1</ele>
        <time>2023-11-05T11:07:20Z</time>
      </trkpt>
      <trkpt lat="43.49472" lon="6.62709">
        <ele>19.1</ele>
        <time>2023-11-05T11:07:21Z</time>
      </trkpt>
      <trkpt lat="43.49472" lon="6.62709">
        <ele>19.1</ele>
        <time>2023-11-05T11:07:22Z</time>
      </trkpt>
      <trkpt lat="43.49472" lon="6.62709">
        <ele>19.1</ele>
        <time>2023-11-05T11:07:23Z</time>
      </trkpt>
      <trkpt lat="43.49472" lon="6.62709">
        <ele>19.1</ele>
        <time>2023-11-05T11:07:24Z</time>
      </trkpt>
      <trkpt lat="43.49472" lon="6.62709">
        <ele>19</ele>
        <time>2023-11-05T11:07:25Z</time>
      </trkpt>
      <trkpt lat="43.49472" lon="6.62709">
        <ele>18.9</ele>
        <time>2023-11-05T11:07:26Z</time>
      </trkpt>
      <trkpt lat="43.49472" lon="6.62709">
        <ele>18.8</ele>
        <time>2023-11-05T11:07:27Z</time>
      </trkpt>
      <trkpt lat="43.49472" lon="6.62709">
        <ele>18.7</ele>
        <time>2023-11-05T11:07:28Z</time>
      </trkpt>
      <trkpt lat="43.49472" lon="6.62709">
        <ele>18.8</ele>
        <time>2023-11-05T11:07:29Z</time>
      </trkpt>
      <trkpt lat="43.49472" lon="6.62709">
        <ele>18.8</ele>
        <time>2023-11-05T11:07:30Z</time>
      </trkpt>
      <trkpt lat="43.49472" lon="6.62709">
        <ele>18.8</ele>
        <time>2023-11-05T11:07:31Z</time>
      </trkpt>
      <trkpt lat="43.49472" lon="6.62709">
        <ele>18.9</ele>
        <time>2023-11-05T11:07:32Z</time>
      </trkpt>
      <trkpt lat="43.49472" lon="6.62709">
        <ele>18.9</ele>
        <time>2023-11-05T11:07:33Z</time>
      </trkpt>
      <trkpt lat="43.49472" lon="6.62709">
        <ele>18.9</ele>
        <time>2023-11-05T11:07:34Z</time>
      </trkpt>
      <trkpt lat="43.49471" lon="6.62709">
        <ele>18.8</ele>
        <time>2023-11-05T11:07:35Z</time>
      </trkpt>
      <trkpt lat="43.49471" lon="6.62709">
        <ele>18.8</ele>
        <time>2023-11-05T11:07:36Z</time>
      </trkpt>
      <trkpt lat="43.49471" lon="6.62709">
        <ele>18.8</ele>
        <time>2023-11-05T11:07:37Z</time>
      </trkpt>
      <trkpt lat="43.49471" lon="6.62709">
        <ele>18.8</ele>
        <time>2023-11-05T11:07:38Z</time>
      </trkpt>
      <trkpt lat="43.49471" lon="6.62709">
        <ele>18.7</ele>
        <time>2023-11-05T11:07:39Z</time>
      </trkpt>
      <trkpt lat="43.49471" lon="6.62709">
        <ele>18.7</ele>
        <time>2023-11-05T11:07:40Z</time>
      </trkpt>
      <trkpt lat="43.49471" lon="6.6271">
        <ele>18.7</ele>
        <time>2023-11-05T11:07:41Z</time>
      </trkpt>
      <trkpt lat="43.49471" lon="6.6271">
        <ele>18.8</ele>
        <time>2023-11-05T11:07:42Z</time>
      </trkpt>
      <trkpt lat="43.49471" lon="6.6271">
        <ele>18.8</ele>
        <time>2023-11-05T11:07:43Z</time>
      </trkpt>
      <trkpt lat="43.49471" lon="6.62709">
        <ele>18.7</ele>
        <time>2023-11-05T11:07:44Z</time>
      </trkpt>
      <trkpt lat="43.49471" lon="6.6271">
        <ele>18.7</ele>
        <time>2023-11-05T11:07:45Z</time>
      </trkpt>
      <trkpt lat="43.49471" lon="6.6271">
        <ele>18.7</ele>
        <time>2023-11-05T11:07:46Z</time>
      </trkpt>
      <trkpt lat="43.4947" lon="6.62711">
        <ele>18.7</ele>
        <time>2023-11-05T11:07:47Z</time>
      </trkpt>
      <trkpt lat="43.4947" lon="6.62712">
        <ele>18.6</ele>
        <time>2023-11-05T11:07:48Z</time>
      </trkpt>
      <trkpt lat="43.49469" lon="6.62713">
        <ele>18.6</ele>
        <time>2023-11-05T11:07:49Z</time>
      </trkpt>
      <trkpt lat="43.49469" lon="6.62715">
        <ele>18.6</ele>
        <time>2023-11-05T11:07:50Z</time>
      </trkpt>
      <trkpt lat="43.49468" lon="6.62716">
        <ele>18.6</ele>
        <time>2023-11-05T11:07:51Z</time>
      </trkpt>
      <trkpt lat="43.49468" lon="6.62717">
        <ele>18.8</ele>
        <time>2023-11-05T11:07:52Z</time>
      </trkpt>
      <trkpt lat="43.49467" lon="6.62718">
        <ele>19</ele>
        <time>2023-11-05T11:07:53Z</time>
      </trkpt>
      <trkpt lat="43.49467" lon="6.6272">
        <ele>19.1</ele>
        <time>2023-11-05T11:07:54Z</time>
      </trkpt>
      <trkpt lat="43.49467" lon="6.62722">
        <ele>19.4</ele>
        <time>2023-11-05T11:07:55Z</time>
      </trkpt>
      <trkpt lat="43.49466" lon="6.62722">
        <ele>19.6</ele>
        <time>2023-11-05T11:07:56Z</time>
      </trkpt>
      <trkpt lat="43.49466" lon="6.62723">
        <ele>19.7</ele>
        <time>2023-11-05T11:07:57Z</time>
      </trkpt>
      <trkpt lat="43.49466" lon="6.62722">
        <ele>19.7</ele>
        <time>2023-11-05T11:07:58Z</time>
      </trkpt>
      <trkpt lat="43.49466" lon="6.62723">
        <ele>19.8</ele>
        <time>2023-11-05T11:07:59Z</time>
      </trkpt>
      <trkpt lat="43.49466" lon="6.62723">
        <ele>19.8</ele>
        <time>2023-11-05T11:08:00Z</time>
      </trkpt>
      <trkpt lat="43.49466" lon="6.62723">
        <ele>19.7</ele>
        <time>2023-11-05T11:08:01Z</time>
      </trkpt>
      <trkpt lat="43.49466" lon="6.62723">
        <ele>19.8</ele>
        <time>2023-11-05T11:08:02Z</time>
      </trkpt>
      <trkpt lat="43.49467" lon="6.62723">
        <ele>20</ele>
        <time>2023-11-05T11:08:03Z</time>
      </trkpt>
      <trkpt lat="43.49467" lon="6.62723">
        <ele>20.1</ele>
        <time>2023-11-05T11:08:04Z</time>
      </trkpt>
      <trkpt lat="43.49467" lon="6.62723">
        <ele>20.2</ele>
        <time>2023-11-05T11:08:05Z</time>
      </trkpt>
      <trkpt lat="43.49467" lon="6.62722">
        <ele>20.3</ele>
        <time>2023-11-05T11:08:06Z</time>
      </trkpt>
      <trkpt lat="43.49468" lon="6.62721">
        <ele>20.4</ele>
        <time>2023-11-05T11:08:07Z</time>
      </trkpt>
      <trkpt lat="43.49469" lon="6.6272">
        <ele>20.3</ele>
        <time>2023-11-05T11:08:08Z</time>
      </trkpt>
      <trkpt lat="43.4947" lon="6.62719">
        <ele>20.2</ele>
        <time>2023-11-05T11:08:09Z</time>
      </trkpt>
      <trkpt lat="43.4947" lon="6.62717">
        <ele>20.2</ele>
        <time>2023-11-05T11:08:10Z</time>
      </trkpt>
      <trkpt lat="43.49471" lon="6.62716">
        <ele>20.2</ele>
        <time>2023-11-05T11:08:11Z</time>
      </trkpt>
      <trkpt lat="43.49471" lon="6.62716">
        <ele>20.2</ele>
        <time>2023-11-05T11:08:12Z</time>
      </trkpt>
      <trkpt lat="43.49472" lon="6.62715">
        <ele>20.2</ele>
        <time>2023-11-05T11:08:13Z</time>
      </trkpt>
      <trkpt lat="43.49472" lon="6.62715">
        <ele>20.1</ele>
        <time>2023-11-05T11:08:14Z</time>
      </trkpt>
      <trkpt lat="43.49472" lon="6.62715">
        <ele>20.1</ele>
        <time>2023-11-05T11:08:15Z</time>
      </trkpt>
      <trkpt lat="43.49472" lon="6.62715">
        <ele>20</ele>
        <time>2023-11-05T11:08:16Z</time>
      </trkpt>
      <trkpt lat="43.49472" lon="6.62715">
        <ele>20</ele>
        <time>2023-11-05T11:08:17Z</time>
      </trkpt>
      <trkpt lat="43.49472" lon="6.62715">
        <ele>20</ele>
        <time>2023-11-05T11:08:18Z</time>
      </trkpt>
      <trkpt lat="43.49472" lon="6.62715">
        <ele>20</ele>
        <time>2023-11-05T11:08:19Z</time>
      </trkpt>
      <trkpt lat="43.49472" lon="6.62715">
        <ele>20</ele>
        <time>2023-11-05T11:08:20Z</time>
      </trkpt>
      <trkpt lat="43.49473" lon="6.62716">
        <ele>19.9</ele>
        <time>2023-11-05T11:08:21Z</time>
      </trkpt>
      <trkpt lat="43.49473" lon="6.62716">
        <ele>19.8</ele>
        <time>2023-11-05T11:08:22Z</time>
      </trkpt>
      <trkpt lat="43.49473" lon="6.62716">
        <ele>19.7</ele>
        <time>2023-11-05T11:08:23Z</time>
      </trkpt>
      <trkpt lat="43.49473" lon="6.62716">
        <ele>19.7</ele>
        <time>2023-11-05T11:08:24Z</time>
      </trkpt>
      <trkpt lat="43.49473" lon="6.62716">
        <ele>19.6</ele>
        <time>2023-11-05T11:08:25Z</time>
      </trkpt>
      <trkpt lat="43.49473" lon="6.62716">
        <ele>19.5</ele>
        <time>2023-11-05T11:08:26Z</time>
      </trkpt>
      <trkpt lat="43.49473" lon="6.62716">
        <ele>19.4</ele>
        <time>2023-11-05T11:08:27Z</time>
      </trkpt>
      <trkpt lat="43.49474" lon="6.62716">
        <ele>19.4</ele>
        <time>2023-11-05T11:08:28Z</time>
      </trkpt>
      <trkpt lat="43.49474" lon="6.62716">
        <ele>19.3</ele>
        <time>2023-11-05T11:08:29Z</time>
      </trkpt>
      <trkpt lat="43.49474" lon="6.62717">
        <ele>19.3</ele>
        <time>2023-11-05T11:08:30Z</time>
      </trkpt>
      <trkpt lat="43.49474" lon="6.62717">
        <ele>19.4</ele>
        <time>2023-11-05T11:08:31Z</time>
      </trkpt>
      <trkpt lat="43.49474" lon="6.62717">
        <ele>19.5</ele>
        <time>2023-11-05T11:08:32Z</time>
      </trkpt>
      <trkpt lat="43.49474" lon="6.62717">
        <ele>19.5</ele>
        <time>2023-11-05T11:08:33Z</time>
      </trkpt>
      <trkpt lat="43.49474" lon="6.62717">
        <ele>19.5</ele>
        <time>2023-11-05T11:08:34Z</time>
      </trkpt>
      <trkpt lat="43.49473" lon="6.62717">
        <ele>19.5</ele>
        <time>2023-11-05T11:08:35Z</time>
      </trkpt>
      <trkpt lat="43.49473" lon="6.62717">
        <ele>19.5</ele>
        <time>2023-11-05T11:08:36Z</time>
      </trkpt>
      <trkpt lat="43.49472" lon="6.62718">
        <ele>19.4</ele>
        <time>2023-11-05T11:08:37Z</time>
      </trkpt>
      <trkpt lat="43.49472" lon="6.62718">
        <ele>19.4</ele>
        <time>2023-11-05T11:08:38Z</time>
      </trkpt>
      <trkpt lat="43.49472" lon="6.62718">
        <ele>19.4</ele>
        <time>2023-11-05T11:08:39Z</time>
      </trkpt>
      <trkpt lat="43.49472" lon="6.62718">
        <ele>19.4</ele>
        <time>2023-11-05T11:08:40Z</time>
      </trkpt>
      <trkpt lat="43.49472" lon="6.62718">
        <ele>19.3</ele>
        <time>2023-11-05T11:08:41Z</time>
      </trkpt>
      <trkpt lat="43.49471" lon="6.62718">
        <ele>19.1</ele>
        <time>2023-11-05T11:08:42Z</time>
      </trkpt>
      <trkpt lat="43.49471" lon="6.62719">
        <ele>19</ele>
        <time>2023-11-05T11:08:43Z</time>
      </trkpt>
      <trkpt lat="43.49471" lon="6.6272">
        <ele>18.9</ele>
        <time>2023-11-05T11:08:44Z</time>
      </trkpt>
      <trkpt lat="43.4947" lon="6.62721">
        <ele>18.7</ele>
        <time>2023-11-05T11:08:45Z</time>
      </trkpt>
      <trkpt lat="43.49469" lon="6.62723">
        <ele>18.6</ele>
        <time>2023-11-05T11:08:46Z</time>
      </trkpt>
      <trkpt lat="43.49469" lon="6.62724">
        <ele>18.6</ele>
        <time>2023-11-05T11:08:47Z</time>
      </trkpt>
      <trkpt lat="43.49468" lon="6.62725">
        <ele>18.5</ele>
        <time>2023-11-05T11:08:48Z</time>
      </trkpt>
      <trkpt lat="43.49468" lon="6.62726">
        <ele>18.6</ele>
        <time>2023-11-05T11:08:49Z</time>
      </trkpt>
      <trkpt lat="43.49467" lon="6.62727">
        <ele>18.7</ele>
        <time>2023-11-05T11:08:50Z</time>
      </trkpt>
      <trkpt lat="43.49466" lon="6.62728">
        <ele>18.8</ele>
        <time>2023-11-05T11:08:51Z</time>
      </trkpt>
      <trkpt lat="43.49465" lon="6.62728">
        <ele>19</ele>
        <time>2023-11-05T11:08:52Z</time>
      </trkpt>
      <trkpt lat="43.49465" lon="6.62729">
        <ele>19.2</ele>
        <time>2023-11-05T11:08:53Z</time>
      </trkpt>
      <trkpt lat="43.49465" lon="6.6273">
        <ele>19.4</ele>
        <time>2023-11-05T11:08:54Z</time>
      </trkpt>
      <trkpt lat="43.49465" lon="6.62731">
        <ele>19.6</ele>
        <time>2023-11-05T11:08:55Z</time>
      </trkpt>
      <trkpt lat="43.49465" lon="6.62732">
        <ele>19.9</ele>
        <time>2023-11-05T11:08:56Z</time>
      </trkpt>
      <trkpt lat="43.49464" lon="6.62734">
        <ele>20</ele>
        <time>2023-11-05T11:08:57Z</time>
      </trkpt>
      <trkpt lat="43.49464" lon="6.62735">
        <ele>20.2</ele>
        <time>2023-11-05T11:08:58Z</time>
      </trkpt>
      <trkpt lat="43.49464" lon="6.62736">
        <ele>20.4</ele>
        <time>2023-11-05T11:08:59Z</time>
      </trkpt>
      <trkpt lat="43.49464" lon="6.62738">
        <ele>20.6</ele>
        <time>2023-11-05T11:09:00Z</time>
      </trkpt>
      <trkpt lat="43.49463" lon="6.62739">
        <ele>20.8</ele>
        <time>2023-11-05T11:09:01Z</time>
      </trkpt>
      <trkpt lat="43.49463" lon="6.6274">
        <ele>20.9</ele>
        <time>2023-11-05T11:09:02Z</time>
      </trkpt>
      <trkpt lat="43.49462" lon="6.62741">
        <ele>21.1</ele>
        <time>2023-11-05T11:09:03Z</time>
      </trkpt>
      <trkpt lat="43.49462" lon="6.62743">
        <ele>21.2</ele>
        <time>2023-11-05T11:09:04Z</time>
      </trkpt>
      <trkpt lat="43.49461" lon="6.62744">
        <ele>21.3</ele>
        <time>2023-11-05T11:09:05Z</time>
      </trkpt>
      <trkpt lat="43.49461" lon="6.62745">
        <ele>21.4</ele>
        <time>2023-11-05T11:09:06Z</time>
      </trkpt>
      <trkpt lat="43.49461" lon="6.62747">
        <ele>21.6</ele>
        <time>2023-11-05T11:09:07Z</time>
      </trkpt>
      <trkpt lat="43.4946" lon="6.62748">
        <ele>21.8</ele>
        <time>2023-11-05T11:09:08Z</time>
      </trkpt>
      <trkpt lat="43.4946" lon="6.62748">
        <ele>21.9</ele>
        <time>2023-11-05T11:09:09Z</time>
      </trkpt>
      <trkpt lat="43.49459" lon="6.62749">
        <ele>22.1</ele>
        <time>2023-11-05T11:09:10Z</time>
      </trkpt>
      <trkpt lat="43.49459" lon="6.6275">
        <ele>22.3</ele>
        <time>2023-11-05T11:09:11Z</time>
      </trkpt>
      <trkpt lat="43.49458" lon="6.62751">
        <ele>22.6</ele>
        <time>2023-11-05T11:09:12Z</time>
      </trkpt>
      <trkpt lat="43.49457" lon="6.62752">
        <ele>22.9</ele>
        <time>2023-11-05T11:09:13Z</time>
      </trkpt>
      <trkpt lat="43.49456" lon="6.62752">
        <ele>23.1</ele>
        <time>2023-11-05T11:09:14Z</time>
      </trkpt>
      <trkpt lat="43.49456" lon="6.62753">
        <ele>23.3</ele>
        <time>2023-11-05T11:09:15Z</time>
      </trkpt>
      <trkpt lat="43.49456" lon="6.62755">
        <ele>23.4</ele>
        <time>2023-11-05T11:09:16Z</time>
      </trkpt>
      <trkpt lat="43.49455" lon="6.62755">
        <ele>23.6</ele>
        <time>2023-11-05T11:09:17Z</time>
      </trkpt>
      <trkpt lat="43.49454" lon="6.62756">
        <ele>23.8</ele>
        <time>2023-11-05T11:09:18Z</time>
      </trkpt>
      <trkpt lat="43.49454" lon="6.62757">
        <ele>24</ele>
        <time>2023-11-05T11:09:19Z</time>
      </trkpt>
      <trkpt lat="43.49453" lon="6.62759">
        <ele>24.2</ele>
        <time>2023-11-05T11:09:20Z</time>
      </trkpt>
      <trkpt lat="43.49452" lon="6.6276">
        <ele>24.4</ele>
        <time>2023-11-05T11:09:21Z</time>
      </trkpt>
      <trkpt lat="43.49452" lon="6.62761">
        <ele>24.5</ele>
        <time>2023-11-05T11:09:22Z</time>
      </trkpt>
      <trkpt lat="43.49451" lon="6.62761">
        <ele>24.7</ele>
        <time>2023-11-05T11:09:23Z</time>
      </trkpt>
      <trkpt lat="43.4945" lon="6.62762">
        <ele>24.9</ele>
        <time>2023-11-05T11:09:24Z</time>
      </trkpt>
      <trkpt lat="43.49449" lon="6.62762">
        <ele>25</ele>
        <time>2023-11-05T11:09:25Z</time>
      </trkpt>
      <trkpt lat="43.49448" lon="6.62763">
        <ele>25.2</ele>
        <time>2023-11-05T11:09:26Z</time>
      </trkpt>
      <trkpt lat="43.49447" lon="6.62763">
        <ele>25.5</ele>
        <time>2023-11-05T11:09:27Z</time>
      </trkpt>
      <trkpt lat="43.49447" lon="6.62764">
        <ele>25.7</ele>
        <time>2023-11-05T11:09:28Z</time>
      </trkpt>
      <trkpt lat="43.49446" lon="6.62765">
        <ele>25.9</ele>
        <time>2023-11-05T11:09:29Z</time>
      </trkpt>
      <trkpt lat="43.49445" lon="6.62765">
        <ele>26.2</ele>
        <time>2023-11-05T11:09:30Z</time>
      </trkpt>
      <trkpt lat="43.49445" lon="6.62766">
        <ele>26.3</ele>
        <time>2023-11-05T11:09:31Z</time>
      </trkpt>
      <trkpt lat="43.49444" lon="6.62767">
        <ele>26.5</ele>
        <time>2023-11-05T11:09:32Z</time>
      </trkpt>
      <trkpt lat="43.49443" lon="6.62768">
        <ele>26.8</ele>
        <time>2023-11-05T11:09:33Z</time>
      </trkpt>
      <trkpt lat="43.49443" lon="6.62769">
        <ele>27.1</ele>
        <time>2023-11-05T11:09:34Z</time>
      </trkpt>
      <trkpt lat="43.49442" lon="6.62769">
        <ele>27.2</ele>
        <time>2023-11-05T11:09:35Z</time>
      </trkpt>
      <trkpt lat="43.49442" lon="6.6277">
        <ele>27.5</ele>
        <time>2023-11-05T11:09:36Z</time>
      </trkpt>
      <trkpt lat="43.49441" lon="6.62772">
        <ele>27.7</ele>
        <time>2023-11-05T11:09:37Z</time>
      </trkpt>
      <trkpt lat="43.49441" lon="6.62773">
        <ele>27.9</ele>
        <time>2023-11-05T11:09:38Z</time>
      </trkpt>
      <trkpt lat="43.4944" lon="6.62773">
        <ele>28.1</ele>
        <time>2023-11-05T11:09:39Z</time>
      </trkpt>
      <trkpt lat="43.49439" lon="6.62774">
        <ele>28.4</ele>
        <time>2023-11-05T11:09:40Z</time>
      </trkpt>
      <trkpt lat="43.49439" lon="6.62775">
        <ele>28.7</ele>
        <time>2023-11-05T11:09:41Z</time>
      </trkpt>
      <trkpt lat="43.49438" lon="6.62776">
        <ele>28.9</ele>
        <time>2023-11-05T11:09:42Z</time>
      </trkpt>
      <trkpt lat="43.49438" lon="6.62777">
        <ele>29.1</ele>
        <time>2023-11-05T11:09:43Z</time>
      </trkpt>
      <trkpt lat="43.49437" lon="6.62778">
        <ele>29.2</ele>
        <time>2023-11-05T11:09:44Z</time>
      </trkpt>
      <trkpt lat="43.49436" lon="6.62779">
        <ele>29.3</ele>
        <time>2023-11-05T11:09:45Z</time>
      </trkpt>
      <trkpt lat="43.49436" lon="6.62781">
        <ele>29.5</ele>
        <time>2023-11-05T11:09:46Z</time>
      </trkpt>
      <trkpt lat="43.49436" lon="6.62782">
        <ele>29.6</ele>
        <time>2023-11-05T11:09:47Z</time>
      </trkpt>
      <trkpt lat="43.49436" lon="6.62783">
        <ele>29.5</ele>
        <time>2023-11-05T11:09:48Z</time>
      </trkpt>
      <trkpt lat="43.49436" lon="6.62784">
        <ele>29.6</ele>
        <time>2023-11-05T11:09:49Z</time>
      </trkpt>
      <trkpt lat="43.49436" lon="6.62785">
        <ele>29.7</ele>
        <time>2023-11-05T11:09:50Z</time>
      </trkpt>
      <trkpt lat="43.49436" lon="6.62786">
        <ele>29.8</ele>
        <time>2023-11-05T11:09:51Z</time>
      </trkpt>
      <trkpt lat="43.49436" lon="6.62788">
        <ele>29.8</ele>
        <time>2023-11-05T11:09:52Z</time>
      </trkpt>
      <trkpt lat="43.49436" lon="6.62789">
        <ele>29.9</ele>
        <time>2023-11-05T11:09:53Z</time>
      </trkpt>
      <trkpt lat="43.49435" lon="6.6279">
        <ele>30</ele>
        <time>2023-11-05T11:09:54Z</time>
      </trkpt>
      <trkpt lat="43.49435" lon="6.62791">
        <ele>30</ele>
        <time>2023-11-05T11:09:55Z</time>
      </trkpt>
      <trkpt lat="43.49435" lon="6.62793">
        <ele>30</ele>
        <time>2023-11-05T11:09:56Z</time>
      </trkpt>
      <trkpt lat="43.49435" lon="6.62794">
        <ele>30</ele>
        <time>2023-11-05T11:09:57Z</time>
      </trkpt>
      <trkpt lat="43.49435" lon="6.62795">
        <ele>29.9</ele>
        <time>2023-11-05T11:09:58Z</time>
      </trkpt>
      <trkpt lat="43.49434" lon="6.62796">
        <ele>30</ele>
        <time>2023-11-05T11:09:59Z</time>
      </trkpt>
      <trkpt lat="43.49434" lon="6.62798">
        <ele>30.2</ele>
        <time>2023-11-05T11:10:00Z</time>
      </trkpt>
      <trkpt lat="43.49434" lon="6.628">
        <ele>30.5</ele>
        <time>2023-11-05T11:10:01Z</time>
      </trkpt>
      <trkpt lat="43.49434" lon="6.62801">
        <ele>30.7</ele>
        <time>2023-11-05T11:10:02Z</time>
      </trkpt>
      <trkpt lat="43.49434" lon="6.62802">
        <ele>30.9</ele>
        <time>2023-11-05T11:10:03Z</time>
      </trkpt>
      <trkpt lat="43.49434" lon="6.62804">
        <ele>31.2</ele>
        <time>2023-11-05T11:10:04Z</time>
      </trkpt>
      <trkpt lat="43.49434" lon="6.62805">
        <ele>31.4</ele>
        <time>2023-11-05T11:10:05Z</time>
      </trkpt>
      <trkpt lat="43.49433" lon="6.62807">
        <ele>31.5</ele>
        <time>2023-11-05T11:10:06Z</time>
      </trkpt>
      <trkpt lat="43.49433" lon="6.62809">
        <ele>31.7</ele>
        <time>2023-11-05T11:10:07Z</time>
      </trkpt>
      <trkpt lat="43.49433" lon="6.6281">
        <ele>31.8</ele>
        <time>2023-11-05T11:10:08Z</time>
      </trkpt>
      <trkpt lat="43.49433" lon="6.62812">
        <ele>31.9</ele>
        <time>2023-11-05T11:10:09Z</time>
      </trkpt>
      <trkpt lat="43.49433" lon="6.62813">
        <ele>31.9</ele>
        <time>2023-11-05T11:10:10Z</time>
      </trkpt>
      <trkpt lat="43.49433" lon="6.62814">
        <ele>32</ele>
        <time>2023-11-05T11:10:11Z</time>
      </trkpt>
      <trkpt lat="43.49433" lon="6.62816">
        <ele>32</ele>
        <time>2023-11-05T11:10:12Z</time>
      </trkpt>
      <trkpt lat="43.49432" lon="6.62818">
        <ele>32</ele>
        <time>2023-11-05T11:10:13Z</time>
      </trkpt>
      <trkpt lat="43.49433" lon="6.62819">
        <ele>32.1</ele>
        <time>2023-11-05T11:10:14Z</time>
      </trkpt>
      <trkpt lat="43.49433" lon="6.6282">
        <ele>32.1</ele>
        <time>2023-11-05T11:10:15Z</time>
      </trkpt>
      <trkpt lat="43.49433" lon="6.62821">
        <ele>32.2</ele>
        <time>2023-11-05T11:10:16Z</time>
      </trkpt>
      <trkpt lat="43.49433" lon="6.62822">
        <ele>32.3</ele>
        <time>2023-11-05T11:10:17Z</time>
      </trkpt>
      <trkpt lat="43.49433" lon="6.62822">
        <ele>32.5</ele>
        <time>2023-11-05T11:10:18Z</time>
      </trkpt>
      <trkpt lat="43.49433" lon="6.62823">
        <ele>32.5</ele>
        <time>2023-11-05T11:10:19Z</time>
      </trkpt>
      <trkpt lat="43.49433" lon="6.62823">
        <ele>32.6</ele>
        <time>2023-11-05T11:10:20Z</time>
      </trkpt>
      <trkpt lat="43.49433" lon="6.62823">
        <ele>32.8</ele>
        <time>2023-11-05T11:10:21Z</time>
      </trkpt>
      <trkpt lat="43.49433" lon="6.62823">
        <ele>32.9</ele>
        <time>2023-11-05T11:10:22Z</time>
      </trkpt>
      <trkpt lat="43.49434" lon="6.62823">
        <ele>33</ele>
        <time>2023-11-05T11:10:23Z</time>
      </trkpt>
      <trkpt lat="43.49434" lon="6.62824">
        <ele>33</ele>
        <time>2023-11-05T11:10:24Z</time>
      </trkpt>
      <trkpt lat="43.49435" lon="6.62824">
        <ele>33.1</ele>
        <time>2023-11-05T11:10:25Z</time>
      </trkpt>
      <trkpt lat="43.49435" lon="6.62824">
        <ele>33</ele>
        <time>2023-11-05T11:10:26Z</time>
      </trkpt>
      <trkpt lat="43.49435" lon="6.62824">
        <ele>33</ele>
        <time>2023-11-05T11:10:27Z</time>
      </trkpt>
      <trkpt lat="43.49435" lon="6.62825">
        <ele>32.9</ele>
        <time>2023-11-05T11:10:28Z</time>
      </trkpt>
      <trkpt lat="43.49435" lon="6.62825">
        <ele>32.9</ele>
        <time>2023-11-05T11:10:29Z</time>
      </trkpt>
      <trkpt lat="43.49435" lon="6.62825">
        <ele>32.7</ele>
        <time>2023-11-05T11:10:30Z</time>
      </trkpt>
      <trkpt lat="43.49436" lon="6.62825">
        <ele>32.6</ele>
        <time>2023-11-05T11:10:31Z</time>
      </trkpt>
      <trkpt lat="43.49436" lon="6.62825">
        <ele>32.5</ele>
        <time>2023-11-05T11:10:32Z</time>
      </trkpt>
      <trkpt lat="43.49436" lon="6.62825">
        <ele>32.4</ele>
        <time>2023-11-05T11:10:33Z</time>
      </trkpt>
      <trkpt lat="43.49436" lon="6.62825">
        <ele>32.5</ele>
        <time>2023-11-05T11:10:34Z</time>
      </trkpt>
      <trkpt lat="43.49436" lon="6.62825">
        <ele>32.5</ele>
        <time>2023-11-05T11:10:35Z</time>
      </trkpt>
      <trkpt lat="43.49436" lon="6.62826">
        <ele>32.6</ele>
        <time>2023-11-05T11:10:36Z</time>
      </trkpt>
      <trkpt lat="43.49437" lon="6.62826">
        <ele>32.6</ele>
        <time>2023-11-05T11:10:37Z</time>
      </trkpt>
      <trkpt lat="43.49437" lon="6.62826">
        <ele>32.6</ele>
        <time>2023-11-05T11:10:38Z</time>
      </trkpt>
      <trkpt lat="43.49437" lon="6.62826">
        <ele>32.6</ele>
        <time>2023-11-05T11:10:39Z</time>
      </trkpt>
      <trkpt lat="43.49437" lon="6.62826">
        <ele>32.7</ele>
        <time>2023-11-05T11:10:40Z</time>
      </trkpt>
      <trkpt lat="43.49437" lon="6.62826">
        <ele>32.7</ele>
        <time>2023-11-05T11:10:41Z</time>
      </trkpt>
      <trkpt lat="43.49436" lon="6.62826">
        <ele>32.8</ele>
        <time>2023-11-05T11:10:42Z</time>
      </trkpt>
      <trkpt lat="43.49436" lon="6.62827">
        <ele>33</ele>
        <time>2023-11-05T11:10:43Z</time>
      </trkpt>
      <trkpt lat="43.49436" lon="6.62827">
        <ele>33.1</ele>
        <time>2023-11-05T11:10:44Z</time>
      </trkpt>
      <trkpt lat="43.49437" lon="6.62827">
        <ele>33.2</ele>
        <time>2023-11-05T11:10:45Z</time>
      </trkpt>
      <trkpt lat="43.49437" lon="6.62827">
        <ele>33.3</ele>
        <time>2023-11-05T11:10:46Z</time>
      </trkpt>
      <trkpt lat="43.49437" lon="6.62827">
        <ele>33.3</ele>
        <time>2023-11-05T11:10:47Z</time>
      </trkpt>
      <trkpt lat="43.49437" lon="6.62827">
        <ele>33.4</ele>
        <time>2023-11-05T11:10:48Z</time>
      </trkpt>
      <trkpt lat="43.49437" lon="6.62827">
        <ele>33.5</ele>
        <time>2023-11-05T11:10:49Z</time>
      </trkpt>
      <trkpt lat="43.49437" lon="6.62827">
        <ele>33.4</ele>
        <time>2023-11-05T11:10:50Z</time>
      </trkpt>
      <trkpt lat="43.49437" lon="6.62827">
        <ele>33.4</ele>
        <time>2023-11-05T11:10:51Z</time>
      </trkpt>
      <trkpt lat="43.49438" lon="6.62827">
        <ele>33.2</ele>
        <time>2023-11-05T11:10:52Z</time>
      </trkpt>
      <trkpt lat="43.49437" lon="6.62827">
        <ele>33.1</ele>
        <time>2023-11-05T11:10:53Z</time>
      </trkpt>
      <trkpt lat="43.49437" lon="6.62827">
        <ele>33</ele>
        <time>2023-11-05T11:10:54Z</time>
      </trkpt>
      <trkpt lat="43.49437" lon="6.62827">
        <ele>33</ele>
        <time>2023-11-05T11:10:55Z</time>
      </trkpt>
      <trkpt lat="43.49437" lon="6.62827">
        <ele>33.2</ele>
        <time>2023-11-05T11:10:56Z</time>
      </trkpt>
      <trkpt lat="43.49437" lon="6.62827">
        <ele>33.1</ele>
        <time>2023-11-05T11:10:57Z</time>
      </trkpt>
      <trkpt lat="43.49437" lon="6.62827">
        <ele>33</ele>
        <time>2023-11-05T11:10:58Z</time>
      </trkpt>
      <trkpt lat="43.49437" lon="6.62827">
        <ele>33</ele>
        <time>2023-11-05T11:10:59Z</time>
      </trkpt>
      <trkpt lat="43.49437" lon="6.62827">
        <ele>32.9</ele>
        <time>2023-11-05T11:11:00Z</time>
      </trkpt>
      <trkpt lat="43.49437" lon="6.62827">
        <ele>32.8</ele>
        <time>2023-11-05T11:11:01Z</time>
      </trkpt>
      <trkpt lat="43.49437" lon="6.62827">
        <ele>32.7</ele>
        <time>2023-11-05T11:11:02Z</time>
      </trkpt>
      <trkpt lat="43.49438" lon="6.62827">
        <ele>32.7</ele>
        <time>2023-11-05T11:11:03Z</time>
      </trkpt>
      <trkpt lat="43.49437" lon="6.62827">
        <ele>32.7</ele>
        <time>2023-11-05T11:11:04Z</time>
      </trkpt>
      <trkpt lat="43.49437" lon="6.62827">
        <ele>32.7</ele>
        <time>2023-11-05T11:11:05Z</time>
      </trkpt>
      <trkpt lat="43.49437" lon="6.62827">
        <ele>32.7</ele>
        <time>2023-11-05T11:11:06Z</time>
      </trkpt>
      <trkpt lat="43.49437" lon="6.62827">
        <ele>32.7</ele>
        <time>2023-11-05T11:11:07Z</time>
      </trkpt>
      <trkpt lat="43.49437" lon="6.62827">
        <ele>32.7</ele>
        <time>2023-11-05T11:11:08Z</time>
      </trkpt>
      <trkpt lat="43.49437" lon="6.62827">
        <ele>32.6</ele>
        <time>2023-11-05T11:11:09Z</time>
      </trkpt>
      <trkpt lat="43.49438" lon="6.62827">
        <ele>32.8</ele>
        <time>2023-11-05T11:11:10Z</time>
      </trkpt>
      <trkpt lat="43.49438" lon="6.62827">
        <ele>32.8</ele>
        <time>2023-11-05T11:11:11Z</time>
      </trkpt>
      <trkpt lat="43.49438" lon="6.62827">
        <ele>32.8</ele>
        <time>2023-11-05T11:11:12Z</time>
      </trkpt>
      <trkpt lat="43.49438" lon="6.62827">
        <ele>32.8</ele>
        <time>2023-11-05T11:11:13Z</time>
      </trkpt>
      <trkpt lat="43.49437" lon="6.62827">
        <ele>32.8</ele>
        <time>2023-11-05T11:11:14Z</time>
      </trkpt>
      <trkpt lat="43.49437" lon="6.62827">
        <ele>32.8</ele>
        <time>2023-11-05T11:11:15Z</time>
      </trkpt>
      <trkpt lat="43.49437" lon="6.62827">
        <ele>32.8</ele>
        <time>2023-11-05T11:11:16Z</time>
      </trkpt>
      <trkpt lat="43.49438" lon="6.62826">
        <ele>32.9</ele>
        <time>2023-11-05T11:11:17Z</time>
      </trkpt>
      <trkpt lat="43.49438" lon="6.62827">
        <ele>32.8</ele>
        <time>2023-11-05T11:11:18Z</time>
      </trkpt>
      <trkpt lat="43.49438" lon="6.62827">
        <ele>32.8</ele>
        <time>2023-11-05T11:11:19Z</time>
      </trkpt>
      <trkpt lat="43.49438" lon="6.62826">
        <ele>32.8</ele>
        <time>2023-11-05T11:11:20Z</time>
      </trkpt>
      <trkpt lat="43.49438" lon="6.62826">
        <ele>32.8</ele>
        <time>2023-11-05T11:11:21Z</time>
      </trkpt>
      <trkpt lat="43.49438" lon="6.62826">
        <ele>32.9</ele>
        <time>2023-11-05T11:11:22Z</time>
      </trkpt>
      <trkpt lat="43.49437" lon="6.62827">
        <ele>32.8</ele>
        <time>2023-11-05T11:11:23Z</time>
      </trkpt>
      <trkpt lat="43.49437" lon="6.62827">
        <ele>32.7</ele>
        <time>2023-11-05T11:11:24Z</time>
      </trkpt>
      <trkpt lat="43.49437" lon="6.62828">
        <ele>32.8</ele>
        <time>2023-11-05T11:11:25Z</time>
      </trkpt>
      <trkpt lat="43.49437" lon="6.62829">
        <ele>32.8</ele>
        <time>2023-11-05T11:11:26Z</time>
      </trkpt>
      <trkpt lat="43.49438" lon="6.62831">
        <ele>32.7</ele>
        <time>2023-11-05T11:11:27Z</time>
      </trkpt>
      <trkpt lat="43.49438" lon="6.62832">
        <ele>32.6</ele>
        <time>2023-11-05T11:11:28Z</time>
      </trkpt>
      <trkpt lat="43.49438" lon="6.62834">
        <ele>32.6</ele>
        <time>2023-11-05T11:11:29Z</time>
      </trkpt>
      <trkpt lat="43.49437" lon="6.62835">
        <ele>32.5</ele>
        <time>2023-11-05T11:11:30Z</time>
      </trkpt>
      <trkpt lat="43.49437" lon="6.62836">
        <ele>32.4</ele>
        <time>2023-11-05T11:11:31Z</time>
      </trkpt>
      <trkpt lat="43.49437" lon="6.62838">
        <ele>32.3</ele>
        <time>2023-11-05T11:11:32Z</time>
      </trkpt>
      <trkpt lat="43.49437" lon="6.62839">
        <ele>32.2</ele>
        <time>2023-11-05T11:11:33Z</time>
      </trkpt>
      <trkpt lat="43.49437" lon="6.6284">
        <ele>32.2</ele>
        <time>2023-11-05T11:11:34Z</time>
      </trkpt>
      <trkpt lat="43.49436" lon="6.62842">
        <ele>32.1</ele>
        <time>2023-11-05T11:11:35Z</time>
      </trkpt>
      <trkpt lat="43.49436" lon="6.62843">
        <ele>32</ele>
        <time>2023-11-05T11:11:36Z</time>
      </trkpt>
      <trkpt lat="43.49435" lon="6.62844">
        <ele>32</ele>
        <time>2023-11-05T11:11:37Z</time>
      </trkpt>
      <trkpt lat="43.49435" lon="6.62845">
        <ele>31.9</ele>
        <time>2023-11-05T11:11:38Z</time>
      </trkpt>
      <trkpt lat="43.49434" lon="6.62847">
        <ele>31.9</ele>
        <time>2023-11-05T11:11:39Z</time>
      </trkpt>
      <trkpt lat="43.49434" lon="6.62848">
        <ele>31.9</ele>
        <time>2023-11-05T11:11:40Z</time>
      </trkpt>
      <trkpt lat="43.49434" lon="6.6285">
        <ele>31.8</ele>
        <time>2023-11-05T11:11:41Z</time>
      </trkpt>
      <trkpt lat="43.49433" lon="6.62851">
        <ele>31.6</ele>
        <time>2023-11-05T11:11:42Z</time>
      </trkpt>
      <trkpt lat="43.49433" lon="6.62852">
        <ele>31.4</ele>
        <time>2023-11-05T11:11:43Z</time>
      </trkpt>
      <trkpt lat="43.49433" lon="6.62854">
        <ele>31.3</ele>
        <time>2023-11-05T11:11:44Z</time>
      </trkpt>
      <trkpt lat="43.49432" lon="6.62856">
        <ele>31.2</ele>
        <time>2023-11-05T11:11:45Z</time>
      </trkpt>
      <trkpt lat="43.49432" lon="6.62857">
        <ele>31</ele>
        <time>2023-11-05T11:11:46Z</time>
      </trkpt>
      <trkpt lat="43.49431" lon="6.62859">
        <ele>30.8</ele>
        <time>2023-11-05T11:11:47Z</time>
      </trkpt>
      <trkpt lat="43.49431" lon="6.6286">
        <ele>30.6</ele>
        <time>2023-11-05T11:11:48Z</time>
      </trkpt>
      <trkpt lat="43.4943" lon="6.62862">
        <ele>30.5</ele>
        <time>2023-11-05T11:11:49Z</time>
      </trkpt>
      <trkpt lat="43.49429" lon="6.62863">
        <ele>30.4</ele>
        <time>2023-11-05T11:11:50Z</time>
      </trkpt>
      <trkpt lat="43.49428" lon="6.62865">
        <ele>30.3</ele>
        <time>2023-11-05T11:11:51Z</time>
      </trkpt>
      <trkpt lat="43.49427" lon="6.62866">
        <ele>30.3</ele>
        <time>2023-11-05T11:11:52Z</time>
      </trkpt>
      <trkpt lat="43.49427" lon="6.62867">
        <ele>30.2</ele>
        <time>2023-11-05T11:11:53Z</time>
      </trkpt>
      <trkpt lat="43.49426" lon="6.62868">
        <ele>30.2</ele>
        <time>2023-11-05T11:11:54Z</time>
      </trkpt>
      <trkpt lat="43.49425" lon="6.6287">
        <ele>30.2</ele>
        <time>2023-11-05T11:11:55Z</time>
      </trkpt>
      <trkpt lat="43.49425" lon="6.62871">
        <ele>30.2</ele>
        <time>2023-11-05T11:11:56Z</time>
      </trkpt>
      <trkpt lat="43.49425" lon="6.62873">
        <ele>30.2</ele>
        <time>2023-11-05T11:11:57Z</time>
      </trkpt>
      <trkpt lat="43.49424" lon="6.62875">
        <ele>30.1</ele>
        <time>2023-11-05T11:11:58Z</time>
      </trkpt>
      <trkpt lat="43.49424" lon="6.62877">
        <ele>30.1</ele>
        <time>2023-11-05T11:11:59Z</time>
      </trkpt>
      <trkpt lat="43.49424" lon="6.62879">
        <ele>30.3</ele>
        <time>2023-11-05T11:12:00Z</time>
      </trkpt>
      <trkpt lat="43.49424" lon="6.6288">
        <ele>30.4</ele>
        <time>2023-11-05T11:12:01Z</time>
      </trkpt>
      <trkpt lat="43.49424" lon="6.62882">
        <ele>30.4</ele>
        <time>2023-11-05T11:12:02Z</time>
      </trkpt>
      <trkpt lat="43.49423" lon="6.62884">
        <ele>30.6</ele>
        <time>2023-11-05T11:12:03Z</time>
      </trkpt>
      <trkpt lat="43.49422" lon="6.62885">
        <ele>30.6</ele>
        <time>2023-11-05T11:12:04Z</time>
      </trkpt>
      <trkpt lat="43.49422" lon="6.62887">
        <ele>30.6</ele>
        <time>2023-11-05T11:12:05Z</time>
      </trkpt>
      <trkpt lat="43.49422" lon="6.62889">
        <ele>30.5</ele>
        <time>2023-11-05T11:12:06Z</time>
      </trkpt>
      <trkpt lat="43.49421" lon="6.6289">
        <ele>30.5</ele>
        <time>2023-11-05T11:12:07Z</time>
      </trkpt>
      <trkpt lat="43.4942" lon="6.62891">
        <ele>30.5</ele>
        <time>2023-11-05T11:12:08Z</time>
      </trkpt>
      <trkpt lat="43.49419" lon="6.62892">
        <ele>30.5</ele>
        <time>2023-11-05T11:12:09Z</time>
      </trkpt>
      <trkpt lat="43.49419" lon="6.62894">
        <ele>30.6</ele>
        <time>2023-11-05T11:12:10Z</time>
      </trkpt>
      <trkpt lat="43.49418" lon="6.62895">
        <ele>30.6</ele>
        <time>2023-11-05T11:12:11Z</time>
      </trkpt>
      <trkpt lat="43.49418" lon="6.62897">
        <ele>30.5</ele>
        <time>2023-11-05T11:12:12Z</time>
      </trkpt>
      <trkpt lat="43.49417" lon="6.62898">
        <ele>30.4</ele>
        <time>2023-11-05T11:12:13Z</time>
      </trkpt>
      <trkpt lat="43.49416" lon="6.62899">
        <ele>30.3</ele>
        <time>2023-11-05T11:12:14Z</time>
      </trkpt>
      <trkpt lat="43.49415" lon="6.629">
        <ele>30.2</ele>
        <time>2023-11-05T11:12:15Z</time>
      </trkpt>
      <trkpt lat="43.49414" lon="6.62901">
        <ele>30.2</ele>
        <time>2023-11-05T11:12:16Z</time>
      </trkpt>
      <trkpt lat="43.49414" lon="6.62901">
        <ele>30.2</ele>
        <time>2023-11-05T11:12:17Z</time>
      </trkpt>
      <trkpt lat="43.49414" lon="6.62903">
        <ele>30.3</ele>
        <time>2023-11-05T11:12:18Z</time>
      </trkpt>
      <trkpt lat="43.49414" lon="6.62905">
        <ele>30.3</ele>
        <time>2023-11-05T11:12:19Z</time>
      </trkpt>
      <trkpt lat="43.49413" lon="6.62907">
        <ele>30.4</ele>
        <time>2023-11-05T11:12:20Z</time>
      </trkpt>
      <trkpt lat="43.49413" lon="6.62909">
        <ele>30.4</ele>
        <time>2023-11-05T11:12:21Z</time>
      </trkpt>
      <trkpt lat="43.49413" lon="6.62911">
        <ele>30.3</ele>
        <time>2023-11-05T11:12:22Z</time>
      </trkpt>
      <trkpt lat="43.49413" lon="6.62912">
        <ele>30.2</ele>
        <time>2023-11-05T11:12:23Z</time>
      </trkpt>
      <trkpt lat="43.49412" lon="6.62914">
        <ele>30.1</ele>
        <time>2023-11-05T11:12:24Z</time>
      </trkpt>
      <trkpt lat="43.49412" lon="6.62915">
        <ele>30</ele>
        <time>2023-11-05T11:12:25Z</time>
      </trkpt>
      <trkpt lat="43.49412" lon="6.62917">
        <ele>29.9</ele>
        <time>2023-11-05T11:12:26Z</time>
      </trkpt>
      <trkpt lat="43.49412" lon="6.62918">
        <ele>29.8</ele>
        <time>2023-11-05T11:12:27Z</time>
      </trkpt>
      <trkpt lat="43.49411" lon="6.62919">
        <ele>29.8</ele>
        <time>2023-11-05T11:12:28Z</time>
      </trkpt>
      <trkpt lat="43.49411" lon="6.62921">
        <ele>29.8</ele>
        <time>2023-11-05T11:12:29Z</time>
      </trkpt>
      <trkpt lat="43.4941" lon="6.62923">
        <ele>29.8</ele>
        <time>2023-11-05T11:12:30Z</time>
      </trkpt>
      <trkpt lat="43.4941" lon="6.62924">
        <ele>29.8</ele>
        <time>2023-11-05T11:12:31Z</time>
      </trkpt>
      <trkpt lat="43.49409" lon="6.62926">
        <ele>29.9</ele>
        <time>2023-11-05T11:12:32Z</time>
      </trkpt>
      <trkpt lat="43.49409" lon="6.62927">
        <ele>30</ele>
        <time>2023-11-05T11:12:33Z</time>
      </trkpt>
      <trkpt lat="43.49409" lon="6.62929">
        <ele>30</ele>
        <time>2023-11-05T11:12:34Z</time>
      </trkpt>
      <trkpt lat="43.49409" lon="6.62931">
        <ele>30</ele>
        <time>2023-11-05T11:12:35Z</time>
      </trkpt>
      <trkpt lat="43.49408" lon="6.62932">
        <ele>30</ele>
        <time>2023-11-05T11:12:36Z</time>
      </trkpt>
      <trkpt lat="43.49409" lon="6.62933">
        <ele>30</ele>
        <time>2023-11-05T11:12:37Z</time>
      </trkpt>
      <trkpt lat="43.49409" lon="6.62935">
        <ele>30.1</ele>
        <time>2023-11-05T11:12:38Z</time>
      </trkpt>
      <trkpt lat="43.49409" lon="6.62936">
        <ele>30.1</ele>
        <time>2023-11-05T11:12:39Z</time>
      </trkpt>
      <trkpt lat="43.49409" lon="6.62938">
        <ele>30.2</ele>
        <time>2023-11-05T11:12:40Z</time>
      </trkpt>
      <trkpt lat="43.49409" lon="6.62939">
        <ele>30.2</ele>
        <time>2023-11-05T11:12:41Z</time>
      </trkpt>
      <trkpt lat="43.49409" lon="6.62941">
        <ele>30.1</ele>
        <time>2023-11-05T11:12:42Z</time>
      </trkpt>
      <trkpt lat="43.49409" lon="6.62943">
        <ele>30.1</ele>
        <time>2023-11-05T11:12:43Z</time>
      </trkpt>
      <trkpt lat="43.49409" lon="6.62944">
        <ele>30.1</ele>
        <time>2023-11-05T11:12:44Z</time>
      </trkpt>
      <trkpt lat="43.4941" lon="6.62946">
        <ele>30.1</ele>
        <time>2023-11-05T11:12:45Z</time>
      </trkpt>
      <trkpt lat="43.4941" lon="6.62948">
        <ele>30.1</ele>
        <time>2023-11-05T11:12:46Z</time>
      </trkpt>
      <trkpt lat="43.4941" lon="6.6295">
        <ele>30.1</ele>
        <time>2023-11-05T11:12:47Z</time>
      </trkpt>
      <trkpt lat="43.49411" lon="6.62952">
        <ele>30.2</ele>
        <time>2023-11-05T11:12:48Z</time>
      </trkpt>
      <trkpt lat="43.49411" lon="6.62954">
        <ele>30.2</ele>
        <time>2023-11-05T11:12:49Z</time>
      </trkpt>
      <trkpt lat="43.49411" lon="6.62956">
        <ele>30.3</ele>
        <time>2023-11-05T11:12:50Z</time>
      </trkpt>
      <trkpt lat="43.49411" lon="6.62957">
        <ele>30.3</ele>
        <time>2023-11-05T11:12:51Z</time>
      </trkpt>
      <trkpt lat="43.49411" lon="6.62959">
        <ele>30.3</ele>
        <time>2023-11-05T11:12:52Z</time>
      </trkpt>
      <trkpt lat="43.49412" lon="6.62961">
        <ele>30.4</ele>
        <time>2023-11-05T11:12:53Z</time>
      </trkpt>
      <trkpt lat="43.49412" lon="6.62963">
        <ele>30.4</ele>
        <time>2023-11-05T11:12:54Z</time>
      </trkpt>
      <trkpt lat="43.49412" lon="6.62964">
        <ele>30.4</ele>
        <time>2023-11-05T11:12:55Z</time>
      </trkpt>
      <trkpt lat="43.49412" lon="6.62966">
        <ele>30.4</ele>
        <time>2023-11-05T11:12:56Z</time>
      </trkpt>
      <trkpt lat="43.49412" lon="6.62968">
        <ele>30.3</ele>
        <time>2023-11-05T11:12:57Z</time>
      </trkpt>
      <trkpt lat="43.49413" lon="6.6297">
        <ele>30.3</ele>
        <time>2023-11-05T11:12:58Z</time>
      </trkpt>
      <trkpt lat="43.49414" lon="6.62971">
        <ele>30.3</ele>
        <time>2023-11-05T11:12:59Z</time>
      </trkpt>
      <trkpt lat="43.49414" lon="6.62973">
        <ele>30.3</ele>
        <time>2023-11-05T11:13:00Z</time>
      </trkpt>
      <trkpt lat="43.49415" lon="6.62975">
        <ele>30.4</ele>
        <time>2023-11-05T11:13:01Z</time>
      </trkpt>
      <trkpt lat="43.49416" lon="6.62977">
        <ele>30.4</ele>
        <time>2023-11-05T11:13:02Z</time>
      </trkpt>
      <trkpt lat="43.49416" lon="6.62978">
        <ele>30.4</ele>
        <time>2023-11-05T11:13:03Z</time>
      </trkpt>
      <trkpt lat="43.49417" lon="6.62979">
        <ele>30.5</ele>
        <time>2023-11-05T11:13:04Z</time>
      </trkpt>
      <trkpt lat="43.49418" lon="6.62981">
        <ele>30.6</ele>
        <time>2023-11-05T11:13:05Z</time>
      </trkpt>
      <trkpt lat="43.49419" lon="6.62983">
        <ele>30.6</ele>
        <time>2023-11-05T11:13:06Z</time>
      </trkpt>
      <trkpt lat="43.4942" lon="6.62984">
        <ele>30.7</ele>
        <time>2023-11-05T11:13:07Z</time>
      </trkpt>
      <trkpt lat="43.4942" lon="6.62986">
        <ele>30.7</ele>
        <time>2023-11-05T11:13:08Z</time>
      </trkpt>
      <trkpt lat="43.49421" lon="6.62987">
        <ele>30.6</ele>
        <time>2023-11-05T11:13:09Z</time>
      </trkpt>
      <trkpt lat="43.49421" lon="6.6299">
        <ele>30.5</ele>
        <time>2023-11-05T11:13:10Z</time>
      </trkpt>
      <trkpt lat="43.49421" lon="6.62992">
        <ele>30.5</ele>
        <time>2023-11-05T11:13:11Z</time>
      </trkpt>
      <trkpt lat="43.49422" lon="6.62994">
        <ele>30.5</ele>
        <time>2023-11-05T11:13:12Z</time>
      </trkpt>
      <trkpt lat="43.49422" lon="6.62995">
        <ele>30.6</ele>
        <time>2023-11-05T11:13:13Z</time>
      </trkpt>
      <trkpt lat="43.49423" lon="6.62996">
        <ele>30.5</ele>
        <time>2023-11-05T11:13:14Z</time>
      </trkpt>
      <trkpt lat="43.49423" lon="6.62998">
        <ele>30.5</ele>
        <time>2023-11-05T11:13:15Z</time>
      </trkpt>
      <trkpt lat="43.49424" lon="6.62999">
        <ele>30.4</ele>
        <time>2023-11-05T11:13:16Z</time>
      </trkpt>
      <trkpt lat="43.49425" lon="6.63001">
        <ele>30.3</ele>
        <time>2023-11-05T11:13:17Z</time>
      </trkpt>
      <trkpt lat="43.49425" lon="6.63002">
        <ele>30.2</ele>
        <time>2023-11-05T11:13:18Z</time>
      </trkpt>
      <trkpt lat="43.49426" lon="6.63004">
        <ele>30.2</ele>
        <time>2023-11-05T11:13:19Z</time>
      </trkpt>
      <trkpt lat="43.49426" lon="6.63005">
        <ele>30.1</ele>
        <time>2023-11-05T11:13:20Z</time>
      </trkpt>
      <trkpt lat="43.49427" lon="6.63007">
        <ele>30.1</ele>
        <time>2023-11-05T11:13:21Z</time>
      </trkpt>
      <trkpt lat="43.49427" lon="6.63009">
        <ele>30</ele>
        <time>2023-11-05T11:13:22Z</time>
      </trkpt>
      <trkpt lat="43.49427" lon="6.6301">
        <ele>30</ele>
        <time>2023-11-05T11:13:23Z</time>
      </trkpt>
      <trkpt lat="43.49427" lon="6.63012">
        <ele>29.9</ele>
        <time>2023-11-05T11:13:24Z</time>
      </trkpt>
      <trkpt lat="43.49427" lon="6.63013">
        <ele>29.8</ele>
        <time>2023-11-05T11:13:25Z</time>
      </trkpt>
      <trkpt lat="43.49428" lon="6.63015">
        <ele>29.9</ele>
        <time>2023-11-05T11:13:26Z</time>
      </trkpt>
      <trkpt lat="43.49427" lon="6.63017">
        <ele>29.9</ele>
        <time>2023-11-05T11:13:27Z</time>
      </trkpt>
      <trkpt lat="43.49428" lon="6.63019">
        <ele>29.9</ele>
        <time>2023-11-05T11:13:28Z</time>
      </trkpt>
      <trkpt lat="43.49428" lon="6.6302">
        <ele>30</ele>
        <time>2023-11-05T11:13:29Z</time>
      </trkpt>
      <trkpt lat="43.49428" lon="6.63022">
        <ele>30</ele>
        <time>2023-11-05T11:13:30Z</time>
      </trkpt>
      <trkpt lat="43.49428" lon="6.63023">
        <ele>30</ele>
        <time>2023-11-05T11:13:31Z</time>
      </trkpt>
      <trkpt lat="43.49428" lon="6.63024">
        <ele>30</ele>
        <time>2023-11-05T11:13:32Z</time>
      </trkpt>
      <trkpt lat="43.49429" lon="6.63026">
        <ele>30</ele>
        <time>2023-11-05T11:13:33Z</time>
      </trkpt>
      <trkpt lat="43.49429" lon="6.63027">
        <ele>30</ele>
        <time>2023-11-05T11:13:34Z</time>
      </trkpt>
      <trkpt lat="43.49429" lon="6.63029">
        <ele>30</ele>
        <time>2023-11-05T11:13:35Z</time>
      </trkpt>
      <trkpt lat="43.4943" lon="6.6303">
        <ele>30</ele>
        <time>2023-11-05T11:13:36Z</time>
      </trkpt>
      <trkpt lat="43.4943" lon="6.63031">
        <ele>30.1</ele>
        <time>2023-11-05T11:13:37Z</time>
      </trkpt>
      <trkpt lat="43.4943" lon="6.63033">
        <ele>30.1</ele>
        <time>2023-11-05T11:13:38Z</time>
      </trkpt>
      <trkpt lat="43.4943" lon="6.63034">
        <ele>30.1</ele>
        <time>2023-11-05T11:13:39Z</time>
      </trkpt>
      <trkpt lat="43.49431" lon="6.63036">
        <ele>30</ele>
        <time>2023-11-05T11:13:40Z</time>
      </trkpt>
      <trkpt lat="43.49431" lon="6.63038">
        <ele>29.9</ele>
        <time>2023-11-05T11:13:41Z</time>
      </trkpt>
      <trkpt lat="43.49432" lon="6.63039">
        <ele>29.8</ele>
        <time>2023-11-05T11:13:42Z</time>
      </trkpt>
      <trkpt lat="43.49432" lon="6.63041">
        <ele>29.7</ele>
        <time>2023-11-05T11:13:43Z</time>
      </trkpt>
      <trkpt lat="43.49433" lon="6.63042">
        <ele>29.6</ele>
        <time>2023-11-05T11:13:44Z</time>
      </trkpt>
      <trkpt lat="43.49433" lon="6.63044">
        <ele>29.4</ele>
        <time>2023-11-05T11:13:45Z</time>
      </trkpt>
      <trkpt lat="43.49433" lon="6.63045">
        <ele>29.2</ele>
        <time>2023-11-05T11:13:46Z</time>
      </trkpt>
      <trkpt lat="43.49433" lon="6.63046">
        <ele>29</ele>
        <time>2023-11-05T11:13:47Z</time>
      </trkpt>
      <trkpt lat="43.49434" lon="6.63048">
        <ele>28.7</ele>
        <time>2023-11-05T11:13:48Z</time>
      </trkpt>
      <trkpt lat="43.49434" lon="6.6305">
        <ele>28.5</ele>
        <time>2023-11-05T11:13:49Z</time>
      </trkpt>
      <trkpt lat="43.49434" lon="6.63052">
        <ele>28.4</ele>
        <time>2023-11-05T11:13:50Z</time>
      </trkpt>
      <trkpt lat="43.49435" lon="6.63053">
        <ele>28.2</ele>
        <time>2023-11-05T11:13:51Z</time>
      </trkpt>
      <trkpt lat="43.49435" lon="6.63055">
        <ele>28</ele>
        <time>2023-11-05T11:13:52Z</time>
      </trkpt>
      <trkpt lat="43.49435" lon="6.63056">
        <ele>27.9</ele>
        <time>2023-11-05T11:13:53Z</time>
      </trkpt>
      <trkpt lat="43.49435" lon="6.63058">
        <ele>27.8</ele>
        <time>2023-11-05T11:13:54Z</time>
      </trkpt>
      <trkpt lat="43.49436" lon="6.63059">
        <ele>27.7</ele>
        <time>2023-11-05T11:13:55Z</time>
      </trkpt>
      <trkpt lat="43.49436" lon="6.63061">
        <ele>27.6</ele>
        <time>2023-11-05T11:13:56Z</time>
      </trkpt>
      <trkpt lat="43.49436" lon="6.63062">
        <ele>27.5</ele>
        <time>2023-11-05T11:13:57Z</time>
      </trkpt>
      <trkpt lat="43.49437" lon="6.63064">
        <ele>27.5</ele>
        <time>2023-11-05T11:13:58Z</time>
      </trkpt>
      <trkpt lat="43.49437" lon="6.63066">
        <ele>27.5</ele>
        <time>2023-11-05T11:13:59Z</time>
      </trkpt>
      <trkpt lat="43.49437" lon="6.63067">
        <ele>27.5</ele>
        <time>2023-11-05T11:14:00Z</time>
      </trkpt>
      <trkpt lat="43.49438" lon="6.63069">
        <ele>27.4</ele>
        <time>2023-11-05T11:14:01Z</time>
      </trkpt>
      <trkpt lat="43.49438" lon="6.6307">
        <ele>27.3</ele>
        <time>2023-11-05T11:14:02Z</time>
      </trkpt>
      <trkpt lat="43.49439" lon="6.63072">
        <ele>27.1</ele>
        <time>2023-11-05T11:14:03Z</time>
      </trkpt>
      <trkpt lat="43.49439" lon="6.63074">
        <ele>27</ele>
        <time>2023-11-05T11:14:04Z</time>
      </trkpt>
      <trkpt lat="43.4944" lon="6.63075">
        <ele>26.9</ele>
        <time>2023-11-05T11:14:05Z</time>
      </trkpt>
      <trkpt lat="43.4944" lon="6.63077">
        <ele>26.8</ele>
        <time>2023-11-05T11:14:06Z</time>
      </trkpt>
      <trkpt lat="43.49441" lon="6.63078">
        <ele>26.8</ele>
        <time>2023-11-05T11:14:07Z</time>
      </trkpt>
      <trkpt lat="43.49441" lon="6.6308">
        <ele>26.7</ele>
        <time>2023-11-05T11:14:08Z</time>
      </trkpt>
      <trkpt lat="43.49441" lon="6.63082">
        <ele>26.7</ele>
        <time>2023-11-05T11:14:09Z</time>
      </trkpt>
      <trkpt lat="43.49441" lon="6.63084">
        <ele>26.6</ele>
        <time>2023-11-05T11:14:10Z</time>
      </trkpt>
      <trkpt lat="43.49442" lon="6.63085">
        <ele>26.6</ele>
        <time>2023-11-05T11:14:11Z</time>
      </trkpt>
      <trkpt lat="43.49442" lon="6.63087">
        <ele>26.4</ele>
        <time>2023-11-05T11:14:12Z</time>
      </trkpt>
      <trkpt lat="43.49443" lon="6.63088">
        <ele>26.3</ele>
        <time>2023-11-05T11:14:13Z</time>
      </trkpt>
      <trkpt lat="43.49443" lon="6.6309">
        <ele>26.3</ele>
        <time>2023-11-05T11:14:14Z</time>
      </trkpt>
      <trkpt lat="43.49444" lon="6.63091">
        <ele>26.2</ele>
        <time>2023-11-05T11:14:15Z</time>
      </trkpt>
      <trkpt lat="43.49445" lon="6.63092">
        <ele>26.2</ele>
        <time>2023-11-05T11:14:16Z</time>
      </trkpt>
      <trkpt lat="43.49446" lon="6.63093">
        <ele>26.2</ele>
        <time>2023-11-05T11:14:17Z</time>
      </trkpt>
      <trkpt lat="43.49447" lon="6.63094">
        <ele>26.3</ele>
        <time>2023-11-05T11:14:18Z</time>
      </trkpt>
      <trkpt lat="43.49448" lon="6.63095">
        <ele>26.3</ele>
        <time>2023-11-05T11:14:19Z</time>
      </trkpt>
      <trkpt lat="43.49449" lon="6.63095">
        <ele>26.3</ele>
        <time>2023-11-05T11:14:20Z</time>
      </trkpt>
      <trkpt lat="43.4945" lon="6.63096">
        <ele>26.3</ele>
        <time>2023-11-05T11:14:21Z</time>
      </trkpt>
      <trkpt lat="43.49451" lon="6.63097">
        <ele>26.3</ele>
        <time>2023-11-05T11:14:22Z</time>
      </trkpt>
      <trkpt lat="43.49452" lon="6.63097">
        <ele>26.2</ele>
        <time>2023-11-05T11:14:23Z</time>
      </trkpt>
      <trkpt lat="43.49453" lon="6.63098">
        <ele>26.2</ele>
        <time>2023-11-05T11:14:24Z</time>
      </trkpt>
      <trkpt lat="43.49454" lon="6.63099">
        <ele>26.2</ele>
        <time>2023-11-05T11:14:25Z</time>
      </trkpt>
      <trkpt lat="43.49455" lon="6.631">
        <ele>26.3</ele>
        <time>2023-11-05T11:14:26Z</time>
      </trkpt>
      <trkpt lat="43.49456" lon="6.63101">
        <ele>26.3</ele>
        <time>2023-11-05T11:14:27Z</time>
      </trkpt>
      <trkpt lat="43.49457" lon="6.63103">
        <ele>26.4</ele>
        <time>2023-11-05T11:14:28Z</time>
      </trkpt>
      <trkpt lat="43.49457" lon="6.63104">
        <ele>26.4</ele>
        <time>2023-11-05T11:14:29Z</time>
      </trkpt>
      <trkpt lat="43.49458" lon="6.63105">
        <ele>26.5</ele>
        <time>2023-11-05T11:14:30Z</time>
      </trkpt>
      <trkpt lat="43.49459" lon="6.63106">
        <ele>26.7</ele>
        <time>2023-11-05T11:14:31Z</time>
      </trkpt>
      <trkpt lat="43.4946" lon="6.63107">
        <ele>26.8</ele>
        <time>2023-11-05T11:14:32Z</time>
      </trkpt>
      <trkpt lat="43.4946" lon="6.63108">
        <ele>26.9</ele>
        <time>2023-11-05T11:14:33Z</time>
      </trkpt>
      <trkpt lat="43.49461" lon="6.63108">
        <ele>27</ele>
        <time>2023-11-05T11:14:34Z</time>
      </trkpt>
      <trkpt lat="43.49462" lon="6.63109">
        <ele>27.1</ele>
        <time>2023-11-05T11:14:35Z</time>
      </trkpt>
      <trkpt lat="43.49463" lon="6.6311">
        <ele>27.2</ele>
        <time>2023-11-05T11:14:36Z</time>
      </trkpt>
      <trkpt lat="43.49464" lon="6.63111">
        <ele>27.4</ele>
        <time>2023-11-05T11:14:37Z</time>
      </trkpt>
      <trkpt lat="43.49465" lon="6.63112">
        <ele>27.6</ele>
        <time>2023-11-05T11:14:38Z</time>
      </trkpt>
      <trkpt lat="43.49466" lon="6.63112">
        <ele>27.8</ele>
        <time>2023-11-05T11:14:39Z</time>
      </trkpt>
      <trkpt lat="43.49467" lon="6.63113">
        <ele>27.9</ele>
        <time>2023-11-05T11:14:40Z</time>
      </trkpt>
      <trkpt lat="43.49467" lon="6.63114">
        <ele>28</ele>
        <time>2023-11-05T11:14:41Z</time>
      </trkpt>
      <trkpt lat="43.49468" lon="6.63115">
        <ele>28.1</ele>
        <time>2023-11-05T11:14:42Z</time>
      </trkpt>
      <trkpt lat="43.49469" lon="6.63116">
        <ele>28.2</ele>
        <time>2023-11-05T11:14:43Z</time>
      </trkpt>
      <trkpt lat="43.49469" lon="6.63116">
        <ele>28.3</ele>
        <time>2023-11-05T11:14:44Z</time>
      </trkpt>
      <trkpt lat="43.4947" lon="6.63117">
        <ele>28.6</ele>
        <time>2023-11-05T11:14:45Z</time>
      </trkpt>
      <trkpt lat="43.49472" lon="6.63118">
        <ele>28.8</ele>
        <time>2023-11-05T11:14:46Z</time>
      </trkpt>
      <trkpt lat="43.49473" lon="6.63118">
        <ele>28.9</ele>
        <time>2023-11-05T11:14:47Z</time>
      </trkpt>
      <trkpt lat="43.49474" lon="6.6312">
        <ele>29</ele>
        <time>2023-11-05T11:14:48Z</time>
      </trkpt>
      <trkpt lat="43.49475" lon="6.6312">
        <ele>29.1</ele>
        <time>2023-11-05T11:14:49Z</time>
      </trkpt>
      <trkpt lat="43.49476" lon="6.63122">
        <ele>29.2</ele>
        <time>2023-11-05T11:14:50Z</time>
      </trkpt>
      <trkpt lat="43.49477" lon="6.63123">
        <ele>29.3</ele>
        <time>2023-11-05T11:14:51Z</time>
      </trkpt>
      <trkpt lat="43.49478" lon="6.63123">
        <ele>29.3</ele>
        <time>2023-11-05T11:14:52Z</time>
      </trkpt>
      <trkpt lat="43.49479" lon="6.63124">
        <ele>29.2</ele>
        <time>2023-11-05T11:14:53Z</time>
      </trkpt>
      <trkpt lat="43.4948" lon="6.63124">
        <ele>29.1</ele>
        <time>2023-11-05T11:14:54Z</time>
      </trkpt>
      <trkpt lat="43.49482" lon="6.63125">
        <ele>29.1</ele>
        <time>2023-11-05T11:14:55Z</time>
      </trkpt>
      <trkpt lat="43.49483" lon="6.63126">
        <ele>29.1</ele>
        <time>2023-11-05T11:14:56Z</time>
      </trkpt>
      <trkpt lat="43.49485" lon="6.63127">
        <ele>29</ele>
        <time>2023-11-05T11:14:57Z</time>
      </trkpt>
      <trkpt lat="43.49486" lon="6.63128">
        <ele>29</ele>
        <time>2023-11-05T11:14:58Z</time>
      </trkpt>
      <trkpt lat="43.49487" lon="6.63129">
        <ele>29.1</ele>
        <time>2023-11-05T11:14:59Z</time>
      </trkpt>
      <trkpt lat="43.49488" lon="6.6313">
        <ele>29.1</ele>
        <time>2023-11-05T11:15:00Z</time>
      </trkpt>
      <trkpt lat="43.49489" lon="6.6313">
        <ele>29.1</ele>
        <time>2023-11-05T11:15:01Z</time>
      </trkpt>
      <trkpt lat="43.4949" lon="6.63131">
        <ele>29.2</ele>
        <time>2023-11-05T11:15:02Z</time>
      </trkpt>
      <trkpt lat="43.49491" lon="6.63132">
        <ele>29.3</ele>
        <time>2023-11-05T11:15:03Z</time>
      </trkpt>
      <trkpt lat="43.49493" lon="6.63133">
        <ele>29.4</ele>
        <time>2023-11-05T11:15:04Z</time>
      </trkpt>
      <trkpt lat="43.49494" lon="6.63134">
        <ele>29.4</ele>
        <time>2023-11-05T11:15:05Z</time>
      </trkpt>
      <trkpt lat="43.49495" lon="6.63135">
        <ele>29.5</ele>
        <time>2023-11-05T11:15:06Z</time>
      </trkpt>
      <trkpt lat="43.49496" lon="6.63136">
        <ele>29.5</ele>
        <time>2023-11-05T11:15:07Z</time>
      </trkpt>
      <trkpt lat="43.49497" lon="6.63136">
        <ele>29.6</ele>
        <time>2023-11-05T11:15:08Z</time>
      </trkpt>
      <trkpt lat="43.49498" lon="6.63137">
        <ele>29.6</ele>
        <time>2023-11-05T11:15:09Z</time>
      </trkpt>
      <trkpt lat="43.49499" lon="6.63138">
        <ele>29.7</ele>
        <time>2023-11-05T11:15:10Z</time>
      </trkpt>
      <trkpt lat="43.49499" lon="6.63139">
        <ele>29.7</ele>
        <time>2023-11-05T11:15:11Z</time>
      </trkpt>
      <trkpt lat="43.49501" lon="6.63139">
        <ele>29.7</ele>
        <time>2023-11-05T11:15:12Z</time>
      </trkpt>
      <trkpt lat="43.49501" lon="6.6314">
        <ele>29.7</ele>
        <time>2023-11-05T11:15:13Z</time>
      </trkpt>
      <trkpt lat="43.49502" lon="6.6314">
        <ele>29.7</ele>
        <time>2023-11-05T11:15:14Z</time>
      </trkpt>
      <trkpt lat="43.49503" lon="6.63141">
        <ele>29.7</ele>
        <time>2023-11-05T11:15:15Z</time>
      </trkpt>
      <trkpt lat="43.49504" lon="6.63142">
        <ele>29.8</ele>
        <time>2023-11-05T11:15:16Z</time>
      </trkpt>
      <trkpt lat="43.49505" lon="6.63143">
        <ele>30</ele>
        <time>2023-11-05T11:15:17Z</time>
      </trkpt>
      <trkpt lat="43.49506" lon="6.63143">
        <ele>30.2</ele>
        <time>2023-11-05T11:15:18Z</time>
      </trkpt>
      <trkpt lat="43.49507" lon="6.63144">
        <ele>30.4</ele>
        <time>2023-11-05T11:15:19Z</time>
      </trkpt>
      <trkpt lat="43.49508" lon="6.63145">
        <ele>30.5</ele>
        <time>2023-11-05T11:15:20Z</time>
      </trkpt>
      <trkpt lat="43.49509" lon="6.63145">
        <ele>30.6</ele>
        <time>2023-11-05T11:15:21Z</time>
      </trkpt>
      <trkpt lat="43.4951" lon="6.63146">
        <ele>30.8</ele>
        <time>2023-11-05T11:15:22Z</time>
      </trkpt>
      <trkpt lat="43.49511" lon="6.63146">
        <ele>30.9</ele>
        <time>2023-11-05T11:15:23Z</time>
      </trkpt>
      <trkpt lat="43.49513" lon="6.63147">
        <ele>31</ele>
        <time>2023-11-05T11:15:24Z</time>
      </trkpt>
      <trkpt lat="43.49514" lon="6.63147">
        <ele>31.1</ele>
        <time>2023-11-05T11:15:25Z</time>
      </trkpt>
      <trkpt lat="43.49515" lon="6.63148">
        <ele>31.2</ele>
        <time>2023-11-05T11:15:26Z</time>
      </trkpt>
      <trkpt lat="43.49516" lon="6.63148">
        <ele>31.4</ele>
        <time>2023-11-05T11:15:27Z</time>
      </trkpt>
      <trkpt lat="43.49517" lon="6.63149">
        <ele>31.4</ele>
        <time>2023-11-05T11:15:28Z</time>
      </trkpt>
      <trkpt lat="43.49518" lon="6.6315">
        <ele>31.6</ele>
        <time>2023-11-05T11:15:29Z</time>
      </trkpt>
      <trkpt lat="43.49519" lon="6.63151">
        <ele>31.7</ele>
        <time>2023-11-05T11:15:30Z</time>
      </trkpt>
      <trkpt lat="43.4952" lon="6.63152">
        <ele>31.7</ele>
        <time>2023-11-05T11:15:31Z</time>
      </trkpt>
      <trkpt lat="43.49521" lon="6.63153">
        <ele>31.8</ele>
        <time>2023-11-05T11:15:32Z</time>
      </trkpt>
      <trkpt lat="43.49523" lon="6.63154">
        <ele>31.9</ele>
        <time>2023-11-05T11:15:33Z</time>
      </trkpt>
      <trkpt lat="43.49524" lon="6.63155">
        <ele>31.9</ele>
        <time>2023-11-05T11:15:34Z</time>
      </trkpt>
      <trkpt lat="43.49524" lon="6.63156">
        <ele>32</ele>
        <time>2023-11-05T11:15:35Z</time>
      </trkpt>
      <trkpt lat="43.49526" lon="6.63156">
        <ele>32</ele>
        <time>2023-11-05T11:15:36Z</time>
      </trkpt>
      <trkpt lat="43.49527" lon="6.63157">
        <ele>32.2</ele>
        <time>2023-11-05T11:15:37Z</time>
      </trkpt>
      <trkpt lat="43.49527" lon="6.63158">
        <ele>32.3</ele>
        <time>2023-11-05T11:15:38Z</time>
      </trkpt>
      <trkpt lat="43.49528" lon="6.63159">
        <ele>32.4</ele>
        <time>2023-11-05T11:15:39Z</time>
      </trkpt>
      <trkpt lat="43.49529" lon="6.6316">
        <ele>32.5</ele>
        <time>2023-11-05T11:15:40Z</time>
      </trkpt>
      <trkpt lat="43.49531" lon="6.6316">
        <ele>32.6</ele>
        <time>2023-11-05T11:15:41Z</time>
      </trkpt>
      <trkpt lat="43.49532" lon="6.63161">
        <ele>32.6</ele>
        <time>2023-11-05T11:15:42Z</time>
      </trkpt>
      <trkpt lat="43.49533" lon="6.63161">
        <ele>32.7</ele>
        <time>2023-11-05T11:15:43Z</time>
      </trkpt>
      <trkpt lat="43.49535" lon="6.63162">
        <ele>32.7</ele>
        <time>2023-11-05T11:15:44Z</time>
      </trkpt>
      <trkpt lat="43.49536" lon="6.63162">
        <ele>32.7</ele>
        <time>2023-11-05T11:15:45Z</time>
      </trkpt>
      <trkpt lat="43.49537" lon="6.63163">
        <ele>32.7</ele>
        <time>2023-11-05T11:15:46Z</time>
      </trkpt>
      <trkpt lat="43.49537" lon="6.63164">
        <ele>32.7</ele>
        <time>2023-11-05T11:15:47Z</time>
      </trkpt>
      <trkpt lat="43.49538" lon="6.63165">
        <ele>32.7</ele>
        <time>2023-11-05T11:15:48Z</time>
      </trkpt>
      <trkpt lat="43.49539" lon="6.63165">
        <ele>32.8</ele>
        <time>2023-11-05T11:15:49Z</time>
      </trkpt>
      <trkpt lat="43.4954" lon="6.63166">
        <ele>32.9</ele>
        <time>2023-11-05T11:15:50Z</time>
      </trkpt>
      <trkpt lat="43.49542" lon="6.63167">
        <ele>33</ele>
        <time>2023-11-05T11:15:51Z</time>
      </trkpt>
      <trkpt lat="43.49543" lon="6.63167">
        <ele>33.1</ele>
        <time>2023-11-05T11:15:52Z</time>
      </trkpt>
      <trkpt lat="43.49544" lon="6.63168">
        <ele>33.3</ele>
        <time>2023-11-05T11:15:53Z</time>
      </trkpt>
      <trkpt lat="43.49545" lon="6.63169">
        <ele>33.4</ele>
        <time>2023-11-05T11:15:54Z</time>
      </trkpt>
      <trkpt lat="43.49547" lon="6.6317">
        <ele>33.5</ele>
        <time>2023-11-05T11:15:55Z</time>
      </trkpt>
      <trkpt lat="43.49548" lon="6.6317">
        <ele>33.6</ele>
        <time>2023-11-05T11:15:56Z</time>
      </trkpt>
      <trkpt lat="43.49549" lon="6.63171">
        <ele>33.6</ele>
        <time>2023-11-05T11:15:57Z</time>
      </trkpt>
      <trkpt lat="43.4955" lon="6.63172">
        <ele>33.6</ele>
        <time>2023-11-05T11:15:58Z</time>
      </trkpt>
      <trkpt lat="43.49551" lon="6.63173">
        <ele>33.7</ele>
        <time>2023-11-05T11:15:59Z</time>
      </trkpt>
      <trkpt lat="43.49552" lon="6.63173">
        <ele>33.8</ele>
        <time>2023-11-05T11:16:00Z</time>
      </trkpt>
      <trkpt lat="43.49552" lon="6.63174">
        <ele>33.8</ele>
        <time>2023-11-05T11:16:01Z</time>
      </trkpt>
      <trkpt lat="43.49553" lon="6.63176">
        <ele>33.8</ele>
        <time>2023-11-05T11:16:02Z</time>
      </trkpt>
      <trkpt lat="43.49554" lon="6.63177">
        <ele>33.9</ele>
        <time>2023-11-05T11:16:03Z</time>
      </trkpt>
      <trkpt lat="43.49555" lon="6.63178">
        <ele>34</ele>
        <time>2023-11-05T11:16:04Z</time>
      </trkpt>
      <trkpt lat="43.49555" lon="6.63179">
        <ele>34</ele>
        <time>2023-11-05T11:16:05Z</time>
      </trkpt>
      <trkpt lat="43.49556" lon="6.6318">
        <ele>34.1</ele>
        <time>2023-11-05T11:16:06Z</time>
      </trkpt>
      <trkpt lat="43.49557" lon="6.63182">
        <ele>34.2</ele>
        <time>2023-11-05T11:16:07Z</time>
      </trkpt>
      <trkpt lat="43.49558" lon="6.63183">
        <ele>34.2</ele>
        <time>2023-11-05T11:16:08Z</time>
      </trkpt>
      <trkpt lat="43.49559" lon="6.63184">
        <ele>34.2</ele>
        <time>2023-11-05T11:16:09Z</time>
      </trkpt>
      <trkpt lat="43.4956" lon="6.63185">
        <ele>34.1</ele>
        <time>2023-11-05T11:16:10Z</time>
      </trkpt>
      <trkpt lat="43.49561" lon="6.63186">
        <ele>33.9</ele>
        <time>2023-11-05T11:16:11Z</time>
      </trkpt>
      <trkpt lat="43.49561" lon="6.63188">
        <ele>33.9</ele>
        <time>2023-11-05T11:16:12Z</time>
      </trkpt>
      <trkpt lat="43.49562" lon="6.63189">
        <ele>33.8</ele>
        <time>2023-11-05T11:16:13Z</time>
      </trkpt>
      <trkpt lat="43.49563" lon="6.6319">
        <ele>33.7</ele>
        <time>2023-11-05T11:16:14Z</time>
      </trkpt>
      <trkpt lat="43.49564" lon="6.63191">
        <ele>33.7</ele>
        <time>2023-11-05T11:16:15Z</time>
      </trkpt>
      <trkpt lat="43.49565" lon="6.63193">
        <ele>33.6</ele>
        <time>2023-11-05T11:16:16Z</time>
      </trkpt>
      <trkpt lat="43.49566" lon="6.63194">
        <ele>33.6</ele>
        <time>2023-11-05T11:16:17Z</time>
      </trkpt>
      <trkpt lat="43.49566" lon="6.63195">
        <ele>33.6</ele>
        <time>2023-11-05T11:16:18Z</time>
      </trkpt>
      <trkpt lat="43.49567" lon="6.63197">
        <ele>33.5</ele>
        <time>2023-11-05T11:16:19Z</time>
      </trkpt>
      <trkpt lat="43.49567" lon="6.63198">
        <ele>33.5</ele>
        <time>2023-11-05T11:16:20Z</time>
      </trkpt>
      <trkpt lat="43.49568" lon="6.632">
        <ele>33.4</ele>
        <time>2023-11-05T11:16:21Z</time>
      </trkpt>
      <trkpt lat="43.49569" lon="6.63201">
        <ele>33.4</ele>
        <time>2023-11-05T11:16:22Z</time>
      </trkpt>
      <trkpt lat="43.4957" lon="6.63202">
        <ele>33.4</ele>
        <time>2023-11-05T11:16:23Z</time>
      </trkpt>
      <trkpt lat="43.49571" lon="6.63203">
        <ele>33.3</ele>
        <time>2023-11-05T11:16:24Z</time>
      </trkpt>
      <trkpt lat="43.49572" lon="6.63204">
        <ele>33.3</ele>
        <time>2023-11-05T11:16:25Z</time>
      </trkpt>
      <trkpt lat="43.49572" lon="6.63206">
        <ele>33.3</ele>
        <time>2023-11-05T11:16:26Z</time>
      </trkpt>
      <trkpt lat="43.49573" lon="6.63207">
        <ele>33.2</ele>
        <time>2023-11-05T11:16:27Z</time>
      </trkpt>
      <trkpt lat="43.49574" lon="6.63209">
        <ele>33.2</ele>
        <time>2023-11-05T11:16:28Z</time>
      </trkpt>
      <trkpt lat="43.49574" lon="6.63211">
        <ele>33.1</ele>
        <time>2023-11-05T11:16:29Z</time>
      </trkpt>
      <trkpt lat="43.49575" lon="6.63212">
        <ele>33.2</ele>
        <time>2023-11-05T11:16:30Z</time>
      </trkpt>
      <trkpt lat="43.49576" lon="6.63213">
        <ele>33.3</ele>
        <time>2023-11-05T11:16:31Z</time>
      </trkpt>
      <trkpt lat="43.49576" lon="6.63214">
        <ele>33.4</ele>
        <time>2023-11-05T11:16:32Z</time>
      </trkpt>
      <trkpt lat="43.49577" lon="6.63215">
        <ele>33.4</ele>
        <time>2023-11-05T11:16:33Z</time>
      </trkpt>
      <trkpt lat="43.49578" lon="6.63216">
        <ele>33.3</ele>
        <time>2023-11-05T11:16:34Z</time>
      </trkpt>
      <trkpt lat="43.49578" lon="6.63217">
        <ele>33.3</ele>
        <time>2023-11-05T11:16:35Z</time>
      </trkpt>
      <trkpt lat="43.49579" lon="6.63218">
        <ele>33.3</ele>
        <time>2023-11-05T11:16:36Z</time>
      </trkpt>
      <trkpt lat="43.4958" lon="6.63219">
        <ele>33.3</ele>
        <time>2023-11-05T11:16:37Z</time>
      </trkpt>
      <trkpt lat="43.4958" lon="6.63221">
        <ele>33.4</ele>
        <time>2023-11-05T11:16:38Z</time>
      </trkpt>
      <trkpt lat="43.49581" lon="6.63222">
        <ele>33.4</ele>
        <time>2023-11-05T11:16:39Z</time>
      </trkpt>
      <trkpt lat="43.49582" lon="6.63224">
        <ele>33.4</ele>
        <time>2023-11-05T11:16:40Z</time>
      </trkpt>
      <trkpt lat="43.49583" lon="6.63225">
        <ele>33.4</ele>
        <time>2023-11-05T11:16:41Z</time>
      </trkpt>
      <trkpt lat="43.49584" lon="6.63226">
        <ele>33.3</ele>
        <time>2023-11-05T11:16:42Z</time>
      </trkpt>
      <trkpt lat="43.49585" lon="6.63227">
        <ele>33.3</ele>
        <time>2023-11-05T11:16:43Z</time>
      </trkpt>
      <trkpt lat="43.49585" lon="6.63228">
        <ele>33.3</ele>
        <time>2023-11-05T11:16:44Z</time>
      </trkpt>
      <trkpt lat="43.49586" lon="6.6323">
        <ele>33.4</ele>
        <time>2023-11-05T11:16:45Z</time>
      </trkpt>
      <trkpt lat="43.49586" lon="6.63232">
        <ele>33.4</ele>
        <time>2023-11-05T11:16:46Z</time>
      </trkpt>
      <trkpt lat="43.49587" lon="6.63233">
        <ele>33.4</ele>
        <time>2023-11-05T11:16:47Z</time>
      </trkpt>
      <trkpt lat="43.49588" lon="6.63235">
        <ele>33.5</ele>
        <time>2023-11-05T11:16:48Z</time>
      </trkpt>
      <trkpt lat="43.49589" lon="6.63236">
        <ele>33.5</ele>
        <time>2023-11-05T11:16:49Z</time>
      </trkpt>
      <trkpt lat="43.49589" lon="6.63237">
        <ele>33.5</ele>
        <time>2023-11-05T11:16:50Z</time>
      </trkpt>
      <trkpt lat="43.4959" lon="6.63238">
        <ele>33.6</ele>
        <time>2023-11-05T11:16:51Z</time>
      </trkpt>
      <trkpt lat="43.4959" lon="6.6324">
        <ele>33.6</ele>
        <time>2023-11-05T11:16:52Z</time>
      </trkpt>
      <trkpt lat="43.49592" lon="6.63241">
        <ele>33.6</ele>
        <time>2023-11-05T11:16:53Z</time>
      </trkpt>
      <trkpt lat="43.49593" lon="6.63243">
        <ele>33.6</ele>
        <time>2023-11-05T11:16:54Z</time>
      </trkpt>
      <trkpt lat="43.49594" lon="6.63244">
        <ele>33.6</ele>
        <time>2023-11-05T11:16:55Z</time>
      </trkpt>
      <trkpt lat="43.49594" lon="6.63245">
        <ele>33.6</ele>
        <time>2023-11-05T11:16:56Z</time>
      </trkpt>
      <trkpt lat="43.49595" lon="6.63247">
        <ele>33.5</ele>
        <time>2023-11-05T11:16:57Z</time>
      </trkpt>
      <trkpt lat="43.49596" lon="6.63248">
        <ele>33.5</ele>
        <time>2023-11-05T11:16:58Z</time>
      </trkpt>
      <trkpt lat="43.49597" lon="6.6325">
        <ele>33.5</ele>
        <time>2023-11-05T11:16:59Z</time>
      </trkpt>
      <trkpt lat="43.49598" lon="6.63251">
        <ele>33.5</ele>
        <time>2023-11-05T11:17:00Z</time>
      </trkpt>
      <trkpt lat="43.49599" lon="6.63252">
        <ele>33.5</ele>
        <time>2023-11-05T11:17:01Z</time>
      </trkpt>
      <trkpt lat="43.496" lon="6.63253">
        <ele>33.4</ele>
        <time>2023-11-05T11:17:02Z</time>
      </trkpt>
      <trkpt lat="43.49601" lon="6.63254">
        <ele>33.4</ele>
        <time>2023-11-05T11:17:03Z</time>
      </trkpt>
      <trkpt lat="43.49602" lon="6.63254">
        <ele>33.2</ele>
        <time>2023-11-05T11:17:04Z</time>
      </trkpt>
      <trkpt lat="43.49603" lon="6.63255">
        <ele>33.1</ele>
        <time>2023-11-05T11:17:05Z</time>
      </trkpt>
      <trkpt lat="43.49603" lon="6.63256">
        <ele>33</ele>
        <time>2023-11-05T11:17:06Z</time>
      </trkpt>
      <trkpt lat="43.49604" lon="6.63257">
        <ele>32.9</ele>
        <time>2023-11-05T11:17:07Z</time>
      </trkpt>
      <trkpt lat="43.49605" lon="6.63259">
        <ele>32.8</ele>
        <time>2023-11-05T11:17:08Z</time>
      </trkpt>
      <trkpt lat="43.49605" lon="6.6326">
        <ele>32.6</ele>
        <time>2023-11-05T11:17:09Z</time>
      </trkpt>
      <trkpt lat="43.49606" lon="6.63261">
        <ele>32.5</ele>
        <time>2023-11-05T11:17:10Z</time>
      </trkpt>
      <trkpt lat="43.49608" lon="6.63262">
        <ele>32.4</ele>
        <time>2023-11-05T11:17:11Z</time>
      </trkpt>
      <trkpt lat="43.49609" lon="6.63264">
        <ele>32.3</ele>
        <time>2023-11-05T11:17:12Z</time>
      </trkpt>
      <trkpt lat="43.4961" lon="6.63266">
        <ele>32.2</ele>
        <time>2023-11-05T11:17:13Z</time>
      </trkpt>
      <trkpt lat="43.4961" lon="6.63268">
        <ele>32.2</ele>
        <time>2023-11-05T11:17:14Z</time>
      </trkpt>
      <trkpt lat="43.49611" lon="6.6327">
        <ele>32.1</ele>
        <time>2023-11-05T11:17:15Z</time>
      </trkpt>
      <trkpt lat="43.49611" lon="6.63271">
        <ele>32.1</ele>
        <time>2023-11-05T11:17:16Z</time>
      </trkpt>
      <trkpt lat="43.49612" lon="6.63272">
        <ele>32.1</ele>
        <time>2023-11-05T11:17:17Z</time>
      </trkpt>
      <trkpt lat="43.49613" lon="6.63274">
        <ele>32</ele>
        <time>2023-11-05T11:17:18Z</time>
      </trkpt>
      <trkpt lat="43.49614" lon="6.63275">
        <ele>32</ele>
        <time>2023-11-05T11:17:19Z</time>
      </trkpt>
      <trkpt lat="43.49614" lon="6.63277">
        <ele>31.9</ele>
        <time>2023-11-05T11:17:20Z</time>
      </trkpt>
      <trkpt lat="43.49615" lon="6.63278">
        <ele>31.9</ele>
        <time>2023-11-05T11:17:21Z</time>
      </trkpt>
      <trkpt lat="43.49616" lon="6.63279">
        <ele>32</ele>
        <time>2023-11-05T11:17:22Z</time>
      </trkpt>
      <trkpt lat="43.49617" lon="6.63281">
        <ele>32</ele>
        <time>2023-11-05T11:17:23Z</time>
      </trkpt>
      <trkpt lat="43.49618" lon="6.63282">
        <ele>31.9</ele>
        <time>2023-11-05T11:17:24Z</time>
      </trkpt>
      <trkpt lat="43.49618" lon="6.63283">
        <ele>31.8</ele>
        <time>2023-11-05T11:17:25Z</time>
      </trkpt>
      <trkpt lat="43.49618" lon="6.63284">
        <ele>31.8</ele>
        <time>2023-11-05T11:17:26Z</time>
      </trkpt>
      <trkpt lat="43.49619" lon="6.63286">
        <ele>31.9</ele>
        <time>2023-11-05T11:17:27Z</time>
      </trkpt>
      <trkpt lat="43.49619" lon="6.63287">
        <ele>32</ele>
        <time>2023-11-05T11:17:28Z</time>
      </trkpt>
      <trkpt lat="43.4962" lon="6.63288">
        <ele>32</ele>
        <time>2023-11-05T11:17:29Z</time>
      </trkpt>
      <trkpt lat="43.49621" lon="6.63289">
        <ele>32.1</ele>
        <time>2023-11-05T11:17:30Z</time>
      </trkpt>
      <trkpt lat="43.49621" lon="6.6329">
        <ele>32.1</ele>
        <time>2023-11-05T11:17:31Z</time>
      </trkpt>
      <trkpt lat="43.49622" lon="6.63291">
        <ele>32.2</ele>
        <time>2023-11-05T11:17:32Z</time>
      </trkpt>
      <trkpt lat="43.49622" lon="6.63292">
        <ele>32.2</ele>
        <time>2023-11-05T11:17:33Z</time>
      </trkpt>
      <trkpt lat="43.49623" lon="6.63293">
        <ele>32.3</ele>
        <time>2023-11-05T11:17:34Z</time>
      </trkpt>
      <trkpt lat="43.49624" lon="6.63294">
        <ele>32.4</ele>
        <time>2023-11-05T11:17:35Z</time>
      </trkpt>
      <trkpt lat="43.49624" lon="6.63296">
        <ele>32.5</ele>
        <time>2023-11-05T11:17:36Z</time>
      </trkpt>
      <trkpt lat="43.49624" lon="6.63297">
        <ele>32.6</ele>
        <time>2023-11-05T11:17:37Z</time>
      </trkpt>
      <trkpt lat="43.49625" lon="6.63299">
        <ele>32.6</ele>
        <time>2023-11-05T11:17:38Z</time>
      </trkpt>
      <trkpt lat="43.49625" lon="6.633">
        <ele>32.7</ele>
        <time>2023-11-05T11:17:39Z</time>
      </trkpt>
      <trkpt lat="43.49626" lon="6.63301">
        <ele>32.6</ele>
        <time>2023-11-05T11:17:40Z</time>
      </trkpt>
      <trkpt lat="43.49627" lon="6.63302">
        <ele>32.7</ele>
        <time>2023-11-05T11:17:41Z</time>
      </trkpt>
      <trkpt lat="43.49627" lon="6.63303">
        <ele>32.7</ele>
        <time>2023-11-05T11:17:42Z</time>
      </trkpt>
      <trkpt lat="43.49628" lon="6.63304">
        <ele>32.7</ele>
        <time>2023-11-05T11:17:43Z</time>
      </trkpt>
      <trkpt lat="43.49628" lon="6.63305">
        <ele>32.7</ele>
        <time>2023-11-05T11:17:44Z</time>
      </trkpt>
      <trkpt lat="43.49629" lon="6.63307">
        <ele>32.8</ele>
        <time>2023-11-05T11:17:45Z</time>
      </trkpt>
      <trkpt lat="43.49629" lon="6.63308">
        <ele>32.8</ele>
        <time>2023-11-05T11:17:46Z</time>
      </trkpt>
      <trkpt lat="43.4963" lon="6.63309">
        <ele>32.8</ele>
        <time>2023-11-05T11:17:47Z</time>
      </trkpt>
      <trkpt lat="43.49631" lon="6.6331">
        <ele>32.8</ele>
        <time>2023-11-05T11:17:48Z</time>
      </trkpt>
      <trkpt lat="43.49632" lon="6.63311">
        <ele>32.8</ele>
        <time>2023-11-05T11:17:49Z</time>
      </trkpt>
      <trkpt lat="43.49633" lon="6.63313">
        <ele>32.8</ele>
        <time>2023-11-05T11:17:50Z</time>
      </trkpt>
      <trkpt lat="43.49634" lon="6.63314">
        <ele>32.9</ele>
        <time>2023-11-05T11:17:51Z</time>
      </trkpt>
      <trkpt lat="43.49635" lon="6.63315">
        <ele>32.9</ele>
        <time>2023-11-05T11:17:52Z</time>
      </trkpt>
      <trkpt lat="43.49636" lon="6.63317">
        <ele>33</ele>
        <time>2023-11-05T11:17:53Z</time>
      </trkpt>
      <trkpt lat="43.49636" lon="6.63318">
        <ele>33</ele>
        <time>2023-11-05T11:17:54Z</time>
      </trkpt>
      <trkpt lat="43.49637" lon="6.63319">
        <ele>32.9</ele>
        <time>2023-11-05T11:17:55Z</time>
      </trkpt>
      <trkpt lat="43.49639" lon="6.63321">
        <ele>32.8</ele>
        <time>2023-11-05T11:17:56Z</time>
      </trkpt>
      <trkpt lat="43.4964" lon="6.63322">
        <ele>32.7</ele>
        <time>2023-11-05T11:17:57Z</time>
      </trkpt>
      <trkpt lat="43.4964" lon="6.63322">
        <ele>32.6</ele>
        <time>2023-11-05T11:17:58Z</time>
      </trkpt>
      <trkpt lat="43.49641" lon="6.63324">
        <ele>32.5</ele>
        <time>2023-11-05T11:17:59Z</time>
      </trkpt>
      <trkpt lat="43.49642" lon="6.63325">
        <ele>32.4</ele>
        <time>2023-11-05T11:18:00Z</time>
      </trkpt>
      <trkpt lat="43.49643" lon="6.63326">
        <ele>32.3</ele>
        <time>2023-11-05T11:18:01Z</time>
      </trkpt>
      <trkpt lat="43.49644" lon="6.63327">
        <ele>32.2</ele>
        <time>2023-11-05T11:18:02Z</time>
      </trkpt>
      <trkpt lat="43.49645" lon="6.63328">
        <ele>32.1</ele>
        <time>2023-11-05T11:18:03Z</time>
      </trkpt>
      <trkpt lat="43.49646" lon="6.63329">
        <ele>32.1</ele>
        <time>2023-11-05T11:18:04Z</time>
      </trkpt>
      <trkpt lat="43.49647" lon="6.6333">
        <ele>32.1</ele>
        <time>2023-11-05T11:18:05Z</time>
      </trkpt>
      <trkpt lat="43.49647" lon="6.6333">
        <ele>32.1</ele>
        <time>2023-11-05T11:18:06Z</time>
      </trkpt>
      <trkpt lat="43.49648" lon="6.63331">
        <ele>32.1</ele>
        <time>2023-11-05T11:18:07Z</time>
      </trkpt>
      <trkpt lat="43.49649" lon="6.63331">
        <ele>32</ele>
        <time>2023-11-05T11:18:08Z</time>
      </trkpt>
      <trkpt lat="43.4965" lon="6.63332">
        <ele>32</ele>
        <time>2023-11-05T11:18:09Z</time>
      </trkpt>
      <trkpt lat="43.49651" lon="6.63333">
        <ele>32</ele>
        <time>2023-11-05T11:18:10Z</time>
      </trkpt>
      <trkpt lat="43.49652" lon="6.63335">
        <ele>32</ele>
        <time>2023-11-05T11:18:11Z</time>
      </trkpt>
      <trkpt lat="43.49653" lon="6.63336">
        <ele>32</ele>
        <time>2023-11-05T11:18:12Z</time>
      </trkpt>
      <trkpt lat="43.49653" lon="6.63337">
        <ele>32</ele>
        <time>2023-11-05T11:18:13Z</time>
      </trkpt>
      <trkpt lat="43.49654" lon="6.63338">
        <ele>31.9</ele>
        <time>2023-11-05T11:18:14Z</time>
      </trkpt>
      <trkpt lat="43.49656" lon="6.63338">
        <ele>31.9</ele>
        <time>2023-11-05T11:18:15Z</time>
      </trkpt>
      <trkpt lat="43.49656" lon="6.6334">
        <ele>31.9</ele>
        <time>2023-11-05T11:18:16Z</time>
      </trkpt>
      <trkpt lat="43.49657" lon="6.63342">
        <ele>31.8</ele>
        <time>2023-11-05T11:18:17Z</time>
      </trkpt>
      <trkpt lat="43.49658" lon="6.63343">
        <ele>31.7</ele>
        <time>2023-11-05T11:18:18Z</time>
      </trkpt>
      <trkpt lat="43.49658" lon="6.63344">
        <ele>31.8</ele>
        <time>2023-11-05T11:18:19Z</time>
      </trkpt>
      <trkpt lat="43.4966" lon="6.63346">
        <ele>31.7</ele>
        <time>2023-11-05T11:18:20Z</time>
      </trkpt>
      <trkpt lat="43.4966" lon="6.63348">
        <ele>31.7</ele>
        <time>2023-11-05T11:18:21Z</time>
      </trkpt>
      <trkpt lat="43.49661" lon="6.6335">
        <ele>31.7</ele>
        <time>2023-11-05T11:18:22Z</time>
      </trkpt>
      <trkpt lat="43.49662" lon="6.63351">
        <ele>31.7</ele>
        <time>2023-11-05T11:18:23Z</time>
      </trkpt>
      <trkpt lat="43.49663" lon="6.63353">
        <ele>31.7</ele>
        <time>2023-11-05T11:18:24Z</time>
      </trkpt>
      <trkpt lat="43.49663" lon="6.63354">
        <ele>31.7</ele>
        <time>2023-11-05T11:18:25Z</time>
      </trkpt>
      <trkpt lat="43.49664" lon="6.63356">
        <ele>31.8</ele>
        <time>2023-11-05T11:18:26Z</time>
      </trkpt>
      <trkpt lat="43.49665" lon="6.63357">
        <ele>31.8</ele>
        <time>2023-11-05T11:18:27Z</time>
      </trkpt>
      <trkpt lat="43.49666" lon="6.63358">
        <ele>31.9</ele>
        <time>2023-11-05T11:18:28Z</time>
      </trkpt>
      <trkpt lat="43.49667" lon="6.63359">
        <ele>31.9</ele>
        <time>2023-11-05T11:18:29Z</time>
      </trkpt>
      <trkpt lat="43.49668" lon="6.63361">
        <ele>32</ele>
        <time>2023-11-05T11:18:30Z</time>
      </trkpt>
      <trkpt lat="43.49669" lon="6.63362">
        <ele>32</ele>
        <time>2023-11-05T11:18:31Z</time>
      </trkpt>
      <trkpt lat="43.4967" lon="6.63362">
        <ele>32.1</ele>
        <time>2023-11-05T11:18:32Z</time>
      </trkpt>
      <trkpt lat="43.4967" lon="6.63364">
        <ele>32.2</ele>
        <time>2023-11-05T11:18:33Z</time>
      </trkpt>
      <trkpt lat="43.49671" lon="6.63365">
        <ele>32.2</ele>
        <time>2023-11-05T11:18:34Z</time>
      </trkpt>
      <trkpt lat="43.49672" lon="6.63366">
        <ele>32.3</ele>
        <time>2023-11-05T11:18:35Z</time>
      </trkpt>
      <trkpt lat="43.49673" lon="6.63367">
        <ele>32.5</ele>
        <time>2023-11-05T11:18:36Z</time>
      </trkpt>
      <trkpt lat="43.49674" lon="6.63368">
        <ele>32.6</ele>
        <time>2023-11-05T11:18:37Z</time>
      </trkpt>
      <trkpt lat="43.49675" lon="6.63369">
        <ele>32.8</ele>
        <time>2023-11-05T11:18:38Z</time>
      </trkpt>
      <trkpt lat="43.49676" lon="6.6337">
        <ele>33</ele>
        <time>2023-11-05T11:18:39Z</time>
      </trkpt>
      <trkpt lat="43.49677" lon="6.63371">
        <ele>33.1</ele>
        <time>2023-11-05T11:18:40Z</time>
      </trkpt>
      <trkpt lat="43.49678" lon="6.63372">
        <ele>33.2</ele>
        <time>2023-11-05T11:18:41Z</time>
      </trkpt>
      <trkpt lat="43.49678" lon="6.63373">
        <ele>33.3</ele>
        <time>2023-11-05T11:18:42Z</time>
      </trkpt>
      <trkpt lat="43.49679" lon="6.63375">
        <ele>33.3</ele>
        <time>2023-11-05T11:18:43Z</time>
      </trkpt>
      <trkpt lat="43.4968" lon="6.63376">
        <ele>33.3</ele>
        <time>2023-11-05T11:18:44Z</time>
      </trkpt>
      <trkpt lat="43.49681" lon="6.63376">
        <ele>33.3</ele>
        <time>2023-11-05T11:18:45Z</time>
      </trkpt>
      <trkpt lat="43.49682" lon="6.63377">
        <ele>33.3</ele>
        <time>2023-11-05T11:18:46Z</time>
      </trkpt>
      <trkpt lat="43.49683" lon="6.63378">
        <ele>33.3</ele>
        <time>2023-11-05T11:18:47Z</time>
      </trkpt>
      <trkpt lat="43.49683" lon="6.63377">
        <ele>33.2</ele>
        <time>2023-11-05T11:18:48Z</time>
      </trkpt>
      <trkpt lat="43.49683" lon="6.63377">
        <ele>33.1</ele>
        <time>2023-11-05T11:18:49Z</time>
      </trkpt>
      <trkpt lat="43.49683" lon="6.63377">
        <ele>32.9</ele>
        <time>2023-11-05T11:18:50Z</time>
      </trkpt>
      <trkpt lat="43.49684" lon="6.63377">
        <ele>32.7</ele>
        <time>2023-11-05T11:18:51Z</time>
      </trkpt>
      <trkpt lat="43.49684" lon="6.63377">
        <ele>32.6</ele>
        <time>2023-11-05T11:18:52Z</time>
      </trkpt>
      <trkpt lat="43.49684" lon="6.63377">
        <ele>32.7</ele>
        <time>2023-11-05T11:18:53Z</time>
      </trkpt>
      <trkpt lat="43.49685" lon="6.63378">
        <ele>32.7</ele>
        <time>2023-11-05T11:18:54Z</time>
      </trkpt>
      <trkpt lat="43.49686" lon="6.63378">
        <ele>32.8</ele>
        <time>2023-11-05T11:18:55Z</time>
      </trkpt>
      <trkpt lat="43.49687" lon="6.63378">
        <ele>32.9</ele>
        <time>2023-11-05T11:18:56Z</time>
      </trkpt>
      <trkpt lat="43.49687" lon="6.63377">
        <ele>33</ele>
        <time>2023-11-05T11:18:57Z</time>
      </trkpt>
      <trkpt lat="43.49687" lon="6.63378">
        <ele>33.2</ele>
        <time>2023-11-05T11:18:58Z</time>
      </trkpt>
      <trkpt lat="43.49687" lon="6.63378">
        <ele>33.5</ele>
        <time>2023-11-05T11:18:59Z</time>
      </trkpt>
      <trkpt lat="43.49688" lon="6.63378">
        <ele>33.8</ele>
        <time>2023-11-05T11:19:00Z</time>
      </trkpt>
      <trkpt lat="43.49689" lon="6.63379">
        <ele>34.1</ele>
        <time>2023-11-05T11:19:01Z</time>
      </trkpt>
      <trkpt lat="43.4969" lon="6.63379">
        <ele>34.2</ele>
        <time>2023-11-05T11:19:02Z</time>
      </trkpt>
      <trkpt lat="43.4969" lon="6.63379">
        <ele>34.3</ele>
        <time>2023-11-05T11:19:03Z</time>
      </trkpt>
      <trkpt lat="43.49691" lon="6.63379">
        <ele>34.4</ele>
        <time>2023-11-05T11:19:04Z</time>
      </trkpt>
      <trkpt lat="43.49692" lon="6.6338">
        <ele>34.4</ele>
        <time>2023-11-05T11:19:05Z</time>
      </trkpt>
      <trkpt lat="43.49692" lon="6.6338">
        <ele>34.6</ele>
        <time>2023-11-05T11:19:06Z</time>
      </trkpt>
      <trkpt lat="43.49693" lon="6.63381">
        <ele>34.7</ele>
        <time>2023-11-05T11:19:07Z</time>
      </trkpt>
      <trkpt lat="43.49694" lon="6.63382">
        <ele>34.7</ele>
        <time>2023-11-05T11:19:08Z</time>
      </trkpt>
      <trkpt lat="43.49695" lon="6.63382">
        <ele>34.8</ele>
        <time>2023-11-05T11:19:09Z</time>
      </trkpt>
      <trkpt lat="43.49696" lon="6.63383">
        <ele>35</ele>
        <time>2023-11-05T11:19:10Z</time>
      </trkpt>
      <trkpt lat="43.49697" lon="6.63383">
        <ele>35.1</ele>
        <time>2023-11-05T11:19:11Z</time>
      </trkpt>
      <trkpt lat="43.49698" lon="6.63384">
        <ele>35.2</ele>
        <time>2023-11-05T11:19:12Z</time>
      </trkpt>
      <trkpt lat="43.49699" lon="6.63385">
        <ele>35.3</ele>
        <time>2023-11-05T11:19:13Z</time>
      </trkpt>
      <trkpt lat="43.497" lon="6.63385">
        <ele>35.4</ele>
        <time>2023-11-05T11:19:14Z</time>
      </trkpt>
      <trkpt lat="43.49701" lon="6.63386">
        <ele>35.5</ele>
        <time>2023-11-05T11:19:15Z</time>
      </trkpt>
      <trkpt lat="43.49702" lon="6.63386">
        <ele>35.6</ele>
        <time>2023-11-05T11:19:16Z</time>
      </trkpt>
      <trkpt lat="43.49703" lon="6.63387">
        <ele>35.6</ele>
        <time>2023-11-05T11:19:17Z</time>
      </trkpt>
      <trkpt lat="43.49704" lon="6.63387">
        <ele>35.8</ele>
        <time>2023-11-05T11:19:18Z</time>
      </trkpt>
      <trkpt lat="43.49706" lon="6.63387">
        <ele>35.9</ele>
        <time>2023-11-05T11:19:19Z</time>
      </trkpt>
      <trkpt lat="43.49706" lon="6.63388">
        <ele>36</ele>
        <time>2023-11-05T11:19:20Z</time>
      </trkpt>
      <trkpt lat="43.49708" lon="6.63389">
        <ele>36.2</ele>
        <time>2023-11-05T11:19:21Z</time>
      </trkpt>
      <trkpt lat="43.49709" lon="6.63389">
        <ele>36.4</ele>
        <time>2023-11-05T11:19:22Z</time>
      </trkpt>
      <trkpt lat="43.4971" lon="6.63389">
        <ele>36.5</ele>
        <time>2023-11-05T11:19:23Z</time>
      </trkpt>
      <trkpt lat="43.4971" lon="6.63389">
        <ele>36.6</ele>
        <time>2023-11-05T11:19:24Z</time>
      </trkpt>
      <trkpt lat="43.49711" lon="6.63389">
        <ele>36.7</ele>
        <time>2023-11-05T11:19:25Z</time>
      </trkpt>
      <trkpt lat="43.49712" lon="6.6339">
        <ele>36.9</ele>
        <time>2023-11-05T11:19:26Z</time>
      </trkpt>
      <trkpt lat="43.49713" lon="6.6339">
        <ele>36.8</ele>
        <time>2023-11-05T11:19:27Z</time>
      </trkpt>
      <trkpt lat="43.49714" lon="6.63391">
        <ele>36.8</ele>
        <time>2023-11-05T11:19:28Z</time>
      </trkpt>
      <trkpt lat="43.49714" lon="6.63392">
        <ele>36.8</ele>
        <time>2023-11-05T11:19:29Z</time>
      </trkpt>
      <trkpt lat="43.49716" lon="6.63393">
        <ele>36.8</ele>
        <time>2023-11-05T11:19:30Z</time>
      </trkpt>
      <trkpt lat="43.49716" lon="6.63393">
        <ele>36.7</ele>
        <time>2023-11-05T11:19:31Z</time>
      </trkpt>
      <trkpt lat="43.49717" lon="6.63394">
        <ele>36.8</ele>
        <time>2023-11-05T11:19:32Z</time>
      </trkpt>
      <trkpt lat="43.49719" lon="6.63394">
        <ele>36.9</ele>
        <time>2023-11-05T11:19:33Z</time>
      </trkpt>
      <trkpt lat="43.49719" lon="6.63395">
        <ele>37</ele>
        <time>2023-11-05T11:19:34Z</time>
      </trkpt>
      <trkpt lat="43.4972" lon="6.63396">
        <ele>36.9</ele>
        <time>2023-11-05T11:19:35Z</time>
      </trkpt>
      <trkpt lat="43.49721" lon="6.63396">
        <ele>36.9</ele>
        <time>2023-11-05T11:19:36Z</time>
      </trkpt>
      <trkpt lat="43.49722" lon="6.63397">
        <ele>36.9</ele>
        <time>2023-11-05T11:19:37Z</time>
      </trkpt>
      <trkpt lat="43.49723" lon="6.63397">
        <ele>37</ele>
        <time>2023-11-05T11:19:38Z</time>
      </trkpt>
      <trkpt lat="43.49724" lon="6.63398">
        <ele>37</ele>
        <time>2023-11-05T11:19:39Z</time>
      </trkpt>
      <trkpt lat="43.49725" lon="6.63398">
        <ele>36.9</ele>
        <time>2023-11-05T11:19:40Z</time>
      </trkpt>
      <trkpt lat="43.49726" lon="6.63399">
        <ele>36.9</ele>
        <time>2023-11-05T11:19:41Z</time>
      </trkpt>
      <trkpt lat="43.49727" lon="6.634">
        <ele>36.9</ele>
        <time>2023-11-05T11:19:42Z</time>
      </trkpt>
      <trkpt lat="43.49728" lon="6.63401">
        <ele>37</ele>
        <time>2023-11-05T11:19:43Z</time>
      </trkpt>
      <trkpt lat="43.49729" lon="6.63401">
        <ele>37</ele>
        <time>2023-11-05T11:19:44Z</time>
      </trkpt>
      <trkpt lat="43.49729" lon="6.63403">
        <ele>37.1</ele>
        <time>2023-11-05T11:19:45Z</time>
      </trkpt>
      <trkpt lat="43.4973" lon="6.63404">
        <ele>37.1</ele>
        <time>2023-11-05T11:19:46Z</time>
      </trkpt>
      <trkpt lat="43.4973" lon="6.63405">
        <ele>37.1</ele>
        <time>2023-11-05T11:19:47Z</time>
      </trkpt>
      <trkpt lat="43.49731" lon="6.63406">
        <ele>37.2</ele>
        <time>2023-11-05T11:19:48Z</time>
      </trkpt>
      <trkpt lat="43.49732" lon="6.63407">
        <ele>37.2</ele>
        <time>2023-11-05T11:19:49Z</time>
      </trkpt>
      <trkpt lat="43.49733" lon="6.63408">
        <ele>37.3</ele>
        <time>2023-11-05T11:19:50Z</time>
      </trkpt>
      <trkpt lat="43.49733" lon="6.63409">
        <ele>37.3</ele>
        <time>2023-11-05T11:19:51Z</time>
      </trkpt>
      <trkpt lat="43.49734" lon="6.6341">
        <ele>37.3</ele>
        <time>2023-11-05T11:19:52Z</time>
      </trkpt>
      <trkpt lat="43.49734" lon="6.6341">
        <ele>37.5</ele>
        <time>2023-11-05T11:19:53Z</time>
      </trkpt>
      <trkpt lat="43.49735" lon="6.63411">
        <ele>37.6</ele>
        <time>2023-11-05T11:19:54Z</time>
      </trkpt>
      <trkpt lat="43.49736" lon="6.63412">
        <ele>37.6</ele>
        <time>2023-11-05T11:19:55Z</time>
      </trkpt>
      <trkpt lat="43.49737" lon="6.63413">
        <ele>37.7</ele>
        <time>2023-11-05T11:19:56Z</time>
      </trkpt>
      <trkpt lat="43.49738" lon="6.63415">
        <ele>37.7</ele>
        <time>2023-11-05T11:19:57Z</time>
      </trkpt>
      <trkpt lat="43.49739" lon="6.63416">
        <ele>37.8</ele>
        <time>2023-11-05T11:19:58Z</time>
      </trkpt>
      <trkpt lat="43.4974" lon="6.63417">
        <ele>37.9</ele>
        <time>2023-11-05T11:19:59Z</time>
      </trkpt>
      <trkpt lat="43.49741" lon="6.63418">
        <ele>37.9</ele>
        <time>2023-11-05T11:20:00Z</time>
      </trkpt>
      <trkpt lat="43.49742" lon="6.63419">
        <ele>37.9</ele>
        <time>2023-11-05T11:20:01Z</time>
      </trkpt>
      <trkpt lat="43.49743" lon="6.63421">
        <ele>37.9</ele>
        <time>2023-11-05T11:20:02Z</time>
      </trkpt>
      <trkpt lat="43.49743" lon="6.63422">
        <ele>37.9</ele>
        <time>2023-11-05T11:20:03Z</time>
      </trkpt>
      <trkpt lat="43.49744" lon="6.63423">
        <ele>37.9</ele>
        <time>2023-11-05T11:20:04Z</time>
      </trkpt>
      <trkpt lat="43.49745" lon="6.63424">
        <ele>37.8</ele>
        <time>2023-11-05T11:20:05Z</time>
      </trkpt>
      <trkpt lat="43.49745" lon="6.63425">
        <ele>37.8</ele>
        <time>2023-11-05T11:20:06Z</time>
      </trkpt>
      <trkpt lat="43.49746" lon="6.63425">
        <ele>37.8</ele>
        <time>2023-11-05T11:20:07Z</time>
      </trkpt>
      <trkpt lat="43.49747" lon="6.63426">
        <ele>37.7</ele>
        <time>2023-11-05T11:20:08Z</time>
      </trkpt>
      <trkpt lat="43.49748" lon="6.63427">
        <ele>37.7</ele>
        <time>2023-11-05T11:20:09Z</time>
      </trkpt>
      <trkpt lat="43.49748" lon="6.63428">
        <ele>37.7</ele>
        <time>2023-11-05T11:20:10Z</time>
      </trkpt>
      <trkpt lat="43.49749" lon="6.63429">
        <ele>37.7</ele>
        <time>2023-11-05T11:20:11Z</time>
      </trkpt>
      <trkpt lat="43.4975" lon="6.6343">
        <ele>37.8</ele>
        <time>2023-11-05T11:20:12Z</time>
      </trkpt>
      <trkpt lat="43.49751" lon="6.6343">
        <ele>37.8</ele>
        <time>2023-11-05T11:20:13Z</time>
      </trkpt>
      <trkpt lat="43.49752" lon="6.63431">
        <ele>37.8</ele>
        <time>2023-11-05T11:20:14Z</time>
      </trkpt>
      <trkpt lat="43.49753" lon="6.63432">
        <ele>37.8</ele>
        <time>2023-11-05T11:20:15Z</time>
      </trkpt>
      <trkpt lat="43.49754" lon="6.63433">
        <ele>37.9</ele>
        <time>2023-11-05T11:20:16Z</time>
      </trkpt>
      <trkpt lat="43.49755" lon="6.63435">
        <ele>37.9</ele>
        <time>2023-11-05T11:20:17Z</time>
      </trkpt>
      <trkpt lat="43.49756" lon="6.63436">
        <ele>38</ele>
        <time>2023-11-05T11:20:18Z</time>
      </trkpt>
      <trkpt lat="43.49756" lon="6.63437">
        <ele>38</ele>
        <time>2023-11-05T11:20:19Z</time>
      </trkpt>
      <trkpt lat="43.49757" lon="6.63438">
        <ele>38</ele>
        <time>2023-11-05T11:20:20Z</time>
      </trkpt>
      <trkpt lat="43.49757" lon="6.6344">
        <ele>37.9</ele>
        <time>2023-11-05T11:20:21Z</time>
      </trkpt>
      <trkpt lat="43.49757" lon="6.6344">
        <ele>38</ele>
        <time>2023-11-05T11:20:22Z</time>
      </trkpt>
      <trkpt lat="43.49758" lon="6.6344">
        <ele>38.2</ele>
        <time>2023-11-05T11:20:23Z</time>
      </trkpt>
      <trkpt lat="43.49758" lon="6.6344">
        <ele>38.6</ele>
        <time>2023-11-05T11:20:24Z</time>
      </trkpt>
      <trkpt lat="43.49759" lon="6.6344">
        <ele>38.9</ele>
        <time>2023-11-05T11:20:25Z</time>
      </trkpt>
      <trkpt lat="43.49758" lon="6.6344">
        <ele>39.1</ele>
        <time>2023-11-05T11:20:26Z</time>
      </trkpt>
      <trkpt lat="43.49759" lon="6.6344">
        <ele>39.2</ele>
        <time>2023-11-05T11:20:27Z</time>
      </trkpt>
      <trkpt lat="43.49759" lon="6.6344">
        <ele>39.5</ele>
        <time>2023-11-05T11:20:28Z</time>
      </trkpt>
      <trkpt lat="43.49759" lon="6.6344">
        <ele>39.7</ele>
        <time>2023-11-05T11:20:29Z</time>
      </trkpt>
      <trkpt lat="43.49759" lon="6.6344">
        <ele>39.8</ele>
        <time>2023-11-05T11:20:30Z</time>
      </trkpt>
      <trkpt lat="43.49759" lon="6.6344">
        <ele>39.9</ele>
        <time>2023-11-05T11:20:31Z</time>
      </trkpt>
      <trkpt lat="43.49759" lon="6.6344">
        <ele>39.7</ele>
        <time>2023-11-05T11:20:32Z</time>
      </trkpt>
      <trkpt lat="43.49759" lon="6.6344">
        <ele>39.7</ele>
        <time>2023-11-05T11:20:33Z</time>
      </trkpt>
      <trkpt lat="43.49759" lon="6.6344">
        <ele>39.5</ele>
        <time>2023-11-05T11:20:34Z</time>
      </trkpt>
      <trkpt lat="43.49759" lon="6.63439">
        <ele>39.2</ele>
        <time>2023-11-05T11:20:35Z</time>
      </trkpt>
      <trkpt lat="43.49759" lon="6.63439">
        <ele>39.1</ele>
        <time>2023-11-05T11:20:36Z</time>
      </trkpt>
      <trkpt lat="43.49759" lon="6.63439">
        <ele>39</ele>
        <time>2023-11-05T11:20:37Z</time>
      </trkpt>
      <trkpt lat="43.49759" lon="6.63439">
        <ele>38.9</ele>
        <time>2023-11-05T11:20:38Z</time>
      </trkpt>
      <trkpt lat="43.49759" lon="6.63439">
        <ele>38.7</ele>
        <time>2023-11-05T11:20:39Z</time>
      </trkpt>
      <trkpt lat="43.49759" lon="6.63439">
        <ele>38.7</ele>
        <time>2023-11-05T11:20:40Z</time>
      </trkpt>
      <trkpt lat="43.49759" lon="6.63439">
        <ele>38.8</ele>
        <time>2023-11-05T11:20:41Z</time>
      </trkpt>
      <trkpt lat="43.49759" lon="6.63439">
        <ele>38.7</ele>
        <time>2023-11-05T11:20:42Z</time>
      </trkpt>
      <trkpt lat="43.49759" lon="6.63439">
        <ele>38.7</ele>
        <time>2023-11-05T11:20:43Z</time>
      </trkpt>
      <trkpt lat="43.49759" lon="6.63439">
        <ele>38.7</ele>
        <time>2023-11-05T11:20:44Z</time>
      </trkpt>
      <trkpt lat="43.4976" lon="6.63439">
        <ele>38.6</ele>
        <time>2023-11-05T11:20:45Z</time>
      </trkpt>
      <trkpt lat="43.4976" lon="6.63439">
        <ele>38.6</ele>
        <time>2023-11-05T11:20:46Z</time>
      </trkpt>
      <trkpt lat="43.4976" lon="6.6344">
        <ele>38.5</ele>
        <time>2023-11-05T11:20:47Z</time>
      </trkpt>
      <trkpt lat="43.4976" lon="6.6344">
        <ele>38.5</ele>
        <time>2023-11-05T11:20:48Z</time>
      </trkpt>
      <trkpt lat="43.4976" lon="6.6344">
        <ele>38.5</ele>
        <time>2023-11-05T11:20:49Z</time>
      </trkpt>
      <trkpt lat="43.4976" lon="6.63439">
        <ele>38.3</ele>
        <time>2023-11-05T11:20:50Z</time>
      </trkpt>
      <trkpt lat="43.4976" lon="6.6344">
        <ele>38</ele>
        <time>2023-11-05T11:20:51Z</time>
      </trkpt>
      <trkpt lat="43.4976" lon="6.63439">
        <ele>37.8</ele>
        <time>2023-11-05T11:20:52Z</time>
      </trkpt>
      <trkpt lat="43.4976" lon="6.63439">
        <ele>38</ele>
        <time>2023-11-05T11:20:53Z</time>
      </trkpt>
      <trkpt lat="43.4976" lon="6.63439">
        <ele>38.1</ele>
        <time>2023-11-05T11:20:54Z</time>
      </trkpt>
      <trkpt lat="43.4976" lon="6.63439">
        <ele>38.3</ele>
        <time>2023-11-05T11:20:55Z</time>
      </trkpt>
      <trkpt lat="43.4976" lon="6.63439">
        <ele>38.4</ele>
        <time>2023-11-05T11:20:56Z</time>
      </trkpt>
      <trkpt lat="43.4976" lon="6.63439">
        <ele>38.3</ele>
        <time>2023-11-05T11:20:57Z</time>
      </trkpt>
      <trkpt lat="43.4976" lon="6.63439">
        <ele>38.3</ele>
        <time>2023-11-05T11:20:58Z</time>
      </trkpt>
      <trkpt lat="43.4976" lon="6.63439">
        <ele>38.2</ele>
        <time>2023-11-05T11:20:59Z</time>
      </trkpt>
      <trkpt lat="43.4976" lon="6.63439">
        <ele>38.2</ele>
        <time>2023-11-05T11:21:00Z</time>
      </trkpt>
      <trkpt lat="43.4976" lon="6.63439">
        <ele>38.2</ele>
        <time>2023-11-05T11:21:01Z</time>
      </trkpt>
      <trkpt lat="43.4976" lon="6.63439">
        <ele>38.3</ele>
        <time>2023-11-05T11:21:02Z</time>
      </trkpt>
      <trkpt lat="43.4976" lon="6.63439">
        <ele>38.4</ele>
        <time>2023-11-05T11:21:03Z</time>
      </trkpt>
      <trkpt lat="43.4976" lon="6.63438">
        <ele>38.4</ele>
        <time>2023-11-05T11:21:04Z</time>
      </trkpt>
      <trkpt lat="43.4976" lon="6.63438">
        <ele>38.4</ele>
        <time>2023-11-05T11:21:05Z</time>
      </trkpt>
      <trkpt lat="43.4976" lon="6.63438">
        <ele>38.4</ele>
        <time>2023-11-05T11:21:06Z</time>
      </trkpt>
      <trkpt lat="43.4976" lon="6.63438">
        <ele>38.5</ele>
        <time>2023-11-05T11:21:07Z</time>
      </trkpt>
      <trkpt lat="43.4976" lon="6.63438">
        <ele>38.5</ele>
        <time>2023-11-05T11:21:08Z</time>
      </trkpt>
      <trkpt lat="43.4976" lon="6.63438">
        <ele>38.5</ele>
        <time>2023-11-05T11:21:09Z</time>
      </trkpt>
      <trkpt lat="43.4976" lon="6.63438">
        <ele>38.6</ele>
        <time>2023-11-05T11:21:10Z</time>
      </trkpt>
      <trkpt lat="43.4976" lon="6.63438">
        <ele>38.6</ele>
        <time>2023-11-05T11:21:11Z</time>
      </trkpt>
      <trkpt lat="43.4976" lon="6.63437">
        <ele>38.6</ele>
        <time>2023-11-05T11:21:12Z</time>
      </trkpt>
      <trkpt lat="43.4976" lon="6.63437">
        <ele>38.7</ele>
        <time>2023-11-05T11:21:13Z</time>
      </trkpt>
      <trkpt lat="43.4976" lon="6.63437">
        <ele>38.7</ele>
        <time>2023-11-05T11:21:14Z</time>
      </trkpt>
      <trkpt lat="43.4976" lon="6.63438">
        <ele>38.8</ele>
        <time>2023-11-05T11:21:15Z</time>
      </trkpt>
      <trkpt lat="43.4976" lon="6.63438">
        <ele>38.8</ele>
        <time>2023-11-05T11:21:16Z</time>
      </trkpt>
      <trkpt lat="43.4976" lon="6.63438">
        <ele>38.9</ele>
        <time>2023-11-05T11:21:17Z</time>
      </trkpt>
      <trkpt lat="43.4976" lon="6.63438">
        <ele>38.9</ele>
        <time>2023-11-05T11:21:18Z</time>
      </trkpt>
      <trkpt lat="43.4976" lon="6.63438">
        <ele>39</ele>
        <time>2023-11-05T11:21:19Z</time>
      </trkpt>
      <trkpt lat="43.4976" lon="6.63438">
        <ele>39.1</ele>
        <time>2023-11-05T11:21:20Z</time>
      </trkpt>
      <trkpt lat="43.4976" lon="6.63438">
        <ele>39.1</ele>
        <time>2023-11-05T11:21:21Z</time>
      </trkpt>
      <trkpt lat="43.4976" lon="6.63438">
        <ele>39.1</ele>
        <time>2023-11-05T11:21:22Z</time>
      </trkpt>
      <trkpt lat="43.4976" lon="6.63438">
        <ele>39.1</ele>
        <time>2023-11-05T11:21:23Z</time>
      </trkpt>
      <trkpt lat="43.4976" lon="6.63438">
        <ele>39.1</ele>
        <time>2023-11-05T11:21:24Z</time>
      </trkpt>
      <trkpt lat="43.4976" lon="6.63438">
        <ele>39.1</ele>
        <time>2023-11-05T11:21:25Z</time>
      </trkpt>
      <trkpt lat="43.4976" lon="6.63438">
        <ele>39</ele>
        <time>2023-11-05T11:21:26Z</time>
      </trkpt>
      <trkpt lat="43.4976" lon="6.63438">
        <ele>38.9</ele>
        <time>2023-11-05T11:21:27Z</time>
      </trkpt>
      <trkpt lat="43.4976" lon="6.63438">
        <ele>38.9</ele>
        <time>2023-11-05T11:21:28Z</time>
      </trkpt>
      <trkpt lat="43.4976" lon="6.63438">
        <ele>38.8</ele>
        <time>2023-11-05T11:21:29Z</time>
      </trkpt>
      <trkpt lat="43.4976" lon="6.63438">
        <ele>38.8</ele>
        <time>2023-11-05T11:21:30Z</time>
      </trkpt>
      <trkpt lat="43.4976" lon="6.63438">
        <ele>38.8</ele>
        <time>2023-11-05T11:21:31Z</time>
      </trkpt>
      <trkpt lat="43.4976" lon="6.63438">
        <ele>38.9</ele>
        <time>2023-11-05T11:21:32Z</time>
      </trkpt>
      <trkpt lat="43.4976" lon="6.63438">
        <ele>39</ele>
        <time>2023-11-05T11:21:33Z</time>
      </trkpt>
      <trkpt lat="43.4976" lon="6.63438">
        <ele>38.9</ele>
        <time>2023-11-05T11:21:34Z</time>
      </trkpt>
      <trkpt lat="43.4976" lon="6.63438">
        <ele>39</ele>
        <time>2023-11-05T11:21:35Z</time>
      </trkpt>
      <trkpt lat="43.4976" lon="6.63438">
        <ele>39</ele>
        <time>2023-11-05T11:21:36Z</time>
      </trkpt>
      <trkpt lat="43.4976" lon="6.63438">
        <ele>39.1</ele>
        <time>2023-11-05T11:21:37Z</time>
      </trkpt>
      <trkpt lat="43.4976" lon="6.63438">
        <ele>39.2</ele>
        <time>2023-11-05T11:21:38Z</time>
      </trkpt>
      <trkpt lat="43.4976" lon="6.63438">
        <ele>39.4</ele>
        <time>2023-11-05T11:21:39Z</time>
      </trkpt>
      <trkpt lat="43.49761" lon="6.63438">
        <ele>39.5</ele>
        <time>2023-11-05T11:21:40Z</time>
      </trkpt>
      <trkpt lat="43.49761" lon="6.63438">
        <ele>39.5</ele>
        <time>2023-11-05T11:21:41Z</time>
      </trkpt>
      <trkpt lat="43.49761" lon="6.63438">
        <ele>39.5</ele>
        <time>2023-11-05T11:21:42Z</time>
      </trkpt>
      <trkpt lat="43.49761" lon="6.63438">
        <ele>39.4</ele>
        <time>2023-11-05T11:21:43Z</time>
      </trkpt>
      <trkpt lat="43.49761" lon="6.63438">
        <ele>39.3</ele>
        <time>2023-11-05T11:21:44Z</time>
      </trkpt>
      <trkpt lat="43.49761" lon="6.63438">
        <ele>39.3</ele>
        <time>2023-11-05T11:21:45Z</time>
      </trkpt>
      <trkpt lat="43.49761" lon="6.63438">
        <ele>39.2</ele>
        <time>2023-11-05T11:21:46Z</time>
      </trkpt>
      <trkpt lat="43.49761" lon="6.63438">
        <ele>39.2</ele>
        <time>2023-11-05T11:21:47Z</time>
      </trkpt>
      <trkpt lat="43.49761" lon="6.63438">
        <ele>39.2</ele>
        <time>2023-11-05T11:21:48Z</time>
      </trkpt>
      <trkpt lat="43.49761" lon="6.63438">
        <ele>39.2</ele>
        <time>2023-11-05T11:21:49Z</time>
      </trkpt>
      <trkpt lat="43.49761" lon="6.63438">
        <ele>39.2</ele>
        <time>2023-11-05T11:21:50Z</time>
      </trkpt>
      <trkpt lat="43.49761" lon="6.63438">
        <ele>39.3</ele>
        <time>2023-11-05T11:21:51Z</time>
      </trkpt>
      <trkpt lat="43.49761" lon="6.63438">
        <ele>39.3</ele>
        <time>2023-11-05T11:21:52Z</time>
      </trkpt>
      <trkpt lat="43.49761" lon="6.63438">
        <ele>39.2</ele>
        <time>2023-11-05T11:21:53Z</time>
      </trkpt>
      <trkpt lat="43.49761" lon="6.63438">
        <ele>39.1</ele>
        <time>2023-11-05T11:21:54Z</time>
      </trkpt>
      <trkpt lat="43.49761" lon="6.63438">
        <ele>39</ele>
        <time>2023-11-05T11:21:55Z</time>
      </trkpt>
      <trkpt lat="43.49761" lon="6.63438">
        <ele>39.2</ele>
        <time>2023-11-05T11:21:56Z</time>
      </trkpt>
      <trkpt lat="43.49761" lon="6.63438">
        <ele>39.3</ele>
        <time>2023-11-05T11:21:57Z</time>
      </trkpt>
      <trkpt lat="43.49761" lon="6.63438">
        <ele>39.3</ele>
        <time>2023-11-05T11:21:58Z</time>
      </trkpt>
      <trkpt lat="43.49761" lon="6.63438">
        <ele>39.3</ele>
        <time>2023-11-05T11:21:59Z</time>
      </trkpt>
      <trkpt lat="43.49761" lon="6.63438">
        <ele>39.3</ele>
        <time>2023-11-05T11:22:00Z</time>
      </trkpt>
      <trkpt lat="43.49761" lon="6.63438">
        <ele>39.3</ele>
        <time>2023-11-05T11:22:01Z</time>
      </trkpt>
      <trkpt lat="43.49761" lon="6.63438">
        <ele>39.3</ele>
        <time>2023-11-05T11:22:02Z</time>
      </trkpt>
      <trkpt lat="43.49761" lon="6.63438">
        <ele>39.1</ele>
        <time>2023-11-05T11:22:03Z</time>
      </trkpt>
      <trkpt lat="43.49761" lon="6.63438">
        <ele>39</ele>
        <time>2023-11-05T11:22:04Z</time>
      </trkpt>
      <trkpt lat="43.49761" lon="6.63437">
        <ele>38.9</ele>
        <time>2023-11-05T11:22:05Z</time>
      </trkpt>
      <trkpt lat="43.49761" lon="6.63437">
        <ele>38.8</ele>
        <time>2023-11-05T11:22:06Z</time>
      </trkpt>
      <trkpt lat="43.49761" lon="6.63437">
        <ele>38.7</ele>
        <time>2023-11-05T11:22:07Z</time>
      </trkpt>
      <trkpt lat="43.49761" lon="6.63437">
        <ele>38.6</ele>
        <time>2023-11-05T11:22:08Z</time>
      </trkpt>
      <trkpt lat="43.49761" lon="6.63437">
        <ele>38.7</ele>
        <time>2023-11-05T11:22:09Z</time>
      </trkpt>
      <trkpt lat="43.49761" lon="6.63437">
        <ele>39.2</ele>
        <time>2023-11-05T11:22:10Z</time>
      </trkpt>
      <trkpt lat="43.49761" lon="6.63437">
        <ele>39.5</ele>
        <time>2023-11-05T11:22:11Z</time>
      </trkpt>
      <trkpt lat="43.49761" lon="6.63437">
        <ele>39.6</ele>
        <time>2023-11-05T11:22:12Z</time>
      </trkpt>
      <trkpt lat="43.49761" lon="6.63437">
        <ele>39.7</ele>
        <time>2023-11-05T11:22:13Z</time>
      </trkpt>
      <trkpt lat="43.49761" lon="6.63437">
        <ele>39.7</ele>
        <time>2023-11-05T11:22:14Z</time>
      </trkpt>
      <trkpt lat="43.49761" lon="6.63437">
        <ele>39.7</ele>
        <time>2023-11-05T11:22:15Z</time>
      </trkpt>
      <trkpt lat="43.49761" lon="6.63437">
        <ele>39.7</ele>
        <time>2023-11-05T11:22:16Z</time>
      </trkpt>
      <trkpt lat="43.49761" lon="6.63437">
        <ele>39.6</ele>
        <time>2023-11-05T11:22:17Z</time>
      </trkpt>
      <trkpt lat="43.49761" lon="6.63437">
        <ele>39.5</ele>
        <time>2023-11-05T11:22:18Z</time>
      </trkpt>
      <trkpt lat="43.49761" lon="6.63437">
        <ele>39.5</ele>
        <time>2023-11-05T11:22:19Z</time>
      </trkpt>
      <trkpt lat="43.49761" lon="6.63437">
        <ele>39.4</ele>
        <time>2023-11-05T11:22:20Z</time>
      </trkpt>
      <trkpt lat="43.49761" lon="6.63437">
        <ele>39.4</ele>
        <time>2023-11-05T11:22:21Z</time>
      </trkpt>
      <trkpt lat="43.49761" lon="6.63437">
        <ele>39.4</ele>
        <time>2023-11-05T11:22:22Z</time>
      </trkpt>
      <trkpt lat="43.49761" lon="6.63437">
        <ele>39.4</ele>
        <time>2023-11-05T11:22:23Z</time>
      </trkpt>
      <trkpt lat="43.49761" lon="6.63437">
        <ele>39.4</ele>
        <time>2023-11-05T11:22:24Z</time>
      </trkpt>
      <trkpt lat="43.49761" lon="6.63437">
        <ele>39.4</ele>
        <time>2023-11-05T11:22:25Z</time>
      </trkpt>
      <trkpt lat="43.49761" lon="6.63437">
        <ele>39.4</ele>
        <time>2023-11-05T11:22:26Z</time>
      </trkpt>
      <trkpt lat="43.49761" lon="6.63437">
        <ele>39.5</ele>
        <time>2023-11-05T11:22:27Z</time>
      </trkpt>
      <trkpt lat="43.49761" lon="6.63437">
        <ele>39.7</ele>
        <time>2023-11-05T11:22:28Z</time>
      </trkpt>
      <trkpt lat="43.4976" lon="6.63437">
        <ele>39.9</ele>
        <time>2023-11-05T11:22:29Z</time>
      </trkpt>
      <trkpt lat="43.4976" lon="6.63437">
        <ele>39.9</ele>
        <time>2023-11-05T11:22:30Z</time>
      </trkpt>
      <trkpt lat="43.4976" lon="6.63437">
        <ele>39.9</ele>
        <time>2023-11-05T11:22:31Z</time>
      </trkpt>
      <trkpt lat="43.4976" lon="6.63437">
        <ele>39.8</ele>
        <time>2023-11-05T11:22:32Z</time>
      </trkpt>
      <trkpt lat="43.4976" lon="6.63437">
        <ele>39.7</ele>
        <time>2023-11-05T11:22:33Z</time>
      </trkpt>
      <trkpt lat="43.4976" lon="6.63437">
        <ele>39.6</ele>
        <time>2023-11-05T11:22:34Z</time>
      </trkpt>
      <trkpt lat="43.4976" lon="6.63437">
        <ele>39.6</ele>
        <time>2023-11-05T11:22:35Z</time>
      </trkpt>
      <trkpt lat="43.4976" lon="6.63437">
        <ele>39.7</ele>
        <time>2023-11-05T11:22:36Z</time>
      </trkpt>
      <trkpt lat="43.4976" lon="6.63437">
        <ele>39.8</ele>
        <time>2023-11-05T11:22:37Z</time>
      </trkpt>
      <trkpt lat="43.4976" lon="6.63437">
        <ele>39.9</ele>
        <time>2023-11-05T11:22:38Z</time>
      </trkpt>
      <trkpt lat="43.4976" lon="6.63437">
        <ele>39.9</ele>
        <time>2023-11-05T11:22:39Z</time>
      </trkpt>
      <trkpt lat="43.4976" lon="6.63437">
        <ele>39.9</ele>
        <time>2023-11-05T11:22:40Z</time>
      </trkpt>
      <trkpt lat="43.4976" lon="6.63437">
        <ele>39.9</ele>
        <time>2023-11-05T11:22:41Z</time>
      </trkpt>
      <trkpt lat="43.4976" lon="6.63437">
        <ele>39.9</ele>
        <time>2023-11-05T11:22:42Z</time>
      </trkpt>
      <trkpt lat="43.4976" lon="6.63437">
        <ele>39.9</ele>
        <time>2023-11-05T11:22:43Z</time>
      </trkpt>
      <trkpt lat="43.4976" lon="6.63437">
        <ele>39.8</ele>
        <time>2023-11-05T11:22:44Z</time>
      </trkpt>
      <trkpt lat="43.4976" lon="6.63437">
        <ele>39.8</ele>
        <time>2023-11-05T11:22:45Z</time>
      </trkpt>
      <trkpt lat="43.4976" lon="6.63437">
        <ele>39.8</ele>
        <time>2023-11-05T11:22:46Z</time>
      </trkpt>
      <trkpt lat="43.4976" lon="6.63437">
        <ele>39.8</ele>
        <time>2023-11-05T11:22:47Z</time>
      </trkpt>
      <trkpt lat="43.49759" lon="6.63437">
        <ele>39.8</ele>
        <time>2023-11-05T11:22:48Z</time>
      </trkpt>
      <trkpt lat="43.49759" lon="6.63437">
        <ele>39.7</ele>
        <time>2023-11-05T11:22:49Z</time>
      </trkpt>
      <trkpt lat="43.49759" lon="6.63438">
        <ele>39.7</ele>
        <time>2023-11-05T11:22:50Z</time>
      </trkpt>
      <trkpt lat="43.49759" lon="6.63438">
        <ele>39.6</ele>
        <time>2023-11-05T11:22:51Z</time>
      </trkpt>
      <trkpt lat="43.49759" lon="6.63438">
        <ele>39.6</ele>
        <time>2023-11-05T11:22:52Z</time>
      </trkpt>
      <trkpt lat="43.49759" lon="6.63437">
        <ele>39.6</ele>
        <time>2023-11-05T11:22:53Z</time>
      </trkpt>
      <trkpt lat="43.49759" lon="6.63438">
        <ele>39.6</ele>
        <time>2023-11-05T11:22:54Z</time>
      </trkpt>
      <trkpt lat="43.49759" lon="6.63438">
        <ele>39.7</ele>
        <time>2023-11-05T11:22:55Z</time>
      </trkpt>
      <trkpt lat="43.49759" lon="6.63438">
        <ele>39.7</ele>
        <time>2023-11-05T11:22:56Z</time>
      </trkpt>
      <trkpt lat="43.49759" lon="6.63438">
        <ele>39.8</ele>
        <time>2023-11-05T11:22:57Z</time>
      </trkpt>
      <trkpt lat="43.49759" lon="6.63438">
        <ele>39.8</ele>
        <time>2023-11-05T11:22:58Z</time>
      </trkpt>
      <trkpt lat="43.4976" lon="6.63438">
        <ele>39.8</ele>
        <time>2023-11-05T11:22:59Z</time>
      </trkpt>
      <trkpt lat="43.49759" lon="6.63438">
        <ele>39.8</ele>
        <time>2023-11-05T11:23:00Z</time>
      </trkpt>
      <trkpt lat="43.49759" lon="6.63438">
        <ele>39.8</ele>
        <time>2023-11-05T11:23:01Z</time>
      </trkpt>
      <trkpt lat="43.49759" lon="6.63438">
        <ele>39.8</ele>
        <time>2023-11-05T11:23:02Z</time>
      </trkpt>
      <trkpt lat="43.49759" lon="6.63438">
        <ele>39.8</ele>
        <time>2023-11-05T11:23:03Z</time>
      </trkpt>
      <trkpt lat="43.49759" lon="6.63438">
        <ele>39.8</ele>
        <time>2023-11-05T11:23:04Z</time>
      </trkpt>
      <trkpt lat="43.49759" lon="6.63438">
        <ele>39.7</ele>
        <time>2023-11-05T11:23:05Z</time>
      </trkpt>
      <trkpt lat="43.49759" lon="6.63438">
        <ele>39.7</ele>
        <time>2023-11-05T11:23:06Z</time>
      </trkpt>
      <trkpt lat="43.49759" lon="6.63438">
        <ele>39.7</ele>
        <time>2023-11-05T11:23:07Z</time>
      </trkpt>
      <trkpt lat="43.49759" lon="6.63438">
        <ele>39.7</ele>
        <time>2023-11-05T11:23:08Z</time>
      </trkpt>
      <trkpt lat="43.49759" lon="6.63438">
        <ele>39.8</ele>
        <time>2023-11-05T11:23:09Z</time>
      </trkpt>
      <trkpt lat="43.49759" lon="6.63438">
        <ele>39.9</ele>
        <time>2023-11-05T11:23:10Z</time>
      </trkpt>
      <trkpt lat="43.49759" lon="6.63438">
        <ele>39.9</ele>
        <time>2023-11-05T11:23:11Z</time>
      </trkpt>
      <trkpt lat="43.49759" lon="6.63438">
        <ele>40</ele>
        <time>2023-11-05T11:23:12Z</time>
      </trkpt>
      <trkpt lat="43.49759" lon="6.63438">
        <ele>40.2</ele>
        <time>2023-11-05T11:23:13Z</time>
      </trkpt>
      <trkpt lat="43.49759" lon="6.63438">
        <ele>40.3</ele>
        <time>2023-11-05T11:23:14Z</time>
      </trkpt>
      <trkpt lat="43.49759" lon="6.63438">
        <ele>40.5</ele>
        <time>2023-11-05T11:23:15Z</time>
      </trkpt>
      <trkpt lat="43.4976" lon="6.63438">
        <ele>40.7</ele>
        <time>2023-11-05T11:23:16Z</time>
      </trkpt>
      <trkpt lat="43.4976" lon="6.63438">
        <ele>40.8</ele>
        <time>2023-11-05T11:23:17Z</time>
      </trkpt>
      <trkpt lat="43.4976" lon="6.63438">
        <ele>40.7</ele>
        <time>2023-11-05T11:23:18Z</time>
      </trkpt>
      <trkpt lat="43.4976" lon="6.63438">
        <ele>40.7</ele>
        <time>2023-11-05T11:23:19Z</time>
      </trkpt>
      <trkpt lat="43.4976" lon="6.63438">
        <ele>40.6</ele>
        <time>2023-11-05T11:23:20Z</time>
      </trkpt>
      <trkpt lat="43.4976" lon="6.63438">
        <ele>40.6</ele>
        <time>2023-11-05T11:23:21Z</time>
      </trkpt>
      <trkpt lat="43.4976" lon="6.63438">
        <ele>40.6</ele>
        <time>2023-11-05T11:23:22Z</time>
      </trkpt>
      <trkpt lat="43.4976" lon="6.63438">
        <ele>40.7</ele>
        <time>2023-11-05T11:23:23Z</time>
      </trkpt>
      <trkpt lat="43.4976" lon="6.63439">
        <ele>40.7</ele>
        <time>2023-11-05T11:23:24Z</time>
      </trkpt>
      <trkpt lat="43.49759" lon="6.63439">
        <ele>40.8</ele>
        <time>2023-11-05T11:23:25Z</time>
      </trkpt>
      <trkpt lat="43.49759" lon="6.63439">
        <ele>40.8</ele>
        <time>2023-11-05T11:23:26Z</time>
      </trkpt>
      <trkpt lat="43.49759" lon="6.6344">
        <ele>40.9</ele>
        <time>2023-11-05T11:23:27Z</time>
      </trkpt>
      <trkpt lat="43.4976" lon="6.63441">
        <ele>40.9</ele>
        <time>2023-11-05T11:23:28Z</time>
      </trkpt>
      <trkpt lat="43.49759" lon="6.63441">
        <ele>40.9</ele>
        <time>2023-11-05T11:23:29Z</time>
      </trkpt>
      <trkpt lat="43.49759" lon="6.63441">
        <ele>40.9</ele>
        <time>2023-11-05T11:23:30Z</time>
      </trkpt>
      <trkpt lat="43.49759" lon="6.63442">
        <ele>40.9</ele>
        <time>2023-11-05T11:23:31Z</time>
      </trkpt>
      <trkpt lat="43.49759" lon="6.63443">
        <ele>40.8</ele>
        <time>2023-11-05T11:23:32Z</time>
      </trkpt>
      <trkpt lat="43.49759" lon="6.63445">
        <ele>40.8</ele>
        <time>2023-11-05T11:23:33Z</time>
      </trkpt>
      <trkpt lat="43.49758" lon="6.63446">
        <ele>40.8</ele>
        <time>2023-11-05T11:23:34Z</time>
      </trkpt>
      <trkpt lat="43.49758" lon="6.63448">
        <ele>40.7</ele>
        <time>2023-11-05T11:23:35Z</time>
      </trkpt>
      <trkpt lat="43.49758" lon="6.63449">
        <ele>40.6</ele>
        <time>2023-11-05T11:23:36Z</time>
      </trkpt>
      <trkpt lat="43.49757" lon="6.6345">
        <ele>40.5</ele>
        <time>2023-11-05T11:23:37Z</time>
      </trkpt>
      <trkpt lat="43.49757" lon="6.63451">
        <ele>40.5</ele>
        <time>2023-11-05T11:23:38Z</time>
      </trkpt>
      <trkpt lat="43.49756" lon="6.63452">
        <ele>40.5</ele>
        <time>2023-11-05T11:23:39Z</time>
      </trkpt>
      <trkpt lat="43.49756" lon="6.63454">
        <ele>40.4</ele>
        <time>2023-11-05T11:23:40Z</time>
      </trkpt>
      <trkpt lat="43.49755" lon="6.63455">
        <ele>40.4</ele>
        <time>2023-11-05T11:23:41Z</time>
      </trkpt>
      <trkpt lat="43.49755" lon="6.63457">
        <ele>40.4</ele>
        <time>2023-11-05T11:23:42Z</time>
      </trkpt>
      <trkpt lat="43.49754" lon="6.63458">
        <ele>40.3</ele>
        <time>2023-11-05T11:23:43Z</time>
      </trkpt>
      <trkpt lat="43.49754" lon="6.63459">
        <ele>40.3</ele>
        <time>2023-11-05T11:23:44Z</time>
      </trkpt>
      <trkpt lat="43.49754" lon="6.6346">
        <ele>40.3</ele>
        <time>2023-11-05T11:23:45Z</time>
      </trkpt>
      <trkpt lat="43.49754" lon="6.6346">
        <ele>40.3</ele>
        <time>2023-11-05T11:23:46Z</time>
      </trkpt>
      <trkpt lat="43.49754" lon="6.63461">
        <ele>40.3</ele>
        <time>2023-11-05T11:23:47Z</time>
      </trkpt>
      <trkpt lat="43.49754" lon="6.63461">
        <ele>40.4</ele>
        <time>2023-11-05T11:23:48Z</time>
      </trkpt>
      <trkpt lat="43.49754" lon="6.63461">
        <ele>40.4</ele>
        <time>2023-11-05T11:23:49Z</time>
      </trkpt>
      <trkpt lat="43.49754" lon="6.63461">
        <ele>40.4</ele>
        <time>2023-11-05T11:23:50Z</time>
      </trkpt>
      <trkpt lat="43.49754" lon="6.63462">
        <ele>40.5</ele>
        <time>2023-11-05T11:23:51Z</time>
      </trkpt>
      <trkpt lat="43.49754" lon="6.63462">
        <ele>40.5</ele>
        <time>2023-11-05T11:23:52Z</time>
      </trkpt>
      <trkpt lat="43.49754" lon="6.63463">
        <ele>40.5</ele>
        <time>2023-11-05T11:23:53Z</time>
      </trkpt>
      <trkpt lat="43.49754" lon="6.63463">
        <ele>40.6</ele>
        <time>2023-11-05T11:23:54Z</time>
      </trkpt>
      <trkpt lat="43.49753" lon="6.63464">
        <ele>40.5</ele>
        <time>2023-11-05T11:23:55Z</time>
      </trkpt>
      <trkpt lat="43.49753" lon="6.63466">
        <ele>40.5</ele>
        <time>2023-11-05T11:23:56Z</time>
      </trkpt>
      <trkpt lat="43.49753" lon="6.63467">
        <ele>40.4</ele>
        <time>2023-11-05T11:23:57Z</time>
      </trkpt>
      <trkpt lat="43.49752" lon="6.63468">
        <ele>40.3</ele>
        <time>2023-11-05T11:23:58Z</time>
      </trkpt>
      <trkpt lat="43.49752" lon="6.63469">
        <ele>40.2</ele>
        <time>2023-11-05T11:23:59Z</time>
      </trkpt>
      <trkpt lat="43.49752" lon="6.63471">
        <ele>40</ele>
        <time>2023-11-05T11:24:00Z</time>
      </trkpt>
      <trkpt lat="43.49752" lon="6.63472">
        <ele>39.9</ele>
        <time>2023-11-05T11:24:01Z</time>
      </trkpt>
      <trkpt lat="43.49752" lon="6.63473">
        <ele>39.9</ele>
        <time>2023-11-05T11:24:02Z</time>
      </trkpt>
      <trkpt lat="43.49751" lon="6.63474">
        <ele>39.8</ele>
        <time>2023-11-05T11:24:03Z</time>
      </trkpt>
      <trkpt lat="43.49751" lon="6.63474">
        <ele>39.8</ele>
        <time>2023-11-05T11:24:04Z</time>
      </trkpt>
      <trkpt lat="43.4975" lon="6.63475">
        <ele>39.7</ele>
        <time>2023-11-05T11:24:05Z</time>
      </trkpt>
      <trkpt lat="43.49748" lon="6.63475">
        <ele>39.7</ele>
        <time>2023-11-05T11:24:06Z</time>
      </trkpt>
      <trkpt lat="43.49747" lon="6.63475">
        <ele>39.6</ele>
        <time>2023-11-05T11:24:07Z</time>
      </trkpt>
      <trkpt lat="43.49746" lon="6.63474">
        <ele>39.5</ele>
        <time>2023-11-05T11:24:08Z</time>
      </trkpt>
      <trkpt lat="43.49745" lon="6.63474">
        <ele>39.5</ele>
        <time>2023-11-05T11:24:09Z</time>
      </trkpt>
      <trkpt lat="43.49744" lon="6.63474">
        <ele>39.4</ele>
        <time>2023-11-05T11:24:10Z</time>
      </trkpt>
      <trkpt lat="43.49744" lon="6.63473">
        <ele>39.3</ele>
        <time>2023-11-05T11:24:11Z</time>
      </trkpt>
      <trkpt lat="43.49743" lon="6.63473">
        <ele>39.1</ele>
        <time>2023-11-05T11:24:12Z</time>
      </trkpt>
      <trkpt lat="43.49742" lon="6.63472">
        <ele>38.8</ele>
        <time>2023-11-05T11:24:13Z</time>
      </trkpt>
      <trkpt lat="43.49741" lon="6.63472">
        <ele>38.6</ele>
        <time>2023-11-05T11:24:14Z</time>
      </trkpt>
      <trkpt lat="43.4974" lon="6.63471">
        <ele>38.5</ele>
        <time>2023-11-05T11:24:15Z</time>
      </trkpt>
      <trkpt lat="43.49739" lon="6.63471">
        <ele>38.3</ele>
        <time>2023-11-05T11:24:16Z</time>
      </trkpt>
      <trkpt lat="43.49739" lon="6.6347">
        <ele>38.2</ele>
        <time>2023-11-05T11:24:17Z</time>
      </trkpt>
      <trkpt lat="43.49738" lon="6.63469">
        <ele>38.1</ele>
        <time>2023-11-05T11:24:18Z</time>
      </trkpt>
      <trkpt lat="43.49738" lon="6.63468">
        <ele>38</ele>
        <time>2023-11-05T11:24:19Z</time>
      </trkpt>
      <trkpt lat="43.49738" lon="6.63467">
        <ele>38</ele>
        <time>2023-11-05T11:24:20Z</time>
      </trkpt>
      <trkpt lat="43.49737" lon="6.63466">
        <ele>38</ele>
        <time>2023-11-05T11:24:21Z</time>
      </trkpt>
      <trkpt lat="43.49736" lon="6.63465">
        <ele>38</ele>
        <time>2023-11-05T11:24:22Z</time>
      </trkpt>
      <trkpt lat="43.49736" lon="6.63464">
        <ele>37.9</ele>
        <time>2023-11-05T11:24:23Z</time>
      </trkpt>
      <trkpt lat="43.49735" lon="6.63463">
        <ele>37.7</ele>
        <time>2023-11-05T11:24:24Z</time>
      </trkpt>
      <trkpt lat="43.49735" lon="6.63462">
        <ele>37.6</ele>
        <time>2023-11-05T11:24:25Z</time>
      </trkpt>
      <trkpt lat="43.49735" lon="6.63461">
        <ele>37.6</ele>
        <time>2023-11-05T11:24:26Z</time>
      </trkpt>
      <trkpt lat="43.49735" lon="6.6346">
        <ele>37.6</ele>
        <time>2023-11-05T11:24:27Z</time>
      </trkpt>
      <trkpt lat="43.49734" lon="6.63459">
        <ele>37.6</ele>
        <time>2023-11-05T11:24:28Z</time>
      </trkpt>
      <trkpt lat="43.49733" lon="6.63458">
        <ele>37.6</ele>
        <time>2023-11-05T11:24:29Z</time>
      </trkpt>
      <trkpt lat="43.49732" lon="6.63456">
        <ele>37.6</ele>
        <time>2023-11-05T11:24:30Z</time>
      </trkpt>
      <trkpt lat="43.49731" lon="6.63455">
        <ele>37.5</ele>
        <time>2023-11-05T11:24:31Z</time>
      </trkpt>
      <trkpt lat="43.49731" lon="6.63455">
        <ele>37.5</ele>
        <time>2023-11-05T11:24:32Z</time>
      </trkpt>
      <trkpt lat="43.49731" lon="6.63453">
        <ele>37.3</ele>
        <time>2023-11-05T11:24:33Z</time>
      </trkpt>
      <trkpt lat="43.4973" lon="6.63452">
        <ele>37.1</ele>
        <time>2023-11-05T11:24:34Z</time>
      </trkpt>
      <trkpt lat="43.49729" lon="6.63451">
        <ele>36.9</ele>
        <time>2023-11-05T11:24:35Z</time>
      </trkpt>
      <trkpt lat="43.49728" lon="6.6345">
        <ele>36.8</ele>
        <time>2023-11-05T11:24:36Z</time>
      </trkpt>
      <trkpt lat="43.49728" lon="6.63449">
        <ele>36.6</ele>
        <time>2023-11-05T11:24:37Z</time>
      </trkpt>
      <trkpt lat="43.49727" lon="6.63449">
        <ele>36.4</ele>
        <time>2023-11-05T11:24:38Z</time>
      </trkpt>
      <trkpt lat="43.49725" lon="6.63449">
        <ele>36.4</ele>
        <time>2023-11-05T11:24:39Z</time>
      </trkpt>
      <trkpt lat="43.49724" lon="6.63449">
        <ele>36.3</ele>
        <time>2023-11-05T11:24:40Z</time>
      </trkpt>
      <trkpt lat="43.49723" lon="6.63449">
        <ele>36.3</ele>
        <time>2023-11-05T11:24:41Z</time>
      </trkpt>
      <trkpt lat="43.49722" lon="6.63449">
        <ele>36.3</ele>
        <time>2023-11-05T11:24:42Z</time>
      </trkpt>
      <trkpt lat="43.49721" lon="6.63448">
        <ele>36.4</ele>
        <time>2023-11-05T11:24:43Z</time>
      </trkpt>
      <trkpt lat="43.4972" lon="6.63448">
        <ele>36.3</ele>
        <time>2023-11-05T11:24:44Z</time>
      </trkpt>
      <trkpt lat="43.4972" lon="6.63449">
        <ele>36.3</ele>
        <time>2023-11-05T11:24:45Z</time>
      </trkpt>
      <trkpt lat="43.49719" lon="6.63449">
        <ele>36.2</ele>
        <time>2023-11-05T11:24:46Z</time>
      </trkpt>
      <trkpt lat="43.49718" lon="6.63449">
        <ele>36.2</ele>
        <time>2023-11-05T11:24:47Z</time>
      </trkpt>
      <trkpt lat="43.49717" lon="6.63449">
        <ele>36.2</ele>
        <time>2023-11-05T11:24:48Z</time>
      </trkpt>
      <trkpt lat="43.49717" lon="6.6345">
        <ele>36</ele>
        <time>2023-11-05T11:24:49Z</time>
      </trkpt>
      <trkpt lat="43.49716" lon="6.6345">
        <ele>35.8</ele>
        <time>2023-11-05T11:24:50Z</time>
      </trkpt>
      <trkpt lat="43.49716" lon="6.6345">
        <ele>35.7</ele>
        <time>2023-11-05T11:24:51Z</time>
      </trkpt>
      <trkpt lat="43.49716" lon="6.63451">
        <ele>35.7</ele>
        <time>2023-11-05T11:24:52Z</time>
      </trkpt>
      <trkpt lat="43.49716" lon="6.63451">
        <ele>35.6</ele>
        <time>2023-11-05T11:24:53Z</time>
      </trkpt>
      <trkpt lat="43.49716" lon="6.63451">
        <ele>35.6</ele>
        <time>2023-11-05T11:24:54Z</time>
      </trkpt>
      <trkpt lat="43.49716" lon="6.63452">
        <ele>35.4</ele>
        <time>2023-11-05T11:24:55Z</time>
      </trkpt>
      <trkpt lat="43.49716" lon="6.63452">
        <ele>35.4</ele>
        <time>2023-11-05T11:24:56Z</time>
      </trkpt>
      <trkpt lat="43.49716" lon="6.63452">
        <ele>35.3</ele>
        <time>2023-11-05T11:24:57Z</time>
      </trkpt>
      <trkpt lat="43.49716" lon="6.63452">
        <ele>35.3</ele>
        <time>2023-11-05T11:24:58Z</time>
      </trkpt>
      <trkpt lat="43.49717" lon="6.63453">
        <ele>35.3</ele>
        <time>2023-11-05T11:24:59Z</time>
      </trkpt>
      <trkpt lat="43.49717" lon="6.63453">
        <ele>35.4</ele>
        <time>2023-11-05T11:25:00Z</time>
      </trkpt>
      <trkpt lat="43.49718" lon="6.63453">
        <ele>35.3</ele>
        <time>2023-11-05T11:25:01Z</time>
      </trkpt>
      <trkpt lat="43.49718" lon="6.63453">
        <ele>35.3</ele>
        <time>2023-11-05T11:25:02Z</time>
      </trkpt>
      <trkpt lat="43.49718" lon="6.63452">
        <ele>35.3</ele>
        <time>2023-11-05T11:25:03Z</time>
      </trkpt>
      <trkpt lat="43.49718" lon="6.63452">
        <ele>35.3</ele>
        <time>2023-11-05T11:25:04Z</time>
      </trkpt>
      <trkpt lat="43.49719" lon="6.63452">
        <ele>35.3</ele>
        <time>2023-11-05T11:25:05Z</time>
      </trkpt>
      <trkpt lat="43.49719" lon="6.63452">
        <ele>35.2</ele>
        <time>2023-11-05T11:25:06Z</time>
      </trkpt>
      <trkpt lat="43.49719" lon="6.63451">
        <ele>35.1</ele>
        <time>2023-11-05T11:25:07Z</time>
      </trkpt>
      <trkpt lat="43.49719" lon="6.63451">
        <ele>35.1</ele>
        <time>2023-11-05T11:25:08Z</time>
      </trkpt>
      <trkpt lat="43.4972" lon="6.63451">
        <ele>35.1</ele>
        <time>2023-11-05T11:25:09Z</time>
      </trkpt>
      <trkpt lat="43.49721" lon="6.63451">
        <ele>35.2</ele>
        <time>2023-11-05T11:25:10Z</time>
      </trkpt>
      <trkpt lat="43.49721" lon="6.63452">
        <ele>35.3</ele>
        <time>2023-11-05T11:25:11Z</time>
      </trkpt>
      <trkpt lat="43.49721" lon="6.63452">
        <ele>35.4</ele>
        <time>2023-11-05T11:25:12Z</time>
      </trkpt>
      <trkpt lat="43.49722" lon="6.63451">
        <ele>35.7</ele>
        <time>2023-11-05T11:25:13Z</time>
      </trkpt>
      <trkpt lat="43.49721" lon="6.6345">
        <ele>35.9</ele>
        <time>2023-11-05T11:25:14Z</time>
      </trkpt>
      <trkpt lat="43.49721" lon="6.6345">
        <ele>35.9</ele>
        <time>2023-11-05T11:25:15Z</time>
      </trkpt>
      <trkpt lat="43.49721" lon="6.63448">
        <ele>35.9</ele>
        <time>2023-11-05T11:25:16Z</time>
      </trkpt>
      <trkpt lat="43.49721" lon="6.63447">
        <ele>35.9</ele>
        <time>2023-11-05T11:25:17Z</time>
      </trkpt>
      <trkpt lat="43.4972" lon="6.63446">
        <ele>35.9</ele>
        <time>2023-11-05T11:25:18Z</time>
      </trkpt>
      <trkpt lat="43.4972" lon="6.63445">
        <ele>35.9</ele>
        <time>2023-11-05T11:25:19Z</time>
      </trkpt>
      <trkpt lat="43.49719" lon="6.63444">
        <ele>35.8</ele>
        <time>2023-11-05T11:25:20Z</time>
      </trkpt>
      <trkpt lat="43.49719" lon="6.63444">
        <ele>35.8</ele>
        <time>2023-11-05T11:25:21Z</time>
      </trkpt>
      <trkpt lat="43.49718" lon="6.63444">
        <ele>35.7</ele>
        <time>2023-11-05T11:25:22Z</time>
      </trkpt>
      <trkpt lat="43.49718" lon="6.63443">
        <ele>35.5</ele>
        <time>2023-11-05T11:25:23Z</time>
      </trkpt>
      <trkpt lat="43.49717" lon="6.63441">
        <ele>35.5</ele>
        <time>2023-11-05T11:25:24Z</time>
      </trkpt>
      <trkpt lat="43.49717" lon="6.6344">
        <ele>35.3</ele>
        <time>2023-11-05T11:25:25Z</time>
      </trkpt>
      <trkpt lat="43.49716" lon="6.63439">
        <ele>35.2</ele>
        <time>2023-11-05T11:25:26Z</time>
      </trkpt>
      <trkpt lat="43.49716" lon="6.63438">
        <ele>35.1</ele>
        <time>2023-11-05T11:25:27Z</time>
      </trkpt>
      <trkpt lat="43.49715" lon="6.63438">
        <ele>35</ele>
        <time>2023-11-05T11:25:28Z</time>
      </trkpt>
      <trkpt lat="43.49714" lon="6.63437">
        <ele>35</ele>
        <time>2023-11-05T11:25:29Z</time>
      </trkpt>
      <trkpt lat="43.49714" lon="6.63436">
        <ele>35</ele>
        <time>2023-11-05T11:25:30Z</time>
      </trkpt>
      <trkpt lat="43.49713" lon="6.63435">
        <ele>34.9</ele>
        <time>2023-11-05T11:25:31Z</time>
      </trkpt>
      <trkpt lat="43.49713" lon="6.63434">
        <ele>34.7</ele>
        <time>2023-11-05T11:25:32Z</time>
      </trkpt>
      <trkpt lat="43.49713" lon="6.63433">
        <ele>34.7</ele>
        <time>2023-11-05T11:25:33Z</time>
      </trkpt>
      <trkpt lat="43.49712" lon="6.63432">
        <ele>34.6</ele>
        <time>2023-11-05T11:25:34Z</time>
      </trkpt>
      <trkpt lat="43.49712" lon="6.63431">
        <ele>34.5</ele>
        <time>2023-11-05T11:25:35Z</time>
      </trkpt>
      <trkpt lat="43.49712" lon="6.6343">
        <ele>34.4</ele>
        <time>2023-11-05T11:25:36Z</time>
      </trkpt>
      <trkpt lat="43.49712" lon="6.6343">
        <ele>34.2</ele>
        <time>2023-11-05T11:25:37Z</time>
      </trkpt>
      <trkpt lat="43.49712" lon="6.63429">
        <ele>34.1</ele>
        <time>2023-11-05T11:25:38Z</time>
      </trkpt>
      <trkpt lat="43.49712" lon="6.63428">
        <ele>34</ele>
        <time>2023-11-05T11:25:39Z</time>
      </trkpt>
      <trkpt lat="43.49711" lon="6.63427">
        <ele>34</ele>
        <time>2023-11-05T11:25:40Z</time>
      </trkpt>
      <trkpt lat="43.4971" lon="6.63425">
        <ele>34</ele>
        <time>2023-11-05T11:25:41Z</time>
      </trkpt>
      <trkpt lat="43.4971" lon="6.63424">
        <ele>34</ele>
        <time>2023-11-05T11:25:42Z</time>
      </trkpt>
      <trkpt lat="43.49709" lon="6.63423">
        <ele>33.9</ele>
        <time>2023-11-05T11:25:43Z</time>
      </trkpt>
      <trkpt lat="43.49708" lon="6.63423">
        <ele>34</ele>
        <time>2023-11-05T11:25:44Z</time>
      </trkpt>
      <trkpt lat="43.49708" lon="6.63422">
        <ele>33.9</ele>
        <time>2023-11-05T11:25:45Z</time>
      </trkpt>
      <trkpt lat="43.49707" lon="6.63421">
        <ele>33.8</ele>
        <time>2023-11-05T11:25:46Z</time>
      </trkpt>
      <trkpt lat="43.49707" lon="6.6342">
        <ele>33.7</ele>
        <time>2023-11-05T11:25:47Z</time>
      </trkpt>
      <trkpt lat="43.49707" lon="6.63419">
        <ele>33.6</ele>
        <time>2023-11-05T11:25:48Z</time>
      </trkpt>
      <trkpt lat="43.49706" lon="6.63418">
        <ele>33.6</ele>
        <time>2023-11-05T11:25:49Z</time>
      </trkpt>
      <trkpt lat="43.49706" lon="6.63417">
        <ele>33.7</ele>
        <time>2023-11-05T11:25:50Z</time>
      </trkpt>
      <trkpt lat="43.49705" lon="6.63416">
        <ele>33.9</ele>
        <time>2023-11-05T11:25:51Z</time>
      </trkpt>
      <trkpt lat="43.49704" lon="6.63415">
        <ele>34</ele>
        <time>2023-11-05T11:25:52Z</time>
      </trkpt>
      <trkpt lat="43.49704" lon="6.63415">
        <ele>34.1</ele>
        <time>2023-11-05T11:25:53Z</time>
      </trkpt>
      <trkpt lat="43.49703" lon="6.63415">
        <ele>34.3</ele>
        <time>2023-11-05T11:25:54Z</time>
      </trkpt>
      <trkpt lat="43.49703" lon="6.63415">
        <ele>34.4</ele>
        <time>2023-11-05T11:25:55Z</time>
      </trkpt>
      <trkpt lat="43.49703" lon="6.63415">
        <ele>34.5</ele>
        <time>2023-11-05T11:25:56Z</time>
      </trkpt>
      <trkpt lat="43.49703" lon="6.63415">
        <ele>34.6</ele>
        <time>2023-11-05T11:25:57Z</time>
      </trkpt>
      <trkpt lat="43.49703" lon="6.63415">
        <ele>34.6</ele>
        <time>2023-11-05T11:25:58Z</time>
      </trkpt>
      <trkpt lat="43.49703" lon="6.63415">
        <ele>34.6</ele>
        <time>2023-11-05T11:25:59Z</time>
      </trkpt>
      <trkpt lat="43.49703" lon="6.63415">
        <ele>34.6</ele>
        <time>2023-11-05T11:26:00Z</time>
      </trkpt>
      <trkpt lat="43.49702" lon="6.63415">
        <ele>34.6</ele>
        <time>2023-11-05T11:26:01Z</time>
      </trkpt>
      <trkpt lat="43.49702" lon="6.63415">
        <ele>34.7</ele>
        <time>2023-11-05T11:26:02Z</time>
      </trkpt>
      <trkpt lat="43.49702" lon="6.63414">
        <ele>34.7</ele>
        <time>2023-11-05T11:26:03Z</time>
      </trkpt>
      <trkpt lat="43.49702" lon="6.63413">
        <ele>34.7</ele>
        <time>2023-11-05T11:26:04Z</time>
      </trkpt>
      <trkpt lat="43.49702" lon="6.63412">
        <ele>34.5</ele>
        <time>2023-11-05T11:26:05Z</time>
      </trkpt>
      <trkpt lat="43.49701" lon="6.63411">
        <ele>34.5</ele>
        <time>2023-11-05T11:26:06Z</time>
      </trkpt>
      <trkpt lat="43.497" lon="6.63409">
        <ele>34.3</ele>
        <time>2023-11-05T11:26:07Z</time>
      </trkpt>
      <trkpt lat="43.497" lon="6.63409">
        <ele>34.2</ele>
        <time>2023-11-05T11:26:08Z</time>
      </trkpt>
      <trkpt lat="43.497" lon="6.63408">
        <ele>34.2</ele>
        <time>2023-11-05T11:26:09Z</time>
      </trkpt>
      <trkpt lat="43.497" lon="6.63407">
        <ele>34.3</ele>
        <time>2023-11-05T11:26:10Z</time>
      </trkpt>
      <trkpt lat="43.497" lon="6.63406">
        <ele>34.3</ele>
        <time>2023-11-05T11:26:11Z</time>
      </trkpt>
      <trkpt lat="43.497" lon="6.63405">
        <ele>34.4</ele>
        <time>2023-11-05T11:26:12Z</time>
      </trkpt>
      <trkpt lat="43.49699" lon="6.63404">
        <ele>34.3</ele>
        <time>2023-11-05T11:26:13Z</time>
      </trkpt>
      <trkpt lat="43.49699" lon="6.63402">
        <ele>34.2</ele>
        <time>2023-11-05T11:26:14Z</time>
      </trkpt>
      <trkpt lat="43.49699" lon="6.63401">
        <ele>34.1</ele>
        <time>2023-11-05T11:26:15Z</time>
      </trkpt>
      <trkpt lat="43.49698" lon="6.634">
        <ele>34.1</ele>
        <time>2023-11-05T11:26:16Z</time>
      </trkpt>
      <trkpt lat="43.49698" lon="6.63399">
        <ele>34</ele>
        <time>2023-11-05T11:26:17Z</time>
      </trkpt>
      <trkpt lat="43.49697" lon="6.63398">
        <ele>34</ele>
        <time>2023-11-05T11:26:18Z</time>
      </trkpt>
      <trkpt lat="43.49696" lon="6.63397">
        <ele>34</ele>
        <time>2023-11-05T11:26:19Z</time>
      </trkpt>
      <trkpt lat="43.49696" lon="6.63396">
        <ele>34</ele>
        <time>2023-11-05T11:26:20Z</time>
      </trkpt>
      <trkpt lat="43.49694" lon="6.63395">
        <ele>33.9</ele>
        <time>2023-11-05T11:26:21Z</time>
      </trkpt>
      <trkpt lat="43.49694" lon="6.63394">
        <ele>33.8</ele>
        <time>2023-11-05T11:26:22Z</time>
      </trkpt>
      <trkpt lat="43.49693" lon="6.63393">
        <ele>33.8</ele>
        <time>2023-11-05T11:26:23Z</time>
      </trkpt>
      <trkpt lat="43.49692" lon="6.63393">
        <ele>33.6</ele>
        <time>2023-11-05T11:26:24Z</time>
      </trkpt>
      <trkpt lat="43.49691" lon="6.63392">
        <ele>33.6</ele>
        <time>2023-11-05T11:26:25Z</time>
      </trkpt>
      <trkpt lat="43.49691" lon="6.63391">
        <ele>33.5</ele>
        <time>2023-11-05T11:26:26Z</time>
      </trkpt>
      <trkpt lat="43.4969" lon="6.6339">
        <ele>33.5</ele>
        <time>2023-11-05T11:26:27Z</time>
      </trkpt>
      <trkpt lat="43.49689" lon="6.63389">
        <ele>33.5</ele>
        <time>2023-11-05T11:26:28Z</time>
      </trkpt>
      <trkpt lat="43.49689" lon="6.63388">
        <ele>33.5</ele>
        <time>2023-11-05T11:26:29Z</time>
      </trkpt>
      <trkpt lat="43.49688" lon="6.63387">
        <ele>33.5</ele>
        <time>2023-11-05T11:26:30Z</time>
      </trkpt>
      <trkpt lat="43.49688" lon="6.63386">
        <ele>33.5</ele>
        <time>2023-11-05T11:26:31Z</time>
      </trkpt>
      <trkpt lat="43.49687" lon="6.63386">
        <ele>33.5</ele>
        <time>2023-11-05T11:26:32Z</time>
      </trkpt>
      <trkpt lat="43.49687" lon="6.63385">
        <ele>33.5</ele>
        <time>2023-11-05T11:26:33Z</time>
      </trkpt>
      <trkpt lat="43.49686" lon="6.63384">
        <ele>33.4</ele>
        <time>2023-11-05T11:26:34Z</time>
      </trkpt>
      <trkpt lat="43.49685" lon="6.63384">
        <ele>33.3</ele>
        <time>2023-11-05T11:26:35Z</time>
      </trkpt>
      <trkpt lat="43.49685" lon="6.63383">
        <ele>33.3</ele>
        <time>2023-11-05T11:26:36Z</time>
      </trkpt>
      <trkpt lat="43.49684" lon="6.63382">
        <ele>33.3</ele>
        <time>2023-11-05T11:26:37Z</time>
      </trkpt>
      <trkpt lat="43.49683" lon="6.63381">
        <ele>33.3</ele>
        <time>2023-11-05T11:26:38Z</time>
      </trkpt>
      <trkpt lat="43.49682" lon="6.6338">
        <ele>33.4</ele>
        <time>2023-11-05T11:26:39Z</time>
      </trkpt>
      <trkpt lat="43.49682" lon="6.63379">
        <ele>33.4</ele>
        <time>2023-11-05T11:26:40Z</time>
      </trkpt>
      <trkpt lat="43.49681" lon="6.63378">
        <ele>33.5</ele>
        <time>2023-11-05T11:26:41Z</time>
      </trkpt>
      <trkpt lat="43.4968" lon="6.63377">
        <ele>33.5</ele>
        <time>2023-11-05T11:26:42Z</time>
      </trkpt>
      <trkpt lat="43.4968" lon="6.63375">
        <ele>33.5</ele>
        <time>2023-11-05T11:26:43Z</time>
      </trkpt>
      <trkpt lat="43.49679" lon="6.63374">
        <ele>33.5</ele>
        <time>2023-11-05T11:26:44Z</time>
      </trkpt>
      <trkpt lat="43.49679" lon="6.63373">
        <ele>33.4</ele>
        <time>2023-11-05T11:26:45Z</time>
      </trkpt>
      <trkpt lat="43.49678" lon="6.63372">
        <ele>33.4</ele>
        <time>2023-11-05T11:26:46Z</time>
      </trkpt>
      <trkpt lat="43.49678" lon="6.63371">
        <ele>33.4</ele>
        <time>2023-11-05T11:26:47Z</time>
      </trkpt>
      <trkpt lat="43.49677" lon="6.6337">
        <ele>33.4</ele>
        <time>2023-11-05T11:26:48Z</time>
      </trkpt>
      <trkpt lat="43.49677" lon="6.63369">
        <ele>33.5</ele>
        <time>2023-11-05T11:26:49Z</time>
      </trkpt>
      <trkpt lat="43.49676" lon="6.63369">
        <ele>33.6</ele>
        <time>2023-11-05T11:26:50Z</time>
      </trkpt>
      <trkpt lat="43.49675" lon="6.63368">
        <ele>33.6</ele>
        <time>2023-11-05T11:26:51Z</time>
      </trkpt>
      <trkpt lat="43.49675" lon="6.63367">
        <ele>33.7</ele>
        <time>2023-11-05T11:26:52Z</time>
      </trkpt>
      <trkpt lat="43.49674" lon="6.63367">
        <ele>33.7</ele>
        <time>2023-11-05T11:26:53Z</time>
      </trkpt>
      <trkpt lat="43.49673" lon="6.63366">
        <ele>33.8</ele>
        <time>2023-11-05T11:26:54Z</time>
      </trkpt>
      <trkpt lat="43.49673" lon="6.63366">
        <ele>33.7</ele>
        <time>2023-11-05T11:26:55Z</time>
      </trkpt>
      <trkpt lat="43.49672" lon="6.63365">
        <ele>33.7</ele>
        <time>2023-11-05T11:26:56Z</time>
      </trkpt>
      <trkpt lat="43.49671" lon="6.63364">
        <ele>33.7</ele>
        <time>2023-11-05T11:26:57Z</time>
      </trkpt>
      <trkpt lat="43.49671" lon="6.63363">
        <ele>33.7</ele>
        <time>2023-11-05T11:26:58Z</time>
      </trkpt>
      <trkpt lat="43.4967" lon="6.63363">
        <ele>33.7</ele>
        <time>2023-11-05T11:26:59Z</time>
      </trkpt>
      <trkpt lat="43.4967" lon="6.63362">
        <ele>33.7</ele>
        <time>2023-11-05T11:27:00Z</time>
      </trkpt>
      <trkpt lat="43.4967" lon="6.63362">
        <ele>33.6</ele>
        <time>2023-11-05T11:27:01Z</time>
      </trkpt>
      <trkpt lat="43.49669" lon="6.63362">
        <ele>33.6</ele>
        <time>2023-11-05T11:27:02Z</time>
      </trkpt>
      <trkpt lat="43.49669" lon="6.63362">
        <ele>33.6</ele>
        <time>2023-11-05T11:27:03Z</time>
      </trkpt>
      <trkpt lat="43.49669" lon="6.63362">
        <ele>33.5</ele>
        <time>2023-11-05T11:27:04Z</time>
      </trkpt>
      <trkpt lat="43.49669" lon="6.63361">
        <ele>33.5</ele>
        <time>2023-11-05T11:27:05Z</time>
      </trkpt>
      <trkpt lat="43.49669" lon="6.6336">
        <ele>33.4</ele>
        <time>2023-11-05T11:27:06Z</time>
      </trkpt>
      <trkpt lat="43.49668" lon="6.6336">
        <ele>33.1</ele>
        <time>2023-11-05T11:27:07Z</time>
      </trkpt>
      <trkpt lat="43.49667" lon="6.63359">
        <ele>33</ele>
        <time>2023-11-05T11:27:08Z</time>
      </trkpt>
      <trkpt lat="43.49667" lon="6.63358">
        <ele>33.1</ele>
        <time>2023-11-05T11:27:09Z</time>
      </trkpt>
      <trkpt lat="43.49666" lon="6.63357">
        <ele>33.2</ele>
        <time>2023-11-05T11:27:10Z</time>
      </trkpt>
      <trkpt lat="43.49666" lon="6.63356">
        <ele>33.2</ele>
        <time>2023-11-05T11:27:11Z</time>
      </trkpt>
      <trkpt lat="43.49665" lon="6.63356">
        <ele>33.3</ele>
        <time>2023-11-05T11:27:12Z</time>
      </trkpt>
      <trkpt lat="43.49664" lon="6.63355">
        <ele>33.3</ele>
        <time>2023-11-05T11:27:13Z</time>
      </trkpt>
      <trkpt lat="43.49663" lon="6.63354">
        <ele>33.4</ele>
        <time>2023-11-05T11:27:14Z</time>
      </trkpt>
      <trkpt lat="43.49662" lon="6.63353">
        <ele>33.4</ele>
        <time>2023-11-05T11:27:15Z</time>
      </trkpt>
      <trkpt lat="43.4966" lon="6.63351">
        <ele>33.4</ele>
        <time>2023-11-05T11:27:16Z</time>
      </trkpt>
      <trkpt lat="43.49659" lon="6.6335">
        <ele>33.4</ele>
        <time>2023-11-05T11:27:17Z</time>
      </trkpt>
      <trkpt lat="43.49659" lon="6.63349">
        <ele>33.5</ele>
        <time>2023-11-05T11:27:18Z</time>
      </trkpt>
      <trkpt lat="43.49658" lon="6.63348">
        <ele>33.5</ele>
        <time>2023-11-05T11:27:19Z</time>
      </trkpt>
      <trkpt lat="43.49657" lon="6.63347">
        <ele>33.5</ele>
        <time>2023-11-05T11:27:20Z</time>
      </trkpt>
      <trkpt lat="43.49656" lon="6.63346">
        <ele>33.5</ele>
        <time>2023-11-05T11:27:21Z</time>
      </trkpt>
      <trkpt lat="43.49655" lon="6.63345">
        <ele>33.6</ele>
        <time>2023-11-05T11:27:22Z</time>
      </trkpt>
      <trkpt lat="43.49654" lon="6.63344">
        <ele>33.6</ele>
        <time>2023-11-05T11:27:23Z</time>
      </trkpt>
      <trkpt lat="43.49654" lon="6.63343">
        <ele>33.7</ele>
        <time>2023-11-05T11:27:24Z</time>
      </trkpt>
      <trkpt lat="43.49653" lon="6.63342">
        <ele>33.7</ele>
        <time>2023-11-05T11:27:25Z</time>
      </trkpt>
      <trkpt lat="43.49653" lon="6.63341">
        <ele>33.8</ele>
        <time>2023-11-05T11:27:26Z</time>
      </trkpt>
      <trkpt lat="43.49652" lon="6.6334">
        <ele>33.7</ele>
        <time>2023-11-05T11:27:27Z</time>
      </trkpt>
      <trkpt lat="43.49651" lon="6.63339">
        <ele>33.6</ele>
        <time>2023-11-05T11:27:28Z</time>
      </trkpt>
      <trkpt lat="43.4965" lon="6.63338">
        <ele>33.5</ele>
        <time>2023-11-05T11:27:29Z</time>
      </trkpt>
      <trkpt lat="43.4965" lon="6.63338">
        <ele>33.2</ele>
        <time>2023-11-05T11:27:30Z</time>
      </trkpt>
      <trkpt lat="43.49649" lon="6.63337">
        <ele>33.1</ele>
        <time>2023-11-05T11:27:31Z</time>
      </trkpt>
      <trkpt lat="43.49649" lon="6.63336">
        <ele>33.2</ele>
        <time>2023-11-05T11:27:32Z</time>
      </trkpt>
      <trkpt lat="43.49647" lon="6.63335">
        <ele>33.3</ele>
        <time>2023-11-05T11:27:33Z</time>
      </trkpt>
      <trkpt lat="43.49647" lon="6.63334">
        <ele>33.4</ele>
        <time>2023-11-05T11:27:34Z</time>
      </trkpt>
      <trkpt lat="43.49646" lon="6.63333">
        <ele>33.6</ele>
        <time>2023-11-05T11:27:35Z</time>
      </trkpt>
      <trkpt lat="43.49645" lon="6.63332">
        <ele>33.7</ele>
        <time>2023-11-05T11:27:36Z</time>
      </trkpt>
      <trkpt lat="43.49644" lon="6.63331">
        <ele>33.8</ele>
        <time>2023-11-05T11:27:37Z</time>
      </trkpt>
      <trkpt lat="43.49643" lon="6.6333">
        <ele>33.8</ele>
        <time>2023-11-05T11:27:38Z</time>
      </trkpt>
      <trkpt lat="43.49642" lon="6.63328">
        <ele>33.8</ele>
        <time>2023-11-05T11:27:39Z</time>
      </trkpt>
      <trkpt lat="43.49641" lon="6.63327">
        <ele>33.7</ele>
        <time>2023-11-05T11:27:40Z</time>
      </trkpt>
      <trkpt lat="43.49641" lon="6.63326">
        <ele>33.6</ele>
        <time>2023-11-05T11:27:41Z</time>
      </trkpt>
      <trkpt lat="43.4964" lon="6.63325">
        <ele>33.5</ele>
        <time>2023-11-05T11:27:42Z</time>
      </trkpt>
      <trkpt lat="43.49639" lon="6.63324">
        <ele>33.4</ele>
        <time>2023-11-05T11:27:43Z</time>
      </trkpt>
      <trkpt lat="43.49638" lon="6.63323">
        <ele>33.4</ele>
        <time>2023-11-05T11:27:44Z</time>
      </trkpt>
      <trkpt lat="43.49637" lon="6.63322">
        <ele>33.3</ele>
        <time>2023-11-05T11:27:45Z</time>
      </trkpt>
      <trkpt lat="43.49636" lon="6.63321">
        <ele>33.1</ele>
        <time>2023-11-05T11:27:46Z</time>
      </trkpt>
      <trkpt lat="43.49635" lon="6.6332">
        <ele>33</ele>
        <time>2023-11-05T11:27:47Z</time>
      </trkpt>
      <trkpt lat="43.49634" lon="6.63319">
        <ele>32.9</ele>
        <time>2023-11-05T11:27:48Z</time>
      </trkpt>
      <trkpt lat="43.49633" lon="6.63318">
        <ele>32.7</ele>
        <time>2023-11-05T11:27:49Z</time>
      </trkpt>
      <trkpt lat="43.49632" lon="6.63318">
        <ele>32.5</ele>
        <time>2023-11-05T11:27:50Z</time>
      </trkpt>
      <trkpt lat="43.49632" lon="6.63317">
        <ele>32.4</ele>
        <time>2023-11-05T11:27:51Z</time>
      </trkpt>
      <trkpt lat="43.49631" lon="6.63315">
        <ele>32.3</ele>
        <time>2023-11-05T11:27:52Z</time>
      </trkpt>
      <trkpt lat="43.4963" lon="6.63315">
        <ele>32.2</ele>
        <time>2023-11-05T11:27:53Z</time>
      </trkpt>
      <trkpt lat="43.49629" lon="6.63313">
        <ele>32.2</ele>
        <time>2023-11-05T11:27:54Z</time>
      </trkpt>
      <trkpt lat="43.49629" lon="6.63312">
        <ele>32.1</ele>
        <time>2023-11-05T11:27:55Z</time>
      </trkpt>
      <trkpt lat="43.49628" lon="6.63311">
        <ele>32.3</ele>
        <time>2023-11-05T11:27:56Z</time>
      </trkpt>
      <trkpt lat="43.49627" lon="6.6331">
        <ele>32.4</ele>
        <time>2023-11-05T11:27:57Z</time>
      </trkpt>
      <trkpt lat="43.49626" lon="6.63309">
        <ele>32.6</ele>
        <time>2023-11-05T11:27:58Z</time>
      </trkpt>
      <trkpt lat="43.49625" lon="6.63308">
        <ele>32.8</ele>
        <time>2023-11-05T11:27:59Z</time>
      </trkpt>
      <trkpt lat="43.49624" lon="6.63307">
        <ele>32.9</ele>
        <time>2023-11-05T11:28:00Z</time>
      </trkpt>
      <trkpt lat="43.49623" lon="6.63307">
        <ele>33</ele>
        <time>2023-11-05T11:28:01Z</time>
      </trkpt>
      <trkpt lat="43.49622" lon="6.63306">
        <ele>33.1</ele>
        <time>2023-11-05T11:28:02Z</time>
      </trkpt>
      <trkpt lat="43.49622" lon="6.63305">
        <ele>33.1</ele>
        <time>2023-11-05T11:28:03Z</time>
      </trkpt>
      <trkpt lat="43.4962" lon="6.63305">
        <ele>33.1</ele>
        <time>2023-11-05T11:28:04Z</time>
      </trkpt>
      <trkpt lat="43.4962" lon="6.63304">
        <ele>33.1</ele>
        <time>2023-11-05T11:28:05Z</time>
      </trkpt>
      <trkpt lat="43.49619" lon="6.63303">
        <ele>33</ele>
        <time>2023-11-05T11:28:06Z</time>
      </trkpt>
      <trkpt lat="43.49619" lon="6.63304">
        <ele>32.9</ele>
        <time>2023-11-05T11:28:07Z</time>
      </trkpt>
      <trkpt lat="43.49618" lon="6.63303">
        <ele>32.8</ele>
        <time>2023-11-05T11:28:08Z</time>
      </trkpt>
      <trkpt lat="43.49617" lon="6.63302">
        <ele>32.6</ele>
        <time>2023-11-05T11:28:09Z</time>
      </trkpt>
      <trkpt lat="43.49617" lon="6.63302">
        <ele>32.5</ele>
        <time>2023-11-05T11:28:10Z</time>
      </trkpt>
      <trkpt lat="43.49616" lon="6.63301">
        <ele>32.4</ele>
        <time>2023-11-05T11:28:11Z</time>
      </trkpt>
      <trkpt lat="43.49615" lon="6.633">
        <ele>32.3</ele>
        <time>2023-11-05T11:28:12Z</time>
      </trkpt>
      <trkpt lat="43.49613" lon="6.633">
        <ele>32.2</ele>
        <time>2023-11-05T11:28:13Z</time>
      </trkpt>
      <trkpt lat="43.49612" lon="6.63299">
        <ele>32.1</ele>
        <time>2023-11-05T11:28:14Z</time>
      </trkpt>
      <trkpt lat="43.49612" lon="6.63299">
        <ele>32</ele>
        <time>2023-11-05T11:28:15Z</time>
      </trkpt>
      <trkpt lat="43.49611" lon="6.63298">
        <ele>31.9</ele>
        <time>2023-11-05T11:28:16Z</time>
      </trkpt>
      <trkpt lat="43.4961" lon="6.63297">
        <ele>31.8</ele>
        <time>2023-11-05T11:28:17Z</time>
      </trkpt>
      <trkpt lat="43.49609" lon="6.63297">
        <ele>31.8</ele>
        <time>2023-11-05T11:28:18Z</time>
      </trkpt>
      <trkpt lat="43.4961" lon="6.63297">
        <ele>31.8</ele>
        <time>2023-11-05T11:28:19Z</time>
      </trkpt>
      <trkpt lat="43.49609" lon="6.63296">
        <ele>31.7</ele>
        <time>2023-11-05T11:28:20Z</time>
      </trkpt>
      <trkpt lat="43.49609" lon="6.63295">
        <ele>31.7</ele>
        <time>2023-11-05T11:28:21Z</time>
      </trkpt>
      <trkpt lat="43.49607" lon="6.63295">
        <ele>31.7</ele>
        <time>2023-11-05T11:28:22Z</time>
      </trkpt>
      <trkpt lat="43.49606" lon="6.63294">
        <ele>31.7</ele>
        <time>2023-11-05T11:28:23Z</time>
      </trkpt>
      <trkpt lat="43.49605" lon="6.63293">
        <ele>31.7</ele>
        <time>2023-11-05T11:28:24Z</time>
      </trkpt>
      <trkpt lat="43.49604" lon="6.63292">
        <ele>31.6</ele>
        <time>2023-11-05T11:28:25Z</time>
      </trkpt>
      <trkpt lat="43.49603" lon="6.6329">
        <ele>31.5</ele>
        <time>2023-11-05T11:28:26Z</time>
      </trkpt>
      <trkpt lat="43.49601" lon="6.6329">
        <ele>31.5</ele>
        <time>2023-11-05T11:28:27Z</time>
      </trkpt>
      <trkpt lat="43.496" lon="6.63289">
        <ele>31.5</ele>
        <time>2023-11-05T11:28:28Z</time>
      </trkpt>
      <trkpt lat="43.496" lon="6.63288">
        <ele>31.5</ele>
        <time>2023-11-05T11:28:29Z</time>
      </trkpt>
      <trkpt lat="43.496" lon="6.63287">
        <ele>31.5</ele>
        <time>2023-11-05T11:28:30Z</time>
      </trkpt>
      <trkpt lat="43.496" lon="6.63286">
        <ele>31.5</ele>
        <time>2023-11-05T11:28:31Z</time>
      </trkpt>
      <trkpt lat="43.496" lon="6.63286">
        <ele>31.6</ele>
        <time>2023-11-05T11:28:32Z</time>
      </trkpt>
      <trkpt lat="43.496" lon="6.63285">
        <ele>31.7</ele>
        <time>2023-11-05T11:28:33Z</time>
      </trkpt>
      <trkpt lat="43.49598" lon="6.63283">
        <ele>31.7</ele>
        <time>2023-11-05T11:28:34Z</time>
      </trkpt>
      <trkpt lat="43.49596" lon="6.63281">
        <ele>31.7</ele>
        <time>2023-11-05T11:28:35Z</time>
      </trkpt>
      <trkpt lat="43.49595" lon="6.6328">
        <ele>31.8</ele>
        <time>2023-11-05T11:28:36Z</time>
      </trkpt>
      <trkpt lat="43.49595" lon="6.63279">
        <ele>31.8</ele>
        <time>2023-11-05T11:28:37Z</time>
      </trkpt>
      <trkpt lat="43.49595" lon="6.63278">
        <ele>31.8</ele>
        <time>2023-11-05T11:28:38Z</time>
      </trkpt>
      <trkpt lat="43.49594" lon="6.63277">
        <ele>31.7</ele>
        <time>2023-11-05T11:28:39Z</time>
      </trkpt>
      <trkpt lat="43.49594" lon="6.63275">
        <ele>31.7</ele>
        <time>2023-11-05T11:28:40Z</time>
      </trkpt>
      <trkpt lat="43.49593" lon="6.63274">
        <ele>31.7</ele>
        <time>2023-11-05T11:28:41Z</time>
      </trkpt>
      <trkpt lat="43.49593" lon="6.63273">
        <ele>31.8</ele>
        <time>2023-11-05T11:28:42Z</time>
      </trkpt>
      <trkpt lat="43.49592" lon="6.63272">
        <ele>31.7</ele>
        <time>2023-11-05T11:28:43Z</time>
      </trkpt>
      <trkpt lat="43.49591" lon="6.63272">
        <ele>31.7</ele>
        <time>2023-11-05T11:28:44Z</time>
      </trkpt>
      <trkpt lat="43.49591" lon="6.63271">
        <ele>31.7</ele>
        <time>2023-11-05T11:28:45Z</time>
      </trkpt>
      <trkpt lat="43.49589" lon="6.63271">
        <ele>31.8</ele>
        <time>2023-11-05T11:28:46Z</time>
      </trkpt>
      <trkpt lat="43.49588" lon="6.63271">
        <ele>31.8</ele>
        <time>2023-11-05T11:28:47Z</time>
      </trkpt>
      <trkpt lat="43.49587" lon="6.63271">
        <ele>31.9</ele>
        <time>2023-11-05T11:28:48Z</time>
      </trkpt>
      <trkpt lat="43.49586" lon="6.63271">
        <ele>31.9</ele>
        <time>2023-11-05T11:28:49Z</time>
      </trkpt>
      <trkpt lat="43.49586" lon="6.63271">
        <ele>32</ele>
        <time>2023-11-05T11:28:50Z</time>
      </trkpt>
      <trkpt lat="43.49585" lon="6.63272">
        <ele>32</ele>
        <time>2023-11-05T11:28:51Z</time>
      </trkpt>
      <trkpt lat="43.49586" lon="6.63272">
        <ele>32.1</ele>
        <time>2023-11-05T11:28:52Z</time>
      </trkpt>
      <trkpt lat="43.49585" lon="6.63272">
        <ele>32.2</ele>
        <time>2023-11-05T11:28:53Z</time>
      </trkpt>
      <trkpt lat="43.49585" lon="6.63273">
        <ele>32.2</ele>
        <time>2023-11-05T11:28:54Z</time>
      </trkpt>
      <trkpt lat="43.49585" lon="6.63272">
        <ele>32.2</ele>
        <time>2023-11-05T11:28:55Z</time>
      </trkpt>
      <trkpt lat="43.49585" lon="6.63272">
        <ele>32.2</ele>
        <time>2023-11-05T11:28:56Z</time>
      </trkpt>
      <trkpt lat="43.49584" lon="6.63272">
        <ele>32.3</ele>
        <time>2023-11-05T11:28:57Z</time>
      </trkpt>
      <trkpt lat="43.49583" lon="6.63272">
        <ele>32.3</ele>
        <time>2023-11-05T11:28:58Z</time>
      </trkpt>
      <trkpt lat="43.49583" lon="6.63272">
        <ele>32.4</ele>
        <time>2023-11-05T11:28:59Z</time>
      </trkpt>
      <trkpt lat="43.49583" lon="6.63272">
        <ele>32.3</ele>
        <time>2023-11-05T11:29:00Z</time>
      </trkpt>
      <trkpt lat="43.49583" lon="6.63272">
        <ele>32.3</ele>
        <time>2023-11-05T11:29:01Z</time>
      </trkpt>
      <trkpt lat="43.49582" lon="6.63272">
        <ele>32.3</ele>
        <time>2023-11-05T11:29:02Z</time>
      </trkpt>
      <trkpt lat="43.49581" lon="6.63272">
        <ele>32.3</ele>
        <time>2023-11-05T11:29:03Z</time>
      </trkpt>
      <trkpt lat="43.4958" lon="6.63272">
        <ele>32.2</ele>
        <time>2023-11-05T11:29:04Z</time>
      </trkpt>
      <trkpt lat="43.4958" lon="6.63272">
        <ele>32.1</ele>
        <time>2023-11-05T11:29:05Z</time>
      </trkpt>
      <trkpt lat="43.49579" lon="6.63272">
        <ele>32.1</ele>
        <time>2023-11-05T11:29:06Z</time>
      </trkpt>
      <trkpt lat="43.49579" lon="6.63272">
        <ele>32.1</ele>
        <time>2023-11-05T11:29:07Z</time>
      </trkpt>
      <trkpt lat="43.49579" lon="6.63272">
        <ele>32.1</ele>
        <time>2023-11-05T11:29:08Z</time>
      </trkpt>
      <trkpt lat="43.49578" lon="6.63271">
        <ele>32.2</ele>
        <time>2023-11-05T11:29:09Z</time>
      </trkpt>
      <trkpt lat="43.49578" lon="6.63271">
        <ele>32.3</ele>
        <time>2023-11-05T11:29:10Z</time>
      </trkpt>
      <trkpt lat="43.49578" lon="6.63271">
        <ele>32.4</ele>
        <time>2023-11-05T11:29:11Z</time>
      </trkpt>
      <trkpt lat="43.49578" lon="6.63271">
        <ele>32.4</ele>
        <time>2023-11-05T11:29:12Z</time>
      </trkpt>
      <trkpt lat="43.49578" lon="6.63271">
        <ele>32.4</ele>
        <time>2023-11-05T11:29:13Z</time>
      </trkpt>
      <trkpt lat="43.49578" lon="6.63271">
        <ele>32.4</ele>
        <time>2023-11-05T11:29:14Z</time>
      </trkpt>
      <trkpt lat="43.49578" lon="6.63271">
        <ele>32.4</ele>
        <time>2023-11-05T11:29:15Z</time>
      </trkpt>
      <trkpt lat="43.49578" lon="6.63271">
        <ele>32.4</ele>
        <time>2023-11-05T11:29:16Z</time>
      </trkpt>
      <trkpt lat="43.49578" lon="6.63271">
        <ele>32.4</ele>
        <time>2023-11-05T11:29:17Z</time>
      </trkpt>
      <trkpt lat="43.49578" lon="6.63271">
        <ele>32.3</ele>
        <time>2023-11-05T11:29:18Z</time>
      </trkpt>
      <trkpt lat="43.49578" lon="6.63272">
        <ele>32.3</ele>
        <time>2023-11-05T11:29:19Z</time>
      </trkpt>
      <trkpt lat="43.49578" lon="6.63272">
        <ele>32.3</ele>
        <time>2023-11-05T11:29:20Z</time>
      </trkpt>
      <trkpt lat="43.49578" lon="6.63272">
        <ele>32.3</ele>
        <time>2023-11-05T11:29:21Z</time>
      </trkpt>
      <trkpt lat="43.49578" lon="6.63272">
        <ele>32.3</ele>
        <time>2023-11-05T11:29:22Z</time>
      </trkpt>
      <trkpt lat="43.49579" lon="6.63272">
        <ele>32.3</ele>
        <time>2023-11-05T11:29:23Z</time>
      </trkpt>
      <trkpt lat="43.49578" lon="6.63272">
        <ele>32.2</ele>
        <time>2023-11-05T11:29:24Z</time>
      </trkpt>
      <trkpt lat="43.49578" lon="6.63272">
        <ele>32.2</ele>
        <time>2023-11-05T11:29:25Z</time>
      </trkpt>
      <trkpt lat="43.49578" lon="6.63272">
        <ele>32.2</ele>
        <time>2023-11-05T11:29:26Z</time>
      </trkpt>
      <trkpt lat="43.49579" lon="6.63272">
        <ele>32.1</ele>
        <time>2023-11-05T11:29:27Z</time>
      </trkpt>
      <trkpt lat="43.49579" lon="6.63272">
        <ele>32.1</ele>
        <time>2023-11-05T11:29:28Z</time>
      </trkpt>
      <trkpt lat="43.49578" lon="6.63272">
        <ele>32.1</ele>
        <time>2023-11-05T11:29:29Z</time>
      </trkpt>
      <trkpt lat="43.49578" lon="6.63272">
        <ele>32</ele>
        <time>2023-11-05T11:29:30Z</time>
      </trkpt>
      <trkpt lat="43.49578" lon="6.63272">
        <ele>32</ele>
        <time>2023-11-05T11:29:31Z</time>
      </trkpt>
      <trkpt lat="43.49578" lon="6.63273">
        <ele>32</ele>
        <time>2023-11-05T11:29:32Z</time>
      </trkpt>
      <trkpt lat="43.49578" lon="6.63273">
        <ele>32</ele>
        <time>2023-11-05T11:29:33Z</time>
      </trkpt>
      <trkpt lat="43.49579" lon="6.63272">
        <ele>31.9</ele>
        <time>2023-11-05T11:29:34Z</time>
      </trkpt>
      <trkpt lat="43.49579" lon="6.63272">
        <ele>32</ele>
        <time>2023-11-05T11:29:35Z</time>
      </trkpt>
      <trkpt lat="43.49579" lon="6.63272">
        <ele>31.9</ele>
        <time>2023-11-05T11:29:36Z</time>
      </trkpt>
      <trkpt lat="43.49579" lon="6.63273">
        <ele>31.9</ele>
        <time>2023-11-05T11:29:37Z</time>
      </trkpt>
      <trkpt lat="43.49579" lon="6.63273">
        <ele>31.9</ele>
        <time>2023-11-05T11:29:38Z</time>
      </trkpt>
      <trkpt lat="43.49579" lon="6.63273">
        <ele>31.9</ele>
        <time>2023-11-05T11:29:39Z</time>
      </trkpt>
      <trkpt lat="43.49579" lon="6.63274">
        <ele>31.9</ele>
        <time>2023-11-05T11:29:40Z</time>
      </trkpt>
      <trkpt lat="43.49579" lon="6.63274">
        <ele>31.9</ele>
        <time>2023-11-05T11:29:41Z</time>
      </trkpt>
      <trkpt lat="43.49579" lon="6.63274">
        <ele>31.9</ele>
        <time>2023-11-05T11:29:42Z</time>
      </trkpt>
      <trkpt lat="43.49579" lon="6.63274">
        <ele>31.9</ele>
        <time>2023-11-05T11:29:43Z</time>
      </trkpt>
      <trkpt lat="43.49579" lon="6.63274">
        <ele>31.9</ele>
        <time>2023-11-05T11:29:44Z</time>
      </trkpt>
      <trkpt lat="43.49579" lon="6.63273">
        <ele>31.8</ele>
        <time>2023-11-05T11:29:45Z</time>
      </trkpt>
      <trkpt lat="43.49579" lon="6.63273">
        <ele>31.8</ele>
        <time>2023-11-05T11:29:46Z</time>
      </trkpt>
      <trkpt lat="43.49579" lon="6.63272">
        <ele>31.8</ele>
        <time>2023-11-05T11:29:47Z</time>
      </trkpt>
      <trkpt lat="43.49578" lon="6.63271">
        <ele>31.7</ele>
        <time>2023-11-05T11:29:48Z</time>
      </trkpt>
      <trkpt lat="43.49578" lon="6.6327">
        <ele>31.8</ele>
        <time>2023-11-05T11:29:49Z</time>
      </trkpt>
      <trkpt lat="43.49577" lon="6.6327">
        <ele>31.9</ele>
        <time>2023-11-05T11:29:50Z</time>
      </trkpt>
      <trkpt lat="43.49576" lon="6.63269">
        <ele>31.9</ele>
        <time>2023-11-05T11:29:51Z</time>
      </trkpt>
      <trkpt lat="43.49575" lon="6.63268">
        <ele>31.8</ele>
        <time>2023-11-05T11:29:52Z</time>
      </trkpt>
      <trkpt lat="43.49575" lon="6.63267">
        <ele>31.8</ele>
        <time>2023-11-05T11:29:53Z</time>
      </trkpt>
      <trkpt lat="43.49576" lon="6.63266">
        <ele>31.8</ele>
        <time>2023-11-05T11:29:54Z</time>
      </trkpt>
      <trkpt lat="43.49576" lon="6.63264">
        <ele>31.8</ele>
        <time>2023-11-05T11:29:55Z</time>
      </trkpt>
      <trkpt lat="43.49576" lon="6.63262">
        <ele>31.8</ele>
        <time>2023-11-05T11:29:56Z</time>
      </trkpt>
      <trkpt lat="43.49575" lon="6.6326">
        <ele>31.8</ele>
        <time>2023-11-05T11:29:57Z</time>
      </trkpt>
      <trkpt lat="43.49575" lon="6.63259">
        <ele>31.8</ele>
        <time>2023-11-05T11:29:58Z</time>
      </trkpt>
      <trkpt lat="43.49575" lon="6.63258">
        <ele>31.7</ele>
        <time>2023-11-05T11:29:59Z</time>
      </trkpt>
      <trkpt lat="43.49575" lon="6.63257">
        <ele>31.7</ele>
        <time>2023-11-05T11:30:00Z</time>
      </trkpt>
      <trkpt lat="43.49575" lon="6.63255">
        <ele>31.6</ele>
        <time>2023-11-05T11:30:01Z</time>
      </trkpt>
      <trkpt lat="43.49574" lon="6.63255">
        <ele>31.5</ele>
        <time>2023-11-05T11:30:02Z</time>
      </trkpt>
      <trkpt lat="43.49574" lon="6.63255">
        <ele>31.5</ele>
        <time>2023-11-05T11:30:03Z</time>
      </trkpt>
      <trkpt lat="43.49574" lon="6.63254">
        <ele>31.6</ele>
        <time>2023-11-05T11:30:04Z</time>
      </trkpt>
      <trkpt lat="43.49574" lon="6.63253">
        <ele>31.6</ele>
        <time>2023-11-05T11:30:05Z</time>
      </trkpt>
      <trkpt lat="43.49574" lon="6.63251">
        <ele>31.5</ele>
        <time>2023-11-05T11:30:06Z</time>
      </trkpt>
      <trkpt lat="43.49573" lon="6.63249">
        <ele>31.5</ele>
        <time>2023-11-05T11:30:07Z</time>
      </trkpt>
      <trkpt lat="43.49573" lon="6.63248">
        <ele>31.5</ele>
        <time>2023-11-05T11:30:08Z</time>
      </trkpt>
      <trkpt lat="43.49572" lon="6.63247">
        <ele>31.6</ele>
        <time>2023-11-05T11:30:09Z</time>
      </trkpt>
      <trkpt lat="43.49571" lon="6.63246">
        <ele>31.7</ele>
        <time>2023-11-05T11:30:10Z</time>
      </trkpt>
      <trkpt lat="43.4957" lon="6.63244">
        <ele>31.7</ele>
        <time>2023-11-05T11:30:11Z</time>
      </trkpt>
      <trkpt lat="43.49568" lon="6.63243">
        <ele>31.8</ele>
        <time>2023-11-05T11:30:12Z</time>
      </trkpt>
      <trkpt lat="43.49567" lon="6.63242">
        <ele>31.8</ele>
        <time>2023-11-05T11:30:13Z</time>
      </trkpt>
      <trkpt lat="43.49567" lon="6.6324">
        <ele>31.9</ele>
        <time>2023-11-05T11:30:14Z</time>
      </trkpt>
      <trkpt lat="43.49566" lon="6.63239">
        <ele>31.8</ele>
        <time>2023-11-05T11:30:15Z</time>
      </trkpt>
      <trkpt lat="43.49565" lon="6.63239">
        <ele>31.7</ele>
        <time>2023-11-05T11:30:16Z</time>
      </trkpt>
      <trkpt lat="43.49565" lon="6.63238">
        <ele>31.7</ele>
        <time>2023-11-05T11:30:17Z</time>
      </trkpt>
      <trkpt lat="43.49565" lon="6.63237">
        <ele>31.8</ele>
        <time>2023-11-05T11:30:18Z</time>
      </trkpt>
      <trkpt lat="43.49564" lon="6.63236">
        <ele>31.9</ele>
        <time>2023-11-05T11:30:19Z</time>
      </trkpt>
      <trkpt lat="43.49563" lon="6.63235">
        <ele>32</ele>
        <time>2023-11-05T11:30:20Z</time>
      </trkpt>
      <trkpt lat="43.49563" lon="6.63234">
        <ele>32.1</ele>
        <time>2023-11-05T11:30:21Z</time>
      </trkpt>
      <trkpt lat="43.49563" lon="6.63233">
        <ele>32.1</ele>
        <time>2023-11-05T11:30:22Z</time>
      </trkpt>
      <trkpt lat="43.49562" lon="6.63233">
        <ele>32.2</ele>
        <time>2023-11-05T11:30:23Z</time>
      </trkpt>
      <trkpt lat="43.49561" lon="6.63233">
        <ele>32.2</ele>
        <time>2023-11-05T11:30:24Z</time>
      </trkpt>
      <trkpt lat="43.49561" lon="6.63233">
        <ele>32.2</ele>
        <time>2023-11-05T11:30:25Z</time>
      </trkpt>
      <trkpt lat="43.49561" lon="6.63232">
        <ele>32.1</ele>
        <time>2023-11-05T11:30:26Z</time>
      </trkpt>
      <trkpt lat="43.49561" lon="6.63231">
        <ele>32.1</ele>
        <time>2023-11-05T11:30:27Z</time>
      </trkpt>
      <trkpt lat="43.4956" lon="6.6323">
        <ele>32.2</ele>
        <time>2023-11-05T11:30:28Z</time>
      </trkpt>
      <trkpt lat="43.49559" lon="6.63229">
        <ele>32.3</ele>
        <time>2023-11-05T11:30:29Z</time>
      </trkpt>
      <trkpt lat="43.49559" lon="6.63228">
        <ele>32.3</ele>
        <time>2023-11-05T11:30:30Z</time>
      </trkpt>
      <trkpt lat="43.49558" lon="6.63227">
        <ele>32.2</ele>
        <time>2023-11-05T11:30:31Z</time>
      </trkpt>
      <trkpt lat="43.49557" lon="6.63226">
        <ele>32.2</ele>
        <time>2023-11-05T11:30:32Z</time>
      </trkpt>
      <trkpt lat="43.49556" lon="6.63225">
        <ele>32.1</ele>
        <time>2023-11-05T11:30:33Z</time>
      </trkpt>
      <trkpt lat="43.49555" lon="6.63224">
        <ele>32</ele>
        <time>2023-11-05T11:30:34Z</time>
      </trkpt>
      <trkpt lat="43.49554" lon="6.63223">
        <ele>31.8</ele>
        <time>2023-11-05T11:30:35Z</time>
      </trkpt>
      <trkpt lat="43.49553" lon="6.63222">
        <ele>31.7</ele>
        <time>2023-11-05T11:30:36Z</time>
      </trkpt>
      <trkpt lat="43.49552" lon="6.63221">
        <ele>31.6</ele>
        <time>2023-11-05T11:30:37Z</time>
      </trkpt>
      <trkpt lat="43.49551" lon="6.6322">
        <ele>31.6</ele>
        <time>2023-11-05T11:30:38Z</time>
      </trkpt>
      <trkpt lat="43.49551" lon="6.63219">
        <ele>31.5</ele>
        <time>2023-11-05T11:30:39Z</time>
      </trkpt>
      <trkpt lat="43.49549" lon="6.63218">
        <ele>31.5</ele>
        <time>2023-11-05T11:30:40Z</time>
      </trkpt>
      <trkpt lat="43.49549" lon="6.63217">
        <ele>31.5</ele>
        <time>2023-11-05T11:30:41Z</time>
      </trkpt>
      <trkpt lat="43.49548" lon="6.63217">
        <ele>31.5</ele>
        <time>2023-11-05T11:30:42Z</time>
      </trkpt>
      <trkpt lat="43.49547" lon="6.63216">
        <ele>31.7</ele>
        <time>2023-11-05T11:30:43Z</time>
      </trkpt>
      <trkpt lat="43.49546" lon="6.63216">
        <ele>31.7</ele>
        <time>2023-11-05T11:30:44Z</time>
      </trkpt>
      <trkpt lat="43.49545" lon="6.63216">
        <ele>31.8</ele>
        <time>2023-11-05T11:30:45Z</time>
      </trkpt>
      <trkpt lat="43.49544" lon="6.63215">
        <ele>31.6</ele>
        <time>2023-11-05T11:30:46Z</time>
      </trkpt>
      <trkpt lat="43.49543" lon="6.63214">
        <ele>31.6</ele>
        <time>2023-11-05T11:30:47Z</time>
      </trkpt>
      <trkpt lat="43.49542" lon="6.63213">
        <ele>31.6</ele>
        <time>2023-11-05T11:30:48Z</time>
      </trkpt>
      <trkpt lat="43.49541" lon="6.63212">
        <ele>31.5</ele>
        <time>2023-11-05T11:30:49Z</time>
      </trkpt>
      <trkpt lat="43.49539" lon="6.63211">
        <ele>31.6</ele>
        <time>2023-11-05T11:30:50Z</time>
      </trkpt>
      <trkpt lat="43.49539" lon="6.6321">
        <ele>31.5</ele>
        <time>2023-11-05T11:30:51Z</time>
      </trkpt>
      <trkpt lat="43.49538" lon="6.63209">
        <ele>31.5</ele>
        <time>2023-11-05T11:30:52Z</time>
      </trkpt>
      <trkpt lat="43.49538" lon="6.63209">
        <ele>31.6</ele>
        <time>2023-11-05T11:30:53Z</time>
      </trkpt>
      <trkpt lat="43.49537" lon="6.63208">
        <ele>31.5</ele>
        <time>2023-11-05T11:30:54Z</time>
      </trkpt>
      <trkpt lat="43.49536" lon="6.63207">
        <ele>31.5</ele>
        <time>2023-11-05T11:30:55Z</time>
      </trkpt>
      <trkpt lat="43.49536" lon="6.63207">
        <ele>31.4</ele>
        <time>2023-11-05T11:30:56Z</time>
      </trkpt>
      <trkpt lat="43.49535" lon="6.63206">
        <ele>31.4</ele>
        <time>2023-11-05T11:30:57Z</time>
      </trkpt>
      <trkpt lat="43.49535" lon="6.63206">
        <ele>31.4</ele>
        <time>2023-11-05T11:30:58Z</time>
      </trkpt>
      <trkpt lat="43.49534" lon="6.63205">
        <ele>31.5</ele>
        <time>2023-11-05T11:30:59Z</time>
      </trkpt>
      <trkpt lat="43.49534" lon="6.63205">
        <ele>31.5</ele>
        <time>2023-11-05T11:31:00Z</time>
      </trkpt>
      <trkpt lat="43.49533" lon="6.63204">
        <ele>31.6</ele>
        <time>2023-11-05T11:31:01Z</time>
      </trkpt>
      <trkpt lat="43.49532" lon="6.63203">
        <ele>31.7</ele>
        <time>2023-11-05T11:31:02Z</time>
      </trkpt>
      <trkpt lat="43.49532" lon="6.63203">
        <ele>31.7</ele>
        <time>2023-11-05T11:31:03Z</time>
      </trkpt>
      <trkpt lat="43.49532" lon="6.63202">
        <ele>31.8</ele>
        <time>2023-11-05T11:31:04Z</time>
      </trkpt>
      <trkpt lat="43.49531" lon="6.63202">
        <ele>31.8</ele>
        <time>2023-11-05T11:31:05Z</time>
      </trkpt>
      <trkpt lat="43.4953" lon="6.63201">
        <ele>31.8</ele>
        <time>2023-11-05T11:31:06Z</time>
      </trkpt>
      <trkpt lat="43.49529" lon="6.63201">
        <ele>31.7</ele>
        <time>2023-11-05T11:31:07Z</time>
      </trkpt>
      <trkpt lat="43.49529" lon="6.632">
        <ele>31.6</ele>
        <time>2023-11-05T11:31:08Z</time>
      </trkpt>
      <trkpt lat="43.49528" lon="6.632">
        <ele>31.6</ele>
        <time>2023-11-05T11:31:09Z</time>
      </trkpt>
      <trkpt lat="43.49527" lon="6.63199">
        <ele>31.5</ele>
        <time>2023-11-05T11:31:10Z</time>
      </trkpt>
      <trkpt lat="43.49526" lon="6.63198">
        <ele>31.7</ele>
        <time>2023-11-05T11:31:11Z</time>
      </trkpt>
      <trkpt lat="43.49525" lon="6.63198">
        <ele>31.8</ele>
        <time>2023-11-05T11:31:12Z</time>
      </trkpt>
      <trkpt lat="43.49524" lon="6.63197">
        <ele>31.7</ele>
        <time>2023-11-05T11:31:13Z</time>
      </trkpt>
      <trkpt lat="43.49524" lon="6.63197">
        <ele>31.7</ele>
        <time>2023-11-05T11:31:14Z</time>
      </trkpt>
      <trkpt lat="43.49523" lon="6.63196">
        <ele>31.7</ele>
        <time>2023-11-05T11:31:15Z</time>
      </trkpt>
      <trkpt lat="43.49523" lon="6.63196">
        <ele>31.7</ele>
        <time>2023-11-05T11:31:16Z</time>
      </trkpt>
      <trkpt lat="43.49522" lon="6.63195">
        <ele>31.7</ele>
        <time>2023-11-05T11:31:17Z</time>
      </trkpt>
      <trkpt lat="43.49521" lon="6.63194">
        <ele>31.7</ele>
        <time>2023-11-05T11:31:18Z</time>
      </trkpt>
      <trkpt lat="43.4952" lon="6.63194">
        <ele>31.7</ele>
        <time>2023-11-05T11:31:19Z</time>
      </trkpt>
      <trkpt lat="43.49519" lon="6.63193">
        <ele>31.8</ele>
        <time>2023-11-05T11:31:20Z</time>
      </trkpt>
      <trkpt lat="43.49519" lon="6.63193">
        <ele>31.9</ele>
        <time>2023-11-05T11:31:21Z</time>
      </trkpt>
      <trkpt lat="43.49518" lon="6.63192">
        <ele>31.9</ele>
        <time>2023-11-05T11:31:22Z</time>
      </trkpt>
      <trkpt lat="43.49517" lon="6.63191">
        <ele>32</ele>
        <time>2023-11-05T11:31:23Z</time>
      </trkpt>
      <trkpt lat="43.49517" lon="6.63191">
        <ele>32</ele>
        <time>2023-11-05T11:31:24Z</time>
      </trkpt>
      <trkpt lat="43.49516" lon="6.6319">
        <ele>32</ele>
        <time>2023-11-05T11:31:25Z</time>
      </trkpt>
      <trkpt lat="43.49515" lon="6.63189">
        <ele>32.1</ele>
        <time>2023-11-05T11:31:26Z</time>
      </trkpt>
      <trkpt lat="43.49514" lon="6.63188">
        <ele>32.1</ele>
        <time>2023-11-05T11:31:27Z</time>
      </trkpt>
      <trkpt lat="43.49513" lon="6.63188">
        <ele>32.1</ele>
        <time>2023-11-05T11:31:28Z</time>
      </trkpt>
      <trkpt lat="43.49513" lon="6.63186">
        <ele>32.1</ele>
        <time>2023-11-05T11:31:29Z</time>
      </trkpt>
      <trkpt lat="43.49512" lon="6.63186">
        <ele>32.1</ele>
        <time>2023-11-05T11:31:30Z</time>
      </trkpt>
      <trkpt lat="43.4951" lon="6.63185">
        <ele>32.1</ele>
        <time>2023-11-05T11:31:31Z</time>
      </trkpt>
      <trkpt lat="43.49509" lon="6.63184">
        <ele>32.1</ele>
        <time>2023-11-05T11:31:32Z</time>
      </trkpt>
      <trkpt lat="43.49508" lon="6.63183">
        <ele>32</ele>
        <time>2023-11-05T11:31:33Z</time>
      </trkpt>
      <trkpt lat="43.49507" lon="6.63183">
        <ele>32</ele>
        <time>2023-11-05T11:31:34Z</time>
      </trkpt>
      <trkpt lat="43.49507" lon="6.63183">
        <ele>32</ele>
        <time>2023-11-05T11:31:35Z</time>
      </trkpt>
      <trkpt lat="43.49506" lon="6.63182">
        <ele>32</ele>
        <time>2023-11-05T11:31:36Z</time>
      </trkpt>
      <trkpt lat="43.49505" lon="6.63181">
        <ele>32.1</ele>
        <time>2023-11-05T11:31:37Z</time>
      </trkpt>
      <trkpt lat="43.49504" lon="6.6318">
        <ele>32.1</ele>
        <time>2023-11-05T11:31:38Z</time>
      </trkpt>
      <trkpt lat="43.49503" lon="6.6318">
        <ele>32.1</ele>
        <time>2023-11-05T11:31:39Z</time>
      </trkpt>
      <trkpt lat="43.49503" lon="6.6318">
        <ele>32.1</ele>
        <time>2023-11-05T11:31:40Z</time>
      </trkpt>
      <trkpt lat="43.49502" lon="6.63179">
        <ele>32.1</ele>
        <time>2023-11-05T11:31:41Z</time>
      </trkpt>
      <trkpt lat="43.49501" lon="6.63179">
        <ele>32.1</ele>
        <time>2023-11-05T11:31:42Z</time>
      </trkpt>
      <trkpt lat="43.49499" lon="6.63179">
        <ele>32</ele>
        <time>2023-11-05T11:31:43Z</time>
      </trkpt>
      <trkpt lat="43.49499" lon="6.63178">
        <ele>32</ele>
        <time>2023-11-05T11:31:44Z</time>
      </trkpt>
      <trkpt lat="43.49498" lon="6.63178">
        <ele>31.9</ele>
        <time>2023-11-05T11:31:45Z</time>
      </trkpt>
      <trkpt lat="43.49497" lon="6.63179">
        <ele>31.9</ele>
        <time>2023-11-05T11:31:46Z</time>
      </trkpt>
      <trkpt lat="43.49496" lon="6.6318">
        <ele>31.9</ele>
        <time>2023-11-05T11:31:47Z</time>
      </trkpt>
      <trkpt lat="43.49496" lon="6.6318">
        <ele>31.9</ele>
        <time>2023-11-05T11:31:48Z</time>
      </trkpt>
      <trkpt lat="43.49495" lon="6.6318">
        <ele>31.9</ele>
        <time>2023-11-05T11:31:49Z</time>
      </trkpt>
      <trkpt lat="43.49496" lon="6.6318">
        <ele>31.8</ele>
        <time>2023-11-05T11:31:50Z</time>
      </trkpt>
      <trkpt lat="43.49495" lon="6.63179">
        <ele>31.9</ele>
        <time>2023-11-05T11:31:51Z</time>
      </trkpt>
      <trkpt lat="43.49494" lon="6.63179">
        <ele>32</ele>
        <time>2023-11-05T11:31:52Z</time>
      </trkpt>
      <trkpt lat="43.49493" lon="6.63179">
        <ele>32</ele>
        <time>2023-11-05T11:31:53Z</time>
      </trkpt>
      <trkpt lat="43.49492" lon="6.63179">
        <ele>32</ele>
        <time>2023-11-05T11:31:54Z</time>
      </trkpt>
      <trkpt lat="43.49491" lon="6.63179">
        <ele>32.1</ele>
        <time>2023-11-05T11:31:55Z</time>
      </trkpt>
      <trkpt lat="43.4949" lon="6.63179">
        <ele>32.1</ele>
        <time>2023-11-05T11:31:56Z</time>
      </trkpt>
      <trkpt lat="43.4949" lon="6.63179">
        <ele>32.1</ele>
        <time>2023-11-05T11:31:57Z</time>
      </trkpt>
      <trkpt lat="43.49489" lon="6.63179">
        <ele>32.1</ele>
        <time>2023-11-05T11:31:58Z</time>
      </trkpt>
      <trkpt lat="43.49489" lon="6.63179">
        <ele>32.1</ele>
        <time>2023-11-05T11:31:59Z</time>
      </trkpt>
      <trkpt lat="43.49488" lon="6.6318">
        <ele>32.2</ele>
        <time>2023-11-05T11:32:00Z</time>
      </trkpt>
      <trkpt lat="43.49488" lon="6.6318">
        <ele>32.2</ele>
        <time>2023-11-05T11:32:01Z</time>
      </trkpt>
      <trkpt lat="43.49488" lon="6.6318">
        <ele>32.2</ele>
        <time>2023-11-05T11:32:02Z</time>
      </trkpt>
      <trkpt lat="43.49488" lon="6.6318">
        <ele>32.3</ele>
        <time>2023-11-05T11:32:03Z</time>
      </trkpt>
      <trkpt lat="43.49488" lon="6.6318">
        <ele>32.3</ele>
        <time>2023-11-05T11:32:04Z</time>
      </trkpt>
      <trkpt lat="43.49488" lon="6.63179">
        <ele>32.3</ele>
        <time>2023-11-05T11:32:05Z</time>
      </trkpt>
      <trkpt lat="43.49487" lon="6.63179">
        <ele>32.2</ele>
        <time>2023-11-05T11:32:06Z</time>
      </trkpt>
      <trkpt lat="43.49487" lon="6.63178">
        <ele>32.2</ele>
        <time>2023-11-05T11:32:07Z</time>
      </trkpt>
      <trkpt lat="43.49487" lon="6.63177">
        <ele>32.1</ele>
        <time>2023-11-05T11:32:08Z</time>
      </trkpt>
      <trkpt lat="43.49487" lon="6.63176">
        <ele>32.3</ele>
        <time>2023-11-05T11:32:09Z</time>
      </trkpt>
      <trkpt lat="43.49487" lon="6.63176">
        <ele>32.3</ele>
        <time>2023-11-05T11:32:10Z</time>
      </trkpt>
      <trkpt lat="43.49486" lon="6.63176">
        <ele>32.3</ele>
        <time>2023-11-05T11:32:11Z</time>
      </trkpt>
      <trkpt lat="43.49486" lon="6.63175">
        <ele>32.3</ele>
        <time>2023-11-05T11:32:12Z</time>
      </trkpt>
      <trkpt lat="43.49485" lon="6.63174">
        <ele>32.3</ele>
        <time>2023-11-05T11:32:13Z</time>
      </trkpt>
      <trkpt lat="43.49484" lon="6.63174">
        <ele>32.3</ele>
        <time>2023-11-05T11:32:14Z</time>
      </trkpt>
      <trkpt lat="43.49483" lon="6.63173">
        <ele>32.4</ele>
        <time>2023-11-05T11:32:15Z</time>
      </trkpt>
      <trkpt lat="43.49483" lon="6.63173">
        <ele>32.5</ele>
        <time>2023-11-05T11:32:16Z</time>
      </trkpt>
      <trkpt lat="43.49482" lon="6.63172">
        <ele>32.6</ele>
        <time>2023-11-05T11:32:17Z</time>
      </trkpt>
      <trkpt lat="43.49481" lon="6.63172">
        <ele>32.7</ele>
        <time>2023-11-05T11:32:18Z</time>
      </trkpt>
      <trkpt lat="43.4948" lon="6.63172">
        <ele>32.8</ele>
        <time>2023-11-05T11:32:19Z</time>
      </trkpt>
      <trkpt lat="43.49479" lon="6.63172">
        <ele>32.9</ele>
        <time>2023-11-05T11:32:20Z</time>
      </trkpt>
      <trkpt lat="43.49479" lon="6.63172">
        <ele>32.9</ele>
        <time>2023-11-05T11:32:21Z</time>
      </trkpt>
      <trkpt lat="43.49478" lon="6.63171">
        <ele>33</ele>
        <time>2023-11-05T11:32:22Z</time>
      </trkpt>
      <trkpt lat="43.49477" lon="6.63171">
        <ele>33.1</ele>
        <time>2023-11-05T11:32:23Z</time>
      </trkpt>
      <trkpt lat="43.49477" lon="6.6317">
        <ele>33.1</ele>
        <time>2023-11-05T11:32:24Z</time>
      </trkpt>
      <trkpt lat="43.49476" lon="6.63169">
        <ele>33.1</ele>
        <time>2023-11-05T11:32:25Z</time>
      </trkpt>
      <trkpt lat="43.49475" lon="6.63168">
        <ele>33.1</ele>
        <time>2023-11-05T11:32:26Z</time>
      </trkpt>
      <trkpt lat="43.49474" lon="6.63167">
        <ele>33.1</ele>
        <time>2023-11-05T11:32:27Z</time>
      </trkpt>
      <trkpt lat="43.49473" lon="6.63166">
        <ele>33.1</ele>
        <time>2023-11-05T11:32:28Z</time>
      </trkpt>
      <trkpt lat="43.49472" lon="6.63164">
        <ele>32.9</ele>
        <time>2023-11-05T11:32:29Z</time>
      </trkpt>
      <trkpt lat="43.49472" lon="6.63163">
        <ele>32.9</ele>
        <time>2023-11-05T11:32:30Z</time>
      </trkpt>
      <trkpt lat="43.49471" lon="6.63162">
        <ele>32.8</ele>
        <time>2023-11-05T11:32:31Z</time>
      </trkpt>
      <trkpt lat="43.4947" lon="6.63161">
        <ele>32.8</ele>
        <time>2023-11-05T11:32:32Z</time>
      </trkpt>
      <trkpt lat="43.49469" lon="6.6316">
        <ele>32.8</ele>
        <time>2023-11-05T11:32:33Z</time>
      </trkpt>
      <trkpt lat="43.49468" lon="6.63159">
        <ele>32.9</ele>
        <time>2023-11-05T11:32:34Z</time>
      </trkpt>
      <trkpt lat="43.49467" lon="6.63158">
        <ele>32.9</ele>
        <time>2023-11-05T11:32:35Z</time>
      </trkpt>
      <trkpt lat="43.49467" lon="6.63157">
        <ele>32.8</ele>
        <time>2023-11-05T11:32:36Z</time>
      </trkpt>
      <trkpt lat="43.49465" lon="6.63156">
        <ele>32.8</ele>
        <time>2023-11-05T11:32:37Z</time>
      </trkpt>
      <trkpt lat="43.49464" lon="6.63157">
        <ele>32.8</ele>
        <time>2023-11-05T11:32:38Z</time>
      </trkpt>
      <trkpt lat="43.49462" lon="6.63157">
        <ele>32.9</ele>
        <time>2023-11-05T11:32:39Z</time>
      </trkpt>
      <trkpt lat="43.49461" lon="6.63157">
        <ele>33</ele>
        <time>2023-11-05T11:32:40Z</time>
      </trkpt>
      <trkpt lat="43.4946" lon="6.63157">
        <ele>33</ele>
        <time>2023-11-05T11:32:41Z</time>
      </trkpt>
      <trkpt lat="43.49459" lon="6.63157">
        <ele>33.1</ele>
        <time>2023-11-05T11:32:42Z</time>
      </trkpt>
      <trkpt lat="43.49459" lon="6.63158">
        <ele>33.2</ele>
        <time>2023-11-05T11:32:43Z</time>
      </trkpt>
      <trkpt lat="43.49458" lon="6.63159">
        <ele>33.2</ele>
        <time>2023-11-05T11:32:44Z</time>
      </trkpt>
      <trkpt lat="43.49457" lon="6.63159">
        <ele>33.2</ele>
        <time>2023-11-05T11:32:45Z</time>
      </trkpt>
      <trkpt lat="43.49457" lon="6.6316">
        <ele>33.3</ele>
        <time>2023-11-05T11:32:46Z</time>
      </trkpt>
      <trkpt lat="43.49456" lon="6.6316">
        <ele>33.3</ele>
        <time>2023-11-05T11:32:47Z</time>
      </trkpt>
      <trkpt lat="43.49455" lon="6.63161">
        <ele>33.3</ele>
        <time>2023-11-05T11:32:48Z</time>
      </trkpt>
      <trkpt lat="43.49454" lon="6.63161">
        <ele>33.4</ele>
        <time>2023-11-05T11:32:49Z</time>
      </trkpt>
      <trkpt lat="43.49452" lon="6.63161">
        <ele>33.3</ele>
        <time>2023-11-05T11:32:50Z</time>
      </trkpt>
      <trkpt lat="43.49451" lon="6.63161">
        <ele>33.3</ele>
        <time>2023-11-05T11:32:51Z</time>
      </trkpt>
      <trkpt lat="43.49451" lon="6.63162">
        <ele>33.2</ele>
        <time>2023-11-05T11:32:52Z</time>
      </trkpt>
      <trkpt lat="43.4945" lon="6.63161">
        <ele>33.1</ele>
        <time>2023-11-05T11:32:53Z</time>
      </trkpt>
      <trkpt lat="43.4945" lon="6.63161">
        <ele>33</ele>
        <time>2023-11-05T11:32:54Z</time>
      </trkpt>
      <trkpt lat="43.49449" lon="6.6316">
        <ele>33</ele>
        <time>2023-11-05T11:32:55Z</time>
      </trkpt>
      <trkpt lat="43.49448" lon="6.6316">
        <ele>32.9</ele>
        <time>2023-11-05T11:32:56Z</time>
      </trkpt>
      <trkpt lat="43.49447" lon="6.63159">
        <ele>32.9</ele>
        <time>2023-11-05T11:32:57Z</time>
      </trkpt>
      <trkpt lat="43.49446" lon="6.63159">
        <ele>32.9</ele>
        <time>2023-11-05T11:32:58Z</time>
      </trkpt>
      <trkpt lat="43.49446" lon="6.63158">
        <ele>32.9</ele>
        <time>2023-11-05T11:32:59Z</time>
      </trkpt>
      <trkpt lat="43.49445" lon="6.63157">
        <ele>33</ele>
        <time>2023-11-05T11:33:00Z</time>
      </trkpt>
      <trkpt lat="43.49445" lon="6.63156">
        <ele>33</ele>
        <time>2023-11-05T11:33:01Z</time>
      </trkpt>
      <trkpt lat="43.49444" lon="6.63156">
        <ele>33</ele>
        <time>2023-11-05T11:33:02Z</time>
      </trkpt>
      <trkpt lat="43.49443" lon="6.63155">
        <ele>33</ele>
        <time>2023-11-05T11:33:03Z</time>
      </trkpt>
      <trkpt lat="43.49443" lon="6.63154">
        <ele>33</ele>
        <time>2023-11-05T11:33:04Z</time>
      </trkpt>
      <trkpt lat="43.49442" lon="6.63153">
        <ele>32.9</ele>
        <time>2023-11-05T11:33:05Z</time>
      </trkpt>
      <trkpt lat="43.49441" lon="6.63152">
        <ele>32.9</ele>
        <time>2023-11-05T11:33:06Z</time>
      </trkpt>
      <trkpt lat="43.4944" lon="6.63152">
        <ele>32.9</ele>
        <time>2023-11-05T11:33:07Z</time>
      </trkpt>
      <trkpt lat="43.4944" lon="6.63151">
        <ele>32.8</ele>
        <time>2023-11-05T11:33:08Z</time>
      </trkpt>
      <trkpt lat="43.49439" lon="6.6315">
        <ele>32.7</ele>
        <time>2023-11-05T11:33:09Z</time>
      </trkpt>
      <trkpt lat="43.49439" lon="6.63149">
        <ele>32.7</ele>
        <time>2023-11-05T11:33:10Z</time>
      </trkpt>
      <trkpt lat="43.49439" lon="6.63149">
        <ele>32.7</ele>
        <time>2023-11-05T11:33:11Z</time>
      </trkpt>
      <trkpt lat="43.49439" lon="6.63149">
        <ele>32.7</ele>
        <time>2023-11-05T11:33:12Z</time>
      </trkpt>
      <trkpt lat="43.49438" lon="6.63148">
        <ele>32.5</ele>
        <time>2023-11-05T11:33:13Z</time>
      </trkpt>
      <trkpt lat="43.49438" lon="6.63148">
        <ele>32.5</ele>
        <time>2023-11-05T11:33:14Z</time>
      </trkpt>
      <trkpt lat="43.49437" lon="6.63147">
        <ele>32.5</ele>
        <time>2023-11-05T11:33:15Z</time>
      </trkpt>
      <trkpt lat="43.49436" lon="6.63146">
        <ele>32.5</ele>
        <time>2023-11-05T11:33:16Z</time>
      </trkpt>
      <trkpt lat="43.49436" lon="6.63145">
        <ele>32.5</ele>
        <time>2023-11-05T11:33:17Z</time>
      </trkpt>
      <trkpt lat="43.49436" lon="6.63144">
        <ele>32.5</ele>
        <time>2023-11-05T11:33:18Z</time>
      </trkpt>
      <trkpt lat="43.49436" lon="6.63142">
        <ele>32.4</ele>
        <time>2023-11-05T11:33:19Z</time>
      </trkpt>
      <trkpt lat="43.49436" lon="6.6314">
        <ele>32.4</ele>
        <time>2023-11-05T11:33:20Z</time>
      </trkpt>
      <trkpt lat="43.49435" lon="6.63139">
        <ele>32.3</ele>
        <time>2023-11-05T11:33:21Z</time>
      </trkpt>
      <trkpt lat="43.49435" lon="6.63139">
        <ele>32.3</ele>
        <time>2023-11-05T11:33:22Z</time>
      </trkpt>
      <trkpt lat="43.49434" lon="6.63137">
        <ele>32.3</ele>
        <time>2023-11-05T11:33:23Z</time>
      </trkpt>
      <trkpt lat="43.49434" lon="6.63136">
        <ele>32.3</ele>
        <time>2023-11-05T11:33:24Z</time>
      </trkpt>
      <trkpt lat="43.49435" lon="6.63135">
        <ele>32.2</ele>
        <time>2023-11-05T11:33:25Z</time>
      </trkpt>
      <trkpt lat="43.49434" lon="6.63134">
        <ele>32.2</ele>
        <time>2023-11-05T11:33:26Z</time>
      </trkpt>
      <trkpt lat="43.49434" lon="6.63133">
        <ele>32.2</ele>
        <time>2023-11-05T11:33:27Z</time>
      </trkpt>
      <trkpt lat="43.49434" lon="6.63131">
        <ele>32</ele>
        <time>2023-11-05T11:33:28Z</time>
      </trkpt>
      <trkpt lat="43.49434" lon="6.6313">
        <ele>32</ele>
        <time>2023-11-05T11:33:29Z</time>
      </trkpt>
      <trkpt lat="43.49434" lon="6.6313">
        <ele>31.9</ele>
        <time>2023-11-05T11:33:30Z</time>
      </trkpt>
      <trkpt lat="43.49434" lon="6.63129">
        <ele>31.9</ele>
        <time>2023-11-05T11:33:31Z</time>
      </trkpt>
      <trkpt lat="43.49434" lon="6.63128">
        <ele>31.9</ele>
        <time>2023-11-05T11:33:32Z</time>
      </trkpt>
      <trkpt lat="43.49434" lon="6.63127">
        <ele>31.9</ele>
        <time>2023-11-05T11:33:33Z</time>
      </trkpt>
      <trkpt lat="43.49434" lon="6.63125">
        <ele>31.9</ele>
        <time>2023-11-05T11:33:34Z</time>
      </trkpt>
      <trkpt lat="43.49433" lon="6.63123">
        <ele>31.9</ele>
        <time>2023-11-05T11:33:35Z</time>
      </trkpt>
      <trkpt lat="43.49433" lon="6.63122">
        <ele>31.8</ele>
        <time>2023-11-05T11:33:36Z</time>
      </trkpt>
      <trkpt lat="43.49433" lon="6.6312">
        <ele>31.8</ele>
        <time>2023-11-05T11:33:37Z</time>
      </trkpt>
      <trkpt lat="43.49432" lon="6.63119">
        <ele>31.8</ele>
        <time>2023-11-05T11:33:38Z</time>
      </trkpt>
      <trkpt lat="43.49432" lon="6.63117">
        <ele>31.8</ele>
        <time>2023-11-05T11:33:39Z</time>
      </trkpt>
      <trkpt lat="43.49432" lon="6.63116">
        <ele>31.8</ele>
        <time>2023-11-05T11:33:40Z</time>
      </trkpt>
      <trkpt lat="43.49432" lon="6.63115">
        <ele>31.9</ele>
        <time>2023-11-05T11:33:41Z</time>
      </trkpt>
      <trkpt lat="43.49432" lon="6.63113">
        <ele>32</ele>
        <time>2023-11-05T11:33:42Z</time>
      </trkpt>
      <trkpt lat="43.49431" lon="6.63112">
        <ele>32</ele>
        <time>2023-11-05T11:33:43Z</time>
      </trkpt>
      <trkpt lat="43.49432" lon="6.6311">
        <ele>32</ele>
        <time>2023-11-05T11:33:44Z</time>
      </trkpt>
      <trkpt lat="43.49431" lon="6.63109">
        <ele>32.1</ele>
        <time>2023-11-05T11:33:45Z</time>
      </trkpt>
      <trkpt lat="43.49431" lon="6.63107">
        <ele>32.1</ele>
        <time>2023-11-05T11:33:46Z</time>
      </trkpt>
      <trkpt lat="43.49431" lon="6.63106">
        <ele>32.2</ele>
        <time>2023-11-05T11:33:47Z</time>
      </trkpt>
      <trkpt lat="43.49431" lon="6.63105">
        <ele>32.2</ele>
        <time>2023-11-05T11:33:48Z</time>
      </trkpt>
      <trkpt lat="43.49431" lon="6.63104">
        <ele>32.2</ele>
        <time>2023-11-05T11:33:49Z</time>
      </trkpt>
      <trkpt lat="43.49431" lon="6.63103">
        <ele>32.1</ele>
        <time>2023-11-05T11:33:50Z</time>
      </trkpt>
      <trkpt lat="43.4943" lon="6.63102">
        <ele>32.1</ele>
        <time>2023-11-05T11:33:51Z</time>
      </trkpt>
      <trkpt lat="43.4943" lon="6.63101">
        <ele>32.1</ele>
        <time>2023-11-05T11:33:52Z</time>
      </trkpt>
      <trkpt lat="43.49429" lon="6.63099">
        <ele>32</ele>
        <time>2023-11-05T11:33:53Z</time>
      </trkpt>
      <trkpt lat="43.49429" lon="6.63098">
        <ele>31.9</ele>
        <time>2023-11-05T11:33:54Z</time>
      </trkpt>
      <trkpt lat="43.49428" lon="6.63097">
        <ele>31.8</ele>
        <time>2023-11-05T11:33:55Z</time>
      </trkpt>
      <trkpt lat="43.49428" lon="6.63096">
        <ele>31.8</ele>
        <time>2023-11-05T11:33:56Z</time>
      </trkpt>
      <trkpt lat="43.49427" lon="6.63095">
        <ele>31.7</ele>
        <time>2023-11-05T11:33:57Z</time>
      </trkpt>
      <trkpt lat="43.49427" lon="6.63093">
        <ele>31.6</ele>
        <time>2023-11-05T11:33:58Z</time>
      </trkpt>
      <trkpt lat="43.49426" lon="6.63091">
        <ele>31.6</ele>
        <time>2023-11-05T11:33:59Z</time>
      </trkpt>
      <trkpt lat="43.49425" lon="6.6309">
        <ele>31.5</ele>
        <time>2023-11-05T11:34:00Z</time>
      </trkpt>
      <trkpt lat="43.49424" lon="6.63088">
        <ele>31.4</ele>
        <time>2023-11-05T11:34:01Z</time>
      </trkpt>
      <trkpt lat="43.49424" lon="6.63087">
        <ele>31.3</ele>
        <time>2023-11-05T11:34:02Z</time>
      </trkpt>
      <trkpt lat="43.49424" lon="6.63086">
        <ele>31.3</ele>
        <time>2023-11-05T11:34:03Z</time>
      </trkpt>
      <trkpt lat="43.49423" lon="6.63084">
        <ele>31.3</ele>
        <time>2023-11-05T11:34:04Z</time>
      </trkpt>
      <trkpt lat="43.49423" lon="6.63083">
        <ele>31.2</ele>
        <time>2023-11-05T11:34:05Z</time>
      </trkpt>
      <trkpt lat="43.49422" lon="6.63082">
        <ele>31.1</ele>
        <time>2023-11-05T11:34:06Z</time>
      </trkpt>
      <trkpt lat="43.49421" lon="6.63081">
        <ele>31.1</ele>
        <time>2023-11-05T11:34:07Z</time>
      </trkpt>
      <trkpt lat="43.4942" lon="6.6308">
        <ele>31.1</ele>
        <time>2023-11-05T11:34:08Z</time>
      </trkpt>
      <trkpt lat="43.4942" lon="6.63079">
        <ele>31.1</ele>
        <time>2023-11-05T11:34:09Z</time>
      </trkpt>
      <trkpt lat="43.49419" lon="6.63078">
        <ele>31.1</ele>
        <time>2023-11-05T11:34:10Z</time>
      </trkpt>
      <trkpt lat="43.49418" lon="6.63077">
        <ele>31.2</ele>
        <time>2023-11-05T11:34:11Z</time>
      </trkpt>
      <trkpt lat="43.49417" lon="6.63078">
        <ele>31.3</ele>
        <time>2023-11-05T11:34:12Z</time>
      </trkpt>
      <trkpt lat="43.49417" lon="6.63078">
        <ele>31.4</ele>
        <time>2023-11-05T11:34:13Z</time>
      </trkpt>
      <trkpt lat="43.49417" lon="6.63078">
        <ele>31.5</ele>
        <time>2023-11-05T11:34:14Z</time>
      </trkpt>
      <trkpt lat="43.49417" lon="6.63078">
        <ele>31.6</ele>
        <time>2023-11-05T11:34:15Z</time>
      </trkpt>
      <trkpt lat="43.49417" lon="6.63078">
        <ele>31.6</ele>
        <time>2023-11-05T11:34:16Z</time>
      </trkpt>
      <trkpt lat="43.49417" lon="6.63078">
        <ele>31.7</ele>
        <time>2023-11-05T11:34:17Z</time>
      </trkpt>
      <trkpt lat="43.49417" lon="6.63078">
        <ele>31.7</ele>
        <time>2023-11-05T11:34:18Z</time>
      </trkpt>
      <trkpt lat="43.49416" lon="6.63078">
        <ele>31.7</ele>
        <time>2023-11-05T11:34:19Z</time>
      </trkpt>
      <trkpt lat="43.49416" lon="6.63078">
        <ele>31.7</ele>
        <time>2023-11-05T11:34:20Z</time>
      </trkpt>
      <trkpt lat="43.49416" lon="6.63078">
        <ele>31.7</ele>
        <time>2023-11-05T11:34:21Z</time>
      </trkpt>
      <trkpt lat="43.49416" lon="6.63078">
        <ele>31.8</ele>
        <time>2023-11-05T11:34:22Z</time>
      </trkpt>
      <trkpt lat="43.49415" lon="6.63078">
        <ele>31.8</ele>
        <time>2023-11-05T11:34:23Z</time>
      </trkpt>
      <trkpt lat="43.49415" lon="6.63078">
        <ele>31.8</ele>
        <time>2023-11-05T11:34:24Z</time>
      </trkpt>
      <trkpt lat="43.49415" lon="6.63078">
        <ele>31.8</ele>
        <time>2023-11-05T11:34:25Z</time>
      </trkpt>
      <trkpt lat="43.49415" lon="6.63078">
        <ele>31.8</ele>
        <time>2023-11-05T11:34:26Z</time>
      </trkpt>
      <trkpt lat="43.49414" lon="6.63078">
        <ele>31.9</ele>
        <time>2023-11-05T11:34:27Z</time>
      </trkpt>
      <trkpt lat="43.49414" lon="6.63078">
        <ele>32.1</ele>
        <time>2023-11-05T11:34:28Z</time>
      </trkpt>
      <trkpt lat="43.49414" lon="6.63078">
        <ele>32.1</ele>
        <time>2023-11-05T11:34:29Z</time>
      </trkpt>
      <trkpt lat="43.49413" lon="6.63078">
        <ele>32.1</ele>
        <time>2023-11-05T11:34:30Z</time>
      </trkpt>
      <trkpt lat="43.49413" lon="6.63078">
        <ele>32</ele>
        <time>2023-11-05T11:34:31Z</time>
      </trkpt>
      <trkpt lat="43.49413" lon="6.63079">
        <ele>32.1</ele>
        <time>2023-11-05T11:34:32Z</time>
      </trkpt>
      <trkpt lat="43.49414" lon="6.63079">
        <ele>32.1</ele>
        <time>2023-11-05T11:34:33Z</time>
      </trkpt>
      <trkpt lat="43.49414" lon="6.63079">
        <ele>32</ele>
        <time>2023-11-05T11:34:34Z</time>
      </trkpt>
      <trkpt lat="43.49414" lon="6.6308">
        <ele>31.7</ele>
        <time>2023-11-05T11:34:35Z</time>
      </trkpt>
      <trkpt lat="43.49414" lon="6.6308">
        <ele>31.5</ele>
        <time>2023-11-05T11:34:36Z</time>
      </trkpt>
      <trkpt lat="43.49414" lon="6.63079">
        <ele>31.3</ele>
        <time>2023-11-05T11:34:37Z</time>
      </trkpt>
      <trkpt lat="43.49414" lon="6.63079">
        <ele>31.2</ele>
        <time>2023-11-05T11:34:38Z</time>
      </trkpt>
      <trkpt lat="43.49414" lon="6.63079">
        <ele>31.3</ele>
        <time>2023-11-05T11:34:39Z</time>
      </trkpt>
      <trkpt lat="43.49414" lon="6.63079">
        <ele>31.3</ele>
        <time>2023-11-05T11:34:40Z</time>
      </trkpt>
      <trkpt lat="43.49414" lon="6.6308">
        <ele>31.5</ele>
        <time>2023-11-05T11:34:41Z</time>
      </trkpt>
      <trkpt lat="43.49414" lon="6.6308">
        <ele>31.6</ele>
        <time>2023-11-05T11:34:42Z</time>
      </trkpt>
      <trkpt lat="43.49414" lon="6.63079">
        <ele>31.6</ele>
        <time>2023-11-05T11:34:43Z</time>
      </trkpt>
      <trkpt lat="43.49414" lon="6.63079">
        <ele>31.6</ele>
        <time>2023-11-05T11:34:44Z</time>
      </trkpt>
      <trkpt lat="43.49414" lon="6.63079">
        <ele>31.6</ele>
        <time>2023-11-05T11:34:45Z</time>
      </trkpt>
      <trkpt lat="43.49414" lon="6.63079">
        <ele>31.5</ele>
        <time>2023-11-05T11:34:46Z</time>
      </trkpt>
      <trkpt lat="43.49414" lon="6.63079">
        <ele>31.5</ele>
        <time>2023-11-05T11:34:47Z</time>
      </trkpt>
      <trkpt lat="43.49414" lon="6.63079">
        <ele>31.4</ele>
        <time>2023-11-05T11:34:48Z</time>
      </trkpt>
      <trkpt lat="43.49414" lon="6.63079">
        <ele>31.5</ele>
        <time>2023-11-05T11:34:49Z</time>
      </trkpt>
      <trkpt lat="43.49414" lon="6.63079">
        <ele>31.5</ele>
        <time>2023-11-05T11:34:50Z</time>
      </trkpt>
      <trkpt lat="43.49414" lon="6.63079">
        <ele>31.4</ele>
        <time>2023-11-05T11:34:51Z</time>
      </trkpt>
      <trkpt lat="43.49414" lon="6.63078">
        <ele>31.4</ele>
        <time>2023-11-05T11:34:52Z</time>
      </trkpt>
      <trkpt lat="43.49414" lon="6.63078">
        <ele>31.3</ele>
        <time>2023-11-05T11:34:53Z</time>
      </trkpt>
      <trkpt lat="43.49414" lon="6.63078">
        <ele>31.3</ele>
        <time>2023-11-05T11:34:54Z</time>
      </trkpt>
      <trkpt lat="43.49414" lon="6.63078">
        <ele>31.2</ele>
        <time>2023-11-05T11:34:55Z</time>
      </trkpt>
      <trkpt lat="43.49413" lon="6.63078">
        <ele>31.3</ele>
        <time>2023-11-05T11:34:56Z</time>
      </trkpt>
      <trkpt lat="43.49413" lon="6.63078">
        <ele>31.3</ele>
        <time>2023-11-05T11:34:57Z</time>
      </trkpt>
      <trkpt lat="43.49413" lon="6.63078">
        <ele>31.4</ele>
        <time>2023-11-05T11:34:58Z</time>
      </trkpt>
      <trkpt lat="43.49413" lon="6.63078">
        <ele>31.5</ele>
        <time>2023-11-05T11:34:59Z</time>
      </trkpt>
      <trkpt lat="43.49412" lon="6.63078">
        <ele>31.7</ele>
        <time>2023-11-05T11:35:00Z</time>
      </trkpt>
      <trkpt lat="43.49412" lon="6.63078">
        <ele>31.7</ele>
        <time>2023-11-05T11:35:01Z</time>
      </trkpt>
      <trkpt lat="43.49412" lon="6.63078">
        <ele>31.8</ele>
        <time>2023-11-05T11:35:02Z</time>
      </trkpt>
      <trkpt lat="43.49412" lon="6.63078">
        <ele>32</ele>
        <time>2023-11-05T11:35:03Z</time>
      </trkpt>
      <trkpt lat="43.49412" lon="6.63078">
        <ele>32</ele>
        <time>2023-11-05T11:35:04Z</time>
      </trkpt>
      <trkpt lat="43.49412" lon="6.63078">
        <ele>31.9</ele>
        <time>2023-11-05T11:35:05Z</time>
      </trkpt>
      <trkpt lat="43.49412" lon="6.63078">
        <ele>31.9</ele>
        <time>2023-11-05T11:35:06Z</time>
      </trkpt>
      <trkpt lat="43.49412" lon="6.63078">
        <ele>31.8</ele>
        <time>2023-11-05T11:35:07Z</time>
      </trkpt>
      <trkpt lat="43.49412" lon="6.63078">
        <ele>31.8</ele>
        <time>2023-11-05T11:35:08Z</time>
      </trkpt>
      <trkpt lat="43.49412" lon="6.63078">
        <ele>32</ele>
        <time>2023-11-05T11:35:09Z</time>
      </trkpt>
      <trkpt lat="43.49412" lon="6.63078">
        <ele>32.1</ele>
        <time>2023-11-05T11:35:10Z</time>
      </trkpt>
      <trkpt lat="43.49411" lon="6.63078">
        <ele>32.3</ele>
        <time>2023-11-05T11:35:11Z</time>
      </trkpt>
      <trkpt lat="43.49411" lon="6.63078">
        <ele>32.3</ele>
        <time>2023-11-05T11:35:12Z</time>
      </trkpt>
      <trkpt lat="43.49411" lon="6.63078">
        <ele>32.5</ele>
        <time>2023-11-05T11:35:13Z</time>
      </trkpt>
      <trkpt lat="43.49411" lon="6.63078">
        <ele>32.6</ele>
        <time>2023-11-05T11:35:14Z</time>
      </trkpt>
      <trkpt lat="43.49411" lon="6.63078">
        <ele>32.7</ele>
        <time>2023-11-05T11:35:15Z</time>
      </trkpt>
      <trkpt lat="43.49411" lon="6.63077">
        <ele>32.8</ele>
        <time>2023-11-05T11:35:16Z</time>
      </trkpt>
      <trkpt lat="43.49411" lon="6.63078">
        <ele>32.9</ele>
        <time>2023-11-05T11:35:17Z</time>
      </trkpt>
      <trkpt lat="43.49411" lon="6.63078">
        <ele>32.9</ele>
        <time>2023-11-05T11:35:18Z</time>
      </trkpt>
      <trkpt lat="43.4941" lon="6.63078">
        <ele>33</ele>
        <time>2023-11-05T11:35:19Z</time>
      </trkpt>
      <trkpt lat="43.4941" lon="6.63078">
        <ele>33</ele>
        <time>2023-11-05T11:35:20Z</time>
      </trkpt>
      <trkpt lat="43.4941" lon="6.63078">
        <ele>32.9</ele>
        <time>2023-11-05T11:35:21Z</time>
      </trkpt>
      <trkpt lat="43.4941" lon="6.63078">
        <ele>32.8</ele>
        <time>2023-11-05T11:35:22Z</time>
      </trkpt>
      <trkpt lat="43.4941" lon="6.63078">
        <ele>32.8</ele>
        <time>2023-11-05T11:35:23Z</time>
      </trkpt>
      <trkpt lat="43.4941" lon="6.63078">
        <ele>32.7</ele>
        <time>2023-11-05T11:35:24Z</time>
      </trkpt>
      <trkpt lat="43.4941" lon="6.63078">
        <ele>32.6</ele>
        <time>2023-11-05T11:35:25Z</time>
      </trkpt>
      <trkpt lat="43.4941" lon="6.63078">
        <ele>32.7</ele>
        <time>2023-11-05T11:35:26Z</time>
      </trkpt>
      <trkpt lat="43.4941" lon="6.63078">
        <ele>32.7</ele>
        <time>2023-11-05T11:35:27Z</time>
      </trkpt>
      <trkpt lat="43.49411" lon="6.63078">
        <ele>32.8</ele>
        <time>2023-11-05T11:35:28Z</time>
      </trkpt>
      <trkpt lat="43.49411" lon="6.63077">
        <ele>32.8</ele>
        <time>2023-11-05T11:35:29Z</time>
      </trkpt>
      <trkpt lat="43.49411" lon="6.63077">
        <ele>32.9</ele>
        <time>2023-11-05T11:35:30Z</time>
      </trkpt>
      <trkpt lat="43.49411" lon="6.63077">
        <ele>32.9</ele>
        <time>2023-11-05T11:35:31Z</time>
      </trkpt>
      <trkpt lat="43.49412" lon="6.63077">
        <ele>32.9</ele>
        <time>2023-11-05T11:35:32Z</time>
      </trkpt>
      <trkpt lat="43.49412" lon="6.63077">
        <ele>32.9</ele>
        <time>2023-11-05T11:35:33Z</time>
      </trkpt>
      <trkpt lat="43.49413" lon="6.63077">
        <ele>32.9</ele>
        <time>2023-11-05T11:35:34Z</time>
      </trkpt>
      <trkpt lat="43.49413" lon="6.63077">
        <ele>32.9</ele>
        <time>2023-11-05T11:35:35Z</time>
      </trkpt>
      <trkpt lat="43.49413" lon="6.63078">
        <ele>32.8</ele>
        <time>2023-11-05T11:35:36Z</time>
      </trkpt>
      <trkpt lat="43.49412" lon="6.63078">
        <ele>32.8</ele>
        <time>2023-11-05T11:35:37Z</time>
      </trkpt>
      <trkpt lat="43.49412" lon="6.63078">
        <ele>32.8</ele>
        <time>2023-11-05T11:35:38Z</time>
      </trkpt>
      <trkpt lat="43.49411" lon="6.63078">
        <ele>32.8</ele>
        <time>2023-11-05T11:35:39Z</time>
      </trkpt>
      <trkpt lat="43.49411" lon="6.63078">
        <ele>32.7</ele>
        <time>2023-11-05T11:35:40Z</time>
      </trkpt>
      <trkpt lat="43.49411" lon="6.63078">
        <ele>32.7</ele>
        <time>2023-11-05T11:35:41Z</time>
      </trkpt>
      <trkpt lat="43.4941" lon="6.63077">
        <ele>32.6</ele>
        <time>2023-11-05T11:35:42Z</time>
      </trkpt>
      <trkpt lat="43.4941" lon="6.63077">
        <ele>32.5</ele>
        <time>2023-11-05T11:35:43Z</time>
      </trkpt>
      <trkpt lat="43.4941" lon="6.63077">
        <ele>32.5</ele>
        <time>2023-11-05T11:35:44Z</time>
      </trkpt>
      <trkpt lat="43.4941" lon="6.63077">
        <ele>32.5</ele>
        <time>2023-11-05T11:35:45Z</time>
      </trkpt>
      <trkpt lat="43.4941" lon="6.63077">
        <ele>32.4</ele>
        <time>2023-11-05T11:35:46Z</time>
      </trkpt>
      <trkpt lat="43.49409" lon="6.63077">
        <ele>32.4</ele>
        <time>2023-11-05T11:35:47Z</time>
      </trkpt>
      <trkpt lat="43.49409" lon="6.63077">
        <ele>32.4</ele>
        <time>2023-11-05T11:35:48Z</time>
      </trkpt>
      <trkpt lat="43.49409" lon="6.63077">
        <ele>32.4</ele>
        <time>2023-11-05T11:35:49Z</time>
      </trkpt>
      <trkpt lat="43.49409" lon="6.63077">
        <ele>32.5</ele>
        <time>2023-11-05T11:35:50Z</time>
      </trkpt>
      <trkpt lat="43.49409" lon="6.63077">
        <ele>32.5</ele>
        <time>2023-11-05T11:35:51Z</time>
      </trkpt>
      <trkpt lat="43.49409" lon="6.63077">
        <ele>32.5</ele>
        <time>2023-11-05T11:35:52Z</time>
      </trkpt>
      <trkpt lat="43.49408" lon="6.63077">
        <ele>32.6</ele>
        <time>2023-11-05T11:35:53Z</time>
      </trkpt>
      <trkpt lat="43.49408" lon="6.63077">
        <ele>32.5</ele>
        <time>2023-11-05T11:35:54Z</time>
      </trkpt>
      <trkpt lat="43.49408" lon="6.63077">
        <ele>32.4</ele>
        <time>2023-11-05T11:35:55Z</time>
      </trkpt>
      <trkpt lat="43.49408" lon="6.63077">
        <ele>32.5</ele>
        <time>2023-11-05T11:35:56Z</time>
      </trkpt>
      <trkpt lat="43.49408" lon="6.63077">
        <ele>32.6</ele>
        <time>2023-11-05T11:35:57Z</time>
      </trkpt>
      <trkpt lat="43.49408" lon="6.63077">
        <ele>32.5</ele>
        <time>2023-11-05T11:35:58Z</time>
      </trkpt>
      <trkpt lat="43.49408" lon="6.63077">
        <ele>32.5</ele>
        <time>2023-11-05T11:35:59Z</time>
      </trkpt>
      <trkpt lat="43.49408" lon="6.63077">
        <ele>32.5</ele>
        <time>2023-11-05T11:36:00Z</time>
      </trkpt>
      <trkpt lat="43.49408" lon="6.63077">
        <ele>32.5</ele>
        <time>2023-11-05T11:36:01Z</time>
      </trkpt>
      <trkpt lat="43.49409" lon="6.63076">
        <ele>32.6</ele>
        <time>2023-11-05T11:36:02Z</time>
      </trkpt>
      <trkpt lat="43.49409" lon="6.63076">
        <ele>32.7</ele>
        <time>2023-11-05T11:36:03Z</time>
      </trkpt>
      <trkpt lat="43.49408" lon="6.63076">
        <ele>32.8</ele>
        <time>2023-11-05T11:36:04Z</time>
      </trkpt>
      <trkpt lat="43.49408" lon="6.63076">
        <ele>32.8</ele>
        <time>2023-11-05T11:36:05Z</time>
      </trkpt>
      <trkpt lat="43.49409" lon="6.63076">
        <ele>32.8</ele>
        <time>2023-11-05T11:36:06Z</time>
      </trkpt>
      <trkpt lat="43.49409" lon="6.63075">
        <ele>32.8</ele>
        <time>2023-11-05T11:36:07Z</time>
      </trkpt>
      <trkpt lat="43.49408" lon="6.63075">
        <ele>32.7</ele>
        <time>2023-11-05T11:36:08Z</time>
      </trkpt>
      <trkpt lat="43.49409" lon="6.63075">
        <ele>32.6</ele>
        <time>2023-11-05T11:36:09Z</time>
      </trkpt>
      <trkpt lat="43.49409" lon="6.63075">
        <ele>32.6</ele>
        <time>2023-11-05T11:36:10Z</time>
      </trkpt>
      <trkpt lat="43.49408" lon="6.63075">
        <ele>32.6</ele>
        <time>2023-11-05T11:36:11Z</time>
      </trkpt>
      <trkpt lat="43.49408" lon="6.63075">
        <ele>32.7</ele>
        <time>2023-11-05T11:36:12Z</time>
      </trkpt>
      <trkpt lat="43.49408" lon="6.63075">
        <ele>32.8</ele>
        <time>2023-11-05T11:36:13Z</time>
      </trkpt>
      <trkpt lat="43.49408" lon="6.63074">
        <ele>32.8</ele>
        <time>2023-11-05T11:36:14Z</time>
      </trkpt>
      <trkpt lat="43.49408" lon="6.63074">
        <ele>32.8</ele>
        <time>2023-11-05T11:36:15Z</time>
      </trkpt>
      <trkpt lat="43.49408" lon="6.63074">
        <ele>32.8</ele>
        <time>2023-11-05T11:36:16Z</time>
      </trkpt>
      <trkpt lat="43.49408" lon="6.63074">
        <ele>32.8</ele>
        <time>2023-11-05T11:36:17Z</time>
      </trkpt>
      <trkpt lat="43.49408" lon="6.63074">
        <ele>32.8</ele>
        <time>2023-11-05T11:36:18Z</time>
      </trkpt>
      <trkpt lat="43.49408" lon="6.63074">
        <ele>32.8</ele>
        <time>2023-11-05T11:36:19Z</time>
      </trkpt>
      <trkpt lat="43.49408" lon="6.63074">
        <ele>32.7</ele>
        <time>2023-11-05T11:36:20Z</time>
      </trkpt>
      <trkpt lat="43.49408" lon="6.63074">
        <ele>32.7</ele>
        <time>2023-11-05T11:36:21Z</time>
      </trkpt>
      <trkpt lat="43.49408" lon="6.63074">
        <ele>32.7</ele>
        <time>2023-11-05T11:36:22Z</time>
      </trkpt>
      <trkpt lat="43.49408" lon="6.63074">
        <ele>32.7</ele>
        <time>2023-11-05T11:36:23Z</time>
      </trkpt>
      <trkpt lat="43.49408" lon="6.63074">
        <ele>32.7</ele>
        <time>2023-11-05T11:36:24Z</time>
      </trkpt>
      <trkpt lat="43.49408" lon="6.63074">
        <ele>32.7</ele>
        <time>2023-11-05T11:36:25Z</time>
      </trkpt>
      <trkpt lat="43.49408" lon="6.63074">
        <ele>32.7</ele>
        <time>2023-11-05T11:36:26Z</time>
      </trkpt>
      <trkpt lat="43.49408" lon="6.63074">
        <ele>32.7</ele>
        <time>2023-11-05T11:36:27Z</time>
      </trkpt>
      <trkpt lat="43.49408" lon="6.63074">
        <ele>32.8</ele>
        <time>2023-11-05T11:36:28Z</time>
      </trkpt>
      <trkpt lat="43.49409" lon="6.63075">
        <ele>32.8</ele>
        <time>2023-11-05T11:36:29Z</time>
      </trkpt>
      <trkpt lat="43.49408" lon="6.63074">
        <ele>32.8</ele>
        <time>2023-11-05T11:36:30Z</time>
      </trkpt>
      <trkpt lat="43.49408" lon="6.63074">
        <ele>32.8</ele>
        <time>2023-11-05T11:36:31Z</time>
      </trkpt>
      <trkpt lat="43.49409" lon="6.63075">
        <ele>32.8</ele>
        <time>2023-11-05T11:36:32Z</time>
      </trkpt>
      <trkpt lat="43.49409" lon="6.63075">
        <ele>32.9</ele>
        <time>2023-11-05T11:36:33Z</time>
      </trkpt>
      <trkpt lat="43.49409" lon="6.63075">
        <ele>32.9</ele>
        <time>2023-11-05T11:36:34Z</time>
      </trkpt>
      <trkpt lat="43.49409" lon="6.63075">
        <ele>32.9</ele>
        <time>2023-11-05T11:36:35Z</time>
      </trkpt>
      <trkpt lat="43.49409" lon="6.63075">
        <ele>32.9</ele>
        <time>2023-11-05T11:36:36Z</time>
      </trkpt>
      <trkpt lat="43.49409" lon="6.63075">
        <ele>33</ele>
        <time>2023-11-05T11:36:37Z</time>
      </trkpt>
      <trkpt lat="43.4941" lon="6.63075">
        <ele>33</ele>
        <time>2023-11-05T11:36:38Z</time>
      </trkpt>
      <trkpt lat="43.4941" lon="6.63075">
        <ele>33</ele>
        <time>2023-11-05T11:36:39Z</time>
      </trkpt>
      <trkpt lat="43.4941" lon="6.63075">
        <ele>33</ele>
        <time>2023-11-05T11:36:40Z</time>
      </trkpt>
      <trkpt lat="43.49411" lon="6.63075">
        <ele>33</ele>
        <time>2023-11-05T11:36:41Z</time>
      </trkpt>
      <trkpt lat="43.49411" lon="6.63076">
        <ele>33</ele>
        <time>2023-11-05T11:36:42Z</time>
      </trkpt>
      <trkpt lat="43.49412" lon="6.63076">
        <ele>32.9</ele>
        <time>2023-11-05T11:36:43Z</time>
      </trkpt>
      <trkpt lat="43.49412" lon="6.63076">
        <ele>32.9</ele>
        <time>2023-11-05T11:36:44Z</time>
      </trkpt>
      <trkpt lat="43.49412" lon="6.63076">
        <ele>32.9</ele>
        <time>2023-11-05T11:36:45Z</time>
      </trkpt>
      <trkpt lat="43.49412" lon="6.63076">
        <ele>32.9</ele>
        <time>2023-11-05T11:36:46Z</time>
      </trkpt>
      <trkpt lat="43.49411" lon="6.63076">
        <ele>32.9</ele>
        <time>2023-11-05T11:36:47Z</time>
      </trkpt>
      <trkpt lat="43.49411" lon="6.63076">
        <ele>32.9</ele>
        <time>2023-11-05T11:36:48Z</time>
      </trkpt>
      <trkpt lat="43.49411" lon="6.63076">
        <ele>32.9</ele>
        <time>2023-11-05T11:36:49Z</time>
      </trkpt>
      <trkpt lat="43.49411" lon="6.63076">
        <ele>32.9</ele>
        <time>2023-11-05T11:36:50Z</time>
      </trkpt>
      <trkpt lat="43.4941" lon="6.63076">
        <ele>32.9</ele>
        <time>2023-11-05T11:36:51Z</time>
      </trkpt>
      <trkpt lat="43.4941" lon="6.63076">
        <ele>32.9</ele>
        <time>2023-11-05T11:36:52Z</time>
      </trkpt>
      <trkpt lat="43.4941" lon="6.63076">
        <ele>32.9</ele>
        <time>2023-11-05T11:36:53Z</time>
      </trkpt>
      <trkpt lat="43.4941" lon="6.63076">
        <ele>32.8</ele>
        <time>2023-11-05T11:36:54Z</time>
      </trkpt>
      <trkpt lat="43.4941" lon="6.63076">
        <ele>32.8</ele>
        <time>2023-11-05T11:36:55Z</time>
      </trkpt>
      <trkpt lat="43.4941" lon="6.63076">
        <ele>32.8</ele>
        <time>2023-11-05T11:36:56Z</time>
      </trkpt>
      <trkpt lat="43.4941" lon="6.63076">
        <ele>32.8</ele>
        <time>2023-11-05T11:36:57Z</time>
      </trkpt>
      <trkpt lat="43.4941" lon="6.63076">
        <ele>32.7</ele>
        <time>2023-11-05T11:36:58Z</time>
      </trkpt>
      <trkpt lat="43.4941" lon="6.63076">
        <ele>32.7</ele>
        <time>2023-11-05T11:36:59Z</time>
      </trkpt>
      <trkpt lat="43.4941" lon="6.63076">
        <ele>32.7</ele>
        <time>2023-11-05T11:37:00Z</time>
      </trkpt>
      <trkpt lat="43.4941" lon="6.63076">
        <ele>32.7</ele>
        <time>2023-11-05T11:37:01Z</time>
      </trkpt>
      <trkpt lat="43.4941" lon="6.63076">
        <ele>32.6</ele>
        <time>2023-11-05T11:37:02Z</time>
      </trkpt>
      <trkpt lat="43.4941" lon="6.63075">
        <ele>32.6</ele>
        <time>2023-11-05T11:37:03Z</time>
      </trkpt>
      <trkpt lat="43.4941" lon="6.63075">
        <ele>32.6</ele>
        <time>2023-11-05T11:37:04Z</time>
      </trkpt>
      <trkpt lat="43.4941" lon="6.63075">
        <ele>32.6</ele>
        <time>2023-11-05T11:37:05Z</time>
      </trkpt>
      <trkpt lat="43.4941" lon="6.63075">
        <ele>32.6</ele>
        <time>2023-11-05T11:37:06Z</time>
      </trkpt>
      <trkpt lat="43.4941" lon="6.63075">
        <ele>32.6</ele>
        <time>2023-11-05T11:37:07Z</time>
      </trkpt>
      <trkpt lat="43.4941" lon="6.63075">
        <ele>32.6</ele>
        <time>2023-11-05T11:37:08Z</time>
      </trkpt>
      <trkpt lat="43.49411" lon="6.63074">
        <ele>32.6</ele>
        <time>2023-11-05T11:37:09Z</time>
      </trkpt>
      <trkpt lat="43.49411" lon="6.63074">
        <ele>32.6</ele>
        <time>2023-11-05T11:37:10Z</time>
      </trkpt>
      <trkpt lat="43.4941" lon="6.63074">
        <ele>32.7</ele>
        <time>2023-11-05T11:37:11Z</time>
      </trkpt>
      <trkpt lat="43.4941" lon="6.63073">
        <ele>32.7</ele>
        <time>2023-11-05T11:37:12Z</time>
      </trkpt>
      <trkpt lat="43.49411" lon="6.63073">
        <ele>32.7</ele>
        <time>2023-11-05T11:37:13Z</time>
      </trkpt>
      <trkpt lat="43.49411" lon="6.63072">
        <ele>32.8</ele>
        <time>2023-11-05T11:37:14Z</time>
      </trkpt>
      <trkpt lat="43.49411" lon="6.63072">
        <ele>32.8</ele>
        <time>2023-11-05T11:37:15Z</time>
      </trkpt>
      <trkpt lat="43.49412" lon="6.63071">
        <ele>32.9</ele>
        <time>2023-11-05T11:37:16Z</time>
      </trkpt>
      <trkpt lat="43.49412" lon="6.63071">
        <ele>33</ele>
        <time>2023-11-05T11:37:17Z</time>
      </trkpt>
      <trkpt lat="43.49412" lon="6.63071">
        <ele>33</ele>
        <time>2023-11-05T11:37:18Z</time>
      </trkpt>
      <trkpt lat="43.49412" lon="6.63071">
        <ele>33</ele>
        <time>2023-11-05T11:37:19Z</time>
      </trkpt>
      <trkpt lat="43.49412" lon="6.63071">
        <ele>33</ele>
        <time>2023-11-05T11:37:20Z</time>
      </trkpt>
      <trkpt lat="43.49412" lon="6.6307">
        <ele>33</ele>
        <time>2023-11-05T11:37:21Z</time>
      </trkpt>
      <trkpt lat="43.49412" lon="6.6307">
        <ele>33</ele>
        <time>2023-11-05T11:37:22Z</time>
      </trkpt>
      <trkpt lat="43.49412" lon="6.6307">
        <ele>33.1</ele>
        <time>2023-11-05T11:37:23Z</time>
      </trkpt>
      <trkpt lat="43.49412" lon="6.6307">
        <ele>33.1</ele>
        <time>2023-11-05T11:37:24Z</time>
      </trkpt>
      <trkpt lat="43.49412" lon="6.6307">
        <ele>33</ele>
        <time>2023-11-05T11:37:25Z</time>
      </trkpt>
      <trkpt lat="43.49412" lon="6.6307">
        <ele>32.9</ele>
        <time>2023-11-05T11:37:26Z</time>
      </trkpt>
      <trkpt lat="43.49412" lon="6.63069">
        <ele>32.9</ele>
        <time>2023-11-05T11:37:27Z</time>
      </trkpt>
      <trkpt lat="43.49412" lon="6.63069">
        <ele>32.9</ele>
        <time>2023-11-05T11:37:28Z</time>
      </trkpt>
      <trkpt lat="43.49412" lon="6.63069">
        <ele>33</ele>
        <time>2023-11-05T11:37:29Z</time>
      </trkpt>
      <trkpt lat="43.49412" lon="6.63069">
        <ele>33</ele>
        <time>2023-11-05T11:37:30Z</time>
      </trkpt>
      <trkpt lat="43.49411" lon="6.63069">
        <ele>33</ele>
        <time>2023-11-05T11:37:31Z</time>
      </trkpt>
      <trkpt lat="43.49411" lon="6.63069">
        <ele>33.1</ele>
        <time>2023-11-05T11:37:32Z</time>
      </trkpt>
      <trkpt lat="43.49411" lon="6.63069">
        <ele>33</ele>
        <time>2023-11-05T11:37:33Z</time>
      </trkpt>
      <trkpt lat="43.49411" lon="6.63069">
        <ele>33</ele>
        <time>2023-11-05T11:37:34Z</time>
      </trkpt>
      <trkpt lat="43.49411" lon="6.63069">
        <ele>32.9</ele>
        <time>2023-11-05T11:37:35Z</time>
      </trkpt>
      <trkpt lat="43.49411" lon="6.63069">
        <ele>32.9</ele>
        <time>2023-11-05T11:37:36Z</time>
      </trkpt>
      <trkpt lat="43.49411" lon="6.63069">
        <ele>32.9</ele>
        <time>2023-11-05T11:37:37Z</time>
      </trkpt>
      <trkpt lat="43.4941" lon="6.63069">
        <ele>32.8</ele>
        <time>2023-11-05T11:37:38Z</time>
      </trkpt>
      <trkpt lat="43.4941" lon="6.63069">
        <ele>32.7</ele>
        <time>2023-11-05T11:37:39Z</time>
      </trkpt>
      <trkpt lat="43.4941" lon="6.63069">
        <ele>32.6</ele>
        <time>2023-11-05T11:37:40Z</time>
      </trkpt>
      <trkpt lat="43.4941" lon="6.63069">
        <ele>32.6</ele>
        <time>2023-11-05T11:37:41Z</time>
      </trkpt>
      <trkpt lat="43.4941" lon="6.63069">
        <ele>32.5</ele>
        <time>2023-11-05T11:37:42Z</time>
      </trkpt>
      <trkpt lat="43.4941" lon="6.63068">
        <ele>32.5</ele>
        <time>2023-11-05T11:37:43Z</time>
      </trkpt>
      <trkpt lat="43.4941" lon="6.63068">
        <ele>32.5</ele>
        <time>2023-11-05T11:37:44Z</time>
      </trkpt>
      <trkpt lat="43.4941" lon="6.63068">
        <ele>32.4</ele>
        <time>2023-11-05T11:37:45Z</time>
      </trkpt>
      <trkpt lat="43.4941" lon="6.63069">
        <ele>32.4</ele>
        <time>2023-11-05T11:37:46Z</time>
      </trkpt>
      <trkpt lat="43.4941" lon="6.63069">
        <ele>32.4</ele>
        <time>2023-11-05T11:37:47Z</time>
      </trkpt>
      <trkpt lat="43.4941" lon="6.63069">
        <ele>32.6</ele>
        <time>2023-11-05T11:37:48Z</time>
      </trkpt>
      <trkpt lat="43.4941" lon="6.63069">
        <ele>32.8</ele>
        <time>2023-11-05T11:37:49Z</time>
      </trkpt>
      <trkpt lat="43.4941" lon="6.63069">
        <ele>33</ele>
        <time>2023-11-05T11:37:50Z</time>
      </trkpt>
      <trkpt lat="43.4941" lon="6.63069">
        <ele>33.3</ele>
        <time>2023-11-05T11:37:51Z</time>
      </trkpt>
      <trkpt lat="43.4941" lon="6.63069">
        <ele>33.5</ele>
        <time>2023-11-05T11:37:52Z</time>
      </trkpt>
      <trkpt lat="43.4941" lon="6.63069">
        <ele>33.7</ele>
        <time>2023-11-05T11:37:53Z</time>
      </trkpt>
      <trkpt lat="43.4941" lon="6.63069">
        <ele>33.7</ele>
        <time>2023-11-05T11:37:54Z</time>
      </trkpt>
      <trkpt lat="43.4941" lon="6.63069">
        <ele>33.8</ele>
        <time>2023-11-05T11:37:55Z</time>
      </trkpt>
      <trkpt lat="43.4941" lon="6.63069">
        <ele>33.8</ele>
        <time>2023-11-05T11:37:56Z</time>
      </trkpt>
      <trkpt lat="43.4941" lon="6.63069">
        <ele>33.7</ele>
        <time>2023-11-05T11:37:57Z</time>
      </trkpt>
      <trkpt lat="43.4941" lon="6.63069">
        <ele>33.6</ele>
        <time>2023-11-05T11:37:58Z</time>
      </trkpt>
      <trkpt lat="43.4941" lon="6.63069">
        <ele>33.4</ele>
        <time>2023-11-05T11:37:59Z</time>
      </trkpt>
      <trkpt lat="43.49409" lon="6.63069">
        <ele>33.2</ele>
        <time>2023-11-05T11:38:00Z</time>
      </trkpt>
      <trkpt lat="43.49409" lon="6.63069">
        <ele>33.2</ele>
        <time>2023-11-05T11:38:01Z</time>
      </trkpt>
      <trkpt lat="43.49409" lon="6.63069">
        <ele>33.1</ele>
        <time>2023-11-05T11:38:02Z</time>
      </trkpt>
      <trkpt lat="43.49409" lon="6.63069">
        <ele>33</ele>
        <time>2023-11-05T11:38:03Z</time>
      </trkpt>
      <trkpt lat="43.49409" lon="6.63069">
        <ele>33</ele>
        <time>2023-11-05T11:38:04Z</time>
      </trkpt>
      <trkpt lat="43.49409" lon="6.63069">
        <ele>32.9</ele>
        <time>2023-11-05T11:38:05Z</time>
      </trkpt>
      <trkpt lat="43.49409" lon="6.63068">
        <ele>33</ele>
        <time>2023-11-05T11:38:06Z</time>
      </trkpt>
      <trkpt lat="43.49408" lon="6.63068">
        <ele>33.1</ele>
        <time>2023-11-05T11:38:07Z</time>
      </trkpt>
      <trkpt lat="43.49408" lon="6.63068">
        <ele>33.2</ele>
        <time>2023-11-05T11:38:08Z</time>
      </trkpt>
      <trkpt lat="43.49408" lon="6.63068">
        <ele>33.2</ele>
        <time>2023-11-05T11:38:09Z</time>
      </trkpt>
      <trkpt lat="43.49408" lon="6.63068">
        <ele>33.3</ele>
        <time>2023-11-05T11:38:10Z</time>
      </trkpt>
      <trkpt lat="43.49408" lon="6.63068">
        <ele>33.3</ele>
        <time>2023-11-05T11:38:11Z</time>
      </trkpt>
      <trkpt lat="43.49408" lon="6.63068">
        <ele>33.3</ele>
        <time>2023-11-05T11:38:12Z</time>
      </trkpt>
      <trkpt lat="43.49408" lon="6.63068">
        <ele>33.3</ele>
        <time>2023-11-05T11:38:13Z</time>
      </trkpt>
      <trkpt lat="43.49407" lon="6.63067">
        <ele>33.2</ele>
        <time>2023-11-05T11:38:14Z</time>
      </trkpt>
      <trkpt lat="43.49407" lon="6.63067">
        <ele>33.2</ele>
        <time>2023-11-05T11:38:15Z</time>
      </trkpt>
      <trkpt lat="43.49407" lon="6.63067">
        <ele>33.3</ele>
        <time>2023-11-05T11:38:16Z</time>
      </trkpt>
      <trkpt lat="43.49407" lon="6.63067">
        <ele>33.3</ele>
        <time>2023-11-05T11:38:17Z</time>
      </trkpt>
      <trkpt lat="43.49407" lon="6.63067">
        <ele>33.3</ele>
        <time>2023-11-05T11:38:18Z</time>
      </trkpt>
      <trkpt lat="43.49406" lon="6.63066">
        <ele>33.4</ele>
        <time>2023-11-05T11:38:19Z</time>
      </trkpt>
      <trkpt lat="43.49406" lon="6.63066">
        <ele>33.5</ele>
        <time>2023-11-05T11:38:20Z</time>
      </trkpt>
      <trkpt lat="43.49406" lon="6.63066">
        <ele>33.4</ele>
        <time>2023-11-05T11:38:21Z</time>
      </trkpt>
      <trkpt lat="43.49406" lon="6.63066">
        <ele>33.4</ele>
        <time>2023-11-05T11:38:22Z</time>
      </trkpt>
      <trkpt lat="43.49407" lon="6.63066">
        <ele>33.4</ele>
        <time>2023-11-05T11:38:23Z</time>
      </trkpt>
      <trkpt lat="43.49407" lon="6.63065">
        <ele>33.5</ele>
        <time>2023-11-05T11:38:24Z</time>
      </trkpt>
      <trkpt lat="43.49406" lon="6.63065">
        <ele>33.5</ele>
        <time>2023-11-05T11:38:25Z</time>
      </trkpt>
      <trkpt lat="43.49405" lon="6.63065">
        <ele>33.5</ele>
        <time>2023-11-05T11:38:26Z</time>
      </trkpt>
      <trkpt lat="43.49405" lon="6.63065">
        <ele>33.5</ele>
        <time>2023-11-05T11:38:27Z</time>
      </trkpt>
      <trkpt lat="43.49405" lon="6.63065">
        <ele>33.4</ele>
        <time>2023-11-05T11:38:28Z</time>
      </trkpt>
      <trkpt lat="43.49406" lon="6.63064">
        <ele>33.4</ele>
        <time>2023-11-05T11:38:29Z</time>
      </trkpt>
      <trkpt lat="43.49406" lon="6.63064">
        <ele>33.4</ele>
        <time>2023-11-05T11:38:30Z</time>
      </trkpt>
      <trkpt lat="43.49406" lon="6.63063">
        <ele>33.4</ele>
        <time>2023-11-05T11:38:31Z</time>
      </trkpt>
      <trkpt lat="43.49406" lon="6.63062">
        <ele>33.4</ele>
        <time>2023-11-05T11:38:32Z</time>
      </trkpt>
      <trkpt lat="43.49406" lon="6.63061">
        <ele>33.3</ele>
        <time>2023-11-05T11:38:33Z</time>
      </trkpt>
      <trkpt lat="43.49406" lon="6.6306">
        <ele>33.2</ele>
        <time>2023-11-05T11:38:34Z</time>
      </trkpt>
      <trkpt lat="43.49406" lon="6.6306">
        <ele>33.2</ele>
        <time>2023-11-05T11:38:35Z</time>
      </trkpt>
      <trkpt lat="43.49406" lon="6.6306">
        <ele>33.1</ele>
        <time>2023-11-05T11:38:36Z</time>
      </trkpt>
      <trkpt lat="43.49406" lon="6.6306">
        <ele>33.1</ele>
        <time>2023-11-05T11:38:37Z</time>
      </trkpt>
      <trkpt lat="43.49406" lon="6.6306">
        <ele>33</ele>
        <time>2023-11-05T11:38:38Z</time>
      </trkpt>
      <trkpt lat="43.49407" lon="6.6306">
        <ele>33.1</ele>
        <time>2023-11-05T11:38:39Z</time>
      </trkpt>
      <trkpt lat="43.49408" lon="6.6306">
        <ele>33.2</ele>
        <time>2023-11-05T11:38:40Z</time>
      </trkpt>
      <trkpt lat="43.49408" lon="6.6306">
        <ele>33.3</ele>
        <time>2023-11-05T11:38:41Z</time>
      </trkpt>
      <trkpt lat="43.49408" lon="6.63059">
        <ele>33.3</ele>
        <time>2023-11-05T11:38:42Z</time>
      </trkpt>
      <trkpt lat="43.49407" lon="6.63059">
        <ele>33.3</ele>
        <time>2023-11-05T11:38:43Z</time>
      </trkpt>
      <trkpt lat="43.49407" lon="6.63058">
        <ele>33.3</ele>
        <time>2023-11-05T11:38:44Z</time>
      </trkpt>
      <trkpt lat="43.49406" lon="6.63058">
        <ele>33.4</ele>
        <time>2023-11-05T11:38:45Z</time>
      </trkpt>
      <trkpt lat="43.49407" lon="6.63057">
        <ele>33.4</ele>
        <time>2023-11-05T11:38:46Z</time>
      </trkpt>
      <trkpt lat="43.49407" lon="6.63056">
        <ele>33.4</ele>
        <time>2023-11-05T11:38:47Z</time>
      </trkpt>
      <trkpt lat="43.49407" lon="6.63055">
        <ele>33.4</ele>
        <time>2023-11-05T11:38:48Z</time>
      </trkpt>
      <trkpt lat="43.49407" lon="6.63055">
        <ele>33.3</ele>
        <time>2023-11-05T11:38:49Z</time>
      </trkpt>
      <trkpt lat="43.49407" lon="6.63055">
        <ele>33.3</ele>
        <time>2023-11-05T11:38:50Z</time>
      </trkpt>
      <trkpt lat="43.49407" lon="6.63055">
        <ele>33.4</ele>
        <time>2023-11-05T11:38:51Z</time>
      </trkpt>
      <trkpt lat="43.49407" lon="6.63054">
        <ele>33.5</ele>
        <time>2023-11-05T11:38:52Z</time>
      </trkpt>
      <trkpt lat="43.49408" lon="6.63053">
        <ele>33.4</ele>
        <time>2023-11-05T11:38:53Z</time>
      </trkpt>
      <trkpt lat="43.49408" lon="6.63053">
        <ele>33.3</ele>
        <time>2023-11-05T11:38:54Z</time>
      </trkpt>
      <trkpt lat="43.49408" lon="6.63053">
        <ele>33.3</ele>
        <time>2023-11-05T11:38:55Z</time>
      </trkpt>
      <trkpt lat="43.49408" lon="6.63053">
        <ele>33.4</ele>
        <time>2023-11-05T11:38:56Z</time>
      </trkpt>
      <trkpt lat="43.49408" lon="6.63053">
        <ele>33.3</ele>
        <time>2023-11-05T11:38:57Z</time>
      </trkpt>
      <trkpt lat="43.49408" lon="6.63053">
        <ele>33.3</ele>
        <time>2023-11-05T11:38:58Z</time>
      </trkpt>
      <trkpt lat="43.49409" lon="6.63052">
        <ele>33.2</ele>
        <time>2023-11-05T11:38:59Z</time>
      </trkpt>
      <trkpt lat="43.49408" lon="6.63051">
        <ele>33.3</ele>
        <time>2023-11-05T11:39:00Z</time>
      </trkpt>
      <trkpt lat="43.49407" lon="6.6305">
        <ele>33.3</ele>
        <time>2023-11-05T11:39:01Z</time>
      </trkpt>
      <trkpt lat="43.49407" lon="6.63049">
        <ele>33.3</ele>
        <time>2023-11-05T11:39:02Z</time>
      </trkpt>
      <trkpt lat="43.49407" lon="6.63048">
        <ele>33.2</ele>
        <time>2023-11-05T11:39:03Z</time>
      </trkpt>
      <trkpt lat="43.49407" lon="6.63047">
        <ele>33.3</ele>
        <time>2023-11-05T11:39:04Z</time>
      </trkpt>
      <trkpt lat="43.49407" lon="6.63047">
        <ele>33.3</ele>
        <time>2023-11-05T11:39:05Z</time>
      </trkpt>
      <trkpt lat="43.49406" lon="6.63046">
        <ele>33.3</ele>
        <time>2023-11-05T11:39:06Z</time>
      </trkpt>
      <trkpt lat="43.49406" lon="6.63045">
        <ele>33.3</ele>
        <time>2023-11-05T11:39:07Z</time>
      </trkpt>
      <trkpt lat="43.49406" lon="6.63045">
        <ele>33.3</ele>
        <time>2023-11-05T11:39:08Z</time>
      </trkpt>
      <trkpt lat="43.49405" lon="6.63043">
        <ele>33.2</ele>
        <time>2023-11-05T11:39:09Z</time>
      </trkpt>
      <trkpt lat="43.49405" lon="6.63042">
        <ele>33.1</ele>
        <time>2023-11-05T11:39:10Z</time>
      </trkpt>
      <trkpt lat="43.49404" lon="6.63041">
        <ele>33.1</ele>
        <time>2023-11-05T11:39:11Z</time>
      </trkpt>
      <trkpt lat="43.49404" lon="6.6304">
        <ele>33.1</ele>
        <time>2023-11-05T11:39:12Z</time>
      </trkpt>
      <trkpt lat="43.49403" lon="6.63039">
        <ele>33</ele>
        <time>2023-11-05T11:39:13Z</time>
      </trkpt>
      <trkpt lat="43.49403" lon="6.63038">
        <ele>33</ele>
        <time>2023-11-05T11:39:14Z</time>
      </trkpt>
      <trkpt lat="43.49403" lon="6.63036">
        <ele>33</ele>
        <time>2023-11-05T11:39:15Z</time>
      </trkpt>
      <trkpt lat="43.49403" lon="6.63035">
        <ele>33</ele>
        <time>2023-11-05T11:39:16Z</time>
      </trkpt>
      <trkpt lat="43.49403" lon="6.63034">
        <ele>33</ele>
        <time>2023-11-05T11:39:17Z</time>
      </trkpt>
      <trkpt lat="43.49403" lon="6.63032">
        <ele>33.1</ele>
        <time>2023-11-05T11:39:18Z</time>
      </trkpt>
      <trkpt lat="43.49402" lon="6.63031">
        <ele>33.2</ele>
        <time>2023-11-05T11:39:19Z</time>
      </trkpt>
      <trkpt lat="43.49401" lon="6.6303">
        <ele>33.2</ele>
        <time>2023-11-05T11:39:20Z</time>
      </trkpt>
      <trkpt lat="43.494" lon="6.6303">
        <ele>33.3</ele>
        <time>2023-11-05T11:39:21Z</time>
      </trkpt>
      <trkpt lat="43.49399" lon="6.63029">
        <ele>33.3</ele>
        <time>2023-11-05T11:39:22Z</time>
      </trkpt>
      <trkpt lat="43.49398" lon="6.63027">
        <ele>33.4</ele>
        <time>2023-11-05T11:39:23Z</time>
      </trkpt>
      <trkpt lat="43.49397" lon="6.63026">
        <ele>33.3</ele>
        <time>2023-11-05T11:39:24Z</time>
      </trkpt>
      <trkpt lat="43.49396" lon="6.63025">
        <ele>33.3</ele>
        <time>2023-11-05T11:39:25Z</time>
      </trkpt>
      <trkpt lat="43.49395" lon="6.63024">
        <ele>33.2</ele>
        <time>2023-11-05T11:39:26Z</time>
      </trkpt>
      <trkpt lat="43.49395" lon="6.63023">
        <ele>33.2</ele>
        <time>2023-11-05T11:39:27Z</time>
      </trkpt>
      <trkpt lat="43.49394" lon="6.63022">
        <ele>33.1</ele>
        <time>2023-11-05T11:39:28Z</time>
      </trkpt>
      <trkpt lat="43.49393" lon="6.63021">
        <ele>33</ele>
        <time>2023-11-05T11:39:29Z</time>
      </trkpt>
      <trkpt lat="43.49391" lon="6.6302">
        <ele>33.1</ele>
        <time>2023-11-05T11:39:30Z</time>
      </trkpt>
      <trkpt lat="43.4939" lon="6.6302">
        <ele>33.2</ele>
        <time>2023-11-05T11:39:31Z</time>
      </trkpt>
      <trkpt lat="43.49389" lon="6.63019">
        <ele>33.1</ele>
        <time>2023-11-05T11:39:32Z</time>
      </trkpt>
      <trkpt lat="43.49388" lon="6.63018">
        <ele>33</ele>
        <time>2023-11-05T11:39:33Z</time>
      </trkpt>
      <trkpt lat="43.49387" lon="6.63017">
        <ele>32.9</ele>
        <time>2023-11-05T11:39:34Z</time>
      </trkpt>
      <trkpt lat="43.49386" lon="6.63016">
        <ele>32.9</ele>
        <time>2023-11-05T11:39:35Z</time>
      </trkpt>
      <trkpt lat="43.49385" lon="6.63015">
        <ele>32.9</ele>
        <time>2023-11-05T11:39:36Z</time>
      </trkpt>
      <trkpt lat="43.49384" lon="6.63014">
        <ele>32.9</ele>
        <time>2023-11-05T11:39:37Z</time>
      </trkpt>
      <trkpt lat="43.49385" lon="6.63012">
        <ele>32.9</ele>
        <time>2023-11-05T11:39:38Z</time>
      </trkpt>
      <trkpt lat="43.49384" lon="6.63011">
        <ele>33</ele>
        <time>2023-11-05T11:39:39Z</time>
      </trkpt>
      <trkpt lat="43.49384" lon="6.6301">
        <ele>33.1</ele>
        <time>2023-11-05T11:39:40Z</time>
      </trkpt>
      <trkpt lat="43.49383" lon="6.63009">
        <ele>33.2</ele>
        <time>2023-11-05T11:39:41Z</time>
      </trkpt>
      <trkpt lat="43.49382" lon="6.63008">
        <ele>33.2</ele>
        <time>2023-11-05T11:39:42Z</time>
      </trkpt>
      <trkpt lat="43.49381" lon="6.63007">
        <ele>33.3</ele>
        <time>2023-11-05T11:39:43Z</time>
      </trkpt>
      <trkpt lat="43.4938" lon="6.63007">
        <ele>33.3</ele>
        <time>2023-11-05T11:39:44Z</time>
      </trkpt>
      <trkpt lat="43.49379" lon="6.63007">
        <ele>33.3</ele>
        <time>2023-11-05T11:39:45Z</time>
      </trkpt>
      <trkpt lat="43.49378" lon="6.63006">
        <ele>33.3</ele>
        <time>2023-11-05T11:39:46Z</time>
      </trkpt>
      <trkpt lat="43.49378" lon="6.63005">
        <ele>33.3</ele>
        <time>2023-11-05T11:39:47Z</time>
      </trkpt>
      <trkpt lat="43.49377" lon="6.63004">
        <ele>33.3</ele>
        <time>2023-11-05T11:39:48Z</time>
      </trkpt>
      <trkpt lat="43.49375" lon="6.63003">
        <ele>33.2</ele>
        <time>2023-11-05T11:39:49Z</time>
      </trkpt>
      <trkpt lat="43.49374" lon="6.63002">
        <ele>33.1</ele>
        <time>2023-11-05T11:39:50Z</time>
      </trkpt>
      <trkpt lat="43.49373" lon="6.63001">
        <ele>32.9</ele>
        <time>2023-11-05T11:39:51Z</time>
      </trkpt>
      <trkpt lat="43.49371" lon="6.63">
        <ele>32.9</ele>
        <time>2023-11-05T11:39:52Z</time>
      </trkpt>
      <trkpt lat="43.4937" lon="6.62999">
        <ele>32.8</ele>
        <time>2023-11-05T11:39:53Z</time>
      </trkpt>
      <trkpt lat="43.49369" lon="6.62998">
        <ele>32.7</ele>
        <time>2023-11-05T11:39:54Z</time>
      </trkpt>
      <trkpt lat="43.49368" lon="6.62997">
        <ele>32.6</ele>
        <time>2023-11-05T11:39:55Z</time>
      </trkpt>
      <trkpt lat="43.49367" lon="6.62996">
        <ele>32.6</ele>
        <time>2023-11-05T11:39:56Z</time>
      </trkpt>
      <trkpt lat="43.49367" lon="6.62995">
        <ele>32.6</ele>
        <time>2023-11-05T11:39:57Z</time>
      </trkpt>
      <trkpt lat="43.49365" lon="6.62994">
        <ele>32.6</ele>
        <time>2023-11-05T11:39:58Z</time>
      </trkpt>
      <trkpt lat="43.49364" lon="6.62993">
        <ele>32.6</ele>
        <time>2023-11-05T11:39:59Z</time>
      </trkpt>
      <trkpt lat="43.49363" lon="6.62992">
        <ele>32.7</ele>
        <time>2023-11-05T11:40:00Z</time>
      </trkpt>
      <trkpt lat="43.49363" lon="6.6299">
        <ele>32.7</ele>
        <time>2023-11-05T11:40:01Z</time>
      </trkpt>
      <trkpt lat="43.49362" lon="6.62989">
        <ele>32.8</ele>
        <time>2023-11-05T11:40:02Z</time>
      </trkpt>
      <trkpt lat="43.49361" lon="6.62987">
        <ele>32.8</ele>
        <time>2023-11-05T11:40:03Z</time>
      </trkpt>
      <trkpt lat="43.49359" lon="6.62987">
        <ele>32.9</ele>
        <time>2023-11-05T11:40:04Z</time>
      </trkpt>
      <trkpt lat="43.49358" lon="6.62986">
        <ele>33</ele>
        <time>2023-11-05T11:40:05Z</time>
      </trkpt>
      <trkpt lat="43.49357" lon="6.62985">
        <ele>33</ele>
        <time>2023-11-05T11:40:06Z</time>
      </trkpt>
      <trkpt lat="43.49356" lon="6.62984">
        <ele>33</ele>
        <time>2023-11-05T11:40:07Z</time>
      </trkpt>
      <trkpt lat="43.49355" lon="6.62982">
        <ele>32.9</ele>
        <time>2023-11-05T11:40:08Z</time>
      </trkpt>
      <trkpt lat="43.49354" lon="6.62982">
        <ele>32.8</ele>
        <time>2023-11-05T11:40:09Z</time>
      </trkpt>
      <trkpt lat="43.49352" lon="6.62981">
        <ele>32.8</ele>
        <time>2023-11-05T11:40:10Z</time>
      </trkpt>
      <trkpt lat="43.49351" lon="6.6298">
        <ele>32.7</ele>
        <time>2023-11-05T11:40:11Z</time>
      </trkpt>
      <trkpt lat="43.49349" lon="6.62979">
        <ele>32.7</ele>
        <time>2023-11-05T11:40:12Z</time>
      </trkpt>
      <trkpt lat="43.49348" lon="6.62978">
        <ele>32.6</ele>
        <time>2023-11-05T11:40:13Z</time>
      </trkpt>
      <trkpt lat="43.49347" lon="6.62977">
        <ele>32.5</ele>
        <time>2023-11-05T11:40:14Z</time>
      </trkpt>
      <trkpt lat="43.49346" lon="6.62976">
        <ele>32.5</ele>
        <time>2023-11-05T11:40:15Z</time>
      </trkpt>
      <trkpt lat="43.49345" lon="6.62975">
        <ele>32.4</ele>
        <time>2023-11-05T11:40:16Z</time>
      </trkpt>
      <trkpt lat="43.49344" lon="6.62974">
        <ele>32.3</ele>
        <time>2023-11-05T11:40:17Z</time>
      </trkpt>
      <trkpt lat="43.49342" lon="6.62973">
        <ele>32.3</ele>
        <time>2023-11-05T11:40:18Z</time>
      </trkpt>
      <trkpt lat="43.49341" lon="6.62972">
        <ele>32.2</ele>
        <time>2023-11-05T11:40:19Z</time>
      </trkpt>
      <trkpt lat="43.4934" lon="6.62971">
        <ele>32.1</ele>
        <time>2023-11-05T11:40:20Z</time>
      </trkpt>
      <trkpt lat="43.49339" lon="6.6297">
        <ele>32</ele>
        <time>2023-11-05T11:40:21Z</time>
      </trkpt>
      <trkpt lat="43.49338" lon="6.6297">
        <ele>32</ele>
        <time>2023-11-05T11:40:22Z</time>
      </trkpt>
      <trkpt lat="43.49336" lon="6.62969">
        <ele>31.9</ele>
        <time>2023-11-05T11:40:23Z</time>
      </trkpt>
      <trkpt lat="43.49335" lon="6.62968">
        <ele>31.8</ele>
        <time>2023-11-05T11:40:24Z</time>
      </trkpt>
      <trkpt lat="43.49334" lon="6.62967">
        <ele>31.8</ele>
        <time>2023-11-05T11:40:25Z</time>
      </trkpt>
      <trkpt lat="43.49333" lon="6.62966">
        <ele>31.8</ele>
        <time>2023-11-05T11:40:26Z</time>
      </trkpt>
      <trkpt lat="43.49332" lon="6.62966">
        <ele>31.9</ele>
        <time>2023-11-05T11:40:27Z</time>
      </trkpt>
      <trkpt lat="43.49331" lon="6.62965">
        <ele>32</ele>
        <time>2023-11-05T11:40:28Z</time>
      </trkpt>
      <trkpt lat="43.49331" lon="6.62964">
        <ele>32.2</ele>
        <time>2023-11-05T11:40:29Z</time>
      </trkpt>
      <trkpt lat="43.4933" lon="6.62963">
        <ele>32.4</ele>
        <time>2023-11-05T11:40:30Z</time>
      </trkpt>
      <trkpt lat="43.49329" lon="6.62962">
        <ele>32.6</ele>
        <time>2023-11-05T11:40:31Z</time>
      </trkpt>
      <trkpt lat="43.49328" lon="6.62962">
        <ele>32.7</ele>
        <time>2023-11-05T11:40:32Z</time>
      </trkpt>
      <trkpt lat="43.49327" lon="6.62961">
        <ele>32.8</ele>
        <time>2023-11-05T11:40:33Z</time>
      </trkpt>
      <trkpt lat="43.49326" lon="6.62961">
        <ele>32.9</ele>
        <time>2023-11-05T11:40:34Z</time>
      </trkpt>
      <trkpt lat="43.49325" lon="6.62961">
        <ele>33</ele>
        <time>2023-11-05T11:40:35Z</time>
      </trkpt>
      <trkpt lat="43.49325" lon="6.6296">
        <ele>33</ele>
        <time>2023-11-05T11:40:36Z</time>
      </trkpt>
      <trkpt lat="43.49325" lon="6.6296">
        <ele>33.1</ele>
        <time>2023-11-05T11:40:37Z</time>
      </trkpt>
      <trkpt lat="43.49324" lon="6.6296">
        <ele>33.1</ele>
        <time>2023-11-05T11:40:38Z</time>
      </trkpt>
      <trkpt lat="43.49325" lon="6.62961">
        <ele>33.2</ele>
        <time>2023-11-05T11:40:39Z</time>
      </trkpt>
      <trkpt lat="43.49324" lon="6.62961">
        <ele>33.2</ele>
        <time>2023-11-05T11:40:40Z</time>
      </trkpt>
      <trkpt lat="43.49324" lon="6.62961">
        <ele>33.2</ele>
        <time>2023-11-05T11:40:41Z</time>
      </trkpt>
      <trkpt lat="43.49323" lon="6.62961">
        <ele>33.3</ele>
        <time>2023-11-05T11:40:42Z</time>
      </trkpt>
      <trkpt lat="43.49323" lon="6.62961">
        <ele>33.3</ele>
        <time>2023-11-05T11:40:43Z</time>
      </trkpt>
      <trkpt lat="43.49323" lon="6.6296">
        <ele>33.3</ele>
        <time>2023-11-05T11:40:44Z</time>
      </trkpt>
      <trkpt lat="43.49323" lon="6.6296">
        <ele>33.3</ele>
        <time>2023-11-05T11:40:45Z</time>
      </trkpt>
      <trkpt lat="43.49323" lon="6.62959">
        <ele>33.4</ele>
        <time>2023-11-05T11:40:46Z</time>
      </trkpt>
      <trkpt lat="43.49322" lon="6.62958">
        <ele>33.3</ele>
        <time>2023-11-05T11:40:47Z</time>
      </trkpt>
      <trkpt lat="43.49321" lon="6.62957">
        <ele>33.2</ele>
        <time>2023-11-05T11:40:48Z</time>
      </trkpt>
      <trkpt lat="43.4932" lon="6.62956">
        <ele>33.1</ele>
        <time>2023-11-05T11:40:49Z</time>
      </trkpt>
      <trkpt lat="43.49319" lon="6.62955">
        <ele>33</ele>
        <time>2023-11-05T11:40:50Z</time>
      </trkpt>
      <trkpt lat="43.49318" lon="6.62954">
        <ele>32.9</ele>
        <time>2023-11-05T11:40:51Z</time>
      </trkpt>
      <trkpt lat="43.49317" lon="6.62954">
        <ele>33</ele>
        <time>2023-11-05T11:40:52Z</time>
      </trkpt>
      <trkpt lat="43.49316" lon="6.62953">
        <ele>33</ele>
        <time>2023-11-05T11:40:53Z</time>
      </trkpt>
      <trkpt lat="43.49315" lon="6.62952">
        <ele>32.9</ele>
        <time>2023-11-05T11:40:54Z</time>
      </trkpt>
      <trkpt lat="43.49313" lon="6.62951">
        <ele>32.9</ele>
        <time>2023-11-05T11:40:55Z</time>
      </trkpt>
      <trkpt lat="43.49312" lon="6.62951">
        <ele>32.8</ele>
        <time>2023-11-05T11:40:56Z</time>
      </trkpt>
      <trkpt lat="43.49311" lon="6.6295">
        <ele>32.6</ele>
        <time>2023-11-05T11:40:57Z</time>
      </trkpt>
      <trkpt lat="43.49309" lon="6.62949">
        <ele>32.4</ele>
        <time>2023-11-05T11:40:58Z</time>
      </trkpt>
      <trkpt lat="43.49308" lon="6.62948">
        <ele>32.2</ele>
        <time>2023-11-05T11:40:59Z</time>
      </trkpt>
      <trkpt lat="43.49307" lon="6.62947">
        <ele>32.1</ele>
        <time>2023-11-05T11:41:00Z</time>
      </trkpt>
      <trkpt lat="43.49306" lon="6.62946">
        <ele>32</ele>
        <time>2023-11-05T11:41:01Z</time>
      </trkpt>
      <trkpt lat="43.49305" lon="6.62946">
        <ele>31.9</ele>
        <time>2023-11-05T11:41:02Z</time>
      </trkpt>
      <trkpt lat="43.49304" lon="6.62945">
        <ele>31.8</ele>
        <time>2023-11-05T11:41:03Z</time>
      </trkpt>
      <trkpt lat="43.49303" lon="6.62945">
        <ele>31.8</ele>
        <time>2023-11-05T11:41:04Z</time>
      </trkpt>
      <trkpt lat="43.49302" lon="6.62944">
        <ele>31.7</ele>
        <time>2023-11-05T11:41:05Z</time>
      </trkpt>
      <trkpt lat="43.49301" lon="6.62943">
        <ele>31.6</ele>
        <time>2023-11-05T11:41:06Z</time>
      </trkpt>
      <trkpt lat="43.493" lon="6.62942">
        <ele>31.4</ele>
        <time>2023-11-05T11:41:07Z</time>
      </trkpt>
      <trkpt lat="43.49298" lon="6.62942">
        <ele>31.2</ele>
        <time>2023-11-05T11:41:08Z</time>
      </trkpt>
      <trkpt lat="43.49298" lon="6.62941">
        <ele>31.1</ele>
        <time>2023-11-05T11:41:09Z</time>
      </trkpt>
      <trkpt lat="43.49297" lon="6.6294">
        <ele>31</ele>
        <time>2023-11-05T11:41:10Z</time>
      </trkpt>
      <trkpt lat="43.49296" lon="6.6294">
        <ele>31.1</ele>
        <time>2023-11-05T11:41:11Z</time>
      </trkpt>
      <trkpt lat="43.49295" lon="6.62939">
        <ele>31.1</ele>
        <time>2023-11-05T11:41:12Z</time>
      </trkpt>
      <trkpt lat="43.49294" lon="6.62938">
        <ele>31.2</ele>
        <time>2023-11-05T11:41:13Z</time>
      </trkpt>
      <trkpt lat="43.49293" lon="6.62938">
        <ele>31.2</ele>
        <time>2023-11-05T11:41:14Z</time>
      </trkpt>
      <trkpt lat="43.49291" lon="6.62937">
        <ele>31.3</ele>
        <time>2023-11-05T11:41:15Z</time>
      </trkpt>
      <trkpt lat="43.49291" lon="6.62936">
        <ele>31.4</ele>
        <time>2023-11-05T11:41:16Z</time>
      </trkpt>
      <trkpt lat="43.4929" lon="6.62935">
        <ele>31.5</ele>
        <time>2023-11-05T11:41:17Z</time>
      </trkpt>
      <trkpt lat="43.49289" lon="6.62934">
        <ele>31.6</ele>
        <time>2023-11-05T11:41:18Z</time>
      </trkpt>
      <trkpt lat="43.49288" lon="6.62933">
        <ele>31.6</ele>
        <time>2023-11-05T11:41:19Z</time>
      </trkpt>
      <trkpt lat="43.49287" lon="6.62932">
        <ele>31.8</ele>
        <time>2023-11-05T11:41:20Z</time>
      </trkpt>
      <trkpt lat="43.49286" lon="6.62931">
        <ele>31.8</ele>
        <time>2023-11-05T11:41:21Z</time>
      </trkpt>
      <trkpt lat="43.49285" lon="6.6293">
        <ele>31.9</ele>
        <time>2023-11-05T11:41:22Z</time>
      </trkpt>
      <trkpt lat="43.49285" lon="6.62929">
        <ele>31.9</ele>
        <time>2023-11-05T11:41:23Z</time>
      </trkpt>
      <trkpt lat="43.49283" lon="6.62927">
        <ele>31.9</ele>
        <time>2023-11-05T11:41:24Z</time>
      </trkpt>
      <trkpt lat="43.49283" lon="6.62926">
        <ele>31.9</ele>
        <time>2023-11-05T11:41:25Z</time>
      </trkpt>
      <trkpt lat="43.49281" lon="6.62925">
        <ele>32</ele>
        <time>2023-11-05T11:41:26Z</time>
      </trkpt>
      <trkpt lat="43.4928" lon="6.62924">
        <ele>32</ele>
        <time>2023-11-05T11:41:27Z</time>
      </trkpt>
      <trkpt lat="43.49279" lon="6.62922">
        <ele>32</ele>
        <time>2023-11-05T11:41:28Z</time>
      </trkpt>
      <trkpt lat="43.49278" lon="6.62921">
        <ele>31.9</ele>
        <time>2023-11-05T11:41:29Z</time>
      </trkpt>
      <trkpt lat="43.49277" lon="6.62921">
        <ele>31.9</ele>
        <time>2023-11-05T11:41:30Z</time>
      </trkpt>
      <trkpt lat="43.49277" lon="6.6292">
        <ele>31.8</ele>
        <time>2023-11-05T11:41:31Z</time>
      </trkpt>
      <trkpt lat="43.49276" lon="6.62918">
        <ele>31.7</ele>
        <time>2023-11-05T11:41:32Z</time>
      </trkpt>
      <trkpt lat="43.49275" lon="6.62917">
        <ele>31.7</ele>
        <time>2023-11-05T11:41:33Z</time>
      </trkpt>
      <trkpt lat="43.49274" lon="6.62916">
        <ele>31.6</ele>
        <time>2023-11-05T11:41:34Z</time>
      </trkpt>
      <trkpt lat="43.49273" lon="6.62915">
        <ele>31.5</ele>
        <time>2023-11-05T11:41:35Z</time>
      </trkpt>
      <trkpt lat="43.49272" lon="6.62914">
        <ele>31.3</ele>
        <time>2023-11-05T11:41:36Z</time>
      </trkpt>
      <trkpt lat="43.49272" lon="6.62913">
        <ele>31.1</ele>
        <time>2023-11-05T11:41:37Z</time>
      </trkpt>
      <trkpt lat="43.49272" lon="6.62913">
        <ele>30.9</ele>
        <time>2023-11-05T11:41:38Z</time>
      </trkpt>
      <trkpt lat="43.49271" lon="6.62912">
        <ele>30.8</ele>
        <time>2023-11-05T11:41:39Z</time>
      </trkpt>
      <trkpt lat="43.4927" lon="6.62911">
        <ele>30.7</ele>
        <time>2023-11-05T11:41:40Z</time>
      </trkpt>
      <trkpt lat="43.49269" lon="6.6291">
        <ele>30.6</ele>
        <time>2023-11-05T11:41:41Z</time>
      </trkpt>
      <trkpt lat="43.49268" lon="6.62909">
        <ele>30.6</ele>
        <time>2023-11-05T11:41:42Z</time>
      </trkpt>
      <trkpt lat="43.49267" lon="6.62908">
        <ele>30.6</ele>
        <time>2023-11-05T11:41:43Z</time>
      </trkpt>
      <trkpt lat="43.49267" lon="6.62907">
        <ele>30.6</ele>
        <time>2023-11-05T11:41:44Z</time>
      </trkpt>
      <trkpt lat="43.49266" lon="6.62905">
        <ele>30.7</ele>
        <time>2023-11-05T11:41:45Z</time>
      </trkpt>
      <trkpt lat="43.49266" lon="6.62904">
        <ele>30.9</ele>
        <time>2023-11-05T11:41:46Z</time>
      </trkpt>
      <trkpt lat="43.49266" lon="6.62904">
        <ele>31</ele>
        <time>2023-11-05T11:41:47Z</time>
      </trkpt>
      <trkpt lat="43.49264" lon="6.62903">
        <ele>31.2</ele>
        <time>2023-11-05T11:41:48Z</time>
      </trkpt>
      <trkpt lat="43.49264" lon="6.62902">
        <ele>31.3</ele>
        <time>2023-11-05T11:41:49Z</time>
      </trkpt>
      <trkpt lat="43.49263" lon="6.62901">
        <ele>31.4</ele>
        <time>2023-11-05T11:41:50Z</time>
      </trkpt>
      <trkpt lat="43.49263" lon="6.629">
        <ele>31.4</ele>
        <time>2023-11-05T11:41:51Z</time>
      </trkpt>
      <trkpt lat="43.49262" lon="6.62898">
        <ele>31.5</ele>
        <time>2023-11-05T11:41:52Z</time>
      </trkpt>
      <trkpt lat="43.49262" lon="6.62897">
        <ele>31.4</ele>
        <time>2023-11-05T11:41:53Z</time>
      </trkpt>
      <trkpt lat="43.49261" lon="6.62896">
        <ele>31.4</ele>
        <time>2023-11-05T11:41:54Z</time>
      </trkpt>
      <trkpt lat="43.49261" lon="6.62895">
        <ele>31.4</ele>
        <time>2023-11-05T11:41:55Z</time>
      </trkpt>
      <trkpt lat="43.4926" lon="6.62894">
        <ele>31.4</ele>
        <time>2023-11-05T11:41:56Z</time>
      </trkpt>
      <trkpt lat="43.49259" lon="6.62894">
        <ele>31.4</ele>
        <time>2023-11-05T11:41:57Z</time>
      </trkpt>
      <trkpt lat="43.49259" lon="6.62892">
        <ele>31.4</ele>
        <time>2023-11-05T11:41:58Z</time>
      </trkpt>
      <trkpt lat="43.49258" lon="6.62891">
        <ele>31.4</ele>
        <time>2023-11-05T11:41:59Z</time>
      </trkpt>
      <trkpt lat="43.49257" lon="6.62889">
        <ele>31.4</ele>
        <time>2023-11-05T11:42:00Z</time>
      </trkpt>
      <trkpt lat="43.49257" lon="6.62888">
        <ele>31.5</ele>
        <time>2023-11-05T11:42:01Z</time>
      </trkpt>
      <trkpt lat="43.49256" lon="6.62887">
        <ele>31.4</ele>
        <time>2023-11-05T11:42:02Z</time>
      </trkpt>
      <trkpt lat="43.49255" lon="6.62886">
        <ele>31.3</ele>
        <time>2023-11-05T11:42:03Z</time>
      </trkpt>
      <trkpt lat="43.49255" lon="6.62885">
        <ele>31.3</ele>
        <time>2023-11-05T11:42:04Z</time>
      </trkpt>
      <trkpt lat="43.49254" lon="6.62884">
        <ele>31.2</ele>
        <time>2023-11-05T11:42:05Z</time>
      </trkpt>
      <trkpt lat="43.49253" lon="6.62883">
        <ele>31.2</ele>
        <time>2023-11-05T11:42:06Z</time>
      </trkpt>
      <trkpt lat="43.49253" lon="6.62882">
        <ele>31.1</ele>
        <time>2023-11-05T11:42:07Z</time>
      </trkpt>
      <trkpt lat="43.49254" lon="6.6288">
        <ele>31</ele>
        <time>2023-11-05T11:42:08Z</time>
      </trkpt>
      <trkpt lat="43.49254" lon="6.62879">
        <ele>30.9</ele>
        <time>2023-11-05T11:42:09Z</time>
      </trkpt>
      <trkpt lat="43.49254" lon="6.62878">
        <ele>30.8</ele>
        <time>2023-11-05T11:42:10Z</time>
      </trkpt>
      <trkpt lat="43.49254" lon="6.62877">
        <ele>30.7</ele>
        <time>2023-11-05T11:42:11Z</time>
      </trkpt>
      <trkpt lat="43.49254" lon="6.62876">
        <ele>30.6</ele>
        <time>2023-11-05T11:42:12Z</time>
      </trkpt>
      <trkpt lat="43.49254" lon="6.62875">
        <ele>30.5</ele>
        <time>2023-11-05T11:42:13Z</time>
      </trkpt>
      <trkpt lat="43.49255" lon="6.62874">
        <ele>30.5</ele>
        <time>2023-11-05T11:42:14Z</time>
      </trkpt>
      <trkpt lat="43.49255" lon="6.62873">
        <ele>30.4</ele>
        <time>2023-11-05T11:42:15Z</time>
      </trkpt>
      <trkpt lat="43.49255" lon="6.62872">
        <ele>30.4</ele>
        <time>2023-11-05T11:42:16Z</time>
      </trkpt>
      <trkpt lat="43.49255" lon="6.62871">
        <ele>30.4</ele>
        <time>2023-11-05T11:42:17Z</time>
      </trkpt>
      <trkpt lat="43.49256" lon="6.62871">
        <ele>30.4</ele>
        <time>2023-11-05T11:42:18Z</time>
      </trkpt>
      <trkpt lat="43.49257" lon="6.6287">
        <ele>30.3</ele>
        <time>2023-11-05T11:42:19Z</time>
      </trkpt>
      <trkpt lat="43.49257" lon="6.62868">
        <ele>30.2</ele>
        <time>2023-11-05T11:42:20Z</time>
      </trkpt>
      <trkpt lat="43.49257" lon="6.62867">
        <ele>30.2</ele>
        <time>2023-11-05T11:42:21Z</time>
      </trkpt>
      <trkpt lat="43.49258" lon="6.62865">
        <ele>30.2</ele>
        <time>2023-11-05T11:42:22Z</time>
      </trkpt>
      <trkpt lat="43.49258" lon="6.62864">
        <ele>30.2</ele>
        <time>2023-11-05T11:42:23Z</time>
      </trkpt>
      <trkpt lat="43.49258" lon="6.62863">
        <ele>30.3</ele>
        <time>2023-11-05T11:42:24Z</time>
      </trkpt>
      <trkpt lat="43.49258" lon="6.62861">
        <ele>30.3</ele>
        <time>2023-11-05T11:42:25Z</time>
      </trkpt>
      <trkpt lat="43.49259" lon="6.6286">
        <ele>30.3</ele>
        <time>2023-11-05T11:42:26Z</time>
      </trkpt>
      <trkpt lat="43.49259" lon="6.62859">
        <ele>30.3</ele>
        <time>2023-11-05T11:42:27Z</time>
      </trkpt>
      <trkpt lat="43.4926" lon="6.62858">
        <ele>30.3</ele>
        <time>2023-11-05T11:42:28Z</time>
      </trkpt>
      <trkpt lat="43.4926" lon="6.62856">
        <ele>30.3</ele>
        <time>2023-11-05T11:42:29Z</time>
      </trkpt>
      <trkpt lat="43.49261" lon="6.62855">
        <ele>30.3</ele>
        <time>2023-11-05T11:42:30Z</time>
      </trkpt>
      <trkpt lat="43.49262" lon="6.62854">
        <ele>30.2</ele>
        <time>2023-11-05T11:42:31Z</time>
      </trkpt>
      <trkpt lat="43.49262" lon="6.62853">
        <ele>30</ele>
        <time>2023-11-05T11:42:32Z</time>
      </trkpt>
      <trkpt lat="43.49262" lon="6.62852">
        <ele>29.9</ele>
        <time>2023-11-05T11:42:33Z</time>
      </trkpt>
      <trkpt lat="43.49263" lon="6.6285">
        <ele>29.9</ele>
        <time>2023-11-05T11:42:34Z</time>
      </trkpt>
      <trkpt lat="43.49264" lon="6.62849">
        <ele>29.8</ele>
        <time>2023-11-05T11:42:35Z</time>
      </trkpt>
      <trkpt lat="43.49265" lon="6.62848">
        <ele>29.9</ele>
        <time>2023-11-05T11:42:36Z</time>
      </trkpt>
      <trkpt lat="43.49265" lon="6.62847">
        <ele>30</ele>
        <time>2023-11-05T11:42:37Z</time>
      </trkpt>
      <trkpt lat="43.49266" lon="6.62846">
        <ele>30</ele>
        <time>2023-11-05T11:42:38Z</time>
      </trkpt>
      <trkpt lat="43.49266" lon="6.62845">
        <ele>30.1</ele>
        <time>2023-11-05T11:42:39Z</time>
      </trkpt>
      <trkpt lat="43.49267" lon="6.62843">
        <ele>30.1</ele>
        <time>2023-11-05T11:42:40Z</time>
      </trkpt>
      <trkpt lat="43.49267" lon="6.62841">
        <ele>30</ele>
        <time>2023-11-05T11:42:41Z</time>
      </trkpt>
      <trkpt lat="43.49267" lon="6.6284">
        <ele>29.9</ele>
        <time>2023-11-05T11:42:42Z</time>
      </trkpt>
      <trkpt lat="43.49268" lon="6.62838">
        <ele>29.9</ele>
        <time>2023-11-05T11:42:43Z</time>
      </trkpt>
      <trkpt lat="43.49268" lon="6.62836">
        <ele>29.9</ele>
        <time>2023-11-05T11:42:44Z</time>
      </trkpt>
      <trkpt lat="43.49269" lon="6.62836">
        <ele>29.7</ele>
        <time>2023-11-05T11:42:45Z</time>
      </trkpt>
      <trkpt lat="43.49269" lon="6.62835">
        <ele>29.7</ele>
        <time>2023-11-05T11:42:46Z</time>
      </trkpt>
      <trkpt lat="43.4927" lon="6.62836">
        <ele>29.7</ele>
        <time>2023-11-05T11:42:47Z</time>
      </trkpt>
      <trkpt lat="43.4927" lon="6.62836">
        <ele>29.6</ele>
        <time>2023-11-05T11:42:48Z</time>
      </trkpt>
      <trkpt lat="43.4927" lon="6.62836">
        <ele>29.5</ele>
        <time>2023-11-05T11:42:49Z</time>
      </trkpt>
      <trkpt lat="43.4927" lon="6.62836">
        <ele>29.5</ele>
        <time>2023-11-05T11:42:50Z</time>
      </trkpt>
      <trkpt lat="43.4927" lon="6.62836">
        <ele>29.4</ele>
        <time>2023-11-05T11:42:51Z</time>
      </trkpt>
      <trkpt lat="43.4927" lon="6.62836">
        <ele>29.3</ele>
        <time>2023-11-05T11:42:52Z</time>
      </trkpt>
      <trkpt lat="43.4927" lon="6.62835">
        <ele>29.3</ele>
        <time>2023-11-05T11:42:53Z</time>
      </trkpt>
      <trkpt lat="43.4927" lon="6.62833">
        <ele>29.3</ele>
        <time>2023-11-05T11:42:54Z</time>
      </trkpt>
      <trkpt lat="43.4927" lon="6.62832">
        <ele>29.3</ele>
        <time>2023-11-05T11:42:55Z</time>
      </trkpt>
      <trkpt lat="43.49271" lon="6.6283">
        <ele>29.4</ele>
        <time>2023-11-05T11:42:56Z</time>
      </trkpt>
      <trkpt lat="43.4927" lon="6.62829">
        <ele>29.5</ele>
        <time>2023-11-05T11:42:57Z</time>
      </trkpt>
      <trkpt lat="43.49271" lon="6.62828">
        <ele>29.6</ele>
        <time>2023-11-05T11:42:58Z</time>
      </trkpt>
      <trkpt lat="43.49271" lon="6.62826">
        <ele>29.7</ele>
        <time>2023-11-05T11:42:59Z</time>
      </trkpt>
      <trkpt lat="43.49271" lon="6.62824">
        <ele>29.7</ele>
        <time>2023-11-05T11:43:00Z</time>
      </trkpt>
      <trkpt lat="43.49272" lon="6.62822">
        <ele>29.8</ele>
        <time>2023-11-05T11:43:01Z</time>
      </trkpt>
      <trkpt lat="43.49272" lon="6.6282">
        <ele>29.7</ele>
        <time>2023-11-05T11:43:02Z</time>
      </trkpt>
      <trkpt lat="43.49272" lon="6.62819">
        <ele>29.6</ele>
        <time>2023-11-05T11:43:03Z</time>
      </trkpt>
      <trkpt lat="43.49272" lon="6.62818">
        <ele>29.6</ele>
        <time>2023-11-05T11:43:04Z</time>
      </trkpt>
      <trkpt lat="43.49273" lon="6.62817">
        <ele>29.6</ele>
        <time>2023-11-05T11:43:05Z</time>
      </trkpt>
      <trkpt lat="43.49273" lon="6.62816">
        <ele>29.6</ele>
        <time>2023-11-05T11:43:06Z</time>
      </trkpt>
      <trkpt lat="43.49273" lon="6.62814">
        <ele>29.5</ele>
        <time>2023-11-05T11:43:07Z</time>
      </trkpt>
      <trkpt lat="43.49273" lon="6.62812">
        <ele>29.5</ele>
        <time>2023-11-05T11:43:08Z</time>
      </trkpt>
      <trkpt lat="43.49273" lon="6.62811">
        <ele>29.5</ele>
        <time>2023-11-05T11:43:09Z</time>
      </trkpt>
      <trkpt lat="43.49273" lon="6.62809">
        <ele>29.4</ele>
        <time>2023-11-05T11:43:10Z</time>
      </trkpt>
      <trkpt lat="43.49274" lon="6.62808">
        <ele>29.3</ele>
        <time>2023-11-05T11:43:11Z</time>
      </trkpt>
      <trkpt lat="43.49274" lon="6.62807">
        <ele>29.2</ele>
        <time>2023-11-05T11:43:12Z</time>
      </trkpt>
      <trkpt lat="43.49274" lon="6.62805">
        <ele>29.1</ele>
        <time>2023-11-05T11:43:13Z</time>
      </trkpt>
      <trkpt lat="43.49275" lon="6.62804">
        <ele>29</ele>
        <time>2023-11-05T11:43:14Z</time>
      </trkpt>
      <trkpt lat="43.49275" lon="6.62804">
        <ele>29</ele>
        <time>2023-11-05T11:43:15Z</time>
      </trkpt>
      <trkpt lat="43.49275" lon="6.62803">
        <ele>28.9</ele>
        <time>2023-11-05T11:43:16Z</time>
      </trkpt>
      <trkpt lat="43.49275" lon="6.62802">
        <ele>29</ele>
        <time>2023-11-05T11:43:17Z</time>
      </trkpt>
      <trkpt lat="43.49274" lon="6.62802">
        <ele>29</ele>
        <time>2023-11-05T11:43:18Z</time>
      </trkpt>
      <trkpt lat="43.49274" lon="6.62802">
        <ele>29</ele>
        <time>2023-11-05T11:43:19Z</time>
      </trkpt>
      <trkpt lat="43.49274" lon="6.62802">
        <ele>29</ele>
        <time>2023-11-05T11:43:20Z</time>
      </trkpt>
      <trkpt lat="43.49274" lon="6.62802">
        <ele>29.1</ele>
        <time>2023-11-05T11:43:21Z</time>
      </trkpt>
      <trkpt lat="43.49275" lon="6.62802">
        <ele>29.3</ele>
        <time>2023-11-05T11:43:22Z</time>
      </trkpt>
      <trkpt lat="43.49276" lon="6.62802">
        <ele>29.4</ele>
        <time>2023-11-05T11:43:23Z</time>
      </trkpt>
      <trkpt lat="43.49277" lon="6.62801">
        <ele>29.3</ele>
        <time>2023-11-05T11:43:24Z</time>
      </trkpt>
      <trkpt lat="43.49277" lon="6.628">
        <ele>29.2</ele>
        <time>2023-11-05T11:43:25Z</time>
      </trkpt>
      <trkpt lat="43.49278" lon="6.62799">
        <ele>29.2</ele>
        <time>2023-11-05T11:43:26Z</time>
      </trkpt>
      <trkpt lat="43.49278" lon="6.62798">
        <ele>29.2</ele>
        <time>2023-11-05T11:43:27Z</time>
      </trkpt>
      <trkpt lat="43.49278" lon="6.62797">
        <ele>29.4</ele>
        <time>2023-11-05T11:43:28Z</time>
      </trkpt>
      <trkpt lat="43.49278" lon="6.62796">
        <ele>29.6</ele>
        <time>2023-11-05T11:43:29Z</time>
      </trkpt>
      <trkpt lat="43.49278" lon="6.62795">
        <ele>29.8</ele>
        <time>2023-11-05T11:43:30Z</time>
      </trkpt>
      <trkpt lat="43.49277" lon="6.62794">
        <ele>29.9</ele>
        <time>2023-11-05T11:43:31Z</time>
      </trkpt>
      <trkpt lat="43.49277" lon="6.62793">
        <ele>30.1</ele>
        <time>2023-11-05T11:43:32Z</time>
      </trkpt>
      <trkpt lat="43.49277" lon="6.62793">
        <ele>30.2</ele>
        <time>2023-11-05T11:43:33Z</time>
      </trkpt>
      <trkpt lat="43.49277" lon="6.62793">
        <ele>30.2</ele>
        <time>2023-11-05T11:43:34Z</time>
      </trkpt>
      <trkpt lat="43.49277" lon="6.62792">
        <ele>30.2</ele>
        <time>2023-11-05T11:43:35Z</time>
      </trkpt>
      <trkpt lat="43.49277" lon="6.62792">
        <ele>30.2</ele>
        <time>2023-11-05T11:43:36Z</time>
      </trkpt>
      <trkpt lat="43.49277" lon="6.62792">
        <ele>30.2</ele>
        <time>2023-11-05T11:43:37Z</time>
      </trkpt>
      <trkpt lat="43.49277" lon="6.62792">
        <ele>30.2</ele>
        <time>2023-11-05T11:43:38Z</time>
      </trkpt>
      <trkpt lat="43.49277" lon="6.62792">
        <ele>30.3</ele>
        <time>2023-11-05T11:43:39Z</time>
      </trkpt>
      <trkpt lat="43.49277" lon="6.62792">
        <ele>30.4</ele>
        <time>2023-11-05T11:43:40Z</time>
      </trkpt>
      <trkpt lat="43.49277" lon="6.62792">
        <ele>30.5</ele>
        <time>2023-11-05T11:43:41Z</time>
      </trkpt>
      <trkpt lat="43.49277" lon="6.62792">
        <ele>30.6</ele>
        <time>2023-11-05T11:43:42Z</time>
      </trkpt>
      <trkpt lat="43.49277" lon="6.62792">
        <ele>30.7</ele>
        <time>2023-11-05T11:43:43Z</time>
      </trkpt>
      <trkpt lat="43.49277" lon="6.62791">
        <ele>30.6</ele>
        <time>2023-11-05T11:43:44Z</time>
      </trkpt>
      <trkpt lat="43.49277" lon="6.62791">
        <ele>30.7</ele>
        <time>2023-11-05T11:43:45Z</time>
      </trkpt>
      <trkpt lat="43.49277" lon="6.62791">
        <ele>30.7</ele>
        <time>2023-11-05T11:43:46Z</time>
      </trkpt>
      <trkpt lat="43.49277" lon="6.62791">
        <ele>30.6</ele>
        <time>2023-11-05T11:43:47Z</time>
      </trkpt>
      <trkpt lat="43.49277" lon="6.62791">
        <ele>30.6</ele>
        <time>2023-11-05T11:43:48Z</time>
      </trkpt>
      <trkpt lat="43.49277" lon="6.62791">
        <ele>30.7</ele>
        <time>2023-11-05T11:43:49Z</time>
      </trkpt>
      <trkpt lat="43.49277" lon="6.62791">
        <ele>30.7</ele>
        <time>2023-11-05T11:43:50Z</time>
      </trkpt>
      <trkpt lat="43.49277" lon="6.62791">
        <ele>30.7</ele>
        <time>2023-11-05T11:43:51Z</time>
      </trkpt>
      <trkpt lat="43.49277" lon="6.62791">
        <ele>30.7</ele>
        <time>2023-11-05T11:43:52Z</time>
      </trkpt>
      <trkpt lat="43.49277" lon="6.6279">
        <ele>30.8</ele>
        <time>2023-11-05T11:43:53Z</time>
      </trkpt>
      <trkpt lat="43.49276" lon="6.6279">
        <ele>30.8</ele>
        <time>2023-11-05T11:43:54Z</time>
      </trkpt>
      <trkpt lat="43.49276" lon="6.6279">
        <ele>30.9</ele>
        <time>2023-11-05T11:43:55Z</time>
      </trkpt>
      <trkpt lat="43.49276" lon="6.6279">
        <ele>30.9</ele>
        <time>2023-11-05T11:43:56Z</time>
      </trkpt>
      <trkpt lat="43.49276" lon="6.6279">
        <ele>31</ele>
        <time>2023-11-05T11:43:57Z</time>
      </trkpt>
      <trkpt lat="43.49276" lon="6.6279">
        <ele>31</ele>
        <time>2023-11-05T11:43:58Z</time>
      </trkpt>
      <trkpt lat="43.49276" lon="6.6279">
        <ele>31.1</ele>
        <time>2023-11-05T11:43:59Z</time>
      </trkpt>
      <trkpt lat="43.49276" lon="6.6279">
        <ele>31.1</ele>
        <time>2023-11-05T11:44:00Z</time>
      </trkpt>
      <trkpt lat="43.49276" lon="6.6279">
        <ele>31.2</ele>
        <time>2023-11-05T11:44:01Z</time>
      </trkpt>
      <trkpt lat="43.49276" lon="6.6279">
        <ele>31.2</ele>
        <time>2023-11-05T11:44:02Z</time>
      </trkpt>
      <trkpt lat="43.49276" lon="6.6279">
        <ele>31.2</ele>
        <time>2023-11-05T11:44:03Z</time>
      </trkpt>
      <trkpt lat="43.49276" lon="6.62789">
        <ele>31.2</ele>
        <time>2023-11-05T11:44:04Z</time>
      </trkpt>
      <trkpt lat="43.49276" lon="6.62789">
        <ele>31.1</ele>
        <time>2023-11-05T11:44:05Z</time>
      </trkpt>
      <trkpt lat="43.49276" lon="6.62789">
        <ele>31</ele>
        <time>2023-11-05T11:44:06Z</time>
      </trkpt>
      <trkpt lat="43.49276" lon="6.62789">
        <ele>30.8</ele>
        <time>2023-11-05T11:44:07Z</time>
      </trkpt>
      <trkpt lat="43.49276" lon="6.62789">
        <ele>30.7</ele>
        <time>2023-11-05T11:44:08Z</time>
      </trkpt>
      <trkpt lat="43.49276" lon="6.62789">
        <ele>30.6</ele>
        <time>2023-11-05T11:44:09Z</time>
      </trkpt>
      <trkpt lat="43.49276" lon="6.62789">
        <ele>30.5</ele>
        <time>2023-11-05T11:44:10Z</time>
      </trkpt>
      <trkpt lat="43.49276" lon="6.62789">
        <ele>30.5</ele>
        <time>2023-11-05T11:44:11Z</time>
      </trkpt>
      <trkpt lat="43.49276" lon="6.62789">
        <ele>30.4</ele>
        <time>2023-11-05T11:44:12Z</time>
      </trkpt>
      <trkpt lat="43.49276" lon="6.62789">
        <ele>30.3</ele>
        <time>2023-11-05T11:44:13Z</time>
      </trkpt>
      <trkpt lat="43.49276" lon="6.62789">
        <ele>30.3</ele>
        <time>2023-11-05T11:44:14Z</time>
      </trkpt>
      <trkpt lat="43.49276" lon="6.62789">
        <ele>30.2</ele>
        <time>2023-11-05T11:44:15Z</time>
      </trkpt>
      <trkpt lat="43.49276" lon="6.62788">
        <ele>30.2</ele>
        <time>2023-11-05T11:44:16Z</time>
      </trkpt>
      <trkpt lat="43.49276" lon="6.62788">
        <ele>30.2</ele>
        <time>2023-11-05T11:44:17Z</time>
      </trkpt>
      <trkpt lat="43.49276" lon="6.62788">
        <ele>30.4</ele>
        <time>2023-11-05T11:44:18Z</time>
      </trkpt>
      <trkpt lat="43.49276" lon="6.62788">
        <ele>30.7</ele>
        <time>2023-11-05T11:44:19Z</time>
      </trkpt>
      <trkpt lat="43.49276" lon="6.62788">
        <ele>31</ele>
        <time>2023-11-05T11:44:20Z</time>
      </trkpt>
      <trkpt lat="43.49276" lon="6.62788">
        <ele>31</ele>
        <time>2023-11-05T11:44:21Z</time>
      </trkpt>
      <trkpt lat="43.49276" lon="6.62788">
        <ele>31.1</ele>
        <time>2023-11-05T11:44:22Z</time>
      </trkpt>
      <trkpt lat="43.49275" lon="6.62788">
        <ele>31</ele>
        <time>2023-11-05T11:44:23Z</time>
      </trkpt>
      <trkpt lat="43.49275" lon="6.62788">
        <ele>31</ele>
        <time>2023-11-05T11:44:24Z</time>
      </trkpt>
      <trkpt lat="43.49275" lon="6.62788">
        <ele>31</ele>
        <time>2023-11-05T11:44:25Z</time>
      </trkpt>
      <trkpt lat="43.49275" lon="6.62788">
        <ele>31</ele>
        <time>2023-11-05T11:44:26Z</time>
      </trkpt>
      <trkpt lat="43.49275" lon="6.62788">
        <ele>30.9</ele>
        <time>2023-11-05T11:44:27Z</time>
      </trkpt>
      <trkpt lat="43.49275" lon="6.62789">
        <ele>30.8</ele>
        <time>2023-11-05T11:44:28Z</time>
      </trkpt>
      <trkpt lat="43.49275" lon="6.62789">
        <ele>30.6</ele>
        <time>2023-11-05T11:44:29Z</time>
      </trkpt>
      <trkpt lat="43.49275" lon="6.6279">
        <ele>30.5</ele>
        <time>2023-11-05T11:44:30Z</time>
      </trkpt>
      <trkpt lat="43.49276" lon="6.62791">
        <ele>30.4</ele>
        <time>2023-11-05T11:44:31Z</time>
      </trkpt>
      <trkpt lat="43.49276" lon="6.62791">
        <ele>30.4</ele>
        <time>2023-11-05T11:44:32Z</time>
      </trkpt>
      <trkpt lat="43.49277" lon="6.62791">
        <ele>30.5</ele>
        <time>2023-11-05T11:44:33Z</time>
      </trkpt>
      <trkpt lat="43.49277" lon="6.62791">
        <ele>30.7</ele>
        <time>2023-11-05T11:44:34Z</time>
      </trkpt>
      <trkpt lat="43.49278" lon="6.62792">
        <ele>30.8</ele>
        <time>2023-11-05T11:44:35Z</time>
      </trkpt>
      <trkpt lat="43.49278" lon="6.62792">
        <ele>30.9</ele>
        <time>2023-11-05T11:44:36Z</time>
      </trkpt>
      <trkpt lat="43.49278" lon="6.62792">
        <ele>31</ele>
        <time>2023-11-05T11:44:37Z</time>
      </trkpt>
      <trkpt lat="43.49278" lon="6.62792">
        <ele>31.1</ele>
        <time>2023-11-05T11:44:38Z</time>
      </trkpt>
      <trkpt lat="43.49278" lon="6.62792">
        <ele>31.1</ele>
        <time>2023-11-05T11:44:39Z</time>
      </trkpt>
      <trkpt lat="43.49278" lon="6.62793">
        <ele>31.2</ele>
        <time>2023-11-05T11:44:40Z</time>
      </trkpt>
      <trkpt lat="43.49278" lon="6.62793">
        <ele>31.2</ele>
        <time>2023-11-05T11:44:41Z</time>
      </trkpt>
      <trkpt lat="43.49278" lon="6.62793">
        <ele>31.2</ele>
        <time>2023-11-05T11:44:42Z</time>
      </trkpt>
      <trkpt lat="43.49278" lon="6.62792">
        <ele>31.2</ele>
        <time>2023-11-05T11:44:43Z</time>
      </trkpt>
      <trkpt lat="43.49278" lon="6.62792">
        <ele>31.3</ele>
        <time>2023-11-05T11:44:44Z</time>
      </trkpt>
      <trkpt lat="43.49278" lon="6.62792">
        <ele>31.3</ele>
        <time>2023-11-05T11:44:45Z</time>
      </trkpt>
      <trkpt lat="43.49278" lon="6.62792">
        <ele>31.3</ele>
        <time>2023-11-05T11:44:46Z</time>
      </trkpt>
      <trkpt lat="43.49277" lon="6.62792">
        <ele>31.3</ele>
        <time>2023-11-05T11:44:47Z</time>
      </trkpt>
      <trkpt lat="43.49277" lon="6.62793">
        <ele>31.4</ele>
        <time>2023-11-05T11:44:48Z</time>
      </trkpt>
      <trkpt lat="43.49277" lon="6.62793">
        <ele>31.4</ele>
        <time>2023-11-05T11:44:49Z</time>
      </trkpt>
      <trkpt lat="43.49278" lon="6.62792">
        <ele>31.3</ele>
        <time>2023-11-05T11:44:50Z</time>
      </trkpt>
      <trkpt lat="43.49278" lon="6.62792">
        <ele>31.2</ele>
        <time>2023-11-05T11:44:51Z</time>
      </trkpt>
      <trkpt lat="43.49278" lon="6.62792">
        <ele>31.1</ele>
        <time>2023-11-05T11:44:52Z</time>
      </trkpt>
      <trkpt lat="43.49278" lon="6.62792">
        <ele>31</ele>
        <time>2023-11-05T11:44:53Z</time>
      </trkpt>
      <trkpt lat="43.49278" lon="6.62792">
        <ele>31</ele>
        <time>2023-11-05T11:44:54Z</time>
      </trkpt>
      <trkpt lat="43.49278" lon="6.62792">
        <ele>31</ele>
        <time>2023-11-05T11:44:55Z</time>
      </trkpt>
      <trkpt lat="43.49278" lon="6.62792">
        <ele>30.9</ele>
        <time>2023-11-05T11:44:56Z</time>
      </trkpt>
      <trkpt lat="43.49278" lon="6.62792">
        <ele>30.7</ele>
        <time>2023-11-05T11:44:57Z</time>
      </trkpt>
      <trkpt lat="43.49278" lon="6.62792">
        <ele>30.6</ele>
        <time>2023-11-05T11:44:58Z</time>
      </trkpt>
      <trkpt lat="43.49278" lon="6.62792">
        <ele>30.6</ele>
        <time>2023-11-05T11:44:59Z</time>
      </trkpt>
      <trkpt lat="43.49278" lon="6.62792">
        <ele>30.5</ele>
        <time>2023-11-05T11:45:00Z</time>
      </trkpt>
      <trkpt lat="43.49278" lon="6.62792">
        <ele>30.5</ele>
        <time>2023-11-05T11:45:01Z</time>
      </trkpt>
      <trkpt lat="43.49277" lon="6.62792">
        <ele>30.5</ele>
        <time>2023-11-05T11:45:02Z</time>
      </trkpt>
      <trkpt lat="43.49277" lon="6.62792">
        <ele>30.4</ele>
        <time>2023-11-05T11:45:03Z</time>
      </trkpt>
      <trkpt lat="43.49277" lon="6.62792">
        <ele>30.6</ele>
        <time>2023-11-05T11:45:04Z</time>
      </trkpt>
      <trkpt lat="43.49277" lon="6.62792">
        <ele>30.9</ele>
        <time>2023-11-05T11:45:05Z</time>
      </trkpt>
      <trkpt lat="43.49277" lon="6.62792">
        <ele>31.2</ele>
        <time>2023-11-05T11:45:06Z</time>
      </trkpt>
      <trkpt lat="43.49277" lon="6.62792">
        <ele>31.3</ele>
        <time>2023-11-05T11:45:07Z</time>
      </trkpt>
      <trkpt lat="43.49277" lon="6.62792">
        <ele>31.2</ele>
        <time>2023-11-05T11:45:08Z</time>
      </trkpt>
      <trkpt lat="43.49277" lon="6.62792">
        <ele>31.2</ele>
        <time>2023-11-05T11:45:09Z</time>
      </trkpt>
      <trkpt lat="43.49277" lon="6.62792">
        <ele>31.2</ele>
        <time>2023-11-05T11:45:10Z</time>
      </trkpt>
      <trkpt lat="43.49277" lon="6.62792">
        <ele>31.1</ele>
        <time>2023-11-05T11:45:11Z</time>
      </trkpt>
      <trkpt lat="43.49277" lon="6.62792">
        <ele>31</ele>
        <time>2023-11-05T11:45:12Z</time>
      </trkpt>
      <trkpt lat="43.49277" lon="6.62792">
        <ele>30.9</ele>
        <time>2023-11-05T11:45:13Z</time>
      </trkpt>
      <trkpt lat="43.49277" lon="6.62792">
        <ele>30.7</ele>
        <time>2023-11-05T11:45:14Z</time>
      </trkpt>
      <trkpt lat="43.49277" lon="6.62792">
        <ele>30.7</ele>
        <time>2023-11-05T11:45:15Z</time>
      </trkpt>
      <trkpt lat="43.49277" lon="6.62792">
        <ele>30.7</ele>
        <time>2023-11-05T11:45:16Z</time>
      </trkpt>
      <trkpt lat="43.49277" lon="6.62792">
        <ele>30.6</ele>
        <time>2023-11-05T11:45:17Z</time>
      </trkpt>
      <trkpt lat="43.49277" lon="6.62792">
        <ele>30.6</ele>
        <time>2023-11-05T11:45:18Z</time>
      </trkpt>
      <trkpt lat="43.49277" lon="6.62792">
        <ele>30.5</ele>
        <time>2023-11-05T11:45:19Z</time>
      </trkpt>
      <trkpt lat="43.49277" lon="6.62792">
        <ele>30.4</ele>
        <time>2023-11-05T11:45:20Z</time>
      </trkpt>
      <trkpt lat="43.49277" lon="6.62792">
        <ele>30.5</ele>
        <time>2023-11-05T11:45:21Z</time>
      </trkpt>
      <trkpt lat="43.49277" lon="6.62792">
        <ele>30.5</ele>
        <time>2023-11-05T11:45:22Z</time>
      </trkpt>
      <trkpt lat="43.49277" lon="6.62792">
        <ele>30.5</ele>
        <time>2023-11-05T11:45:23Z</time>
      </trkpt>
      <trkpt lat="43.49277" lon="6.62792">
        <ele>30.5</ele>
        <time>2023-11-05T11:45:24Z</time>
      </trkpt>
      <trkpt lat="43.49277" lon="6.62793">
        <ele>30.5</ele>
        <time>2023-11-05T11:45:25Z</time>
      </trkpt>
      <trkpt lat="43.49277" lon="6.62793">
        <ele>30.5</ele>
        <time>2023-11-05T11:45:26Z</time>
      </trkpt>
      <trkpt lat="43.49277" lon="6.62793">
        <ele>30.6</ele>
        <time>2023-11-05T11:45:27Z</time>
      </trkpt>
      <trkpt lat="43.49277" lon="6.62793">
        <ele>30.7</ele>
        <time>2023-11-05T11:45:28Z</time>
      </trkpt>
      <trkpt lat="43.49277" lon="6.62793">
        <ele>30.7</ele>
        <time>2023-11-05T11:45:29Z</time>
      </trkpt>
      <trkpt lat="43.49277" lon="6.62793">
        <ele>30.8</ele>
        <time>2023-11-05T11:45:30Z</time>
      </trkpt>
      <trkpt lat="43.49277" lon="6.62793">
        <ele>30.8</ele>
        <time>2023-11-05T11:45:31Z</time>
      </trkpt>
      <trkpt lat="43.49277" lon="6.62793">
        <ele>30.8</ele>
        <time>2023-11-05T11:45:32Z</time>
      </trkpt>
      <trkpt lat="43.49277" lon="6.62793">
        <ele>30.8</ele>
        <time>2023-11-05T11:45:33Z</time>
      </trkpt>
      <trkpt lat="43.49277" lon="6.62793">
        <ele>30.8</ele>
        <time>2023-11-05T11:45:34Z</time>
      </trkpt>
      <trkpt lat="43.49277" lon="6.62793">
        <ele>30.9</ele>
        <time>2023-11-05T11:45:35Z</time>
      </trkpt>
      <trkpt lat="43.49277" lon="6.62793">
        <ele>30.9</ele>
        <time>2023-11-05T11:45:36Z</time>
      </trkpt>
      <trkpt lat="43.49277" lon="6.62793">
        <ele>31</ele>
        <time>2023-11-05T11:45:37Z</time>
      </trkpt>
      <trkpt lat="43.49277" lon="6.62793">
        <ele>31.1</ele>
        <time>2023-11-05T11:45:38Z</time>
      </trkpt>
      <trkpt lat="43.49277" lon="6.62793">
        <ele>31.2</ele>
        <time>2023-11-05T11:45:39Z</time>
      </trkpt>
      <trkpt lat="43.49277" lon="6.62793">
        <ele>31.2</ele>
        <time>2023-11-05T11:45:40Z</time>
      </trkpt>
      <trkpt lat="43.49277" lon="6.62793">
        <ele>31.3</ele>
        <time>2023-11-05T11:45:41Z</time>
      </trkpt>
      <trkpt lat="43.49277" lon="6.62793">
        <ele>31.3</ele>
        <time>2023-11-05T11:45:42Z</time>
      </trkpt>
      <trkpt lat="43.49277" lon="6.62793">
        <ele>31.4</ele>
        <time>2023-11-05T11:45:43Z</time>
      </trkpt>
      <trkpt lat="43.49277" lon="6.62793">
        <ele>31.3</ele>
        <time>2023-11-05T11:45:44Z</time>
      </trkpt>
      <trkpt lat="43.49277" lon="6.62793">
        <ele>31.3</ele>
        <time>2023-11-05T11:45:45Z</time>
      </trkpt>
      <trkpt lat="43.49277" lon="6.62793">
        <ele>31.2</ele>
        <time>2023-11-05T11:45:46Z</time>
      </trkpt>
      <trkpt lat="43.49277" lon="6.62793">
        <ele>31.2</ele>
        <time>2023-11-05T11:45:47Z</time>
      </trkpt>
      <trkpt lat="43.49277" lon="6.62793">
        <ele>31.1</ele>
        <time>2023-11-05T11:45:48Z</time>
      </trkpt>
      <trkpt lat="43.49277" lon="6.62793">
        <ele>31.1</ele>
        <time>2023-11-05T11:45:49Z</time>
      </trkpt>
      <trkpt lat="43.49277" lon="6.62793">
        <ele>31.1</ele>
        <time>2023-11-05T11:45:50Z</time>
      </trkpt>
      <trkpt lat="43.49277" lon="6.62793">
        <ele>31</ele>
        <time>2023-11-05T11:45:51Z</time>
      </trkpt>
      <trkpt lat="43.49277" lon="6.62793">
        <ele>31</ele>
        <time>2023-11-05T11:45:52Z</time>
      </trkpt>
      <trkpt lat="43.49277" lon="6.62793">
        <ele>30.9</ele>
        <time>2023-11-05T11:45:53Z</time>
      </trkpt>
      <trkpt lat="43.49277" lon="6.62793">
        <ele>31</ele>
        <time>2023-11-05T11:45:54Z</time>
      </trkpt>
      <trkpt lat="43.49277" lon="6.62793">
        <ele>31</ele>
        <time>2023-11-05T11:45:55Z</time>
      </trkpt>
      <trkpt lat="43.49277" lon="6.62793">
        <ele>30.8</ele>
        <time>2023-11-05T11:45:56Z</time>
      </trkpt>
      <trkpt lat="43.49277" lon="6.62794">
        <ele>30.8</ele>
        <time>2023-11-05T11:45:57Z</time>
      </trkpt>
      <trkpt lat="43.49277" lon="6.62794">
        <ele>30.8</ele>
        <time>2023-11-05T11:45:58Z</time>
      </trkpt>
      <trkpt lat="43.49277" lon="6.62794">
        <ele>30.9</ele>
        <time>2023-11-05T11:45:59Z</time>
      </trkpt>
      <trkpt lat="43.49277" lon="6.62794">
        <ele>30.9</ele>
        <time>2023-11-05T11:46:00Z</time>
      </trkpt>
      <trkpt lat="43.49277" lon="6.62794">
        <ele>30.9</ele>
        <time>2023-11-05T11:46:01Z</time>
      </trkpt>
      <trkpt lat="43.49277" lon="6.62794">
        <ele>30.9</ele>
        <time>2023-11-05T11:46:02Z</time>
      </trkpt>
      <trkpt lat="43.49277" lon="6.62794">
        <ele>30.9</ele>
        <time>2023-11-05T11:46:03Z</time>
      </trkpt>
      <trkpt lat="43.49277" lon="6.62794">
        <ele>30.9</ele>
        <time>2023-11-05T11:46:04Z</time>
      </trkpt>
      <trkpt lat="43.49277" lon="6.62794">
        <ele>30.9</ele>
        <time>2023-11-05T11:46:05Z</time>
      </trkpt>
      <trkpt lat="43.49277" lon="6.62794">
        <ele>30.9</ele>
        <time>2023-11-05T11:46:06Z</time>
      </trkpt>
      <trkpt lat="43.49277" lon="6.62794">
        <ele>30.9</ele>
        <time>2023-11-05T11:46:07Z</time>
      </trkpt>
      <trkpt lat="43.49277" lon="6.62794">
        <ele>31</ele>
        <time>2023-11-05T11:46:08Z</time>
      </trkpt>
      <trkpt lat="43.49277" lon="6.62794">
        <ele>31</ele>
        <time>2023-11-05T11:46:09Z</time>
      </trkpt>
      <trkpt lat="43.49277" lon="6.62794">
        <ele>31.1</ele>
        <time>2023-11-05T11:46:10Z</time>
      </trkpt>
      <trkpt lat="43.49277" lon="6.62795">
        <ele>31.2</ele>
        <time>2023-11-05T11:46:11Z</time>
      </trkpt>
      <trkpt lat="43.49277" lon="6.62795">
        <ele>31.2</ele>
        <time>2023-11-05T11:46:12Z</time>
      </trkpt>
      <trkpt lat="43.49277" lon="6.62795">
        <ele>31.1</ele>
        <time>2023-11-05T11:46:13Z</time>
      </trkpt>
      <trkpt lat="43.49278" lon="6.62795">
        <ele>31.1</ele>
        <time>2023-11-05T11:46:14Z</time>
      </trkpt>
      <trkpt lat="43.49278" lon="6.62795">
        <ele>31.1</ele>
        <time>2023-11-05T11:46:15Z</time>
      </trkpt>
      <trkpt lat="43.49278" lon="6.62795">
        <ele>31.1</ele>
        <time>2023-11-05T11:46:16Z</time>
      </trkpt>
      <trkpt lat="43.49278" lon="6.62795">
        <ele>31</ele>
        <time>2023-11-05T11:46:17Z</time>
      </trkpt>
      <trkpt lat="43.49278" lon="6.62795">
        <ele>31</ele>
        <time>2023-11-05T11:46:18Z</time>
      </trkpt>
      <trkpt lat="43.49277" lon="6.62794">
        <ele>30.9</ele>
        <time>2023-11-05T11:46:19Z</time>
      </trkpt>
      <trkpt lat="43.49277" lon="6.62794">
        <ele>31</ele>
        <time>2023-11-05T11:46:20Z</time>
      </trkpt>
      <trkpt lat="43.49277" lon="6.62794">
        <ele>31.1</ele>
        <time>2023-11-05T11:46:21Z</time>
      </trkpt>
      <trkpt lat="43.49277" lon="6.62794">
        <ele>31.2</ele>
        <time>2023-11-05T11:46:22Z</time>
      </trkpt>
      <trkpt lat="43.49277" lon="6.62794">
        <ele>31.1</ele>
        <time>2023-11-05T11:46:23Z</time>
      </trkpt>
      <trkpt lat="43.49277" lon="6.62794">
        <ele>31.1</ele>
        <time>2023-11-05T11:46:24Z</time>
      </trkpt>
      <trkpt lat="43.49277" lon="6.62794">
        <ele>31.1</ele>
        <time>2023-11-05T11:46:25Z</time>
      </trkpt>
      <trkpt lat="43.49277" lon="6.62794">
        <ele>31.1</ele>
        <time>2023-11-05T11:46:26Z</time>
      </trkpt>
      <trkpt lat="43.49277" lon="6.62794">
        <ele>31.1</ele>
        <time>2023-11-05T11:46:27Z</time>
      </trkpt>
      <trkpt lat="43.49277" lon="6.62794">
        <ele>31.2</ele>
        <time>2023-11-05T11:46:28Z</time>
      </trkpt>
      <trkpt lat="43.49277" lon="6.62794">
        <ele>31.2</ele>
        <time>2023-11-05T11:46:29Z</time>
      </trkpt>
      <trkpt lat="43.49277" lon="6.62794">
        <ele>31.2</ele>
        <time>2023-11-05T11:46:30Z</time>
      </trkpt>
      <trkpt lat="43.49276" lon="6.62794">
        <ele>31.1</ele>
        <time>2023-11-05T11:46:31Z</time>
      </trkpt>
      <trkpt lat="43.49276" lon="6.62794">
        <ele>31</ele>
        <time>2023-11-05T11:46:32Z</time>
      </trkpt>
      <trkpt lat="43.49276" lon="6.62794">
        <ele>30.9</ele>
        <time>2023-11-05T11:46:33Z</time>
      </trkpt>
      <trkpt lat="43.49276" lon="6.62794">
        <ele>30.9</ele>
        <time>2023-11-05T11:46:34Z</time>
      </trkpt>
      <trkpt lat="43.49276" lon="6.62794">
        <ele>30.8</ele>
        <time>2023-11-05T11:46:35Z</time>
      </trkpt>
      <trkpt lat="43.49276" lon="6.62794">
        <ele>30.7</ele>
        <time>2023-11-05T11:46:36Z</time>
      </trkpt>
      <trkpt lat="43.49276" lon="6.62794">
        <ele>30.7</ele>
        <time>2023-11-05T11:46:37Z</time>
      </trkpt>
      <trkpt lat="43.49276" lon="6.62794">
        <ele>30.6</ele>
        <time>2023-11-05T11:46:38Z</time>
      </trkpt>
      <trkpt lat="43.49276" lon="6.62794">
        <ele>30.6</ele>
        <time>2023-11-05T11:46:39Z</time>
      </trkpt>
      <trkpt lat="43.49276" lon="6.62794">
        <ele>30.6</ele>
        <time>2023-11-05T11:46:40Z</time>
      </trkpt>
      <trkpt lat="43.49276" lon="6.62794">
        <ele>30.7</ele>
        <time>2023-11-05T11:46:41Z</time>
      </trkpt>
      <trkpt lat="43.49276" lon="6.62794">
        <ele>30.7</ele>
        <time>2023-11-05T11:46:42Z</time>
      </trkpt>
      <trkpt lat="43.49276" lon="6.62794">
        <ele>30.7</ele>
        <time>2023-11-05T11:46:43Z</time>
      </trkpt>
      <trkpt lat="43.49276" lon="6.62794">
        <ele>30.7</ele>
        <time>2023-11-05T11:46:44Z</time>
      </trkpt>
      <trkpt lat="43.49276" lon="6.62794">
        <ele>30.8</ele>
        <time>2023-11-05T11:46:45Z</time>
      </trkpt>
      <trkpt lat="43.49276" lon="6.62794">
        <ele>30.9</ele>
        <time>2023-11-05T11:46:46Z</time>
      </trkpt>
      <trkpt lat="43.49276" lon="6.62794">
        <ele>30.9</ele>
        <time>2023-11-05T11:46:47Z</time>
      </trkpt>
      <trkpt lat="43.49276" lon="6.62794">
        <ele>30.9</ele>
        <time>2023-11-05T11:46:48Z</time>
      </trkpt>
      <trkpt lat="43.49276" lon="6.62794">
        <ele>30.9</ele>
        <time>2023-11-05T11:46:49Z</time>
      </trkpt>
      <trkpt lat="43.49276" lon="6.62794">
        <ele>30.8</ele>
        <time>2023-11-05T11:46:50Z</time>
      </trkpt>
      <trkpt lat="43.49276" lon="6.62794">
        <ele>30.8</ele>
        <time>2023-11-05T11:46:51Z</time>
      </trkpt>
      <trkpt lat="43.49276" lon="6.62794">
        <ele>30.7</ele>
        <time>2023-11-05T11:46:52Z</time>
      </trkpt>
      <trkpt lat="43.49276" lon="6.62794">
        <ele>30.7</ele>
        <time>2023-11-05T11:46:53Z</time>
      </trkpt>
      <trkpt lat="43.49276" lon="6.62794">
        <ele>30.7</ele>
        <time>2023-11-05T11:46:54Z</time>
      </trkpt>
      <trkpt lat="43.49276" lon="6.62794">
        <ele>30.7</ele>
        <time>2023-11-05T11:46:55Z</time>
      </trkpt>
      <trkpt lat="43.49276" lon="6.62794">
        <ele>30.9</ele>
        <time>2023-11-05T11:46:56Z</time>
      </trkpt>
      <trkpt lat="43.49276" lon="6.62794">
        <ele>31.1</ele>
        <time>2023-11-05T11:46:57Z</time>
      </trkpt>
      <trkpt lat="43.49276" lon="6.62794">
        <ele>31.4</ele>
        <time>2023-11-05T11:46:58Z</time>
      </trkpt>
      <trkpt lat="43.49276" lon="6.62794">
        <ele>31.6</ele>
        <time>2023-11-05T11:46:59Z</time>
      </trkpt>
      <trkpt lat="43.49276" lon="6.62794">
        <ele>31.8</ele>
        <time>2023-11-05T11:47:00Z</time>
      </trkpt>
      <trkpt lat="43.49276" lon="6.62794">
        <ele>31.8</ele>
        <time>2023-11-05T11:47:01Z</time>
      </trkpt>
      <trkpt lat="43.49276" lon="6.62794">
        <ele>31.9</ele>
        <time>2023-11-05T11:47:02Z</time>
      </trkpt>
      <trkpt lat="43.49276" lon="6.62794">
        <ele>31.9</ele>
        <time>2023-11-05T11:47:03Z</time>
      </trkpt>
      <trkpt lat="43.49276" lon="6.62794">
        <ele>32</ele>
        <time>2023-11-05T11:47:04Z</time>
      </trkpt>
      <trkpt lat="43.49276" lon="6.62794">
        <ele>32</ele>
        <time>2023-11-05T11:47:05Z</time>
      </trkpt>
      <trkpt lat="43.49276" lon="6.62794">
        <ele>32</ele>
        <time>2023-11-05T11:47:06Z</time>
      </trkpt>
      <trkpt lat="43.49276" lon="6.62794">
        <ele>32</ele>
        <time>2023-11-05T11:47:07Z</time>
      </trkpt>
      <trkpt lat="43.49276" lon="6.62794">
        <ele>31.9</ele>
        <time>2023-11-05T11:47:08Z</time>
      </trkpt>
      <trkpt lat="43.49276" lon="6.62794">
        <ele>31.9</ele>
        <time>2023-11-05T11:47:09Z</time>
      </trkpt>
      <trkpt lat="43.49276" lon="6.62793">
        <ele>32</ele>
        <time>2023-11-05T11:47:10Z</time>
      </trkpt>
      <trkpt lat="43.49276" lon="6.62793">
        <ele>32.1</ele>
        <time>2023-11-05T11:47:11Z</time>
      </trkpt>
      <trkpt lat="43.49276" lon="6.62793">
        <ele>32.2</ele>
        <time>2023-11-05T11:47:12Z</time>
      </trkpt>
      <trkpt lat="43.49276" lon="6.62793">
        <ele>32.2</ele>
        <time>2023-11-05T11:47:13Z</time>
      </trkpt>
      <trkpt lat="43.49277" lon="6.62793">
        <ele>32.2</ele>
        <time>2023-11-05T11:47:14Z</time>
      </trkpt>
      <trkpt lat="43.49276" lon="6.62793">
        <ele>32.2</ele>
        <time>2023-11-05T11:47:15Z</time>
      </trkpt>
      <trkpt lat="43.49277" lon="6.62793">
        <ele>32.2</ele>
        <time>2023-11-05T11:47:16Z</time>
      </trkpt>
      <trkpt lat="43.49277" lon="6.62793">
        <ele>32.1</ele>
        <time>2023-11-05T11:47:17Z</time>
      </trkpt>
      <trkpt lat="43.49277" lon="6.62793">
        <ele>32</ele>
        <time>2023-11-05T11:47:18Z</time>
      </trkpt>
      <trkpt lat="43.49277" lon="6.62793">
        <ele>32</ele>
        <time>2023-11-05T11:47:19Z</time>
      </trkpt>
      <trkpt lat="43.49277" lon="6.62793">
        <ele>31.9</ele>
        <time>2023-11-05T11:47:20Z</time>
      </trkpt>
      <trkpt lat="43.49277" lon="6.62793">
        <ele>31.8</ele>
        <time>2023-11-05T11:47:21Z</time>
      </trkpt>
      <trkpt lat="43.49277" lon="6.62793">
        <ele>31.7</ele>
        <time>2023-11-05T11:47:22Z</time>
      </trkpt>
      <trkpt lat="43.49277" lon="6.62793">
        <ele>31.5</ele>
        <time>2023-11-05T11:47:23Z</time>
      </trkpt>
      <trkpt lat="43.49277" lon="6.62793">
        <ele>31.4</ele>
        <time>2023-11-05T11:47:24Z</time>
      </trkpt>
      <trkpt lat="43.49277" lon="6.62793">
        <ele>31.3</ele>
        <time>2023-11-05T11:47:25Z</time>
      </trkpt>
      <trkpt lat="43.49277" lon="6.62793">
        <ele>31.3</ele>
        <time>2023-11-05T11:47:26Z</time>
      </trkpt>
      <trkpt lat="43.49277" lon="6.62793">
        <ele>31.3</ele>
        <time>2023-11-05T11:47:27Z</time>
      </trkpt>
      <trkpt lat="43.49277" lon="6.62793">
        <ele>31.3</ele>
        <time>2023-11-05T11:47:28Z</time>
      </trkpt>
      <trkpt lat="43.49277" lon="6.62793">
        <ele>31.3</ele>
        <time>2023-11-05T11:47:29Z</time>
      </trkpt>
      <trkpt lat="43.49277" lon="6.62793">
        <ele>31.3</ele>
        <time>2023-11-05T11:47:30Z</time>
      </trkpt>
      <trkpt lat="43.49277" lon="6.62793">
        <ele>31.3</ele>
        <time>2023-11-05T11:47:31Z</time>
      </trkpt>
      <trkpt lat="43.49277" lon="6.62793">
        <ele>31.3</ele>
        <time>2023-11-05T11:47:32Z</time>
      </trkpt>
      <trkpt lat="43.49277" lon="6.62793">
        <ele>31.3</ele>
        <time>2023-11-05T11:47:33Z</time>
      </trkpt>
      <trkpt lat="43.49277" lon="6.62793">
        <ele>31.3</ele>
        <time>2023-11-05T11:47:34Z</time>
      </trkpt>
      <trkpt lat="43.49277" lon="6.62792">
        <ele>31.3</ele>
        <time>2023-11-05T11:47:35Z</time>
      </trkpt>
      <trkpt lat="43.49277" lon="6.62792">
        <ele>31.3</ele>
        <time>2023-11-05T11:47:36Z</time>
      </trkpt>
      <trkpt lat="43.49277" lon="6.62792">
        <ele>31.2</ele>
        <time>2023-11-05T11:47:37Z</time>
      </trkpt>
      <trkpt lat="43.49277" lon="6.62792">
        <ele>31.2</ele>
        <time>2023-11-05T11:47:38Z</time>
      </trkpt>
      <trkpt lat="43.49277" lon="6.62792">
        <ele>31.1</ele>
        <time>2023-11-05T11:47:39Z</time>
      </trkpt>
      <trkpt lat="43.49277" lon="6.62792">
        <ele>31.1</ele>
        <time>2023-11-05T11:47:40Z</time>
      </trkpt>
      <trkpt lat="43.49277" lon="6.62792">
        <ele>31</ele>
        <time>2023-11-05T11:47:41Z</time>
      </trkpt>
      <trkpt lat="43.49277" lon="6.62792">
        <ele>31</ele>
        <time>2023-11-05T11:47:42Z</time>
      </trkpt>
      <trkpt lat="43.49277" lon="6.62792">
        <ele>30.9</ele>
        <time>2023-11-05T11:47:43Z</time>
      </trkpt>
      <trkpt lat="43.49277" lon="6.62792">
        <ele>30.9</ele>
        <time>2023-11-05T11:47:44Z</time>
      </trkpt>
      <trkpt lat="43.49277" lon="6.62792">
        <ele>30.8</ele>
        <time>2023-11-05T11:47:45Z</time>
      </trkpt>
      <trkpt lat="43.49277" lon="6.62792">
        <ele>30.8</ele>
        <time>2023-11-05T11:47:46Z</time>
      </trkpt>
      <trkpt lat="43.49277" lon="6.62792">
        <ele>30.7</ele>
        <time>2023-11-05T11:47:47Z</time>
      </trkpt>
      <trkpt lat="43.49277" lon="6.62792">
        <ele>30.7</ele>
        <time>2023-11-05T11:47:48Z</time>
      </trkpt>
      <trkpt lat="43.49277" lon="6.62793">
        <ele>30.7</ele>
        <time>2023-11-05T11:47:49Z</time>
      </trkpt>
      <trkpt lat="43.49277" lon="6.62793">
        <ele>30.8</ele>
        <time>2023-11-05T11:47:50Z</time>
      </trkpt>
      <trkpt lat="43.49277" lon="6.62793">
        <ele>30.9</ele>
        <time>2023-11-05T11:47:51Z</time>
      </trkpt>
      <trkpt lat="43.49277" lon="6.62793">
        <ele>30.9</ele>
        <time>2023-11-05T11:47:52Z</time>
      </trkpt>
      <trkpt lat="43.49277" lon="6.62793">
        <ele>30.9</ele>
        <time>2023-11-05T11:47:53Z</time>
      </trkpt>
      <trkpt lat="43.49277" lon="6.62793">
        <ele>30.9</ele>
        <time>2023-11-05T11:47:54Z</time>
      </trkpt>
      <trkpt lat="43.49277" lon="6.62793">
        <ele>30.9</ele>
        <time>2023-11-05T11:47:55Z</time>
      </trkpt>
      <trkpt lat="43.49277" lon="6.62793">
        <ele>30.8</ele>
        <time>2023-11-05T11:47:56Z</time>
      </trkpt>
      <trkpt lat="43.49277" lon="6.62793">
        <ele>30.8</ele>
        <time>2023-11-05T11:47:57Z</time>
      </trkpt>
      <trkpt lat="43.49277" lon="6.62793">
        <ele>30.8</ele>
        <time>2023-11-05T11:47:58Z</time>
      </trkpt>
      <trkpt lat="43.49277" lon="6.62793">
        <ele>30.8</ele>
        <time>2023-11-05T11:47:59Z</time>
      </trkpt>
      <trkpt lat="43.49277" lon="6.62793">
        <ele>30.7</ele>
        <time>2023-11-05T11:48:00Z</time>
      </trkpt>
      <trkpt lat="43.49277" lon="6.62793">
        <ele>30.7</ele>
        <time>2023-11-05T11:48:01Z</time>
      </trkpt>
      <trkpt lat="43.49277" lon="6.62793">
        <ele>30.7</ele>
        <time>2023-11-05T11:48:02Z</time>
      </trkpt>
      <trkpt lat="43.49277" lon="6.62793">
        <ele>30.7</ele>
        <time>2023-11-05T11:48:03Z</time>
      </trkpt>
      <trkpt lat="43.49277" lon="6.62793">
        <ele>30.7</ele>
        <time>2023-11-05T11:48:04Z</time>
      </trkpt>
      <trkpt lat="43.49277" lon="6.62793">
        <ele>30.7</ele>
        <time>2023-11-05T11:48:05Z</time>
      </trkpt>
      <trkpt lat="43.49277" lon="6.62793">
        <ele>30.7</ele>
        <time>2023-11-05T11:48:06Z</time>
      </trkpt>
      <trkpt lat="43.49277" lon="6.62793">
        <ele>30.7</ele>
        <time>2023-11-05T11:48:07Z</time>
      </trkpt>
      <trkpt lat="43.49277" lon="6.62793">
        <ele>30.6</ele>
        <time>2023-11-05T11:48:08Z</time>
      </trkpt>
      <trkpt lat="43.49277" lon="6.62793">
        <ele>30.6</ele>
        <time>2023-11-05T11:48:09Z</time>
      </trkpt>
      <trkpt lat="43.49277" lon="6.62793">
        <ele>30.6</ele>
        <time>2023-11-05T11:48:10Z</time>
      </trkpt>
      <trkpt lat="43.49277" lon="6.62793">
        <ele>30.5</ele>
        <time>2023-11-05T11:48:11Z</time>
      </trkpt>
      <trkpt lat="43.49277" lon="6.62793">
        <ele>30.4</ele>
        <time>2023-11-05T11:48:12Z</time>
      </trkpt>
      <trkpt lat="43.49277" lon="6.62793">
        <ele>30.4</ele>
        <time>2023-11-05T11:48:13Z</time>
      </trkpt>
      <trkpt lat="43.49277" lon="6.62793">
        <ele>30.5</ele>
        <time>2023-11-05T11:48:14Z</time>
      </trkpt>
      <trkpt lat="43.49277" lon="6.62793">
        <ele>30.5</ele>
        <time>2023-11-05T11:48:15Z</time>
      </trkpt>
      <trkpt lat="43.49277" lon="6.62793">
        <ele>30.5</ele>
        <time>2023-11-05T11:48:16Z</time>
      </trkpt>
      <trkpt lat="43.49277" lon="6.62793">
        <ele>30.5</ele>
        <time>2023-11-05T11:48:17Z</time>
      </trkpt>
      <trkpt lat="43.49277" lon="6.62793">
        <ele>30.6</ele>
        <time>2023-11-05T11:48:18Z</time>
      </trkpt>
      <trkpt lat="43.49277" lon="6.62793">
        <ele>30.7</ele>
        <time>2023-11-05T11:48:19Z</time>
      </trkpt>
      <trkpt lat="43.49277" lon="6.62793">
        <ele>30.7</ele>
        <time>2023-11-05T11:48:20Z</time>
      </trkpt>
      <trkpt lat="43.49277" lon="6.62793">
        <ele>30.7</ele>
        <time>2023-11-05T11:48:21Z</time>
      </trkpt>
      <trkpt lat="43.49277" lon="6.62793">
        <ele>30.8</ele>
        <time>2023-11-05T11:48:22Z</time>
      </trkpt>
      <trkpt lat="43.49277" lon="6.62793">
        <ele>30.8</ele>
        <time>2023-11-05T11:48:23Z</time>
      </trkpt>
      <trkpt lat="43.49277" lon="6.62793">
        <ele>30.8</ele>
        <time>2023-11-05T11:48:24Z</time>
      </trkpt>
      <trkpt lat="43.49277" lon="6.62793">
        <ele>30.7</ele>
        <time>2023-11-05T11:48:25Z</time>
      </trkpt>
      <trkpt lat="43.49277" lon="6.62793">
        <ele>30.6</ele>
        <time>2023-11-05T11:48:26Z</time>
      </trkpt>
      <trkpt lat="43.49277" lon="6.62793">
        <ele>30.5</ele>
        <time>2023-11-05T11:48:27Z</time>
      </trkpt>
      <trkpt lat="43.49277" lon="6.62793">
        <ele>30.5</ele>
        <time>2023-11-05T11:48:28Z</time>
      </trkpt>
      <trkpt lat="43.49277" lon="6.62793">
        <ele>30.5</ele>
        <time>2023-11-05T11:48:29Z</time>
      </trkpt>
      <trkpt lat="43.49277" lon="6.62793">
        <ele>30.5</ele>
        <time>2023-11-05T11:48:30Z</time>
      </trkpt>
      <trkpt lat="43.49277" lon="6.62793">
        <ele>30.6</ele>
        <time>2023-11-05T11:48:31Z</time>
      </trkpt>
      <trkpt lat="43.49277" lon="6.62793">
        <ele>30.7</ele>
        <time>2023-11-05T11:48:32Z</time>
      </trkpt>
      <trkpt lat="43.49277" lon="6.62793">
        <ele>30.7</ele>
        <time>2023-11-05T11:48:33Z</time>
      </trkpt>
      <trkpt lat="43.49277" lon="6.62793">
        <ele>30.7</ele>
        <time>2023-11-05T11:48:34Z</time>
      </trkpt>
      <trkpt lat="43.49277" lon="6.62793">
        <ele>30.7</ele>
        <time>2023-11-05T11:48:35Z</time>
      </trkpt>
      <trkpt lat="43.49277" lon="6.62793">
        <ele>30.7</ele>
        <time>2023-11-05T11:48:36Z</time>
      </trkpt>
      <trkpt lat="43.49277" lon="6.62793">
        <ele>30.7</ele>
        <time>2023-11-05T11:48:37Z</time>
      </trkpt>
      <trkpt lat="43.49277" lon="6.62793">
        <ele>30.6</ele>
        <time>2023-11-05T11:48:38Z</time>
      </trkpt>
      <trkpt lat="43.49277" lon="6.62793">
        <ele>30.6</ele>
        <time>2023-11-05T11:48:39Z</time>
      </trkpt>
      <trkpt lat="43.49277" lon="6.62793">
        <ele>30.6</ele>
        <time>2023-11-05T11:48:40Z</time>
      </trkpt>
      <trkpt lat="43.49277" lon="6.62794">
        <ele>30.7</ele>
        <time>2023-11-05T11:48:41Z</time>
      </trkpt>
      <trkpt lat="43.49277" lon="6.62794">
        <ele>30.8</ele>
        <time>2023-11-05T11:48:42Z</time>
      </trkpt>
      <trkpt lat="43.49277" lon="6.62794">
        <ele>30.9</ele>
        <time>2023-11-05T11:48:43Z</time>
      </trkpt>
      <trkpt lat="43.49277" lon="6.62794">
        <ele>30.9</ele>
        <time>2023-11-05T11:48:44Z</time>
      </trkpt>
      <trkpt lat="43.49277" lon="6.62794">
        <ele>31.1</ele>
        <time>2023-11-05T11:48:45Z</time>
      </trkpt>
      <trkpt lat="43.49277" lon="6.62794">
        <ele>31.2</ele>
        <time>2023-11-05T11:48:46Z</time>
      </trkpt>
      <trkpt lat="43.49277" lon="6.62794">
        <ele>31.3</ele>
        <time>2023-11-05T11:48:47Z</time>
      </trkpt>
      <trkpt lat="43.49277" lon="6.62794">
        <ele>31.3</ele>
        <time>2023-11-05T11:48:48Z</time>
      </trkpt>
      <trkpt lat="43.49277" lon="6.62794">
        <ele>31.2</ele>
        <time>2023-11-05T11:48:49Z</time>
      </trkpt>
      <trkpt lat="43.49277" lon="6.62794">
        <ele>31.1</ele>
        <time>2023-11-05T11:48:50Z</time>
      </trkpt>
      <trkpt lat="43.49277" lon="6.62794">
        <ele>31.1</ele>
        <time>2023-11-05T11:48:51Z</time>
      </trkpt>
      <trkpt lat="43.49277" lon="6.62794">
        <ele>31.1</ele>
        <time>2023-11-05T11:48:52Z</time>
      </trkpt>
      <trkpt lat="43.49277" lon="6.62794">
        <ele>30.9</ele>
        <time>2023-11-05T11:48:53Z</time>
      </trkpt>
      <trkpt lat="43.49277" lon="6.62794">
        <ele>30.8</ele>
        <time>2023-11-05T11:48:54Z</time>
      </trkpt>
      <trkpt lat="43.49277" lon="6.62794">
        <ele>30.7</ele>
        <time>2023-11-05T11:48:55Z</time>
      </trkpt>
      <trkpt lat="43.49277" lon="6.62794">
        <ele>30.6</ele>
        <time>2023-11-05T11:48:56Z</time>
      </trkpt>
      <trkpt lat="43.49277" lon="6.62794">
        <ele>30.5</ele>
        <time>2023-11-05T11:48:57Z</time>
      </trkpt>
      <trkpt lat="43.49277" lon="6.62794">
        <ele>30.5</ele>
        <time>2023-11-05T11:48:58Z</time>
      </trkpt>
      <trkpt lat="43.49277" lon="6.62794">
        <ele>30.5</ele>
        <time>2023-11-05T11:48:59Z</time>
      </trkpt>
      <trkpt lat="43.49277" lon="6.62794">
        <ele>30.5</ele>
        <time>2023-11-05T11:49:00Z</time>
      </trkpt>
      <trkpt lat="43.49277" lon="6.62794">
        <ele>30.5</ele>
        <time>2023-11-05T11:49:01Z</time>
      </trkpt>
      <trkpt lat="43.49277" lon="6.62794">
        <ele>30.5</ele>
        <time>2023-11-05T11:49:02Z</time>
      </trkpt>
      <trkpt lat="43.49277" lon="6.62794">
        <ele>30.5</ele>
        <time>2023-11-05T11:49:03Z</time>
      </trkpt>
      <trkpt lat="43.49277" lon="6.62794">
        <ele>30.5</ele>
        <time>2023-11-05T11:49:04Z</time>
      </trkpt>
      <trkpt lat="43.49277" lon="6.62794">
        <ele>30.5</ele>
        <time>2023-11-05T11:49:05Z</time>
      </trkpt>
      <trkpt lat="43.49277" lon="6.62794">
        <ele>30.5</ele>
        <time>2023-11-05T11:49:06Z</time>
      </trkpt>
      <trkpt lat="43.49277" lon="6.62794">
        <ele>30.5</ele>
        <time>2023-11-05T11:49:07Z</time>
      </trkpt>
      <trkpt lat="43.49277" lon="6.62794">
        <ele>30.5</ele>
        <time>2023-11-05T11:49:08Z</time>
      </trkpt>
      <trkpt lat="43.49278" lon="6.62794">
        <ele>30.5</ele>
        <time>2023-11-05T11:49:09Z</time>
      </trkpt>
      <trkpt lat="43.49278" lon="6.62794">
        <ele>30.5</ele>
        <time>2023-11-05T11:49:10Z</time>
      </trkpt>
      <trkpt lat="43.49278" lon="6.62794">
        <ele>30.5</ele>
        <time>2023-11-05T11:49:11Z</time>
      </trkpt>
      <trkpt lat="43.49278" lon="6.62794">
        <ele>30.5</ele>
        <time>2023-11-05T11:49:12Z</time>
      </trkpt>
      <trkpt lat="43.49278" lon="6.62794">
        <ele>30.4</ele>
        <time>2023-11-05T11:49:13Z</time>
      </trkpt>
      <trkpt lat="43.49278" lon="6.62794">
        <ele>30.4</ele>
        <time>2023-11-05T11:49:14Z</time>
      </trkpt>
      <trkpt lat="43.49278" lon="6.62794">
        <ele>30.4</ele>
        <time>2023-11-05T11:49:15Z</time>
      </trkpt>
      <trkpt lat="43.49278" lon="6.62794">
        <ele>30.4</ele>
        <time>2023-11-05T11:49:16Z</time>
      </trkpt>
      <trkpt lat="43.49278" lon="6.62794">
        <ele>30.4</ele>
        <time>2023-11-05T11:49:17Z</time>
      </trkpt>
      <trkpt lat="43.49278" lon="6.62794">
        <ele>30.5</ele>
        <time>2023-11-05T11:49:18Z</time>
      </trkpt>
      <trkpt lat="43.49278" lon="6.62794">
        <ele>30.5</ele>
        <time>2023-11-05T11:49:19Z</time>
      </trkpt>
      <trkpt lat="43.49278" lon="6.62794">
        <ele>30.5</ele>
        <time>2023-11-05T11:49:20Z</time>
      </trkpt>
      <trkpt lat="43.49277" lon="6.62794">
        <ele>30.5</ele>
        <time>2023-11-05T11:49:21Z</time>
      </trkpt>
      <trkpt lat="43.49277" lon="6.62794">
        <ele>30.6</ele>
        <time>2023-11-05T11:49:22Z</time>
      </trkpt>
      <trkpt lat="43.49277" lon="6.62794">
        <ele>30.6</ele>
        <time>2023-11-05T11:49:23Z</time>
      </trkpt>
      <trkpt lat="43.49277" lon="6.62794">
        <ele>30.6</ele>
        <time>2023-11-05T11:49:24Z</time>
      </trkpt>
      <trkpt lat="43.49278" lon="6.62795">
        <ele>30.6</ele>
        <time>2023-11-05T11:49:25Z</time>
      </trkpt>
      <trkpt lat="43.49278" lon="6.62795">
        <ele>30.6</ele>
        <time>2023-11-05T11:49:26Z</time>
      </trkpt>
      <trkpt lat="43.49278" lon="6.62795">
        <ele>30.6</ele>
        <time>2023-11-05T11:49:27Z</time>
      </trkpt>
      <trkpt lat="43.49278" lon="6.62795">
        <ele>30.6</ele>
        <time>2023-11-05T11:49:28Z</time>
      </trkpt>
      <trkpt lat="43.49278" lon="6.62795">
        <ele>30.6</ele>
        <time>2023-11-05T11:49:29Z</time>
      </trkpt>
      <trkpt lat="43.49278" lon="6.62795">
        <ele>30.6</ele>
        <time>2023-11-05T11:49:30Z</time>
      </trkpt>
      <trkpt lat="43.49278" lon="6.62795">
        <ele>30.6</ele>
        <time>2023-11-05T11:49:31Z</time>
      </trkpt>
      <trkpt lat="43.49278" lon="6.62795">
        <ele>30.6</ele>
        <time>2023-11-05T11:49:32Z</time>
      </trkpt>
      <trkpt lat="43.49278" lon="6.62795">
        <ele>30.5</ele>
        <time>2023-11-05T11:49:33Z</time>
      </trkpt>
      <trkpt lat="43.49278" lon="6.62795">
        <ele>30.5</ele>
        <time>2023-11-05T11:49:34Z</time>
      </trkpt>
      <trkpt lat="43.49278" lon="6.62795">
        <ele>30.5</ele>
        <time>2023-11-05T11:49:35Z</time>
      </trkpt>
      <trkpt lat="43.49278" lon="6.62795">
        <ele>30.4</ele>
        <time>2023-11-05T11:49:36Z</time>
      </trkpt>
      <trkpt lat="43.49278" lon="6.62795">
        <ele>30.4</ele>
        <time>2023-11-05T11:49:37Z</time>
      </trkpt>
      <trkpt lat="43.49278" lon="6.62795">
        <ele>30.4</ele>
        <time>2023-11-05T11:49:38Z</time>
      </trkpt>
      <trkpt lat="43.49278" lon="6.62795">
        <ele>30.4</ele>
        <time>2023-11-05T11:49:39Z</time>
      </trkpt>
      <trkpt lat="43.49278" lon="6.62795">
        <ele>30.4</ele>
        <time>2023-11-05T11:49:40Z</time>
      </trkpt>
      <trkpt lat="43.49278" lon="6.62795">
        <ele>30.5</ele>
        <time>2023-11-05T11:49:41Z</time>
      </trkpt>
      <trkpt lat="43.49278" lon="6.62795">
        <ele>30.5</ele>
        <time>2023-11-05T11:49:42Z</time>
      </trkpt>
      <trkpt lat="43.49278" lon="6.62795">
        <ele>30.5</ele>
        <time>2023-11-05T11:49:43Z</time>
      </trkpt>
      <trkpt lat="43.49278" lon="6.62795">
        <ele>30.5</ele>
        <time>2023-11-05T11:49:44Z</time>
      </trkpt>
      <trkpt lat="43.49278" lon="6.62795">
        <ele>30.5</ele>
        <time>2023-11-05T11:49:45Z</time>
      </trkpt>
      <trkpt lat="43.49278" lon="6.62795">
        <ele>30.5</ele>
        <time>2023-11-05T11:49:46Z</time>
      </trkpt>
      <trkpt lat="43.49278" lon="6.62795">
        <ele>30.5</ele>
        <time>2023-11-05T11:49:47Z</time>
      </trkpt>
      <trkpt lat="43.49278" lon="6.62795">
        <ele>30.5</ele>
        <time>2023-11-05T11:49:48Z</time>
      </trkpt>
      <trkpt lat="43.49278" lon="6.62795">
        <ele>30.5</ele>
        <time>2023-11-05T11:49:49Z</time>
      </trkpt>
      <trkpt lat="43.49277" lon="6.62795">
        <ele>30.6</ele>
        <time>2023-11-05T11:49:50Z</time>
      </trkpt>
      <trkpt lat="43.49277" lon="6.62795">
        <ele>30.6</ele>
        <time>2023-11-05T11:49:51Z</time>
      </trkpt>
      <trkpt lat="43.49277" lon="6.62795">
        <ele>30.6</ele>
        <time>2023-11-05T11:49:52Z</time>
      </trkpt>
      <trkpt lat="43.49277" lon="6.62795">
        <ele>30.6</ele>
        <time>2023-11-05T11:49:53Z</time>
      </trkpt>
      <trkpt lat="43.49277" lon="6.62794">
        <ele>30.5</ele>
        <time>2023-11-05T11:49:54Z</time>
      </trkpt>
      <trkpt lat="43.49277" lon="6.62794">
        <ele>30.4</ele>
        <time>2023-11-05T11:49:55Z</time>
      </trkpt>
      <trkpt lat="43.49277" lon="6.62794">
        <ele>30.4</ele>
        <time>2023-11-05T11:49:56Z</time>
      </trkpt>
      <trkpt lat="43.49277" lon="6.62794">
        <ele>30.3</ele>
        <time>2023-11-05T11:49:57Z</time>
      </trkpt>
      <trkpt lat="43.49277" lon="6.62794">
        <ele>30.3</ele>
        <time>2023-11-05T11:49:58Z</time>
      </trkpt>
      <trkpt lat="43.49277" lon="6.62794">
        <ele>30.3</ele>
        <time>2023-11-05T11:49:59Z</time>
      </trkpt>
      <trkpt lat="43.49276" lon="6.62794">
        <ele>30.2</ele>
        <time>2023-11-05T11:50:00Z</time>
      </trkpt>
      <trkpt lat="43.49276" lon="6.62794">
        <ele>30.2</ele>
        <time>2023-11-05T11:50:01Z</time>
      </trkpt>
      <trkpt lat="43.49276" lon="6.62794">
        <ele>30.2</ele>
        <time>2023-11-05T11:50:02Z</time>
      </trkpt>
      <trkpt lat="43.49276" lon="6.62794">
        <ele>30.2</ele>
        <time>2023-11-05T11:50:03Z</time>
      </trkpt>
      <trkpt lat="43.49276" lon="6.62794">
        <ele>30.4</ele>
        <time>2023-11-05T11:50:04Z</time>
      </trkpt>
      <trkpt lat="43.49276" lon="6.62794">
        <ele>30.5</ele>
        <time>2023-11-05T11:50:05Z</time>
      </trkpt>
      <trkpt lat="43.49276" lon="6.62794">
        <ele>30.4</ele>
        <time>2023-11-05T11:50:06Z</time>
      </trkpt>
      <trkpt lat="43.49276" lon="6.62794">
        <ele>30.5</ele>
        <time>2023-11-05T11:50:07Z</time>
      </trkpt>
      <trkpt lat="43.49276" lon="6.62794">
        <ele>30.6</ele>
        <time>2023-11-05T11:50:08Z</time>
      </trkpt>
      <trkpt lat="43.49276" lon="6.62794">
        <ele>30.6</ele>
        <time>2023-11-05T11:50:09Z</time>
      </trkpt>
      <trkpt lat="43.49276" lon="6.62794">
        <ele>30.7</ele>
        <time>2023-11-05T11:50:10Z</time>
      </trkpt>
      <trkpt lat="43.49276" lon="6.62794">
        <ele>30.7</ele>
        <time>2023-11-05T11:50:11Z</time>
      </trkpt>
      <trkpt lat="43.49276" lon="6.62794">
        <ele>30.7</ele>
        <time>2023-11-05T11:50:12Z</time>
      </trkpt>
      <trkpt lat="43.49276" lon="6.62794">
        <ele>30.7</ele>
        <time>2023-11-05T11:50:13Z</time>
      </trkpt>
      <trkpt lat="43.49276" lon="6.62794">
        <ele>30.6</ele>
        <time>2023-11-05T11:50:14Z</time>
      </trkpt>
      <trkpt lat="43.49276" lon="6.62794">
        <ele>30.6</ele>
        <time>2023-11-05T11:50:15Z</time>
      </trkpt>
      <trkpt lat="43.49276" lon="6.62794">
        <ele>30.5</ele>
        <time>2023-11-05T11:50:16Z</time>
      </trkpt>
      <trkpt lat="43.49276" lon="6.62794">
        <ele>30.4</ele>
        <time>2023-11-05T11:50:17Z</time>
      </trkpt>
      <trkpt lat="43.49276" lon="6.62794">
        <ele>30.3</ele>
        <time>2023-11-05T11:50:18Z</time>
      </trkpt>
      <trkpt lat="43.49276" lon="6.62794">
        <ele>30.2</ele>
        <time>2023-11-05T11:50:19Z</time>
      </trkpt>
      <trkpt lat="43.49276" lon="6.62794">
        <ele>30.2</ele>
        <time>2023-11-05T11:50:20Z</time>
      </trkpt>
      <trkpt lat="43.49276" lon="6.62794">
        <ele>30.2</ele>
        <time>2023-11-05T11:50:21Z</time>
      </trkpt>
      <trkpt lat="43.49276" lon="6.62795">
        <ele>30.3</ele>
        <time>2023-11-05T11:50:22Z</time>
      </trkpt>
      <trkpt lat="43.49276" lon="6.62795">
        <ele>30.3</ele>
        <time>2023-11-05T11:50:23Z</time>
      </trkpt>
      <trkpt lat="43.49276" lon="6.62795">
        <ele>30.3</ele>
        <time>2023-11-05T11:50:24Z</time>
      </trkpt>
      <trkpt lat="43.49276" lon="6.62795">
        <ele>30.3</ele>
        <time>2023-11-05T11:50:25Z</time>
      </trkpt>
      <trkpt lat="43.49276" lon="6.62795">
        <ele>30.3</ele>
        <time>2023-11-05T11:50:26Z</time>
      </trkpt>
      <trkpt lat="43.49276" lon="6.62795">
        <ele>30.3</ele>
        <time>2023-11-05T11:50:27Z</time>
      </trkpt>
      <trkpt lat="43.49276" lon="6.62795">
        <ele>30.3</ele>
        <time>2023-11-05T11:50:28Z</time>
      </trkpt>
      <trkpt lat="43.49276" lon="6.62795">
        <ele>30.3</ele>
        <time>2023-11-05T11:50:29Z</time>
      </trkpt>
      <trkpt lat="43.49276" lon="6.62794">
        <ele>30.2</ele>
        <time>2023-11-05T11:50:30Z</time>
      </trkpt>
      <trkpt lat="43.49275" lon="6.62794">
        <ele>30.2</ele>
        <time>2023-11-05T11:50:31Z</time>
      </trkpt>
      <trkpt lat="43.49275" lon="6.62794">
        <ele>30.3</ele>
        <time>2023-11-05T11:50:32Z</time>
      </trkpt>
      <trkpt lat="43.49275" lon="6.62794">
        <ele>30.3</ele>
        <time>2023-11-05T11:50:33Z</time>
      </trkpt>
      <trkpt lat="43.49275" lon="6.62794">
        <ele>30.3</ele>
        <time>2023-11-05T11:50:34Z</time>
      </trkpt>
      <trkpt lat="43.49275" lon="6.62794">
        <ele>30.3</ele>
        <time>2023-11-05T11:50:35Z</time>
      </trkpt>
      <trkpt lat="43.49275" lon="6.62794">
        <ele>30.3</ele>
        <time>2023-11-05T11:50:36Z</time>
      </trkpt>
      <trkpt lat="43.49275" lon="6.62793">
        <ele>30.4</ele>
        <time>2023-11-05T11:50:37Z</time>
      </trkpt>
      <trkpt lat="43.49275" lon="6.62793">
        <ele>30.4</ele>
        <time>2023-11-05T11:50:38Z</time>
      </trkpt>
      <trkpt lat="43.49275" lon="6.62793">
        <ele>30.4</ele>
        <time>2023-11-05T11:50:39Z</time>
      </trkpt>
      <trkpt lat="43.49275" lon="6.62793">
        <ele>30.4</ele>
        <time>2023-11-05T11:50:40Z</time>
      </trkpt>
      <trkpt lat="43.49275" lon="6.62793">
        <ele>30.4</ele>
        <time>2023-11-05T11:50:41Z</time>
      </trkpt>
      <trkpt lat="43.49275" lon="6.62793">
        <ele>30.4</ele>
        <time>2023-11-05T11:50:42Z</time>
      </trkpt>
      <trkpt lat="43.49275" lon="6.62793">
        <ele>30.4</ele>
        <time>2023-11-05T11:50:43Z</time>
      </trkpt>
      <trkpt lat="43.49275" lon="6.62793">
        <ele>30.4</ele>
        <time>2023-11-05T11:50:44Z</time>
      </trkpt>
      <trkpt lat="43.49275" lon="6.62793">
        <ele>30.3</ele>
        <time>2023-11-05T11:50:45Z</time>
      </trkpt>
      <trkpt lat="43.49275" lon="6.62793">
        <ele>30.2</ele>
        <time>2023-11-05T11:50:46Z</time>
      </trkpt>
      <trkpt lat="43.49274" lon="6.62793">
        <ele>30.1</ele>
        <time>2023-11-05T11:50:47Z</time>
      </trkpt>
      <trkpt lat="43.49274" lon="6.62793">
        <ele>30.1</ele>
        <time>2023-11-05T11:50:48Z</time>
      </trkpt>
      <trkpt lat="43.49274" lon="6.62793">
        <ele>30</ele>
        <time>2023-11-05T11:50:49Z</time>
      </trkpt>
      <trkpt lat="43.49274" lon="6.62792">
        <ele>30</ele>
        <time>2023-11-05T11:50:50Z</time>
      </trkpt>
      <trkpt lat="43.49274" lon="6.62792">
        <ele>29.9</ele>
        <time>2023-11-05T11:50:51Z</time>
      </trkpt>
      <trkpt lat="43.49274" lon="6.62792">
        <ele>29.9</ele>
        <time>2023-11-05T11:50:52Z</time>
      </trkpt>
      <trkpt lat="43.49274" lon="6.62792">
        <ele>29.8</ele>
        <time>2023-11-05T11:50:53Z</time>
      </trkpt>
      <trkpt lat="43.49274" lon="6.62792">
        <ele>29.7</ele>
        <time>2023-11-05T11:50:54Z</time>
      </trkpt>
      <trkpt lat="43.49274" lon="6.62792">
        <ele>29.7</ele>
        <time>2023-11-05T11:50:55Z</time>
      </trkpt>
      <trkpt lat="43.49274" lon="6.62792">
        <ele>29.6</ele>
        <time>2023-11-05T11:50:56Z</time>
      </trkpt>
      <trkpt lat="43.49274" lon="6.62792">
        <ele>29.5</ele>
        <time>2023-11-05T11:50:57Z</time>
      </trkpt>
      <trkpt lat="43.49274" lon="6.62792">
        <ele>29.5</ele>
        <time>2023-11-05T11:50:58Z</time>
      </trkpt>
      <trkpt lat="43.49274" lon="6.62792">
        <ele>29.5</ele>
        <time>2023-11-05T11:50:59Z</time>
      </trkpt>
      <trkpt lat="43.49274" lon="6.62792">
        <ele>29.5</ele>
        <time>2023-11-05T11:51:00Z</time>
      </trkpt>
      <trkpt lat="43.49274" lon="6.62792">
        <ele>29.5</ele>
        <time>2023-11-05T11:51:01Z</time>
      </trkpt>
      <trkpt lat="43.49274" lon="6.62793">
        <ele>29.5</ele>
        <time>2023-11-05T11:51:02Z</time>
      </trkpt>
      <trkpt lat="43.49274" lon="6.62792">
        <ele>29.6</ele>
        <time>2023-11-05T11:51:03Z</time>
      </trkpt>
      <trkpt lat="43.49274" lon="6.62792">
        <ele>29.6</ele>
        <time>2023-11-05T11:51:04Z</time>
      </trkpt>
      <trkpt lat="43.49274" lon="6.62792">
        <ele>29.7</ele>
        <time>2023-11-05T11:51:05Z</time>
      </trkpt>
      <trkpt lat="43.49274" lon="6.62792">
        <ele>29.7</ele>
        <time>2023-11-05T11:51:06Z</time>
      </trkpt>
      <trkpt lat="43.49274" lon="6.62792">
        <ele>29.7</ele>
        <time>2023-11-05T11:51:07Z</time>
      </trkpt>
      <trkpt lat="43.49274" lon="6.62792">
        <ele>29.8</ele>
        <time>2023-11-05T11:51:08Z</time>
      </trkpt>
      <trkpt lat="43.49274" lon="6.62792">
        <ele>29.9</ele>
        <time>2023-11-05T11:51:09Z</time>
      </trkpt>
      <trkpt lat="43.49274" lon="6.62792">
        <ele>29.9</ele>
        <time>2023-11-05T11:51:10Z</time>
      </trkpt>
      <trkpt lat="43.49274" lon="6.62792">
        <ele>30</ele>
        <time>2023-11-05T11:51:11Z</time>
      </trkpt>
      <trkpt lat="43.49274" lon="6.62792">
        <ele>30.1</ele>
        <time>2023-11-05T11:51:12Z</time>
      </trkpt>
      <trkpt lat="43.49274" lon="6.62791">
        <ele>30.2</ele>
        <time>2023-11-05T11:51:13Z</time>
      </trkpt>
      <trkpt lat="43.49274" lon="6.62791">
        <ele>30.4</ele>
        <time>2023-11-05T11:51:14Z</time>
      </trkpt>
      <trkpt lat="43.49274" lon="6.62792">
        <ele>30.6</ele>
        <time>2023-11-05T11:51:15Z</time>
      </trkpt>
      <trkpt lat="43.49274" lon="6.62792">
        <ele>30.7</ele>
        <time>2023-11-05T11:51:16Z</time>
      </trkpt>
      <trkpt lat="43.49274" lon="6.62792">
        <ele>30.8</ele>
        <time>2023-11-05T11:51:17Z</time>
      </trkpt>
      <trkpt lat="43.49274" lon="6.62792">
        <ele>30.8</ele>
        <time>2023-11-05T11:51:18Z</time>
      </trkpt>
      <trkpt lat="43.49274" lon="6.62792">
        <ele>30.8</ele>
        <time>2023-11-05T11:51:19Z</time>
      </trkpt>
      <trkpt lat="43.49274" lon="6.62792">
        <ele>30.7</ele>
        <time>2023-11-05T11:51:20Z</time>
      </trkpt>
      <trkpt lat="43.49274" lon="6.62792">
        <ele>30.6</ele>
        <time>2023-11-05T11:51:21Z</time>
      </trkpt>
      <trkpt lat="43.49274" lon="6.62792">
        <ele>30.6</ele>
        <time>2023-11-05T11:51:22Z</time>
      </trkpt>
      <trkpt lat="43.49274" lon="6.62792">
        <ele>30.5</ele>
        <time>2023-11-05T11:51:23Z</time>
      </trkpt>
      <trkpt lat="43.49274" lon="6.62792">
        <ele>30.4</ele>
        <time>2023-11-05T11:51:24Z</time>
      </trkpt>
      <trkpt lat="43.49274" lon="6.62792">
        <ele>30.4</ele>
        <time>2023-11-05T11:51:25Z</time>
      </trkpt>
      <trkpt lat="43.49274" lon="6.62792">
        <ele>30.3</ele>
        <time>2023-11-05T11:51:26Z</time>
      </trkpt>
      <trkpt lat="43.49274" lon="6.62792">
        <ele>30.2</ele>
        <time>2023-11-05T11:51:27Z</time>
      </trkpt>
      <trkpt lat="43.49274" lon="6.62792">
        <ele>30.1</ele>
        <time>2023-11-05T11:51:28Z</time>
      </trkpt>
      <trkpt lat="43.49274" lon="6.62792">
        <ele>30</ele>
        <time>2023-11-05T11:51:29Z</time>
      </trkpt>
      <trkpt lat="43.49274" lon="6.62792">
        <ele>29.9</ele>
        <time>2023-11-05T11:51:30Z</time>
      </trkpt>
      <trkpt lat="43.49274" lon="6.62792">
        <ele>29.8</ele>
        <time>2023-11-05T11:51:31Z</time>
      </trkpt>
      <trkpt lat="43.49274" lon="6.62792">
        <ele>29.8</ele>
        <time>2023-11-05T11:51:32Z</time>
      </trkpt>
      <trkpt lat="43.49274" lon="6.62792">
        <ele>29.8</ele>
        <time>2023-11-05T11:51:33Z</time>
      </trkpt>
      <trkpt lat="43.49274" lon="6.62792">
        <ele>29.7</ele>
        <time>2023-11-05T11:51:34Z</time>
      </trkpt>
      <trkpt lat="43.49274" lon="6.62792">
        <ele>29.8</ele>
        <time>2023-11-05T11:51:35Z</time>
      </trkpt>
      <trkpt lat="43.49274" lon="6.62792">
        <ele>29.9</ele>
        <time>2023-11-05T11:51:36Z</time>
      </trkpt>
      <trkpt lat="43.49274" lon="6.62792">
        <ele>30</ele>
        <time>2023-11-05T11:51:37Z</time>
      </trkpt>
      <trkpt lat="43.49274" lon="6.62792">
        <ele>30.1</ele>
        <time>2023-11-05T11:51:38Z</time>
      </trkpt>
      <trkpt lat="43.49274" lon="6.62792">
        <ele>30.2</ele>
        <time>2023-11-05T11:51:39Z</time>
      </trkpt>
      <trkpt lat="43.49274" lon="6.62792">
        <ele>30.2</ele>
        <time>2023-11-05T11:51:40Z</time>
      </trkpt>
      <trkpt lat="43.49274" lon="6.62792">
        <ele>30.2</ele>
        <time>2023-11-05T11:51:41Z</time>
      </trkpt>
      <trkpt lat="43.49274" lon="6.62792">
        <ele>30.2</ele>
        <time>2023-11-05T11:51:42Z</time>
      </trkpt>
      <trkpt lat="43.49274" lon="6.62792">
        <ele>30.2</ele>
        <time>2023-11-05T11:51:43Z</time>
      </trkpt>
      <trkpt lat="43.49274" lon="6.62792">
        <ele>30.2</ele>
        <time>2023-11-05T11:51:44Z</time>
      </trkpt>
      <trkpt lat="43.49274" lon="6.62792">
        <ele>30.2</ele>
        <time>2023-11-05T11:51:45Z</time>
      </trkpt>
      <trkpt lat="43.49274" lon="6.62792">
        <ele>30.1</ele>
        <time>2023-11-05T11:51:46Z</time>
      </trkpt>
      <trkpt lat="43.49274" lon="6.62792">
        <ele>30.1</ele>
        <time>2023-11-05T11:51:47Z</time>
      </trkpt>
      <trkpt lat="43.49274" lon="6.62792">
        <ele>30</ele>
        <time>2023-11-05T11:51:48Z</time>
      </trkpt>
      <trkpt lat="43.49274" lon="6.62792">
        <ele>29.9</ele>
        <time>2023-11-05T11:51:49Z</time>
      </trkpt>
      <trkpt lat="43.49274" lon="6.62792">
        <ele>29.8</ele>
        <time>2023-11-05T11:51:50Z</time>
      </trkpt>
      <trkpt lat="43.49274" lon="6.62792">
        <ele>29.8</ele>
        <time>2023-11-05T11:51:51Z</time>
      </trkpt>
      <trkpt lat="43.49274" lon="6.62792">
        <ele>29.9</ele>
        <time>2023-11-05T11:51:52Z</time>
      </trkpt>
      <trkpt lat="43.49274" lon="6.62792">
        <ele>30</ele>
        <time>2023-11-05T11:51:53Z</time>
      </trkpt>
      <trkpt lat="43.49274" lon="6.62792">
        <ele>30.1</ele>
        <time>2023-11-05T11:51:54Z</time>
      </trkpt>
      <trkpt lat="43.49274" lon="6.62792">
        <ele>30.1</ele>
        <time>2023-11-05T11:51:55Z</time>
      </trkpt>
      <trkpt lat="43.49274" lon="6.62792">
        <ele>30</ele>
        <time>2023-11-05T11:51:56Z</time>
      </trkpt>
      <trkpt lat="43.49275" lon="6.62792">
        <ele>30</ele>
        <time>2023-11-05T11:51:57Z</time>
      </trkpt>
      <trkpt lat="43.49275" lon="6.62792">
        <ele>30</ele>
        <time>2023-11-05T11:51:58Z</time>
      </trkpt>
      <trkpt lat="43.49275" lon="6.62792">
        <ele>29.9</ele>
        <time>2023-11-05T11:51:59Z</time>
      </trkpt>
      <trkpt lat="43.49275" lon="6.62792">
        <ele>29.9</ele>
        <time>2023-11-05T11:52:00Z</time>
      </trkpt>
      <trkpt lat="43.49275" lon="6.62792">
        <ele>29.9</ele>
        <time>2023-11-05T11:52:01Z</time>
      </trkpt>
      <trkpt lat="43.49275" lon="6.62792">
        <ele>30</ele>
        <time>2023-11-05T11:52:02Z</time>
      </trkpt>
      <trkpt lat="43.49275" lon="6.62792">
        <ele>29.9</ele>
        <time>2023-11-05T11:52:03Z</time>
      </trkpt>
      <trkpt lat="43.49275" lon="6.62792">
        <ele>29.9</ele>
        <time>2023-11-05T11:52:04Z</time>
      </trkpt>
      <trkpt lat="43.49275" lon="6.62792">
        <ele>29.8</ele>
        <time>2023-11-05T11:52:05Z</time>
      </trkpt>
      <trkpt lat="43.49275" lon="6.62792">
        <ele>29.8</ele>
        <time>2023-11-05T11:52:06Z</time>
      </trkpt>
      <trkpt lat="43.49275" lon="6.62792">
        <ele>29.6</ele>
        <time>2023-11-05T11:52:07Z</time>
      </trkpt>
      <trkpt lat="43.49275" lon="6.62792">
        <ele>29.4</ele>
        <time>2023-11-05T11:52:08Z</time>
      </trkpt>
      <trkpt lat="43.49275" lon="6.62792">
        <ele>29.3</ele>
        <time>2023-11-05T11:52:09Z</time>
      </trkpt>
      <trkpt lat="43.49275" lon="6.62792">
        <ele>29.3</ele>
        <time>2023-11-05T11:52:10Z</time>
      </trkpt>
      <trkpt lat="43.49275" lon="6.62792">
        <ele>29.2</ele>
        <time>2023-11-05T11:52:11Z</time>
      </trkpt>
      <trkpt lat="43.49275" lon="6.62792">
        <ele>29.2</ele>
        <time>2023-11-05T11:52:12Z</time>
      </trkpt>
      <trkpt lat="43.49275" lon="6.62792">
        <ele>29.2</ele>
        <time>2023-11-05T11:52:13Z</time>
      </trkpt>
      <trkpt lat="43.49275" lon="6.62792">
        <ele>29.2</ele>
        <time>2023-11-05T11:52:14Z</time>
      </trkpt>
      <trkpt lat="43.49275" lon="6.62792">
        <ele>29.2</ele>
        <time>2023-11-05T11:52:15Z</time>
      </trkpt>
      <trkpt lat="43.49275" lon="6.62792">
        <ele>29.2</ele>
        <time>2023-11-05T11:52:16Z</time>
      </trkpt>
      <trkpt lat="43.49275" lon="6.62792">
        <ele>29.3</ele>
        <time>2023-11-05T11:52:17Z</time>
      </trkpt>
      <trkpt lat="43.49275" lon="6.62792">
        <ele>29.3</ele>
        <time>2023-11-05T11:52:18Z</time>
      </trkpt>
      <trkpt lat="43.49275" lon="6.62792">
        <ele>29.5</ele>
        <time>2023-11-05T11:52:19Z</time>
      </trkpt>
      <trkpt lat="43.49275" lon="6.62792">
        <ele>29.6</ele>
        <time>2023-11-05T11:52:20Z</time>
      </trkpt>
      <trkpt lat="43.49275" lon="6.62792">
        <ele>29.7</ele>
        <time>2023-11-05T11:52:21Z</time>
      </trkpt>
      <trkpt lat="43.49275" lon="6.62792">
        <ele>29.8</ele>
        <time>2023-11-05T11:52:22Z</time>
      </trkpt>
      <trkpt lat="43.49275" lon="6.62792">
        <ele>29.9</ele>
        <time>2023-11-05T11:52:23Z</time>
      </trkpt>
      <trkpt lat="43.49275" lon="6.62792">
        <ele>30</ele>
        <time>2023-11-05T11:52:24Z</time>
      </trkpt>
      <trkpt lat="43.49276" lon="6.62792">
        <ele>30</ele>
        <time>2023-11-05T11:52:25Z</time>
      </trkpt>
      <trkpt lat="43.49276" lon="6.62792">
        <ele>30</ele>
        <time>2023-11-05T11:52:26Z</time>
      </trkpt>
      <trkpt lat="43.49276" lon="6.62792">
        <ele>29.9</ele>
        <time>2023-11-05T11:52:27Z</time>
      </trkpt>
      <trkpt lat="43.49276" lon="6.62792">
        <ele>29.9</ele>
        <time>2023-11-05T11:52:28Z</time>
      </trkpt>
      <trkpt lat="43.49276" lon="6.62792">
        <ele>29.8</ele>
        <time>2023-11-05T11:52:29Z</time>
      </trkpt>
      <trkpt lat="43.49276" lon="6.62792">
        <ele>29.7</ele>
        <time>2023-11-05T11:52:30Z</time>
      </trkpt>
      <trkpt lat="43.49276" lon="6.62792">
        <ele>29.7</ele>
        <time>2023-11-05T11:52:31Z</time>
      </trkpt>
      <trkpt lat="43.49276" lon="6.62792">
        <ele>29.7</ele>
        <time>2023-11-05T11:52:32Z</time>
      </trkpt>
      <trkpt lat="43.49276" lon="6.62792">
        <ele>29.6</ele>
        <time>2023-11-05T11:52:33Z</time>
      </trkpt>
      <trkpt lat="43.49276" lon="6.62792">
        <ele>29.7</ele>
        <time>2023-11-05T11:52:34Z</time>
      </trkpt>
      <trkpt lat="43.49276" lon="6.62792">
        <ele>29.7</ele>
        <time>2023-11-05T11:52:35Z</time>
      </trkpt>
      <trkpt lat="43.49276" lon="6.62792">
        <ele>29.7</ele>
        <time>2023-11-05T11:52:36Z</time>
      </trkpt>
      <trkpt lat="43.49276" lon="6.62792">
        <ele>29.7</ele>
        <time>2023-11-05T11:52:37Z</time>
      </trkpt>
      <trkpt lat="43.49276" lon="6.62792">
        <ele>29.7</ele>
        <time>2023-11-05T11:52:38Z</time>
      </trkpt>
      <trkpt lat="43.49276" lon="6.62792">
        <ele>29.7</ele>
        <time>2023-11-05T11:52:39Z</time>
      </trkpt>
      <trkpt lat="43.49276" lon="6.62792">
        <ele>29.6</ele>
        <time>2023-11-05T11:52:40Z</time>
      </trkpt>
      <trkpt lat="43.49276" lon="6.62792">
        <ele>29.6</ele>
        <time>2023-11-05T11:52:41Z</time>
      </trkpt>
      <trkpt lat="43.49276" lon="6.62792">
        <ele>29.5</ele>
        <time>2023-11-05T11:52:42Z</time>
      </trkpt>
      <trkpt lat="43.49276" lon="6.62792">
        <ele>29.5</ele>
        <time>2023-11-05T11:52:43Z</time>
      </trkpt>
      <trkpt lat="43.49276" lon="6.62792">
        <ele>29.5</ele>
        <time>2023-11-05T11:52:44Z</time>
      </trkpt>
      <trkpt lat="43.49276" lon="6.62792">
        <ele>29.4</ele>
        <time>2023-11-05T11:52:45Z</time>
      </trkpt>
      <trkpt lat="43.49276" lon="6.62792">
        <ele>29.4</ele>
        <time>2023-11-05T11:52:46Z</time>
      </trkpt>
      <trkpt lat="43.49275" lon="6.62792">
        <ele>29.3</ele>
        <time>2023-11-05T11:52:47Z</time>
      </trkpt>
      <trkpt lat="43.49275" lon="6.62792">
        <ele>29.3</ele>
        <time>2023-11-05T11:52:48Z</time>
      </trkpt>
      <trkpt lat="43.49275" lon="6.62792">
        <ele>29.3</ele>
        <time>2023-11-05T11:52:49Z</time>
      </trkpt>
      <trkpt lat="43.49275" lon="6.62792">
        <ele>29.5</ele>
        <time>2023-11-05T11:52:50Z</time>
      </trkpt>
      <trkpt lat="43.49275" lon="6.62792">
        <ele>29.6</ele>
        <time>2023-11-05T11:52:51Z</time>
      </trkpt>
      <trkpt lat="43.49275" lon="6.62792">
        <ele>29.7</ele>
        <time>2023-11-05T11:52:52Z</time>
      </trkpt>
      <trkpt lat="43.49275" lon="6.62792">
        <ele>29.6</ele>
        <time>2023-11-05T11:52:53Z</time>
      </trkpt>
      <trkpt lat="43.49275" lon="6.62792">
        <ele>29.7</ele>
        <time>2023-11-05T11:52:54Z</time>
      </trkpt>
      <trkpt lat="43.49275" lon="6.62792">
        <ele>29.8</ele>
        <time>2023-11-05T11:52:55Z</time>
      </trkpt>
      <trkpt lat="43.49275" lon="6.62792">
        <ele>29.8</ele>
        <time>2023-11-05T11:52:56Z</time>
      </trkpt>
      <trkpt lat="43.49275" lon="6.62792">
        <ele>29.7</ele>
        <time>2023-11-05T11:52:57Z</time>
      </trkpt>
      <trkpt lat="43.49275" lon="6.62792">
        <ele>29.7</ele>
        <time>2023-11-05T11:52:58Z</time>
      </trkpt>
      <trkpt lat="43.49275" lon="6.62792">
        <ele>29.7</ele>
        <time>2023-11-05T11:52:59Z</time>
      </trkpt>
      <trkpt lat="43.49275" lon="6.62792">
        <ele>29.7</ele>
        <time>2023-11-05T11:53:00Z</time>
      </trkpt>
      <trkpt lat="43.49275" lon="6.62792">
        <ele>29.8</ele>
        <time>2023-11-05T11:53:01Z</time>
      </trkpt>
      <trkpt lat="43.49275" lon="6.62792">
        <ele>29.9</ele>
        <time>2023-11-05T11:53:02Z</time>
      </trkpt>
      <trkpt lat="43.49275" lon="6.62792">
        <ele>29.9</ele>
        <time>2023-11-05T11:53:03Z</time>
      </trkpt>
      <trkpt lat="43.49275" lon="6.62792">
        <ele>30</ele>
        <time>2023-11-05T11:53:04Z</time>
      </trkpt>
      <trkpt lat="43.49275" lon="6.62792">
        <ele>30</ele>
        <time>2023-11-05T11:53:05Z</time>
      </trkpt>
      <trkpt lat="43.49275" lon="6.62792">
        <ele>30</ele>
        <time>2023-11-05T11:53:06Z</time>
      </trkpt>
      <trkpt lat="43.49275" lon="6.62792">
        <ele>30</ele>
        <time>2023-11-05T11:53:07Z</time>
      </trkpt>
      <trkpt lat="43.49275" lon="6.62792">
        <ele>30</ele>
        <time>2023-11-05T11:53:08Z</time>
      </trkpt>
      <trkpt lat="43.49275" lon="6.62792">
        <ele>30.1</ele>
        <time>2023-11-05T11:53:09Z</time>
      </trkpt>
      <trkpt lat="43.49275" lon="6.62792">
        <ele>30.1</ele>
        <time>2023-11-05T11:53:10Z</time>
      </trkpt>
      <trkpt lat="43.49275" lon="6.62792">
        <ele>30.1</ele>
        <time>2023-11-05T11:53:11Z</time>
      </trkpt>
      <trkpt lat="43.49275" lon="6.62792">
        <ele>30.1</ele>
        <time>2023-11-05T11:53:12Z</time>
      </trkpt>
      <trkpt lat="43.49275" lon="6.62792">
        <ele>30.1</ele>
        <time>2023-11-05T11:53:13Z</time>
      </trkpt>
      <trkpt lat="43.49275" lon="6.62792">
        <ele>30.1</ele>
        <time>2023-11-05T11:53:14Z</time>
      </trkpt>
      <trkpt lat="43.49275" lon="6.62792">
        <ele>30.1</ele>
        <time>2023-11-05T11:53:15Z</time>
      </trkpt>
      <trkpt lat="43.49275" lon="6.62792">
        <ele>30.2</ele>
        <time>2023-11-05T11:53:16Z</time>
      </trkpt>
      <trkpt lat="43.49275" lon="6.62792">
        <ele>30.2</ele>
        <time>2023-11-05T11:53:17Z</time>
      </trkpt>
      <trkpt lat="43.49275" lon="6.62792">
        <ele>30.3</ele>
        <time>2023-11-05T11:53:18Z</time>
      </trkpt>
      <trkpt lat="43.49275" lon="6.62792">
        <ele>30.3</ele>
        <time>2023-11-05T11:53:19Z</time>
      </trkpt>
      <trkpt lat="43.49275" lon="6.62792">
        <ele>30.3</ele>
        <time>2023-11-05T11:53:20Z</time>
      </trkpt>
      <trkpt lat="43.49275" lon="6.62792">
        <ele>30.3</ele>
        <time>2023-11-05T11:53:21Z</time>
      </trkpt>
      <trkpt lat="43.49275" lon="6.62792">
        <ele>30.3</ele>
        <time>2023-11-05T11:53:22Z</time>
      </trkpt>
      <trkpt lat="43.49275" lon="6.62792">
        <ele>30.3</ele>
        <time>2023-11-05T11:53:23Z</time>
      </trkpt>
      <trkpt lat="43.49275" lon="6.62792">
        <ele>30.3</ele>
        <time>2023-11-05T11:53:24Z</time>
      </trkpt>
      <trkpt lat="43.49275" lon="6.62792">
        <ele>30.3</ele>
        <time>2023-11-05T11:53:25Z</time>
      </trkpt>
      <trkpt lat="43.49275" lon="6.62792">
        <ele>30.4</ele>
        <time>2023-11-05T11:53:26Z</time>
      </trkpt>
      <trkpt lat="43.49275" lon="6.62792">
        <ele>30.5</ele>
        <time>2023-11-05T11:53:27Z</time>
      </trkpt>
      <trkpt lat="43.49275" lon="6.62793">
        <ele>30.5</ele>
        <time>2023-11-05T11:53:28Z</time>
      </trkpt>
      <trkpt lat="43.49275" lon="6.62793">
        <ele>30.6</ele>
        <time>2023-11-05T11:53:29Z</time>
      </trkpt>
      <trkpt lat="43.49275" lon="6.62793">
        <ele>30.6</ele>
        <time>2023-11-05T11:53:30Z</time>
      </trkpt>
      <trkpt lat="43.49275" lon="6.62793">
        <ele>30.6</ele>
        <time>2023-11-05T11:53:31Z</time>
      </trkpt>
      <trkpt lat="43.49275" lon="6.62793">
        <ele>30.6</ele>
        <time>2023-11-05T11:53:32Z</time>
      </trkpt>
      <trkpt lat="43.49275" lon="6.62793">
        <ele>30.6</ele>
        <time>2023-11-05T11:53:33Z</time>
      </trkpt>
      <trkpt lat="43.49275" lon="6.62792">
        <ele>30.6</ele>
        <time>2023-11-05T11:53:34Z</time>
      </trkpt>
      <trkpt lat="43.49275" lon="6.62792">
        <ele>30.6</ele>
        <time>2023-11-05T11:53:35Z</time>
      </trkpt>
      <trkpt lat="43.49275" lon="6.62793">
        <ele>30.5</ele>
        <time>2023-11-05T11:53:36Z</time>
      </trkpt>
      <trkpt lat="43.49275" lon="6.62793">
        <ele>30.5</ele>
        <time>2023-11-05T11:53:37Z</time>
      </trkpt>
      <trkpt lat="43.49275" lon="6.62793">
        <ele>30.5</ele>
        <time>2023-11-05T11:53:38Z</time>
      </trkpt>
      <trkpt lat="43.49275" lon="6.62793">
        <ele>30.4</ele>
        <time>2023-11-05T11:53:39Z</time>
      </trkpt>
      <trkpt lat="43.49275" lon="6.62793">
        <ele>30.4</ele>
        <time>2023-11-05T11:53:40Z</time>
      </trkpt>
      <trkpt lat="43.49275" lon="6.62793">
        <ele>30.4</ele>
        <time>2023-11-05T11:53:41Z</time>
      </trkpt>
      <trkpt lat="43.49275" lon="6.62793">
        <ele>30.4</ele>
        <time>2023-11-05T11:53:42Z</time>
      </trkpt>
      <trkpt lat="43.49275" lon="6.62793">
        <ele>30.3</ele>
        <time>2023-11-05T11:53:43Z</time>
      </trkpt>
      <trkpt lat="43.49275" lon="6.62793">
        <ele>30.3</ele>
        <time>2023-11-05T11:53:44Z</time>
      </trkpt>
      <trkpt lat="43.49275" lon="6.62793">
        <ele>30.4</ele>
        <time>2023-11-05T11:53:45Z</time>
      </trkpt>
      <trkpt lat="43.49276" lon="6.62793">
        <ele>30.5</ele>
        <time>2023-11-05T11:53:46Z</time>
      </trkpt>
      <trkpt lat="43.49276" lon="6.62793">
        <ele>30.6</ele>
        <time>2023-11-05T11:53:47Z</time>
      </trkpt>
      <trkpt lat="43.49276" lon="6.62793">
        <ele>30.6</ele>
        <time>2023-11-05T11:53:48Z</time>
      </trkpt>
      <trkpt lat="43.49276" lon="6.62793">
        <ele>30.7</ele>
        <time>2023-11-05T11:53:49Z</time>
      </trkpt>
      <trkpt lat="43.49276" lon="6.62793">
        <ele>30.7</ele>
        <time>2023-11-05T11:53:50Z</time>
      </trkpt>
      <trkpt lat="43.49276" lon="6.62793">
        <ele>30.7</ele>
        <time>2023-11-05T11:53:51Z</time>
      </trkpt>
      <trkpt lat="43.49276" lon="6.62793">
        <ele>30.7</ele>
        <time>2023-11-05T11:53:52Z</time>
      </trkpt>
      <trkpt lat="43.49276" lon="6.62793">
        <ele>30.7</ele>
        <time>2023-11-05T11:53:53Z</time>
      </trkpt>
      <trkpt lat="43.49276" lon="6.62793">
        <ele>30.7</ele>
        <time>2023-11-05T11:53:54Z</time>
      </trkpt>
      <trkpt lat="43.49276" lon="6.62793">
        <ele>30.7</ele>
        <time>2023-11-05T11:53:55Z</time>
      </trkpt>
      <trkpt lat="43.49276" lon="6.62793">
        <ele>30.6</ele>
        <time>2023-11-05T11:53:56Z</time>
      </trkpt>
      <trkpt lat="43.49276" lon="6.62793">
        <ele>30.7</ele>
        <time>2023-11-05T11:53:57Z</time>
      </trkpt>
      <trkpt lat="43.49276" lon="6.62793">
        <ele>30.8</ele>
        <time>2023-11-05T11:53:58Z</time>
      </trkpt>
      <trkpt lat="43.49276" lon="6.62793">
        <ele>30.8</ele>
        <time>2023-11-05T11:53:59Z</time>
      </trkpt>
      <trkpt lat="43.49276" lon="6.62793">
        <ele>30.8</ele>
        <time>2023-11-05T11:54:00Z</time>
      </trkpt>
      <trkpt lat="43.49276" lon="6.62793">
        <ele>30.9</ele>
        <time>2023-11-05T11:54:01Z</time>
      </trkpt>
      <trkpt lat="43.49276" lon="6.62793">
        <ele>30.9</ele>
        <time>2023-11-05T11:54:02Z</time>
      </trkpt>
      <trkpt lat="43.49276" lon="6.62793">
        <ele>30.8</ele>
        <time>2023-11-05T11:54:03Z</time>
      </trkpt>
      <trkpt lat="43.49276" lon="6.62793">
        <ele>30.8</ele>
        <time>2023-11-05T11:54:04Z</time>
      </trkpt>
      <trkpt lat="43.49276" lon="6.62793">
        <ele>30.8</ele>
        <time>2023-11-05T11:54:05Z</time>
      </trkpt>
      <trkpt lat="43.49276" lon="6.62794">
        <ele>30.9</ele>
        <time>2023-11-05T11:54:06Z</time>
      </trkpt>
      <trkpt lat="43.49276" lon="6.62794">
        <ele>30.9</ele>
        <time>2023-11-05T11:54:07Z</time>
      </trkpt>
      <trkpt lat="43.49276" lon="6.62794">
        <ele>30.9</ele>
        <time>2023-11-05T11:54:08Z</time>
      </trkpt>
      <trkpt lat="43.49276" lon="6.62794">
        <ele>30.7</ele>
        <time>2023-11-05T11:54:09Z</time>
      </trkpt>
      <trkpt lat="43.49276" lon="6.62794">
        <ele>30.7</ele>
        <time>2023-11-05T11:54:10Z</time>
      </trkpt>
      <trkpt lat="43.49276" lon="6.62794">
        <ele>30.6</ele>
        <time>2023-11-05T11:54:11Z</time>
      </trkpt>
      <trkpt lat="43.49276" lon="6.62794">
        <ele>30.5</ele>
        <time>2023-11-05T11:54:12Z</time>
      </trkpt>
      <trkpt lat="43.49276" lon="6.62794">
        <ele>30.4</ele>
        <time>2023-11-05T11:54:13Z</time>
      </trkpt>
      <trkpt lat="43.49276" lon="6.62794">
        <ele>30.3</ele>
        <time>2023-11-05T11:54:14Z</time>
      </trkpt>
      <trkpt lat="43.49276" lon="6.62794">
        <ele>30.3</ele>
        <time>2023-11-05T11:54:15Z</time>
      </trkpt>
      <trkpt lat="43.49277" lon="6.62794">
        <ele>30.4</ele>
        <time>2023-11-05T11:54:16Z</time>
      </trkpt>
      <trkpt lat="43.49277" lon="6.62794">
        <ele>30.4</ele>
        <time>2023-11-05T11:54:17Z</time>
      </trkpt>
      <trkpt lat="43.49277" lon="6.62794">
        <ele>30.3</ele>
        <time>2023-11-05T11:54:18Z</time>
      </trkpt>
      <trkpt lat="43.49277" lon="6.62794">
        <ele>30.3</ele>
        <time>2023-11-05T11:54:19Z</time>
      </trkpt>
      <trkpt lat="43.49277" lon="6.62794">
        <ele>30.3</ele>
        <time>2023-11-05T11:54:20Z</time>
      </trkpt>
      <trkpt lat="43.49277" lon="6.62794">
        <ele>30.2</ele>
        <time>2023-11-05T11:54:21Z</time>
      </trkpt>
      <trkpt lat="43.49276" lon="6.62794">
        <ele>30.3</ele>
        <time>2023-11-05T11:54:22Z</time>
      </trkpt>
      <trkpt lat="43.49276" lon="6.62794">
        <ele>30.2</ele>
        <time>2023-11-05T11:54:23Z</time>
      </trkpt>
      <trkpt lat="43.49276" lon="6.62794">
        <ele>30.1</ele>
        <time>2023-11-05T11:54:24Z</time>
      </trkpt>
      <trkpt lat="43.49276" lon="6.62794">
        <ele>30.1</ele>
        <time>2023-11-05T11:54:25Z</time>
      </trkpt>
      <trkpt lat="43.49276" lon="6.62794">
        <ele>30</ele>
        <time>2023-11-05T11:54:26Z</time>
      </trkpt>
      <trkpt lat="43.49276" lon="6.62794">
        <ele>30</ele>
        <time>2023-11-05T11:54:27Z</time>
      </trkpt>
      <trkpt lat="43.49276" lon="6.62794">
        <ele>29.9</ele>
        <time>2023-11-05T11:54:28Z</time>
      </trkpt>
      <trkpt lat="43.49276" lon="6.62794">
        <ele>29.9</ele>
        <time>2023-11-05T11:54:29Z</time>
      </trkpt>
      <trkpt lat="43.49276" lon="6.62794">
        <ele>29.9</ele>
        <time>2023-11-05T11:54:30Z</time>
      </trkpt>
      <trkpt lat="43.49276" lon="6.62794">
        <ele>29.9</ele>
        <time>2023-11-05T11:54:31Z</time>
      </trkpt>
      <trkpt lat="43.49276" lon="6.62794">
        <ele>29.8</ele>
        <time>2023-11-05T11:54:32Z</time>
      </trkpt>
      <trkpt lat="43.49276" lon="6.62794">
        <ele>29.8</ele>
        <time>2023-11-05T11:54:33Z</time>
      </trkpt>
      <trkpt lat="43.49276" lon="6.62794">
        <ele>29.7</ele>
        <time>2023-11-05T11:54:34Z</time>
      </trkpt>
      <trkpt lat="43.49276" lon="6.62794">
        <ele>29.8</ele>
        <time>2023-11-05T11:54:35Z</time>
      </trkpt>
      <trkpt lat="43.49276" lon="6.62794">
        <ele>29.8</ele>
        <time>2023-11-05T11:54:36Z</time>
      </trkpt>
      <trkpt lat="43.49276" lon="6.62794">
        <ele>29.8</ele>
        <time>2023-11-05T11:54:37Z</time>
      </trkpt>
      <trkpt lat="43.49276" lon="6.62794">
        <ele>29.7</ele>
        <time>2023-11-05T11:54:38Z</time>
      </trkpt>
      <trkpt lat="43.49276" lon="6.62794">
        <ele>29.6</ele>
        <time>2023-11-05T11:54:39Z</time>
      </trkpt>
      <trkpt lat="43.49276" lon="6.62794">
        <ele>29.6</ele>
        <time>2023-11-05T11:54:40Z</time>
      </trkpt>
      <trkpt lat="43.49277" lon="6.62794">
        <ele>29.4</ele>
        <time>2023-11-05T11:54:41Z</time>
      </trkpt>
      <trkpt lat="43.49277" lon="6.62794">
        <ele>29.3</ele>
        <time>2023-11-05T11:54:42Z</time>
      </trkpt>
      <trkpt lat="43.49277" lon="6.62794">
        <ele>29.3</ele>
        <time>2023-11-05T11:54:43Z</time>
      </trkpt>
      <trkpt lat="43.49277" lon="6.62794">
        <ele>29.5</ele>
        <time>2023-11-05T11:54:44Z</time>
      </trkpt>
      <trkpt lat="43.49277" lon="6.62794">
        <ele>29.5</ele>
        <time>2023-11-05T11:54:45Z</time>
      </trkpt>
      <trkpt lat="43.49277" lon="6.62794">
        <ele>29.7</ele>
        <time>2023-11-05T11:54:46Z</time>
      </trkpt>
      <trkpt lat="43.49277" lon="6.62794">
        <ele>29.8</ele>
        <time>2023-11-05T11:54:47Z</time>
      </trkpt>
      <trkpt lat="43.49277" lon="6.62794">
        <ele>29.9</ele>
        <time>2023-11-05T11:54:48Z</time>
      </trkpt>
      <trkpt lat="43.49277" lon="6.62794">
        <ele>29.9</ele>
        <time>2023-11-05T11:54:49Z</time>
      </trkpt>
      <trkpt lat="43.49277" lon="6.62794">
        <ele>30</ele>
        <time>2023-11-05T11:54:50Z</time>
      </trkpt>
      <trkpt lat="43.49277" lon="6.62794">
        <ele>29.9</ele>
        <time>2023-11-05T11:54:51Z</time>
      </trkpt>
      <trkpt lat="43.49277" lon="6.62794">
        <ele>29.9</ele>
        <time>2023-11-05T11:54:52Z</time>
      </trkpt>
      <trkpt lat="43.49277" lon="6.62794">
        <ele>29.8</ele>
        <time>2023-11-05T11:54:53Z</time>
      </trkpt>
      <trkpt lat="43.49277" lon="6.62794">
        <ele>29.8</ele>
        <time>2023-11-05T11:54:54Z</time>
      </trkpt>
      <trkpt lat="43.49277" lon="6.62794">
        <ele>29.9</ele>
        <time>2023-11-05T11:54:55Z</time>
      </trkpt>
      <trkpt lat="43.49277" lon="6.62794">
        <ele>30</ele>
        <time>2023-11-05T11:54:56Z</time>
      </trkpt>
      <trkpt lat="43.49277" lon="6.62794">
        <ele>30.1</ele>
        <time>2023-11-05T11:54:57Z</time>
      </trkpt>
      <trkpt lat="43.49277" lon="6.62794">
        <ele>30.1</ele>
        <time>2023-11-05T11:54:58Z</time>
      </trkpt>
      <trkpt lat="43.49277" lon="6.62794">
        <ele>30.1</ele>
        <time>2023-11-05T11:54:59Z</time>
      </trkpt>
      <trkpt lat="43.49277" lon="6.62794">
        <ele>30.1</ele>
        <time>2023-11-05T11:55:00Z</time>
      </trkpt>
      <trkpt lat="43.49277" lon="6.62794">
        <ele>30.1</ele>
        <time>2023-11-05T11:55:01Z</time>
      </trkpt>
      <trkpt lat="43.49277" lon="6.62794">
        <ele>30.1</ele>
        <time>2023-11-05T11:55:02Z</time>
      </trkpt>
      <trkpt lat="43.49277" lon="6.62794">
        <ele>30.1</ele>
        <time>2023-11-05T11:55:03Z</time>
      </trkpt>
      <trkpt lat="43.49277" lon="6.62794">
        <ele>30.2</ele>
        <time>2023-11-05T11:55:04Z</time>
      </trkpt>
      <trkpt lat="43.49277" lon="6.62794">
        <ele>30.2</ele>
        <time>2023-11-05T11:55:05Z</time>
      </trkpt>
      <trkpt lat="43.49277" lon="6.62794">
        <ele>30.2</ele>
        <time>2023-11-05T11:55:06Z</time>
      </trkpt>
      <trkpt lat="43.49277" lon="6.62794">
        <ele>30.1</ele>
        <time>2023-11-05T11:55:07Z</time>
      </trkpt>
      <trkpt lat="43.49277" lon="6.62794">
        <ele>30</ele>
        <time>2023-11-05T11:55:08Z</time>
      </trkpt>
      <trkpt lat="43.49277" lon="6.62794">
        <ele>30.1</ele>
        <time>2023-11-05T11:55:09Z</time>
      </trkpt>
      <trkpt lat="43.49277" lon="6.62794">
        <ele>30</ele>
        <time>2023-11-05T11:55:10Z</time>
      </trkpt>
      <trkpt lat="43.49277" lon="6.62794">
        <ele>30</ele>
        <time>2023-11-05T11:55:11Z</time>
      </trkpt>
      <trkpt lat="43.49277" lon="6.62794">
        <ele>29.9</ele>
        <time>2023-11-05T11:55:12Z</time>
      </trkpt>
      <trkpt lat="43.49277" lon="6.62794">
        <ele>29.8</ele>
        <time>2023-11-05T11:55:13Z</time>
      </trkpt>
      <trkpt lat="43.49277" lon="6.62794">
        <ele>29.8</ele>
        <time>2023-11-05T11:55:14Z</time>
      </trkpt>
      <trkpt lat="43.49277" lon="6.62794">
        <ele>29.8</ele>
        <time>2023-11-05T11:55:15Z</time>
      </trkpt>
      <trkpt lat="43.49277" lon="6.62794">
        <ele>29.9</ele>
        <time>2023-11-05T11:55:16Z</time>
      </trkpt>
      <trkpt lat="43.49277" lon="6.62794">
        <ele>29.9</ele>
        <time>2023-11-05T11:55:17Z</time>
      </trkpt>
      <trkpt lat="43.49277" lon="6.62794">
        <ele>29.9</ele>
        <time>2023-11-05T11:55:18Z</time>
      </trkpt>
      <trkpt lat="43.49277" lon="6.62794">
        <ele>30</ele>
        <time>2023-11-05T11:55:19Z</time>
      </trkpt>
      <trkpt lat="43.49277" lon="6.62794">
        <ele>29.9</ele>
        <time>2023-11-05T11:55:20Z</time>
      </trkpt>
      <trkpt lat="43.49277" lon="6.62794">
        <ele>30</ele>
        <time>2023-11-05T11:55:21Z</time>
      </trkpt>
      <trkpt lat="43.49277" lon="6.62794">
        <ele>30</ele>
        <time>2023-11-05T11:55:22Z</time>
      </trkpt>
      <trkpt lat="43.49277" lon="6.62794">
        <ele>30</ele>
        <time>2023-11-05T11:55:23Z</time>
      </trkpt>
      <trkpt lat="43.49277" lon="6.62794">
        <ele>30</ele>
        <time>2023-11-05T11:55:24Z</time>
      </trkpt>
      <trkpt lat="43.49277" lon="6.62794">
        <ele>29.9</ele>
        <time>2023-11-05T11:55:25Z</time>
      </trkpt>
      <trkpt lat="43.49277" lon="6.62794">
        <ele>29.9</ele>
        <time>2023-11-05T11:55:26Z</time>
      </trkpt>
      <trkpt lat="43.49276" lon="6.62794">
        <ele>29.9</ele>
        <time>2023-11-05T11:55:27Z</time>
      </trkpt>
      <trkpt lat="43.49276" lon="6.62794">
        <ele>29.9</ele>
        <time>2023-11-05T11:55:28Z</time>
      </trkpt>
      <trkpt lat="43.49276" lon="6.62794">
        <ele>29.9</ele>
        <time>2023-11-05T11:55:29Z</time>
      </trkpt>
      <trkpt lat="43.49276" lon="6.62794">
        <ele>29.8</ele>
        <time>2023-11-05T11:55:30Z</time>
      </trkpt>
      <trkpt lat="43.49276" lon="6.62794">
        <ele>29.8</ele>
        <time>2023-11-05T11:55:31Z</time>
      </trkpt>
      <trkpt lat="43.49276" lon="6.62794">
        <ele>29.7</ele>
        <time>2023-11-05T11:55:32Z</time>
      </trkpt>
      <trkpt lat="43.49276" lon="6.62794">
        <ele>29.7</ele>
        <time>2023-11-05T11:55:33Z</time>
      </trkpt>
      <trkpt lat="43.49276" lon="6.62794">
        <ele>29.7</ele>
        <time>2023-11-05T11:55:34Z</time>
      </trkpt>
      <trkpt lat="43.49276" lon="6.62794">
        <ele>29.6</ele>
        <time>2023-11-05T11:55:35Z</time>
      </trkpt>
      <trkpt lat="43.49276" lon="6.62794">
        <ele>29.7</ele>
        <time>2023-11-05T11:55:36Z</time>
      </trkpt>
      <trkpt lat="43.49276" lon="6.62794">
        <ele>29.5</ele>
        <time>2023-11-05T11:55:37Z</time>
      </trkpt>
      <trkpt lat="43.49276" lon="6.62794">
        <ele>29.4</ele>
        <time>2023-11-05T11:55:38Z</time>
      </trkpt>
      <trkpt lat="43.49276" lon="6.62794">
        <ele>29.5</ele>
        <time>2023-11-05T11:55:39Z</time>
      </trkpt>
      <trkpt lat="43.49276" lon="6.62794">
        <ele>29.5</ele>
        <time>2023-11-05T11:55:40Z</time>
      </trkpt>
      <trkpt lat="43.49276" lon="6.62794">
        <ele>29.5</ele>
        <time>2023-11-05T11:55:41Z</time>
      </trkpt>
      <trkpt lat="43.49276" lon="6.62794">
        <ele>29.4</ele>
        <time>2023-11-05T11:55:42Z</time>
      </trkpt>
      <trkpt lat="43.49276" lon="6.62794">
        <ele>29.4</ele>
        <time>2023-11-05T11:55:43Z</time>
      </trkpt>
      <trkpt lat="43.49276" lon="6.62794">
        <ele>29.4</ele>
        <time>2023-11-05T11:55:44Z</time>
      </trkpt>
      <trkpt lat="43.49276" lon="6.62794">
        <ele>29.3</ele>
        <time>2023-11-05T11:55:45Z</time>
      </trkpt>
      <trkpt lat="43.49276" lon="6.62794">
        <ele>29.3</ele>
        <time>2023-11-05T11:55:46Z</time>
      </trkpt>
      <trkpt lat="43.49276" lon="6.62794">
        <ele>29.3</ele>
        <time>2023-11-05T11:55:47Z</time>
      </trkpt>
      <trkpt lat="43.49276" lon="6.62794">
        <ele>29.3</ele>
        <time>2023-11-05T11:55:48Z</time>
      </trkpt>
      <trkpt lat="43.49276" lon="6.62794">
        <ele>29.3</ele>
        <time>2023-11-05T11:55:49Z</time>
      </trkpt>
      <trkpt lat="43.49276" lon="6.62794">
        <ele>29.3</ele>
        <time>2023-11-05T11:55:50Z</time>
      </trkpt>
      <trkpt lat="43.49276" lon="6.62794">
        <ele>29.3</ele>
        <time>2023-11-05T11:55:51Z</time>
      </trkpt>
      <trkpt lat="43.49276" lon="6.62794">
        <ele>29.2</ele>
        <time>2023-11-05T11:55:52Z</time>
      </trkpt>
      <trkpt lat="43.49276" lon="6.62794">
        <ele>29.2</ele>
        <time>2023-11-05T11:55:53Z</time>
      </trkpt>
      <trkpt lat="43.49276" lon="6.62794">
        <ele>29.2</ele>
        <time>2023-11-05T11:55:54Z</time>
      </trkpt>
      <trkpt lat="43.49276" lon="6.62794">
        <ele>29.2</ele>
        <time>2023-11-05T11:55:55Z</time>
      </trkpt>
      <trkpt lat="43.49276" lon="6.62794">
        <ele>29.2</ele>
        <time>2023-11-05T11:55:56Z</time>
      </trkpt>
      <trkpt lat="43.49276" lon="6.62794">
        <ele>29.2</ele>
        <time>2023-11-05T11:55:57Z</time>
      </trkpt>
      <trkpt lat="43.49276" lon="6.62794">
        <ele>29.3</ele>
        <time>2023-11-05T11:55:58Z</time>
      </trkpt>
      <trkpt lat="43.49276" lon="6.62794">
        <ele>29.4</ele>
        <time>2023-11-05T11:55:59Z</time>
      </trkpt>
      <trkpt lat="43.49276" lon="6.62794">
        <ele>29.4</ele>
        <time>2023-11-05T11:56:00Z</time>
      </trkpt>
      <trkpt lat="43.49276" lon="6.62794">
        <ele>29.4</ele>
        <time>2023-11-05T11:56:01Z</time>
      </trkpt>
      <trkpt lat="43.49276" lon="6.62794">
        <ele>29.4</ele>
        <time>2023-11-05T11:56:02Z</time>
      </trkpt>
      <trkpt lat="43.49276" lon="6.62794">
        <ele>29.4</ele>
        <time>2023-11-05T11:56:03Z</time>
      </trkpt>
      <trkpt lat="43.49276" lon="6.62794">
        <ele>29.4</ele>
        <time>2023-11-05T11:56:04Z</time>
      </trkpt>
      <trkpt lat="43.49276" lon="6.62794">
        <ele>29.4</ele>
        <time>2023-11-05T11:56:05Z</time>
      </trkpt>
      <trkpt lat="43.49276" lon="6.62794">
        <ele>29.5</ele>
        <time>2023-11-05T11:56:06Z</time>
      </trkpt>
      <trkpt lat="43.49276" lon="6.62794">
        <ele>29.5</ele>
        <time>2023-11-05T11:56:07Z</time>
      </trkpt>
      <trkpt lat="43.49276" lon="6.62794">
        <ele>29.5</ele>
        <time>2023-11-05T11:56:08Z</time>
      </trkpt>
      <trkpt lat="43.49276" lon="6.62794">
        <ele>29.5</ele>
        <time>2023-11-05T11:56:09Z</time>
      </trkpt>
      <trkpt lat="43.49276" lon="6.62794">
        <ele>29.5</ele>
        <time>2023-11-05T11:56:10Z</time>
      </trkpt>
      <trkpt lat="43.49276" lon="6.62794">
        <ele>29.5</ele>
        <time>2023-11-05T11:56:11Z</time>
      </trkpt>
      <trkpt lat="43.49276" lon="6.62794">
        <ele>29.6</ele>
        <time>2023-11-05T11:56:12Z</time>
      </trkpt>
      <trkpt lat="43.49276" lon="6.62794">
        <ele>29.5</ele>
        <time>2023-11-05T11:56:13Z</time>
      </trkpt>
      <trkpt lat="43.49276" lon="6.62794">
        <ele>29.4</ele>
        <time>2023-11-05T11:56:14Z</time>
      </trkpt>
      <trkpt lat="43.49276" lon="6.62794">
        <ele>29.4</ele>
        <time>2023-11-05T11:56:15Z</time>
      </trkpt>
      <trkpt lat="43.49276" lon="6.62794">
        <ele>29.4</ele>
        <time>2023-11-05T11:56:16Z</time>
      </trkpt>
      <trkpt lat="43.49276" lon="6.62794">
        <ele>29.4</ele>
        <time>2023-11-05T11:56:17Z</time>
      </trkpt>
      <trkpt lat="43.49277" lon="6.62794">
        <ele>29.3</ele>
        <time>2023-11-05T11:56:18Z</time>
      </trkpt>
      <trkpt lat="43.49277" lon="6.62794">
        <ele>29.4</ele>
        <time>2023-11-05T11:56:19Z</time>
      </trkpt>
      <trkpt lat="43.49277" lon="6.62794">
        <ele>29.5</ele>
        <time>2023-11-05T11:56:20Z</time>
      </trkpt>
      <trkpt lat="43.49277" lon="6.62794">
        <ele>29.4</ele>
        <time>2023-11-05T11:56:21Z</time>
      </trkpt>
      <trkpt lat="43.49277" lon="6.62794">
        <ele>29.4</ele>
        <time>2023-11-05T11:56:22Z</time>
      </trkpt>
      <trkpt lat="43.49277" lon="6.62794">
        <ele>29.3</ele>
        <time>2023-11-05T11:56:23Z</time>
      </trkpt>
      <trkpt lat="43.49277" lon="6.62794">
        <ele>29.3</ele>
        <time>2023-11-05T11:56:24Z</time>
      </trkpt>
      <trkpt lat="43.49277" lon="6.62794">
        <ele>29.4</ele>
        <time>2023-11-05T11:56:25Z</time>
      </trkpt>
      <trkpt lat="43.49277" lon="6.62794">
        <ele>29.5</ele>
        <time>2023-11-05T11:56:26Z</time>
      </trkpt>
      <trkpt lat="43.49277" lon="6.62794">
        <ele>29.5</ele>
        <time>2023-11-05T11:56:27Z</time>
      </trkpt>
      <trkpt lat="43.49277" lon="6.62794">
        <ele>29.3</ele>
        <time>2023-11-05T11:56:28Z</time>
      </trkpt>
      <trkpt lat="43.49277" lon="6.62794">
        <ele>29.2</ele>
        <time>2023-11-05T11:56:29Z</time>
      </trkpt>
      <trkpt lat="43.49277" lon="6.62794">
        <ele>29.3</ele>
        <time>2023-11-05T11:56:30Z</time>
      </trkpt>
      <trkpt lat="43.49277" lon="6.62794">
        <ele>29.3</ele>
        <time>2023-11-05T11:56:31Z</time>
      </trkpt>
      <trkpt lat="43.49277" lon="6.62794">
        <ele>29.3</ele>
        <time>2023-11-05T11:56:32Z</time>
      </trkpt>
      <trkpt lat="43.49277" lon="6.62794">
        <ele>29.4</ele>
        <time>2023-11-05T11:56:33Z</time>
      </trkpt>
      <trkpt lat="43.49277" lon="6.62794">
        <ele>29.5</ele>
        <time>2023-11-05T11:56:34Z</time>
      </trkpt>
      <trkpt lat="43.49277" lon="6.62794">
        <ele>29.5</ele>
        <time>2023-11-05T11:56:35Z</time>
      </trkpt>
      <trkpt lat="43.49277" lon="6.62794">
        <ele>29.5</ele>
        <time>2023-11-05T11:56:36Z</time>
      </trkpt>
      <trkpt lat="43.49277" lon="6.62794">
        <ele>29.6</ele>
        <time>2023-11-05T11:56:37Z</time>
      </trkpt>
      <trkpt lat="43.49277" lon="6.62794">
        <ele>29.7</ele>
        <time>2023-11-05T11:56:38Z</time>
      </trkpt>
      <trkpt lat="43.49276" lon="6.62793">
        <ele>29.7</ele>
        <time>2023-11-05T11:56:39Z</time>
      </trkpt>
      <trkpt lat="43.49276" lon="6.62793">
        <ele>29.7</ele>
        <time>2023-11-05T11:56:40Z</time>
      </trkpt>
      <trkpt lat="43.49276" lon="6.62793">
        <ele>29.7</ele>
        <time>2023-11-05T11:56:41Z</time>
      </trkpt>
      <trkpt lat="43.49276" lon="6.62793">
        <ele>29.7</ele>
        <time>2023-11-05T11:56:42Z</time>
      </trkpt>
      <trkpt lat="43.49276" lon="6.62793">
        <ele>29.6</ele>
        <time>2023-11-05T11:56:43Z</time>
      </trkpt>
      <trkpt lat="43.49276" lon="6.62793">
        <ele>29.5</ele>
        <time>2023-11-05T11:56:44Z</time>
      </trkpt>
      <trkpt lat="43.49276" lon="6.62793">
        <ele>29.5</ele>
        <time>2023-11-05T11:56:45Z</time>
      </trkpt>
      <trkpt lat="43.49276" lon="6.62793">
        <ele>29.5</ele>
        <time>2023-11-05T11:56:46Z</time>
      </trkpt>
      <trkpt lat="43.49276" lon="6.62793">
        <ele>29.5</ele>
        <time>2023-11-05T11:56:47Z</time>
      </trkpt>
      <trkpt lat="43.49276" lon="6.62793">
        <ele>29.4</ele>
        <time>2023-11-05T11:56:48Z</time>
      </trkpt>
      <trkpt lat="43.49276" lon="6.62793">
        <ele>29.3</ele>
        <time>2023-11-05T11:56:49Z</time>
      </trkpt>
      <trkpt lat="43.49276" lon="6.62793">
        <ele>29.2</ele>
        <time>2023-11-05T11:56:50Z</time>
      </trkpt>
      <trkpt lat="43.49276" lon="6.62793">
        <ele>29.1</ele>
        <time>2023-11-05T11:56:51Z</time>
      </trkpt>
      <trkpt lat="43.49276" lon="6.62793">
        <ele>29.1</ele>
        <time>2023-11-05T11:56:52Z</time>
      </trkpt>
      <trkpt lat="43.49276" lon="6.62793">
        <ele>29.1</ele>
        <time>2023-11-05T11:56:53Z</time>
      </trkpt>
      <trkpt lat="43.49275" lon="6.62793">
        <ele>29.1</ele>
        <time>2023-11-05T11:56:54Z</time>
      </trkpt>
      <trkpt lat="43.49276" lon="6.62793">
        <ele>29.2</ele>
        <time>2023-11-05T11:56:55Z</time>
      </trkpt>
      <trkpt lat="43.49276" lon="6.62793">
        <ele>29.2</ele>
        <time>2023-11-05T11:56:56Z</time>
      </trkpt>
      <trkpt lat="43.49276" lon="6.62793">
        <ele>29.2</ele>
        <time>2023-11-05T11:56:57Z</time>
      </trkpt>
      <trkpt lat="43.49276" lon="6.62793">
        <ele>29.2</ele>
        <time>2023-11-05T11:56:58Z</time>
      </trkpt>
      <trkpt lat="43.49276" lon="6.62794">
        <ele>29.2</ele>
        <time>2023-11-05T11:56:59Z</time>
      </trkpt>
      <trkpt lat="43.49276" lon="6.62794">
        <ele>29.2</ele>
        <time>2023-11-05T11:57:00Z</time>
      </trkpt>
      <trkpt lat="43.49276" lon="6.62794">
        <ele>29.2</ele>
        <time>2023-11-05T11:57:01Z</time>
      </trkpt>
      <trkpt lat="43.49276" lon="6.62794">
        <ele>29.2</ele>
        <time>2023-11-05T11:57:02Z</time>
      </trkpt>
      <trkpt lat="43.49276" lon="6.62794">
        <ele>29.1</ele>
        <time>2023-11-05T11:57:03Z</time>
      </trkpt>
      <trkpt lat="43.49276" lon="6.62794">
        <ele>29.1</ele>
        <time>2023-11-05T11:57:04Z</time>
      </trkpt>
      <trkpt lat="43.49276" lon="6.62794">
        <ele>29</ele>
        <time>2023-11-05T11:57:05Z</time>
      </trkpt>
      <trkpt lat="43.49276" lon="6.62794">
        <ele>29</ele>
        <time>2023-11-05T11:57:06Z</time>
      </trkpt>
      <trkpt lat="43.49276" lon="6.62794">
        <ele>29</ele>
        <time>2023-11-05T11:57:07Z</time>
      </trkpt>
      <trkpt lat="43.49276" lon="6.62794">
        <ele>29</ele>
        <time>2023-11-05T11:57:08Z</time>
      </trkpt>
      <trkpt lat="43.49276" lon="6.62794">
        <ele>28.9</ele>
        <time>2023-11-05T11:57:09Z</time>
      </trkpt>
      <trkpt lat="43.49276" lon="6.62794">
        <ele>28.9</ele>
        <time>2023-11-05T11:57:10Z</time>
      </trkpt>
      <trkpt lat="43.49276" lon="6.62794">
        <ele>28.9</ele>
        <time>2023-11-05T11:57:11Z</time>
      </trkpt>
      <trkpt lat="43.49276" lon="6.62794">
        <ele>29</ele>
        <time>2023-11-05T11:57:12Z</time>
      </trkpt>
      <trkpt lat="43.49276" lon="6.62794">
        <ele>29</ele>
        <time>2023-11-05T11:57:13Z</time>
      </trkpt>
      <trkpt lat="43.49276" lon="6.62794">
        <ele>29</ele>
        <time>2023-11-05T11:57:14Z</time>
      </trkpt>
      <trkpt lat="43.49276" lon="6.62794">
        <ele>29</ele>
        <time>2023-11-05T11:57:15Z</time>
      </trkpt>
      <trkpt lat="43.49276" lon="6.62794">
        <ele>29</ele>
        <time>2023-11-05T11:57:16Z</time>
      </trkpt>
      <trkpt lat="43.49276" lon="6.62794">
        <ele>29.1</ele>
        <time>2023-11-05T11:57:17Z</time>
      </trkpt>
      <trkpt lat="43.49276" lon="6.62794">
        <ele>29.1</ele>
        <time>2023-11-05T11:57:18Z</time>
      </trkpt>
      <trkpt lat="43.49276" lon="6.62794">
        <ele>29.2</ele>
        <time>2023-11-05T11:57:19Z</time>
      </trkpt>
      <trkpt lat="43.49276" lon="6.62794">
        <ele>29.3</ele>
        <time>2023-11-05T11:57:20Z</time>
      </trkpt>
      <trkpt lat="43.49276" lon="6.62794">
        <ele>29.3</ele>
        <time>2023-11-05T11:57:21Z</time>
      </trkpt>
      <trkpt lat="43.49276" lon="6.62794">
        <ele>29.4</ele>
        <time>2023-11-05T11:57:22Z</time>
      </trkpt>
      <trkpt lat="43.49276" lon="6.62794">
        <ele>29.4</ele>
        <time>2023-11-05T11:57:23Z</time>
      </trkpt>
      <trkpt lat="43.49276" lon="6.62794">
        <ele>29.4</ele>
        <time>2023-11-05T11:57:24Z</time>
      </trkpt>
      <trkpt lat="43.49276" lon="6.62794">
        <ele>29.4</ele>
        <time>2023-11-05T11:57:25Z</time>
      </trkpt>
      <trkpt lat="43.49276" lon="6.62794">
        <ele>29.5</ele>
        <time>2023-11-05T11:57:26Z</time>
      </trkpt>
      <trkpt lat="43.49276" lon="6.62794">
        <ele>29.5</ele>
        <time>2023-11-05T11:57:27Z</time>
      </trkpt>
      <trkpt lat="43.49276" lon="6.62794">
        <ele>29.5</ele>
        <time>2023-11-05T11:57:28Z</time>
      </trkpt>
      <trkpt lat="43.49276" lon="6.62794">
        <ele>29.4</ele>
        <time>2023-11-05T11:57:29Z</time>
      </trkpt>
      <trkpt lat="43.49276" lon="6.62794">
        <ele>29.3</ele>
        <time>2023-11-05T11:57:30Z</time>
      </trkpt>
      <trkpt lat="43.49277" lon="6.62794">
        <ele>29.2</ele>
        <time>2023-11-05T11:57:31Z</time>
      </trkpt>
      <trkpt lat="43.49277" lon="6.62794">
        <ele>29.1</ele>
        <time>2023-11-05T11:57:32Z</time>
      </trkpt>
      <trkpt lat="43.49276" lon="6.62793">
        <ele>29.1</ele>
        <time>2023-11-05T11:57:33Z</time>
      </trkpt>
      <trkpt lat="43.49276" lon="6.62793">
        <ele>29.1</ele>
        <time>2023-11-05T11:57:34Z</time>
      </trkpt>
      <trkpt lat="43.49276" lon="6.62793">
        <ele>29.1</ele>
        <time>2023-11-05T11:57:35Z</time>
      </trkpt>
      <trkpt lat="43.49277" lon="6.62793">
        <ele>29</ele>
        <time>2023-11-05T11:57:36Z</time>
      </trkpt>
      <trkpt lat="43.49277" lon="6.62793">
        <ele>28.9</ele>
        <time>2023-11-05T11:57:37Z</time>
      </trkpt>
      <trkpt lat="43.49276" lon="6.62793">
        <ele>28.8</ele>
        <time>2023-11-05T11:57:38Z</time>
      </trkpt>
      <trkpt lat="43.49277" lon="6.62793">
        <ele>28.8</ele>
        <time>2023-11-05T11:57:39Z</time>
      </trkpt>
      <trkpt lat="43.49277" lon="6.62793">
        <ele>28.8</ele>
        <time>2023-11-05T11:57:40Z</time>
      </trkpt>
      <trkpt lat="43.49277" lon="6.62793">
        <ele>28.9</ele>
        <time>2023-11-05T11:57:41Z</time>
      </trkpt>
      <trkpt lat="43.49277" lon="6.62793">
        <ele>29</ele>
        <time>2023-11-05T11:57:42Z</time>
      </trkpt>
      <trkpt lat="43.49277" lon="6.62793">
        <ele>29.1</ele>
        <time>2023-11-05T11:57:43Z</time>
      </trkpt>
      <trkpt lat="43.49277" lon="6.62793">
        <ele>29.2</ele>
        <time>2023-11-05T11:57:44Z</time>
      </trkpt>
      <trkpt lat="43.49277" lon="6.62793">
        <ele>29.2</ele>
        <time>2023-11-05T11:57:45Z</time>
      </trkpt>
      <trkpt lat="43.49277" lon="6.62793">
        <ele>29.2</ele>
        <time>2023-11-05T11:57:46Z</time>
      </trkpt>
      <trkpt lat="43.49277" lon="6.62793">
        <ele>29.2</ele>
        <time>2023-11-05T11:57:47Z</time>
      </trkpt>
      <trkpt lat="43.49277" lon="6.62793">
        <ele>29.3</ele>
        <time>2023-11-05T11:57:48Z</time>
      </trkpt>
      <trkpt lat="43.49277" lon="6.62793">
        <ele>29.3</ele>
        <time>2023-11-05T11:57:49Z</time>
      </trkpt>
      <trkpt lat="43.49277" lon="6.62793">
        <ele>29.3</ele>
        <time>2023-11-05T11:57:50Z</time>
      </trkpt>
      <trkpt lat="43.49277" lon="6.62793">
        <ele>29.2</ele>
        <time>2023-11-05T11:57:51Z</time>
      </trkpt>
      <trkpt lat="43.49277" lon="6.62793">
        <ele>29.2</ele>
        <time>2023-11-05T11:57:52Z</time>
      </trkpt>
      <trkpt lat="43.49277" lon="6.62793">
        <ele>29.2</ele>
        <time>2023-11-05T11:57:53Z</time>
      </trkpt>
      <trkpt lat="43.49277" lon="6.62793">
        <ele>29.2</ele>
        <time>2023-11-05T11:57:54Z</time>
      </trkpt>
      <trkpt lat="43.49277" lon="6.62793">
        <ele>29.2</ele>
        <time>2023-11-05T11:57:55Z</time>
      </trkpt>
      <trkpt lat="43.49277" lon="6.62793">
        <ele>29.2</ele>
        <time>2023-11-05T11:57:56Z</time>
      </trkpt>
      <trkpt lat="43.49277" lon="6.62793">
        <ele>29.2</ele>
        <time>2023-11-05T11:57:57Z</time>
      </trkpt>
      <trkpt lat="43.49277" lon="6.62793">
        <ele>29.1</ele>
        <time>2023-11-05T11:57:58Z</time>
      </trkpt>
      <trkpt lat="43.49277" lon="6.62793">
        <ele>29</ele>
        <time>2023-11-05T11:57:59Z</time>
      </trkpt>
      <trkpt lat="43.49277" lon="6.62793">
        <ele>29</ele>
        <time>2023-11-05T11:58:00Z</time>
      </trkpt>
      <trkpt lat="43.49277" lon="6.62793">
        <ele>29</ele>
        <time>2023-11-05T11:58:01Z</time>
      </trkpt>
      <trkpt lat="43.49277" lon="6.62793">
        <ele>29.1</ele>
        <time>2023-11-05T11:58:02Z</time>
      </trkpt>
      <trkpt lat="43.49277" lon="6.62793">
        <ele>29.3</ele>
        <time>2023-11-05T11:58:03Z</time>
      </trkpt>
      <trkpt lat="43.49277" lon="6.62793">
        <ele>29.6</ele>
        <time>2023-11-05T11:58:04Z</time>
      </trkpt>
      <trkpt lat="43.49277" lon="6.62793">
        <ele>29.7</ele>
        <time>2023-11-05T11:58:05Z</time>
      </trkpt>
      <trkpt lat="43.49277" lon="6.62793">
        <ele>29.7</ele>
        <time>2023-11-05T11:58:06Z</time>
      </trkpt>
      <trkpt lat="43.49277" lon="6.62793">
        <ele>29.6</ele>
        <time>2023-11-05T11:58:07Z</time>
      </trkpt>
      <trkpt lat="43.49277" lon="6.62793">
        <ele>29.4</ele>
        <time>2023-11-05T11:58:08Z</time>
      </trkpt>
      <trkpt lat="43.49277" lon="6.62793">
        <ele>29.2</ele>
        <time>2023-11-05T11:58:09Z</time>
      </trkpt>
      <trkpt lat="43.49277" lon="6.62793">
        <ele>29</ele>
        <time>2023-11-05T11:58:10Z</time>
      </trkpt>
      <trkpt lat="43.49277" lon="6.62793">
        <ele>28.8</ele>
        <time>2023-11-05T11:58:11Z</time>
      </trkpt>
      <trkpt lat="43.49277" lon="6.62793">
        <ele>28.7</ele>
        <time>2023-11-05T11:58:12Z</time>
      </trkpt>
      <trkpt lat="43.49277" lon="6.62793">
        <ele>28.7</ele>
        <time>2023-11-05T11:58:13Z</time>
      </trkpt>
      <trkpt lat="43.49277" lon="6.62793">
        <ele>28.7</ele>
        <time>2023-11-05T11:58:14Z</time>
      </trkpt>
      <trkpt lat="43.49277" lon="6.62793">
        <ele>28.7</ele>
        <time>2023-11-05T11:58:15Z</time>
      </trkpt>
      <trkpt lat="43.49277" lon="6.62793">
        <ele>28.7</ele>
        <time>2023-11-05T11:58:16Z</time>
      </trkpt>
      <trkpt lat="43.49277" lon="6.62793">
        <ele>28.7</ele>
        <time>2023-11-05T11:58:17Z</time>
      </trkpt>
      <trkpt lat="43.49277" lon="6.62793">
        <ele>28.7</ele>
        <time>2023-11-05T11:58:18Z</time>
      </trkpt>
      <trkpt lat="43.49277" lon="6.62793">
        <ele>28.8</ele>
        <time>2023-11-05T11:58:19Z</time>
      </trkpt>
      <trkpt lat="43.49277" lon="6.62792">
        <ele>28.8</ele>
        <time>2023-11-05T11:58:20Z</time>
      </trkpt>
      <trkpt lat="43.49277" lon="6.62792">
        <ele>28.8</ele>
        <time>2023-11-05T11:58:21Z</time>
      </trkpt>
      <trkpt lat="43.49277" lon="6.62792">
        <ele>28.8</ele>
        <time>2023-11-05T11:58:22Z</time>
      </trkpt>
      <trkpt lat="43.49277" lon="6.62792">
        <ele>28.7</ele>
        <time>2023-11-05T11:58:23Z</time>
      </trkpt>
      <trkpt lat="43.49277" lon="6.62792">
        <ele>28.8</ele>
        <time>2023-11-05T11:58:24Z</time>
      </trkpt>
      <trkpt lat="43.49277" lon="6.62792">
        <ele>28.8</ele>
        <time>2023-11-05T11:58:25Z</time>
      </trkpt>
      <trkpt lat="43.49277" lon="6.62792">
        <ele>28.8</ele>
        <time>2023-11-05T11:58:26Z</time>
      </trkpt>
      <trkpt lat="43.49277" lon="6.62792">
        <ele>28.8</ele>
        <time>2023-11-05T11:58:27Z</time>
      </trkpt>
      <trkpt lat="43.49277" lon="6.62792">
        <ele>28.9</ele>
        <time>2023-11-05T11:58:28Z</time>
      </trkpt>
      <trkpt lat="43.49277" lon="6.62792">
        <ele>29</ele>
        <time>2023-11-05T11:58:29Z</time>
      </trkpt>
      <trkpt lat="43.49277" lon="6.62792">
        <ele>29</ele>
        <time>2023-11-05T11:58:30Z</time>
      </trkpt>
      <trkpt lat="43.49277" lon="6.62792">
        <ele>29</ele>
        <time>2023-11-05T11:58:31Z</time>
      </trkpt>
      <trkpt lat="43.49277" lon="6.62792">
        <ele>28.9</ele>
        <time>2023-11-05T11:58:32Z</time>
      </trkpt>
      <trkpt lat="43.49277" lon="6.62792">
        <ele>28.9</ele>
        <time>2023-11-05T11:58:33Z</time>
      </trkpt>
      <trkpt lat="43.49277" lon="6.62792">
        <ele>28.9</ele>
        <time>2023-11-05T11:58:34Z</time>
      </trkpt>
      <trkpt lat="43.49277" lon="6.62792">
        <ele>28.9</ele>
        <time>2023-11-05T11:58:35Z</time>
      </trkpt>
      <trkpt lat="43.49277" lon="6.62792">
        <ele>28.9</ele>
        <time>2023-11-05T11:58:36Z</time>
      </trkpt>
      <trkpt lat="43.49277" lon="6.62792">
        <ele>28.8</ele>
        <time>2023-11-05T11:58:37Z</time>
      </trkpt>
      <trkpt lat="43.49278" lon="6.62792">
        <ele>28.8</ele>
        <time>2023-11-05T11:58:38Z</time>
      </trkpt>
      <trkpt lat="43.49278" lon="6.62792">
        <ele>28.8</ele>
        <time>2023-11-05T11:58:39Z</time>
      </trkpt>
      <trkpt lat="43.49278" lon="6.62792">
        <ele>28.8</ele>
        <time>2023-11-05T11:58:40Z</time>
      </trkpt>
      <trkpt lat="43.49278" lon="6.62792">
        <ele>28.9</ele>
        <time>2023-11-05T11:58:41Z</time>
      </trkpt>
      <trkpt lat="43.49278" lon="6.62792">
        <ele>29</ele>
        <time>2023-11-05T11:58:42Z</time>
      </trkpt>
      <trkpt lat="43.49278" lon="6.62792">
        <ele>29.1</ele>
        <time>2023-11-05T11:58:43Z</time>
      </trkpt>
      <trkpt lat="43.49278" lon="6.62792">
        <ele>29.1</ele>
        <time>2023-11-05T11:58:44Z</time>
      </trkpt>
      <trkpt lat="43.49278" lon="6.62792">
        <ele>29.2</ele>
        <time>2023-11-05T11:58:45Z</time>
      </trkpt>
      <trkpt lat="43.49278" lon="6.62792">
        <ele>29.2</ele>
        <time>2023-11-05T11:58:46Z</time>
      </trkpt>
      <trkpt lat="43.49278" lon="6.62792">
        <ele>29.2</ele>
        <time>2023-11-05T11:58:47Z</time>
      </trkpt>
      <trkpt lat="43.49278" lon="6.62792">
        <ele>29.1</ele>
        <time>2023-11-05T11:58:48Z</time>
      </trkpt>
      <trkpt lat="43.49278" lon="6.62792">
        <ele>29</ele>
        <time>2023-11-05T11:58:49Z</time>
      </trkpt>
      <trkpt lat="43.49278" lon="6.62792">
        <ele>29</ele>
        <time>2023-11-05T11:58:50Z</time>
      </trkpt>
      <trkpt lat="43.49278" lon="6.62792">
        <ele>28.9</ele>
        <time>2023-11-05T11:58:51Z</time>
      </trkpt>
      <trkpt lat="43.49278" lon="6.62792">
        <ele>28.9</ele>
        <time>2023-11-05T11:58:52Z</time>
      </trkpt>
      <trkpt lat="43.49278" lon="6.62792">
        <ele>28.9</ele>
        <time>2023-11-05T11:58:53Z</time>
      </trkpt>
      <trkpt lat="43.49277" lon="6.62792">
        <ele>28.8</ele>
        <time>2023-11-05T11:58:54Z</time>
      </trkpt>
      <trkpt lat="43.49277" lon="6.62792">
        <ele>28.8</ele>
        <time>2023-11-05T11:58:55Z</time>
      </trkpt>
      <trkpt lat="43.49277" lon="6.62792">
        <ele>28.8</ele>
        <time>2023-11-05T11:58:56Z</time>
      </trkpt>
      <trkpt lat="43.49277" lon="6.62791">
        <ele>28.8</ele>
        <time>2023-11-05T11:58:57Z</time>
      </trkpt>
      <trkpt lat="43.49277" lon="6.62791">
        <ele>28.8</ele>
        <time>2023-11-05T11:58:58Z</time>
      </trkpt>
      <trkpt lat="43.49277" lon="6.62791">
        <ele>28.8</ele>
        <time>2023-11-05T11:58:59Z</time>
      </trkpt>
      <trkpt lat="43.49277" lon="6.62791">
        <ele>28.7</ele>
        <time>2023-11-05T11:59:00Z</time>
      </trkpt>
      <trkpt lat="43.49277" lon="6.62791">
        <ele>28.7</ele>
        <time>2023-11-05T11:59:01Z</time>
      </trkpt>
      <trkpt lat="43.49277" lon="6.62791">
        <ele>28.6</ele>
        <time>2023-11-05T11:59:02Z</time>
      </trkpt>
      <trkpt lat="43.49277" lon="6.62791">
        <ele>28.6</ele>
        <time>2023-11-05T11:59:03Z</time>
      </trkpt>
      <trkpt lat="43.49277" lon="6.62791">
        <ele>28.6</ele>
        <time>2023-11-05T11:59:04Z</time>
      </trkpt>
      <trkpt lat="43.49277" lon="6.62791">
        <ele>28.6</ele>
        <time>2023-11-05T11:59:05Z</time>
      </trkpt>
      <trkpt lat="43.49277" lon="6.62791">
        <ele>28.5</ele>
        <time>2023-11-05T11:59:06Z</time>
      </trkpt>
      <trkpt lat="43.49277" lon="6.62791">
        <ele>28.5</ele>
        <time>2023-11-05T11:59:07Z</time>
      </trkpt>
      <trkpt lat="43.49277" lon="6.62791">
        <ele>28.5</ele>
        <time>2023-11-05T11:59:08Z</time>
      </trkpt>
      <trkpt lat="43.49277" lon="6.62791">
        <ele>28.5</ele>
        <time>2023-11-05T11:59:09Z</time>
      </trkpt>
      <trkpt lat="43.49277" lon="6.62791">
        <ele>28.6</ele>
        <time>2023-11-05T11:59:10Z</time>
      </trkpt>
      <trkpt lat="43.49277" lon="6.62791">
        <ele>28.6</ele>
        <time>2023-11-05T11:59:11Z</time>
      </trkpt>
      <trkpt lat="43.49277" lon="6.62791">
        <ele>28.6</ele>
        <time>2023-11-05T11:59:12Z</time>
      </trkpt>
      <trkpt lat="43.49277" lon="6.62791">
        <ele>28.5</ele>
        <time>2023-11-05T11:59:13Z</time>
      </trkpt>
      <trkpt lat="43.49277" lon="6.62791">
        <ele>28.5</ele>
        <time>2023-11-05T11:59:14Z</time>
      </trkpt>
      <trkpt lat="43.49277" lon="6.62791">
        <ele>28.6</ele>
        <time>2023-11-05T11:59:15Z</time>
      </trkpt>
      <trkpt lat="43.49277" lon="6.62791">
        <ele>28.6</ele>
        <time>2023-11-05T11:59:16Z</time>
      </trkpt>
      <trkpt lat="43.49277" lon="6.62791">
        <ele>28.5</ele>
        <time>2023-11-05T11:59:17Z</time>
      </trkpt>
      <trkpt lat="43.49277" lon="6.62791">
        <ele>28.5</ele>
        <time>2023-11-05T11:59:18Z</time>
      </trkpt>
      <trkpt lat="43.49277" lon="6.62791">
        <ele>28.5</ele>
        <time>2023-11-05T11:59:19Z</time>
      </trkpt>
      <trkpt lat="43.49277" lon="6.62791">
        <ele>28.5</ele>
        <time>2023-11-05T11:59:20Z</time>
      </trkpt>
      <trkpt lat="43.49277" lon="6.62791">
        <ele>28.4</ele>
        <time>2023-11-05T11:59:21Z</time>
      </trkpt>
      <trkpt lat="43.49277" lon="6.62791">
        <ele>28.5</ele>
        <time>2023-11-05T11:59:22Z</time>
      </trkpt>
      <trkpt lat="43.49277" lon="6.62792">
        <ele>28.4</ele>
        <time>2023-11-05T11:59:23Z</time>
      </trkpt>
      <trkpt lat="43.49277" lon="6.62792">
        <ele>28.4</ele>
        <time>2023-11-05T11:59:24Z</time>
      </trkpt>
      <trkpt lat="43.49277" lon="6.62792">
        <ele>28.4</ele>
        <time>2023-11-05T11:59:25Z</time>
      </trkpt>
      <trkpt lat="43.49277" lon="6.62792">
        <ele>28.3</ele>
        <time>2023-11-05T11:59:26Z</time>
      </trkpt>
      <trkpt lat="43.49277" lon="6.62792">
        <ele>28.3</ele>
        <time>2023-11-05T11:59:27Z</time>
      </trkpt>
      <trkpt lat="43.49278" lon="6.62792">
        <ele>28.3</ele>
        <time>2023-11-05T11:59:28Z</time>
      </trkpt>
      <trkpt lat="43.49277" lon="6.62792">
        <ele>28.3</ele>
        <time>2023-11-05T11:59:29Z</time>
      </trkpt>
      <trkpt lat="43.49277" lon="6.62792">
        <ele>28.4</ele>
        <time>2023-11-05T11:59:30Z</time>
      </trkpt>
      <trkpt lat="43.49277" lon="6.62792">
        <ele>28.3</ele>
        <time>2023-11-05T11:59:31Z</time>
      </trkpt>
      <trkpt lat="43.49277" lon="6.62792">
        <ele>28.3</ele>
        <time>2023-11-05T11:59:32Z</time>
      </trkpt>
      <trkpt lat="43.49277" lon="6.62792">
        <ele>28.4</ele>
        <time>2023-11-05T11:59:33Z</time>
      </trkpt>
      <trkpt lat="43.49277" lon="6.62792">
        <ele>28.5</ele>
        <time>2023-11-05T11:59:34Z</time>
      </trkpt>
      <trkpt lat="43.49277" lon="6.62792">
        <ele>28.5</ele>
        <time>2023-11-05T11:59:35Z</time>
      </trkpt>
      <trkpt lat="43.49278" lon="6.62793">
        <ele>28.5</ele>
        <time>2023-11-05T11:59:36Z</time>
      </trkpt>
      <trkpt lat="43.49278" lon="6.62793">
        <ele>28.5</ele>
        <time>2023-11-05T11:59:37Z</time>
      </trkpt>
      <trkpt lat="43.49278" lon="6.62793">
        <ele>28.5</ele>
        <time>2023-11-05T11:59:38Z</time>
      </trkpt>
      <trkpt lat="43.49278" lon="6.62793">
        <ele>28.5</ele>
        <time>2023-11-05T11:59:39Z</time>
      </trkpt>
      <trkpt lat="43.49278" lon="6.62793">
        <ele>28.5</ele>
        <time>2023-11-05T11:59:40Z</time>
      </trkpt>
      <trkpt lat="43.49278" lon="6.62793">
        <ele>28.4</ele>
        <time>2023-11-05T11:59:41Z</time>
      </trkpt>
      <trkpt lat="43.49278" lon="6.62793">
        <ele>28.3</ele>
        <time>2023-11-05T11:59:42Z</time>
      </trkpt>
      <trkpt lat="43.49278" lon="6.62793">
        <ele>28.2</ele>
        <time>2023-11-05T11:59:43Z</time>
      </trkpt>
      <trkpt lat="43.49278" lon="6.62793">
        <ele>28.2</ele>
        <time>2023-11-05T11:59:44Z</time>
      </trkpt>
      <trkpt lat="43.49277" lon="6.62793">
        <ele>28.1</ele>
        <time>2023-11-05T11:59:45Z</time>
      </trkpt>
      <trkpt lat="43.49277" lon="6.62793">
        <ele>28</ele>
        <time>2023-11-05T11:59:46Z</time>
      </trkpt>
      <trkpt lat="43.49277" lon="6.62793">
        <ele>27.9</ele>
        <time>2023-11-05T11:59:47Z</time>
      </trkpt>
      <trkpt lat="43.49277" lon="6.62793">
        <ele>27.8</ele>
        <time>2023-11-05T11:59:48Z</time>
      </trkpt>
      <trkpt lat="43.49277" lon="6.62793">
        <ele>27.8</ele>
        <time>2023-11-05T11:59:49Z</time>
      </trkpt>
      <trkpt lat="43.49277" lon="6.62792">
        <ele>27.9</ele>
        <time>2023-11-05T11:59:50Z</time>
      </trkpt>
      <trkpt lat="43.49277" lon="6.62792">
        <ele>27.8</ele>
        <time>2023-11-05T11:59:51Z</time>
      </trkpt>
      <trkpt lat="43.49277" lon="6.62792">
        <ele>28</ele>
        <time>2023-11-05T11:59:52Z</time>
      </trkpt>
      <trkpt lat="43.49277" lon="6.62792">
        <ele>28</ele>
        <time>2023-11-05T11:59:53Z</time>
      </trkpt>
      <trkpt lat="43.49277" lon="6.62792">
        <ele>27.9</ele>
        <time>2023-11-05T11:59:54Z</time>
      </trkpt>
      <trkpt lat="43.49277" lon="6.62792">
        <ele>28</ele>
        <time>2023-11-05T11:59:55Z</time>
      </trkpt>
      <trkpt lat="43.49277" lon="6.62792">
        <ele>28.1</ele>
        <time>2023-11-05T11:59:56Z</time>
      </trkpt>
      <trkpt lat="43.49277" lon="6.62792">
        <ele>28.1</ele>
        <time>2023-11-05T11:59:57Z</time>
      </trkpt>
      <trkpt lat="43.49277" lon="6.62792">
        <ele>28.1</ele>
        <time>2023-11-05T11:59:58Z</time>
      </trkpt>
      <trkpt lat="43.49277" lon="6.62792">
        <ele>28.1</ele>
        <time>2023-11-05T11:59:59Z</time>
      </trkpt>
      <trkpt lat="43.49277" lon="6.62792">
        <ele>28.1</ele>
        <time>2023-11-05T12:00:00Z</time>
      </trkpt>
      <trkpt lat="43.49277" lon="6.62792">
        <ele>28.1</ele>
        <time>2023-11-05T12:00:01Z</time>
      </trkpt>
      <trkpt lat="43.49277" lon="6.62792">
        <ele>28</ele>
        <time>2023-11-05T12:00:02Z</time>
      </trkpt>
      <trkpt lat="43.49277" lon="6.62792">
        <ele>28</ele>
        <time>2023-11-05T12:00:03Z</time>
      </trkpt>
      <trkpt lat="43.49277" lon="6.62792">
        <ele>28</ele>
        <time>2023-11-05T12:00:04Z</time>
      </trkpt>
      <trkpt lat="43.49277" lon="6.62792">
        <ele>28</ele>
        <time>2023-11-05T12:00:05Z</time>
      </trkpt>
      <trkpt lat="43.49277" lon="6.62793">
        <ele>28</ele>
        <time>2023-11-05T12:00:06Z</time>
      </trkpt>
      <trkpt lat="43.49277" lon="6.62793">
        <ele>28</ele>
        <time>2023-11-05T12:00:07Z</time>
      </trkpt>
      <trkpt lat="43.49277" lon="6.62792">
        <ele>28</ele>
        <time>2023-11-05T12:00:08Z</time>
      </trkpt>
      <trkpt lat="43.49277" lon="6.62792">
        <ele>28</ele>
        <time>2023-11-05T12:00:09Z</time>
      </trkpt>
      <trkpt lat="43.49277" lon="6.62792">
        <ele>27.9</ele>
        <time>2023-11-05T12:00:10Z</time>
      </trkpt>
      <trkpt lat="43.49277" lon="6.62792">
        <ele>27.9</ele>
        <time>2023-11-05T12:00:11Z</time>
      </trkpt>
      <trkpt lat="43.49277" lon="6.62792">
        <ele>27.8</ele>
        <time>2023-11-05T12:00:12Z</time>
      </trkpt>
      <trkpt lat="43.49277" lon="6.62792">
        <ele>27.7</ele>
        <time>2023-11-05T12:00:13Z</time>
      </trkpt>
      <trkpt lat="43.49276" lon="6.62792">
        <ele>27.7</ele>
        <time>2023-11-05T12:00:14Z</time>
      </trkpt>
      <trkpt lat="43.49276" lon="6.62792">
        <ele>27.6</ele>
        <time>2023-11-05T12:00:15Z</time>
      </trkpt>
      <trkpt lat="43.49276" lon="6.62792">
        <ele>27.6</ele>
        <time>2023-11-05T12:00:16Z</time>
      </trkpt>
      <trkpt lat="43.49276" lon="6.62792">
        <ele>27.6</ele>
        <time>2023-11-05T12:00:17Z</time>
      </trkpt>
      <trkpt lat="43.49276" lon="6.62792">
        <ele>27.5</ele>
        <time>2023-11-05T12:00:18Z</time>
      </trkpt>
      <trkpt lat="43.49276" lon="6.62792">
        <ele>27.5</ele>
        <time>2023-11-05T12:00:19Z</time>
      </trkpt>
      <trkpt lat="43.49276" lon="6.62792">
        <ele>27.5</ele>
        <time>2023-11-05T12:00:20Z</time>
      </trkpt>
      <trkpt lat="43.49276" lon="6.62792">
        <ele>27.4</ele>
        <time>2023-11-05T12:00:21Z</time>
      </trkpt>
      <trkpt lat="43.49276" lon="6.62792">
        <ele>27.4</ele>
        <time>2023-11-05T12:00:22Z</time>
      </trkpt>
      <trkpt lat="43.49276" lon="6.62792">
        <ele>27.3</ele>
        <time>2023-11-05T12:00:23Z</time>
      </trkpt>
      <trkpt lat="43.49276" lon="6.62791">
        <ele>27.3</ele>
        <time>2023-11-05T12:00:24Z</time>
      </trkpt>
      <trkpt lat="43.49276" lon="6.62791">
        <ele>27.3</ele>
        <time>2023-11-05T12:00:25Z</time>
      </trkpt>
      <trkpt lat="43.49276" lon="6.62791">
        <ele>27.3</ele>
        <time>2023-11-05T12:00:26Z</time>
      </trkpt>
      <trkpt lat="43.49276" lon="6.62791">
        <ele>27.3</ele>
        <time>2023-11-05T12:00:27Z</time>
      </trkpt>
      <trkpt lat="43.49276" lon="6.62791">
        <ele>27.4</ele>
        <time>2023-11-05T12:00:28Z</time>
      </trkpt>
      <trkpt lat="43.49276" lon="6.62791">
        <ele>27.4</ele>
        <time>2023-11-05T12:00:29Z</time>
      </trkpt>
      <trkpt lat="43.49276" lon="6.62791">
        <ele>27.5</ele>
        <time>2023-11-05T12:00:30Z</time>
      </trkpt>
      <trkpt lat="43.49276" lon="6.62791">
        <ele>27.6</ele>
        <time>2023-11-05T12:00:31Z</time>
      </trkpt>
      <trkpt lat="43.49276" lon="6.62791">
        <ele>27.7</ele>
        <time>2023-11-05T12:00:32Z</time>
      </trkpt>
      <trkpt lat="43.49276" lon="6.62791">
        <ele>27.8</ele>
        <time>2023-11-05T12:00:33Z</time>
      </trkpt>
      <trkpt lat="43.49276" lon="6.62791">
        <ele>27.9</ele>
        <time>2023-11-05T12:00:34Z</time>
      </trkpt>
      <trkpt lat="43.49276" lon="6.62791">
        <ele>27.9</ele>
        <time>2023-11-05T12:00:35Z</time>
      </trkpt>
      <trkpt lat="43.49276" lon="6.62791">
        <ele>27.8</ele>
        <time>2023-11-05T12:00:36Z</time>
      </trkpt>
      <trkpt lat="43.49276" lon="6.62791">
        <ele>27.8</ele>
        <time>2023-11-05T12:00:37Z</time>
      </trkpt>
      <trkpt lat="43.49276" lon="6.62791">
        <ele>27.9</ele>
        <time>2023-11-05T12:00:38Z</time>
      </trkpt>
      <trkpt lat="43.49276" lon="6.62791">
        <ele>27.9</ele>
        <time>2023-11-05T12:00:39Z</time>
      </trkpt>
      <trkpt lat="43.49276" lon="6.62791">
        <ele>27.9</ele>
        <time>2023-11-05T12:00:40Z</time>
      </trkpt>
      <trkpt lat="43.49276" lon="6.62791">
        <ele>27.9</ele>
        <time>2023-11-05T12:00:41Z</time>
      </trkpt>
      <trkpt lat="43.49276" lon="6.62791">
        <ele>27.9</ele>
        <time>2023-11-05T12:00:42Z</time>
      </trkpt>
      <trkpt lat="43.49276" lon="6.62791">
        <ele>27.9</ele>
        <time>2023-11-05T12:00:43Z</time>
      </trkpt>
      <trkpt lat="43.49276" lon="6.62791">
        <ele>27.9</ele>
        <time>2023-11-05T12:00:44Z</time>
      </trkpt>
      <trkpt lat="43.49276" lon="6.62791">
        <ele>28.1</ele>
        <time>2023-11-05T12:00:45Z</time>
      </trkpt>
      <trkpt lat="43.49276" lon="6.62791">
        <ele>28.2</ele>
        <time>2023-11-05T12:00:46Z</time>
      </trkpt>
      <trkpt lat="43.49276" lon="6.62792">
        <ele>28.3</ele>
        <time>2023-11-05T12:00:47Z</time>
      </trkpt>
      <trkpt lat="43.49276" lon="6.62792">
        <ele>28.3</ele>
        <time>2023-11-05T12:00:48Z</time>
      </trkpt>
      <trkpt lat="43.49276" lon="6.62792">
        <ele>28.3</ele>
        <time>2023-11-05T12:00:49Z</time>
      </trkpt>
      <trkpt lat="43.49276" lon="6.62791">
        <ele>28.2</ele>
        <time>2023-11-05T12:00:50Z</time>
      </trkpt>
      <trkpt lat="43.49276" lon="6.62791">
        <ele>28.2</ele>
        <time>2023-11-05T12:00:51Z</time>
      </trkpt>
      <trkpt lat="43.49276" lon="6.62791">
        <ele>28.3</ele>
        <time>2023-11-05T12:00:52Z</time>
      </trkpt>
      <trkpt lat="43.49276" lon="6.62791">
        <ele>28.2</ele>
        <time>2023-11-05T12:00:53Z</time>
      </trkpt>
      <trkpt lat="43.49276" lon="6.62791">
        <ele>28.1</ele>
        <time>2023-11-05T12:00:54Z</time>
      </trkpt>
      <trkpt lat="43.49276" lon="6.62791">
        <ele>28</ele>
        <time>2023-11-05T12:00:55Z</time>
      </trkpt>
      <trkpt lat="43.49276" lon="6.62791">
        <ele>27.9</ele>
        <time>2023-11-05T12:00:56Z</time>
      </trkpt>
      <trkpt lat="43.49276" lon="6.62791">
        <ele>27.9</ele>
        <time>2023-11-05T12:00:57Z</time>
      </trkpt>
      <trkpt lat="43.49276" lon="6.62791">
        <ele>27.8</ele>
        <time>2023-11-05T12:00:58Z</time>
      </trkpt>
      <trkpt lat="43.49276" lon="6.62791">
        <ele>27.8</ele>
        <time>2023-11-05T12:00:59Z</time>
      </trkpt>
      <trkpt lat="43.49276" lon="6.62791">
        <ele>27.8</ele>
        <time>2023-11-05T12:01:00Z</time>
      </trkpt>
      <trkpt lat="43.49276" lon="6.62791">
        <ele>27.8</ele>
        <time>2023-11-05T12:01:01Z</time>
      </trkpt>
      <trkpt lat="43.49276" lon="6.62791">
        <ele>27.9</ele>
        <time>2023-11-05T12:01:02Z</time>
      </trkpt>
      <trkpt lat="43.49276" lon="6.62791">
        <ele>28</ele>
        <time>2023-11-05T12:01:03Z</time>
      </trkpt>
      <trkpt lat="43.49276" lon="6.62791">
        <ele>28.1</ele>
        <time>2023-11-05T12:01:04Z</time>
      </trkpt>
      <trkpt lat="43.49276" lon="6.62791">
        <ele>28.2</ele>
        <time>2023-11-05T12:01:05Z</time>
      </trkpt>
      <trkpt lat="43.49276" lon="6.62791">
        <ele>28.3</ele>
        <time>2023-11-05T12:01:06Z</time>
      </trkpt>
      <trkpt lat="43.49276" lon="6.62791">
        <ele>28.3</ele>
        <time>2023-11-05T12:01:07Z</time>
      </trkpt>
      <trkpt lat="43.49276" lon="6.62791">
        <ele>28.4</ele>
        <time>2023-11-05T12:01:08Z</time>
      </trkpt>
      <trkpt lat="43.49275" lon="6.62791">
        <ele>28.5</ele>
        <time>2023-11-05T12:01:09Z</time>
      </trkpt>
      <trkpt lat="43.49275" lon="6.62791">
        <ele>28.5</ele>
        <time>2023-11-05T12:01:10Z</time>
      </trkpt>
      <trkpt lat="43.49275" lon="6.62791">
        <ele>28.5</ele>
        <time>2023-11-05T12:01:11Z</time>
      </trkpt>
      <trkpt lat="43.49275" lon="6.62791">
        <ele>28.5</ele>
        <time>2023-11-05T12:01:12Z</time>
      </trkpt>
      <trkpt lat="43.49275" lon="6.62791">
        <ele>28.4</ele>
        <time>2023-11-05T12:01:13Z</time>
      </trkpt>
      <trkpt lat="43.49275" lon="6.62791">
        <ele>28.3</ele>
        <time>2023-11-05T12:01:14Z</time>
      </trkpt>
      <trkpt lat="43.49275" lon="6.62791">
        <ele>28.2</ele>
        <time>2023-11-05T12:01:15Z</time>
      </trkpt>
      <trkpt lat="43.49275" lon="6.62791">
        <ele>28.1</ele>
        <time>2023-11-05T12:01:16Z</time>
      </trkpt>
      <trkpt lat="43.49275" lon="6.6279">
        <ele>28</ele>
        <time>2023-11-05T12:01:17Z</time>
      </trkpt>
      <trkpt lat="43.49275" lon="6.6279">
        <ele>28.1</ele>
        <time>2023-11-05T12:01:18Z</time>
      </trkpt>
      <trkpt lat="43.49275" lon="6.6279">
        <ele>28.1</ele>
        <time>2023-11-05T12:01:19Z</time>
      </trkpt>
      <trkpt lat="43.49275" lon="6.6279">
        <ele>28</ele>
        <time>2023-11-05T12:01:20Z</time>
      </trkpt>
      <trkpt lat="43.49276" lon="6.6279">
        <ele>28</ele>
        <time>2023-11-05T12:01:21Z</time>
      </trkpt>
      <trkpt lat="43.49276" lon="6.6279">
        <ele>28</ele>
        <time>2023-11-05T12:01:22Z</time>
      </trkpt>
      <trkpt lat="43.49276" lon="6.6279">
        <ele>28</ele>
        <time>2023-11-05T12:01:23Z</time>
      </trkpt>
      <trkpt lat="43.49276" lon="6.6279">
        <ele>28</ele>
        <time>2023-11-05T12:01:24Z</time>
      </trkpt>
      <trkpt lat="43.49276" lon="6.6279">
        <ele>28.1</ele>
        <time>2023-11-05T12:01:25Z</time>
      </trkpt>
      <trkpt lat="43.49276" lon="6.6279">
        <ele>28.1</ele>
        <time>2023-11-05T12:01:26Z</time>
      </trkpt>
      <trkpt lat="43.49276" lon="6.6279">
        <ele>28.1</ele>
        <time>2023-11-05T12:01:27Z</time>
      </trkpt>
      <trkpt lat="43.49276" lon="6.6279">
        <ele>28.1</ele>
        <time>2023-11-05T12:01:28Z</time>
      </trkpt>
      <trkpt lat="43.49276" lon="6.6279">
        <ele>28.1</ele>
        <time>2023-11-05T12:01:29Z</time>
      </trkpt>
      <trkpt lat="43.49276" lon="6.62791">
        <ele>28.1</ele>
        <time>2023-11-05T12:01:30Z</time>
      </trkpt>
      <trkpt lat="43.49276" lon="6.62791">
        <ele>28.1</ele>
        <time>2023-11-05T12:01:31Z</time>
      </trkpt>
      <trkpt lat="43.49276" lon="6.62791">
        <ele>28.1</ele>
        <time>2023-11-05T12:01:32Z</time>
      </trkpt>
      <trkpt lat="43.49276" lon="6.62791">
        <ele>28.1</ele>
        <time>2023-11-05T12:01:33Z</time>
      </trkpt>
      <trkpt lat="43.49276" lon="6.62791">
        <ele>28</ele>
        <time>2023-11-05T12:01:34Z</time>
      </trkpt>
      <trkpt lat="43.49276" lon="6.62791">
        <ele>28</ele>
        <time>2023-11-05T12:01:35Z</time>
      </trkpt>
      <trkpt lat="43.49276" lon="6.62791">
        <ele>28</ele>
        <time>2023-11-05T12:01:36Z</time>
      </trkpt>
      <trkpt lat="43.49276" lon="6.62791">
        <ele>28</ele>
        <time>2023-11-05T12:01:37Z</time>
      </trkpt>
      <trkpt lat="43.49276" lon="6.62791">
        <ele>28.1</ele>
        <time>2023-11-05T12:01:38Z</time>
      </trkpt>
      <trkpt lat="43.49276" lon="6.62791">
        <ele>28.1</ele>
        <time>2023-11-05T12:01:39Z</time>
      </trkpt>
      <trkpt lat="43.49276" lon="6.62791">
        <ele>28.1</ele>
        <time>2023-11-05T12:01:40Z</time>
      </trkpt>
      <trkpt lat="43.49276" lon="6.62791">
        <ele>28.2</ele>
        <time>2023-11-05T12:01:41Z</time>
      </trkpt>
      <trkpt lat="43.49276" lon="6.62791">
        <ele>28.2</ele>
        <time>2023-11-05T12:01:42Z</time>
      </trkpt>
      <trkpt lat="43.49276" lon="6.62791">
        <ele>28.2</ele>
        <time>2023-11-05T12:01:43Z</time>
      </trkpt>
      <trkpt lat="43.49276" lon="6.62791">
        <ele>28.2</ele>
        <time>2023-11-05T12:01:44Z</time>
      </trkpt>
      <trkpt lat="43.49276" lon="6.62791">
        <ele>28.3</ele>
        <time>2023-11-05T12:01:45Z</time>
      </trkpt>
      <trkpt lat="43.49276" lon="6.62791">
        <ele>28.3</ele>
        <time>2023-11-05T12:01:46Z</time>
      </trkpt>
      <trkpt lat="43.49276" lon="6.62791">
        <ele>28.2</ele>
        <time>2023-11-05T12:01:47Z</time>
      </trkpt>
      <trkpt lat="43.49276" lon="6.62791">
        <ele>28.2</ele>
        <time>2023-11-05T12:01:48Z</time>
      </trkpt>
      <trkpt lat="43.49276" lon="6.62791">
        <ele>28.2</ele>
        <time>2023-11-05T12:01:49Z</time>
      </trkpt>
      <trkpt lat="43.49276" lon="6.62791">
        <ele>28.2</ele>
        <time>2023-11-05T12:01:50Z</time>
      </trkpt>
      <trkpt lat="43.49276" lon="6.62791">
        <ele>28.2</ele>
        <time>2023-11-05T12:01:51Z</time>
      </trkpt>
      <trkpt lat="43.49276" lon="6.62791">
        <ele>28.3</ele>
        <time>2023-11-05T12:01:52Z</time>
      </trkpt>
      <trkpt lat="43.49276" lon="6.62791">
        <ele>28.4</ele>
        <time>2023-11-05T12:01:53Z</time>
      </trkpt>
      <trkpt lat="43.49276" lon="6.62791">
        <ele>28.4</ele>
        <time>2023-11-05T12:01:54Z</time>
      </trkpt>
      <trkpt lat="43.49276" lon="6.62791">
        <ele>28.4</ele>
        <time>2023-11-05T12:01:55Z</time>
      </trkpt>
      <trkpt lat="43.49276" lon="6.62791">
        <ele>28.4</ele>
        <time>2023-11-05T12:01:56Z</time>
      </trkpt>
      <trkpt lat="43.49276" lon="6.62791">
        <ele>28.4</ele>
        <time>2023-11-05T12:01:57Z</time>
      </trkpt>
      <trkpt lat="43.49276" lon="6.62791">
        <ele>28.4</ele>
        <time>2023-11-05T12:01:58Z</time>
      </trkpt>
      <trkpt lat="43.49277" lon="6.62791">
        <ele>28.4</ele>
        <time>2023-11-05T12:01:59Z</time>
      </trkpt>
      <trkpt lat="43.49276" lon="6.62791">
        <ele>28.4</ele>
        <time>2023-11-05T12:02:00Z</time>
      </trkpt>
      <trkpt lat="43.49277" lon="6.62791">
        <ele>28.3</ele>
        <time>2023-11-05T12:02:01Z</time>
      </trkpt>
      <trkpt lat="43.49277" lon="6.62791">
        <ele>28.3</ele>
        <time>2023-11-05T12:02:02Z</time>
      </trkpt>
      <trkpt lat="43.49277" lon="6.62791">
        <ele>28.2</ele>
        <time>2023-11-05T12:02:03Z</time>
      </trkpt>
      <trkpt lat="43.49277" lon="6.62791">
        <ele>28.2</ele>
        <time>2023-11-05T12:02:04Z</time>
      </trkpt>
      <trkpt lat="43.49277" lon="6.62791">
        <ele>28.2</ele>
        <time>2023-11-05T12:02:05Z</time>
      </trkpt>
      <trkpt lat="43.49277" lon="6.62791">
        <ele>28.2</ele>
        <time>2023-11-05T12:02:06Z</time>
      </trkpt>
      <trkpt lat="43.49277" lon="6.62791">
        <ele>28.2</ele>
        <time>2023-11-05T12:02:07Z</time>
      </trkpt>
      <trkpt lat="43.49277" lon="6.62791">
        <ele>28.2</ele>
        <time>2023-11-05T12:02:08Z</time>
      </trkpt>
      <trkpt lat="43.49277" lon="6.62791">
        <ele>28.3</ele>
        <time>2023-11-05T12:02:09Z</time>
      </trkpt>
      <trkpt lat="43.49277" lon="6.62791">
        <ele>28.3</ele>
        <time>2023-11-05T12:02:10Z</time>
      </trkpt>
      <trkpt lat="43.49277" lon="6.62791">
        <ele>28.3</ele>
        <time>2023-11-05T12:02:11Z</time>
      </trkpt>
      <trkpt lat="43.49277" lon="6.62791">
        <ele>28.4</ele>
        <time>2023-11-05T12:02:12Z</time>
      </trkpt>
      <trkpt lat="43.49277" lon="6.62791">
        <ele>28.3</ele>
        <time>2023-11-05T12:02:13Z</time>
      </trkpt>
      <trkpt lat="43.49277" lon="6.62791">
        <ele>28.3</ele>
        <time>2023-11-05T12:02:14Z</time>
      </trkpt>
      <trkpt lat="43.49277" lon="6.62791">
        <ele>28.3</ele>
        <time>2023-11-05T12:02:15Z</time>
      </trkpt>
      <trkpt lat="43.49277" lon="6.62791">
        <ele>28.3</ele>
        <time>2023-11-05T12:02:16Z</time>
      </trkpt>
      <trkpt lat="43.49277" lon="6.62791">
        <ele>28.3</ele>
        <time>2023-11-05T12:02:17Z</time>
      </trkpt>
      <trkpt lat="43.49277" lon="6.62791">
        <ele>28.3</ele>
        <time>2023-11-05T12:02:18Z</time>
      </trkpt>
      <trkpt lat="43.49277" lon="6.62791">
        <ele>28.3</ele>
        <time>2023-11-05T12:02:19Z</time>
      </trkpt>
      <trkpt lat="43.49277" lon="6.62791">
        <ele>28.3</ele>
        <time>2023-11-05T12:02:20Z</time>
      </trkpt>
      <trkpt lat="43.49277" lon="6.62791">
        <ele>28.3</ele>
        <time>2023-11-05T12:02:21Z</time>
      </trkpt>
      <trkpt lat="43.49277" lon="6.62791">
        <ele>28.2</ele>
        <time>2023-11-05T12:02:22Z</time>
      </trkpt>
      <trkpt lat="43.49277" lon="6.62791">
        <ele>28.2</ele>
        <time>2023-11-05T12:02:23Z</time>
      </trkpt>
      <trkpt lat="43.49277" lon="6.62791">
        <ele>28.2</ele>
        <time>2023-11-05T12:02:24Z</time>
      </trkpt>
      <trkpt lat="43.49277" lon="6.62791">
        <ele>28.2</ele>
        <time>2023-11-05T12:02:25Z</time>
      </trkpt>
      <trkpt lat="43.49277" lon="6.62791">
        <ele>28.1</ele>
        <time>2023-11-05T12:02:26Z</time>
      </trkpt>
      <trkpt lat="43.49277" lon="6.62791">
        <ele>28</ele>
        <time>2023-11-05T12:02:27Z</time>
      </trkpt>
      <trkpt lat="43.49277" lon="6.62791">
        <ele>28.1</ele>
        <time>2023-11-05T12:02:28Z</time>
      </trkpt>
      <trkpt lat="43.49277" lon="6.62791">
        <ele>28.1</ele>
        <time>2023-11-05T12:02:29Z</time>
      </trkpt>
      <trkpt lat="43.49277" lon="6.62791">
        <ele>28.1</ele>
        <time>2023-11-05T12:02:30Z</time>
      </trkpt>
      <trkpt lat="43.49277" lon="6.62791">
        <ele>28.3</ele>
        <time>2023-11-05T12:02:31Z</time>
      </trkpt>
      <trkpt lat="43.49277" lon="6.62791">
        <ele>28.3</ele>
        <time>2023-11-05T12:02:32Z</time>
      </trkpt>
      <trkpt lat="43.49277" lon="6.62791">
        <ele>28.3</ele>
        <time>2023-11-05T12:02:33Z</time>
      </trkpt>
      <trkpt lat="43.49277" lon="6.62791">
        <ele>28.3</ele>
        <time>2023-11-05T12:02:34Z</time>
      </trkpt>
      <trkpt lat="43.49277" lon="6.62791">
        <ele>28.3</ele>
        <time>2023-11-05T12:02:35Z</time>
      </trkpt>
      <trkpt lat="43.49277" lon="6.62791">
        <ele>28.3</ele>
        <time>2023-11-05T12:02:36Z</time>
      </trkpt>
      <trkpt lat="43.49277" lon="6.62791">
        <ele>28.3</ele>
        <time>2023-11-05T12:02:37Z</time>
      </trkpt>
      <trkpt lat="43.49277" lon="6.62791">
        <ele>28.4</ele>
        <time>2023-11-05T12:02:38Z</time>
      </trkpt>
      <trkpt lat="43.49277" lon="6.62791">
        <ele>28.4</ele>
        <time>2023-11-05T12:02:39Z</time>
      </trkpt>
      <trkpt lat="43.49276" lon="6.62791">
        <ele>28.4</ele>
        <time>2023-11-05T12:02:40Z</time>
      </trkpt>
      <trkpt lat="43.49276" lon="6.62791">
        <ele>28.3</ele>
        <time>2023-11-05T12:02:41Z</time>
      </trkpt>
      <trkpt lat="43.49276" lon="6.62791">
        <ele>28.2</ele>
        <time>2023-11-05T12:02:42Z</time>
      </trkpt>
      <trkpt lat="43.49276" lon="6.62791">
        <ele>28.2</ele>
        <time>2023-11-05T12:02:43Z</time>
      </trkpt>
      <trkpt lat="43.49276" lon="6.62791">
        <ele>28.1</ele>
        <time>2023-11-05T12:02:44Z</time>
      </trkpt>
      <trkpt lat="43.49276" lon="6.62791">
        <ele>28.1</ele>
        <time>2023-11-05T12:02:45Z</time>
      </trkpt>
      <trkpt lat="43.49276" lon="6.62791">
        <ele>28.1</ele>
        <time>2023-11-05T12:02:46Z</time>
      </trkpt>
      <trkpt lat="43.49276" lon="6.62791">
        <ele>28.1</ele>
        <time>2023-11-05T12:02:47Z</time>
      </trkpt>
      <trkpt lat="43.49276" lon="6.6279">
        <ele>28.1</ele>
        <time>2023-11-05T12:02:48Z</time>
      </trkpt>
      <trkpt lat="43.49276" lon="6.6279">
        <ele>28.1</ele>
        <time>2023-11-05T12:02:49Z</time>
      </trkpt>
      <trkpt lat="43.49276" lon="6.6279">
        <ele>28.1</ele>
        <time>2023-11-05T12:02:50Z</time>
      </trkpt>
      <trkpt lat="43.49276" lon="6.6279">
        <ele>28.1</ele>
        <time>2023-11-05T12:02:51Z</time>
      </trkpt>
      <trkpt lat="43.49276" lon="6.6279">
        <ele>28.1</ele>
        <time>2023-11-05T12:02:52Z</time>
      </trkpt>
      <trkpt lat="43.49276" lon="6.6279">
        <ele>28.2</ele>
        <time>2023-11-05T12:02:53Z</time>
      </trkpt>
      <trkpt lat="43.49276" lon="6.6279">
        <ele>28.2</ele>
        <time>2023-11-05T12:02:54Z</time>
      </trkpt>
      <trkpt lat="43.49276" lon="6.6279">
        <ele>28.3</ele>
        <time>2023-11-05T12:02:55Z</time>
      </trkpt>
      <trkpt lat="43.49276" lon="6.6279">
        <ele>28.4</ele>
        <time>2023-11-05T12:02:56Z</time>
      </trkpt>
      <trkpt lat="43.49276" lon="6.6279">
        <ele>28.5</ele>
        <time>2023-11-05T12:02:57Z</time>
      </trkpt>
      <trkpt lat="43.49276" lon="6.6279">
        <ele>28.6</ele>
        <time>2023-11-05T12:02:58Z</time>
      </trkpt>
      <trkpt lat="43.49276" lon="6.6279">
        <ele>28.6</ele>
        <time>2023-11-05T12:02:59Z</time>
      </trkpt>
      <trkpt lat="43.49276" lon="6.6279">
        <ele>28.6</ele>
        <time>2023-11-05T12:03:00Z</time>
      </trkpt>
      <trkpt lat="43.49276" lon="6.6279">
        <ele>28.6</ele>
        <time>2023-11-05T12:03:01Z</time>
      </trkpt>
      <trkpt lat="43.49276" lon="6.6279">
        <ele>28.6</ele>
        <time>2023-11-05T12:03:02Z</time>
      </trkpt>
      <trkpt lat="43.49276" lon="6.6279">
        <ele>28.6</ele>
        <time>2023-11-05T12:03:03Z</time>
      </trkpt>
      <trkpt lat="43.49276" lon="6.6279">
        <ele>28.6</ele>
        <time>2023-11-05T12:03:04Z</time>
      </trkpt>
      <trkpt lat="43.49276" lon="6.6279">
        <ele>28.7</ele>
        <time>2023-11-05T12:03:05Z</time>
      </trkpt>
      <trkpt lat="43.49276" lon="6.6279">
        <ele>28.7</ele>
        <time>2023-11-05T12:03:06Z</time>
      </trkpt>
      <trkpt lat="43.49276" lon="6.62789">
        <ele>28.7</ele>
        <time>2023-11-05T12:03:07Z</time>
      </trkpt>
      <trkpt lat="43.49275" lon="6.62789">
        <ele>28.7</ele>
        <time>2023-11-05T12:03:08Z</time>
      </trkpt>
      <trkpt lat="43.49275" lon="6.62789">
        <ele>28.8</ele>
        <time>2023-11-05T12:03:09Z</time>
      </trkpt>
      <trkpt lat="43.49275" lon="6.62789">
        <ele>28.7</ele>
        <time>2023-11-05T12:03:10Z</time>
      </trkpt>
      <trkpt lat="43.49275" lon="6.62789">
        <ele>28.7</ele>
        <time>2023-11-05T12:03:11Z</time>
      </trkpt>
      <trkpt lat="43.49275" lon="6.62789">
        <ele>28.7</ele>
        <time>2023-11-05T12:03:12Z</time>
      </trkpt>
      <trkpt lat="43.49275" lon="6.62789">
        <ele>28.6</ele>
        <time>2023-11-05T12:03:13Z</time>
      </trkpt>
      <trkpt lat="43.49275" lon="6.62789">
        <ele>28.6</ele>
        <time>2023-11-05T12:03:14Z</time>
      </trkpt>
      <trkpt lat="43.49275" lon="6.62788">
        <ele>28.6</ele>
        <time>2023-11-05T12:03:15Z</time>
      </trkpt>
      <trkpt lat="43.49275" lon="6.62788">
        <ele>28.6</ele>
        <time>2023-11-05T12:03:16Z</time>
      </trkpt>
      <trkpt lat="43.49275" lon="6.62788">
        <ele>28.7</ele>
        <time>2023-11-05T12:03:17Z</time>
      </trkpt>
      <trkpt lat="43.49275" lon="6.62788">
        <ele>28.8</ele>
        <time>2023-11-05T12:03:18Z</time>
      </trkpt>
      <trkpt lat="43.49275" lon="6.62788">
        <ele>28.9</ele>
        <time>2023-11-05T12:03:19Z</time>
      </trkpt>
      <trkpt lat="43.49275" lon="6.62788">
        <ele>28.8</ele>
        <time>2023-11-05T12:03:20Z</time>
      </trkpt>
      <trkpt lat="43.49275" lon="6.62788">
        <ele>28.7</ele>
        <time>2023-11-05T12:03:21Z</time>
      </trkpt>
      <trkpt lat="43.49275" lon="6.62788">
        <ele>28.7</ele>
        <time>2023-11-05T12:03:22Z</time>
      </trkpt>
      <trkpt lat="43.49275" lon="6.62789">
        <ele>28.6</ele>
        <time>2023-11-05T12:03:23Z</time>
      </trkpt>
      <trkpt lat="43.49275" lon="6.62789">
        <ele>28.6</ele>
        <time>2023-11-05T12:03:24Z</time>
      </trkpt>
      <trkpt lat="43.49275" lon="6.62789">
        <ele>28.6</ele>
        <time>2023-11-05T12:03:25Z</time>
      </trkpt>
      <trkpt lat="43.49275" lon="6.62789">
        <ele>28.6</ele>
        <time>2023-11-05T12:03:26Z</time>
      </trkpt>
      <trkpt lat="43.49275" lon="6.62789">
        <ele>28.6</ele>
        <time>2023-11-05T12:03:27Z</time>
      </trkpt>
      <trkpt lat="43.49275" lon="6.62789">
        <ele>28.6</ele>
        <time>2023-11-05T12:03:28Z</time>
      </trkpt>
      <trkpt lat="43.49275" lon="6.62789">
        <ele>28.7</ele>
        <time>2023-11-05T12:03:29Z</time>
      </trkpt>
      <trkpt lat="43.49275" lon="6.62789">
        <ele>28.5</ele>
        <time>2023-11-05T12:03:30Z</time>
      </trkpt>
      <trkpt lat="43.49275" lon="6.62789">
        <ele>28.5</ele>
        <time>2023-11-05T12:03:31Z</time>
      </trkpt>
      <trkpt lat="43.49275" lon="6.62789">
        <ele>28.5</ele>
        <time>2023-11-05T12:03:32Z</time>
      </trkpt>
      <trkpt lat="43.49275" lon="6.62789">
        <ele>28.4</ele>
        <time>2023-11-05T12:03:33Z</time>
      </trkpt>
      <trkpt lat="43.49275" lon="6.62789">
        <ele>28.6</ele>
        <time>2023-11-05T12:03:34Z</time>
      </trkpt>
      <trkpt lat="43.49275" lon="6.62789">
        <ele>28.6</ele>
        <time>2023-11-05T12:03:35Z</time>
      </trkpt>
      <trkpt lat="43.49275" lon="6.6279">
        <ele>28.7</ele>
        <time>2023-11-05T12:03:36Z</time>
      </trkpt>
      <trkpt lat="43.49275" lon="6.6279">
        <ele>28.6</ele>
        <time>2023-11-05T12:03:37Z</time>
      </trkpt>
      <trkpt lat="43.49275" lon="6.6279">
        <ele>28.6</ele>
        <time>2023-11-05T12:03:38Z</time>
      </trkpt>
      <trkpt lat="43.49276" lon="6.6279">
        <ele>28.6</ele>
        <time>2023-11-05T12:03:39Z</time>
      </trkpt>
      <trkpt lat="43.49276" lon="6.6279">
        <ele>28.6</ele>
        <time>2023-11-05T12:03:40Z</time>
      </trkpt>
      <trkpt lat="43.49276" lon="6.6279">
        <ele>28.7</ele>
        <time>2023-11-05T12:03:41Z</time>
      </trkpt>
      <trkpt lat="43.49276" lon="6.6279">
        <ele>28.7</ele>
        <time>2023-11-05T12:03:42Z</time>
      </trkpt>
      <trkpt lat="43.49276" lon="6.6279">
        <ele>28.7</ele>
        <time>2023-11-05T12:03:43Z</time>
      </trkpt>
      <trkpt lat="43.49276" lon="6.6279">
        <ele>28.6</ele>
        <time>2023-11-05T12:03:44Z</time>
      </trkpt>
      <trkpt lat="43.49276" lon="6.6279">
        <ele>28.5</ele>
        <time>2023-11-05T12:03:45Z</time>
      </trkpt>
      <trkpt lat="43.49276" lon="6.6279">
        <ele>28.4</ele>
        <time>2023-11-05T12:03:46Z</time>
      </trkpt>
      <trkpt lat="43.49276" lon="6.6279">
        <ele>28.4</ele>
        <time>2023-11-05T12:03:47Z</time>
      </trkpt>
      <trkpt lat="43.49276" lon="6.6279">
        <ele>28.4</ele>
        <time>2023-11-05T12:03:48Z</time>
      </trkpt>
      <trkpt lat="43.49276" lon="6.6279">
        <ele>28.4</ele>
        <time>2023-11-05T12:03:49Z</time>
      </trkpt>
      <trkpt lat="43.49276" lon="6.6279">
        <ele>28.4</ele>
        <time>2023-11-05T12:03:50Z</time>
      </trkpt>
      <trkpt lat="43.49276" lon="6.6279">
        <ele>28.4</ele>
        <time>2023-11-05T12:03:51Z</time>
      </trkpt>
      <trkpt lat="43.49276" lon="6.6279">
        <ele>28.5</ele>
        <time>2023-11-05T12:03:52Z</time>
      </trkpt>
      <trkpt lat="43.49276" lon="6.62791">
        <ele>28.5</ele>
        <time>2023-11-05T12:03:53Z</time>
      </trkpt>
      <trkpt lat="43.49276" lon="6.62791">
        <ele>28.5</ele>
        <time>2023-11-05T12:03:54Z</time>
      </trkpt>
      <trkpt lat="43.49276" lon="6.62791">
        <ele>28.5</ele>
        <time>2023-11-05T12:03:55Z</time>
      </trkpt>
      <trkpt lat="43.49276" lon="6.62791">
        <ele>28.4</ele>
        <time>2023-11-05T12:03:56Z</time>
      </trkpt>
      <trkpt lat="43.49276" lon="6.62791">
        <ele>28.1</ele>
        <time>2023-11-05T12:03:57Z</time>
      </trkpt>
      <trkpt lat="43.49276" lon="6.62791">
        <ele>28.1</ele>
        <time>2023-11-05T12:03:58Z</time>
      </trkpt>
      <trkpt lat="43.49276" lon="6.62791">
        <ele>28</ele>
        <time>2023-11-05T12:03:59Z</time>
      </trkpt>
      <trkpt lat="43.49276" lon="6.62791">
        <ele>27.9</ele>
        <time>2023-11-05T12:04:00Z</time>
      </trkpt>
      <trkpt lat="43.49277" lon="6.62791">
        <ele>27.7</ele>
        <time>2023-11-05T12:04:01Z</time>
      </trkpt>
      <trkpt lat="43.49277" lon="6.62791">
        <ele>27.7</ele>
        <time>2023-11-05T12:04:02Z</time>
      </trkpt>
      <trkpt lat="43.49277" lon="6.62791">
        <ele>27.6</ele>
        <time>2023-11-05T12:04:03Z</time>
      </trkpt>
      <trkpt lat="43.49277" lon="6.62792">
        <ele>27.6</ele>
        <time>2023-11-05T12:04:04Z</time>
      </trkpt>
      <trkpt lat="43.49277" lon="6.62792">
        <ele>27.6</ele>
        <time>2023-11-05T12:04:05Z</time>
      </trkpt>
      <trkpt lat="43.49277" lon="6.62792">
        <ele>27.7</ele>
        <time>2023-11-05T12:04:06Z</time>
      </trkpt>
      <trkpt lat="43.49277" lon="6.62792">
        <ele>27.7</ele>
        <time>2023-11-05T12:04:07Z</time>
      </trkpt>
      <trkpt lat="43.49277" lon="6.62792">
        <ele>27.7</ele>
        <time>2023-11-05T12:04:08Z</time>
      </trkpt>
      <trkpt lat="43.49277" lon="6.62792">
        <ele>27.6</ele>
        <time>2023-11-05T12:04:09Z</time>
      </trkpt>
      <trkpt lat="43.49277" lon="6.62792">
        <ele>27.6</ele>
        <time>2023-11-05T12:04:10Z</time>
      </trkpt>
      <trkpt lat="43.49277" lon="6.62792">
        <ele>27.8</ele>
        <time>2023-11-05T12:04:11Z</time>
      </trkpt>
      <trkpt lat="43.49277" lon="6.62792">
        <ele>27.9</ele>
        <time>2023-11-05T12:04:12Z</time>
      </trkpt>
      <trkpt lat="43.49277" lon="6.62792">
        <ele>27.9</ele>
        <time>2023-11-05T12:04:13Z</time>
      </trkpt>
      <trkpt lat="43.49277" lon="6.62792">
        <ele>28.1</ele>
        <time>2023-11-05T12:04:14Z</time>
      </trkpt>
      <trkpt lat="43.49277" lon="6.62792">
        <ele>28.2</ele>
        <time>2023-11-05T12:04:15Z</time>
      </trkpt>
      <trkpt lat="43.49277" lon="6.62792">
        <ele>28.3</ele>
        <time>2023-11-05T12:04:16Z</time>
      </trkpt>
      <trkpt lat="43.49277" lon="6.62792">
        <ele>28.4</ele>
        <time>2023-11-05T12:04:17Z</time>
      </trkpt>
      <trkpt lat="43.49277" lon="6.62792">
        <ele>28.4</ele>
        <time>2023-11-05T12:04:18Z</time>
      </trkpt>
      <trkpt lat="43.49277" lon="6.62792">
        <ele>28.4</ele>
        <time>2023-11-05T12:04:19Z</time>
      </trkpt>
      <trkpt lat="43.49277" lon="6.62792">
        <ele>28.4</ele>
        <time>2023-11-05T12:04:20Z</time>
      </trkpt>
      <trkpt lat="43.49277" lon="6.62791">
        <ele>28.4</ele>
        <time>2023-11-05T12:04:21Z</time>
      </trkpt>
      <trkpt lat="43.49276" lon="6.62791">
        <ele>28.3</ele>
        <time>2023-11-05T12:04:22Z</time>
      </trkpt>
      <trkpt lat="43.49276" lon="6.62791">
        <ele>28.3</ele>
        <time>2023-11-05T12:04:23Z</time>
      </trkpt>
      <trkpt lat="43.49276" lon="6.62791">
        <ele>28.3</ele>
        <time>2023-11-05T12:04:24Z</time>
      </trkpt>
      <trkpt lat="43.49276" lon="6.62791">
        <ele>28.3</ele>
        <time>2023-11-05T12:04:25Z</time>
      </trkpt>
      <trkpt lat="43.49276" lon="6.62791">
        <ele>28.2</ele>
        <time>2023-11-05T12:04:26Z</time>
      </trkpt>
      <trkpt lat="43.49276" lon="6.62791">
        <ele>28.2</ele>
        <time>2023-11-05T12:04:27Z</time>
      </trkpt>
      <trkpt lat="43.49276" lon="6.62791">
        <ele>28.2</ele>
        <time>2023-11-05T12:04:28Z</time>
      </trkpt>
      <trkpt lat="43.49276" lon="6.62791">
        <ele>28.2</ele>
        <time>2023-11-05T12:04:29Z</time>
      </trkpt>
      <trkpt lat="43.49276" lon="6.62791">
        <ele>28.2</ele>
        <time>2023-11-05T12:04:30Z</time>
      </trkpt>
      <trkpt lat="43.49276" lon="6.62791">
        <ele>28.2</ele>
        <time>2023-11-05T12:04:31Z</time>
      </trkpt>
      <trkpt lat="43.49276" lon="6.62791">
        <ele>28.2</ele>
        <time>2023-11-05T12:04:32Z</time>
      </trkpt>
      <trkpt lat="43.49276" lon="6.6279">
        <ele>28.2</ele>
        <time>2023-11-05T12:04:33Z</time>
      </trkpt>
      <trkpt lat="43.49276" lon="6.6279">
        <ele>28.1</ele>
        <time>2023-11-05T12:04:34Z</time>
      </trkpt>
      <trkpt lat="43.49276" lon="6.6279">
        <ele>28.1</ele>
        <time>2023-11-05T12:04:35Z</time>
      </trkpt>
      <trkpt lat="43.49275" lon="6.6279">
        <ele>28.1</ele>
        <time>2023-11-05T12:04:36Z</time>
      </trkpt>
      <trkpt lat="43.49275" lon="6.6279">
        <ele>28.1</ele>
        <time>2023-11-05T12:04:37Z</time>
      </trkpt>
      <trkpt lat="43.49275" lon="6.6279">
        <ele>28.2</ele>
        <time>2023-11-05T12:04:38Z</time>
      </trkpt>
      <trkpt lat="43.49275" lon="6.6279">
        <ele>28.2</ele>
        <time>2023-11-05T12:04:39Z</time>
      </trkpt>
      <trkpt lat="43.49275" lon="6.6279">
        <ele>28.1</ele>
        <time>2023-11-05T12:04:40Z</time>
      </trkpt>
      <trkpt lat="43.49275" lon="6.6279">
        <ele>28</ele>
        <time>2023-11-05T12:04:41Z</time>
      </trkpt>
      <trkpt lat="43.49275" lon="6.6279">
        <ele>27.9</ele>
        <time>2023-11-05T12:04:42Z</time>
      </trkpt>
      <trkpt lat="43.49275" lon="6.6279">
        <ele>27.8</ele>
        <time>2023-11-05T12:04:43Z</time>
      </trkpt>
      <trkpt lat="43.49275" lon="6.6279">
        <ele>27.8</ele>
        <time>2023-11-05T12:04:44Z</time>
      </trkpt>
      <trkpt lat="43.49275" lon="6.6279">
        <ele>27.8</ele>
        <time>2023-11-05T12:04:45Z</time>
      </trkpt>
      <trkpt lat="43.49275" lon="6.6279">
        <ele>27.7</ele>
        <time>2023-11-05T12:04:46Z</time>
      </trkpt>
      <trkpt lat="43.49275" lon="6.6279">
        <ele>27.8</ele>
        <time>2023-11-05T12:04:47Z</time>
      </trkpt>
      <trkpt lat="43.49275" lon="6.6279">
        <ele>27.8</ele>
        <time>2023-11-05T12:04:48Z</time>
      </trkpt>
      <trkpt lat="43.49275" lon="6.6279">
        <ele>27.8</ele>
        <time>2023-11-05T12:04:49Z</time>
      </trkpt>
      <trkpt lat="43.49275" lon="6.6279">
        <ele>27.9</ele>
        <time>2023-11-05T12:04:50Z</time>
      </trkpt>
      <trkpt lat="43.49275" lon="6.6279">
        <ele>28</ele>
        <time>2023-11-05T12:04:51Z</time>
      </trkpt>
      <trkpt lat="43.49275" lon="6.6279">
        <ele>28</ele>
        <time>2023-11-05T12:04:52Z</time>
      </trkpt>
      <trkpt lat="43.49275" lon="6.6279">
        <ele>28</ele>
        <time>2023-11-05T12:04:53Z</time>
      </trkpt>
      <trkpt lat="43.49275" lon="6.6279">
        <ele>28.1</ele>
        <time>2023-11-05T12:04:54Z</time>
      </trkpt>
      <trkpt lat="43.49275" lon="6.6279">
        <ele>28.1</ele>
        <time>2023-11-05T12:04:55Z</time>
      </trkpt>
      <trkpt lat="43.49275" lon="6.6279">
        <ele>28.1</ele>
        <time>2023-11-05T12:04:56Z</time>
      </trkpt>
      <trkpt lat="43.49275" lon="6.6279">
        <ele>28.2</ele>
        <time>2023-11-05T12:04:57Z</time>
      </trkpt>
      <trkpt lat="43.49275" lon="6.6279">
        <ele>28.1</ele>
        <time>2023-11-05T12:04:58Z</time>
      </trkpt>
      <trkpt lat="43.49276" lon="6.6279">
        <ele>28.2</ele>
        <time>2023-11-05T12:04:59Z</time>
      </trkpt>
      <trkpt lat="43.49276" lon="6.6279">
        <ele>28.3</ele>
        <time>2023-11-05T12:05:00Z</time>
      </trkpt>
      <trkpt lat="43.49276" lon="6.6279">
        <ele>28.2</ele>
        <time>2023-11-05T12:05:01Z</time>
      </trkpt>
      <trkpt lat="43.49276" lon="6.6279">
        <ele>28.2</ele>
        <time>2023-11-05T12:05:02Z</time>
      </trkpt>
      <trkpt lat="43.49276" lon="6.6279">
        <ele>28.1</ele>
        <time>2023-11-05T12:05:03Z</time>
      </trkpt>
      <trkpt lat="43.49276" lon="6.6279">
        <ele>28</ele>
        <time>2023-11-05T12:05:04Z</time>
      </trkpt>
      <trkpt lat="43.49276" lon="6.6279">
        <ele>27.9</ele>
        <time>2023-11-05T12:05:05Z</time>
      </trkpt>
      <trkpt lat="43.49276" lon="6.6279">
        <ele>27.8</ele>
        <time>2023-11-05T12:05:06Z</time>
      </trkpt>
      <trkpt lat="43.49276" lon="6.6279">
        <ele>27.8</ele>
        <time>2023-11-05T12:05:07Z</time>
      </trkpt>
      <trkpt lat="43.49276" lon="6.6279">
        <ele>27.8</ele>
        <time>2023-11-05T12:05:08Z</time>
      </trkpt>
      <trkpt lat="43.49276" lon="6.6279">
        <ele>27.8</ele>
        <time>2023-11-05T12:05:09Z</time>
      </trkpt>
      <trkpt lat="43.49276" lon="6.6279">
        <ele>27.7</ele>
        <time>2023-11-05T12:05:10Z</time>
      </trkpt>
      <trkpt lat="43.49276" lon="6.6279">
        <ele>27.7</ele>
        <time>2023-11-05T12:05:11Z</time>
      </trkpt>
      <trkpt lat="43.49276" lon="6.6279">
        <ele>27.6</ele>
        <time>2023-11-05T12:05:12Z</time>
      </trkpt>
      <trkpt lat="43.49276" lon="6.6279">
        <ele>27.8</ele>
        <time>2023-11-05T12:05:13Z</time>
      </trkpt>
      <trkpt lat="43.49276" lon="6.6279">
        <ele>27.8</ele>
        <time>2023-11-05T12:05:14Z</time>
      </trkpt>
      <trkpt lat="43.49276" lon="6.6279">
        <ele>27.9</ele>
        <time>2023-11-05T12:05:15Z</time>
      </trkpt>
      <trkpt lat="43.49276" lon="6.6279">
        <ele>28</ele>
        <time>2023-11-05T12:05:16Z</time>
      </trkpt>
      <trkpt lat="43.49275" lon="6.6279">
        <ele>28.2</ele>
        <time>2023-11-05T12:05:17Z</time>
      </trkpt>
      <trkpt lat="43.49275" lon="6.6279">
        <ele>28.1</ele>
        <time>2023-11-05T12:05:18Z</time>
      </trkpt>
      <trkpt lat="43.49275" lon="6.6279">
        <ele>28.1</ele>
        <time>2023-11-05T12:05:19Z</time>
      </trkpt>
      <trkpt lat="43.49275" lon="6.6279">
        <ele>28.1</ele>
        <time>2023-11-05T12:05:20Z</time>
      </trkpt>
      <trkpt lat="43.49275" lon="6.6279">
        <ele>28</ele>
        <time>2023-11-05T12:05:21Z</time>
      </trkpt>
      <trkpt lat="43.49275" lon="6.6279">
        <ele>28</ele>
        <time>2023-11-05T12:05:22Z</time>
      </trkpt>
      <trkpt lat="43.49275" lon="6.6279">
        <ele>27.9</ele>
        <time>2023-11-05T12:05:23Z</time>
      </trkpt>
      <trkpt lat="43.49275" lon="6.6279">
        <ele>27.9</ele>
        <time>2023-11-05T12:05:24Z</time>
      </trkpt>
      <trkpt lat="43.49275" lon="6.6279">
        <ele>27.9</ele>
        <time>2023-11-05T12:05:25Z</time>
      </trkpt>
      <trkpt lat="43.49275" lon="6.6279">
        <ele>27.8</ele>
        <time>2023-11-05T12:05:26Z</time>
      </trkpt>
      <trkpt lat="43.49275" lon="6.6279">
        <ele>27.8</ele>
        <time>2023-11-05T12:05:27Z</time>
      </trkpt>
      <trkpt lat="43.49275" lon="6.6279">
        <ele>27.7</ele>
        <time>2023-11-05T12:05:28Z</time>
      </trkpt>
      <trkpt lat="43.49275" lon="6.6279">
        <ele>27.6</ele>
        <time>2023-11-05T12:05:29Z</time>
      </trkpt>
      <trkpt lat="43.49275" lon="6.6279">
        <ele>27.6</ele>
        <time>2023-11-05T12:05:30Z</time>
      </trkpt>
      <trkpt lat="43.49275" lon="6.6279">
        <ele>27.7</ele>
        <time>2023-11-05T12:05:31Z</time>
      </trkpt>
      <trkpt lat="43.49275" lon="6.6279">
        <ele>27.7</ele>
        <time>2023-11-05T12:05:32Z</time>
      </trkpt>
      <trkpt lat="43.49275" lon="6.6279">
        <ele>27.7</ele>
        <time>2023-11-05T12:05:33Z</time>
      </trkpt>
      <trkpt lat="43.49275" lon="6.6279">
        <ele>27.8</ele>
        <time>2023-11-05T12:05:34Z</time>
      </trkpt>
      <trkpt lat="43.49275" lon="6.6279">
        <ele>27.9</ele>
        <time>2023-11-05T12:05:35Z</time>
      </trkpt>
      <trkpt lat="43.49275" lon="6.6279">
        <ele>28</ele>
        <time>2023-11-05T12:05:36Z</time>
      </trkpt>
      <trkpt lat="43.49276" lon="6.6279">
        <ele>28.1</ele>
        <time>2023-11-05T12:05:37Z</time>
      </trkpt>
      <trkpt lat="43.49276" lon="6.6279">
        <ele>28</ele>
        <time>2023-11-05T12:05:38Z</time>
      </trkpt>
      <trkpt lat="43.49276" lon="6.6279">
        <ele>28.1</ele>
        <time>2023-11-05T12:05:39Z</time>
      </trkpt>
      <trkpt lat="43.49276" lon="6.6279">
        <ele>28.1</ele>
        <time>2023-11-05T12:05:40Z</time>
      </trkpt>
      <trkpt lat="43.49276" lon="6.6279">
        <ele>28.1</ele>
        <time>2023-11-05T12:05:41Z</time>
      </trkpt>
      <trkpt lat="43.49276" lon="6.6279">
        <ele>28.1</ele>
        <time>2023-11-05T12:05:42Z</time>
      </trkpt>
      <trkpt lat="43.49276" lon="6.62791">
        <ele>28.2</ele>
        <time>2023-11-05T12:05:43Z</time>
      </trkpt>
      <trkpt lat="43.49276" lon="6.62791">
        <ele>28.2</ele>
        <time>2023-11-05T12:05:44Z</time>
      </trkpt>
      <trkpt lat="43.49276" lon="6.62791">
        <ele>28.1</ele>
        <time>2023-11-05T12:05:45Z</time>
      </trkpt>
      <trkpt lat="43.49276" lon="6.62791">
        <ele>28</ele>
        <time>2023-11-05T12:05:46Z</time>
      </trkpt>
      <trkpt lat="43.49276" lon="6.62791">
        <ele>28</ele>
        <time>2023-11-05T12:05:47Z</time>
      </trkpt>
      <trkpt lat="43.49276" lon="6.62791">
        <ele>27.9</ele>
        <time>2023-11-05T12:05:48Z</time>
      </trkpt>
      <trkpt lat="43.49276" lon="6.62791">
        <ele>27.9</ele>
        <time>2023-11-05T12:05:49Z</time>
      </trkpt>
      <trkpt lat="43.49276" lon="6.62791">
        <ele>28</ele>
        <time>2023-11-05T12:05:50Z</time>
      </trkpt>
      <trkpt lat="43.49276" lon="6.62791">
        <ele>28</ele>
        <time>2023-11-05T12:05:51Z</time>
      </trkpt>
      <trkpt lat="43.49276" lon="6.62791">
        <ele>28</ele>
        <time>2023-11-05T12:05:52Z</time>
      </trkpt>
      <trkpt lat="43.49277" lon="6.62791">
        <ele>28</ele>
        <time>2023-11-05T12:05:53Z</time>
      </trkpt>
      <trkpt lat="43.49277" lon="6.62791">
        <ele>28</ele>
        <time>2023-11-05T12:05:54Z</time>
      </trkpt>
      <trkpt lat="43.49277" lon="6.62791">
        <ele>28.1</ele>
        <time>2023-11-05T12:05:55Z</time>
      </trkpt>
      <trkpt lat="43.49277" lon="6.62791">
        <ele>28.1</ele>
        <time>2023-11-05T12:05:56Z</time>
      </trkpt>
      <trkpt lat="43.49277" lon="6.62791">
        <ele>28.1</ele>
        <time>2023-11-05T12:05:57Z</time>
      </trkpt>
      <trkpt lat="43.49277" lon="6.62791">
        <ele>28</ele>
        <time>2023-11-05T12:05:58Z</time>
      </trkpt>
      <trkpt lat="43.49277" lon="6.62791">
        <ele>27.9</ele>
        <time>2023-11-05T12:05:59Z</time>
      </trkpt>
      <trkpt lat="43.49277" lon="6.62791">
        <ele>27.9</ele>
        <time>2023-11-05T12:06:00Z</time>
      </trkpt>
      <trkpt lat="43.49277" lon="6.62791">
        <ele>27.9</ele>
        <time>2023-11-05T12:06:01Z</time>
      </trkpt>
      <trkpt lat="43.49277" lon="6.62791">
        <ele>28</ele>
        <time>2023-11-05T12:06:02Z</time>
      </trkpt>
      <trkpt lat="43.49277" lon="6.62791">
        <ele>28</ele>
        <time>2023-11-05T12:06:03Z</time>
      </trkpt>
      <trkpt lat="43.49277" lon="6.62791">
        <ele>28</ele>
        <time>2023-11-05T12:06:04Z</time>
      </trkpt>
      <trkpt lat="43.49277" lon="6.62791">
        <ele>28</ele>
        <time>2023-11-05T12:06:05Z</time>
      </trkpt>
      <trkpt lat="43.49276" lon="6.62791">
        <ele>28</ele>
        <time>2023-11-05T12:06:06Z</time>
      </trkpt>
      <trkpt lat="43.49276" lon="6.62791">
        <ele>28</ele>
        <time>2023-11-05T12:06:07Z</time>
      </trkpt>
      <trkpt lat="43.49276" lon="6.62791">
        <ele>28</ele>
        <time>2023-11-05T12:06:08Z</time>
      </trkpt>
      <trkpt lat="43.49276" lon="6.62791">
        <ele>27.9</ele>
        <time>2023-11-05T12:06:09Z</time>
      </trkpt>
      <trkpt lat="43.49276" lon="6.62791">
        <ele>27.9</ele>
        <time>2023-11-05T12:06:10Z</time>
      </trkpt>
      <trkpt lat="43.49277" lon="6.62791">
        <ele>27.9</ele>
        <time>2023-11-05T12:06:11Z</time>
      </trkpt>
      <trkpt lat="43.49277" lon="6.62791">
        <ele>27.8</ele>
        <time>2023-11-05T12:06:12Z</time>
      </trkpt>
      <trkpt lat="43.49277" lon="6.62791">
        <ele>27.7</ele>
        <time>2023-11-05T12:06:13Z</time>
      </trkpt>
      <trkpt lat="43.49277" lon="6.62791">
        <ele>27.7</ele>
        <time>2023-11-05T12:06:14Z</time>
      </trkpt>
      <trkpt lat="43.49277" lon="6.62791">
        <ele>27.6</ele>
        <time>2023-11-05T12:06:15Z</time>
      </trkpt>
      <trkpt lat="43.49277" lon="6.62791">
        <ele>27.5</ele>
        <time>2023-11-05T12:06:16Z</time>
      </trkpt>
      <trkpt lat="43.49277" lon="6.62792">
        <ele>27.5</ele>
        <time>2023-11-05T12:06:17Z</time>
      </trkpt>
      <trkpt lat="43.49277" lon="6.62792">
        <ele>27.5</ele>
        <time>2023-11-05T12:06:18Z</time>
      </trkpt>
      <trkpt lat="43.49277" lon="6.62792">
        <ele>27.5</ele>
        <time>2023-11-05T12:06:19Z</time>
      </trkpt>
      <trkpt lat="43.49277" lon="6.62792">
        <ele>27.5</ele>
        <time>2023-11-05T12:06:20Z</time>
      </trkpt>
      <trkpt lat="43.49277" lon="6.62792">
        <ele>27.5</ele>
        <time>2023-11-05T12:06:21Z</time>
      </trkpt>
      <trkpt lat="43.49277" lon="6.62792">
        <ele>27.5</ele>
        <time>2023-11-05T12:06:22Z</time>
      </trkpt>
      <trkpt lat="43.49277" lon="6.62792">
        <ele>27.5</ele>
        <time>2023-11-05T12:06:23Z</time>
      </trkpt>
      <trkpt lat="43.49277" lon="6.62792">
        <ele>27.5</ele>
        <time>2023-11-05T12:06:24Z</time>
      </trkpt>
      <trkpt lat="43.49277" lon="6.62792">
        <ele>27.5</ele>
        <time>2023-11-05T12:06:25Z</time>
      </trkpt>
      <trkpt lat="43.49277" lon="6.62792">
        <ele>27.5</ele>
        <time>2023-11-05T12:06:26Z</time>
      </trkpt>
      <trkpt lat="43.49277" lon="6.62793">
        <ele>27.5</ele>
        <time>2023-11-05T12:06:27Z</time>
      </trkpt>
      <trkpt lat="43.49277" lon="6.62793">
        <ele>27.5</ele>
        <time>2023-11-05T12:06:28Z</time>
      </trkpt>
      <trkpt lat="43.49277" lon="6.62793">
        <ele>27.6</ele>
        <time>2023-11-05T12:06:29Z</time>
      </trkpt>
      <trkpt lat="43.49277" lon="6.62793">
        <ele>27.5</ele>
        <time>2023-11-05T12:06:30Z</time>
      </trkpt>
      <trkpt lat="43.49277" lon="6.62793">
        <ele>27.5</ele>
        <time>2023-11-05T12:06:31Z</time>
      </trkpt>
      <trkpt lat="43.49277" lon="6.62793">
        <ele>27.5</ele>
        <time>2023-11-05T12:06:32Z</time>
      </trkpt>
      <trkpt lat="43.49278" lon="6.62793">
        <ele>27.4</ele>
        <time>2023-11-05T12:06:33Z</time>
      </trkpt>
      <trkpt lat="43.49278" lon="6.62793">
        <ele>27.3</ele>
        <time>2023-11-05T12:06:34Z</time>
      </trkpt>
      <trkpt lat="43.49278" lon="6.62793">
        <ele>27.3</ele>
        <time>2023-11-05T12:06:35Z</time>
      </trkpt>
      <trkpt lat="43.49278" lon="6.62793">
        <ele>27.3</ele>
        <time>2023-11-05T12:06:36Z</time>
      </trkpt>
      <trkpt lat="43.49278" lon="6.62793">
        <ele>27.2</ele>
        <time>2023-11-05T12:06:37Z</time>
      </trkpt>
      <trkpt lat="43.49278" lon="6.62793">
        <ele>27.1</ele>
        <time>2023-11-05T12:06:38Z</time>
      </trkpt>
      <trkpt lat="43.49278" lon="6.62793">
        <ele>27</ele>
        <time>2023-11-05T12:06:39Z</time>
      </trkpt>
      <trkpt lat="43.49278" lon="6.62793">
        <ele>27.1</ele>
        <time>2023-11-05T12:06:40Z</time>
      </trkpt>
      <trkpt lat="43.49277" lon="6.62793">
        <ele>27.1</ele>
        <time>2023-11-05T12:06:41Z</time>
      </trkpt>
      <trkpt lat="43.49277" lon="6.62793">
        <ele>27.1</ele>
        <time>2023-11-05T12:06:42Z</time>
      </trkpt>
      <trkpt lat="43.49277" lon="6.62793">
        <ele>27.1</ele>
        <time>2023-11-05T12:06:43Z</time>
      </trkpt>
      <trkpt lat="43.49277" lon="6.62793">
        <ele>27.1</ele>
        <time>2023-11-05T12:06:44Z</time>
      </trkpt>
      <trkpt lat="43.49277" lon="6.62793">
        <ele>27.1</ele>
        <time>2023-11-05T12:06:45Z</time>
      </trkpt>
      <trkpt lat="43.49277" lon="6.62793">
        <ele>27.1</ele>
        <time>2023-11-05T12:06:46Z</time>
      </trkpt>
      <trkpt lat="43.49277" lon="6.62793">
        <ele>27.2</ele>
        <time>2023-11-05T12:06:47Z</time>
      </trkpt>
      <trkpt lat="43.49277" lon="6.62793">
        <ele>27.3</ele>
        <time>2023-11-05T12:06:48Z</time>
      </trkpt>
      <trkpt lat="43.49277" lon="6.62793">
        <ele>27.4</ele>
        <time>2023-11-05T12:06:49Z</time>
      </trkpt>
      <trkpt lat="43.49277" lon="6.62793">
        <ele>27.4</ele>
        <time>2023-11-05T12:06:50Z</time>
      </trkpt>
      <trkpt lat="43.49277" lon="6.62793">
        <ele>27.3</ele>
        <time>2023-11-05T12:06:51Z</time>
      </trkpt>
      <trkpt lat="43.49277" lon="6.62793">
        <ele>27.3</ele>
        <time>2023-11-05T12:06:52Z</time>
      </trkpt>
      <trkpt lat="43.49277" lon="6.62793">
        <ele>27.3</ele>
        <time>2023-11-05T12:06:53Z</time>
      </trkpt>
      <trkpt lat="43.49277" lon="6.62793">
        <ele>27.2</ele>
        <time>2023-11-05T12:06:54Z</time>
      </trkpt>
      <trkpt lat="43.49277" lon="6.62793">
        <ele>27.2</ele>
        <time>2023-11-05T12:06:55Z</time>
      </trkpt>
      <trkpt lat="43.49277" lon="6.62793">
        <ele>27.1</ele>
        <time>2023-11-05T12:06:56Z</time>
      </trkpt>
      <trkpt lat="43.49277" lon="6.62792">
        <ele>27.1</ele>
        <time>2023-11-05T12:06:57Z</time>
      </trkpt>
      <trkpt lat="43.49277" lon="6.62792">
        <ele>27.1</ele>
        <time>2023-11-05T12:06:58Z</time>
      </trkpt>
      <trkpt lat="43.49277" lon="6.62792">
        <ele>27</ele>
        <time>2023-11-05T12:06:59Z</time>
      </trkpt>
      <trkpt lat="43.49277" lon="6.62792">
        <ele>27</ele>
        <time>2023-11-05T12:07:00Z</time>
      </trkpt>
      <trkpt lat="43.49277" lon="6.62792">
        <ele>27</ele>
        <time>2023-11-05T12:07:01Z</time>
      </trkpt>
      <trkpt lat="43.49277" lon="6.62792">
        <ele>27</ele>
        <time>2023-11-05T12:07:02Z</time>
      </trkpt>
      <trkpt lat="43.49277" lon="6.62792">
        <ele>27.1</ele>
        <time>2023-11-05T12:07:03Z</time>
      </trkpt>
      <trkpt lat="43.49277" lon="6.62792">
        <ele>27.2</ele>
        <time>2023-11-05T12:07:04Z</time>
      </trkpt>
      <trkpt lat="43.49277" lon="6.62793">
        <ele>27.3</ele>
        <time>2023-11-05T12:07:05Z</time>
      </trkpt>
      <trkpt lat="43.49277" lon="6.62793">
        <ele>27.3</ele>
        <time>2023-11-05T12:07:06Z</time>
      </trkpt>
      <trkpt lat="43.49277" lon="6.62793">
        <ele>27.4</ele>
        <time>2023-11-05T12:07:07Z</time>
      </trkpt>
      <trkpt lat="43.49277" lon="6.62793">
        <ele>27.5</ele>
        <time>2023-11-05T12:07:08Z</time>
      </trkpt>
      <trkpt lat="43.49277" lon="6.62793">
        <ele>27.6</ele>
        <time>2023-11-05T12:07:09Z</time>
      </trkpt>
      <trkpt lat="43.49277" lon="6.62793">
        <ele>27.6</ele>
        <time>2023-11-05T12:07:10Z</time>
      </trkpt>
      <trkpt lat="43.49277" lon="6.62793">
        <ele>27.7</ele>
        <time>2023-11-05T12:07:11Z</time>
      </trkpt>
      <trkpt lat="43.49277" lon="6.62793">
        <ele>27.9</ele>
        <time>2023-11-05T12:07:12Z</time>
      </trkpt>
      <trkpt lat="43.49277" lon="6.62793">
        <ele>27.9</ele>
        <time>2023-11-05T12:07:13Z</time>
      </trkpt>
      <trkpt lat="43.49277" lon="6.62793">
        <ele>28</ele>
        <time>2023-11-05T12:07:14Z</time>
      </trkpt>
      <trkpt lat="43.49277" lon="6.62793">
        <ele>28</ele>
        <time>2023-11-05T12:07:15Z</time>
      </trkpt>
      <trkpt lat="43.49277" lon="6.62793">
        <ele>28.1</ele>
        <time>2023-11-05T12:07:16Z</time>
      </trkpt>
      <trkpt lat="43.49277" lon="6.62792">
        <ele>28.1</ele>
        <time>2023-11-05T12:07:17Z</time>
      </trkpt>
      <trkpt lat="43.49277" lon="6.62792">
        <ele>28.2</ele>
        <time>2023-11-05T12:07:18Z</time>
      </trkpt>
      <trkpt lat="43.49276" lon="6.62793">
        <ele>28.2</ele>
        <time>2023-11-05T12:07:19Z</time>
      </trkpt>
      <trkpt lat="43.49277" lon="6.62793">
        <ele>28.2</ele>
        <time>2023-11-05T12:07:20Z</time>
      </trkpt>
      <trkpt lat="43.49277" lon="6.62793">
        <ele>28.3</ele>
        <time>2023-11-05T12:07:21Z</time>
      </trkpt>
      <trkpt lat="43.49277" lon="6.62793">
        <ele>28.3</ele>
        <time>2023-11-05T12:07:22Z</time>
      </trkpt>
      <trkpt lat="43.49277" lon="6.62793">
        <ele>28.2</ele>
        <time>2023-11-05T12:07:23Z</time>
      </trkpt>
      <trkpt lat="43.49277" lon="6.62793">
        <ele>28.2</ele>
        <time>2023-11-05T12:07:24Z</time>
      </trkpt>
      <trkpt lat="43.49277" lon="6.62793">
        <ele>28.2</ele>
        <time>2023-11-05T12:07:25Z</time>
      </trkpt>
      <trkpt lat="43.49277" lon="6.62794">
        <ele>28.2</ele>
        <time>2023-11-05T12:07:26Z</time>
      </trkpt>
      <trkpt lat="43.49277" lon="6.62794">
        <ele>28.2</ele>
        <time>2023-11-05T12:07:27Z</time>
      </trkpt>
      <trkpt lat="43.49277" lon="6.62794">
        <ele>28.2</ele>
        <time>2023-11-05T12:07:28Z</time>
      </trkpt>
      <trkpt lat="43.49277" lon="6.62794">
        <ele>28.3</ele>
        <time>2023-11-05T12:07:29Z</time>
      </trkpt>
      <trkpt lat="43.49277" lon="6.62794">
        <ele>28.4</ele>
        <time>2023-11-05T12:07:30Z</time>
      </trkpt>
      <trkpt lat="43.49277" lon="6.62794">
        <ele>28.4</ele>
        <time>2023-11-05T12:07:31Z</time>
      </trkpt>
      <trkpt lat="43.49277" lon="6.62794">
        <ele>28.5</ele>
        <time>2023-11-05T12:07:32Z</time>
      </trkpt>
      <trkpt lat="43.49277" lon="6.62794">
        <ele>28.5</ele>
        <time>2023-11-05T12:07:33Z</time>
      </trkpt>
      <trkpt lat="43.49277" lon="6.62794">
        <ele>28.5</ele>
        <time>2023-11-05T12:07:34Z</time>
      </trkpt>
      <trkpt lat="43.49277" lon="6.62794">
        <ele>28.5</ele>
        <time>2023-11-05T12:07:35Z</time>
      </trkpt>
      <trkpt lat="43.49277" lon="6.62794">
        <ele>28.5</ele>
        <time>2023-11-05T12:07:36Z</time>
      </trkpt>
      <trkpt lat="43.49277" lon="6.62795">
        <ele>28.4</ele>
        <time>2023-11-05T12:07:37Z</time>
      </trkpt>
      <trkpt lat="43.49277" lon="6.62795">
        <ele>28.4</ele>
        <time>2023-11-05T12:07:38Z</time>
      </trkpt>
      <trkpt lat="43.49277" lon="6.62795">
        <ele>28.5</ele>
        <time>2023-11-05T12:07:39Z</time>
      </trkpt>
      <trkpt lat="43.49277" lon="6.62795">
        <ele>28.5</ele>
        <time>2023-11-05T12:07:40Z</time>
      </trkpt>
      <trkpt lat="43.49277" lon="6.62795">
        <ele>28.4</ele>
        <time>2023-11-05T12:07:41Z</time>
      </trkpt>
      <trkpt lat="43.49277" lon="6.62795">
        <ele>28.4</ele>
        <time>2023-11-05T12:07:42Z</time>
      </trkpt>
      <trkpt lat="43.49277" lon="6.62795">
        <ele>28.4</ele>
        <time>2023-11-05T12:07:43Z</time>
      </trkpt>
      <trkpt lat="43.49277" lon="6.62795">
        <ele>28.4</ele>
        <time>2023-11-05T12:07:44Z</time>
      </trkpt>
      <trkpt lat="43.49277" lon="6.62795">
        <ele>28.3</ele>
        <time>2023-11-05T12:07:45Z</time>
      </trkpt>
      <trkpt lat="43.49277" lon="6.62795">
        <ele>28.2</ele>
        <time>2023-11-05T12:07:46Z</time>
      </trkpt>
      <trkpt lat="43.49277" lon="6.62795">
        <ele>28.1</ele>
        <time>2023-11-05T12:07:47Z</time>
      </trkpt>
      <trkpt lat="43.49277" lon="6.62795">
        <ele>28.1</ele>
        <time>2023-11-05T12:07:48Z</time>
      </trkpt>
      <trkpt lat="43.49277" lon="6.62795">
        <ele>28</ele>
        <time>2023-11-05T12:07:49Z</time>
      </trkpt>
      <trkpt lat="43.49277" lon="6.62795">
        <ele>28</ele>
        <time>2023-11-05T12:07:50Z</time>
      </trkpt>
      <trkpt lat="43.49277" lon="6.62795">
        <ele>28</ele>
        <time>2023-11-05T12:07:51Z</time>
      </trkpt>
      <trkpt lat="43.49277" lon="6.62795">
        <ele>28</ele>
        <time>2023-11-05T12:07:52Z</time>
      </trkpt>
      <trkpt lat="43.49277" lon="6.62795">
        <ele>27.9</ele>
        <time>2023-11-05T12:07:53Z</time>
      </trkpt>
      <trkpt lat="43.49277" lon="6.62795">
        <ele>27.9</ele>
        <time>2023-11-05T12:07:54Z</time>
      </trkpt>
      <trkpt lat="43.49277" lon="6.62795">
        <ele>27.9</ele>
        <time>2023-11-05T12:07:55Z</time>
      </trkpt>
      <trkpt lat="43.49277" lon="6.62795">
        <ele>27.9</ele>
        <time>2023-11-05T12:07:56Z</time>
      </trkpt>
      <trkpt lat="43.49277" lon="6.62795">
        <ele>27.8</ele>
        <time>2023-11-05T12:07:57Z</time>
      </trkpt>
      <trkpt lat="43.49277" lon="6.62795">
        <ele>27.7</ele>
        <time>2023-11-05T12:07:58Z</time>
      </trkpt>
      <trkpt lat="43.49277" lon="6.62795">
        <ele>27.6</ele>
        <time>2023-11-05T12:07:59Z</time>
      </trkpt>
      <trkpt lat="43.49276" lon="6.62795">
        <ele>27.6</ele>
        <time>2023-11-05T12:08:00Z</time>
      </trkpt>
      <trkpt lat="43.49276" lon="6.62795">
        <ele>27.5</ele>
        <time>2023-11-05T12:08:01Z</time>
      </trkpt>
      <trkpt lat="43.49277" lon="6.62795">
        <ele>27.5</ele>
        <time>2023-11-05T12:08:02Z</time>
      </trkpt>
      <trkpt lat="43.49277" lon="6.62795">
        <ele>27.5</ele>
        <time>2023-11-05T12:08:03Z</time>
      </trkpt>
      <trkpt lat="43.49277" lon="6.62795">
        <ele>27.5</ele>
        <time>2023-11-05T12:08:04Z</time>
      </trkpt>
      <trkpt lat="43.49277" lon="6.62794">
        <ele>27.4</ele>
        <time>2023-11-05T12:08:05Z</time>
      </trkpt>
      <trkpt lat="43.49277" lon="6.62794">
        <ele>27.4</ele>
        <time>2023-11-05T12:08:06Z</time>
      </trkpt>
      <trkpt lat="43.49277" lon="6.62794">
        <ele>27.2</ele>
        <time>2023-11-05T12:08:07Z</time>
      </trkpt>
      <trkpt lat="43.49277" lon="6.62794">
        <ele>27.1</ele>
        <time>2023-11-05T12:08:08Z</time>
      </trkpt>
      <trkpt lat="43.49277" lon="6.62794">
        <ele>27.1</ele>
        <time>2023-11-05T12:08:09Z</time>
      </trkpt>
      <trkpt lat="43.49277" lon="6.62794">
        <ele>27</ele>
        <time>2023-11-05T12:08:10Z</time>
      </trkpt>
      <trkpt lat="43.49277" lon="6.62794">
        <ele>27</ele>
        <time>2023-11-05T12:08:11Z</time>
      </trkpt>
      <trkpt lat="43.49277" lon="6.62794">
        <ele>27</ele>
        <time>2023-11-05T12:08:12Z</time>
      </trkpt>
      <trkpt lat="43.49277" lon="6.62794">
        <ele>26.9</ele>
        <time>2023-11-05T12:08:13Z</time>
      </trkpt>
      <trkpt lat="43.49277" lon="6.62794">
        <ele>26.9</ele>
        <time>2023-11-05T12:08:14Z</time>
      </trkpt>
      <trkpt lat="43.49277" lon="6.62794">
        <ele>26.9</ele>
        <time>2023-11-05T12:08:15Z</time>
      </trkpt>
      <trkpt lat="43.49277" lon="6.62794">
        <ele>26.9</ele>
        <time>2023-11-05T12:08:16Z</time>
      </trkpt>
      <trkpt lat="43.49277" lon="6.62794">
        <ele>26.9</ele>
        <time>2023-11-05T12:08:17Z</time>
      </trkpt>
      <trkpt lat="43.49277" lon="6.62794">
        <ele>26.8</ele>
        <time>2023-11-05T12:08:18Z</time>
      </trkpt>
      <trkpt lat="43.49277" lon="6.62794">
        <ele>27</ele>
        <time>2023-11-05T12:08:19Z</time>
      </trkpt>
      <trkpt lat="43.49277" lon="6.62794">
        <ele>27</ele>
        <time>2023-11-05T12:08:20Z</time>
      </trkpt>
      <trkpt lat="43.49277" lon="6.62794">
        <ele>27</ele>
        <time>2023-11-05T12:08:21Z</time>
      </trkpt>
      <trkpt lat="43.49277" lon="6.62794">
        <ele>26.9</ele>
        <time>2023-11-05T12:08:22Z</time>
      </trkpt>
      <trkpt lat="43.49276" lon="6.62794">
        <ele>26.9</ele>
        <time>2023-11-05T12:08:23Z</time>
      </trkpt>
      <trkpt lat="43.49276" lon="6.62794">
        <ele>26.8</ele>
        <time>2023-11-05T12:08:24Z</time>
      </trkpt>
      <trkpt lat="43.49276" lon="6.62794">
        <ele>26.8</ele>
        <time>2023-11-05T12:08:25Z</time>
      </trkpt>
      <trkpt lat="43.49276" lon="6.62794">
        <ele>26.7</ele>
        <time>2023-11-05T12:08:26Z</time>
      </trkpt>
      <trkpt lat="43.49276" lon="6.62794">
        <ele>26.8</ele>
        <time>2023-11-05T12:08:27Z</time>
      </trkpt>
      <trkpt lat="43.49276" lon="6.62794">
        <ele>26.8</ele>
        <time>2023-11-05T12:08:28Z</time>
      </trkpt>
      <trkpt lat="43.49276" lon="6.62794">
        <ele>26.8</ele>
        <time>2023-11-05T12:08:29Z</time>
      </trkpt>
      <trkpt lat="43.49276" lon="6.62794">
        <ele>26.8</ele>
        <time>2023-11-05T12:08:30Z</time>
      </trkpt>
      <trkpt lat="43.49276" lon="6.62794">
        <ele>26.8</ele>
        <time>2023-11-05T12:08:31Z</time>
      </trkpt>
      <trkpt lat="43.49276" lon="6.62794">
        <ele>26.8</ele>
        <time>2023-11-05T12:08:32Z</time>
      </trkpt>
      <trkpt lat="43.49276" lon="6.62794">
        <ele>26.9</ele>
        <time>2023-11-05T12:08:33Z</time>
      </trkpt>
      <trkpt lat="43.49276" lon="6.62794">
        <ele>26.9</ele>
        <time>2023-11-05T12:08:34Z</time>
      </trkpt>
      <trkpt lat="43.49277" lon="6.62794">
        <ele>26.9</ele>
        <time>2023-11-05T12:08:35Z</time>
      </trkpt>
      <trkpt lat="43.49277" lon="6.62794">
        <ele>26.9</ele>
        <time>2023-11-05T12:08:36Z</time>
      </trkpt>
      <trkpt lat="43.49277" lon="6.62794">
        <ele>26.8</ele>
        <time>2023-11-05T12:08:37Z</time>
      </trkpt>
      <trkpt lat="43.49277" lon="6.62794">
        <ele>26.8</ele>
        <time>2023-11-05T12:08:38Z</time>
      </trkpt>
      <trkpt lat="43.49277" lon="6.62794">
        <ele>26.7</ele>
        <time>2023-11-05T12:08:39Z</time>
      </trkpt>
      <trkpt lat="43.49277" lon="6.62793">
        <ele>26.7</ele>
        <time>2023-11-05T12:08:40Z</time>
      </trkpt>
      <trkpt lat="43.49277" lon="6.62793">
        <ele>26.7</ele>
        <time>2023-11-05T12:08:41Z</time>
      </trkpt>
      <trkpt lat="43.49277" lon="6.62793">
        <ele>26.8</ele>
        <time>2023-11-05T12:08:42Z</time>
      </trkpt>
      <trkpt lat="43.49277" lon="6.62793">
        <ele>26.8</ele>
        <time>2023-11-05T12:08:43Z</time>
      </trkpt>
      <trkpt lat="43.49277" lon="6.62793">
        <ele>26.8</ele>
        <time>2023-11-05T12:08:44Z</time>
      </trkpt>
      <trkpt lat="43.49277" lon="6.62793">
        <ele>26.7</ele>
        <time>2023-11-05T12:08:45Z</time>
      </trkpt>
      <trkpt lat="43.49277" lon="6.62793">
        <ele>26.7</ele>
        <time>2023-11-05T12:08:46Z</time>
      </trkpt>
      <trkpt lat="43.49277" lon="6.62793">
        <ele>26.8</ele>
        <time>2023-11-05T12:08:47Z</time>
      </trkpt>
      <trkpt lat="43.49277" lon="6.62793">
        <ele>26.8</ele>
        <time>2023-11-05T12:08:48Z</time>
      </trkpt>
      <trkpt lat="43.49277" lon="6.62793">
        <ele>26.7</ele>
        <time>2023-11-05T12:08:49Z</time>
      </trkpt>
      <trkpt lat="43.49277" lon="6.62793">
        <ele>26.7</ele>
        <time>2023-11-05T12:08:50Z</time>
      </trkpt>
      <trkpt lat="43.49277" lon="6.62793">
        <ele>26.6</ele>
        <time>2023-11-05T12:08:51Z</time>
      </trkpt>
      <trkpt lat="43.49277" lon="6.62793">
        <ele>26.6</ele>
        <time>2023-11-05T12:08:52Z</time>
      </trkpt>
      <trkpt lat="43.49277" lon="6.62793">
        <ele>26.6</ele>
        <time>2023-11-05T12:08:53Z</time>
      </trkpt>
      <trkpt lat="43.49277" lon="6.62793">
        <ele>26.6</ele>
        <time>2023-11-05T12:08:54Z</time>
      </trkpt>
      <trkpt lat="43.49277" lon="6.62793">
        <ele>26.6</ele>
        <time>2023-11-05T12:08:55Z</time>
      </trkpt>
      <trkpt lat="43.49277" lon="6.62793">
        <ele>26.5</ele>
        <time>2023-11-05T12:08:56Z</time>
      </trkpt>
      <trkpt lat="43.49277" lon="6.62793">
        <ele>26.5</ele>
        <time>2023-11-05T12:08:57Z</time>
      </trkpt>
      <trkpt lat="43.49277" lon="6.62793">
        <ele>26.5</ele>
        <time>2023-11-05T12:08:58Z</time>
      </trkpt>
      <trkpt lat="43.49277" lon="6.62793">
        <ele>26.5</ele>
        <time>2023-11-05T12:08:59Z</time>
      </trkpt>
      <trkpt lat="43.49277" lon="6.62793">
        <ele>26.5</ele>
        <time>2023-11-05T12:09:00Z</time>
      </trkpt>
      <trkpt lat="43.49277" lon="6.62793">
        <ele>26.5</ele>
        <time>2023-11-05T12:09:01Z</time>
      </trkpt>
      <trkpt lat="43.49278" lon="6.62793">
        <ele>26.4</ele>
        <time>2023-11-05T12:09:02Z</time>
      </trkpt>
      <trkpt lat="43.49278" lon="6.62793">
        <ele>26.4</ele>
        <time>2023-11-05T12:09:03Z</time>
      </trkpt>
      <trkpt lat="43.49278" lon="6.62793">
        <ele>26.4</ele>
        <time>2023-11-05T12:09:04Z</time>
      </trkpt>
      <trkpt lat="43.49278" lon="6.62793">
        <ele>26.4</ele>
        <time>2023-11-05T12:09:05Z</time>
      </trkpt>
      <trkpt lat="43.49278" lon="6.62792">
        <ele>26.4</ele>
        <time>2023-11-05T12:09:06Z</time>
      </trkpt>
      <trkpt lat="43.49278" lon="6.62792">
        <ele>26.3</ele>
        <time>2023-11-05T12:09:07Z</time>
      </trkpt>
      <trkpt lat="43.49278" lon="6.62792">
        <ele>26.3</ele>
        <time>2023-11-05T12:09:08Z</time>
      </trkpt>
      <trkpt lat="43.49278" lon="6.62792">
        <ele>26.4</ele>
        <time>2023-11-05T12:09:09Z</time>
      </trkpt>
      <trkpt lat="43.49278" lon="6.62792">
        <ele>26.4</ele>
        <time>2023-11-05T12:09:10Z</time>
      </trkpt>
      <trkpt lat="43.49278" lon="6.62792">
        <ele>26.4</ele>
        <time>2023-11-05T12:09:11Z</time>
      </trkpt>
      <trkpt lat="43.49278" lon="6.62792">
        <ele>26.5</ele>
        <time>2023-11-05T12:09:12Z</time>
      </trkpt>
      <trkpt lat="43.49278" lon="6.62792">
        <ele>26.5</ele>
        <time>2023-11-05T12:09:13Z</time>
      </trkpt>
      <trkpt lat="43.49278" lon="6.62793">
        <ele>26.5</ele>
        <time>2023-11-05T12:09:14Z</time>
      </trkpt>
      <trkpt lat="43.49278" lon="6.62793">
        <ele>26.5</ele>
        <time>2023-11-05T12:09:15Z</time>
      </trkpt>
      <trkpt lat="43.49278" lon="6.62793">
        <ele>26.5</ele>
        <time>2023-11-05T12:09:16Z</time>
      </trkpt>
      <trkpt lat="43.49278" lon="6.62793">
        <ele>26.6</ele>
        <time>2023-11-05T12:09:17Z</time>
      </trkpt>
      <trkpt lat="43.49278" lon="6.62793">
        <ele>26.6</ele>
        <time>2023-11-05T12:09:18Z</time>
      </trkpt>
      <trkpt lat="43.49278" lon="6.62793">
        <ele>26.5</ele>
        <time>2023-11-05T12:09:19Z</time>
      </trkpt>
      <trkpt lat="43.49278" lon="6.62793">
        <ele>26.5</ele>
        <time>2023-11-05T12:09:20Z</time>
      </trkpt>
      <trkpt lat="43.49278" lon="6.62793">
        <ele>26.3</ele>
        <time>2023-11-05T12:09:21Z</time>
      </trkpt>
      <trkpt lat="43.49278" lon="6.62793">
        <ele>26.2</ele>
        <time>2023-11-05T12:09:22Z</time>
      </trkpt>
      <trkpt lat="43.49279" lon="6.62793">
        <ele>26.1</ele>
        <time>2023-11-05T12:09:23Z</time>
      </trkpt>
      <trkpt lat="43.49279" lon="6.62793">
        <ele>26.1</ele>
        <time>2023-11-05T12:09:24Z</time>
      </trkpt>
      <trkpt lat="43.49279" lon="6.62793">
        <ele>26</ele>
        <time>2023-11-05T12:09:25Z</time>
      </trkpt>
      <trkpt lat="43.49279" lon="6.62793">
        <ele>26</ele>
        <time>2023-11-05T12:09:26Z</time>
      </trkpt>
      <trkpt lat="43.49279" lon="6.62793">
        <ele>25.9</ele>
        <time>2023-11-05T12:09:27Z</time>
      </trkpt>
      <trkpt lat="43.49279" lon="6.62793">
        <ele>26</ele>
        <time>2023-11-05T12:09:28Z</time>
      </trkpt>
      <trkpt lat="43.49279" lon="6.62793">
        <ele>26</ele>
        <time>2023-11-05T12:09:29Z</time>
      </trkpt>
      <trkpt lat="43.49279" lon="6.62793">
        <ele>26.1</ele>
        <time>2023-11-05T12:09:30Z</time>
      </trkpt>
      <trkpt lat="43.49279" lon="6.62793">
        <ele>26.2</ele>
        <time>2023-11-05T12:09:31Z</time>
      </trkpt>
      <trkpt lat="43.49279" lon="6.62793">
        <ele>26.3</ele>
        <time>2023-11-05T12:09:32Z</time>
      </trkpt>
      <trkpt lat="43.49279" lon="6.62793">
        <ele>26.4</ele>
        <time>2023-11-05T12:09:33Z</time>
      </trkpt>
      <trkpt lat="43.49279" lon="6.62793">
        <ele>26.4</ele>
        <time>2023-11-05T12:09:34Z</time>
      </trkpt>
      <trkpt lat="43.49279" lon="6.62793">
        <ele>26.5</ele>
        <time>2023-11-05T12:09:35Z</time>
      </trkpt>
      <trkpt lat="43.49279" lon="6.62793">
        <ele>26.6</ele>
        <time>2023-11-05T12:09:36Z</time>
      </trkpt>
      <trkpt lat="43.49279" lon="6.62793">
        <ele>26.8</ele>
        <time>2023-11-05T12:09:37Z</time>
      </trkpt>
      <trkpt lat="43.49279" lon="6.62793">
        <ele>26.9</ele>
        <time>2023-11-05T12:09:38Z</time>
      </trkpt>
      <trkpt lat="43.49279" lon="6.62793">
        <ele>27</ele>
        <time>2023-11-05T12:09:39Z</time>
      </trkpt>
      <trkpt lat="43.49279" lon="6.62793">
        <ele>27</ele>
        <time>2023-11-05T12:09:40Z</time>
      </trkpt>
      <trkpt lat="43.49279" lon="6.62793">
        <ele>27.1</ele>
        <time>2023-11-05T12:09:41Z</time>
      </trkpt>
      <trkpt lat="43.49279" lon="6.62793">
        <ele>27.2</ele>
        <time>2023-11-05T12:09:42Z</time>
      </trkpt>
      <trkpt lat="43.49279" lon="6.62793">
        <ele>27.2</ele>
        <time>2023-11-05T12:09:43Z</time>
      </trkpt>
      <trkpt lat="43.49279" lon="6.62793">
        <ele>27.2</ele>
        <time>2023-11-05T12:09:44Z</time>
      </trkpt>
      <trkpt lat="43.49279" lon="6.62793">
        <ele>27.2</ele>
        <time>2023-11-05T12:09:45Z</time>
      </trkpt>
      <trkpt lat="43.49279" lon="6.62793">
        <ele>27.2</ele>
        <time>2023-11-05T12:09:46Z</time>
      </trkpt>
      <trkpt lat="43.49279" lon="6.62793">
        <ele>27.2</ele>
        <time>2023-11-05T12:09:47Z</time>
      </trkpt>
      <trkpt lat="43.49279" lon="6.62793">
        <ele>27.1</ele>
        <time>2023-11-05T12:09:48Z</time>
      </trkpt>
      <trkpt lat="43.49279" lon="6.62793">
        <ele>27.1</ele>
        <time>2023-11-05T12:09:49Z</time>
      </trkpt>
      <trkpt lat="43.49279" lon="6.62793">
        <ele>27.1</ele>
        <time>2023-11-05T12:09:50Z</time>
      </trkpt>
      <trkpt lat="43.49279" lon="6.62793">
        <ele>27</ele>
        <time>2023-11-05T12:09:51Z</time>
      </trkpt>
      <trkpt lat="43.49279" lon="6.62793">
        <ele>27.1</ele>
        <time>2023-11-05T12:09:52Z</time>
      </trkpt>
      <trkpt lat="43.49279" lon="6.62793">
        <ele>27</ele>
        <time>2023-11-05T12:09:53Z</time>
      </trkpt>
      <trkpt lat="43.49279" lon="6.62793">
        <ele>27.1</ele>
        <time>2023-11-05T12:09:54Z</time>
      </trkpt>
      <trkpt lat="43.49279" lon="6.62793">
        <ele>27.1</ele>
        <time>2023-11-05T12:09:55Z</time>
      </trkpt>
      <trkpt lat="43.49279" lon="6.62793">
        <ele>27.1</ele>
        <time>2023-11-05T12:09:56Z</time>
      </trkpt>
      <trkpt lat="43.49279" lon="6.62794">
        <ele>27.1</ele>
        <time>2023-11-05T12:09:57Z</time>
      </trkpt>
      <trkpt lat="43.49279" lon="6.62794">
        <ele>26.9</ele>
        <time>2023-11-05T12:09:58Z</time>
      </trkpt>
      <trkpt lat="43.49279" lon="6.62794">
        <ele>26.8</ele>
        <time>2023-11-05T12:09:59Z</time>
      </trkpt>
      <trkpt lat="43.49279" lon="6.62794">
        <ele>26.8</ele>
        <time>2023-11-05T12:10:00Z</time>
      </trkpt>
      <trkpt lat="43.49279" lon="6.62794">
        <ele>26.6</ele>
        <time>2023-11-05T12:10:01Z</time>
      </trkpt>
      <trkpt lat="43.49279" lon="6.62794">
        <ele>26.3</ele>
        <time>2023-11-05T12:10:02Z</time>
      </trkpt>
      <trkpt lat="43.49279" lon="6.62794">
        <ele>26.2</ele>
        <time>2023-11-05T12:10:03Z</time>
      </trkpt>
      <trkpt lat="43.4928" lon="6.62794">
        <ele>26.2</ele>
        <time>2023-11-05T12:10:04Z</time>
      </trkpt>
      <trkpt lat="43.4928" lon="6.62794">
        <ele>26.1</ele>
        <time>2023-11-05T12:10:05Z</time>
      </trkpt>
      <trkpt lat="43.4928" lon="6.62794">
        <ele>26.1</ele>
        <time>2023-11-05T12:10:06Z</time>
      </trkpt>
      <trkpt lat="43.4928" lon="6.62794">
        <ele>26.1</ele>
        <time>2023-11-05T12:10:07Z</time>
      </trkpt>
      <trkpt lat="43.4928" lon="6.62794">
        <ele>26.1</ele>
        <time>2023-11-05T12:10:08Z</time>
      </trkpt>
      <trkpt lat="43.4928" lon="6.62794">
        <ele>26.4</ele>
        <time>2023-11-05T12:10:09Z</time>
      </trkpt>
      <trkpt lat="43.4928" lon="6.62794">
        <ele>26.6</ele>
        <time>2023-11-05T12:10:10Z</time>
      </trkpt>
      <trkpt lat="43.4928" lon="6.62794">
        <ele>26.9</ele>
        <time>2023-11-05T12:10:11Z</time>
      </trkpt>
      <trkpt lat="43.4928" lon="6.62794">
        <ele>26.8</ele>
        <time>2023-11-05T12:10:12Z</time>
      </trkpt>
      <trkpt lat="43.4928" lon="6.62794">
        <ele>26.7</ele>
        <time>2023-11-05T12:10:13Z</time>
      </trkpt>
      <trkpt lat="43.4928" lon="6.62794">
        <ele>26.7</ele>
        <time>2023-11-05T12:10:14Z</time>
      </trkpt>
      <trkpt lat="43.4928" lon="6.62794">
        <ele>26.6</ele>
        <time>2023-11-05T12:10:15Z</time>
      </trkpt>
      <trkpt lat="43.4928" lon="6.62794">
        <ele>26.5</ele>
        <time>2023-11-05T12:10:16Z</time>
      </trkpt>
      <trkpt lat="43.4928" lon="6.62795">
        <ele>26.5</ele>
        <time>2023-11-05T12:10:17Z</time>
      </trkpt>
      <trkpt lat="43.4928" lon="6.62795">
        <ele>26.6</ele>
        <time>2023-11-05T12:10:18Z</time>
      </trkpt>
      <trkpt lat="43.4928" lon="6.62795">
        <ele>26.7</ele>
        <time>2023-11-05T12:10:19Z</time>
      </trkpt>
      <trkpt lat="43.4928" lon="6.62795">
        <ele>26.7</ele>
        <time>2023-11-05T12:10:20Z</time>
      </trkpt>
      <trkpt lat="43.4928" lon="6.62795">
        <ele>26.9</ele>
        <time>2023-11-05T12:10:21Z</time>
      </trkpt>
      <trkpt lat="43.4928" lon="6.62795">
        <ele>27</ele>
        <time>2023-11-05T12:10:22Z</time>
      </trkpt>
      <trkpt lat="43.4928" lon="6.62795">
        <ele>27.1</ele>
        <time>2023-11-05T12:10:23Z</time>
      </trkpt>
      <trkpt lat="43.4928" lon="6.62795">
        <ele>27.2</ele>
        <time>2023-11-05T12:10:24Z</time>
      </trkpt>
      <trkpt lat="43.4928" lon="6.62795">
        <ele>27.2</ele>
        <time>2023-11-05T12:10:25Z</time>
      </trkpt>
      <trkpt lat="43.4928" lon="6.62795">
        <ele>27.2</ele>
        <time>2023-11-05T12:10:26Z</time>
      </trkpt>
      <trkpt lat="43.4928" lon="6.62795">
        <ele>27.3</ele>
        <time>2023-11-05T12:10:27Z</time>
      </trkpt>
      <trkpt lat="43.49279" lon="6.62795">
        <ele>27.3</ele>
        <time>2023-11-05T12:10:28Z</time>
      </trkpt>
      <trkpt lat="43.49279" lon="6.62795">
        <ele>27.2</ele>
        <time>2023-11-05T12:10:29Z</time>
      </trkpt>
      <trkpt lat="43.49279" lon="6.62795">
        <ele>27.1</ele>
        <time>2023-11-05T12:10:30Z</time>
      </trkpt>
      <trkpt lat="43.49279" lon="6.62795">
        <ele>27.1</ele>
        <time>2023-11-05T12:10:31Z</time>
      </trkpt>
      <trkpt lat="43.49279" lon="6.62795">
        <ele>27.1</ele>
        <time>2023-11-05T12:10:32Z</time>
      </trkpt>
      <trkpt lat="43.49279" lon="6.62795">
        <ele>27</ele>
        <time>2023-11-05T12:10:33Z</time>
      </trkpt>
      <trkpt lat="43.49279" lon="6.62795">
        <ele>26.9</ele>
        <time>2023-11-05T12:10:34Z</time>
      </trkpt>
      <trkpt lat="43.49279" lon="6.62795">
        <ele>26.9</ele>
        <time>2023-11-05T12:10:35Z</time>
      </trkpt>
      <trkpt lat="43.49279" lon="6.62795">
        <ele>26.9</ele>
        <time>2023-11-05T12:10:36Z</time>
      </trkpt>
      <trkpt lat="43.49279" lon="6.62795">
        <ele>26.9</ele>
        <time>2023-11-05T12:10:37Z</time>
      </trkpt>
      <trkpt lat="43.49279" lon="6.62795">
        <ele>27</ele>
        <time>2023-11-05T12:10:38Z</time>
      </trkpt>
      <trkpt lat="43.49279" lon="6.62795">
        <ele>27.1</ele>
        <time>2023-11-05T12:10:39Z</time>
      </trkpt>
      <trkpt lat="43.49279" lon="6.62794">
        <ele>27.2</ele>
        <time>2023-11-05T12:10:40Z</time>
      </trkpt>
      <trkpt lat="43.49279" lon="6.62794">
        <ele>27.2</ele>
        <time>2023-11-05T12:10:41Z</time>
      </trkpt>
      <trkpt lat="43.49279" lon="6.62794">
        <ele>27.3</ele>
        <time>2023-11-05T12:10:42Z</time>
      </trkpt>
      <trkpt lat="43.49279" lon="6.62794">
        <ele>27.2</ele>
        <time>2023-11-05T12:10:43Z</time>
      </trkpt>
      <trkpt lat="43.49279" lon="6.62794">
        <ele>27.2</ele>
        <time>2023-11-05T12:10:44Z</time>
      </trkpt>
      <trkpt lat="43.49279" lon="6.62794">
        <ele>27.1</ele>
        <time>2023-11-05T12:10:45Z</time>
      </trkpt>
      <trkpt lat="43.49279" lon="6.62794">
        <ele>27.2</ele>
        <time>2023-11-05T12:10:46Z</time>
      </trkpt>
      <trkpt lat="43.49279" lon="6.62794">
        <ele>27.2</ele>
        <time>2023-11-05T12:10:47Z</time>
      </trkpt>
      <trkpt lat="43.49279" lon="6.62794">
        <ele>27.2</ele>
        <time>2023-11-05T12:10:48Z</time>
      </trkpt>
      <trkpt lat="43.49279" lon="6.62794">
        <ele>27.3</ele>
        <time>2023-11-05T12:10:49Z</time>
      </trkpt>
      <trkpt lat="43.49279" lon="6.62794">
        <ele>27.2</ele>
        <time>2023-11-05T12:10:50Z</time>
      </trkpt>
      <trkpt lat="43.49279" lon="6.62794">
        <ele>27.2</ele>
        <time>2023-11-05T12:10:51Z</time>
      </trkpt>
      <trkpt lat="43.49279" lon="6.62794">
        <ele>27.3</ele>
        <time>2023-11-05T12:10:52Z</time>
      </trkpt>
      <trkpt lat="43.49278" lon="6.62794">
        <ele>27.3</ele>
        <time>2023-11-05T12:10:53Z</time>
      </trkpt>
      <trkpt lat="43.49278" lon="6.62794">
        <ele>27.3</ele>
        <time>2023-11-05T12:10:54Z</time>
      </trkpt>
      <trkpt lat="43.49278" lon="6.62794">
        <ele>27.3</ele>
        <time>2023-11-05T12:10:55Z</time>
      </trkpt>
      <trkpt lat="43.49278" lon="6.62794">
        <ele>27.2</ele>
        <time>2023-11-05T12:10:56Z</time>
      </trkpt>
      <trkpt lat="43.49278" lon="6.62794">
        <ele>27.1</ele>
        <time>2023-11-05T12:10:57Z</time>
      </trkpt>
      <trkpt lat="43.49278" lon="6.62794">
        <ele>27</ele>
        <time>2023-11-05T12:10:58Z</time>
      </trkpt>
      <trkpt lat="43.49278" lon="6.62794">
        <ele>27.1</ele>
        <time>2023-11-05T12:10:59Z</time>
      </trkpt>
      <trkpt lat="43.49278" lon="6.62794">
        <ele>27.1</ele>
        <time>2023-11-05T12:11:00Z</time>
      </trkpt>
      <trkpt lat="43.49278" lon="6.62794">
        <ele>27</ele>
        <time>2023-11-05T12:11:01Z</time>
      </trkpt>
      <trkpt lat="43.49278" lon="6.62794">
        <ele>27</ele>
        <time>2023-11-05T12:11:02Z</time>
      </trkpt>
      <trkpt lat="43.49278" lon="6.62794">
        <ele>27.1</ele>
        <time>2023-11-05T12:11:03Z</time>
      </trkpt>
      <trkpt lat="43.49278" lon="6.62794">
        <ele>27.1</ele>
        <time>2023-11-05T12:11:04Z</time>
      </trkpt>
      <trkpt lat="43.49278" lon="6.62794">
        <ele>27</ele>
        <time>2023-11-05T12:11:05Z</time>
      </trkpt>
      <trkpt lat="43.49278" lon="6.62794">
        <ele>26.9</ele>
        <time>2023-11-05T12:11:06Z</time>
      </trkpt>
      <trkpt lat="43.49278" lon="6.62794">
        <ele>27</ele>
        <time>2023-11-05T12:11:07Z</time>
      </trkpt>
      <trkpt lat="43.49278" lon="6.62794">
        <ele>27.1</ele>
        <time>2023-11-05T12:11:08Z</time>
      </trkpt>
      <trkpt lat="43.49278" lon="6.62795">
        <ele>27.3</ele>
        <time>2023-11-05T12:11:09Z</time>
      </trkpt>
      <trkpt lat="43.49278" lon="6.62795">
        <ele>27.5</ele>
        <time>2023-11-05T12:11:10Z</time>
      </trkpt>
      <trkpt lat="43.49278" lon="6.62795">
        <ele>27.5</ele>
        <time>2023-11-05T12:11:11Z</time>
      </trkpt>
      <trkpt lat="43.49278" lon="6.62794">
        <ele>27.6</ele>
        <time>2023-11-05T12:11:12Z</time>
      </trkpt>
      <trkpt lat="43.49278" lon="6.62794">
        <ele>27.6</ele>
        <time>2023-11-05T12:11:13Z</time>
      </trkpt>
      <trkpt lat="43.49278" lon="6.62794">
        <ele>27.6</ele>
        <time>2023-11-05T12:11:14Z</time>
      </trkpt>
      <trkpt lat="43.49278" lon="6.62793">
        <ele>27.6</ele>
        <time>2023-11-05T12:11:15Z</time>
      </trkpt>
      <trkpt lat="43.49277" lon="6.62793">
        <ele>27.6</ele>
        <time>2023-11-05T12:11:16Z</time>
      </trkpt>
      <trkpt lat="43.49277" lon="6.62793">
        <ele>27.6</ele>
        <time>2023-11-05T12:11:17Z</time>
      </trkpt>
      <trkpt lat="43.49277" lon="6.62793">
        <ele>27.6</ele>
        <time>2023-11-05T12:11:18Z</time>
      </trkpt>
      <trkpt lat="43.49276" lon="6.62793">
        <ele>27.5</ele>
        <time>2023-11-05T12:11:19Z</time>
      </trkpt>
      <trkpt lat="43.49277" lon="6.62793">
        <ele>27.5</ele>
        <time>2023-11-05T12:11:20Z</time>
      </trkpt>
      <trkpt lat="43.49277" lon="6.62793">
        <ele>27.4</ele>
        <time>2023-11-05T12:11:21Z</time>
      </trkpt>
      <trkpt lat="43.49277" lon="6.62793">
        <ele>27.4</ele>
        <time>2023-11-05T12:11:22Z</time>
      </trkpt>
      <trkpt lat="43.49277" lon="6.62793">
        <ele>27.4</ele>
        <time>2023-11-05T12:11:23Z</time>
      </trkpt>
      <trkpt lat="43.49277" lon="6.62793">
        <ele>27.2</ele>
        <time>2023-11-05T12:11:24Z</time>
      </trkpt>
      <trkpt lat="43.49277" lon="6.62793">
        <ele>27.2</ele>
        <time>2023-11-05T12:11:25Z</time>
      </trkpt>
      <trkpt lat="43.49277" lon="6.62792">
        <ele>27.1</ele>
        <time>2023-11-05T12:11:26Z</time>
      </trkpt>
      <trkpt lat="43.49277" lon="6.62792">
        <ele>27.1</ele>
        <time>2023-11-05T12:11:27Z</time>
      </trkpt>
      <trkpt lat="43.49277" lon="6.62792">
        <ele>27</ele>
        <time>2023-11-05T12:11:28Z</time>
      </trkpt>
      <trkpt lat="43.49277" lon="6.62792">
        <ele>26.9</ele>
        <time>2023-11-05T12:11:29Z</time>
      </trkpt>
      <trkpt lat="43.49277" lon="6.62792">
        <ele>26.9</ele>
        <time>2023-11-05T12:11:30Z</time>
      </trkpt>
      <trkpt lat="43.49277" lon="6.62792">
        <ele>26.9</ele>
        <time>2023-11-05T12:11:31Z</time>
      </trkpt>
      <trkpt lat="43.49277" lon="6.62792">
        <ele>27</ele>
        <time>2023-11-05T12:11:32Z</time>
      </trkpt>
      <trkpt lat="43.49277" lon="6.62792">
        <ele>27</ele>
        <time>2023-11-05T12:11:33Z</time>
      </trkpt>
      <trkpt lat="43.49277" lon="6.62792">
        <ele>27</ele>
        <time>2023-11-05T12:11:34Z</time>
      </trkpt>
      <trkpt lat="43.49277" lon="6.62792">
        <ele>27</ele>
        <time>2023-11-05T12:11:35Z</time>
      </trkpt>
      <trkpt lat="43.49277" lon="6.62792">
        <ele>27</ele>
        <time>2023-11-05T12:11:36Z</time>
      </trkpt>
      <trkpt lat="43.49277" lon="6.62792">
        <ele>26.9</ele>
        <time>2023-11-05T12:11:37Z</time>
      </trkpt>
      <trkpt lat="43.49276" lon="6.62792">
        <ele>26.9</ele>
        <time>2023-11-05T12:11:38Z</time>
      </trkpt>
      <trkpt lat="43.49276" lon="6.62793">
        <ele>26.9</ele>
        <time>2023-11-05T12:11:39Z</time>
      </trkpt>
      <trkpt lat="43.49276" lon="6.62793">
        <ele>26.8</ele>
        <time>2023-11-05T12:11:40Z</time>
      </trkpt>
      <trkpt lat="43.49276" lon="6.62793">
        <ele>26.8</ele>
        <time>2023-11-05T12:11:41Z</time>
      </trkpt>
      <trkpt lat="43.49276" lon="6.62793">
        <ele>26.8</ele>
        <time>2023-11-05T12:11:42Z</time>
      </trkpt>
      <trkpt lat="43.49276" lon="6.62793">
        <ele>26.8</ele>
        <time>2023-11-05T12:11:43Z</time>
      </trkpt>
      <trkpt lat="43.49276" lon="6.62793">
        <ele>26.9</ele>
        <time>2023-11-05T12:11:44Z</time>
      </trkpt>
      <trkpt lat="43.49276" lon="6.62793">
        <ele>26.9</ele>
        <time>2023-11-05T12:11:45Z</time>
      </trkpt>
      <trkpt lat="43.49276" lon="6.62793">
        <ele>26.8</ele>
        <time>2023-11-05T12:11:46Z</time>
      </trkpt>
      <trkpt lat="43.49276" lon="6.62794">
        <ele>26.8</ele>
        <time>2023-11-05T12:11:47Z</time>
      </trkpt>
      <trkpt lat="43.49276" lon="6.62794">
        <ele>26.8</ele>
        <time>2023-11-05T12:11:48Z</time>
      </trkpt>
      <trkpt lat="43.49276" lon="6.62794">
        <ele>26.8</ele>
        <time>2023-11-05T12:11:49Z</time>
      </trkpt>
      <trkpt lat="43.49276" lon="6.62794">
        <ele>26.8</ele>
        <time>2023-11-05T12:11:50Z</time>
      </trkpt>
      <trkpt lat="43.49276" lon="6.62794">
        <ele>26.9</ele>
        <time>2023-11-05T12:11:51Z</time>
      </trkpt>
      <trkpt lat="43.49276" lon="6.62794">
        <ele>26.9</ele>
        <time>2023-11-05T12:11:52Z</time>
      </trkpt>
      <trkpt lat="43.49276" lon="6.62793">
        <ele>26.9</ele>
        <time>2023-11-05T12:11:53Z</time>
      </trkpt>
      <trkpt lat="43.49276" lon="6.62794">
        <ele>26.9</ele>
        <time>2023-11-05T12:11:54Z</time>
      </trkpt>
      <trkpt lat="43.49276" lon="6.62794">
        <ele>26.9</ele>
        <time>2023-11-05T12:11:55Z</time>
      </trkpt>
      <trkpt lat="43.49276" lon="6.62794">
        <ele>27</ele>
        <time>2023-11-05T12:11:56Z</time>
      </trkpt>
      <trkpt lat="43.49276" lon="6.62794">
        <ele>27.1</ele>
        <time>2023-11-05T12:11:57Z</time>
      </trkpt>
      <trkpt lat="43.49276" lon="6.62794">
        <ele>27.1</ele>
        <time>2023-11-05T12:11:58Z</time>
      </trkpt>
      <trkpt lat="43.49277" lon="6.62794">
        <ele>27.1</ele>
        <time>2023-11-05T12:11:59Z</time>
      </trkpt>
      <trkpt lat="43.49276" lon="6.62794">
        <ele>27.2</ele>
        <time>2023-11-05T12:12:00Z</time>
      </trkpt>
      <trkpt lat="43.49276" lon="6.62794">
        <ele>27.2</ele>
        <time>2023-11-05T12:12:01Z</time>
      </trkpt>
      <trkpt lat="43.49276" lon="6.62794">
        <ele>27.2</ele>
        <time>2023-11-05T12:12:02Z</time>
      </trkpt>
      <trkpt lat="43.49277" lon="6.62794">
        <ele>27.3</ele>
        <time>2023-11-05T12:12:03Z</time>
      </trkpt>
      <trkpt lat="43.49277" lon="6.62794">
        <ele>27.3</ele>
        <time>2023-11-05T12:12:04Z</time>
      </trkpt>
      <trkpt lat="43.49277" lon="6.62794">
        <ele>27.3</ele>
        <time>2023-11-05T12:12:05Z</time>
      </trkpt>
      <trkpt lat="43.49277" lon="6.62794">
        <ele>27.2</ele>
        <time>2023-11-05T12:12:06Z</time>
      </trkpt>
      <trkpt lat="43.49277" lon="6.62794">
        <ele>27.1</ele>
        <time>2023-11-05T12:12:07Z</time>
      </trkpt>
      <trkpt lat="43.49277" lon="6.62793">
        <ele>27.1</ele>
        <time>2023-11-05T12:12:08Z</time>
      </trkpt>
      <trkpt lat="43.49277" lon="6.62793">
        <ele>27.1</ele>
        <time>2023-11-05T12:12:09Z</time>
      </trkpt>
      <trkpt lat="43.49277" lon="6.62793">
        <ele>27.1</ele>
        <time>2023-11-05T12:12:10Z</time>
      </trkpt>
      <trkpt lat="43.49277" lon="6.62793">
        <ele>27</ele>
        <time>2023-11-05T12:12:11Z</time>
      </trkpt>
      <trkpt lat="43.49277" lon="6.62793">
        <ele>27</ele>
        <time>2023-11-05T12:12:12Z</time>
      </trkpt>
      <trkpt lat="43.49277" lon="6.62793">
        <ele>26.9</ele>
        <time>2023-11-05T12:12:13Z</time>
      </trkpt>
      <trkpt lat="43.49277" lon="6.62793">
        <ele>27.1</ele>
        <time>2023-11-05T12:12:14Z</time>
      </trkpt>
      <trkpt lat="43.49277" lon="6.62793">
        <ele>27.2</ele>
        <time>2023-11-05T12:12:15Z</time>
      </trkpt>
      <trkpt lat="43.49277" lon="6.62793">
        <ele>27.2</ele>
        <time>2023-11-05T12:12:16Z</time>
      </trkpt>
      <trkpt lat="43.49277" lon="6.62793">
        <ele>27.2</ele>
        <time>2023-11-05T12:12:17Z</time>
      </trkpt>
      <trkpt lat="43.49277" lon="6.62793">
        <ele>27.3</ele>
        <time>2023-11-05T12:12:18Z</time>
      </trkpt>
      <trkpt lat="43.49277" lon="6.62792">
        <ele>27.3</ele>
        <time>2023-11-05T12:12:19Z</time>
      </trkpt>
      <trkpt lat="43.49277" lon="6.62792">
        <ele>27.2</ele>
        <time>2023-11-05T12:12:20Z</time>
      </trkpt>
      <trkpt lat="43.49276" lon="6.62792">
        <ele>27.1</ele>
        <time>2023-11-05T12:12:21Z</time>
      </trkpt>
      <trkpt lat="43.49276" lon="6.62792">
        <ele>27.1</ele>
        <time>2023-11-05T12:12:22Z</time>
      </trkpt>
      <trkpt lat="43.49276" lon="6.62792">
        <ele>27.1</ele>
        <time>2023-11-05T12:12:23Z</time>
      </trkpt>
      <trkpt lat="43.49276" lon="6.62791">
        <ele>27</ele>
        <time>2023-11-05T12:12:24Z</time>
      </trkpt>
      <trkpt lat="43.49276" lon="6.62791">
        <ele>26.9</ele>
        <time>2023-11-05T12:12:25Z</time>
      </trkpt>
      <trkpt lat="43.49276" lon="6.62791">
        <ele>26.9</ele>
        <time>2023-11-05T12:12:26Z</time>
      </trkpt>
      <trkpt lat="43.49276" lon="6.62791">
        <ele>26.9</ele>
        <time>2023-11-05T12:12:27Z</time>
      </trkpt>
      <trkpt lat="43.49276" lon="6.62791">
        <ele>26.8</ele>
        <time>2023-11-05T12:12:28Z</time>
      </trkpt>
      <trkpt lat="43.49276" lon="6.62791">
        <ele>26.8</ele>
        <time>2023-11-05T12:12:29Z</time>
      </trkpt>
      <trkpt lat="43.49276" lon="6.62791">
        <ele>26.8</ele>
        <time>2023-11-05T12:12:30Z</time>
      </trkpt>
      <trkpt lat="43.49276" lon="6.62791">
        <ele>26.7</ele>
        <time>2023-11-05T12:12:31Z</time>
      </trkpt>
      <trkpt lat="43.49276" lon="6.6279">
        <ele>26.6</ele>
        <time>2023-11-05T12:12:32Z</time>
      </trkpt>
      <trkpt lat="43.49276" lon="6.6279">
        <ele>26.5</ele>
        <time>2023-11-05T12:12:33Z</time>
      </trkpt>
      <trkpt lat="43.49276" lon="6.6279">
        <ele>26.5</ele>
        <time>2023-11-05T12:12:34Z</time>
      </trkpt>
      <trkpt lat="43.49276" lon="6.62791">
        <ele>26.6</ele>
        <time>2023-11-05T12:12:35Z</time>
      </trkpt>
      <trkpt lat="43.49276" lon="6.6279">
        <ele>26.6</ele>
        <time>2023-11-05T12:12:36Z</time>
      </trkpt>
      <trkpt lat="43.49276" lon="6.6279">
        <ele>26.6</ele>
        <time>2023-11-05T12:12:37Z</time>
      </trkpt>
      <trkpt lat="43.49276" lon="6.6279">
        <ele>26.7</ele>
        <time>2023-11-05T12:12:38Z</time>
      </trkpt>
      <trkpt lat="43.49276" lon="6.6279">
        <ele>26.8</ele>
        <time>2023-11-05T12:12:39Z</time>
      </trkpt>
      <trkpt lat="43.49276" lon="6.6279">
        <ele>26.9</ele>
        <time>2023-11-05T12:12:40Z</time>
      </trkpt>
      <trkpt lat="43.49276" lon="6.6279">
        <ele>26.9</ele>
        <time>2023-11-05T12:12:41Z</time>
      </trkpt>
      <trkpt lat="43.49276" lon="6.6279">
        <ele>27</ele>
        <time>2023-11-05T12:12:42Z</time>
      </trkpt>
      <trkpt lat="43.49276" lon="6.6279">
        <ele>27.1</ele>
        <time>2023-11-05T12:12:43Z</time>
      </trkpt>
      <trkpt lat="43.49276" lon="6.6279">
        <ele>27.2</ele>
        <time>2023-11-05T12:12:44Z</time>
      </trkpt>
      <trkpt lat="43.49276" lon="6.6279">
        <ele>27.2</ele>
        <time>2023-11-05T12:12:45Z</time>
      </trkpt>
      <trkpt lat="43.49276" lon="6.6279">
        <ele>27.2</ele>
        <time>2023-11-05T12:12:46Z</time>
      </trkpt>
      <trkpt lat="43.49276" lon="6.6279">
        <ele>27.3</ele>
        <time>2023-11-05T12:12:47Z</time>
      </trkpt>
      <trkpt lat="43.49277" lon="6.6279">
        <ele>27.3</ele>
        <time>2023-11-05T12:12:48Z</time>
      </trkpt>
      <trkpt lat="43.49277" lon="6.6279">
        <ele>27.3</ele>
        <time>2023-11-05T12:12:49Z</time>
      </trkpt>
      <trkpt lat="43.49277" lon="6.6279">
        <ele>27.3</ele>
        <time>2023-11-05T12:12:50Z</time>
      </trkpt>
      <trkpt lat="43.49277" lon="6.6279">
        <ele>27.3</ele>
        <time>2023-11-05T12:12:51Z</time>
      </trkpt>
      <trkpt lat="43.49277" lon="6.6279">
        <ele>27.3</ele>
        <time>2023-11-05T12:12:52Z</time>
      </trkpt>
      <trkpt lat="43.49277" lon="6.62789">
        <ele>27.4</ele>
        <time>2023-11-05T12:12:53Z</time>
      </trkpt>
      <trkpt lat="43.49277" lon="6.62789">
        <ele>27.4</ele>
        <time>2023-11-05T12:12:54Z</time>
      </trkpt>
      <trkpt lat="43.49277" lon="6.62789">
        <ele>27.3</ele>
        <time>2023-11-05T12:12:55Z</time>
      </trkpt>
      <trkpt lat="43.49277" lon="6.62789">
        <ele>27.2</ele>
        <time>2023-11-05T12:12:56Z</time>
      </trkpt>
      <trkpt lat="43.49277" lon="6.62789">
        <ele>27.2</ele>
        <time>2023-11-05T12:12:57Z</time>
      </trkpt>
      <trkpt lat="43.49277" lon="6.62789">
        <ele>27.2</ele>
        <time>2023-11-05T12:12:58Z</time>
      </trkpt>
      <trkpt lat="43.49277" lon="6.62789">
        <ele>27.2</ele>
        <time>2023-11-05T12:12:59Z</time>
      </trkpt>
      <trkpt lat="43.49277" lon="6.62789">
        <ele>27.1</ele>
        <time>2023-11-05T12:13:00Z</time>
      </trkpt>
      <trkpt lat="43.49277" lon="6.62789">
        <ele>27.1</ele>
        <time>2023-11-05T12:13:01Z</time>
      </trkpt>
      <trkpt lat="43.49277" lon="6.62789">
        <ele>26.9</ele>
        <time>2023-11-05T12:13:02Z</time>
      </trkpt>
      <trkpt lat="43.49277" lon="6.62789">
        <ele>26.8</ele>
        <time>2023-11-05T12:13:03Z</time>
      </trkpt>
      <trkpt lat="43.49277" lon="6.62789">
        <ele>26.8</ele>
        <time>2023-11-05T12:13:04Z</time>
      </trkpt>
      <trkpt lat="43.49277" lon="6.62789">
        <ele>26.7</ele>
        <time>2023-11-05T12:13:05Z</time>
      </trkpt>
      <trkpt lat="43.49277" lon="6.62788">
        <ele>26.7</ele>
        <time>2023-11-05T12:13:06Z</time>
      </trkpt>
      <trkpt lat="43.49277" lon="6.62788">
        <ele>26.8</ele>
        <time>2023-11-05T12:13:07Z</time>
      </trkpt>
      <trkpt lat="43.49277" lon="6.62788">
        <ele>26.8</ele>
        <time>2023-11-05T12:13:08Z</time>
      </trkpt>
      <trkpt lat="43.49277" lon="6.62788">
        <ele>26.8</ele>
        <time>2023-11-05T12:13:09Z</time>
      </trkpt>
      <trkpt lat="43.49277" lon="6.62788">
        <ele>26.9</ele>
        <time>2023-11-05T12:13:10Z</time>
      </trkpt>
      <trkpt lat="43.49277" lon="6.62788">
        <ele>27.1</ele>
        <time>2023-11-05T12:13:11Z</time>
      </trkpt>
      <trkpt lat="43.49277" lon="6.62788">
        <ele>27.2</ele>
        <time>2023-11-05T12:13:12Z</time>
      </trkpt>
      <trkpt lat="43.49277" lon="6.62788">
        <ele>27.3</ele>
        <time>2023-11-05T12:13:13Z</time>
      </trkpt>
      <trkpt lat="43.49277" lon="6.62788">
        <ele>27.3</ele>
        <time>2023-11-05T12:13:14Z</time>
      </trkpt>
      <trkpt lat="43.49277" lon="6.62788">
        <ele>27.4</ele>
        <time>2023-11-05T12:13:15Z</time>
      </trkpt>
      <trkpt lat="43.49277" lon="6.62788">
        <ele>27.4</ele>
        <time>2023-11-05T12:13:16Z</time>
      </trkpt>
      <trkpt lat="43.49277" lon="6.62788">
        <ele>27.4</ele>
        <time>2023-11-05T12:13:17Z</time>
      </trkpt>
      <trkpt lat="43.49277" lon="6.62788">
        <ele>27.4</ele>
        <time>2023-11-05T12:13:18Z</time>
      </trkpt>
      <trkpt lat="43.49277" lon="6.62787">
        <ele>27.4</ele>
        <time>2023-11-05T12:13:19Z</time>
      </trkpt>
      <trkpt lat="43.49277" lon="6.62787">
        <ele>27.4</ele>
        <time>2023-11-05T12:13:20Z</time>
      </trkpt>
      <trkpt lat="43.49277" lon="6.62787">
        <ele>27.4</ele>
        <time>2023-11-05T12:13:21Z</time>
      </trkpt>
      <trkpt lat="43.49277" lon="6.62787">
        <ele>27.4</ele>
        <time>2023-11-05T12:13:22Z</time>
      </trkpt>
      <trkpt lat="43.49277" lon="6.62787">
        <ele>27.2</ele>
        <time>2023-11-05T12:13:23Z</time>
      </trkpt>
      <trkpt lat="43.49277" lon="6.62787">
        <ele>27.2</ele>
        <time>2023-11-05T12:13:24Z</time>
      </trkpt>
      <trkpt lat="43.49277" lon="6.62787">
        <ele>27.2</ele>
        <time>2023-11-05T12:13:25Z</time>
      </trkpt>
      <trkpt lat="43.49277" lon="6.62787">
        <ele>27.2</ele>
        <time>2023-11-05T12:13:26Z</time>
      </trkpt>
      <trkpt lat="43.49277" lon="6.62787">
        <ele>27.2</ele>
        <time>2023-11-05T12:13:27Z</time>
      </trkpt>
      <trkpt lat="43.49277" lon="6.62787">
        <ele>27.1</ele>
        <time>2023-11-05T12:13:28Z</time>
      </trkpt>
      <trkpt lat="43.49278" lon="6.62787">
        <ele>27.1</ele>
        <time>2023-11-05T12:13:29Z</time>
      </trkpt>
      <trkpt lat="43.49278" lon="6.62787">
        <ele>27.1</ele>
        <time>2023-11-05T12:13:30Z</time>
      </trkpt>
      <trkpt lat="43.49277" lon="6.62788">
        <ele>27.1</ele>
        <time>2023-11-05T12:13:31Z</time>
      </trkpt>
      <trkpt lat="43.49277" lon="6.62788">
        <ele>27.1</ele>
        <time>2023-11-05T12:13:32Z</time>
      </trkpt>
      <trkpt lat="43.49277" lon="6.62787">
        <ele>26.9</ele>
        <time>2023-11-05T12:13:33Z</time>
      </trkpt>
      <trkpt lat="43.49277" lon="6.62787">
        <ele>26.8</ele>
        <time>2023-11-05T12:13:34Z</time>
      </trkpt>
      <trkpt lat="43.49277" lon="6.62787">
        <ele>26.8</ele>
        <time>2023-11-05T12:13:35Z</time>
      </trkpt>
      <trkpt lat="43.49276" lon="6.62787">
        <ele>26.7</ele>
        <time>2023-11-05T12:13:36Z</time>
      </trkpt>
      <trkpt lat="43.49276" lon="6.62787">
        <ele>26.7</ele>
        <time>2023-11-05T12:13:37Z</time>
      </trkpt>
      <trkpt lat="43.49276" lon="6.62787">
        <ele>26.6</ele>
        <time>2023-11-05T12:13:38Z</time>
      </trkpt>
      <trkpt lat="43.49275" lon="6.62788">
        <ele>26.5</ele>
        <time>2023-11-05T12:13:39Z</time>
      </trkpt>
      <trkpt lat="43.49275" lon="6.62789">
        <ele>26.3</ele>
        <time>2023-11-05T12:13:40Z</time>
      </trkpt>
      <trkpt lat="43.49275" lon="6.6279">
        <ele>26</ele>
        <time>2023-11-05T12:13:41Z</time>
      </trkpt>
      <trkpt lat="43.49274" lon="6.6279">
        <ele>25.8</ele>
        <time>2023-11-05T12:13:42Z</time>
      </trkpt>
      <trkpt lat="43.49274" lon="6.62791">
        <ele>25.7</ele>
        <time>2023-11-05T12:13:43Z</time>
      </trkpt>
      <trkpt lat="43.49274" lon="6.62791">
        <ele>25.6</ele>
        <time>2023-11-05T12:13:44Z</time>
      </trkpt>
      <trkpt lat="43.49274" lon="6.62791">
        <ele>25.5</ele>
        <time>2023-11-05T12:13:45Z</time>
      </trkpt>
      <trkpt lat="43.49274" lon="6.62791">
        <ele>25.4</ele>
        <time>2023-11-05T12:13:46Z</time>
      </trkpt>
      <trkpt lat="43.49274" lon="6.62791">
        <ele>25.4</ele>
        <time>2023-11-05T12:13:47Z</time>
      </trkpt>
      <trkpt lat="43.49274" lon="6.62792">
        <ele>25.3</ele>
        <time>2023-11-05T12:13:48Z</time>
      </trkpt>
      <trkpt lat="43.49274" lon="6.62792">
        <ele>25.2</ele>
        <time>2023-11-05T12:13:49Z</time>
      </trkpt>
      <trkpt lat="43.49274" lon="6.62793">
        <ele>25.2</ele>
        <time>2023-11-05T12:13:50Z</time>
      </trkpt>
      <trkpt lat="43.49274" lon="6.62793">
        <ele>25.1</ele>
        <time>2023-11-05T12:13:51Z</time>
      </trkpt>
      <trkpt lat="43.49274" lon="6.62793">
        <ele>25.1</ele>
        <time>2023-11-05T12:13:52Z</time>
      </trkpt>
      <trkpt lat="43.49275" lon="6.62793">
        <ele>25.1</ele>
        <time>2023-11-05T12:13:53Z</time>
      </trkpt>
      <trkpt lat="43.49275" lon="6.62793">
        <ele>25.1</ele>
        <time>2023-11-05T12:13:54Z</time>
      </trkpt>
      <trkpt lat="43.49276" lon="6.62792">
        <ele>25.2</ele>
        <time>2023-11-05T12:13:55Z</time>
      </trkpt>
      <trkpt lat="43.49276" lon="6.62792">
        <ele>25.2</ele>
        <time>2023-11-05T12:13:56Z</time>
      </trkpt>
      <trkpt lat="43.49276" lon="6.62791">
        <ele>25.3</ele>
        <time>2023-11-05T12:13:57Z</time>
      </trkpt>
      <trkpt lat="43.49276" lon="6.62791">
        <ele>25.3</ele>
        <time>2023-11-05T12:13:58Z</time>
      </trkpt>
      <trkpt lat="43.49276" lon="6.62792">
        <ele>25.3</ele>
        <time>2023-11-05T12:13:59Z</time>
      </trkpt>
      <trkpt lat="43.49277" lon="6.62792">
        <ele>25.4</ele>
        <time>2023-11-05T12:14:00Z</time>
      </trkpt>
      <trkpt lat="43.49277" lon="6.62792">
        <ele>25.5</ele>
        <time>2023-11-05T12:14:01Z</time>
      </trkpt>
      <trkpt lat="43.49278" lon="6.62792">
        <ele>25.5</ele>
        <time>2023-11-05T12:14:02Z</time>
      </trkpt>
      <trkpt lat="43.49278" lon="6.62792">
        <ele>25.8</ele>
        <time>2023-11-05T12:14:03Z</time>
      </trkpt>
      <trkpt lat="43.49278" lon="6.62792">
        <ele>26.1</ele>
        <time>2023-11-05T12:14:04Z</time>
      </trkpt>
      <trkpt lat="43.49278" lon="6.62791">
        <ele>26.3</ele>
        <time>2023-11-05T12:14:05Z</time>
      </trkpt>
      <trkpt lat="43.49278" lon="6.62791">
        <ele>26.4</ele>
        <time>2023-11-05T12:14:06Z</time>
      </trkpt>
      <trkpt lat="43.49278" lon="6.62791">
        <ele>26.7</ele>
        <time>2023-11-05T12:14:07Z</time>
      </trkpt>
      <trkpt lat="43.49278" lon="6.62791">
        <ele>26.8</ele>
        <time>2023-11-05T12:14:08Z</time>
      </trkpt>
      <trkpt lat="43.49278" lon="6.62791">
        <ele>26.9</ele>
        <time>2023-11-05T12:14:09Z</time>
      </trkpt>
      <trkpt lat="43.49278" lon="6.6279">
        <ele>26.9</ele>
        <time>2023-11-05T12:14:10Z</time>
      </trkpt>
      <trkpt lat="43.49278" lon="6.6279">
        <ele>26.9</ele>
        <time>2023-11-05T12:14:11Z</time>
      </trkpt>
      <trkpt lat="43.49278" lon="6.6279">
        <ele>26.8</ele>
        <time>2023-11-05T12:14:12Z</time>
      </trkpt>
      <trkpt lat="43.49278" lon="6.6279">
        <ele>26.8</ele>
        <time>2023-11-05T12:14:13Z</time>
      </trkpt>
      <trkpt lat="43.49278" lon="6.6279">
        <ele>26.8</ele>
        <time>2023-11-05T12:14:14Z</time>
      </trkpt>
      <trkpt lat="43.49278" lon="6.6279">
        <ele>26.7</ele>
        <time>2023-11-05T12:14:15Z</time>
      </trkpt>
      <trkpt lat="43.49278" lon="6.6279">
        <ele>26.7</ele>
        <time>2023-11-05T12:14:16Z</time>
      </trkpt>
      <trkpt lat="43.49278" lon="6.6279">
        <ele>26.7</ele>
        <time>2023-11-05T12:14:17Z</time>
      </trkpt>
      <trkpt lat="43.49278" lon="6.6279">
        <ele>26.7</ele>
        <time>2023-11-05T12:14:18Z</time>
      </trkpt>
      <trkpt lat="43.49278" lon="6.62791">
        <ele>26.7</ele>
        <time>2023-11-05T12:14:19Z</time>
      </trkpt>
      <trkpt lat="43.49278" lon="6.6279">
        <ele>26.6</ele>
        <time>2023-11-05T12:14:20Z</time>
      </trkpt>
      <trkpt lat="43.49278" lon="6.6279">
        <ele>26.7</ele>
        <time>2023-11-05T12:14:21Z</time>
      </trkpt>
      <trkpt lat="43.49278" lon="6.6279">
        <ele>26.8</ele>
        <time>2023-11-05T12:14:22Z</time>
      </trkpt>
      <trkpt lat="43.49278" lon="6.6279">
        <ele>26.8</ele>
        <time>2023-11-05T12:14:23Z</time>
      </trkpt>
      <trkpt lat="43.49278" lon="6.6279">
        <ele>26.7</ele>
        <time>2023-11-05T12:14:24Z</time>
      </trkpt>
      <trkpt lat="43.49278" lon="6.6279">
        <ele>26.7</ele>
        <time>2023-11-05T12:14:25Z</time>
      </trkpt>
      <trkpt lat="43.49278" lon="6.6279">
        <ele>26.8</ele>
        <time>2023-11-05T12:14:26Z</time>
      </trkpt>
      <trkpt lat="43.49278" lon="6.6279">
        <ele>26.8</ele>
        <time>2023-11-05T12:14:27Z</time>
      </trkpt>
      <trkpt lat="43.49278" lon="6.6279">
        <ele>26.7</ele>
        <time>2023-11-05T12:14:28Z</time>
      </trkpt>
      <trkpt lat="43.49278" lon="6.6279">
        <ele>26.8</ele>
        <time>2023-11-05T12:14:29Z</time>
      </trkpt>
      <trkpt lat="43.49278" lon="6.6279">
        <ele>26.7</ele>
        <time>2023-11-05T12:14:30Z</time>
      </trkpt>
      <trkpt lat="43.49278" lon="6.6279">
        <ele>26.8</ele>
        <time>2023-11-05T12:14:31Z</time>
      </trkpt>
      <trkpt lat="43.49278" lon="6.6279">
        <ele>26.9</ele>
        <time>2023-11-05T12:14:32Z</time>
      </trkpt>
      <trkpt lat="43.49278" lon="6.6279">
        <ele>27</ele>
        <time>2023-11-05T12:14:33Z</time>
      </trkpt>
      <trkpt lat="43.49278" lon="6.6279">
        <ele>27.1</ele>
        <time>2023-11-05T12:14:34Z</time>
      </trkpt>
      <trkpt lat="43.49278" lon="6.6279">
        <ele>27.1</ele>
        <time>2023-11-05T12:14:35Z</time>
      </trkpt>
      <trkpt lat="43.49278" lon="6.6279">
        <ele>27.2</ele>
        <time>2023-11-05T12:14:36Z</time>
      </trkpt>
      <trkpt lat="43.49278" lon="6.6279">
        <ele>27.3</ele>
        <time>2023-11-05T12:14:37Z</time>
      </trkpt>
      <trkpt lat="43.49278" lon="6.6279">
        <ele>27.4</ele>
        <time>2023-11-05T12:14:38Z</time>
      </trkpt>
      <trkpt lat="43.49278" lon="6.6279">
        <ele>27.3</ele>
        <time>2023-11-05T12:14:39Z</time>
      </trkpt>
      <trkpt lat="43.49278" lon="6.6279">
        <ele>27.3</ele>
        <time>2023-11-05T12:14:40Z</time>
      </trkpt>
      <trkpt lat="43.49278" lon="6.6279">
        <ele>27.2</ele>
        <time>2023-11-05T12:14:41Z</time>
      </trkpt>
      <trkpt lat="43.49278" lon="6.6279">
        <ele>27.2</ele>
        <time>2023-11-05T12:14:42Z</time>
      </trkpt>
      <trkpt lat="43.49278" lon="6.6279">
        <ele>27.2</ele>
        <time>2023-11-05T12:14:43Z</time>
      </trkpt>
      <trkpt lat="43.49278" lon="6.6279">
        <ele>27.2</ele>
        <time>2023-11-05T12:14:44Z</time>
      </trkpt>
      <trkpt lat="43.49278" lon="6.6279">
        <ele>27.1</ele>
        <time>2023-11-05T12:14:45Z</time>
      </trkpt>
      <trkpt lat="43.49278" lon="6.6279">
        <ele>27</ele>
        <time>2023-11-05T12:14:46Z</time>
      </trkpt>
      <trkpt lat="43.49278" lon="6.6279">
        <ele>26.9</ele>
        <time>2023-11-05T12:14:47Z</time>
      </trkpt>
      <trkpt lat="43.49278" lon="6.6279">
        <ele>26.9</ele>
        <time>2023-11-05T12:14:48Z</time>
      </trkpt>
      <trkpt lat="43.49278" lon="6.6279">
        <ele>26.8</ele>
        <time>2023-11-05T12:14:49Z</time>
      </trkpt>
      <trkpt lat="43.49278" lon="6.6279">
        <ele>26.7</ele>
        <time>2023-11-05T12:14:50Z</time>
      </trkpt>
      <trkpt lat="43.49279" lon="6.6279">
        <ele>26.6</ele>
        <time>2023-11-05T12:14:51Z</time>
      </trkpt>
      <trkpt lat="43.49279" lon="6.6279">
        <ele>26.5</ele>
        <time>2023-11-05T12:14:52Z</time>
      </trkpt>
      <trkpt lat="43.49279" lon="6.6279">
        <ele>26.4</ele>
        <time>2023-11-05T12:14:53Z</time>
      </trkpt>
      <trkpt lat="43.49278" lon="6.6279">
        <ele>26.4</ele>
        <time>2023-11-05T12:14:54Z</time>
      </trkpt>
      <trkpt lat="43.49278" lon="6.6279">
        <ele>26.2</ele>
        <time>2023-11-05T12:14:55Z</time>
      </trkpt>
      <trkpt lat="43.49278" lon="6.6279">
        <ele>26.2</ele>
        <time>2023-11-05T12:14:56Z</time>
      </trkpt>
      <trkpt lat="43.49278" lon="6.6279">
        <ele>26.1</ele>
        <time>2023-11-05T12:14:57Z</time>
      </trkpt>
      <trkpt lat="43.49278" lon="6.6279">
        <ele>26.1</ele>
        <time>2023-11-05T12:14:58Z</time>
      </trkpt>
      <trkpt lat="43.49278" lon="6.6279">
        <ele>26</ele>
        <time>2023-11-05T12:14:59Z</time>
      </trkpt>
      <trkpt lat="43.49278" lon="6.6279">
        <ele>26</ele>
        <time>2023-11-05T12:15:00Z</time>
      </trkpt>
      <trkpt lat="43.49277" lon="6.6279">
        <ele>25.9</ele>
        <time>2023-11-05T12:15:01Z</time>
      </trkpt>
      <trkpt lat="43.49277" lon="6.6279">
        <ele>25.9</ele>
        <time>2023-11-05T12:15:02Z</time>
      </trkpt>
      <trkpt lat="43.49277" lon="6.6279">
        <ele>25.9</ele>
        <time>2023-11-05T12:15:03Z</time>
      </trkpt>
      <trkpt lat="43.49277" lon="6.6279">
        <ele>26</ele>
        <time>2023-11-05T12:15:04Z</time>
      </trkpt>
      <trkpt lat="43.49277" lon="6.6279">
        <ele>26</ele>
        <time>2023-11-05T12:15:05Z</time>
      </trkpt>
      <trkpt lat="43.49277" lon="6.62789">
        <ele>25.9</ele>
        <time>2023-11-05T12:15:06Z</time>
      </trkpt>
      <trkpt lat="43.49277" lon="6.62789">
        <ele>25.9</ele>
        <time>2023-11-05T12:15:07Z</time>
      </trkpt>
      <trkpt lat="43.49277" lon="6.62789">
        <ele>26</ele>
        <time>2023-11-05T12:15:08Z</time>
      </trkpt>
      <trkpt lat="43.49277" lon="6.62789">
        <ele>26.1</ele>
        <time>2023-11-05T12:15:09Z</time>
      </trkpt>
      <trkpt lat="43.49277" lon="6.62789">
        <ele>26.2</ele>
        <time>2023-11-05T12:15:10Z</time>
      </trkpt>
      <trkpt lat="43.49277" lon="6.62789">
        <ele>26.3</ele>
        <time>2023-11-05T12:15:11Z</time>
      </trkpt>
      <trkpt lat="43.49276" lon="6.62789">
        <ele>26.3</ele>
        <time>2023-11-05T12:15:12Z</time>
      </trkpt>
      <trkpt lat="43.49276" lon="6.62789">
        <ele>26.2</ele>
        <time>2023-11-05T12:15:13Z</time>
      </trkpt>
      <trkpt lat="43.49276" lon="6.62789">
        <ele>26.2</ele>
        <time>2023-11-05T12:15:14Z</time>
      </trkpt>
      <trkpt lat="43.49276" lon="6.62789">
        <ele>26.1</ele>
        <time>2023-11-05T12:15:15Z</time>
      </trkpt>
      <trkpt lat="43.49276" lon="6.62789">
        <ele>26</ele>
        <time>2023-11-05T12:15:16Z</time>
      </trkpt>
      <trkpt lat="43.49276" lon="6.62789">
        <ele>25.9</ele>
        <time>2023-11-05T12:15:17Z</time>
      </trkpt>
      <trkpt lat="43.49276" lon="6.62789">
        <ele>25.8</ele>
        <time>2023-11-05T12:15:18Z</time>
      </trkpt>
      <trkpt lat="43.49275" lon="6.62789">
        <ele>25.9</ele>
        <time>2023-11-05T12:15:19Z</time>
      </trkpt>
      <trkpt lat="43.49275" lon="6.62788">
        <ele>25.9</ele>
        <time>2023-11-05T12:15:20Z</time>
      </trkpt>
      <trkpt lat="43.49275" lon="6.62788">
        <ele>25.8</ele>
        <time>2023-11-05T12:15:21Z</time>
      </trkpt>
      <trkpt lat="43.49275" lon="6.62788">
        <ele>25.7</ele>
        <time>2023-11-05T12:15:22Z</time>
      </trkpt>
      <trkpt lat="43.49276" lon="6.62788">
        <ele>25.7</ele>
        <time>2023-11-05T12:15:23Z</time>
      </trkpt>
      <trkpt lat="43.49276" lon="6.62789">
        <ele>25.9</ele>
        <time>2023-11-05T12:15:24Z</time>
      </trkpt>
      <trkpt lat="43.49276" lon="6.62789">
        <ele>26.1</ele>
        <time>2023-11-05T12:15:25Z</time>
      </trkpt>
      <trkpt lat="43.49276" lon="6.62789">
        <ele>26.2</ele>
        <time>2023-11-05T12:15:26Z</time>
      </trkpt>
      <trkpt lat="43.49277" lon="6.6279">
        <ele>26.3</ele>
        <time>2023-11-05T12:15:27Z</time>
      </trkpt>
      <trkpt lat="43.49277" lon="6.6279">
        <ele>26.4</ele>
        <time>2023-11-05T12:15:28Z</time>
      </trkpt>
      <trkpt lat="43.49277" lon="6.62791">
        <ele>26.6</ele>
        <time>2023-11-05T12:15:29Z</time>
      </trkpt>
      <trkpt lat="43.49276" lon="6.62791">
        <ele>26.9</ele>
        <time>2023-11-05T12:15:30Z</time>
      </trkpt>
      <trkpt lat="43.49277" lon="6.62791">
        <ele>27.2</ele>
        <time>2023-11-05T12:15:31Z</time>
      </trkpt>
      <trkpt lat="43.49276" lon="6.6279">
        <ele>27.3</ele>
        <time>2023-11-05T12:15:32Z</time>
      </trkpt>
      <trkpt lat="43.49276" lon="6.6279">
        <ele>27.3</ele>
        <time>2023-11-05T12:15:33Z</time>
      </trkpt>
      <trkpt lat="43.49276" lon="6.6279">
        <ele>27.3</ele>
        <time>2023-11-05T12:15:34Z</time>
      </trkpt>
      <trkpt lat="43.49276" lon="6.6279">
        <ele>27.2</ele>
        <time>2023-11-05T12:15:35Z</time>
      </trkpt>
      <trkpt lat="43.49276" lon="6.6279">
        <ele>27.2</ele>
        <time>2023-11-05T12:15:36Z</time>
      </trkpt>
      <trkpt lat="43.49276" lon="6.62789">
        <ele>27.3</ele>
        <time>2023-11-05T12:15:37Z</time>
      </trkpt>
      <trkpt lat="43.49276" lon="6.62789">
        <ele>27.3</ele>
        <time>2023-11-05T12:15:38Z</time>
      </trkpt>
      <trkpt lat="43.49276" lon="6.62788">
        <ele>27.4</ele>
        <time>2023-11-05T12:15:39Z</time>
      </trkpt>
      <trkpt lat="43.49276" lon="6.62788">
        <ele>27.2</ele>
        <time>2023-11-05T12:15:40Z</time>
      </trkpt>
      <trkpt lat="43.49276" lon="6.62788">
        <ele>27.1</ele>
        <time>2023-11-05T12:15:41Z</time>
      </trkpt>
      <trkpt lat="43.49276" lon="6.62787">
        <ele>27.2</ele>
        <time>2023-11-05T12:15:42Z</time>
      </trkpt>
      <trkpt lat="43.49276" lon="6.62787">
        <ele>27.4</ele>
        <time>2023-11-05T12:15:43Z</time>
      </trkpt>
      <trkpt lat="43.49276" lon="6.62786">
        <ele>27.5</ele>
        <time>2023-11-05T12:15:44Z</time>
      </trkpt>
      <trkpt lat="43.49275" lon="6.62785">
        <ele>27.6</ele>
        <time>2023-11-05T12:15:45Z</time>
      </trkpt>
      <trkpt lat="43.49274" lon="6.62784">
        <ele>27.6</ele>
        <time>2023-11-05T12:15:46Z</time>
      </trkpt>
      <trkpt lat="43.49274" lon="6.62783">
        <ele>27.6</ele>
        <time>2023-11-05T12:15:47Z</time>
      </trkpt>
      <trkpt lat="43.49274" lon="6.62782">
        <ele>27.6</ele>
        <time>2023-11-05T12:15:48Z</time>
      </trkpt>
      <trkpt lat="43.49273" lon="6.62782">
        <ele>27.6</ele>
        <time>2023-11-05T12:15:49Z</time>
      </trkpt>
      <trkpt lat="43.49273" lon="6.62783">
        <ele>27.6</ele>
        <time>2023-11-05T12:15:50Z</time>
      </trkpt>
      <trkpt lat="43.49273" lon="6.62783">
        <ele>27.8</ele>
        <time>2023-11-05T12:15:51Z</time>
      </trkpt>
      <trkpt lat="43.49272" lon="6.62782">
        <ele>27.9</ele>
        <time>2023-11-05T12:15:52Z</time>
      </trkpt>
      <trkpt lat="43.49272" lon="6.62781">
        <ele>27.9</ele>
        <time>2023-11-05T12:15:53Z</time>
      </trkpt>
      <trkpt lat="43.49272" lon="6.6278">
        <ele>28</ele>
        <time>2023-11-05T12:15:54Z</time>
      </trkpt>
      <trkpt lat="43.49271" lon="6.62779">
        <ele>28</ele>
        <time>2023-11-05T12:15:55Z</time>
      </trkpt>
      <trkpt lat="43.49271" lon="6.62778">
        <ele>27.9</ele>
        <time>2023-11-05T12:15:56Z</time>
      </trkpt>
      <trkpt lat="43.4927" lon="6.62777">
        <ele>27.9</ele>
        <time>2023-11-05T12:15:57Z</time>
      </trkpt>
      <trkpt lat="43.49269" lon="6.62776">
        <ele>27.7</ele>
        <time>2023-11-05T12:15:58Z</time>
      </trkpt>
      <trkpt lat="43.49268" lon="6.62776">
        <ele>27.7</ele>
        <time>2023-11-05T12:15:59Z</time>
      </trkpt>
      <trkpt lat="43.49267" lon="6.62775">
        <ele>27.6</ele>
        <time>2023-11-05T12:16:00Z</time>
      </trkpt>
      <trkpt lat="43.49266" lon="6.62773">
        <ele>23.2</ele>
        <time>2023-11-05T12:16:01Z</time>
      </trkpt>
      <trkpt lat="43.49265" lon="6.62772">
        <ele>23.9</ele>
        <time>2023-11-05T12:16:02Z</time>
      </trkpt>
      <trkpt lat="43.49264" lon="6.6277">
        <ele>24.5</ele>
        <time>2023-11-05T12:16:03Z</time>
      </trkpt>
      <trkpt lat="43.49263" lon="6.62769">
        <ele>24.8</ele>
        <time>2023-11-05T12:16:04Z</time>
      </trkpt>
      <trkpt lat="43.49262" lon="6.62767">
        <ele>25.1</ele>
        <time>2023-11-05T12:16:05Z</time>
      </trkpt>
      <trkpt lat="43.49261" lon="6.62766">
        <ele>25.3</ele>
        <time>2023-11-05T12:16:06Z</time>
      </trkpt>
      <trkpt lat="43.4926" lon="6.62765">
        <ele>25.4</ele>
        <time>2023-11-05T12:16:07Z</time>
      </trkpt>
      <trkpt lat="43.49258" lon="6.62764">
        <ele>25.5</ele>
        <time>2023-11-05T12:16:08Z</time>
      </trkpt>
      <trkpt lat="43.49257" lon="6.62764">
        <ele>25.5</ele>
        <time>2023-11-05T12:16:09Z</time>
      </trkpt>
      <trkpt lat="43.49257" lon="6.62764">
        <ele>25.6</ele>
        <time>2023-11-05T12:16:10Z</time>
      </trkpt>
      <trkpt lat="43.49256" lon="6.62764">
        <ele>25.7</ele>
        <time>2023-11-05T12:16:11Z</time>
      </trkpt>
      <trkpt lat="43.49256" lon="6.62764">
        <ele>25.7</ele>
        <time>2023-11-05T12:16:12Z</time>
      </trkpt>
      <trkpt lat="43.49256" lon="6.62764">
        <ele>25.7</ele>
        <time>2023-11-05T12:16:13Z</time>
      </trkpt>
      <trkpt lat="43.49256" lon="6.62764">
        <ele>25.7</ele>
        <time>2023-11-05T12:16:14Z</time>
      </trkpt>
      <trkpt lat="43.49257" lon="6.62765">
        <ele>25.7</ele>
        <time>2023-11-05T12:16:15Z</time>
      </trkpt>
      <trkpt lat="43.49257" lon="6.62765">
        <ele>25.7</ele>
        <time>2023-11-05T12:16:16Z</time>
      </trkpt>
      <trkpt lat="43.49257" lon="6.62765">
        <ele>25.6</ele>
        <time>2023-11-05T12:16:17Z</time>
      </trkpt>
      <trkpt lat="43.49257" lon="6.62766">
        <ele>25.5</ele>
        <time>2023-11-05T12:16:18Z</time>
      </trkpt>
      <trkpt lat="43.49257" lon="6.62766">
        <ele>25.4</ele>
        <time>2023-11-05T12:16:19Z</time>
      </trkpt>
      <trkpt lat="43.49257" lon="6.62766">
        <ele>25.4</ele>
        <time>2023-11-05T12:16:20Z</time>
      </trkpt>
      <trkpt lat="43.49256" lon="6.62766">
        <ele>25.4</ele>
        <time>2023-11-05T12:16:21Z</time>
      </trkpt>
      <trkpt lat="43.49256" lon="6.62766">
        <ele>25.4</ele>
        <time>2023-11-05T12:16:22Z</time>
      </trkpt>
      <trkpt lat="43.49257" lon="6.62766">
        <ele>25.4</ele>
        <time>2023-11-05T12:16:23Z</time>
      </trkpt>
      <trkpt lat="43.49257" lon="6.62766">
        <ele>25.5</ele>
        <time>2023-11-05T12:16:24Z</time>
      </trkpt>
      <trkpt lat="43.49257" lon="6.62766">
        <ele>25.6</ele>
        <time>2023-11-05T12:16:25Z</time>
      </trkpt>
      <trkpt lat="43.49257" lon="6.62766">
        <ele>25.6</ele>
        <time>2023-11-05T12:16:26Z</time>
      </trkpt>
      <trkpt lat="43.49257" lon="6.62766">
        <ele>25.7</ele>
        <time>2023-11-05T12:16:27Z</time>
      </trkpt>
      <trkpt lat="43.49257" lon="6.62766">
        <ele>25.7</ele>
        <time>2023-11-05T12:16:28Z</time>
      </trkpt>
      <trkpt lat="43.49257" lon="6.62766">
        <ele>25.8</ele>
        <time>2023-11-05T12:16:29Z</time>
      </trkpt>
      <trkpt lat="43.49257" lon="6.62767">
        <ele>25.8</ele>
        <time>2023-11-05T12:16:30Z</time>
      </trkpt>
      <trkpt lat="43.49257" lon="6.62767">
        <ele>25.9</ele>
        <time>2023-11-05T12:16:31Z</time>
      </trkpt>
      <trkpt lat="43.49257" lon="6.62767">
        <ele>25.9</ele>
        <time>2023-11-05T12:16:32Z</time>
      </trkpt>
      <trkpt lat="43.49257" lon="6.62767">
        <ele>25.9</ele>
        <time>2023-11-05T12:16:33Z</time>
      </trkpt>
      <trkpt lat="43.49257" lon="6.62767">
        <ele>25.8</ele>
        <time>2023-11-05T12:16:34Z</time>
      </trkpt>
      <trkpt lat="43.49257" lon="6.62767">
        <ele>25.8</ele>
        <time>2023-11-05T12:16:35Z</time>
      </trkpt>
      <trkpt lat="43.49257" lon="6.62767">
        <ele>25.8</ele>
        <time>2023-11-05T12:16:36Z</time>
      </trkpt>
      <trkpt lat="43.49257" lon="6.62767">
        <ele>25.8</ele>
        <time>2023-11-05T12:16:37Z</time>
      </trkpt>
      <trkpt lat="43.49257" lon="6.62767">
        <ele>25.8</ele>
        <time>2023-11-05T12:16:38Z</time>
      </trkpt>
      <trkpt lat="43.49257" lon="6.62767">
        <ele>25.8</ele>
        <time>2023-11-05T12:16:39Z</time>
      </trkpt>
      <trkpt lat="43.49257" lon="6.62767">
        <ele>25.8</ele>
        <time>2023-11-05T12:16:40Z</time>
      </trkpt>
      <trkpt lat="43.49257" lon="6.62767">
        <ele>25.9</ele>
        <time>2023-11-05T12:16:41Z</time>
      </trkpt>
      <trkpt lat="43.49257" lon="6.62767">
        <ele>25.9</ele>
        <time>2023-11-05T12:16:42Z</time>
      </trkpt>
      <trkpt lat="43.49257" lon="6.62767">
        <ele>26</ele>
        <time>2023-11-05T12:16:43Z</time>
      </trkpt>
      <trkpt lat="43.49257" lon="6.62767">
        <ele>26</ele>
        <time>2023-11-05T12:16:44Z</time>
      </trkpt>
      <trkpt lat="43.49257" lon="6.62767">
        <ele>26.1</ele>
        <time>2023-11-05T12:16:45Z</time>
      </trkpt>
      <trkpt lat="43.49257" lon="6.62767">
        <ele>26.1</ele>
        <time>2023-11-05T12:16:46Z</time>
      </trkpt>
      <trkpt lat="43.49257" lon="6.62767">
        <ele>26.1</ele>
        <time>2023-11-05T12:16:47Z</time>
      </trkpt>
      <trkpt lat="43.49256" lon="6.62766">
        <ele>26.1</ele>
        <time>2023-11-05T12:16:48Z</time>
      </trkpt>
      <trkpt lat="43.49256" lon="6.62767">
        <ele>26.1</ele>
        <time>2023-11-05T12:16:49Z</time>
      </trkpt>
      <trkpt lat="43.49257" lon="6.62768">
        <ele>26.1</ele>
        <time>2023-11-05T12:16:50Z</time>
      </trkpt>
      <trkpt lat="43.49258" lon="6.62768">
        <ele>26.1</ele>
        <time>2023-11-05T12:16:51Z</time>
      </trkpt>
      <trkpt lat="43.49258" lon="6.62769">
        <ele>26.1</ele>
        <time>2023-11-05T12:16:52Z</time>
      </trkpt>
      <trkpt lat="43.49259" lon="6.6277">
        <ele>26</ele>
        <time>2023-11-05T12:16:53Z</time>
      </trkpt>
      <trkpt lat="43.4926" lon="6.62771">
        <ele>26</ele>
        <time>2023-11-05T12:16:54Z</time>
      </trkpt>
      <trkpt lat="43.4926" lon="6.62772">
        <ele>26</ele>
        <time>2023-11-05T12:16:55Z</time>
      </trkpt>
      <trkpt lat="43.4926" lon="6.62773">
        <ele>26</ele>
        <time>2023-11-05T12:16:56Z</time>
      </trkpt>
      <trkpt lat="43.49261" lon="6.62773">
        <ele>26.1</ele>
        <time>2023-11-05T12:16:57Z</time>
      </trkpt>
      <trkpt lat="43.49261" lon="6.62774">
        <ele>26</ele>
        <time>2023-11-05T12:16:58Z</time>
      </trkpt>
      <trkpt lat="43.49261" lon="6.62774">
        <ele>26</ele>
        <time>2023-11-05T12:16:59Z</time>
      </trkpt>
      <trkpt lat="43.49261" lon="6.62774">
        <ele>26</ele>
        <time>2023-11-05T12:17:00Z</time>
      </trkpt>
      <trkpt lat="43.49262" lon="6.62773">
        <ele>26</ele>
        <time>2023-11-05T12:17:01Z</time>
      </trkpt>
      <trkpt lat="43.49262" lon="6.62773">
        <ele>26</ele>
        <time>2023-11-05T12:17:02Z</time>
      </trkpt>
      <trkpt lat="43.49262" lon="6.62774">
        <ele>26.1</ele>
        <time>2023-11-05T12:17:03Z</time>
      </trkpt>
      <trkpt lat="43.49262" lon="6.62774">
        <ele>26.2</ele>
        <time>2023-11-05T12:17:04Z</time>
      </trkpt>
      <trkpt lat="43.49263" lon="6.62775">
        <ele>26.3</ele>
        <time>2023-11-05T12:17:05Z</time>
      </trkpt>
      <trkpt lat="43.49263" lon="6.62775">
        <ele>26.3</ele>
        <time>2023-11-05T12:17:06Z</time>
      </trkpt>
      <trkpt lat="43.49264" lon="6.62776">
        <ele>26.4</ele>
        <time>2023-11-05T12:17:07Z</time>
      </trkpt>
      <trkpt lat="43.49264" lon="6.62777">
        <ele>26.4</ele>
        <time>2023-11-05T12:17:08Z</time>
      </trkpt>
      <trkpt lat="43.49265" lon="6.62778">
        <ele>26.5</ele>
        <time>2023-11-05T12:17:09Z</time>
      </trkpt>
      <trkpt lat="43.49265" lon="6.62779">
        <ele>26.5</ele>
        <time>2023-11-05T12:17:10Z</time>
      </trkpt>
      <trkpt lat="43.49266" lon="6.62779">
        <ele>26.5</ele>
        <time>2023-11-05T12:17:11Z</time>
      </trkpt>
      <trkpt lat="43.49266" lon="6.6278">
        <ele>26.6</ele>
        <time>2023-11-05T12:17:12Z</time>
      </trkpt>
      <trkpt lat="43.49267" lon="6.62781">
        <ele>26.6</ele>
        <time>2023-11-05T12:17:13Z</time>
      </trkpt>
      <trkpt lat="43.49268" lon="6.62782">
        <ele>26.6</ele>
        <time>2023-11-05T12:17:14Z</time>
      </trkpt>
      <trkpt lat="43.49268" lon="6.62783">
        <ele>26.6</ele>
        <time>2023-11-05T12:17:15Z</time>
      </trkpt>
      <trkpt lat="43.49269" lon="6.62784">
        <ele>26.7</ele>
        <time>2023-11-05T12:17:16Z</time>
      </trkpt>
      <trkpt lat="43.49269" lon="6.62785">
        <ele>26.7</ele>
        <time>2023-11-05T12:17:17Z</time>
      </trkpt>
      <trkpt lat="43.4927" lon="6.62786">
        <ele>26.8</ele>
        <time>2023-11-05T12:17:18Z</time>
      </trkpt>
      <trkpt lat="43.4927" lon="6.62787">
        <ele>26.7</ele>
        <time>2023-11-05T12:17:19Z</time>
      </trkpt>
      <trkpt lat="43.4927" lon="6.62788">
        <ele>26.7</ele>
        <time>2023-11-05T12:17:20Z</time>
      </trkpt>
      <trkpt lat="43.4927" lon="6.62789">
        <ele>26.8</ele>
        <time>2023-11-05T12:17:21Z</time>
      </trkpt>
      <trkpt lat="43.49271" lon="6.62789">
        <ele>26.9</ele>
        <time>2023-11-05T12:17:22Z</time>
      </trkpt>
      <trkpt lat="43.49271" lon="6.62789">
        <ele>26.9</ele>
        <time>2023-11-05T12:17:23Z</time>
      </trkpt>
      <trkpt lat="43.49271" lon="6.62788">
        <ele>27</ele>
        <time>2023-11-05T12:17:24Z</time>
      </trkpt>
      <trkpt lat="43.49271" lon="6.62788">
        <ele>27</ele>
        <time>2023-11-05T12:17:25Z</time>
      </trkpt>
      <trkpt lat="43.49271" lon="6.62788">
        <ele>27</ele>
        <time>2023-11-05T12:17:26Z</time>
      </trkpt>
      <trkpt lat="43.49271" lon="6.62788">
        <ele>27.1</ele>
        <time>2023-11-05T12:17:27Z</time>
      </trkpt>
      <trkpt lat="43.49272" lon="6.62788">
        <ele>27.2</ele>
        <time>2023-11-05T12:17:28Z</time>
      </trkpt>
      <trkpt lat="43.49272" lon="6.62787">
        <ele>27.3</ele>
        <time>2023-11-05T12:17:29Z</time>
      </trkpt>
      <trkpt lat="43.49272" lon="6.62787">
        <ele>27.5</ele>
        <time>2023-11-05T12:17:30Z</time>
      </trkpt>
      <trkpt lat="43.49272" lon="6.62787">
        <ele>27.6</ele>
        <time>2023-11-05T12:17:31Z</time>
      </trkpt>
      <trkpt lat="43.49272" lon="6.62787">
        <ele>27.7</ele>
        <time>2023-11-05T12:17:32Z</time>
      </trkpt>
      <trkpt lat="43.49272" lon="6.62786">
        <ele>27.7</ele>
        <time>2023-11-05T12:17:33Z</time>
      </trkpt>
      <trkpt lat="43.49272" lon="6.62786">
        <ele>27.7</ele>
        <time>2023-11-05T12:17:34Z</time>
      </trkpt>
      <trkpt lat="43.49272" lon="6.62786">
        <ele>27.7</ele>
        <time>2023-11-05T12:17:35Z</time>
      </trkpt>
      <trkpt lat="43.49272" lon="6.62786">
        <ele>27.6</ele>
        <time>2023-11-05T12:17:36Z</time>
      </trkpt>
      <trkpt lat="43.49272" lon="6.62786">
        <ele>27.5</ele>
        <time>2023-11-05T12:17:37Z</time>
      </trkpt>
      <trkpt lat="43.49272" lon="6.62786">
        <ele>27.5</ele>
        <time>2023-11-05T12:17:38Z</time>
      </trkpt>
      <trkpt lat="43.49272" lon="6.62786">
        <ele>27.5</ele>
        <time>2023-11-05T12:17:39Z</time>
      </trkpt>
      <trkpt lat="43.49272" lon="6.62786">
        <ele>27.4</ele>
        <time>2023-11-05T12:17:40Z</time>
      </trkpt>
      <trkpt lat="43.49272" lon="6.62786">
        <ele>27.4</ele>
        <time>2023-11-05T12:17:41Z</time>
      </trkpt>
      <trkpt lat="43.49272" lon="6.62786">
        <ele>27.4</ele>
        <time>2023-11-05T12:17:42Z</time>
      </trkpt>
      <trkpt lat="43.49272" lon="6.62786">
        <ele>27.4</ele>
        <time>2023-11-05T12:17:43Z</time>
      </trkpt>
      <trkpt lat="43.49272" lon="6.62786">
        <ele>27.3</ele>
        <time>2023-11-05T12:17:44Z</time>
      </trkpt>
      <trkpt lat="43.49272" lon="6.62786">
        <ele>27.3</ele>
        <time>2023-11-05T12:17:45Z</time>
      </trkpt>
      <trkpt lat="43.49272" lon="6.62786">
        <ele>27.4</ele>
        <time>2023-11-05T12:17:46Z</time>
      </trkpt>
      <trkpt lat="43.49272" lon="6.62786">
        <ele>27.5</ele>
        <time>2023-11-05T12:17:47Z</time>
      </trkpt>
      <trkpt lat="43.49272" lon="6.62785">
        <ele>27.5</ele>
        <time>2023-11-05T12:17:48Z</time>
      </trkpt>
      <trkpt lat="43.49272" lon="6.62785">
        <ele>27.4</ele>
        <time>2023-11-05T12:17:49Z</time>
      </trkpt>
      <trkpt lat="43.49273" lon="6.62785">
        <ele>27.4</ele>
        <time>2023-11-05T12:17:50Z</time>
      </trkpt>
      <trkpt lat="43.49273" lon="6.62785">
        <ele>27.4</ele>
        <time>2023-11-05T12:17:51Z</time>
      </trkpt>
      <trkpt lat="43.49273" lon="6.62785">
        <ele>27.4</ele>
        <time>2023-11-05T12:17:52Z</time>
      </trkpt>
      <trkpt lat="43.49273" lon="6.62785">
        <ele>27.3</ele>
        <time>2023-11-05T12:17:53Z</time>
      </trkpt>
      <trkpt lat="43.49273" lon="6.62785">
        <ele>27.4</ele>
        <time>2023-11-05T12:17:54Z</time>
      </trkpt>
      <trkpt lat="43.49273" lon="6.62785">
        <ele>27.3</ele>
        <time>2023-11-05T12:17:55Z</time>
      </trkpt>
      <trkpt lat="43.49273" lon="6.62785">
        <ele>27.2</ele>
        <time>2023-11-05T12:17:56Z</time>
      </trkpt>
      <trkpt lat="43.49273" lon="6.62785">
        <ele>27.1</ele>
        <time>2023-11-05T12:17:57Z</time>
      </trkpt>
      <trkpt lat="43.49273" lon="6.62785">
        <ele>26.9</ele>
        <time>2023-11-05T12:17:58Z</time>
      </trkpt>
      <trkpt lat="43.49273" lon="6.62785">
        <ele>27</ele>
        <time>2023-11-05T12:17:59Z</time>
      </trkpt>
      <trkpt lat="43.49273" lon="6.62785">
        <ele>27</ele>
        <time>2023-11-05T12:18:00Z</time>
      </trkpt>
      <trkpt lat="43.49273" lon="6.62785">
        <ele>27.1</ele>
        <time>2023-11-05T12:18:01Z</time>
      </trkpt>
      <trkpt lat="43.49273" lon="6.62785">
        <ele>27.2</ele>
        <time>2023-11-05T12:18:02Z</time>
      </trkpt>
      <trkpt lat="43.49273" lon="6.62785">
        <ele>27.2</ele>
        <time>2023-11-05T12:18:03Z</time>
      </trkpt>
      <trkpt lat="43.49273" lon="6.62785">
        <ele>27.2</ele>
        <time>2023-11-05T12:18:04Z</time>
      </trkpt>
      <trkpt lat="43.49273" lon="6.62785">
        <ele>27.3</ele>
        <time>2023-11-05T12:18:05Z</time>
      </trkpt>
      <trkpt lat="43.49273" lon="6.62785">
        <ele>27.3</ele>
        <time>2023-11-05T12:18:06Z</time>
      </trkpt>
      <trkpt lat="43.49273" lon="6.62785">
        <ele>27.3</ele>
        <time>2023-11-05T12:18:07Z</time>
      </trkpt>
      <trkpt lat="43.49273" lon="6.62785">
        <ele>27.3</ele>
        <time>2023-11-05T12:18:08Z</time>
      </trkpt>
      <trkpt lat="43.49273" lon="6.62785">
        <ele>27.3</ele>
        <time>2023-11-05T12:18:09Z</time>
      </trkpt>
      <trkpt lat="43.49273" lon="6.62785">
        <ele>27.3</ele>
        <time>2023-11-05T12:18:10Z</time>
      </trkpt>
      <trkpt lat="43.49273" lon="6.62786">
        <ele>27.3</ele>
        <time>2023-11-05T12:18:11Z</time>
      </trkpt>
      <trkpt lat="43.49274" lon="6.62787">
        <ele>27.3</ele>
        <time>2023-11-05T12:18:12Z</time>
      </trkpt>
      <trkpt lat="43.49275" lon="6.62788">
        <ele>27.3</ele>
        <time>2023-11-05T12:18:13Z</time>
      </trkpt>
      <trkpt lat="43.49275" lon="6.62789">
        <ele>27.2</ele>
        <time>2023-11-05T12:18:14Z</time>
      </trkpt>
      <trkpt lat="43.49275" lon="6.62789">
        <ele>27.2</ele>
        <time>2023-11-05T12:18:15Z</time>
      </trkpt>
      <trkpt lat="43.49275" lon="6.6279">
        <ele>27.1</ele>
        <time>2023-11-05T12:18:16Z</time>
      </trkpt>
      <trkpt lat="43.49275" lon="6.6279">
        <ele>27.2</ele>
        <time>2023-11-05T12:18:17Z</time>
      </trkpt>
      <trkpt lat="43.49276" lon="6.6279">
        <ele>27.3</ele>
        <time>2023-11-05T12:18:18Z</time>
      </trkpt>
      <trkpt lat="43.49276" lon="6.6279">
        <ele>27.4</ele>
        <time>2023-11-05T12:18:19Z</time>
      </trkpt>
      <trkpt lat="43.49276" lon="6.62789">
        <ele>27.5</ele>
        <time>2023-11-05T12:18:20Z</time>
      </trkpt>
      <trkpt lat="43.49276" lon="6.62789">
        <ele>27.6</ele>
        <time>2023-11-05T12:18:21Z</time>
      </trkpt>
      <trkpt lat="43.49276" lon="6.62789">
        <ele>27.6</ele>
        <time>2023-11-05T12:18:22Z</time>
      </trkpt>
      <trkpt lat="43.49276" lon="6.62789">
        <ele>27.6</ele>
        <time>2023-11-05T12:18:23Z</time>
      </trkpt>
      <trkpt lat="43.49276" lon="6.62789">
        <ele>27.4</ele>
        <time>2023-11-05T12:18:24Z</time>
      </trkpt>
      <trkpt lat="43.49275" lon="6.62789">
        <ele>27.3</ele>
        <time>2023-11-05T12:18:25Z</time>
      </trkpt>
      <trkpt lat="43.49275" lon="6.62789">
        <ele>27.2</ele>
        <time>2023-11-05T12:18:26Z</time>
      </trkpt>
      <trkpt lat="43.49275" lon="6.62788">
        <ele>27.1</ele>
        <time>2023-11-05T12:18:27Z</time>
      </trkpt>
      <trkpt lat="43.49275" lon="6.62788">
        <ele>27</ele>
        <time>2023-11-05T12:18:28Z</time>
      </trkpt>
      <trkpt lat="43.49275" lon="6.62788">
        <ele>27.1</ele>
        <time>2023-11-05T12:18:29Z</time>
      </trkpt>
      <trkpt lat="43.49275" lon="6.62789">
        <ele>27.2</ele>
        <time>2023-11-05T12:18:30Z</time>
      </trkpt>
      <trkpt lat="43.49275" lon="6.62789">
        <ele>27.1</ele>
        <time>2023-11-05T12:18:31Z</time>
      </trkpt>
      <trkpt lat="43.49275" lon="6.62789">
        <ele>27.2</ele>
        <time>2023-11-05T12:18:32Z</time>
      </trkpt>
      <trkpt lat="43.49275" lon="6.62789">
        <ele>27.2</ele>
        <time>2023-11-05T12:18:33Z</time>
      </trkpt>
      <trkpt lat="43.49276" lon="6.62789">
        <ele>27.2</ele>
        <time>2023-11-05T12:18:34Z</time>
      </trkpt>
      <trkpt lat="43.49276" lon="6.62789">
        <ele>27.2</ele>
        <time>2023-11-05T12:18:35Z</time>
      </trkpt>
      <trkpt lat="43.49276" lon="6.62789">
        <ele>27</ele>
        <time>2023-11-05T12:18:36Z</time>
      </trkpt>
      <trkpt lat="43.49276" lon="6.62789">
        <ele>26.9</ele>
        <time>2023-11-05T12:18:37Z</time>
      </trkpt>
      <trkpt lat="43.49276" lon="6.62788">
        <ele>26.8</ele>
        <time>2023-11-05T12:18:38Z</time>
      </trkpt>
      <trkpt lat="43.49275" lon="6.62788">
        <ele>26.8</ele>
        <time>2023-11-05T12:18:39Z</time>
      </trkpt>
      <trkpt lat="43.49275" lon="6.62788">
        <ele>26.8</ele>
        <time>2023-11-05T12:18:40Z</time>
      </trkpt>
      <trkpt lat="43.49275" lon="6.62788">
        <ele>26.8</ele>
        <time>2023-11-05T12:18:41Z</time>
      </trkpt>
      <trkpt lat="43.49275" lon="6.62788">
        <ele>26.8</ele>
        <time>2023-11-05T12:18:42Z</time>
      </trkpt>
      <trkpt lat="43.49275" lon="6.62788">
        <ele>27</ele>
        <time>2023-11-05T12:18:43Z</time>
      </trkpt>
      <trkpt lat="43.49275" lon="6.62788">
        <ele>27</ele>
        <time>2023-11-05T12:18:44Z</time>
      </trkpt>
      <trkpt lat="43.49275" lon="6.62789">
        <ele>27</ele>
        <time>2023-11-05T12:18:45Z</time>
      </trkpt>
      <trkpt lat="43.49275" lon="6.62789">
        <ele>26.9</ele>
        <time>2023-11-05T12:18:46Z</time>
      </trkpt>
      <trkpt lat="43.49275" lon="6.6279">
        <ele>26.9</ele>
        <time>2023-11-05T12:18:47Z</time>
      </trkpt>
      <trkpt lat="43.49276" lon="6.6279">
        <ele>26.9</ele>
        <time>2023-11-05T12:18:48Z</time>
      </trkpt>
      <trkpt lat="43.49276" lon="6.62791">
        <ele>26.8</ele>
        <time>2023-11-05T12:18:49Z</time>
      </trkpt>
      <trkpt lat="43.49276" lon="6.62791">
        <ele>26.8</ele>
        <time>2023-11-05T12:18:50Z</time>
      </trkpt>
      <trkpt lat="43.49276" lon="6.62792">
        <ele>26.8</ele>
        <time>2023-11-05T12:18:51Z</time>
      </trkpt>
      <trkpt lat="43.49276" lon="6.62792">
        <ele>26.8</ele>
        <time>2023-11-05T12:18:52Z</time>
      </trkpt>
      <trkpt lat="43.49276" lon="6.62792">
        <ele>26.8</ele>
        <time>2023-11-05T12:18:53Z</time>
      </trkpt>
      <trkpt lat="43.49276" lon="6.62792">
        <ele>26.7</ele>
        <time>2023-11-05T12:18:54Z</time>
      </trkpt>
      <trkpt lat="43.49276" lon="6.62792">
        <ele>26.7</ele>
        <time>2023-11-05T12:18:55Z</time>
      </trkpt>
      <trkpt lat="43.49276" lon="6.62792">
        <ele>26.8</ele>
        <time>2023-11-05T12:18:56Z</time>
      </trkpt>
      <trkpt lat="43.49277" lon="6.62793">
        <ele>26.8</ele>
        <time>2023-11-05T12:18:57Z</time>
      </trkpt>
      <trkpt lat="43.49277" lon="6.62793">
        <ele>26.9</ele>
        <time>2023-11-05T12:18:58Z</time>
      </trkpt>
      <trkpt lat="43.49277" lon="6.62793">
        <ele>26.8</ele>
        <time>2023-11-05T12:18:59Z</time>
      </trkpt>
      <trkpt lat="43.49277" lon="6.62794">
        <ele>26.8</ele>
        <time>2023-11-05T12:19:00Z</time>
      </trkpt>
      <trkpt lat="43.49277" lon="6.62794">
        <ele>26.7</ele>
        <time>2023-11-05T12:19:01Z</time>
      </trkpt>
      <trkpt lat="43.49277" lon="6.62794">
        <ele>26.7</ele>
        <time>2023-11-05T12:19:02Z</time>
      </trkpt>
      <trkpt lat="43.49277" lon="6.62794">
        <ele>26.7</ele>
        <time>2023-11-05T12:19:03Z</time>
      </trkpt>
      <trkpt lat="43.49277" lon="6.62795">
        <ele>26.7</ele>
        <time>2023-11-05T12:19:04Z</time>
      </trkpt>
      <trkpt lat="43.49277" lon="6.62795">
        <ele>26.8</ele>
        <time>2023-11-05T12:19:05Z</time>
      </trkpt>
      <trkpt lat="43.49277" lon="6.62795">
        <ele>26.8</ele>
        <time>2023-11-05T12:19:06Z</time>
      </trkpt>
      <trkpt lat="43.49277" lon="6.62795">
        <ele>26.8</ele>
        <time>2023-11-05T12:19:07Z</time>
      </trkpt>
      <trkpt lat="43.49278" lon="6.62796">
        <ele>26.7</ele>
        <time>2023-11-05T12:19:08Z</time>
      </trkpt>
      <trkpt lat="43.49278" lon="6.62796">
        <ele>26.6</ele>
        <time>2023-11-05T12:19:09Z</time>
      </trkpt>
      <trkpt lat="43.49278" lon="6.62796">
        <ele>26.7</ele>
        <time>2023-11-05T12:19:10Z</time>
      </trkpt>
      <trkpt lat="43.49278" lon="6.62796">
        <ele>26.7</ele>
        <time>2023-11-05T12:19:11Z</time>
      </trkpt>
      <trkpt lat="43.49278" lon="6.62796">
        <ele>26.7</ele>
        <time>2023-11-05T12:19:12Z</time>
      </trkpt>
      <trkpt lat="43.49278" lon="6.62797">
        <ele>26.8</ele>
        <time>2023-11-05T12:19:13Z</time>
      </trkpt>
      <trkpt lat="43.49278" lon="6.62797">
        <ele>26.9</ele>
        <time>2023-11-05T12:19:14Z</time>
      </trkpt>
      <trkpt lat="43.49278" lon="6.62797">
        <ele>27</ele>
        <time>2023-11-05T12:19:15Z</time>
      </trkpt>
      <trkpt lat="43.49278" lon="6.62797">
        <ele>27</ele>
        <time>2023-11-05T12:19:16Z</time>
      </trkpt>
      <trkpt lat="43.49278" lon="6.62797">
        <ele>27</ele>
        <time>2023-11-05T12:19:17Z</time>
      </trkpt>
      <trkpt lat="43.49278" lon="6.62798">
        <ele>27.1</ele>
        <time>2023-11-05T12:19:18Z</time>
      </trkpt>
      <trkpt lat="43.49278" lon="6.62798">
        <ele>27.1</ele>
        <time>2023-11-05T12:19:19Z</time>
      </trkpt>
      <trkpt lat="43.49278" lon="6.62798">
        <ele>27.2</ele>
        <time>2023-11-05T12:19:20Z</time>
      </trkpt>
      <trkpt lat="43.49278" lon="6.62798">
        <ele>27.3</ele>
        <time>2023-11-05T12:19:21Z</time>
      </trkpt>
      <trkpt lat="43.49278" lon="6.62798">
        <ele>27.3</ele>
        <time>2023-11-05T12:19:22Z</time>
      </trkpt>
      <trkpt lat="43.49278" lon="6.62799">
        <ele>27.3</ele>
        <time>2023-11-05T12:19:23Z</time>
      </trkpt>
      <trkpt lat="43.49278" lon="6.62799">
        <ele>27.2</ele>
        <time>2023-11-05T12:19:24Z</time>
      </trkpt>
      <trkpt lat="43.49278" lon="6.62799">
        <ele>27.2</ele>
        <time>2023-11-05T12:19:25Z</time>
      </trkpt>
      <trkpt lat="43.49278" lon="6.62799">
        <ele>27.1</ele>
        <time>2023-11-05T12:19:26Z</time>
      </trkpt>
      <trkpt lat="43.49278" lon="6.62799">
        <ele>27</ele>
        <time>2023-11-05T12:19:27Z</time>
      </trkpt>
      <trkpt lat="43.49278" lon="6.62799">
        <ele>27</ele>
        <time>2023-11-05T12:19:28Z</time>
      </trkpt>
      <trkpt lat="43.49278" lon="6.628">
        <ele>27</ele>
        <time>2023-11-05T12:19:29Z</time>
      </trkpt>
      <trkpt lat="43.49279" lon="6.628">
        <ele>26.9</ele>
        <time>2023-11-05T12:19:30Z</time>
      </trkpt>
      <trkpt lat="43.49279" lon="6.628">
        <ele>26.9</ele>
        <time>2023-11-05T12:19:31Z</time>
      </trkpt>
      <trkpt lat="43.49278" lon="6.628">
        <ele>26.9</ele>
        <time>2023-11-05T12:19:32Z</time>
      </trkpt>
      <trkpt lat="43.49279" lon="6.628">
        <ele>26.9</ele>
        <time>2023-11-05T12:19:33Z</time>
      </trkpt>
      <trkpt lat="43.49279" lon="6.628">
        <ele>26.9</ele>
        <time>2023-11-05T12:19:34Z</time>
      </trkpt>
      <trkpt lat="43.49278" lon="6.628">
        <ele>26.9</ele>
        <time>2023-11-05T12:19:35Z</time>
      </trkpt>
      <trkpt lat="43.49278" lon="6.628">
        <ele>26.9</ele>
        <time>2023-11-05T12:19:36Z</time>
      </trkpt>
      <trkpt lat="43.49278" lon="6.62799">
        <ele>26.8</ele>
        <time>2023-11-05T12:19:37Z</time>
      </trkpt>
      <trkpt lat="43.49278" lon="6.62799">
        <ele>26.8</ele>
        <time>2023-11-05T12:19:38Z</time>
      </trkpt>
      <trkpt lat="43.49278" lon="6.62799">
        <ele>26.9</ele>
        <time>2023-11-05T12:19:39Z</time>
      </trkpt>
      <trkpt lat="43.49278" lon="6.62799">
        <ele>26.9</ele>
        <time>2023-11-05T12:19:40Z</time>
      </trkpt>
      <trkpt lat="43.49278" lon="6.62799">
        <ele>27</ele>
        <time>2023-11-05T12:19:41Z</time>
      </trkpt>
      <trkpt lat="43.49278" lon="6.62799">
        <ele>27</ele>
        <time>2023-11-05T12:19:42Z</time>
      </trkpt>
      <trkpt lat="43.49278" lon="6.62799">
        <ele>26.9</ele>
        <time>2023-11-05T12:19:43Z</time>
      </trkpt>
      <trkpt lat="43.49278" lon="6.62798">
        <ele>26.9</ele>
        <time>2023-11-05T12:19:44Z</time>
      </trkpt>
      <trkpt lat="43.49278" lon="6.62799">
        <ele>26.8</ele>
        <time>2023-11-05T12:19:45Z</time>
      </trkpt>
      <trkpt lat="43.49278" lon="6.62799">
        <ele>26.7</ele>
        <time>2023-11-05T12:19:46Z</time>
      </trkpt>
      <trkpt lat="43.49278" lon="6.62799">
        <ele>26.7</ele>
        <time>2023-11-05T12:19:47Z</time>
      </trkpt>
      <trkpt lat="43.49278" lon="6.62798">
        <ele>26.8</ele>
        <time>2023-11-05T12:19:48Z</time>
      </trkpt>
      <trkpt lat="43.49278" lon="6.62798">
        <ele>26.8</ele>
        <time>2023-11-05T12:19:49Z</time>
      </trkpt>
      <trkpt lat="43.49278" lon="6.62798">
        <ele>27</ele>
        <time>2023-11-05T12:19:50Z</time>
      </trkpt>
      <trkpt lat="43.49278" lon="6.62798">
        <ele>27.1</ele>
        <time>2023-11-05T12:19:51Z</time>
      </trkpt>
      <trkpt lat="43.49278" lon="6.62798">
        <ele>27.1</ele>
        <time>2023-11-05T12:19:52Z</time>
      </trkpt>
      <trkpt lat="43.49278" lon="6.62798">
        <ele>27.2</ele>
        <time>2023-11-05T12:19:53Z</time>
      </trkpt>
      <trkpt lat="43.49278" lon="6.62798">
        <ele>27.3</ele>
        <time>2023-11-05T12:19:54Z</time>
      </trkpt>
      <trkpt lat="43.49278" lon="6.62798">
        <ele>27.4</ele>
        <time>2023-11-05T12:19:55Z</time>
      </trkpt>
      <trkpt lat="43.49278" lon="6.62798">
        <ele>27.4</ele>
        <time>2023-11-05T12:19:56Z</time>
      </trkpt>
      <trkpt lat="43.49278" lon="6.62798">
        <ele>27.5</ele>
        <time>2023-11-05T12:19:57Z</time>
      </trkpt>
      <trkpt lat="43.49278" lon="6.62798">
        <ele>27.4</ele>
        <time>2023-11-05T12:19:58Z</time>
      </trkpt>
      <trkpt lat="43.49278" lon="6.62798">
        <ele>27.4</ele>
        <time>2023-11-05T12:19:59Z</time>
      </trkpt>
      <trkpt lat="43.49277" lon="6.62798">
        <ele>27.4</ele>
        <time>2023-11-05T12:20:00Z</time>
      </trkpt>
      <trkpt lat="43.49277" lon="6.62798">
        <ele>27.5</ele>
        <time>2023-11-05T12:20:01Z</time>
      </trkpt>
      <trkpt lat="43.49277" lon="6.62797">
        <ele>27.5</ele>
        <time>2023-11-05T12:20:02Z</time>
      </trkpt>
      <trkpt lat="43.49277" lon="6.62797">
        <ele>27.4</ele>
        <time>2023-11-05T12:20:03Z</time>
      </trkpt>
      <trkpt lat="43.49277" lon="6.62797">
        <ele>27.4</ele>
        <time>2023-11-05T12:20:04Z</time>
      </trkpt>
      <trkpt lat="43.49277" lon="6.62797">
        <ele>27.4</ele>
        <time>2023-11-05T12:20:05Z</time>
      </trkpt>
      <trkpt lat="43.49277" lon="6.62797">
        <ele>27.4</ele>
        <time>2023-11-05T12:20:06Z</time>
      </trkpt>
      <trkpt lat="43.49277" lon="6.62797">
        <ele>27.3</ele>
        <time>2023-11-05T12:20:07Z</time>
      </trkpt>
      <trkpt lat="43.49277" lon="6.62797">
        <ele>27.3</ele>
        <time>2023-11-05T12:20:08Z</time>
      </trkpt>
      <trkpt lat="43.49277" lon="6.62797">
        <ele>27.3</ele>
        <time>2023-11-05T12:20:09Z</time>
      </trkpt>
      <trkpt lat="43.49277" lon="6.62797">
        <ele>27.3</ele>
        <time>2023-11-05T12:20:10Z</time>
      </trkpt>
      <trkpt lat="43.49277" lon="6.62797">
        <ele>27.2</ele>
        <time>2023-11-05T12:20:11Z</time>
      </trkpt>
      <trkpt lat="43.49277" lon="6.62797">
        <ele>27.2</ele>
        <time>2023-11-05T12:20:12Z</time>
      </trkpt>
      <trkpt lat="43.49277" lon="6.62797">
        <ele>27.2</ele>
        <time>2023-11-05T12:20:13Z</time>
      </trkpt>
      <trkpt lat="43.49277" lon="6.62797">
        <ele>27.1</ele>
        <time>2023-11-05T12:20:14Z</time>
      </trkpt>
      <trkpt lat="43.49277" lon="6.62797">
        <ele>27</ele>
        <time>2023-11-05T12:20:15Z</time>
      </trkpt>
      <trkpt lat="43.49277" lon="6.62797">
        <ele>27</ele>
        <time>2023-11-05T12:20:16Z</time>
      </trkpt>
      <trkpt lat="43.49277" lon="6.62796">
        <ele>27</ele>
        <time>2023-11-05T12:20:17Z</time>
      </trkpt>
      <trkpt lat="43.49278" lon="6.62796">
        <ele>26.9</ele>
        <time>2023-11-05T12:20:18Z</time>
      </trkpt>
      <trkpt lat="43.49278" lon="6.62796">
        <ele>26.8</ele>
        <time>2023-11-05T12:20:19Z</time>
      </trkpt>
      <trkpt lat="43.49278" lon="6.62796">
        <ele>26.8</ele>
        <time>2023-11-05T12:20:20Z</time>
      </trkpt>
      <trkpt lat="43.49278" lon="6.62796">
        <ele>26.8</ele>
        <time>2023-11-05T12:20:21Z</time>
      </trkpt>
      <trkpt lat="43.49278" lon="6.62796">
        <ele>26.8</ele>
        <time>2023-11-05T12:20:22Z</time>
      </trkpt>
      <trkpt lat="43.49278" lon="6.62796">
        <ele>26.8</ele>
        <time>2023-11-05T12:20:23Z</time>
      </trkpt>
      <trkpt lat="43.49278" lon="6.62796">
        <ele>26.8</ele>
        <time>2023-11-05T12:20:24Z</time>
      </trkpt>
      <trkpt lat="43.49278" lon="6.62796">
        <ele>26.8</ele>
        <time>2023-11-05T12:20:25Z</time>
      </trkpt>
      <trkpt lat="43.49278" lon="6.62796">
        <ele>26.9</ele>
        <time>2023-11-05T12:20:26Z</time>
      </trkpt>
      <trkpt lat="43.49278" lon="6.62796">
        <ele>27</ele>
        <time>2023-11-05T12:20:27Z</time>
      </trkpt>
      <trkpt lat="43.49279" lon="6.62796">
        <ele>27</ele>
        <time>2023-11-05T12:20:28Z</time>
      </trkpt>
      <trkpt lat="43.49279" lon="6.62796">
        <ele>27.1</ele>
        <time>2023-11-05T12:20:29Z</time>
      </trkpt>
      <trkpt lat="43.49279" lon="6.62796">
        <ele>27.2</ele>
        <time>2023-11-05T12:20:30Z</time>
      </trkpt>
      <trkpt lat="43.49279" lon="6.62796">
        <ele>27.2</ele>
        <time>2023-11-05T12:20:31Z</time>
      </trkpt>
      <trkpt lat="43.49279" lon="6.62796">
        <ele>27.1</ele>
        <time>2023-11-05T12:20:32Z</time>
      </trkpt>
      <trkpt lat="43.49279" lon="6.62796">
        <ele>27.1</ele>
        <time>2023-11-05T12:20:33Z</time>
      </trkpt>
      <trkpt lat="43.49279" lon="6.62796">
        <ele>27.2</ele>
        <time>2023-11-05T12:20:34Z</time>
      </trkpt>
      <trkpt lat="43.49279" lon="6.62796">
        <ele>27.1</ele>
        <time>2023-11-05T12:20:35Z</time>
      </trkpt>
      <trkpt lat="43.49279" lon="6.62797">
        <ele>27.1</ele>
        <time>2023-11-05T12:20:36Z</time>
      </trkpt>
      <trkpt lat="43.49279" lon="6.62797">
        <ele>27.1</ele>
        <time>2023-11-05T12:20:37Z</time>
      </trkpt>
      <trkpt lat="43.49279" lon="6.62797">
        <ele>27.2</ele>
        <time>2023-11-05T12:20:38Z</time>
      </trkpt>
      <trkpt lat="43.49279" lon="6.62797">
        <ele>27.2</ele>
        <time>2023-11-05T12:20:39Z</time>
      </trkpt>
      <trkpt lat="43.49279" lon="6.62797">
        <ele>27.2</ele>
        <time>2023-11-05T12:20:40Z</time>
      </trkpt>
      <trkpt lat="43.49279" lon="6.62797">
        <ele>27.3</ele>
        <time>2023-11-05T12:20:41Z</time>
      </trkpt>
      <trkpt lat="43.49279" lon="6.62797">
        <ele>27.3</ele>
        <time>2023-11-05T12:20:42Z</time>
      </trkpt>
      <trkpt lat="43.49279" lon="6.62797">
        <ele>27.3</ele>
        <time>2023-11-05T12:20:43Z</time>
      </trkpt>
      <trkpt lat="43.49279" lon="6.62797">
        <ele>27.3</ele>
        <time>2023-11-05T12:20:44Z</time>
      </trkpt>
      <trkpt lat="43.49279" lon="6.62797">
        <ele>27.4</ele>
        <time>2023-11-05T12:20:45Z</time>
      </trkpt>
      <trkpt lat="43.49279" lon="6.62797">
        <ele>27.4</ele>
        <time>2023-11-05T12:20:46Z</time>
      </trkpt>
      <trkpt lat="43.49279" lon="6.62797">
        <ele>27.4</ele>
        <time>2023-11-05T12:20:47Z</time>
      </trkpt>
      <trkpt lat="43.49279" lon="6.62797">
        <ele>27.4</ele>
        <time>2023-11-05T12:20:48Z</time>
      </trkpt>
      <trkpt lat="43.49279" lon="6.62797">
        <ele>27.3</ele>
        <time>2023-11-05T12:20:49Z</time>
      </trkpt>
      <trkpt lat="43.49279" lon="6.62798">
        <ele>27.2</ele>
        <time>2023-11-05T12:20:50Z</time>
      </trkpt>
      <trkpt lat="43.49279" lon="6.62798">
        <ele>27.1</ele>
        <time>2023-11-05T12:20:51Z</time>
      </trkpt>
      <trkpt lat="43.49279" lon="6.62798">
        <ele>27</ele>
        <time>2023-11-05T12:20:52Z</time>
      </trkpt>
      <trkpt lat="43.49279" lon="6.62798">
        <ele>27</ele>
        <time>2023-11-05T12:20:53Z</time>
      </trkpt>
      <trkpt lat="43.49278" lon="6.62798">
        <ele>26.9</ele>
        <time>2023-11-05T12:20:54Z</time>
      </trkpt>
      <trkpt lat="43.49278" lon="6.62798">
        <ele>26.8</ele>
        <time>2023-11-05T12:20:55Z</time>
      </trkpt>
      <trkpt lat="43.49278" lon="6.62798">
        <ele>26.7</ele>
        <time>2023-11-05T12:20:56Z</time>
      </trkpt>
      <trkpt lat="43.49278" lon="6.62798">
        <ele>26.7</ele>
        <time>2023-11-05T12:20:57Z</time>
      </trkpt>
      <trkpt lat="43.49278" lon="6.62798">
        <ele>26.6</ele>
        <time>2023-11-05T12:20:58Z</time>
      </trkpt>
      <trkpt lat="43.49278" lon="6.62798">
        <ele>26.6</ele>
        <time>2023-11-05T12:20:59Z</time>
      </trkpt>
      <trkpt lat="43.49278" lon="6.62798">
        <ele>26.5</ele>
        <time>2023-11-05T12:21:00Z</time>
      </trkpt>
      <trkpt lat="43.49278" lon="6.62798">
        <ele>26.5</ele>
        <time>2023-11-05T12:21:01Z</time>
      </trkpt>
      <trkpt lat="43.49278" lon="6.62799">
        <ele>26.4</ele>
        <time>2023-11-05T12:21:02Z</time>
      </trkpt>
      <trkpt lat="43.49278" lon="6.62799">
        <ele>26.4</ele>
        <time>2023-11-05T12:21:03Z</time>
      </trkpt>
      <trkpt lat="43.49278" lon="6.62799">
        <ele>26.4</ele>
        <time>2023-11-05T12:21:04Z</time>
      </trkpt>
      <trkpt lat="43.49278" lon="6.62799">
        <ele>26.4</ele>
        <time>2023-11-05T12:21:05Z</time>
      </trkpt>
      <trkpt lat="43.49278" lon="6.62799">
        <ele>26.4</ele>
        <time>2023-11-05T12:21:06Z</time>
      </trkpt>
      <trkpt lat="43.49278" lon="6.62799">
        <ele>26.4</ele>
        <time>2023-11-05T12:21:07Z</time>
      </trkpt>
      <trkpt lat="43.49278" lon="6.62799">
        <ele>26.5</ele>
        <time>2023-11-05T12:21:08Z</time>
      </trkpt>
      <trkpt lat="43.49278" lon="6.62799">
        <ele>26.5</ele>
        <time>2023-11-05T12:21:09Z</time>
      </trkpt>
      <trkpt lat="43.49278" lon="6.62799">
        <ele>26.6</ele>
        <time>2023-11-05T12:21:10Z</time>
      </trkpt>
      <trkpt lat="43.49278" lon="6.62799">
        <ele>26.6</ele>
        <time>2023-11-05T12:21:11Z</time>
      </trkpt>
      <trkpt lat="43.49278" lon="6.62799">
        <ele>26.6</ele>
        <time>2023-11-05T12:21:12Z</time>
      </trkpt>
      <trkpt lat="43.49278" lon="6.62799">
        <ele>26.6</ele>
        <time>2023-11-05T12:21:13Z</time>
      </trkpt>
      <trkpt lat="43.49278" lon="6.62799">
        <ele>26.6</ele>
        <time>2023-11-05T12:21:14Z</time>
      </trkpt>
      <trkpt lat="43.49278" lon="6.62799">
        <ele>26.7</ele>
        <time>2023-11-05T12:21:15Z</time>
      </trkpt>
      <trkpt lat="43.49278" lon="6.62799">
        <ele>26.7</ele>
        <time>2023-11-05T12:21:16Z</time>
      </trkpt>
      <trkpt lat="43.49278" lon="6.62799">
        <ele>26.6</ele>
        <time>2023-11-05T12:21:17Z</time>
      </trkpt>
      <trkpt lat="43.49278" lon="6.62799">
        <ele>26.7</ele>
        <time>2023-11-05T12:21:18Z</time>
      </trkpt>
      <trkpt lat="43.49278" lon="6.62798">
        <ele>26.8</ele>
        <time>2023-11-05T12:21:19Z</time>
      </trkpt>
      <trkpt lat="43.49278" lon="6.62798">
        <ele>26.9</ele>
        <time>2023-11-05T12:21:20Z</time>
      </trkpt>
      <trkpt lat="43.49278" lon="6.62798">
        <ele>27.1</ele>
        <time>2023-11-05T12:21:21Z</time>
      </trkpt>
      <trkpt lat="43.49278" lon="6.62798">
        <ele>27.4</ele>
        <time>2023-11-05T12:21:22Z</time>
      </trkpt>
      <trkpt lat="43.49278" lon="6.62797">
        <ele>27.5</ele>
        <time>2023-11-05T12:21:23Z</time>
      </trkpt>
      <trkpt lat="43.49278" lon="6.62797">
        <ele>27.7</ele>
        <time>2023-11-05T12:21:24Z</time>
      </trkpt>
      <trkpt lat="43.49278" lon="6.62797">
        <ele>27.9</ele>
        <time>2023-11-05T12:21:25Z</time>
      </trkpt>
      <trkpt lat="43.49278" lon="6.62797">
        <ele>28</ele>
        <time>2023-11-05T12:21:26Z</time>
      </trkpt>
      <trkpt lat="43.49278" lon="6.62797">
        <ele>28.1</ele>
        <time>2023-11-05T12:21:27Z</time>
      </trkpt>
      <trkpt lat="43.49278" lon="6.62797">
        <ele>28.2</ele>
        <time>2023-11-05T12:21:28Z</time>
      </trkpt>
      <trkpt lat="43.49278" lon="6.62798">
        <ele>28.2</ele>
        <time>2023-11-05T12:21:29Z</time>
      </trkpt>
      <trkpt lat="43.49278" lon="6.62798">
        <ele>28.2</ele>
        <time>2023-11-05T12:21:30Z</time>
      </trkpt>
      <trkpt lat="43.49278" lon="6.62798">
        <ele>28.2</ele>
        <time>2023-11-05T12:21:31Z</time>
      </trkpt>
      <trkpt lat="43.49278" lon="6.62798">
        <ele>28.2</ele>
        <time>2023-11-05T12:21:32Z</time>
      </trkpt>
      <trkpt lat="43.49278" lon="6.62798">
        <ele>28.1</ele>
        <time>2023-11-05T12:21:33Z</time>
      </trkpt>
      <trkpt lat="43.49278" lon="6.62798">
        <ele>28.1</ele>
        <time>2023-11-05T12:21:34Z</time>
      </trkpt>
      <trkpt lat="43.49279" lon="6.62798">
        <ele>28</ele>
        <time>2023-11-05T12:21:35Z</time>
      </trkpt>
      <trkpt lat="43.49279" lon="6.62798">
        <ele>27.9</ele>
        <time>2023-11-05T12:21:36Z</time>
      </trkpt>
      <trkpt lat="43.49279" lon="6.62798">
        <ele>27.9</ele>
        <time>2023-11-05T12:21:37Z</time>
      </trkpt>
      <trkpt lat="43.49279" lon="6.62798">
        <ele>27.8</ele>
        <time>2023-11-05T12:21:38Z</time>
      </trkpt>
      <trkpt lat="43.49279" lon="6.62798">
        <ele>27.7</ele>
        <time>2023-11-05T12:21:39Z</time>
      </trkpt>
      <trkpt lat="43.49279" lon="6.62798">
        <ele>27.6</ele>
        <time>2023-11-05T12:21:40Z</time>
      </trkpt>
      <trkpt lat="43.49279" lon="6.62798">
        <ele>27.5</ele>
        <time>2023-11-05T12:21:41Z</time>
      </trkpt>
      <trkpt lat="43.49279" lon="6.62798">
        <ele>27.5</ele>
        <time>2023-11-05T12:21:42Z</time>
      </trkpt>
      <trkpt lat="43.49279" lon="6.62798">
        <ele>27.4</ele>
        <time>2023-11-05T12:21:43Z</time>
      </trkpt>
      <trkpt lat="43.49279" lon="6.62799">
        <ele>27.4</ele>
        <time>2023-11-05T12:21:44Z</time>
      </trkpt>
      <trkpt lat="43.49279" lon="6.62799">
        <ele>27.5</ele>
        <time>2023-11-05T12:21:45Z</time>
      </trkpt>
      <trkpt lat="43.49279" lon="6.62798">
        <ele>27.5</ele>
        <time>2023-11-05T12:21:46Z</time>
      </trkpt>
      <trkpt lat="43.49279" lon="6.62799">
        <ele>27.5</ele>
        <time>2023-11-05T12:21:47Z</time>
      </trkpt>
      <trkpt lat="43.49279" lon="6.62798">
        <ele>27.5</ele>
        <time>2023-11-05T12:21:48Z</time>
      </trkpt>
      <trkpt lat="43.49279" lon="6.62798">
        <ele>27.5</ele>
        <time>2023-11-05T12:21:49Z</time>
      </trkpt>
      <trkpt lat="43.49279" lon="6.62798">
        <ele>27.5</ele>
        <time>2023-11-05T12:21:50Z</time>
      </trkpt>
      <trkpt lat="43.49279" lon="6.62798">
        <ele>27.5</ele>
        <time>2023-11-05T12:21:51Z</time>
      </trkpt>
      <trkpt lat="43.49279" lon="6.62798">
        <ele>27.5</ele>
        <time>2023-11-05T12:21:52Z</time>
      </trkpt>
      <trkpt lat="43.49279" lon="6.62798">
        <ele>27.5</ele>
        <time>2023-11-05T12:21:53Z</time>
      </trkpt>
      <trkpt lat="43.49279" lon="6.62798">
        <ele>27.5</ele>
        <time>2023-11-05T12:21:54Z</time>
      </trkpt>
      <trkpt lat="43.49279" lon="6.62798">
        <ele>27.4</ele>
        <time>2023-11-05T12:21:55Z</time>
      </trkpt>
      <trkpt lat="43.49279" lon="6.62798">
        <ele>27.3</ele>
        <time>2023-11-05T12:21:56Z</time>
      </trkpt>
      <trkpt lat="43.49279" lon="6.62798">
        <ele>27.3</ele>
        <time>2023-11-05T12:21:57Z</time>
      </trkpt>
      <trkpt lat="43.49279" lon="6.62798">
        <ele>27.2</ele>
        <time>2023-11-05T12:21:58Z</time>
      </trkpt>
      <trkpt lat="43.49279" lon="6.62798">
        <ele>27.2</ele>
        <time>2023-11-05T12:21:59Z</time>
      </trkpt>
      <trkpt lat="43.49279" lon="6.62798">
        <ele>27.1</ele>
        <time>2023-11-05T12:22:00Z</time>
      </trkpt>
      <trkpt lat="43.4928" lon="6.62798">
        <ele>27.1</ele>
        <time>2023-11-05T12:22:01Z</time>
      </trkpt>
      <trkpt lat="43.4928" lon="6.62798">
        <ele>27.1</ele>
        <time>2023-11-05T12:22:02Z</time>
      </trkpt>
      <trkpt lat="43.4928" lon="6.62798">
        <ele>27.2</ele>
        <time>2023-11-05T12:22:03Z</time>
      </trkpt>
      <trkpt lat="43.4928" lon="6.62798">
        <ele>27.4</ele>
        <time>2023-11-05T12:22:04Z</time>
      </trkpt>
      <trkpt lat="43.4928" lon="6.62799">
        <ele>27.5</ele>
        <time>2023-11-05T12:22:05Z</time>
      </trkpt>
      <trkpt lat="43.4928" lon="6.62799">
        <ele>27.5</ele>
        <time>2023-11-05T12:22:06Z</time>
      </trkpt>
      <trkpt lat="43.4928" lon="6.62799">
        <ele>27.5</ele>
        <time>2023-11-05T12:22:07Z</time>
      </trkpt>
      <trkpt lat="43.4928" lon="6.62799">
        <ele>27.5</ele>
        <time>2023-11-05T12:22:08Z</time>
      </trkpt>
      <trkpt lat="43.4928" lon="6.62799">
        <ele>27.4</ele>
        <time>2023-11-05T12:22:09Z</time>
      </trkpt>
      <trkpt lat="43.4928" lon="6.62799">
        <ele>27.3</ele>
        <time>2023-11-05T12:22:10Z</time>
      </trkpt>
      <trkpt lat="43.4928" lon="6.62799">
        <ele>27.2</ele>
        <time>2023-11-05T12:22:11Z</time>
      </trkpt>
      <trkpt lat="43.4928" lon="6.628">
        <ele>27.3</ele>
        <time>2023-11-05T12:22:12Z</time>
      </trkpt>
      <trkpt lat="43.4928" lon="6.628">
        <ele>27.3</ele>
        <time>2023-11-05T12:22:13Z</time>
      </trkpt>
      <trkpt lat="43.4928" lon="6.628">
        <ele>27.3</ele>
        <time>2023-11-05T12:22:14Z</time>
      </trkpt>
      <trkpt lat="43.4928" lon="6.628">
        <ele>27.3</ele>
        <time>2023-11-05T12:22:15Z</time>
      </trkpt>
      <trkpt lat="43.4928" lon="6.628">
        <ele>27.3</ele>
        <time>2023-11-05T12:22:16Z</time>
      </trkpt>
      <trkpt lat="43.4928" lon="6.62801">
        <ele>27.3</ele>
        <time>2023-11-05T12:22:17Z</time>
      </trkpt>
      <trkpt lat="43.4928" lon="6.62801">
        <ele>27.3</ele>
        <time>2023-11-05T12:22:18Z</time>
      </trkpt>
      <trkpt lat="43.4928" lon="6.62801">
        <ele>27.5</ele>
        <time>2023-11-05T12:22:19Z</time>
      </trkpt>
      <trkpt lat="43.4928" lon="6.628">
        <ele>27.5</ele>
        <time>2023-11-05T12:22:20Z</time>
      </trkpt>
      <trkpt lat="43.4928" lon="6.628">
        <ele>27.5</ele>
        <time>2023-11-05T12:22:21Z</time>
      </trkpt>
      <trkpt lat="43.4928" lon="6.628">
        <ele>27.5</ele>
        <time>2023-11-05T12:22:22Z</time>
      </trkpt>
      <trkpt lat="43.4928" lon="6.628">
        <ele>27.5</ele>
        <time>2023-11-05T12:22:23Z</time>
      </trkpt>
      <trkpt lat="43.4928" lon="6.628">
        <ele>27.6</ele>
        <time>2023-11-05T12:22:24Z</time>
      </trkpt>
      <trkpt lat="43.4928" lon="6.628">
        <ele>27.6</ele>
        <time>2023-11-05T12:22:25Z</time>
      </trkpt>
      <trkpt lat="43.4928" lon="6.62801">
        <ele>27.6</ele>
        <time>2023-11-05T12:22:26Z</time>
      </trkpt>
      <trkpt lat="43.4928" lon="6.62801">
        <ele>27.5</ele>
        <time>2023-11-05T12:22:27Z</time>
      </trkpt>
      <trkpt lat="43.4928" lon="6.62801">
        <ele>27.5</ele>
        <time>2023-11-05T12:22:28Z</time>
      </trkpt>
      <trkpt lat="43.4928" lon="6.62801">
        <ele>27.5</ele>
        <time>2023-11-05T12:22:29Z</time>
      </trkpt>
      <trkpt lat="43.4928" lon="6.62801">
        <ele>27.4</ele>
        <time>2023-11-05T12:22:30Z</time>
      </trkpt>
      <trkpt lat="43.4928" lon="6.62801">
        <ele>27.4</ele>
        <time>2023-11-05T12:22:31Z</time>
      </trkpt>
      <trkpt lat="43.4928" lon="6.62801">
        <ele>27.3</ele>
        <time>2023-11-05T12:22:32Z</time>
      </trkpt>
      <trkpt lat="43.4928" lon="6.62801">
        <ele>27.1</ele>
        <time>2023-11-05T12:22:33Z</time>
      </trkpt>
      <trkpt lat="43.4928" lon="6.62801">
        <ele>27.1</ele>
        <time>2023-11-05T12:22:34Z</time>
      </trkpt>
      <trkpt lat="43.4928" lon="6.62802">
        <ele>27.1</ele>
        <time>2023-11-05T12:22:35Z</time>
      </trkpt>
      <trkpt lat="43.4928" lon="6.62802">
        <ele>27.1</ele>
        <time>2023-11-05T12:22:36Z</time>
      </trkpt>
      <trkpt lat="43.4928" lon="6.62802">
        <ele>27</ele>
        <time>2023-11-05T12:22:37Z</time>
      </trkpt>
      <trkpt lat="43.4928" lon="6.62802">
        <ele>27</ele>
        <time>2023-11-05T12:22:38Z</time>
      </trkpt>
      <trkpt lat="43.4928" lon="6.62802">
        <ele>27.1</ele>
        <time>2023-11-05T12:22:39Z</time>
      </trkpt>
      <trkpt lat="43.4928" lon="6.62802">
        <ele>27.1</ele>
        <time>2023-11-05T12:22:40Z</time>
      </trkpt>
      <trkpt lat="43.4928" lon="6.62802">
        <ele>27.2</ele>
        <time>2023-11-05T12:22:41Z</time>
      </trkpt>
      <trkpt lat="43.4928" lon="6.62802">
        <ele>27.3</ele>
        <time>2023-11-05T12:22:42Z</time>
      </trkpt>
      <trkpt lat="43.4928" lon="6.62802">
        <ele>27.3</ele>
        <time>2023-11-05T12:22:43Z</time>
      </trkpt>
      <trkpt lat="43.4928" lon="6.62802">
        <ele>27.3</ele>
        <time>2023-11-05T12:22:44Z</time>
      </trkpt>
      <trkpt lat="43.4928" lon="6.62802">
        <ele>27.3</ele>
        <time>2023-11-05T12:22:45Z</time>
      </trkpt>
      <trkpt lat="43.4928" lon="6.62802">
        <ele>27.3</ele>
        <time>2023-11-05T12:22:46Z</time>
      </trkpt>
      <trkpt lat="43.4928" lon="6.62802">
        <ele>27.2</ele>
        <time>2023-11-05T12:22:47Z</time>
      </trkpt>
      <trkpt lat="43.4928" lon="6.62801">
        <ele>27.2</ele>
        <time>2023-11-05T12:22:48Z</time>
      </trkpt>
      <trkpt lat="43.4928" lon="6.62801">
        <ele>27.3</ele>
        <time>2023-11-05T12:22:49Z</time>
      </trkpt>
      <trkpt lat="43.4928" lon="6.62801">
        <ele>27.4</ele>
        <time>2023-11-05T12:22:50Z</time>
      </trkpt>
      <trkpt lat="43.49279" lon="6.62801">
        <ele>27.6</ele>
        <time>2023-11-05T12:22:51Z</time>
      </trkpt>
      <trkpt lat="43.49279" lon="6.628">
        <ele>27.6</ele>
        <time>2023-11-05T12:22:52Z</time>
      </trkpt>
      <trkpt lat="43.49279" lon="6.628">
        <ele>25.8</ele>
        <time>2023-11-05T12:22:53Z</time>
      </trkpt>
      <trkpt lat="43.49279" lon="6.62799">
        <ele>26.2</ele>
        <time>2023-11-05T12:22:54Z</time>
      </trkpt>
      <trkpt lat="43.49279" lon="6.62799">
        <ele>26.5</ele>
        <time>2023-11-05T12:22:55Z</time>
      </trkpt>
      <trkpt lat="43.49278" lon="6.62798">
        <ele>26.7</ele>
        <time>2023-11-05T12:22:56Z</time>
      </trkpt>
      <trkpt lat="43.49278" lon="6.62797">
        <ele>26.9</ele>
        <time>2023-11-05T12:22:57Z</time>
      </trkpt>
      <trkpt lat="43.49278" lon="6.62797">
        <ele>27.1</ele>
        <time>2023-11-05T12:22:58Z</time>
      </trkpt>
      <trkpt lat="43.49278" lon="6.62797">
        <ele>27.3</ele>
        <time>2023-11-05T12:22:59Z</time>
      </trkpt>
      <trkpt lat="43.49278" lon="6.62797">
        <ele>27.4</ele>
        <time>2023-11-05T12:23:00Z</time>
      </trkpt>
      <trkpt lat="43.49278" lon="6.62796">
        <ele>27.5</ele>
        <time>2023-11-05T12:23:01Z</time>
      </trkpt>
      <trkpt lat="43.49278" lon="6.62796">
        <ele>27.6</ele>
        <time>2023-11-05T12:23:02Z</time>
      </trkpt>
      <trkpt lat="43.49278" lon="6.62795">
        <ele>27.5</ele>
        <time>2023-11-05T12:23:03Z</time>
      </trkpt>
      <trkpt lat="43.49278" lon="6.62795">
        <ele>27.5</ele>
        <time>2023-11-05T12:23:04Z</time>
      </trkpt>
      <trkpt lat="43.49278" lon="6.62795">
        <ele>27.4</ele>
        <time>2023-11-05T12:23:05Z</time>
      </trkpt>
      <trkpt lat="43.49278" lon="6.62794">
        <ele>27.4</ele>
        <time>2023-11-05T12:23:06Z</time>
      </trkpt>
      <trkpt lat="43.49278" lon="6.62794">
        <ele>27.5</ele>
        <time>2023-11-05T12:23:07Z</time>
      </trkpt>
      <trkpt lat="43.49278" lon="6.62794">
        <ele>27.5</ele>
        <time>2023-11-05T12:23:08Z</time>
      </trkpt>
      <trkpt lat="43.49278" lon="6.62793">
        <ele>27.6</ele>
        <time>2023-11-05T12:23:09Z</time>
      </trkpt>
      <trkpt lat="43.49278" lon="6.62793">
        <ele>27.6</ele>
        <time>2023-11-05T12:23:10Z</time>
      </trkpt>
      <trkpt lat="43.49278" lon="6.62793">
        <ele>27.6</ele>
        <time>2023-11-05T12:23:11Z</time>
      </trkpt>
      <trkpt lat="43.49278" lon="6.62793">
        <ele>27.6</ele>
        <time>2023-11-05T12:23:12Z</time>
      </trkpt>
      <trkpt lat="43.49278" lon="6.62793">
        <ele>27.6</ele>
        <time>2023-11-05T12:23:13Z</time>
      </trkpt>
      <trkpt lat="43.49278" lon="6.62793">
        <ele>27.6</ele>
        <time>2023-11-05T12:23:14Z</time>
      </trkpt>
      <trkpt lat="43.49279" lon="6.62793">
        <ele>27.7</ele>
        <time>2023-11-05T12:23:15Z</time>
      </trkpt>
      <trkpt lat="43.49278" lon="6.62793">
        <ele>27.8</ele>
        <time>2023-11-05T12:23:16Z</time>
      </trkpt>
      <trkpt lat="43.49278" lon="6.62792">
        <ele>27.9</ele>
        <time>2023-11-05T12:23:17Z</time>
      </trkpt>
      <trkpt lat="43.49278" lon="6.62792">
        <ele>28</ele>
        <time>2023-11-05T12:23:18Z</time>
      </trkpt>
      <trkpt lat="43.49278" lon="6.62792">
        <ele>28</ele>
        <time>2023-11-05T12:23:19Z</time>
      </trkpt>
      <trkpt lat="43.49278" lon="6.62792">
        <ele>28.1</ele>
        <time>2023-11-05T12:23:20Z</time>
      </trkpt>
      <trkpt lat="43.49278" lon="6.62792">
        <ele>28.1</ele>
        <time>2023-11-05T12:23:21Z</time>
      </trkpt>
      <trkpt lat="43.49278" lon="6.62792">
        <ele>28.2</ele>
        <time>2023-11-05T12:23:22Z</time>
      </trkpt>
      <trkpt lat="43.49278" lon="6.62792">
        <ele>28.3</ele>
        <time>2023-11-05T12:23:23Z</time>
      </trkpt>
      <trkpt lat="43.49278" lon="6.62792">
        <ele>28.3</ele>
        <time>2023-11-05T12:23:24Z</time>
      </trkpt>
      <trkpt lat="43.49278" lon="6.62792">
        <ele>28.3</ele>
        <time>2023-11-05T12:23:25Z</time>
      </trkpt>
      <trkpt lat="43.49278" lon="6.62792">
        <ele>28.3</ele>
        <time>2023-11-05T12:23:26Z</time>
      </trkpt>
      <trkpt lat="43.49278" lon="6.62791">
        <ele>28.3</ele>
        <time>2023-11-05T12:23:27Z</time>
      </trkpt>
      <trkpt lat="43.49278" lon="6.62791">
        <ele>28.3</ele>
        <time>2023-11-05T12:23:28Z</time>
      </trkpt>
      <trkpt lat="43.49278" lon="6.62792">
        <ele>28.2</ele>
        <time>2023-11-05T12:23:29Z</time>
      </trkpt>
      <trkpt lat="43.49278" lon="6.62791">
        <ele>28.2</ele>
        <time>2023-11-05T12:23:30Z</time>
      </trkpt>
      <trkpt lat="43.49278" lon="6.62791">
        <ele>28.2</ele>
        <time>2023-11-05T12:23:31Z</time>
      </trkpt>
      <trkpt lat="43.49278" lon="6.62791">
        <ele>28.1</ele>
        <time>2023-11-05T12:23:32Z</time>
      </trkpt>
      <trkpt lat="43.49278" lon="6.62791">
        <ele>28</ele>
        <time>2023-11-05T12:23:33Z</time>
      </trkpt>
      <trkpt lat="43.49278" lon="6.62792">
        <ele>28</ele>
        <time>2023-11-05T12:23:34Z</time>
      </trkpt>
      <trkpt lat="43.49278" lon="6.62792">
        <ele>27.9</ele>
        <time>2023-11-05T12:23:35Z</time>
      </trkpt>
      <trkpt lat="43.49278" lon="6.62792">
        <ele>27.9</ele>
        <time>2023-11-05T12:23:36Z</time>
      </trkpt>
      <trkpt lat="43.49278" lon="6.62791">
        <ele>27.8</ele>
        <time>2023-11-05T12:23:37Z</time>
      </trkpt>
      <trkpt lat="43.49278" lon="6.62791">
        <ele>27.8</ele>
        <time>2023-11-05T12:23:38Z</time>
      </trkpt>
      <trkpt lat="43.49278" lon="6.62791">
        <ele>27.8</ele>
        <time>2023-11-05T12:23:39Z</time>
      </trkpt>
      <trkpt lat="43.49278" lon="6.62791">
        <ele>27.7</ele>
        <time>2023-11-05T12:23:40Z</time>
      </trkpt>
      <trkpt lat="43.49278" lon="6.62791">
        <ele>27.6</ele>
        <time>2023-11-05T12:23:41Z</time>
      </trkpt>
      <trkpt lat="43.49278" lon="6.62791">
        <ele>27.5</ele>
        <time>2023-11-05T12:23:42Z</time>
      </trkpt>
      <trkpt lat="43.49278" lon="6.62791">
        <ele>27.4</ele>
        <time>2023-11-05T12:23:43Z</time>
      </trkpt>
      <trkpt lat="43.49278" lon="6.6279">
        <ele>27.4</ele>
        <time>2023-11-05T12:23:44Z</time>
      </trkpt>
      <trkpt lat="43.49278" lon="6.6279">
        <ele>27.5</ele>
        <time>2023-11-05T12:23:45Z</time>
      </trkpt>
      <trkpt lat="43.49278" lon="6.62791">
        <ele>27.5</ele>
        <time>2023-11-05T12:23:46Z</time>
      </trkpt>
      <trkpt lat="43.49278" lon="6.62791">
        <ele>27.5</ele>
        <time>2023-11-05T12:23:47Z</time>
      </trkpt>
      <trkpt lat="43.49278" lon="6.6279">
        <ele>27.6</ele>
        <time>2023-11-05T12:23:48Z</time>
      </trkpt>
      <trkpt lat="43.49278" lon="6.6279">
        <ele>27.7</ele>
        <time>2023-11-05T12:23:49Z</time>
      </trkpt>
      <trkpt lat="43.49278" lon="6.6279">
        <ele>27.8</ele>
        <time>2023-11-05T12:23:50Z</time>
      </trkpt>
      <trkpt lat="43.49278" lon="6.6279">
        <ele>27.9</ele>
        <time>2023-11-05T12:23:51Z</time>
      </trkpt>
      <trkpt lat="43.49278" lon="6.62791">
        <ele>28</ele>
        <time>2023-11-05T12:23:52Z</time>
      </trkpt>
      <trkpt lat="43.49278" lon="6.62791">
        <ele>28</ele>
        <time>2023-11-05T12:23:53Z</time>
      </trkpt>
      <trkpt lat="43.49278" lon="6.62791">
        <ele>28.2</ele>
        <time>2023-11-05T12:23:54Z</time>
      </trkpt>
      <trkpt lat="43.49278" lon="6.62791">
        <ele>28.3</ele>
        <time>2023-11-05T12:23:55Z</time>
      </trkpt>
      <trkpt lat="43.49278" lon="6.62792">
        <ele>28.2</ele>
        <time>2023-11-05T12:23:56Z</time>
      </trkpt>
      <trkpt lat="43.49278" lon="6.62791">
        <ele>28.2</ele>
        <time>2023-11-05T12:23:57Z</time>
      </trkpt>
      <trkpt lat="43.49278" lon="6.62791">
        <ele>28.1</ele>
        <time>2023-11-05T12:23:58Z</time>
      </trkpt>
      <trkpt lat="43.49278" lon="6.62792">
        <ele>28.1</ele>
        <time>2023-11-05T12:23:59Z</time>
      </trkpt>
      <trkpt lat="43.49278" lon="6.62792">
        <ele>28.1</ele>
        <time>2023-11-05T12:24:00Z</time>
      </trkpt>
      <trkpt lat="43.49278" lon="6.62792">
        <ele>28.2</ele>
        <time>2023-11-05T12:24:01Z</time>
      </trkpt>
      <trkpt lat="43.49278" lon="6.62792">
        <ele>28.2</ele>
        <time>2023-11-05T12:24:02Z</time>
      </trkpt>
      <trkpt lat="43.49278" lon="6.62792">
        <ele>28.4</ele>
        <time>2023-11-05T12:24:03Z</time>
      </trkpt>
      <trkpt lat="43.49278" lon="6.62793">
        <ele>28.5</ele>
        <time>2023-11-05T12:24:04Z</time>
      </trkpt>
      <trkpt lat="43.49278" lon="6.62793">
        <ele>28.6</ele>
        <time>2023-11-05T12:24:05Z</time>
      </trkpt>
      <trkpt lat="43.49278" lon="6.62792">
        <ele>28.5</ele>
        <time>2023-11-05T12:24:06Z</time>
      </trkpt>
      <trkpt lat="43.49278" lon="6.62792">
        <ele>28.3</ele>
        <time>2023-11-05T12:24:07Z</time>
      </trkpt>
      <trkpt lat="43.49278" lon="6.62792">
        <ele>28.3</ele>
        <time>2023-11-05T12:24:08Z</time>
      </trkpt>
      <trkpt lat="43.49278" lon="6.62792">
        <ele>28.2</ele>
        <time>2023-11-05T12:24:09Z</time>
      </trkpt>
      <trkpt lat="43.49279" lon="6.62793">
        <ele>28.3</ele>
        <time>2023-11-05T12:24:10Z</time>
      </trkpt>
      <trkpt lat="43.49279" lon="6.62793">
        <ele>28.4</ele>
        <time>2023-11-05T12:24:11Z</time>
      </trkpt>
      <trkpt lat="43.49279" lon="6.62794">
        <ele>28.4</ele>
        <time>2023-11-05T12:24:12Z</time>
      </trkpt>
      <trkpt lat="43.49279" lon="6.62794">
        <ele>28.5</ele>
        <time>2023-11-05T12:24:13Z</time>
      </trkpt>
      <trkpt lat="43.49279" lon="6.62794">
        <ele>28.5</ele>
        <time>2023-11-05T12:24:14Z</time>
      </trkpt>
      <trkpt lat="43.49279" lon="6.62794">
        <ele>28.5</ele>
        <time>2023-11-05T12:24:15Z</time>
      </trkpt>
      <trkpt lat="43.49279" lon="6.62795">
        <ele>28.5</ele>
        <time>2023-11-05T12:24:16Z</time>
      </trkpt>
      <trkpt lat="43.49278" lon="6.62795">
        <ele>28.4</ele>
        <time>2023-11-05T12:24:17Z</time>
      </trkpt>
      <trkpt lat="43.49278" lon="6.62795">
        <ele>28.4</ele>
        <time>2023-11-05T12:24:18Z</time>
      </trkpt>
      <trkpt lat="43.49278" lon="6.62795">
        <ele>28.4</ele>
        <time>2023-11-05T12:24:19Z</time>
      </trkpt>
      <trkpt lat="43.49278" lon="6.62795">
        <ele>28.5</ele>
        <time>2023-11-05T12:24:20Z</time>
      </trkpt>
      <trkpt lat="43.49278" lon="6.62796">
        <ele>28.6</ele>
        <time>2023-11-05T12:24:21Z</time>
      </trkpt>
      <trkpt lat="43.49278" lon="6.62796">
        <ele>28.7</ele>
        <time>2023-11-05T12:24:22Z</time>
      </trkpt>
      <trkpt lat="43.49278" lon="6.62795">
        <ele>28.8</ele>
        <time>2023-11-05T12:24:23Z</time>
      </trkpt>
      <trkpt lat="43.49278" lon="6.62795">
        <ele>28.8</ele>
        <time>2023-11-05T12:24:24Z</time>
      </trkpt>
      <trkpt lat="43.49278" lon="6.62794">
        <ele>28.9</ele>
        <time>2023-11-05T12:24:25Z</time>
      </trkpt>
      <trkpt lat="43.49278" lon="6.62794">
        <ele>28.9</ele>
        <time>2023-11-05T12:24:26Z</time>
      </trkpt>
      <trkpt lat="43.49277" lon="6.62795">
        <ele>29</ele>
        <time>2023-11-05T12:24:27Z</time>
      </trkpt>
      <trkpt lat="43.49277" lon="6.62795">
        <ele>29</ele>
        <time>2023-11-05T12:24:28Z</time>
      </trkpt>
      <trkpt lat="43.49277" lon="6.62795">
        <ele>28.8</ele>
        <time>2023-11-05T12:24:29Z</time>
      </trkpt>
      <trkpt lat="43.49277" lon="6.62795">
        <ele>28.9</ele>
        <time>2023-11-05T12:24:30Z</time>
      </trkpt>
      <trkpt lat="43.49277" lon="6.62795">
        <ele>28.9</ele>
        <time>2023-11-05T12:24:31Z</time>
      </trkpt>
      <trkpt lat="43.49277" lon="6.62795">
        <ele>28.9</ele>
        <time>2023-11-05T12:24:32Z</time>
      </trkpt>
      <trkpt lat="43.49277" lon="6.62795">
        <ele>28.9</ele>
        <time>2023-11-05T12:24:33Z</time>
      </trkpt>
      <trkpt lat="43.49276" lon="6.62795">
        <ele>28.9</ele>
        <time>2023-11-05T12:24:34Z</time>
      </trkpt>
      <trkpt lat="43.49276" lon="6.62795">
        <ele>29</ele>
        <time>2023-11-05T12:24:35Z</time>
      </trkpt>
      <trkpt lat="43.49276" lon="6.62795">
        <ele>29</ele>
        <time>2023-11-05T12:24:36Z</time>
      </trkpt>
      <trkpt lat="43.49276" lon="6.62796">
        <ele>28.8</ele>
        <time>2023-11-05T12:24:37Z</time>
      </trkpt>
      <trkpt lat="43.49276" lon="6.62795">
        <ele>28.8</ele>
        <time>2023-11-05T12:24:38Z</time>
      </trkpt>
      <trkpt lat="43.49276" lon="6.62795">
        <ele>28.8</ele>
        <time>2023-11-05T12:24:39Z</time>
      </trkpt>
      <trkpt lat="43.49276" lon="6.62794">
        <ele>28.8</ele>
        <time>2023-11-05T12:24:40Z</time>
      </trkpt>
      <trkpt lat="43.49276" lon="6.62794">
        <ele>28.8</ele>
        <time>2023-11-05T12:24:41Z</time>
      </trkpt>
      <trkpt lat="43.49276" lon="6.62795">
        <ele>28.8</ele>
        <time>2023-11-05T12:24:42Z</time>
      </trkpt>
      <trkpt lat="43.49276" lon="6.62794">
        <ele>28.7</ele>
        <time>2023-11-05T12:24:43Z</time>
      </trkpt>
      <trkpt lat="43.49276" lon="6.62793">
        <ele>28.6</ele>
        <time>2023-11-05T12:24:44Z</time>
      </trkpt>
      <trkpt lat="43.49276" lon="6.62793">
        <ele>28.5</ele>
        <time>2023-11-05T12:24:45Z</time>
      </trkpt>
      <trkpt lat="43.49276" lon="6.62792">
        <ele>28.5</ele>
        <time>2023-11-05T12:24:46Z</time>
      </trkpt>
      <trkpt lat="43.49276" lon="6.62791">
        <ele>28.5</ele>
        <time>2023-11-05T12:24:47Z</time>
      </trkpt>
      <trkpt lat="43.49276" lon="6.6279">
        <ele>28.4</ele>
        <time>2023-11-05T12:24:48Z</time>
      </trkpt>
      <trkpt lat="43.49276" lon="6.62788">
        <ele>28.4</ele>
        <time>2023-11-05T12:24:49Z</time>
      </trkpt>
      <trkpt lat="43.49276" lon="6.62787">
        <ele>28.3</ele>
        <time>2023-11-05T12:24:50Z</time>
      </trkpt>
      <trkpt lat="43.49276" lon="6.62786">
        <ele>28.3</ele>
        <time>2023-11-05T12:24:51Z</time>
      </trkpt>
      <trkpt lat="43.49275" lon="6.62785">
        <ele>28.3</ele>
        <time>2023-11-05T12:24:52Z</time>
      </trkpt>
      <trkpt lat="43.49275" lon="6.62784">
        <ele>28.4</ele>
        <time>2023-11-05T12:24:53Z</time>
      </trkpt>
      <trkpt lat="43.49274" lon="6.62783">
        <ele>28.4</ele>
        <time>2023-11-05T12:24:54Z</time>
      </trkpt>
      <trkpt lat="43.49273" lon="6.62782">
        <ele>28.4</ele>
        <time>2023-11-05T12:24:55Z</time>
      </trkpt>
      <trkpt lat="43.49273" lon="6.62781">
        <ele>28.4</ele>
        <time>2023-11-05T12:24:56Z</time>
      </trkpt>
      <trkpt lat="43.49272" lon="6.6278">
        <ele>28.2</ele>
        <time>2023-11-05T12:24:57Z</time>
      </trkpt>
      <trkpt lat="43.49272" lon="6.62779">
        <ele>28.1</ele>
        <time>2023-11-05T12:24:58Z</time>
      </trkpt>
      <trkpt lat="43.49271" lon="6.62777">
        <ele>28</ele>
        <time>2023-11-05T12:24:59Z</time>
      </trkpt>
      <trkpt lat="43.49271" lon="6.62776">
        <ele>27.8</ele>
        <time>2023-11-05T12:25:00Z</time>
      </trkpt>
      <trkpt lat="43.49271" lon="6.62774">
        <ele>27.7</ele>
        <time>2023-11-05T12:25:01Z</time>
      </trkpt>
      <trkpt lat="43.4927" lon="6.62773">
        <ele>27.7</ele>
        <time>2023-11-05T12:25:02Z</time>
      </trkpt>
      <trkpt lat="43.4927" lon="6.62772">
        <ele>27.6</ele>
        <time>2023-11-05T12:25:03Z</time>
      </trkpt>
      <trkpt lat="43.49269" lon="6.6277">
        <ele>27.6</ele>
        <time>2023-11-05T12:25:04Z</time>
      </trkpt>
      <trkpt lat="43.49268" lon="6.62769">
        <ele>27.5</ele>
        <time>2023-11-05T12:25:05Z</time>
      </trkpt>
      <trkpt lat="43.49268" lon="6.62768">
        <ele>27.4</ele>
        <time>2023-11-05T12:25:06Z</time>
      </trkpt>
      <trkpt lat="43.49268" lon="6.62767">
        <ele>27.3</ele>
        <time>2023-11-05T12:25:07Z</time>
      </trkpt>
      <trkpt lat="43.49267" lon="6.62766">
        <ele>27.2</ele>
        <time>2023-11-05T12:25:08Z</time>
      </trkpt>
      <trkpt lat="43.49267" lon="6.62764">
        <ele>27.2</ele>
        <time>2023-11-05T12:25:09Z</time>
      </trkpt>
      <trkpt lat="43.49266" lon="6.62764">
        <ele>27.1</ele>
        <time>2023-11-05T12:25:10Z</time>
      </trkpt>
      <trkpt lat="43.49266" lon="6.62763">
        <ele>27.1</ele>
        <time>2023-11-05T12:25:11Z</time>
      </trkpt>
      <trkpt lat="43.49266" lon="6.62763">
        <ele>27</ele>
        <time>2023-11-05T12:25:12Z</time>
      </trkpt>
      <trkpt lat="43.49266" lon="6.62764">
        <ele>27</ele>
        <time>2023-11-05T12:25:13Z</time>
      </trkpt>
      <trkpt lat="43.49266" lon="6.62764">
        <ele>27</ele>
        <time>2023-11-05T12:25:14Z</time>
      </trkpt>
      <trkpt lat="43.49266" lon="6.62763">
        <ele>27</ele>
        <time>2023-11-05T12:25:15Z</time>
      </trkpt>
      <trkpt lat="43.49266" lon="6.62762">
        <ele>27</ele>
        <time>2023-11-05T12:25:16Z</time>
      </trkpt>
      <trkpt lat="43.49266" lon="6.6276">
        <ele>26.9</ele>
        <time>2023-11-05T12:25:17Z</time>
      </trkpt>
      <trkpt lat="43.49267" lon="6.62759">
        <ele>27</ele>
        <time>2023-11-05T12:25:18Z</time>
      </trkpt>
      <trkpt lat="43.49267" lon="6.62757">
        <ele>27</ele>
        <time>2023-11-05T12:25:19Z</time>
      </trkpt>
      <trkpt lat="43.49267" lon="6.62756">
        <ele>27</ele>
        <time>2023-11-05T12:25:20Z</time>
      </trkpt>
      <trkpt lat="43.49267" lon="6.62755">
        <ele>27</ele>
        <time>2023-11-05T12:25:21Z</time>
      </trkpt>
      <trkpt lat="43.49267" lon="6.62754">
        <ele>27</ele>
        <time>2023-11-05T12:25:22Z</time>
      </trkpt>
      <trkpt lat="43.49268" lon="6.62753">
        <ele>27</ele>
        <time>2023-11-05T12:25:23Z</time>
      </trkpt>
      <trkpt lat="43.49269" lon="6.62751">
        <ele>27.1</ele>
        <time>2023-11-05T12:25:24Z</time>
      </trkpt>
      <trkpt lat="43.49269" lon="6.6275">
        <ele>27.3</ele>
        <time>2023-11-05T12:25:25Z</time>
      </trkpt>
      <trkpt lat="43.49269" lon="6.62748">
        <ele>27.4</ele>
        <time>2023-11-05T12:25:26Z</time>
      </trkpt>
      <trkpt lat="43.49269" lon="6.62747">
        <ele>27.6</ele>
        <time>2023-11-05T12:25:27Z</time>
      </trkpt>
      <trkpt lat="43.49269" lon="6.62745">
        <ele>27.8</ele>
        <time>2023-11-05T12:25:28Z</time>
      </trkpt>
      <trkpt lat="43.49269" lon="6.62744">
        <ele>27.9</ele>
        <time>2023-11-05T12:25:29Z</time>
      </trkpt>
      <trkpt lat="43.49268" lon="6.62743">
        <ele>28.1</ele>
        <time>2023-11-05T12:25:30Z</time>
      </trkpt>
      <trkpt lat="43.49268" lon="6.62741">
        <ele>28.2</ele>
        <time>2023-11-05T12:25:31Z</time>
      </trkpt>
      <trkpt lat="43.49269" lon="6.62739">
        <ele>28.1</ele>
        <time>2023-11-05T12:25:32Z</time>
      </trkpt>
      <trkpt lat="43.49268" lon="6.62738">
        <ele>28.2</ele>
        <time>2023-11-05T12:25:33Z</time>
      </trkpt>
      <trkpt lat="43.49268" lon="6.62737">
        <ele>28.2</ele>
        <time>2023-11-05T12:25:34Z</time>
      </trkpt>
      <trkpt lat="43.49268" lon="6.62735">
        <ele>28.2</ele>
        <time>2023-11-05T12:25:35Z</time>
      </trkpt>
      <trkpt lat="43.49267" lon="6.62734">
        <ele>28.3</ele>
        <time>2023-11-05T12:25:36Z</time>
      </trkpt>
      <trkpt lat="43.49267" lon="6.62733">
        <ele>28.3</ele>
        <time>2023-11-05T12:25:37Z</time>
      </trkpt>
      <trkpt lat="43.49267" lon="6.62732">
        <ele>28.3</ele>
        <time>2023-11-05T12:25:38Z</time>
      </trkpt>
      <trkpt lat="43.49266" lon="6.6273">
        <ele>28.3</ele>
        <time>2023-11-05T12:25:39Z</time>
      </trkpt>
      <trkpt lat="43.49267" lon="6.62729">
        <ele>28.2</ele>
        <time>2023-11-05T12:25:40Z</time>
      </trkpt>
      <trkpt lat="43.49267" lon="6.62728">
        <ele>28.1</ele>
        <time>2023-11-05T12:25:41Z</time>
      </trkpt>
      <trkpt lat="43.49267" lon="6.62726">
        <ele>28.1</ele>
        <time>2023-11-05T12:25:42Z</time>
      </trkpt>
      <trkpt lat="43.49267" lon="6.62725">
        <ele>28</ele>
        <time>2023-11-05T12:25:43Z</time>
      </trkpt>
      <trkpt lat="43.49267" lon="6.62724">
        <ele>28</ele>
        <time>2023-11-05T12:25:44Z</time>
      </trkpt>
      <trkpt lat="43.49267" lon="6.62722">
        <ele>27.9</ele>
        <time>2023-11-05T12:25:45Z</time>
      </trkpt>
      <trkpt lat="43.49266" lon="6.62722">
        <ele>27.8</ele>
        <time>2023-11-05T12:25:46Z</time>
      </trkpt>
      <trkpt lat="43.49266" lon="6.62722">
        <ele>27.6</ele>
        <time>2023-11-05T12:25:47Z</time>
      </trkpt>
      <trkpt lat="43.49265" lon="6.62722">
        <ele>27.6</ele>
        <time>2023-11-05T12:25:48Z</time>
      </trkpt>
      <trkpt lat="43.49264" lon="6.62722">
        <ele>27.5</ele>
        <time>2023-11-05T12:25:49Z</time>
      </trkpt>
      <trkpt lat="43.49264" lon="6.62721">
        <ele>27.5</ele>
        <time>2023-11-05T12:25:50Z</time>
      </trkpt>
      <trkpt lat="43.49263" lon="6.62721">
        <ele>27.5</ele>
        <time>2023-11-05T12:25:51Z</time>
      </trkpt>
      <trkpt lat="43.49263" lon="6.62721">
        <ele>27.4</ele>
        <time>2023-11-05T12:25:52Z</time>
      </trkpt>
      <trkpt lat="43.49263" lon="6.62721">
        <ele>27.4</ele>
        <time>2023-11-05T12:25:53Z</time>
      </trkpt>
      <trkpt lat="43.49263" lon="6.62721">
        <ele>27.3</ele>
        <time>2023-11-05T12:25:54Z</time>
      </trkpt>
      <trkpt lat="43.49263" lon="6.62721">
        <ele>27.3</ele>
        <time>2023-11-05T12:25:55Z</time>
      </trkpt>
      <trkpt lat="43.49263" lon="6.62721">
        <ele>27.3</ele>
        <time>2023-11-05T12:25:56Z</time>
      </trkpt>
      <trkpt lat="43.49262" lon="6.62721">
        <ele>27.3</ele>
        <time>2023-11-05T12:25:57Z</time>
      </trkpt>
      <trkpt lat="43.49262" lon="6.62721">
        <ele>27.2</ele>
        <time>2023-11-05T12:25:58Z</time>
      </trkpt>
      <trkpt lat="43.49262" lon="6.62721">
        <ele>27.2</ele>
        <time>2023-11-05T12:25:59Z</time>
      </trkpt>
      <trkpt lat="43.49262" lon="6.62721">
        <ele>27.2</ele>
        <time>2023-11-05T12:26:00Z</time>
      </trkpt>
      <trkpt lat="43.49262" lon="6.62721">
        <ele>27.2</ele>
        <time>2023-11-05T12:26:01Z</time>
      </trkpt>
      <trkpt lat="43.49262" lon="6.62721">
        <ele>27.3</ele>
        <time>2023-11-05T12:26:02Z</time>
      </trkpt>
      <trkpt lat="43.49262" lon="6.62721">
        <ele>27.3</ele>
        <time>2023-11-05T12:26:03Z</time>
      </trkpt>
      <trkpt lat="43.49262" lon="6.62721">
        <ele>27.3</ele>
        <time>2023-11-05T12:26:04Z</time>
      </trkpt>
      <trkpt lat="43.49262" lon="6.62721">
        <ele>27.4</ele>
        <time>2023-11-05T12:26:05Z</time>
      </trkpt>
      <trkpt lat="43.49262" lon="6.62721">
        <ele>27.4</ele>
        <time>2023-11-05T12:26:06Z</time>
      </trkpt>
      <trkpt lat="43.49262" lon="6.62721">
        <ele>27.4</ele>
        <time>2023-11-05T12:26:07Z</time>
      </trkpt>
      <trkpt lat="43.49262" lon="6.62721">
        <ele>27.3</ele>
        <time>2023-11-05T12:26:08Z</time>
      </trkpt>
      <trkpt lat="43.49262" lon="6.62721">
        <ele>27.2</ele>
        <time>2023-11-05T12:26:09Z</time>
      </trkpt>
      <trkpt lat="43.49262" lon="6.62721">
        <ele>27.2</ele>
        <time>2023-11-05T12:26:10Z</time>
      </trkpt>
      <trkpt lat="43.49262" lon="6.62721">
        <ele>27.2</ele>
        <time>2023-11-05T12:26:11Z</time>
      </trkpt>
      <trkpt lat="43.49262" lon="6.62721">
        <ele>27.2</ele>
        <time>2023-11-05T12:26:12Z</time>
      </trkpt>
      <trkpt lat="43.49262" lon="6.62721">
        <ele>27.2</ele>
        <time>2023-11-05T12:26:13Z</time>
      </trkpt>
      <trkpt lat="43.49262" lon="6.62721">
        <ele>27.2</ele>
        <time>2023-11-05T12:26:14Z</time>
      </trkpt>
      <trkpt lat="43.49262" lon="6.62721">
        <ele>27.2</ele>
        <time>2023-11-05T12:26:15Z</time>
      </trkpt>
      <trkpt lat="43.49262" lon="6.62721">
        <ele>27.2</ele>
        <time>2023-11-05T12:26:16Z</time>
      </trkpt>
      <trkpt lat="43.49262" lon="6.62721">
        <ele>27.2</ele>
        <time>2023-11-05T12:26:17Z</time>
      </trkpt>
      <trkpt lat="43.49262" lon="6.62721">
        <ele>27.2</ele>
        <time>2023-11-05T12:26:18Z</time>
      </trkpt>
      <trkpt lat="43.49261" lon="6.62721">
        <ele>27.1</ele>
        <time>2023-11-05T12:26:19Z</time>
      </trkpt>
      <trkpt lat="43.49262" lon="6.62721">
        <ele>27.2</ele>
        <time>2023-11-05T12:26:20Z</time>
      </trkpt>
      <trkpt lat="43.49262" lon="6.62721">
        <ele>27.2</ele>
        <time>2023-11-05T12:26:21Z</time>
      </trkpt>
      <trkpt lat="43.49262" lon="6.62721">
        <ele>27.2</ele>
        <time>2023-11-05T12:26:22Z</time>
      </trkpt>
      <trkpt lat="43.49262" lon="6.62721">
        <ele>27.1</ele>
        <time>2023-11-05T12:26:23Z</time>
      </trkpt>
      <trkpt lat="43.49262" lon="6.62721">
        <ele>27</ele>
        <time>2023-11-05T12:26:24Z</time>
      </trkpt>
      <trkpt lat="43.49262" lon="6.6272">
        <ele>26.9</ele>
        <time>2023-11-05T12:26:25Z</time>
      </trkpt>
      <trkpt lat="43.49262" lon="6.6272">
        <ele>26.9</ele>
        <time>2023-11-05T12:26:26Z</time>
      </trkpt>
      <trkpt lat="43.49262" lon="6.6272">
        <ele>26.8</ele>
        <time>2023-11-05T12:26:27Z</time>
      </trkpt>
      <trkpt lat="43.49262" lon="6.6272">
        <ele>26.8</ele>
        <time>2023-11-05T12:26:28Z</time>
      </trkpt>
      <trkpt lat="43.49262" lon="6.6272">
        <ele>26.8</ele>
        <time>2023-11-05T12:26:29Z</time>
      </trkpt>
      <trkpt lat="43.49262" lon="6.6272">
        <ele>26.8</ele>
        <time>2023-11-05T12:26:30Z</time>
      </trkpt>
      <trkpt lat="43.49262" lon="6.6272">
        <ele>26.8</ele>
        <time>2023-11-05T12:26:31Z</time>
      </trkpt>
      <trkpt lat="43.49262" lon="6.6272">
        <ele>26.8</ele>
        <time>2023-11-05T12:26:32Z</time>
      </trkpt>
      <trkpt lat="43.49262" lon="6.6272">
        <ele>26.7</ele>
        <time>2023-11-05T12:26:33Z</time>
      </trkpt>
      <trkpt lat="43.49262" lon="6.6272">
        <ele>26.7</ele>
        <time>2023-11-05T12:26:34Z</time>
      </trkpt>
      <trkpt lat="43.49262" lon="6.6272">
        <ele>26.7</ele>
        <time>2023-11-05T12:26:35Z</time>
      </trkpt>
      <trkpt lat="43.49262" lon="6.62719">
        <ele>26.6</ele>
        <time>2023-11-05T12:26:36Z</time>
      </trkpt>
      <trkpt lat="43.49262" lon="6.6272">
        <ele>26.5</ele>
        <time>2023-11-05T12:26:37Z</time>
      </trkpt>
      <trkpt lat="43.49262" lon="6.62719">
        <ele>26.5</ele>
        <time>2023-11-05T12:26:38Z</time>
      </trkpt>
      <trkpt lat="43.49262" lon="6.62719">
        <ele>26.4</ele>
        <time>2023-11-05T12:26:39Z</time>
      </trkpt>
      <trkpt lat="43.49262" lon="6.62719">
        <ele>26.4</ele>
        <time>2023-11-05T12:26:40Z</time>
      </trkpt>
      <trkpt lat="43.49262" lon="6.6272">
        <ele>26.3</ele>
        <time>2023-11-05T12:26:41Z</time>
      </trkpt>
      <trkpt lat="43.49262" lon="6.62719">
        <ele>26.2</ele>
        <time>2023-11-05T12:26:42Z</time>
      </trkpt>
      <trkpt lat="43.49262" lon="6.62719">
        <ele>26.2</ele>
        <time>2023-11-05T12:26:43Z</time>
      </trkpt>
      <trkpt lat="43.49262" lon="6.62719">
        <ele>26.2</ele>
        <time>2023-11-05T12:26:44Z</time>
      </trkpt>
      <trkpt lat="43.49262" lon="6.6272">
        <ele>26.3</ele>
        <time>2023-11-05T12:26:45Z</time>
      </trkpt>
      <trkpt lat="43.49262" lon="6.62719">
        <ele>26.3</ele>
        <time>2023-11-05T12:26:46Z</time>
      </trkpt>
      <trkpt lat="43.49262" lon="6.6272">
        <ele>26.3</ele>
        <time>2023-11-05T12:26:47Z</time>
      </trkpt>
      <trkpt lat="43.49262" lon="6.6272">
        <ele>26.2</ele>
        <time>2023-11-05T12:26:48Z</time>
      </trkpt>
      <trkpt lat="43.49262" lon="6.6272">
        <ele>26.1</ele>
        <time>2023-11-05T12:26:49Z</time>
      </trkpt>
      <trkpt lat="43.49262" lon="6.6272">
        <ele>26.1</ele>
        <time>2023-11-05T12:26:50Z</time>
      </trkpt>
      <trkpt lat="43.49262" lon="6.6272">
        <ele>26</ele>
        <time>2023-11-05T12:26:51Z</time>
      </trkpt>
      <trkpt lat="43.49262" lon="6.6272">
        <ele>26</ele>
        <time>2023-11-05T12:26:52Z</time>
      </trkpt>
      <trkpt lat="43.49262" lon="6.6272">
        <ele>26</ele>
        <time>2023-11-05T12:26:53Z</time>
      </trkpt>
      <trkpt lat="43.49262" lon="6.6272">
        <ele>26</ele>
        <time>2023-11-05T12:26:54Z</time>
      </trkpt>
      <trkpt lat="43.49262" lon="6.6272">
        <ele>26</ele>
        <time>2023-11-05T12:26:55Z</time>
      </trkpt>
      <trkpt lat="43.49262" lon="6.6272">
        <ele>26.1</ele>
        <time>2023-11-05T12:26:56Z</time>
      </trkpt>
      <trkpt lat="43.49262" lon="6.6272">
        <ele>26.1</ele>
        <time>2023-11-05T12:26:57Z</time>
      </trkpt>
      <trkpt lat="43.49262" lon="6.6272">
        <ele>26.2</ele>
        <time>2023-11-05T12:26:58Z</time>
      </trkpt>
      <trkpt lat="43.49263" lon="6.6272">
        <ele>26.3</ele>
        <time>2023-11-05T12:26:59Z</time>
      </trkpt>
      <trkpt lat="43.49263" lon="6.6272">
        <ele>26.3</ele>
        <time>2023-11-05T12:27:00Z</time>
      </trkpt>
      <trkpt lat="43.49263" lon="6.6272">
        <ele>26.3</ele>
        <time>2023-11-05T12:27:01Z</time>
      </trkpt>
      <trkpt lat="43.49263" lon="6.6272">
        <ele>26.4</ele>
        <time>2023-11-05T12:27:02Z</time>
      </trkpt>
      <trkpt lat="43.49263" lon="6.6272">
        <ele>26.4</ele>
        <time>2023-11-05T12:27:03Z</time>
      </trkpt>
      <trkpt lat="43.49263" lon="6.6272">
        <ele>26.5</ele>
        <time>2023-11-05T12:27:04Z</time>
      </trkpt>
      <trkpt lat="43.49263" lon="6.6272">
        <ele>26.6</ele>
        <time>2023-11-05T12:27:05Z</time>
      </trkpt>
      <trkpt lat="43.49263" lon="6.6272">
        <ele>26.6</ele>
        <time>2023-11-05T12:27:06Z</time>
      </trkpt>
      <trkpt lat="43.49263" lon="6.6272">
        <ele>26.6</ele>
        <time>2023-11-05T12:27:07Z</time>
      </trkpt>
      <trkpt lat="43.49263" lon="6.6272">
        <ele>26.6</ele>
        <time>2023-11-05T12:27:08Z</time>
      </trkpt>
      <trkpt lat="43.49263" lon="6.6272">
        <ele>26.7</ele>
        <time>2023-11-05T12:27:09Z</time>
      </trkpt>
      <trkpt lat="43.49263" lon="6.6272">
        <ele>26.8</ele>
        <time>2023-11-05T12:27:10Z</time>
      </trkpt>
      <trkpt lat="43.49263" lon="6.6272">
        <ele>26.8</ele>
        <time>2023-11-05T12:27:11Z</time>
      </trkpt>
      <trkpt lat="43.49263" lon="6.6272">
        <ele>26.8</ele>
        <time>2023-11-05T12:27:12Z</time>
      </trkpt>
      <trkpt lat="43.49263" lon="6.6272">
        <ele>26.8</ele>
        <time>2023-11-05T12:27:13Z</time>
      </trkpt>
      <trkpt lat="43.49263" lon="6.6272">
        <ele>26.8</ele>
        <time>2023-11-05T12:27:14Z</time>
      </trkpt>
      <trkpt lat="43.49263" lon="6.6272">
        <ele>26.8</ele>
        <time>2023-11-05T12:27:15Z</time>
      </trkpt>
      <trkpt lat="43.49263" lon="6.6272">
        <ele>26.8</ele>
        <time>2023-11-05T12:27:16Z</time>
      </trkpt>
      <trkpt lat="43.49263" lon="6.6272">
        <ele>26.9</ele>
        <time>2023-11-05T12:27:17Z</time>
      </trkpt>
      <trkpt lat="43.49263" lon="6.6272">
        <ele>26.9</ele>
        <time>2023-11-05T12:27:18Z</time>
      </trkpt>
      <trkpt lat="43.49263" lon="6.6272">
        <ele>26.9</ele>
        <time>2023-11-05T12:27:19Z</time>
      </trkpt>
      <trkpt lat="43.49264" lon="6.6272">
        <ele>26.9</ele>
        <time>2023-11-05T12:27:20Z</time>
      </trkpt>
      <trkpt lat="43.49264" lon="6.6272">
        <ele>26.9</ele>
        <time>2023-11-05T12:27:21Z</time>
      </trkpt>
      <trkpt lat="43.49264" lon="6.6272">
        <ele>26.9</ele>
        <time>2023-11-05T12:27:22Z</time>
      </trkpt>
      <trkpt lat="43.49264" lon="6.6272">
        <ele>26.9</ele>
        <time>2023-11-05T12:27:23Z</time>
      </trkpt>
      <trkpt lat="43.49264" lon="6.6272">
        <ele>26.9</ele>
        <time>2023-11-05T12:27:24Z</time>
      </trkpt>
      <trkpt lat="43.49264" lon="6.6272">
        <ele>26.9</ele>
        <time>2023-11-05T12:27:25Z</time>
      </trkpt>
      <trkpt lat="43.49264" lon="6.6272">
        <ele>27</ele>
        <time>2023-11-05T12:27:26Z</time>
      </trkpt>
      <trkpt lat="43.49264" lon="6.6272">
        <ele>27</ele>
        <time>2023-11-05T12:27:27Z</time>
      </trkpt>
      <trkpt lat="43.49264" lon="6.6272">
        <ele>27</ele>
        <time>2023-11-05T12:27:28Z</time>
      </trkpt>
      <trkpt lat="43.49264" lon="6.6272">
        <ele>27</ele>
        <time>2023-11-05T12:27:29Z</time>
      </trkpt>
      <trkpt lat="43.49264" lon="6.6272">
        <ele>27.1</ele>
        <time>2023-11-05T12:27:30Z</time>
      </trkpt>
      <trkpt lat="43.49264" lon="6.6272">
        <ele>27.1</ele>
        <time>2023-11-05T12:27:31Z</time>
      </trkpt>
      <trkpt lat="43.49263" lon="6.6272">
        <ele>27.1</ele>
        <time>2023-11-05T12:27:32Z</time>
      </trkpt>
      <trkpt lat="43.49263" lon="6.6272">
        <ele>27.1</ele>
        <time>2023-11-05T12:27:33Z</time>
      </trkpt>
      <trkpt lat="43.49263" lon="6.6272">
        <ele>27</ele>
        <time>2023-11-05T12:27:34Z</time>
      </trkpt>
      <trkpt lat="43.49263" lon="6.6272">
        <ele>27</ele>
        <time>2023-11-05T12:27:35Z</time>
      </trkpt>
      <trkpt lat="43.49263" lon="6.6272">
        <ele>27.1</ele>
        <time>2023-11-05T12:27:36Z</time>
      </trkpt>
      <trkpt lat="43.49263" lon="6.6272">
        <ele>27.1</ele>
        <time>2023-11-05T12:27:37Z</time>
      </trkpt>
      <trkpt lat="43.49263" lon="6.6272">
        <ele>27.1</ele>
        <time>2023-11-05T12:27:38Z</time>
      </trkpt>
      <trkpt lat="43.49263" lon="6.6272">
        <ele>27</ele>
        <time>2023-11-05T12:27:39Z</time>
      </trkpt>
      <trkpt lat="43.49262" lon="6.6272">
        <ele>27</ele>
        <time>2023-11-05T12:27:40Z</time>
      </trkpt>
      <trkpt lat="43.49262" lon="6.6272">
        <ele>26.9</ele>
        <time>2023-11-05T12:27:41Z</time>
      </trkpt>
      <trkpt lat="43.49262" lon="6.6272">
        <ele>26.9</ele>
        <time>2023-11-05T12:27:42Z</time>
      </trkpt>
      <trkpt lat="43.49262" lon="6.6272">
        <ele>26.8</ele>
        <time>2023-11-05T12:27:43Z</time>
      </trkpt>
      <trkpt lat="43.49262" lon="6.6272">
        <ele>26.7</ele>
        <time>2023-11-05T12:27:44Z</time>
      </trkpt>
      <trkpt lat="43.49262" lon="6.62721">
        <ele>26.5</ele>
        <time>2023-11-05T12:27:45Z</time>
      </trkpt>
      <trkpt lat="43.49262" lon="6.6272">
        <ele>26.4</ele>
        <time>2023-11-05T12:27:46Z</time>
      </trkpt>
      <trkpt lat="43.49262" lon="6.6272">
        <ele>26.4</ele>
        <time>2023-11-05T12:27:47Z</time>
      </trkpt>
      <trkpt lat="43.49261" lon="6.6272">
        <ele>26.4</ele>
        <time>2023-11-05T12:27:48Z</time>
      </trkpt>
      <trkpt lat="43.49261" lon="6.6272">
        <ele>26.4</ele>
        <time>2023-11-05T12:27:49Z</time>
      </trkpt>
      <trkpt lat="43.49261" lon="6.6272">
        <ele>26.4</ele>
        <time>2023-11-05T12:27:50Z</time>
      </trkpt>
      <trkpt lat="43.49261" lon="6.62721">
        <ele>26.4</ele>
        <time>2023-11-05T12:27:51Z</time>
      </trkpt>
      <trkpt lat="43.49261" lon="6.62721">
        <ele>26.4</ele>
        <time>2023-11-05T12:27:52Z</time>
      </trkpt>
      <trkpt lat="43.49261" lon="6.62721">
        <ele>26.4</ele>
        <time>2023-11-05T12:27:53Z</time>
      </trkpt>
      <trkpt lat="43.49261" lon="6.62721">
        <ele>26.3</ele>
        <time>2023-11-05T12:27:54Z</time>
      </trkpt>
      <trkpt lat="43.4926" lon="6.62721">
        <ele>26.3</ele>
        <time>2023-11-05T12:27:55Z</time>
      </trkpt>
      <trkpt lat="43.4926" lon="6.62721">
        <ele>26.3</ele>
        <time>2023-11-05T12:27:56Z</time>
      </trkpt>
      <trkpt lat="43.4926" lon="6.62721">
        <ele>26.3</ele>
        <time>2023-11-05T12:27:57Z</time>
      </trkpt>
      <trkpt lat="43.4926" lon="6.62721">
        <ele>26.3</ele>
        <time>2023-11-05T12:27:58Z</time>
      </trkpt>
      <trkpt lat="43.4926" lon="6.62721">
        <ele>26.3</ele>
        <time>2023-11-05T12:27:59Z</time>
      </trkpt>
      <trkpt lat="43.4926" lon="6.62721">
        <ele>26.3</ele>
        <time>2023-11-05T12:28:00Z</time>
      </trkpt>
      <trkpt lat="43.4926" lon="6.62721">
        <ele>26.3</ele>
        <time>2023-11-05T12:28:01Z</time>
      </trkpt>
      <trkpt lat="43.4926" lon="6.62721">
        <ele>26.3</ele>
        <time>2023-11-05T12:28:02Z</time>
      </trkpt>
      <trkpt lat="43.4926" lon="6.62721">
        <ele>26.4</ele>
        <time>2023-11-05T12:28:03Z</time>
      </trkpt>
      <trkpt lat="43.4926" lon="6.62721">
        <ele>26.4</ele>
        <time>2023-11-05T12:28:04Z</time>
      </trkpt>
      <trkpt lat="43.4926" lon="6.62721">
        <ele>26.4</ele>
        <time>2023-11-05T12:28:05Z</time>
      </trkpt>
      <trkpt lat="43.4926" lon="6.62721">
        <ele>26.4</ele>
        <time>2023-11-05T12:28:06Z</time>
      </trkpt>
      <trkpt lat="43.4926" lon="6.62721">
        <ele>26.3</ele>
        <time>2023-11-05T12:28:07Z</time>
      </trkpt>
      <trkpt lat="43.4926" lon="6.62721">
        <ele>26.3</ele>
        <time>2023-11-05T12:28:08Z</time>
      </trkpt>
      <trkpt lat="43.4926" lon="6.62721">
        <ele>26.3</ele>
        <time>2023-11-05T12:28:09Z</time>
      </trkpt>
      <trkpt lat="43.4926" lon="6.62721">
        <ele>26.3</ele>
        <time>2023-11-05T12:28:10Z</time>
      </trkpt>
      <trkpt lat="43.4926" lon="6.62721">
        <ele>26.2</ele>
        <time>2023-11-05T12:28:11Z</time>
      </trkpt>
      <trkpt lat="43.4926" lon="6.62721">
        <ele>26.2</ele>
        <time>2023-11-05T12:28:12Z</time>
      </trkpt>
      <trkpt lat="43.4926" lon="6.6272">
        <ele>26.2</ele>
        <time>2023-11-05T12:28:13Z</time>
      </trkpt>
      <trkpt lat="43.4926" lon="6.6272">
        <ele>26.2</ele>
        <time>2023-11-05T12:28:14Z</time>
      </trkpt>
      <trkpt lat="43.4926" lon="6.6272">
        <ele>26.2</ele>
        <time>2023-11-05T12:28:15Z</time>
      </trkpt>
      <trkpt lat="43.4926" lon="6.6272">
        <ele>26.1</ele>
        <time>2023-11-05T12:28:16Z</time>
      </trkpt>
      <trkpt lat="43.4926" lon="6.6272">
        <ele>26.1</ele>
        <time>2023-11-05T12:28:17Z</time>
      </trkpt>
      <trkpt lat="43.4926" lon="6.6272">
        <ele>26.1</ele>
        <time>2023-11-05T12:28:18Z</time>
      </trkpt>
      <trkpt lat="43.49261" lon="6.6272">
        <ele>26</ele>
        <time>2023-11-05T12:28:19Z</time>
      </trkpt>
      <trkpt lat="43.49261" lon="6.6272">
        <ele>26</ele>
        <time>2023-11-05T12:28:20Z</time>
      </trkpt>
      <trkpt lat="43.49262" lon="6.62719">
        <ele>25.9</ele>
        <time>2023-11-05T12:28:21Z</time>
      </trkpt>
      <trkpt lat="43.49262" lon="6.62719">
        <ele>26</ele>
        <time>2023-11-05T12:28:22Z</time>
      </trkpt>
      <trkpt lat="43.49262" lon="6.62719">
        <ele>26</ele>
        <time>2023-11-05T12:28:23Z</time>
      </trkpt>
      <trkpt lat="43.49262" lon="6.62718">
        <ele>26</ele>
        <time>2023-11-05T12:28:24Z</time>
      </trkpt>
      <trkpt lat="43.49262" lon="6.62718">
        <ele>26</ele>
        <time>2023-11-05T12:28:25Z</time>
      </trkpt>
      <trkpt lat="43.49262" lon="6.62718">
        <ele>26.1</ele>
        <time>2023-11-05T12:28:26Z</time>
      </trkpt>
      <trkpt lat="43.49262" lon="6.62718">
        <ele>26.1</ele>
        <time>2023-11-05T12:28:27Z</time>
      </trkpt>
      <trkpt lat="43.49262" lon="6.62718">
        <ele>26.2</ele>
        <time>2023-11-05T12:28:28Z</time>
      </trkpt>
      <trkpt lat="43.49262" lon="6.62717">
        <ele>26.1</ele>
        <time>2023-11-05T12:28:29Z</time>
      </trkpt>
      <trkpt lat="43.49263" lon="6.62717">
        <ele>26.1</ele>
        <time>2023-11-05T12:28:30Z</time>
      </trkpt>
      <trkpt lat="43.49263" lon="6.62716">
        <ele>26.1</ele>
        <time>2023-11-05T12:28:31Z</time>
      </trkpt>
      <trkpt lat="43.49264" lon="6.62716">
        <ele>26.1</ele>
        <time>2023-11-05T12:28:32Z</time>
      </trkpt>
      <trkpt lat="43.49264" lon="6.62715">
        <ele>26.1</ele>
        <time>2023-11-05T12:28:33Z</time>
      </trkpt>
      <trkpt lat="43.49265" lon="6.62715">
        <ele>26.1</ele>
        <time>2023-11-05T12:28:34Z</time>
      </trkpt>
      <trkpt lat="43.49266" lon="6.62714">
        <ele>26</ele>
        <time>2023-11-05T12:28:35Z</time>
      </trkpt>
      <trkpt lat="43.49267" lon="6.62713">
        <ele>26</ele>
        <time>2023-11-05T12:28:36Z</time>
      </trkpt>
      <trkpt lat="43.49268" lon="6.62712">
        <ele>26</ele>
        <time>2023-11-05T12:28:37Z</time>
      </trkpt>
      <trkpt lat="43.49268" lon="6.62711">
        <ele>25.9</ele>
        <time>2023-11-05T12:28:38Z</time>
      </trkpt>
      <trkpt lat="43.49268" lon="6.6271">
        <ele>25.8</ele>
        <time>2023-11-05T12:28:39Z</time>
      </trkpt>
      <trkpt lat="43.49269" lon="6.62709">
        <ele>25.8</ele>
        <time>2023-11-05T12:28:40Z</time>
      </trkpt>
      <trkpt lat="43.4927" lon="6.62708">
        <ele>25.7</ele>
        <time>2023-11-05T12:28:41Z</time>
      </trkpt>
      <trkpt lat="43.4927" lon="6.62707">
        <ele>25.7</ele>
        <time>2023-11-05T12:28:42Z</time>
      </trkpt>
      <trkpt lat="43.4927" lon="6.62706">
        <ele>25.6</ele>
        <time>2023-11-05T12:28:43Z</time>
      </trkpt>
      <trkpt lat="43.49271" lon="6.62705">
        <ele>25.6</ele>
        <time>2023-11-05T12:28:44Z</time>
      </trkpt>
      <trkpt lat="43.49271" lon="6.62705">
        <ele>25.6</ele>
        <time>2023-11-05T12:28:45Z</time>
      </trkpt>
      <trkpt lat="43.49272" lon="6.62704">
        <ele>25.5</ele>
        <time>2023-11-05T12:28:46Z</time>
      </trkpt>
      <trkpt lat="43.49272" lon="6.62703">
        <ele>25.5</ele>
        <time>2023-11-05T12:28:47Z</time>
      </trkpt>
      <trkpt lat="43.49271" lon="6.62702">
        <ele>25.5</ele>
        <time>2023-11-05T12:28:48Z</time>
      </trkpt>
      <trkpt lat="43.49272" lon="6.62702">
        <ele>25.5</ele>
        <time>2023-11-05T12:28:49Z</time>
      </trkpt>
      <trkpt lat="43.49272" lon="6.62702">
        <ele>25.5</ele>
        <time>2023-11-05T12:28:50Z</time>
      </trkpt>
      <trkpt lat="43.49272" lon="6.62702">
        <ele>25.5</ele>
        <time>2023-11-05T12:28:51Z</time>
      </trkpt>
      <trkpt lat="43.49273" lon="6.62701">
        <ele>25.6</ele>
        <time>2023-11-05T12:28:52Z</time>
      </trkpt>
      <trkpt lat="43.49273" lon="6.62702">
        <ele>25.7</ele>
        <time>2023-11-05T12:28:53Z</time>
      </trkpt>
      <trkpt lat="43.49274" lon="6.62702">
        <ele>25.7</ele>
        <time>2023-11-05T12:28:54Z</time>
      </trkpt>
      <trkpt lat="43.49275" lon="6.62702">
        <ele>25.7</ele>
        <time>2023-11-05T12:28:55Z</time>
      </trkpt>
      <trkpt lat="43.49275" lon="6.62701">
        <ele>25.6</ele>
        <time>2023-11-05T12:28:56Z</time>
      </trkpt>
      <trkpt lat="43.49276" lon="6.627">
        <ele>25.6</ele>
        <time>2023-11-05T12:28:57Z</time>
      </trkpt>
      <trkpt lat="43.49275" lon="6.627">
        <ele>25.7</ele>
        <time>2023-11-05T12:28:58Z</time>
      </trkpt>
      <trkpt lat="43.49275" lon="6.62699">
        <ele>25.8</ele>
        <time>2023-11-05T12:28:59Z</time>
      </trkpt>
      <trkpt lat="43.49275" lon="6.62699">
        <ele>25.9</ele>
        <time>2023-11-05T12:29:00Z</time>
      </trkpt>
      <trkpt lat="43.49275" lon="6.62699">
        <ele>26</ele>
        <time>2023-11-05T12:29:01Z</time>
      </trkpt>
      <trkpt lat="43.49275" lon="6.62698">
        <ele>26.1</ele>
        <time>2023-11-05T12:29:02Z</time>
      </trkpt>
      <trkpt lat="43.49275" lon="6.62697">
        <ele>26.1</ele>
        <time>2023-11-05T12:29:03Z</time>
      </trkpt>
      <trkpt lat="43.49276" lon="6.62697">
        <ele>26.2</ele>
        <time>2023-11-05T12:29:04Z</time>
      </trkpt>
      <trkpt lat="43.49276" lon="6.62697">
        <ele>26.2</ele>
        <time>2023-11-05T12:29:05Z</time>
      </trkpt>
      <trkpt lat="43.49276" lon="6.62696">
        <ele>26.2</ele>
        <time>2023-11-05T12:29:06Z</time>
      </trkpt>
      <trkpt lat="43.49276" lon="6.62695">
        <ele>26.1</ele>
        <time>2023-11-05T12:29:07Z</time>
      </trkpt>
      <trkpt lat="43.49276" lon="6.62694">
        <ele>26.1</ele>
        <time>2023-11-05T12:29:08Z</time>
      </trkpt>
      <trkpt lat="43.49276" lon="6.62693">
        <ele>26.1</ele>
        <time>2023-11-05T12:29:09Z</time>
      </trkpt>
      <trkpt lat="43.49277" lon="6.62692">
        <ele>26.1</ele>
        <time>2023-11-05T12:29:10Z</time>
      </trkpt>
      <trkpt lat="43.49277" lon="6.62691">
        <ele>26.2</ele>
        <time>2023-11-05T12:29:11Z</time>
      </trkpt>
      <trkpt lat="43.49277" lon="6.62691">
        <ele>26.2</ele>
        <time>2023-11-05T12:29:12Z</time>
      </trkpt>
      <trkpt lat="43.49278" lon="6.6269">
        <ele>26.3</ele>
        <time>2023-11-05T12:29:13Z</time>
      </trkpt>
      <trkpt lat="43.49278" lon="6.62691">
        <ele>26.3</ele>
        <time>2023-11-05T12:29:14Z</time>
      </trkpt>
      <trkpt lat="43.49278" lon="6.62691">
        <ele>26.3</ele>
        <time>2023-11-05T12:29:15Z</time>
      </trkpt>
      <trkpt lat="43.49278" lon="6.6269">
        <ele>26.3</ele>
        <time>2023-11-05T12:29:16Z</time>
      </trkpt>
      <trkpt lat="43.49278" lon="6.62689">
        <ele>26.3</ele>
        <time>2023-11-05T12:29:17Z</time>
      </trkpt>
      <trkpt lat="43.49278" lon="6.62688">
        <ele>26.3</ele>
        <time>2023-11-05T12:29:18Z</time>
      </trkpt>
      <trkpt lat="43.49278" lon="6.62688">
        <ele>26.3</ele>
        <time>2023-11-05T12:29:19Z</time>
      </trkpt>
      <trkpt lat="43.49278" lon="6.62688">
        <ele>26.2</ele>
        <time>2023-11-05T12:29:20Z</time>
      </trkpt>
      <trkpt lat="43.49278" lon="6.62687">
        <ele>26.1</ele>
        <time>2023-11-05T12:29:21Z</time>
      </trkpt>
      <trkpt lat="43.49278" lon="6.62686">
        <ele>26.1</ele>
        <time>2023-11-05T12:29:22Z</time>
      </trkpt>
      <trkpt lat="43.49278" lon="6.62685">
        <ele>25.9</ele>
        <time>2023-11-05T12:29:23Z</time>
      </trkpt>
      <trkpt lat="43.49279" lon="6.62683">
        <ele>25.9</ele>
        <time>2023-11-05T12:29:24Z</time>
      </trkpt>
      <trkpt lat="43.49279" lon="6.62682">
        <ele>25.8</ele>
        <time>2023-11-05T12:29:25Z</time>
      </trkpt>
      <trkpt lat="43.49279" lon="6.62681">
        <ele>25.9</ele>
        <time>2023-11-05T12:29:26Z</time>
      </trkpt>
      <trkpt lat="43.49279" lon="6.6268">
        <ele>26</ele>
        <time>2023-11-05T12:29:27Z</time>
      </trkpt>
      <trkpt lat="43.49279" lon="6.62679">
        <ele>26</ele>
        <time>2023-11-05T12:29:28Z</time>
      </trkpt>
      <trkpt lat="43.49279" lon="6.62677">
        <ele>26</ele>
        <time>2023-11-05T12:29:29Z</time>
      </trkpt>
      <trkpt lat="43.49279" lon="6.62676">
        <ele>25.9</ele>
        <time>2023-11-05T12:29:30Z</time>
      </trkpt>
      <trkpt lat="43.49279" lon="6.62675">
        <ele>25.9</ele>
        <time>2023-11-05T12:29:31Z</time>
      </trkpt>
      <trkpt lat="43.4928" lon="6.62674">
        <ele>26</ele>
        <time>2023-11-05T12:29:32Z</time>
      </trkpt>
      <trkpt lat="43.4928" lon="6.62674">
        <ele>26</ele>
        <time>2023-11-05T12:29:33Z</time>
      </trkpt>
      <trkpt lat="43.4928" lon="6.62674">
        <ele>26</ele>
        <time>2023-11-05T12:29:34Z</time>
      </trkpt>
      <trkpt lat="43.49281" lon="6.62673">
        <ele>26.1</ele>
        <time>2023-11-05T12:29:35Z</time>
      </trkpt>
      <trkpt lat="43.49281" lon="6.62673">
        <ele>26.2</ele>
        <time>2023-11-05T12:29:36Z</time>
      </trkpt>
      <trkpt lat="43.49282" lon="6.62672">
        <ele>26.2</ele>
        <time>2023-11-05T12:29:37Z</time>
      </trkpt>
      <trkpt lat="43.49283" lon="6.62672">
        <ele>26.4</ele>
        <time>2023-11-05T12:29:38Z</time>
      </trkpt>
      <trkpt lat="43.49283" lon="6.62671">
        <ele>26.4</ele>
        <time>2023-11-05T12:29:39Z</time>
      </trkpt>
      <trkpt lat="43.49284" lon="6.62671">
        <ele>26.6</ele>
        <time>2023-11-05T12:29:40Z</time>
      </trkpt>
      <trkpt lat="43.49284" lon="6.6267">
        <ele>26.8</ele>
        <time>2023-11-05T12:29:41Z</time>
      </trkpt>
      <trkpt lat="43.49285" lon="6.6267">
        <ele>27</ele>
        <time>2023-11-05T12:29:42Z</time>
      </trkpt>
      <trkpt lat="43.49285" lon="6.6267">
        <ele>26.9</ele>
        <time>2023-11-05T12:29:43Z</time>
      </trkpt>
      <trkpt lat="43.49286" lon="6.6267">
        <ele>26.9</ele>
        <time>2023-11-05T12:29:44Z</time>
      </trkpt>
      <trkpt lat="43.49287" lon="6.6267">
        <ele>26.9</ele>
        <time>2023-11-05T12:29:45Z</time>
      </trkpt>
      <trkpt lat="43.49288" lon="6.62668">
        <ele>26.9</ele>
        <time>2023-11-05T12:29:46Z</time>
      </trkpt>
      <trkpt lat="43.49289" lon="6.62668">
        <ele>26.9</ele>
        <time>2023-11-05T12:29:47Z</time>
      </trkpt>
      <trkpt lat="43.4929" lon="6.62667">
        <ele>26.8</ele>
        <time>2023-11-05T12:29:48Z</time>
      </trkpt>
      <trkpt lat="43.4929" lon="6.62667">
        <ele>26.7</ele>
        <time>2023-11-05T12:29:49Z</time>
      </trkpt>
      <trkpt lat="43.49291" lon="6.62666">
        <ele>26.7</ele>
        <time>2023-11-05T12:29:50Z</time>
      </trkpt>
      <trkpt lat="43.49291" lon="6.62665">
        <ele>26.7</ele>
        <time>2023-11-05T12:29:51Z</time>
      </trkpt>
      <trkpt lat="43.49292" lon="6.62664">
        <ele>26.7</ele>
        <time>2023-11-05T12:29:52Z</time>
      </trkpt>
      <trkpt lat="43.49292" lon="6.62664">
        <ele>26.7</ele>
        <time>2023-11-05T12:29:53Z</time>
      </trkpt>
      <trkpt lat="43.49293" lon="6.62663">
        <ele>26.7</ele>
        <time>2023-11-05T12:29:54Z</time>
      </trkpt>
      <trkpt lat="43.49294" lon="6.62663">
        <ele>26.8</ele>
        <time>2023-11-05T12:29:55Z</time>
      </trkpt>
      <trkpt lat="43.49295" lon="6.62663">
        <ele>26.9</ele>
        <time>2023-11-05T12:29:56Z</time>
      </trkpt>
      <trkpt lat="43.49296" lon="6.62662">
        <ele>27</ele>
        <time>2023-11-05T12:29:57Z</time>
      </trkpt>
      <trkpt lat="43.49297" lon="6.62662">
        <ele>27.2</ele>
        <time>2023-11-05T12:29:58Z</time>
      </trkpt>
      <trkpt lat="43.49297" lon="6.62662">
        <ele>27.2</ele>
        <time>2023-11-05T12:29:59Z</time>
      </trkpt>
      <trkpt lat="43.49298" lon="6.62662">
        <ele>27.3</ele>
        <time>2023-11-05T12:30:00Z</time>
      </trkpt>
      <trkpt lat="43.49298" lon="6.62662">
        <ele>27.4</ele>
        <time>2023-11-05T12:30:01Z</time>
      </trkpt>
      <trkpt lat="43.49298" lon="6.62661">
        <ele>27.6</ele>
        <time>2023-11-05T12:30:02Z</time>
      </trkpt>
      <trkpt lat="43.49299" lon="6.62662">
        <ele>27.7</ele>
        <time>2023-11-05T12:30:03Z</time>
      </trkpt>
      <trkpt lat="43.493" lon="6.62662">
        <ele>27.9</ele>
        <time>2023-11-05T12:30:04Z</time>
      </trkpt>
      <trkpt lat="43.493" lon="6.62662">
        <ele>27.9</ele>
        <time>2023-11-05T12:30:05Z</time>
      </trkpt>
      <trkpt lat="43.49301" lon="6.62661">
        <ele>28.1</ele>
        <time>2023-11-05T12:30:06Z</time>
      </trkpt>
      <trkpt lat="43.49301" lon="6.62661">
        <ele>28.2</ele>
        <time>2023-11-05T12:30:07Z</time>
      </trkpt>
      <trkpt lat="43.49301" lon="6.62661">
        <ele>28.3</ele>
        <time>2023-11-05T12:30:08Z</time>
      </trkpt>
      <trkpt lat="43.49302" lon="6.62661">
        <ele>28.4</ele>
        <time>2023-11-05T12:30:09Z</time>
      </trkpt>
      <trkpt lat="43.49302" lon="6.62661">
        <ele>28.6</ele>
        <time>2023-11-05T12:30:10Z</time>
      </trkpt>
      <trkpt lat="43.49303" lon="6.62661">
        <ele>28.7</ele>
        <time>2023-11-05T12:30:11Z</time>
      </trkpt>
      <trkpt lat="43.49304" lon="6.6266">
        <ele>28.8</ele>
        <time>2023-11-05T12:30:12Z</time>
      </trkpt>
      <trkpt lat="43.49305" lon="6.62659">
        <ele>29</ele>
        <time>2023-11-05T12:30:13Z</time>
      </trkpt>
      <trkpt lat="43.49306" lon="6.62658">
        <ele>29.1</ele>
        <time>2023-11-05T12:30:14Z</time>
      </trkpt>
      <trkpt lat="43.49306" lon="6.62658">
        <ele>29.2</ele>
        <time>2023-11-05T12:30:15Z</time>
      </trkpt>
      <trkpt lat="43.49306" lon="6.62658">
        <ele>29.3</ele>
        <time>2023-11-05T12:30:16Z</time>
      </trkpt>
      <trkpt lat="43.49307" lon="6.62658">
        <ele>29.3</ele>
        <time>2023-11-05T12:30:17Z</time>
      </trkpt>
      <trkpt lat="43.49308" lon="6.62659">
        <ele>29.5</ele>
        <time>2023-11-05T12:30:18Z</time>
      </trkpt>
      <trkpt lat="43.49308" lon="6.62658">
        <ele>29.7</ele>
        <time>2023-11-05T12:30:19Z</time>
      </trkpt>
      <trkpt lat="43.49309" lon="6.62657">
        <ele>29.9</ele>
        <time>2023-11-05T12:30:20Z</time>
      </trkpt>
      <trkpt lat="43.4931" lon="6.62657">
        <ele>30.1</ele>
        <time>2023-11-05T12:30:21Z</time>
      </trkpt>
      <trkpt lat="43.4931" lon="6.62656">
        <ele>30.3</ele>
        <time>2023-11-05T12:30:22Z</time>
      </trkpt>
      <trkpt lat="43.49311" lon="6.62654">
        <ele>30.6</ele>
        <time>2023-11-05T12:30:23Z</time>
      </trkpt>
      <trkpt lat="43.49312" lon="6.62653">
        <ele>30.8</ele>
        <time>2023-11-05T12:30:24Z</time>
      </trkpt>
      <trkpt lat="43.49312" lon="6.62653">
        <ele>30.9</ele>
        <time>2023-11-05T12:30:25Z</time>
      </trkpt>
      <trkpt lat="43.49313" lon="6.62652">
        <ele>31</ele>
        <time>2023-11-05T12:30:26Z</time>
      </trkpt>
      <trkpt lat="43.49314" lon="6.62651">
        <ele>31.2</ele>
        <time>2023-11-05T12:30:27Z</time>
      </trkpt>
      <trkpt lat="43.49314" lon="6.62651">
        <ele>31.3</ele>
        <time>2023-11-05T12:30:28Z</time>
      </trkpt>
      <trkpt lat="43.49315" lon="6.6265">
        <ele>31.5</ele>
        <time>2023-11-05T12:30:29Z</time>
      </trkpt>
      <trkpt lat="43.49316" lon="6.62649">
        <ele>31.6</ele>
        <time>2023-11-05T12:30:30Z</time>
      </trkpt>
      <trkpt lat="43.49316" lon="6.62649">
        <ele>31.9</ele>
        <time>2023-11-05T12:30:31Z</time>
      </trkpt>
      <trkpt lat="43.49317" lon="6.62648">
        <ele>32</ele>
        <time>2023-11-05T12:30:32Z</time>
      </trkpt>
      <trkpt lat="43.49318" lon="6.62648">
        <ele>32.1</ele>
        <time>2023-11-05T12:30:33Z</time>
      </trkpt>
      <trkpt lat="43.49319" lon="6.62647">
        <ele>32.3</ele>
        <time>2023-11-05T12:30:34Z</time>
      </trkpt>
      <trkpt lat="43.4932" lon="6.62646">
        <ele>32.4</ele>
        <time>2023-11-05T12:30:35Z</time>
      </trkpt>
      <trkpt lat="43.49321" lon="6.62646">
        <ele>32.6</ele>
        <time>2023-11-05T12:30:36Z</time>
      </trkpt>
      <trkpt lat="43.49322" lon="6.62645">
        <ele>32.7</ele>
        <time>2023-11-05T12:30:37Z</time>
      </trkpt>
      <trkpt lat="43.49323" lon="6.62645">
        <ele>33</ele>
        <time>2023-11-05T12:30:38Z</time>
      </trkpt>
      <trkpt lat="43.49324" lon="6.62644">
        <ele>32.9</ele>
        <time>2023-11-05T12:30:39Z</time>
      </trkpt>
      <trkpt lat="43.49324" lon="6.62643">
        <ele>32.9</ele>
        <time>2023-11-05T12:30:40Z</time>
      </trkpt>
      <trkpt lat="43.49325" lon="6.62643">
        <ele>32.9</ele>
        <time>2023-11-05T12:30:41Z</time>
      </trkpt>
      <trkpt lat="43.49326" lon="6.62643">
        <ele>32.9</ele>
        <time>2023-11-05T12:30:42Z</time>
      </trkpt>
      <trkpt lat="43.49327" lon="6.62642">
        <ele>32.9</ele>
        <time>2023-11-05T12:30:43Z</time>
      </trkpt>
      <trkpt lat="43.49328" lon="6.62642">
        <ele>32.9</ele>
        <time>2023-11-05T12:30:44Z</time>
      </trkpt>
      <trkpt lat="43.49329" lon="6.62641">
        <ele>32.8</ele>
        <time>2023-11-05T12:30:45Z</time>
      </trkpt>
      <trkpt lat="43.4933" lon="6.62641">
        <ele>32.8</ele>
        <time>2023-11-05T12:30:46Z</time>
      </trkpt>
      <trkpt lat="43.49331" lon="6.6264">
        <ele>32.8</ele>
        <time>2023-11-05T12:30:47Z</time>
      </trkpt>
      <trkpt lat="43.49332" lon="6.62639">
        <ele>32.8</ele>
        <time>2023-11-05T12:30:48Z</time>
      </trkpt>
      <trkpt lat="43.49333" lon="6.62638">
        <ele>32.7</ele>
        <time>2023-11-05T12:30:49Z</time>
      </trkpt>
      <trkpt lat="43.49333" lon="6.62637">
        <ele>32.8</ele>
        <time>2023-11-05T12:30:50Z</time>
      </trkpt>
      <trkpt lat="43.49333" lon="6.62636">
        <ele>33</ele>
        <time>2023-11-05T12:30:51Z</time>
      </trkpt>
      <trkpt lat="43.49334" lon="6.62635">
        <ele>33.1</ele>
        <time>2023-11-05T12:30:52Z</time>
      </trkpt>
      <trkpt lat="43.49334" lon="6.62634">
        <ele>33.2</ele>
        <time>2023-11-05T12:30:53Z</time>
      </trkpt>
      <trkpt lat="43.49335" lon="6.62633">
        <ele>33.3</ele>
        <time>2023-11-05T12:30:54Z</time>
      </trkpt>
      <trkpt lat="43.49335" lon="6.62632">
        <ele>33.4</ele>
        <time>2023-11-05T12:30:55Z</time>
      </trkpt>
      <trkpt lat="43.49335" lon="6.6263">
        <ele>33.5</ele>
        <time>2023-11-05T12:30:56Z</time>
      </trkpt>
      <trkpt lat="43.49335" lon="6.62629">
        <ele>33.6</ele>
        <time>2023-11-05T12:30:57Z</time>
      </trkpt>
      <trkpt lat="43.49335" lon="6.62628">
        <ele>33.6</ele>
        <time>2023-11-05T12:30:58Z</time>
      </trkpt>
      <trkpt lat="43.49335" lon="6.62627">
        <ele>33.7</ele>
        <time>2023-11-05T12:30:59Z</time>
      </trkpt>
      <trkpt lat="43.49336" lon="6.62627">
        <ele>33.7</ele>
        <time>2023-11-05T12:31:00Z</time>
      </trkpt>
      <trkpt lat="43.49336" lon="6.62626">
        <ele>33.9</ele>
        <time>2023-11-05T12:31:01Z</time>
      </trkpt>
      <trkpt lat="43.49336" lon="6.62625">
        <ele>34.1</ele>
        <time>2023-11-05T12:31:02Z</time>
      </trkpt>
      <trkpt lat="43.49336" lon="6.62625">
        <ele>34.2</ele>
        <time>2023-11-05T12:31:03Z</time>
      </trkpt>
      <trkpt lat="43.49336" lon="6.62624">
        <ele>34.2</ele>
        <time>2023-11-05T12:31:04Z</time>
      </trkpt>
      <trkpt lat="43.49336" lon="6.62623">
        <ele>34.1</ele>
        <time>2023-11-05T12:31:05Z</time>
      </trkpt>
      <trkpt lat="43.49336" lon="6.62623">
        <ele>34.1</ele>
        <time>2023-11-05T12:31:06Z</time>
      </trkpt>
      <trkpt lat="43.49336" lon="6.62622">
        <ele>34</ele>
        <time>2023-11-05T12:31:07Z</time>
      </trkpt>
      <trkpt lat="43.49336" lon="6.62621">
        <ele>34</ele>
        <time>2023-11-05T12:31:08Z</time>
      </trkpt>
      <trkpt lat="43.49336" lon="6.6262">
        <ele>34</ele>
        <time>2023-11-05T12:31:09Z</time>
      </trkpt>
      <trkpt lat="43.49336" lon="6.62619">
        <ele>34.1</ele>
        <time>2023-11-05T12:31:10Z</time>
      </trkpt>
      <trkpt lat="43.49335" lon="6.62617">
        <ele>34.1</ele>
        <time>2023-11-05T12:31:11Z</time>
      </trkpt>
      <trkpt lat="43.49335" lon="6.62616">
        <ele>34.2</ele>
        <time>2023-11-05T12:31:12Z</time>
      </trkpt>
      <trkpt lat="43.49334" lon="6.62615">
        <ele>34.4</ele>
        <time>2023-11-05T12:31:13Z</time>
      </trkpt>
      <trkpt lat="43.49334" lon="6.62613">
        <ele>34.6</ele>
        <time>2023-11-05T12:31:14Z</time>
      </trkpt>
      <trkpt lat="43.49334" lon="6.62611">
        <ele>34.8</ele>
        <time>2023-11-05T12:31:15Z</time>
      </trkpt>
      <trkpt lat="43.49334" lon="6.62609">
        <ele>34.9</ele>
        <time>2023-11-05T12:31:16Z</time>
      </trkpt>
      <trkpt lat="43.49334" lon="6.62608">
        <ele>35.2</ele>
        <time>2023-11-05T12:31:17Z</time>
      </trkpt>
      <trkpt lat="43.49334" lon="6.62607">
        <ele>35.4</ele>
        <time>2023-11-05T12:31:18Z</time>
      </trkpt>
      <trkpt lat="43.49334" lon="6.62606">
        <ele>35.7</ele>
        <time>2023-11-05T12:31:19Z</time>
      </trkpt>
      <trkpt lat="43.49334" lon="6.62604">
        <ele>35.9</ele>
        <time>2023-11-05T12:31:20Z</time>
      </trkpt>
      <trkpt lat="43.49334" lon="6.62603">
        <ele>36.1</ele>
        <time>2023-11-05T12:31:21Z</time>
      </trkpt>
      <trkpt lat="43.49334" lon="6.62602">
        <ele>36.3</ele>
        <time>2023-11-05T12:31:22Z</time>
      </trkpt>
      <trkpt lat="43.49334" lon="6.62601">
        <ele>36.4</ele>
        <time>2023-11-05T12:31:23Z</time>
      </trkpt>
      <trkpt lat="43.49334" lon="6.626">
        <ele>36.6</ele>
        <time>2023-11-05T12:31:24Z</time>
      </trkpt>
      <trkpt lat="43.49334" lon="6.626">
        <ele>36.8</ele>
        <time>2023-11-05T12:31:25Z</time>
      </trkpt>
      <trkpt lat="43.49334" lon="6.62599">
        <ele>37</ele>
        <time>2023-11-05T12:31:26Z</time>
      </trkpt>
      <trkpt lat="43.49334" lon="6.62598">
        <ele>37.1</ele>
        <time>2023-11-05T12:31:27Z</time>
      </trkpt>
      <trkpt lat="43.49334" lon="6.62598">
        <ele>37.4</ele>
        <time>2023-11-05T12:31:28Z</time>
      </trkpt>
      <trkpt lat="43.49334" lon="6.62598">
        <ele>37.6</ele>
        <time>2023-11-05T12:31:29Z</time>
      </trkpt>
      <trkpt lat="43.49335" lon="6.62597">
        <ele>37.8</ele>
        <time>2023-11-05T12:31:30Z</time>
      </trkpt>
      <trkpt lat="43.49336" lon="6.62597">
        <ele>38</ele>
        <time>2023-11-05T12:31:31Z</time>
      </trkpt>
      <trkpt lat="43.49336" lon="6.62596">
        <ele>38.3</ele>
        <time>2023-11-05T12:31:32Z</time>
      </trkpt>
      <trkpt lat="43.49336" lon="6.62595">
        <ele>38.5</ele>
        <time>2023-11-05T12:31:33Z</time>
      </trkpt>
      <trkpt lat="43.49336" lon="6.62595">
        <ele>38.7</ele>
        <time>2023-11-05T12:31:34Z</time>
      </trkpt>
      <trkpt lat="43.49336" lon="6.62594">
        <ele>38.9</ele>
        <time>2023-11-05T12:31:35Z</time>
      </trkpt>
      <trkpt lat="43.49335" lon="6.62594">
        <ele>39.1</ele>
        <time>2023-11-05T12:31:36Z</time>
      </trkpt>
      <trkpt lat="43.49335" lon="6.62594">
        <ele>39.4</ele>
        <time>2023-11-05T12:31:37Z</time>
      </trkpt>
      <trkpt lat="43.49335" lon="6.62594">
        <ele>39.6</ele>
        <time>2023-11-05T12:31:38Z</time>
      </trkpt>
      <trkpt lat="43.49335" lon="6.62593">
        <ele>39.8</ele>
        <time>2023-11-05T12:31:39Z</time>
      </trkpt>
      <trkpt lat="43.49336" lon="6.62592">
        <ele>39.9</ele>
        <time>2023-11-05T12:31:40Z</time>
      </trkpt>
      <trkpt lat="43.49335" lon="6.6259">
        <ele>40</ele>
        <time>2023-11-05T12:31:41Z</time>
      </trkpt>
      <trkpt lat="43.49336" lon="6.62589">
        <ele>40.1</ele>
        <time>2023-11-05T12:31:42Z</time>
      </trkpt>
      <trkpt lat="43.49336" lon="6.62588">
        <ele>40.2</ele>
        <time>2023-11-05T12:31:43Z</time>
      </trkpt>
      <trkpt lat="43.49336" lon="6.62586">
        <ele>40.4</ele>
        <time>2023-11-05T12:31:44Z</time>
      </trkpt>
      <trkpt lat="43.49336" lon="6.62585">
        <ele>40.5</ele>
        <time>2023-11-05T12:31:45Z</time>
      </trkpt>
      <trkpt lat="43.49336" lon="6.62583">
        <ele>40.6</ele>
        <time>2023-11-05T12:31:46Z</time>
      </trkpt>
      <trkpt lat="43.49336" lon="6.62582">
        <ele>40.7</ele>
        <time>2023-11-05T12:31:47Z</time>
      </trkpt>
      <trkpt lat="43.49336" lon="6.62581">
        <ele>40.7</ele>
        <time>2023-11-05T12:31:48Z</time>
      </trkpt>
      <trkpt lat="43.49337" lon="6.62579">
        <ele>40.8</ele>
        <time>2023-11-05T12:31:49Z</time>
      </trkpt>
      <trkpt lat="43.49337" lon="6.62578">
        <ele>40.8</ele>
        <time>2023-11-05T12:31:50Z</time>
      </trkpt>
      <trkpt lat="43.49337" lon="6.62576">
        <ele>40.9</ele>
        <time>2023-11-05T12:31:51Z</time>
      </trkpt>
      <trkpt lat="43.49337" lon="6.62575">
        <ele>41</ele>
        <time>2023-11-05T12:31:52Z</time>
      </trkpt>
      <trkpt lat="43.49337" lon="6.62573">
        <ele>41.1</ele>
        <time>2023-11-05T12:31:53Z</time>
      </trkpt>
      <trkpt lat="43.49337" lon="6.62572">
        <ele>41.2</ele>
        <time>2023-11-05T12:31:54Z</time>
      </trkpt>
      <trkpt lat="43.49337" lon="6.6257">
        <ele>41.4</ele>
        <time>2023-11-05T12:31:55Z</time>
      </trkpt>
      <trkpt lat="43.49337" lon="6.62569">
        <ele>41.5</ele>
        <time>2023-11-05T12:31:56Z</time>
      </trkpt>
      <trkpt lat="43.49337" lon="6.62568">
        <ele>41.7</ele>
        <time>2023-11-05T12:31:57Z</time>
      </trkpt>
      <trkpt lat="43.49337" lon="6.62567">
        <ele>41.7</ele>
        <time>2023-11-05T12:31:58Z</time>
      </trkpt>
      <trkpt lat="43.49337" lon="6.62566">
        <ele>41.8</ele>
        <time>2023-11-05T12:31:59Z</time>
      </trkpt>
      <trkpt lat="43.49337" lon="6.62565">
        <ele>41.9</ele>
        <time>2023-11-05T12:32:00Z</time>
      </trkpt>
      <trkpt lat="43.49338" lon="6.62564">
        <ele>42</ele>
        <time>2023-11-05T12:32:01Z</time>
      </trkpt>
      <trkpt lat="43.49338" lon="6.62563">
        <ele>42.1</ele>
        <time>2023-11-05T12:32:02Z</time>
      </trkpt>
      <trkpt lat="43.49338" lon="6.62562">
        <ele>42.4</ele>
        <time>2023-11-05T12:32:03Z</time>
      </trkpt>
      <trkpt lat="43.49338" lon="6.6256">
        <ele>42.5</ele>
        <time>2023-11-05T12:32:04Z</time>
      </trkpt>
      <trkpt lat="43.49338" lon="6.62558">
        <ele>42.6</ele>
        <time>2023-11-05T12:32:05Z</time>
      </trkpt>
      <trkpt lat="43.49338" lon="6.62557">
        <ele>42.6</ele>
        <time>2023-11-05T12:32:06Z</time>
      </trkpt>
      <trkpt lat="43.49338" lon="6.62556">
        <ele>42.7</ele>
        <time>2023-11-05T12:32:07Z</time>
      </trkpt>
      <trkpt lat="43.49337" lon="6.62554">
        <ele>42.8</ele>
        <time>2023-11-05T12:32:08Z</time>
      </trkpt>
      <trkpt lat="43.49337" lon="6.62553">
        <ele>42.9</ele>
        <time>2023-11-05T12:32:09Z</time>
      </trkpt>
      <trkpt lat="43.49337" lon="6.62552">
        <ele>42.9</ele>
        <time>2023-11-05T12:32:10Z</time>
      </trkpt>
      <trkpt lat="43.49336" lon="6.62551">
        <ele>42.8</ele>
        <time>2023-11-05T12:32:11Z</time>
      </trkpt>
      <trkpt lat="43.49337" lon="6.62549">
        <ele>42.9</ele>
        <time>2023-11-05T12:32:12Z</time>
      </trkpt>
      <trkpt lat="43.49337" lon="6.62548">
        <ele>42.8</ele>
        <time>2023-11-05T12:32:13Z</time>
      </trkpt>
      <trkpt lat="43.49337" lon="6.62546">
        <ele>42.7</ele>
        <time>2023-11-05T12:32:14Z</time>
      </trkpt>
      <trkpt lat="43.49337" lon="6.62545">
        <ele>42.7</ele>
        <time>2023-11-05T12:32:15Z</time>
      </trkpt>
      <trkpt lat="43.49337" lon="6.62544">
        <ele>42.6</ele>
        <time>2023-11-05T12:32:16Z</time>
      </trkpt>
      <trkpt lat="43.49336" lon="6.62542">
        <ele>42.5</ele>
        <time>2023-11-05T12:32:17Z</time>
      </trkpt>
      <trkpt lat="43.49336" lon="6.62541">
        <ele>42.5</ele>
        <time>2023-11-05T12:32:18Z</time>
      </trkpt>
      <trkpt lat="43.49336" lon="6.62539">
        <ele>42.5</ele>
        <time>2023-11-05T12:32:19Z</time>
      </trkpt>
      <trkpt lat="43.49336" lon="6.62537">
        <ele>42.5</ele>
        <time>2023-11-05T12:32:20Z</time>
      </trkpt>
      <trkpt lat="43.49336" lon="6.62536">
        <ele>42.3</ele>
        <time>2023-11-05T12:32:21Z</time>
      </trkpt>
      <trkpt lat="43.49336" lon="6.62534">
        <ele>42.3</ele>
        <time>2023-11-05T12:32:22Z</time>
      </trkpt>
      <trkpt lat="43.49336" lon="6.62533">
        <ele>42.2</ele>
        <time>2023-11-05T12:32:23Z</time>
      </trkpt>
      <trkpt lat="43.49336" lon="6.62532">
        <ele>42.2</ele>
        <time>2023-11-05T12:32:24Z</time>
      </trkpt>
      <trkpt lat="43.49337" lon="6.6253">
        <ele>42.2</ele>
        <time>2023-11-05T12:32:25Z</time>
      </trkpt>
      <trkpt lat="43.49337" lon="6.62529">
        <ele>42.1</ele>
        <time>2023-11-05T12:32:26Z</time>
      </trkpt>
      <trkpt lat="43.49337" lon="6.62527">
        <ele>42.1</ele>
        <time>2023-11-05T12:32:27Z</time>
      </trkpt>
      <trkpt lat="43.49336" lon="6.62526">
        <ele>42.1</ele>
        <time>2023-11-05T12:32:28Z</time>
      </trkpt>
      <trkpt lat="43.49336" lon="6.62524">
        <ele>42.2</ele>
        <time>2023-11-05T12:32:29Z</time>
      </trkpt>
      <trkpt lat="43.49336" lon="6.62523">
        <ele>42.4</ele>
        <time>2023-11-05T12:32:30Z</time>
      </trkpt>
      <trkpt lat="43.49335" lon="6.62522">
        <ele>42.5</ele>
        <time>2023-11-05T12:32:31Z</time>
      </trkpt>
      <trkpt lat="43.49335" lon="6.62521">
        <ele>42.7</ele>
        <time>2023-11-05T12:32:32Z</time>
      </trkpt>
      <trkpt lat="43.49335" lon="6.62519">
        <ele>42.9</ele>
        <time>2023-11-05T12:32:33Z</time>
      </trkpt>
      <trkpt lat="43.49335" lon="6.62518">
        <ele>43.2</ele>
        <time>2023-11-05T12:32:34Z</time>
      </trkpt>
      <trkpt lat="43.49334" lon="6.62517">
        <ele>43.6</ele>
        <time>2023-11-05T12:32:35Z</time>
      </trkpt>
      <trkpt lat="43.49334" lon="6.62515">
        <ele>43.8</ele>
        <time>2023-11-05T12:32:36Z</time>
      </trkpt>
      <trkpt lat="43.49334" lon="6.62514">
        <ele>44</ele>
        <time>2023-11-05T12:32:37Z</time>
      </trkpt>
      <trkpt lat="43.49334" lon="6.62513">
        <ele>44</ele>
        <time>2023-11-05T12:32:38Z</time>
      </trkpt>
      <trkpt lat="43.49335" lon="6.62512">
        <ele>44.1</ele>
        <time>2023-11-05T12:32:39Z</time>
      </trkpt>
      <trkpt lat="43.49335" lon="6.6251">
        <ele>44.2</ele>
        <time>2023-11-05T12:32:40Z</time>
      </trkpt>
      <trkpt lat="43.49335" lon="6.62509">
        <ele>44.2</ele>
        <time>2023-11-05T12:32:41Z</time>
      </trkpt>
      <trkpt lat="43.49335" lon="6.62507">
        <ele>44.2</ele>
        <time>2023-11-05T12:32:42Z</time>
      </trkpt>
      <trkpt lat="43.49334" lon="6.62505">
        <ele>44.1</ele>
        <time>2023-11-05T12:32:43Z</time>
      </trkpt>
      <trkpt lat="43.49334" lon="6.62503">
        <ele>44.6</ele>
        <time>2023-11-05T12:32:44Z</time>
      </trkpt>
      <trkpt lat="43.49335" lon="6.62502">
        <ele>44.6</ele>
        <time>2023-11-05T12:32:45Z</time>
      </trkpt>
      <trkpt lat="43.49335" lon="6.625">
        <ele>44.6</ele>
        <time>2023-11-05T12:32:46Z</time>
      </trkpt>
      <trkpt lat="43.49335" lon="6.62498">
        <ele>44.6</ele>
        <time>2023-11-05T12:32:47Z</time>
      </trkpt>
      <trkpt lat="43.49335" lon="6.62496">
        <ele>44.6</ele>
        <time>2023-11-05T12:32:48Z</time>
      </trkpt>
      <trkpt lat="43.49335" lon="6.62495">
        <ele>44.4</ele>
        <time>2023-11-05T12:32:49Z</time>
      </trkpt>
      <trkpt lat="43.49335" lon="6.62493">
        <ele>44.1</ele>
        <time>2023-11-05T12:32:50Z</time>
      </trkpt>
      <trkpt lat="43.49335" lon="6.62492">
        <ele>43.9</ele>
        <time>2023-11-05T12:32:51Z</time>
      </trkpt>
      <trkpt lat="43.49335" lon="6.62491">
        <ele>43.9</ele>
        <time>2023-11-05T12:32:52Z</time>
      </trkpt>
      <trkpt lat="43.49335" lon="6.62491">
        <ele>43.8</ele>
        <time>2023-11-05T12:32:53Z</time>
      </trkpt>
      <trkpt lat="43.49335" lon="6.6249">
        <ele>43.7</ele>
        <time>2023-11-05T12:32:54Z</time>
      </trkpt>
      <trkpt lat="43.49335" lon="6.6249">
        <ele>43.6</ele>
        <time>2023-11-05T12:32:55Z</time>
      </trkpt>
      <trkpt lat="43.49335" lon="6.6249">
        <ele>43.7</ele>
        <time>2023-11-05T12:32:56Z</time>
      </trkpt>
      <trkpt lat="43.49335" lon="6.6249">
        <ele>43.7</ele>
        <time>2023-11-05T12:32:57Z</time>
      </trkpt>
      <trkpt lat="43.49335" lon="6.6249">
        <ele>43.8</ele>
        <time>2023-11-05T12:32:58Z</time>
      </trkpt>
      <trkpt lat="43.49335" lon="6.6249">
        <ele>43.8</ele>
        <time>2023-11-05T12:32:59Z</time>
      </trkpt>
      <trkpt lat="43.49335" lon="6.6249">
        <ele>43.8</ele>
        <time>2023-11-05T12:33:00Z</time>
      </trkpt>
      <trkpt lat="43.49335" lon="6.62489">
        <ele>43.8</ele>
        <time>2023-11-05T12:33:01Z</time>
      </trkpt>
      <trkpt lat="43.49336" lon="6.62488">
        <ele>43.8</ele>
        <time>2023-11-05T12:33:02Z</time>
      </trkpt>
      <trkpt lat="43.49336" lon="6.62487">
        <ele>43.8</ele>
        <time>2023-11-05T12:33:03Z</time>
      </trkpt>
      <trkpt lat="43.49336" lon="6.62485">
        <ele>43.8</ele>
        <time>2023-11-05T12:33:04Z</time>
      </trkpt>
      <trkpt lat="43.49337" lon="6.62484">
        <ele>43.8</ele>
        <time>2023-11-05T12:33:05Z</time>
      </trkpt>
      <trkpt lat="43.49338" lon="6.62483">
        <ele>43.7</ele>
        <time>2023-11-05T12:33:06Z</time>
      </trkpt>
      <trkpt lat="43.49339" lon="6.62481">
        <ele>43.8</ele>
        <time>2023-11-05T12:33:07Z</time>
      </trkpt>
      <trkpt lat="43.49339" lon="6.6248">
        <ele>43.8</ele>
        <time>2023-11-05T12:33:08Z</time>
      </trkpt>
      <trkpt lat="43.4934" lon="6.62479">
        <ele>43.9</ele>
        <time>2023-11-05T12:33:09Z</time>
      </trkpt>
      <trkpt lat="43.49341" lon="6.62478">
        <ele>44.1</ele>
        <time>2023-11-05T12:33:10Z</time>
      </trkpt>
      <trkpt lat="43.49342" lon="6.62478">
        <ele>44.2</ele>
        <time>2023-11-05T12:33:11Z</time>
      </trkpt>
      <trkpt lat="43.49344" lon="6.62477">
        <ele>44.3</ele>
        <time>2023-11-05T12:33:12Z</time>
      </trkpt>
      <trkpt lat="43.49344" lon="6.62476">
        <ele>44.4</ele>
        <time>2023-11-05T12:33:13Z</time>
      </trkpt>
      <trkpt lat="43.49345" lon="6.62476">
        <ele>44.4</ele>
        <time>2023-11-05T12:33:14Z</time>
      </trkpt>
      <trkpt lat="43.49346" lon="6.62475">
        <ele>44.5</ele>
        <time>2023-11-05T12:33:15Z</time>
      </trkpt>
      <trkpt lat="43.49347" lon="6.62474">
        <ele>44.6</ele>
        <time>2023-11-05T12:33:16Z</time>
      </trkpt>
      <trkpt lat="43.49347" lon="6.62474">
        <ele>44.6</ele>
        <time>2023-11-05T12:33:17Z</time>
      </trkpt>
      <trkpt lat="43.49347" lon="6.62474">
        <ele>44.5</ele>
        <time>2023-11-05T12:33:18Z</time>
      </trkpt>
      <trkpt lat="43.49347" lon="6.62474">
        <ele>44.4</ele>
        <time>2023-11-05T12:33:19Z</time>
      </trkpt>
      <trkpt lat="43.49348" lon="6.62473">
        <ele>44.4</ele>
        <time>2023-11-05T12:33:20Z</time>
      </trkpt>
      <trkpt lat="43.49349" lon="6.62473">
        <ele>44.3</ele>
        <time>2023-11-05T12:33:21Z</time>
      </trkpt>
      <trkpt lat="43.4935" lon="6.62472">
        <ele>44.3</ele>
        <time>2023-11-05T12:33:22Z</time>
      </trkpt>
      <trkpt lat="43.49351" lon="6.62472">
        <ele>44.3</ele>
        <time>2023-11-05T12:33:23Z</time>
      </trkpt>
      <trkpt lat="43.49352" lon="6.62471">
        <ele>44.3</ele>
        <time>2023-11-05T12:33:24Z</time>
      </trkpt>
      <trkpt lat="43.49353" lon="6.62471">
        <ele>44.2</ele>
        <time>2023-11-05T12:33:25Z</time>
      </trkpt>
      <trkpt lat="43.49354" lon="6.62471">
        <ele>44.2</ele>
        <time>2023-11-05T12:33:26Z</time>
      </trkpt>
      <trkpt lat="43.49355" lon="6.6247">
        <ele>44.2</ele>
        <time>2023-11-05T12:33:27Z</time>
      </trkpt>
      <trkpt lat="43.49355" lon="6.6247">
        <ele>44.1</ele>
        <time>2023-11-05T12:33:28Z</time>
      </trkpt>
      <trkpt lat="43.49356" lon="6.62469">
        <ele>44.1</ele>
        <time>2023-11-05T12:33:29Z</time>
      </trkpt>
      <trkpt lat="43.49357" lon="6.62468">
        <ele>44</ele>
        <time>2023-11-05T12:33:30Z</time>
      </trkpt>
      <trkpt lat="43.49358" lon="6.62467">
        <ele>44</ele>
        <time>2023-11-05T12:33:31Z</time>
      </trkpt>
      <trkpt lat="43.49358" lon="6.62467">
        <ele>44</ele>
        <time>2023-11-05T12:33:32Z</time>
      </trkpt>
      <trkpt lat="43.49359" lon="6.62467">
        <ele>44</ele>
        <time>2023-11-05T12:33:33Z</time>
      </trkpt>
      <trkpt lat="43.4936" lon="6.62467">
        <ele>44</ele>
        <time>2023-11-05T12:33:34Z</time>
      </trkpt>
      <trkpt lat="43.49361" lon="6.62467">
        <ele>44</ele>
        <time>2023-11-05T12:33:35Z</time>
      </trkpt>
      <trkpt lat="43.49361" lon="6.62467">
        <ele>43.9</ele>
        <time>2023-11-05T12:33:36Z</time>
      </trkpt>
      <trkpt lat="43.49362" lon="6.62467">
        <ele>43.8</ele>
        <time>2023-11-05T12:33:37Z</time>
      </trkpt>
      <trkpt lat="43.49363" lon="6.62467">
        <ele>43.7</ele>
        <time>2023-11-05T12:33:38Z</time>
      </trkpt>
      <trkpt lat="43.49364" lon="6.62465">
        <ele>43.7</ele>
        <time>2023-11-05T12:33:39Z</time>
      </trkpt>
      <trkpt lat="43.49365" lon="6.62464">
        <ele>43.7</ele>
        <time>2023-11-05T12:33:40Z</time>
      </trkpt>
      <trkpt lat="43.49366" lon="6.62463">
        <ele>43.7</ele>
        <time>2023-11-05T12:33:41Z</time>
      </trkpt>
      <trkpt lat="43.49367" lon="6.62462">
        <ele>43.6</ele>
        <time>2023-11-05T12:33:42Z</time>
      </trkpt>
      <trkpt lat="43.49368" lon="6.6246">
        <ele>43.5</ele>
        <time>2023-11-05T12:33:43Z</time>
      </trkpt>
      <trkpt lat="43.49369" lon="6.62459">
        <ele>43.4</ele>
        <time>2023-11-05T12:33:44Z</time>
      </trkpt>
      <trkpt lat="43.4937" lon="6.62457">
        <ele>43.3</ele>
        <time>2023-11-05T12:33:45Z</time>
      </trkpt>
      <trkpt lat="43.49371" lon="6.62456">
        <ele>43.2</ele>
        <time>2023-11-05T12:33:46Z</time>
      </trkpt>
      <trkpt lat="43.49372" lon="6.62454">
        <ele>43.5</ele>
        <time>2023-11-05T12:33:47Z</time>
      </trkpt>
      <trkpt lat="43.49372" lon="6.62453">
        <ele>43.5</ele>
        <time>2023-11-05T12:33:48Z</time>
      </trkpt>
      <trkpt lat="43.49372" lon="6.62451">
        <ele>43.6</ele>
        <time>2023-11-05T12:33:49Z</time>
      </trkpt>
      <trkpt lat="43.49373" lon="6.6245">
        <ele>43.6</ele>
        <time>2023-11-05T12:33:50Z</time>
      </trkpt>
      <trkpt lat="43.49373" lon="6.62448">
        <ele>43.6</ele>
        <time>2023-11-05T12:33:51Z</time>
      </trkpt>
      <trkpt lat="43.49374" lon="6.62447">
        <ele>43.5</ele>
        <time>2023-11-05T12:33:52Z</time>
      </trkpt>
      <trkpt lat="43.49374" lon="6.62445">
        <ele>43.4</ele>
        <time>2023-11-05T12:33:53Z</time>
      </trkpt>
      <trkpt lat="43.49375" lon="6.62444">
        <ele>43.3</ele>
        <time>2023-11-05T12:33:54Z</time>
      </trkpt>
      <trkpt lat="43.49376" lon="6.62442">
        <ele>43.2</ele>
        <time>2023-11-05T12:33:55Z</time>
      </trkpt>
      <trkpt lat="43.49376" lon="6.62441">
        <ele>43.2</ele>
        <time>2023-11-05T12:33:56Z</time>
      </trkpt>
      <trkpt lat="43.49377" lon="6.6244">
        <ele>43.1</ele>
        <time>2023-11-05T12:33:57Z</time>
      </trkpt>
      <trkpt lat="43.49377" lon="6.62439">
        <ele>43</ele>
        <time>2023-11-05T12:33:58Z</time>
      </trkpt>
      <trkpt lat="43.49378" lon="6.62437">
        <ele>43</ele>
        <time>2023-11-05T12:33:59Z</time>
      </trkpt>
      <trkpt lat="43.49378" lon="6.62435">
        <ele>43</ele>
        <time>2023-11-05T12:34:00Z</time>
      </trkpt>
      <trkpt lat="43.49378" lon="6.62434">
        <ele>42.8</ele>
        <time>2023-11-05T12:34:01Z</time>
      </trkpt>
      <trkpt lat="43.49378" lon="6.62432">
        <ele>42.7</ele>
        <time>2023-11-05T12:34:02Z</time>
      </trkpt>
      <trkpt lat="43.49379" lon="6.62431">
        <ele>42.6</ele>
        <time>2023-11-05T12:34:03Z</time>
      </trkpt>
      <trkpt lat="43.49379" lon="6.6243">
        <ele>42.5</ele>
        <time>2023-11-05T12:34:04Z</time>
      </trkpt>
      <trkpt lat="43.49379" lon="6.62429">
        <ele>42.5</ele>
        <time>2023-11-05T12:34:05Z</time>
      </trkpt>
      <trkpt lat="43.49379" lon="6.62429">
        <ele>42.4</ele>
        <time>2023-11-05T12:34:06Z</time>
      </trkpt>
      <trkpt lat="43.49379" lon="6.62428">
        <ele>42.4</ele>
        <time>2023-11-05T12:34:07Z</time>
      </trkpt>
      <trkpt lat="43.49379" lon="6.62428">
        <ele>42.3</ele>
        <time>2023-11-05T12:34:08Z</time>
      </trkpt>
      <trkpt lat="43.49379" lon="6.62428">
        <ele>42.3</ele>
        <time>2023-11-05T12:34:09Z</time>
      </trkpt>
      <trkpt lat="43.49379" lon="6.62428">
        <ele>42.2</ele>
        <time>2023-11-05T12:34:10Z</time>
      </trkpt>
      <trkpt lat="43.49379" lon="6.62427">
        <ele>42.2</ele>
        <time>2023-11-05T12:34:11Z</time>
      </trkpt>
      <trkpt lat="43.49379" lon="6.62427">
        <ele>42.1</ele>
        <time>2023-11-05T12:34:12Z</time>
      </trkpt>
      <trkpt lat="43.49379" lon="6.62427">
        <ele>42.1</ele>
        <time>2023-11-05T12:34:13Z</time>
      </trkpt>
      <trkpt lat="43.49379" lon="6.62426">
        <ele>42</ele>
        <time>2023-11-05T12:34:14Z</time>
      </trkpt>
      <trkpt lat="43.49379" lon="6.62426">
        <ele>41.9</ele>
        <time>2023-11-05T12:34:15Z</time>
      </trkpt>
      <trkpt lat="43.49379" lon="6.62426">
        <ele>41.9</ele>
        <time>2023-11-05T12:34:16Z</time>
      </trkpt>
      <trkpt lat="43.49379" lon="6.62426">
        <ele>41.9</ele>
        <time>2023-11-05T12:34:17Z</time>
      </trkpt>
      <trkpt lat="43.49379" lon="6.62426">
        <ele>41.8</ele>
        <time>2023-11-05T12:34:18Z</time>
      </trkpt>
      <trkpt lat="43.49379" lon="6.62425">
        <ele>41.7</ele>
        <time>2023-11-05T12:34:19Z</time>
      </trkpt>
      <trkpt lat="43.49379" lon="6.62425">
        <ele>41.7</ele>
        <time>2023-11-05T12:34:20Z</time>
      </trkpt>
      <trkpt lat="43.49379" lon="6.62425">
        <ele>41.7</ele>
        <time>2023-11-05T12:34:21Z</time>
      </trkpt>
      <trkpt lat="43.49379" lon="6.62425">
        <ele>41.7</ele>
        <time>2023-11-05T12:34:22Z</time>
      </trkpt>
      <trkpt lat="43.49379" lon="6.62424">
        <ele>41.7</ele>
        <time>2023-11-05T12:34:23Z</time>
      </trkpt>
      <trkpt lat="43.49379" lon="6.62424">
        <ele>41.8</ele>
        <time>2023-11-05T12:34:24Z</time>
      </trkpt>
      <trkpt lat="43.49379" lon="6.62424">
        <ele>41.8</ele>
        <time>2023-11-05T12:34:25Z</time>
      </trkpt>
      <trkpt lat="43.49379" lon="6.62423">
        <ele>41.8</ele>
        <time>2023-11-05T12:34:26Z</time>
      </trkpt>
      <trkpt lat="43.49379" lon="6.62423">
        <ele>41.8</ele>
        <time>2023-11-05T12:34:27Z</time>
      </trkpt>
      <trkpt lat="43.49379" lon="6.62422">
        <ele>41.7</ele>
        <time>2023-11-05T12:34:28Z</time>
      </trkpt>
      <trkpt lat="43.49379" lon="6.62422">
        <ele>41.7</ele>
        <time>2023-11-05T12:34:29Z</time>
      </trkpt>
      <trkpt lat="43.49379" lon="6.62422">
        <ele>41.7</ele>
        <time>2023-11-05T12:34:30Z</time>
      </trkpt>
      <trkpt lat="43.49379" lon="6.62421">
        <ele>41.6</ele>
        <time>2023-11-05T12:34:31Z</time>
      </trkpt>
      <trkpt lat="43.49379" lon="6.62421">
        <ele>41.6</ele>
        <time>2023-11-05T12:34:32Z</time>
      </trkpt>
      <trkpt lat="43.49379" lon="6.62421">
        <ele>41.6</ele>
        <time>2023-11-05T12:34:33Z</time>
      </trkpt>
      <trkpt lat="43.49379" lon="6.62421">
        <ele>41.5</ele>
        <time>2023-11-05T12:34:34Z</time>
      </trkpt>
      <trkpt lat="43.49379" lon="6.6242">
        <ele>41.5</ele>
        <time>2023-11-05T12:34:35Z</time>
      </trkpt>
      <trkpt lat="43.49379" lon="6.6242">
        <ele>41.4</ele>
        <time>2023-11-05T12:34:36Z</time>
      </trkpt>
      <trkpt lat="43.49379" lon="6.6242">
        <ele>41.5</ele>
        <time>2023-11-05T12:34:37Z</time>
      </trkpt>
      <trkpt lat="43.49379" lon="6.6242">
        <ele>41.5</ele>
        <time>2023-11-05T12:34:38Z</time>
      </trkpt>
      <trkpt lat="43.49379" lon="6.6242">
        <ele>41.6</ele>
        <time>2023-11-05T12:34:39Z</time>
      </trkpt>
      <trkpt lat="43.49379" lon="6.6242">
        <ele>41.7</ele>
        <time>2023-11-05T12:34:40Z</time>
      </trkpt>
      <trkpt lat="43.49379" lon="6.6242">
        <ele>41.8</ele>
        <time>2023-11-05T12:34:41Z</time>
      </trkpt>
      <trkpt lat="43.49379" lon="6.62419">
        <ele>41.9</ele>
        <time>2023-11-05T12:34:42Z</time>
      </trkpt>
      <trkpt lat="43.49379" lon="6.62419">
        <ele>42</ele>
        <time>2023-11-05T12:34:43Z</time>
      </trkpt>
      <trkpt lat="43.49379" lon="6.62419">
        <ele>42</ele>
        <time>2023-11-05T12:34:44Z</time>
      </trkpt>
      <trkpt lat="43.49379" lon="6.62418">
        <ele>42.1</ele>
        <time>2023-11-05T12:34:45Z</time>
      </trkpt>
      <trkpt lat="43.49378" lon="6.62417">
        <ele>42.1</ele>
        <time>2023-11-05T12:34:46Z</time>
      </trkpt>
      <trkpt lat="43.49378" lon="6.62417">
        <ele>42.1</ele>
        <time>2023-11-05T12:34:47Z</time>
      </trkpt>
      <trkpt lat="43.49378" lon="6.62417">
        <ele>42</ele>
        <time>2023-11-05T12:34:48Z</time>
      </trkpt>
      <trkpt lat="43.49377" lon="6.62417">
        <ele>41.9</ele>
        <time>2023-11-05T12:34:49Z</time>
      </trkpt>
      <trkpt lat="43.49377" lon="6.62416">
        <ele>41.7</ele>
        <time>2023-11-05T12:34:50Z</time>
      </trkpt>
      <trkpt lat="43.49376" lon="6.62415">
        <ele>41.7</ele>
        <time>2023-11-05T12:34:51Z</time>
      </trkpt>
      <trkpt lat="43.49375" lon="6.62414">
        <ele>41.6</ele>
        <time>2023-11-05T12:34:52Z</time>
      </trkpt>
      <trkpt lat="43.49374" lon="6.62414">
        <ele>41.5</ele>
        <time>2023-11-05T12:34:53Z</time>
      </trkpt>
      <trkpt lat="43.49374" lon="6.62413">
        <ele>41.4</ele>
        <time>2023-11-05T12:34:54Z</time>
      </trkpt>
      <trkpt lat="43.49374" lon="6.62413">
        <ele>41.3</ele>
        <time>2023-11-05T12:34:55Z</time>
      </trkpt>
      <trkpt lat="43.49373" lon="6.62412">
        <ele>41.2</ele>
        <time>2023-11-05T12:34:56Z</time>
      </trkpt>
      <trkpt lat="43.49372" lon="6.62409">
        <ele>40.9</ele>
        <time>2023-11-05T12:34:57Z</time>
      </trkpt>
      <trkpt lat="43.49372" lon="6.62409">
        <ele>40.6</ele>
        <time>2023-11-05T12:34:58Z</time>
      </trkpt>
      <trkpt lat="43.49371" lon="6.62408">
        <ele>40.4</ele>
        <time>2023-11-05T12:34:59Z</time>
      </trkpt>
      <trkpt lat="43.4937" lon="6.62408">
        <ele>40.2</ele>
        <time>2023-11-05T12:35:00Z</time>
      </trkpt>
      <trkpt lat="43.4937" lon="6.62407">
        <ele>40.2</ele>
        <time>2023-11-05T12:35:01Z</time>
      </trkpt>
      <trkpt lat="43.49369" lon="6.62406">
        <ele>40.1</ele>
        <time>2023-11-05T12:35:02Z</time>
      </trkpt>
      <trkpt lat="43.49368" lon="6.62406">
        <ele>40.1</ele>
        <time>2023-11-05T12:35:03Z</time>
      </trkpt>
      <trkpt lat="43.49367" lon="6.62405">
        <ele>40.2</ele>
        <time>2023-11-05T12:35:04Z</time>
      </trkpt>
      <trkpt lat="43.49367" lon="6.62405">
        <ele>40.3</ele>
        <time>2023-11-05T12:35:05Z</time>
      </trkpt>
      <trkpt lat="43.49365" lon="6.62405">
        <ele>40.4</ele>
        <time>2023-11-05T12:35:06Z</time>
      </trkpt>
      <trkpt lat="43.49365" lon="6.62405">
        <ele>40.4</ele>
        <time>2023-11-05T12:35:07Z</time>
      </trkpt>
      <trkpt lat="43.49365" lon="6.62405">
        <ele>40.3</ele>
        <time>2023-11-05T12:35:08Z</time>
      </trkpt>
      <trkpt lat="43.49364" lon="6.62405">
        <ele>40.1</ele>
        <time>2023-11-05T12:35:09Z</time>
      </trkpt>
      <trkpt lat="43.49364" lon="6.62405">
        <ele>40</ele>
        <time>2023-11-05T12:35:10Z</time>
      </trkpt>
      <trkpt lat="43.49363" lon="6.62406">
        <ele>39.8</ele>
        <time>2023-11-05T12:35:11Z</time>
      </trkpt>
      <trkpt lat="43.49363" lon="6.62406">
        <ele>39.7</ele>
        <time>2023-11-05T12:35:12Z</time>
      </trkpt>
      <trkpt lat="43.49363" lon="6.62406">
        <ele>39.6</ele>
        <time>2023-11-05T12:35:13Z</time>
      </trkpt>
      <trkpt lat="43.49362" lon="6.62405">
        <ele>39.9</ele>
        <time>2023-11-05T12:35:14Z</time>
      </trkpt>
      <trkpt lat="43.49362" lon="6.62405">
        <ele>40.1</ele>
        <time>2023-11-05T12:35:15Z</time>
      </trkpt>
      <trkpt lat="43.49361" lon="6.62405">
        <ele>40.2</ele>
        <time>2023-11-05T12:35:16Z</time>
      </trkpt>
      <trkpt lat="43.4936" lon="6.62404">
        <ele>40.2</ele>
        <time>2023-11-05T12:35:17Z</time>
      </trkpt>
      <trkpt lat="43.49359" lon="6.62403">
        <ele>40</ele>
        <time>2023-11-05T12:35:18Z</time>
      </trkpt>
      <trkpt lat="43.49359" lon="6.62402">
        <ele>39.8</ele>
        <time>2023-11-05T12:35:19Z</time>
      </trkpt>
      <trkpt lat="43.49358" lon="6.62401">
        <ele>39.9</ele>
        <time>2023-11-05T12:35:20Z</time>
      </trkpt>
      <trkpt lat="43.49358" lon="6.624">
        <ele>39.8</ele>
        <time>2023-11-05T12:35:21Z</time>
      </trkpt>
      <trkpt lat="43.49358" lon="6.624">
        <ele>39.7</ele>
        <time>2023-11-05T12:35:22Z</time>
      </trkpt>
      <trkpt lat="43.49358" lon="6.62399">
        <ele>39.5</ele>
        <time>2023-11-05T12:35:23Z</time>
      </trkpt>
      <trkpt lat="43.49357" lon="6.62398">
        <ele>39.4</ele>
        <time>2023-11-05T12:35:24Z</time>
      </trkpt>
      <trkpt lat="43.49356" lon="6.62397">
        <ele>39.3</ele>
        <time>2023-11-05T12:35:25Z</time>
      </trkpt>
      <trkpt lat="43.49355" lon="6.62396">
        <ele>39.2</ele>
        <time>2023-11-05T12:35:26Z</time>
      </trkpt>
      <trkpt lat="43.49354" lon="6.62394">
        <ele>39.1</ele>
        <time>2023-11-05T12:35:27Z</time>
      </trkpt>
      <trkpt lat="43.49354" lon="6.62394">
        <ele>39.1</ele>
        <time>2023-11-05T12:35:28Z</time>
      </trkpt>
      <trkpt lat="43.49353" lon="6.62392">
        <ele>39.2</ele>
        <time>2023-11-05T12:35:29Z</time>
      </trkpt>
      <trkpt lat="43.49352" lon="6.62391">
        <ele>39.2</ele>
        <time>2023-11-05T12:35:30Z</time>
      </trkpt>
      <trkpt lat="43.49351" lon="6.62391">
        <ele>39.2</ele>
        <time>2023-11-05T12:35:31Z</time>
      </trkpt>
      <trkpt lat="43.4935" lon="6.6239">
        <ele>39.2</ele>
        <time>2023-11-05T12:35:32Z</time>
      </trkpt>
      <trkpt lat="43.49349" lon="6.62389">
        <ele>39.2</ele>
        <time>2023-11-05T12:35:33Z</time>
      </trkpt>
      <trkpt lat="43.49348" lon="6.62388">
        <ele>39</ele>
        <time>2023-11-05T12:35:34Z</time>
      </trkpt>
      <trkpt lat="43.49347" lon="6.62387">
        <ele>38.9</ele>
        <time>2023-11-05T12:35:35Z</time>
      </trkpt>
      <trkpt lat="43.49346" lon="6.62386">
        <ele>38.8</ele>
        <time>2023-11-05T12:35:36Z</time>
      </trkpt>
      <trkpt lat="43.49345" lon="6.62385">
        <ele>38.8</ele>
        <time>2023-11-05T12:35:37Z</time>
      </trkpt>
      <trkpt lat="43.49344" lon="6.62384">
        <ele>38.8</ele>
        <time>2023-11-05T12:35:38Z</time>
      </trkpt>
      <trkpt lat="43.49343" lon="6.62383">
        <ele>38.8</ele>
        <time>2023-11-05T12:35:39Z</time>
      </trkpt>
      <trkpt lat="43.49342" lon="6.62381">
        <ele>38.7</ele>
        <time>2023-11-05T12:35:40Z</time>
      </trkpt>
      <trkpt lat="43.49342" lon="6.6238">
        <ele>38.7</ele>
        <time>2023-11-05T12:35:41Z</time>
      </trkpt>
      <trkpt lat="43.49341" lon="6.62379">
        <ele>38.6</ele>
        <time>2023-11-05T12:35:42Z</time>
      </trkpt>
      <trkpt lat="43.4934" lon="6.62378">
        <ele>38.6</ele>
        <time>2023-11-05T12:35:43Z</time>
      </trkpt>
      <trkpt lat="43.49339" lon="6.62377">
        <ele>38.6</ele>
        <time>2023-11-05T12:35:44Z</time>
      </trkpt>
      <trkpt lat="43.49338" lon="6.62376">
        <ele>38.4</ele>
        <time>2023-11-05T12:35:45Z</time>
      </trkpt>
      <trkpt lat="43.49337" lon="6.62375">
        <ele>38.3</ele>
        <time>2023-11-05T12:35:46Z</time>
      </trkpt>
      <trkpt lat="43.49336" lon="6.62374">
        <ele>38.2</ele>
        <time>2023-11-05T12:35:47Z</time>
      </trkpt>
      <trkpt lat="43.49335" lon="6.62373">
        <ele>38.1</ele>
        <time>2023-11-05T12:35:48Z</time>
      </trkpt>
      <trkpt lat="43.49335" lon="6.62372">
        <ele>38.1</ele>
        <time>2023-11-05T12:35:49Z</time>
      </trkpt>
      <trkpt lat="43.49334" lon="6.62371">
        <ele>38.1</ele>
        <time>2023-11-05T12:35:50Z</time>
      </trkpt>
      <trkpt lat="43.49334" lon="6.6237">
        <ele>38</ele>
        <time>2023-11-05T12:35:51Z</time>
      </trkpt>
      <trkpt lat="43.49333" lon="6.6237">
        <ele>38</ele>
        <time>2023-11-05T12:35:52Z</time>
      </trkpt>
      <trkpt lat="43.49332" lon="6.62369">
        <ele>38</ele>
        <time>2023-11-05T12:35:53Z</time>
      </trkpt>
      <trkpt lat="43.49331" lon="6.62369">
        <ele>38</ele>
        <time>2023-11-05T12:35:54Z</time>
      </trkpt>
      <trkpt lat="43.4933" lon="6.62367">
        <ele>38</ele>
        <time>2023-11-05T12:35:55Z</time>
      </trkpt>
      <trkpt lat="43.49329" lon="6.62366">
        <ele>38</ele>
        <time>2023-11-05T12:35:56Z</time>
      </trkpt>
      <trkpt lat="43.49328" lon="6.62365">
        <ele>38</ele>
        <time>2023-11-05T12:35:57Z</time>
      </trkpt>
      <trkpt lat="43.49327" lon="6.62365">
        <ele>38</ele>
        <time>2023-11-05T12:35:58Z</time>
      </trkpt>
      <trkpt lat="43.49326" lon="6.62364">
        <ele>37.9</ele>
        <time>2023-11-05T12:35:59Z</time>
      </trkpt>
      <trkpt lat="43.49325" lon="6.62363">
        <ele>37.9</ele>
        <time>2023-11-05T12:36:00Z</time>
      </trkpt>
      <trkpt lat="43.49325" lon="6.62363">
        <ele>38</ele>
        <time>2023-11-05T12:36:01Z</time>
      </trkpt>
      <trkpt lat="43.49324" lon="6.62362">
        <ele>38</ele>
        <time>2023-11-05T12:36:02Z</time>
      </trkpt>
      <trkpt lat="43.49322" lon="6.62361">
        <ele>38.1</ele>
        <time>2023-11-05T12:36:03Z</time>
      </trkpt>
      <trkpt lat="43.49321" lon="6.62361">
        <ele>38</ele>
        <time>2023-11-05T12:36:04Z</time>
      </trkpt>
      <trkpt lat="43.4932" lon="6.6236">
        <ele>38</ele>
        <time>2023-11-05T12:36:05Z</time>
      </trkpt>
      <trkpt lat="43.49319" lon="6.62359">
        <ele>38</ele>
        <time>2023-11-05T12:36:06Z</time>
      </trkpt>
      <trkpt lat="43.49318" lon="6.62359">
        <ele>38</ele>
        <time>2023-11-05T12:36:07Z</time>
      </trkpt>
      <trkpt lat="43.49317" lon="6.62358">
        <ele>37.9</ele>
        <time>2023-11-05T12:36:08Z</time>
      </trkpt>
      <trkpt lat="43.49315" lon="6.62358">
        <ele>38</ele>
        <time>2023-11-05T12:36:09Z</time>
      </trkpt>
      <trkpt lat="43.49314" lon="6.62357">
        <ele>38</ele>
        <time>2023-11-05T12:36:10Z</time>
      </trkpt>
      <trkpt lat="43.49313" lon="6.62356">
        <ele>38</ele>
        <time>2023-11-05T12:36:11Z</time>
      </trkpt>
      <trkpt lat="43.49311" lon="6.62356">
        <ele>38.1</ele>
        <time>2023-11-05T12:36:12Z</time>
      </trkpt>
      <trkpt lat="43.49309" lon="6.62356">
        <ele>38.1</ele>
        <time>2023-11-05T12:36:13Z</time>
      </trkpt>
      <trkpt lat="43.49308" lon="6.62355">
        <ele>38.1</ele>
        <time>2023-11-05T12:36:14Z</time>
      </trkpt>
      <trkpt lat="43.49306" lon="6.62354">
        <ele>38.4</ele>
        <time>2023-11-05T12:36:15Z</time>
      </trkpt>
      <trkpt lat="43.49305" lon="6.62354">
        <ele>38.5</ele>
        <time>2023-11-05T12:36:16Z</time>
      </trkpt>
      <trkpt lat="43.49304" lon="6.62354">
        <ele>38.5</ele>
        <time>2023-11-05T12:36:17Z</time>
      </trkpt>
      <trkpt lat="43.49302" lon="6.62353">
        <ele>38.5</ele>
        <time>2023-11-05T12:36:18Z</time>
      </trkpt>
      <trkpt lat="43.49301" lon="6.62353">
        <ele>38.6</ele>
        <time>2023-11-05T12:36:19Z</time>
      </trkpt>
      <trkpt lat="43.493" lon="6.62352">
        <ele>38.6</ele>
        <time>2023-11-05T12:36:20Z</time>
      </trkpt>
      <trkpt lat="43.49299" lon="6.62352">
        <ele>38.7</ele>
        <time>2023-11-05T12:36:21Z</time>
      </trkpt>
      <trkpt lat="43.49298" lon="6.62352">
        <ele>38.6</ele>
        <time>2023-11-05T12:36:22Z</time>
      </trkpt>
      <trkpt lat="43.49296" lon="6.62351">
        <ele>38.7</ele>
        <time>2023-11-05T12:36:23Z</time>
      </trkpt>
      <trkpt lat="43.49295" lon="6.62351">
        <ele>38.7</ele>
        <time>2023-11-05T12:36:24Z</time>
      </trkpt>
      <trkpt lat="43.49294" lon="6.6235">
        <ele>38.8</ele>
        <time>2023-11-05T12:36:25Z</time>
      </trkpt>
      <trkpt lat="43.49293" lon="6.6235">
        <ele>38.8</ele>
        <time>2023-11-05T12:36:26Z</time>
      </trkpt>
      <trkpt lat="43.49292" lon="6.62349">
        <ele>38.7</ele>
        <time>2023-11-05T12:36:27Z</time>
      </trkpt>
      <trkpt lat="43.49291" lon="6.62348">
        <ele>38.7</ele>
        <time>2023-11-05T12:36:28Z</time>
      </trkpt>
      <trkpt lat="43.4929" lon="6.62348">
        <ele>38.7</ele>
        <time>2023-11-05T12:36:29Z</time>
      </trkpt>
      <trkpt lat="43.49289" lon="6.62348">
        <ele>38.7</ele>
        <time>2023-11-05T12:36:30Z</time>
      </trkpt>
      <trkpt lat="43.49288" lon="6.62348">
        <ele>38.7</ele>
        <time>2023-11-05T12:36:31Z</time>
      </trkpt>
      <trkpt lat="43.49287" lon="6.62348">
        <ele>38.7</ele>
        <time>2023-11-05T12:36:32Z</time>
      </trkpt>
      <trkpt lat="43.49286" lon="6.62348">
        <ele>38.7</ele>
        <time>2023-11-05T12:36:33Z</time>
      </trkpt>
      <trkpt lat="43.49285" lon="6.62348">
        <ele>38.7</ele>
        <time>2023-11-05T12:36:34Z</time>
      </trkpt>
      <trkpt lat="43.49285" lon="6.62348">
        <ele>38.7</ele>
        <time>2023-11-05T12:36:35Z</time>
      </trkpt>
      <trkpt lat="43.49283" lon="6.62347">
        <ele>38.7</ele>
        <time>2023-11-05T12:36:36Z</time>
      </trkpt>
      <trkpt lat="43.49282" lon="6.62347">
        <ele>38.6</ele>
        <time>2023-11-05T12:36:37Z</time>
      </trkpt>
      <trkpt lat="43.49281" lon="6.62347">
        <ele>38.6</ele>
        <time>2023-11-05T12:36:38Z</time>
      </trkpt>
      <trkpt lat="43.4928" lon="6.62347">
        <ele>38.5</ele>
        <time>2023-11-05T12:36:39Z</time>
      </trkpt>
      <trkpt lat="43.49279" lon="6.62346">
        <ele>38.5</ele>
        <time>2023-11-05T12:36:40Z</time>
      </trkpt>
      <trkpt lat="43.49278" lon="6.62346">
        <ele>38.5</ele>
        <time>2023-11-05T12:36:41Z</time>
      </trkpt>
      <trkpt lat="43.49276" lon="6.62346">
        <ele>38.5</ele>
        <time>2023-11-05T12:36:42Z</time>
      </trkpt>
      <trkpt lat="43.49275" lon="6.62346">
        <ele>38.4</ele>
        <time>2023-11-05T12:36:43Z</time>
      </trkpt>
      <trkpt lat="43.49275" lon="6.62346">
        <ele>38.4</ele>
        <time>2023-11-05T12:36:44Z</time>
      </trkpt>
      <trkpt lat="43.49273" lon="6.62346">
        <ele>38.4</ele>
        <time>2023-11-05T12:36:45Z</time>
      </trkpt>
      <trkpt lat="43.49272" lon="6.62345">
        <ele>38.4</ele>
        <time>2023-11-05T12:36:46Z</time>
      </trkpt>
      <trkpt lat="43.49271" lon="6.62345">
        <ele>38.3</ele>
        <time>2023-11-05T12:36:47Z</time>
      </trkpt>
      <trkpt lat="43.4927" lon="6.62345">
        <ele>38.4</ele>
        <time>2023-11-05T12:36:48Z</time>
      </trkpt>
      <trkpt lat="43.49269" lon="6.62344">
        <ele>38.3</ele>
        <time>2023-11-05T12:36:49Z</time>
      </trkpt>
      <trkpt lat="43.49267" lon="6.62344">
        <ele>38.3</ele>
        <time>2023-11-05T12:36:50Z</time>
      </trkpt>
      <trkpt lat="43.49266" lon="6.62344">
        <ele>38.4</ele>
        <time>2023-11-05T12:36:51Z</time>
      </trkpt>
      <trkpt lat="43.49265" lon="6.62343">
        <ele>38.4</ele>
        <time>2023-11-05T12:36:52Z</time>
      </trkpt>
      <trkpt lat="43.49264" lon="6.62343">
        <ele>38.4</ele>
        <time>2023-11-05T12:36:53Z</time>
      </trkpt>
      <trkpt lat="43.49263" lon="6.62343">
        <ele>38.3</ele>
        <time>2023-11-05T12:36:54Z</time>
      </trkpt>
      <trkpt lat="43.49262" lon="6.62342">
        <ele>38.2</ele>
        <time>2023-11-05T12:36:55Z</time>
      </trkpt>
      <trkpt lat="43.49261" lon="6.62342">
        <ele>38.2</ele>
        <time>2023-11-05T12:36:56Z</time>
      </trkpt>
      <trkpt lat="43.4926" lon="6.62342">
        <ele>38.2</ele>
        <time>2023-11-05T12:36:57Z</time>
      </trkpt>
      <trkpt lat="43.49259" lon="6.62342">
        <ele>38.2</ele>
        <time>2023-11-05T12:36:58Z</time>
      </trkpt>
      <trkpt lat="43.49257" lon="6.62342">
        <ele>38.1</ele>
        <time>2023-11-05T12:36:59Z</time>
      </trkpt>
      <trkpt lat="43.49256" lon="6.62342">
        <ele>38</ele>
        <time>2023-11-05T12:37:00Z</time>
      </trkpt>
      <trkpt lat="43.49255" lon="6.62342">
        <ele>37.9</ele>
        <time>2023-11-05T12:37:01Z</time>
      </trkpt>
      <trkpt lat="43.49254" lon="6.62341">
        <ele>37.8</ele>
        <time>2023-11-05T12:37:02Z</time>
      </trkpt>
      <trkpt lat="43.49253" lon="6.62341">
        <ele>37.8</ele>
        <time>2023-11-05T12:37:03Z</time>
      </trkpt>
      <trkpt lat="43.49252" lon="6.62341">
        <ele>37.7</ele>
        <time>2023-11-05T12:37:04Z</time>
      </trkpt>
      <trkpt lat="43.4925" lon="6.62341">
        <ele>37.7</ele>
        <time>2023-11-05T12:37:05Z</time>
      </trkpt>
      <trkpt lat="43.49249" lon="6.62341">
        <ele>37.7</ele>
        <time>2023-11-05T12:37:06Z</time>
      </trkpt>
      <trkpt lat="43.49248" lon="6.62341">
        <ele>37.7</ele>
        <time>2023-11-05T12:37:07Z</time>
      </trkpt>
      <trkpt lat="43.49247" lon="6.62341">
        <ele>37.8</ele>
        <time>2023-11-05T12:37:08Z</time>
      </trkpt>
      <trkpt lat="43.49246" lon="6.62342">
        <ele>37.7</ele>
        <time>2023-11-05T12:37:09Z</time>
      </trkpt>
      <trkpt lat="43.49245" lon="6.62342">
        <ele>37.7</ele>
        <time>2023-11-05T12:37:10Z</time>
      </trkpt>
      <trkpt lat="43.49244" lon="6.62342">
        <ele>37.7</ele>
        <time>2023-11-05T12:37:11Z</time>
      </trkpt>
      <trkpt lat="43.49243" lon="6.62342">
        <ele>37.6</ele>
        <time>2023-11-05T12:37:12Z</time>
      </trkpt>
      <trkpt lat="43.49243" lon="6.62342">
        <ele>37.6</ele>
        <time>2023-11-05T12:37:13Z</time>
      </trkpt>
      <trkpt lat="43.49241" lon="6.62342">
        <ele>37.5</ele>
        <time>2023-11-05T12:37:14Z</time>
      </trkpt>
      <trkpt lat="43.4924" lon="6.62342">
        <ele>37.5</ele>
        <time>2023-11-05T12:37:15Z</time>
      </trkpt>
      <trkpt lat="43.49239" lon="6.62342">
        <ele>37.4</ele>
        <time>2023-11-05T12:37:16Z</time>
      </trkpt>
      <trkpt lat="43.49238" lon="6.62342">
        <ele>37.4</ele>
        <time>2023-11-05T12:37:17Z</time>
      </trkpt>
      <trkpt lat="43.49237" lon="6.62342">
        <ele>37.3</ele>
        <time>2023-11-05T12:37:18Z</time>
      </trkpt>
      <trkpt lat="43.49236" lon="6.62342">
        <ele>37.3</ele>
        <time>2023-11-05T12:37:19Z</time>
      </trkpt>
      <trkpt lat="43.49235" lon="6.62342">
        <ele>37.3</ele>
        <time>2023-11-05T12:37:20Z</time>
      </trkpt>
      <trkpt lat="43.49233" lon="6.62342">
        <ele>37.3</ele>
        <time>2023-11-05T12:37:21Z</time>
      </trkpt>
      <trkpt lat="43.49232" lon="6.62342">
        <ele>37.3</ele>
        <time>2023-11-05T12:37:22Z</time>
      </trkpt>
      <trkpt lat="43.49231" lon="6.62342">
        <ele>37.2</ele>
        <time>2023-11-05T12:37:23Z</time>
      </trkpt>
      <trkpt lat="43.4923" lon="6.62342">
        <ele>37.3</ele>
        <time>2023-11-05T12:37:24Z</time>
      </trkpt>
      <trkpt lat="43.49229" lon="6.62343">
        <ele>37.3</ele>
        <time>2023-11-05T12:37:25Z</time>
      </trkpt>
      <trkpt lat="43.49228" lon="6.62343">
        <ele>37.4</ele>
        <time>2023-11-05T12:37:26Z</time>
      </trkpt>
      <trkpt lat="43.49227" lon="6.62344">
        <ele>37.4</ele>
        <time>2023-11-05T12:37:27Z</time>
      </trkpt>
      <trkpt lat="43.49226" lon="6.62345">
        <ele>37.5</ele>
        <time>2023-11-05T12:37:28Z</time>
      </trkpt>
      <trkpt lat="43.49226" lon="6.62346">
        <ele>37.5</ele>
        <time>2023-11-05T12:37:29Z</time>
      </trkpt>
      <trkpt lat="43.49225" lon="6.62345">
        <ele>37.5</ele>
        <time>2023-11-05T12:37:30Z</time>
      </trkpt>
      <trkpt lat="43.49224" lon="6.62345">
        <ele>37.5</ele>
        <time>2023-11-05T12:37:31Z</time>
      </trkpt>
      <trkpt lat="43.49223" lon="6.62345">
        <ele>37.5</ele>
        <time>2023-11-05T12:37:32Z</time>
      </trkpt>
      <trkpt lat="43.49221" lon="6.62345">
        <ele>37.5</ele>
        <time>2023-11-05T12:37:33Z</time>
      </trkpt>
      <trkpt lat="43.4922" lon="6.62345">
        <ele>37.5</ele>
        <time>2023-11-05T12:37:34Z</time>
      </trkpt>
      <trkpt lat="43.49219" lon="6.62345">
        <ele>37.5</ele>
        <time>2023-11-05T12:37:35Z</time>
      </trkpt>
      <trkpt lat="43.49217" lon="6.62346">
        <ele>37.5</ele>
        <time>2023-11-05T12:37:36Z</time>
      </trkpt>
      <trkpt lat="43.49216" lon="6.62347">
        <ele>37.5</ele>
        <time>2023-11-05T12:37:37Z</time>
      </trkpt>
      <trkpt lat="43.49215" lon="6.62347">
        <ele>37.5</ele>
        <time>2023-11-05T12:37:38Z</time>
      </trkpt>
      <trkpt lat="43.49214" lon="6.62348">
        <ele>37.5</ele>
        <time>2023-11-05T12:37:39Z</time>
      </trkpt>
      <trkpt lat="43.49213" lon="6.62349">
        <ele>37.4</ele>
        <time>2023-11-05T12:37:40Z</time>
      </trkpt>
      <trkpt lat="43.49212" lon="6.62351">
        <ele>37.5</ele>
        <time>2023-11-05T12:37:41Z</time>
      </trkpt>
      <trkpt lat="43.49212" lon="6.62353">
        <ele>37.5</ele>
        <time>2023-11-05T12:37:42Z</time>
      </trkpt>
      <trkpt lat="43.49211" lon="6.62353">
        <ele>37.6</ele>
        <time>2023-11-05T12:37:43Z</time>
      </trkpt>
      <trkpt lat="43.49211" lon="6.62355">
        <ele>37.6</ele>
        <time>2023-11-05T12:37:44Z</time>
      </trkpt>
      <trkpt lat="43.4921" lon="6.62356">
        <ele>37.6</ele>
        <time>2023-11-05T12:37:45Z</time>
      </trkpt>
      <trkpt lat="43.49209" lon="6.62358">
        <ele>37.6</ele>
        <time>2023-11-05T12:37:46Z</time>
      </trkpt>
      <trkpt lat="43.49209" lon="6.62359">
        <ele>37.6</ele>
        <time>2023-11-05T12:37:47Z</time>
      </trkpt>
      <trkpt lat="43.49208" lon="6.62361">
        <ele>37.7</ele>
        <time>2023-11-05T12:37:48Z</time>
      </trkpt>
      <trkpt lat="43.49207" lon="6.62362">
        <ele>37.7</ele>
        <time>2023-11-05T12:37:49Z</time>
      </trkpt>
      <trkpt lat="43.49207" lon="6.62363">
        <ele>37.8</ele>
        <time>2023-11-05T12:37:50Z</time>
      </trkpt>
      <trkpt lat="43.49206" lon="6.62365">
        <ele>37.9</ele>
        <time>2023-11-05T12:37:51Z</time>
      </trkpt>
      <trkpt lat="43.49206" lon="6.62366">
        <ele>37.9</ele>
        <time>2023-11-05T12:37:52Z</time>
      </trkpt>
      <trkpt lat="43.49205" lon="6.62367">
        <ele>37.9</ele>
        <time>2023-11-05T12:37:53Z</time>
      </trkpt>
      <trkpt lat="43.49205" lon="6.62368">
        <ele>37.9</ele>
        <time>2023-11-05T12:37:54Z</time>
      </trkpt>
      <trkpt lat="43.49204" lon="6.62369">
        <ele>37.9</ele>
        <time>2023-11-05T12:37:55Z</time>
      </trkpt>
      <trkpt lat="43.49204" lon="6.62371">
        <ele>37.9</ele>
        <time>2023-11-05T12:37:56Z</time>
      </trkpt>
      <trkpt lat="43.49204" lon="6.62373">
        <ele>37.9</ele>
        <time>2023-11-05T12:37:57Z</time>
      </trkpt>
      <trkpt lat="43.49203" lon="6.62374">
        <ele>37.8</ele>
        <time>2023-11-05T12:37:58Z</time>
      </trkpt>
      <trkpt lat="43.49203" lon="6.62376">
        <ele>37.8</ele>
        <time>2023-11-05T12:37:59Z</time>
      </trkpt>
      <trkpt lat="43.49203" lon="6.62378">
        <ele>37.7</ele>
        <time>2023-11-05T12:38:00Z</time>
      </trkpt>
      <trkpt lat="43.49202" lon="6.62379">
        <ele>37.6</ele>
        <time>2023-11-05T12:38:01Z</time>
      </trkpt>
      <trkpt lat="43.49202" lon="6.62381">
        <ele>37.6</ele>
        <time>2023-11-05T12:38:02Z</time>
      </trkpt>
      <trkpt lat="43.49202" lon="6.62382">
        <ele>37.5</ele>
        <time>2023-11-05T12:38:03Z</time>
      </trkpt>
      <trkpt lat="43.49202" lon="6.62383">
        <ele>37.5</ele>
        <time>2023-11-05T12:38:04Z</time>
      </trkpt>
      <trkpt lat="43.49202" lon="6.62385">
        <ele>37.5</ele>
        <time>2023-11-05T12:38:05Z</time>
      </trkpt>
      <trkpt lat="43.49202" lon="6.62387">
        <ele>37.4</ele>
        <time>2023-11-05T12:38:06Z</time>
      </trkpt>
      <trkpt lat="43.49201" lon="6.62388">
        <ele>37.4</ele>
        <time>2023-11-05T12:38:07Z</time>
      </trkpt>
      <trkpt lat="43.492" lon="6.62389">
        <ele>37.4</ele>
        <time>2023-11-05T12:38:08Z</time>
      </trkpt>
      <trkpt lat="43.492" lon="6.6239">
        <ele>37.5</ele>
        <time>2023-11-05T12:38:09Z</time>
      </trkpt>
      <trkpt lat="43.49199" lon="6.62391">
        <ele>37.6</ele>
        <time>2023-11-05T12:38:10Z</time>
      </trkpt>
      <trkpt lat="43.49199" lon="6.62393">
        <ele>37.7</ele>
        <time>2023-11-05T12:38:11Z</time>
      </trkpt>
      <trkpt lat="43.49199" lon="6.62395">
        <ele>37.7</ele>
        <time>2023-11-05T12:38:12Z</time>
      </trkpt>
      <trkpt lat="43.49198" lon="6.62396">
        <ele>37.8</ele>
        <time>2023-11-05T12:38:13Z</time>
      </trkpt>
      <trkpt lat="43.49198" lon="6.62398">
        <ele>37.8</ele>
        <time>2023-11-05T12:38:14Z</time>
      </trkpt>
      <trkpt lat="43.49198" lon="6.624">
        <ele>37.8</ele>
        <time>2023-11-05T12:38:15Z</time>
      </trkpt>
      <trkpt lat="43.49197" lon="6.62401">
        <ele>37.8</ele>
        <time>2023-11-05T12:38:16Z</time>
      </trkpt>
      <trkpt lat="43.49197" lon="6.62402">
        <ele>37.9</ele>
        <time>2023-11-05T12:38:17Z</time>
      </trkpt>
      <trkpt lat="43.49196" lon="6.62404">
        <ele>38</ele>
        <time>2023-11-05T12:38:18Z</time>
      </trkpt>
      <trkpt lat="43.49196" lon="6.62405">
        <ele>38</ele>
        <time>2023-11-05T12:38:19Z</time>
      </trkpt>
      <trkpt lat="43.49195" lon="6.62406">
        <ele>38.1</ele>
        <time>2023-11-05T12:38:20Z</time>
      </trkpt>
      <trkpt lat="43.49195" lon="6.62407">
        <ele>38.1</ele>
        <time>2023-11-05T12:38:21Z</time>
      </trkpt>
      <trkpt lat="43.49194" lon="6.62408">
        <ele>38.1</ele>
        <time>2023-11-05T12:38:22Z</time>
      </trkpt>
      <trkpt lat="43.49194" lon="6.62408">
        <ele>38.1</ele>
        <time>2023-11-05T12:38:23Z</time>
      </trkpt>
      <trkpt lat="43.49193" lon="6.62409">
        <ele>38.2</ele>
        <time>2023-11-05T12:38:24Z</time>
      </trkpt>
      <trkpt lat="43.49193" lon="6.62409">
        <ele>38.2</ele>
        <time>2023-11-05T12:38:25Z</time>
      </trkpt>
      <trkpt lat="43.49193" lon="6.62409">
        <ele>38.2</ele>
        <time>2023-11-05T12:38:26Z</time>
      </trkpt>
      <trkpt lat="43.49193" lon="6.62409">
        <ele>38.2</ele>
        <time>2023-11-05T12:38:27Z</time>
      </trkpt>
      <trkpt lat="43.49193" lon="6.62409">
        <ele>38.2</ele>
        <time>2023-11-05T12:38:28Z</time>
      </trkpt>
      <trkpt lat="43.49193" lon="6.62409">
        <ele>38.3</ele>
        <time>2023-11-05T12:38:29Z</time>
      </trkpt>
      <trkpt lat="43.49192" lon="6.62409">
        <ele>38.3</ele>
        <time>2023-11-05T12:38:30Z</time>
      </trkpt>
      <trkpt lat="43.49192" lon="6.6241">
        <ele>38.4</ele>
        <time>2023-11-05T12:38:31Z</time>
      </trkpt>
      <trkpt lat="43.49192" lon="6.6241">
        <ele>38.4</ele>
        <time>2023-11-05T12:38:32Z</time>
      </trkpt>
      <trkpt lat="43.49192" lon="6.62411">
        <ele>38.4</ele>
        <time>2023-11-05T12:38:33Z</time>
      </trkpt>
      <trkpt lat="43.49191" lon="6.62411">
        <ele>38.4</ele>
        <time>2023-11-05T12:38:34Z</time>
      </trkpt>
      <trkpt lat="43.4919" lon="6.62412">
        <ele>38.4</ele>
        <time>2023-11-05T12:38:35Z</time>
      </trkpt>
      <trkpt lat="43.49189" lon="6.62412">
        <ele>38.3</ele>
        <time>2023-11-05T12:38:36Z</time>
      </trkpt>
      <trkpt lat="43.49187" lon="6.62412">
        <ele>38.3</ele>
        <time>2023-11-05T12:38:37Z</time>
      </trkpt>
      <trkpt lat="43.49186" lon="6.62412">
        <ele>38.3</ele>
        <time>2023-11-05T12:38:38Z</time>
      </trkpt>
      <trkpt lat="43.49185" lon="6.62412">
        <ele>38.3</ele>
        <time>2023-11-05T12:38:39Z</time>
      </trkpt>
      <trkpt lat="43.49184" lon="6.62412">
        <ele>38.2</ele>
        <time>2023-11-05T12:38:40Z</time>
      </trkpt>
      <trkpt lat="43.49183" lon="6.62412">
        <ele>38.2</ele>
        <time>2023-11-05T12:38:41Z</time>
      </trkpt>
      <trkpt lat="43.49183" lon="6.62412">
        <ele>38.2</ele>
        <time>2023-11-05T12:38:42Z</time>
      </trkpt>
      <trkpt lat="43.49182" lon="6.62412">
        <ele>38.1</ele>
        <time>2023-11-05T12:38:43Z</time>
      </trkpt>
      <trkpt lat="43.49181" lon="6.62412">
        <ele>38.1</ele>
        <time>2023-11-05T12:38:44Z</time>
      </trkpt>
      <trkpt lat="43.4918" lon="6.62412">
        <ele>38.1</ele>
        <time>2023-11-05T12:38:45Z</time>
      </trkpt>
      <trkpt lat="43.49179" lon="6.62412">
        <ele>38</ele>
        <time>2023-11-05T12:38:46Z</time>
      </trkpt>
      <trkpt lat="43.49178" lon="6.62412">
        <ele>37.9</ele>
        <time>2023-11-05T12:38:47Z</time>
      </trkpt>
      <trkpt lat="43.49177" lon="6.62411">
        <ele>37.9</ele>
        <time>2023-11-05T12:38:48Z</time>
      </trkpt>
      <trkpt lat="43.49177" lon="6.62411">
        <ele>37.9</ele>
        <time>2023-11-05T12:38:49Z</time>
      </trkpt>
      <trkpt lat="43.49176" lon="6.62411">
        <ele>37.9</ele>
        <time>2023-11-05T12:38:50Z</time>
      </trkpt>
      <trkpt lat="43.49175" lon="6.62411">
        <ele>37.9</ele>
        <time>2023-11-05T12:38:51Z</time>
      </trkpt>
      <trkpt lat="43.49175" lon="6.6241">
        <ele>37.9</ele>
        <time>2023-11-05T12:38:52Z</time>
      </trkpt>
      <trkpt lat="43.49174" lon="6.62409">
        <ele>37.9</ele>
        <time>2023-11-05T12:38:53Z</time>
      </trkpt>
      <trkpt lat="43.49173" lon="6.62408">
        <ele>37.9</ele>
        <time>2023-11-05T12:38:54Z</time>
      </trkpt>
      <trkpt lat="43.49173" lon="6.62408">
        <ele>37.9</ele>
        <time>2023-11-05T12:38:55Z</time>
      </trkpt>
      <trkpt lat="43.49173" lon="6.62407">
        <ele>37.8</ele>
        <time>2023-11-05T12:38:56Z</time>
      </trkpt>
      <trkpt lat="43.49173" lon="6.62406">
        <ele>37.8</ele>
        <time>2023-11-05T12:38:57Z</time>
      </trkpt>
      <trkpt lat="43.49173" lon="6.62406">
        <ele>37.8</ele>
        <time>2023-11-05T12:38:58Z</time>
      </trkpt>
      <trkpt lat="43.49173" lon="6.62405">
        <ele>37.7</ele>
        <time>2023-11-05T12:38:59Z</time>
      </trkpt>
      <trkpt lat="43.49173" lon="6.62405">
        <ele>37.7</ele>
        <time>2023-11-05T12:39:00Z</time>
      </trkpt>
      <trkpt lat="43.49172" lon="6.62406">
        <ele>37.6</ele>
        <time>2023-11-05T12:39:01Z</time>
      </trkpt>
      <trkpt lat="43.49172" lon="6.62406">
        <ele>37.6</ele>
        <time>2023-11-05T12:39:02Z</time>
      </trkpt>
      <trkpt lat="43.49172" lon="6.62406">
        <ele>37.7</ele>
        <time>2023-11-05T12:39:03Z</time>
      </trkpt>
      <trkpt lat="43.49172" lon="6.62406">
        <ele>37.7</ele>
        <time>2023-11-05T12:39:04Z</time>
      </trkpt>
      <trkpt lat="43.49172" lon="6.62406">
        <ele>37.8</ele>
        <time>2023-11-05T12:39:05Z</time>
      </trkpt>
      <trkpt lat="43.49172" lon="6.62406">
        <ele>37.9</ele>
        <time>2023-11-05T12:39:06Z</time>
      </trkpt>
      <trkpt lat="43.49172" lon="6.62406">
        <ele>37.8</ele>
        <time>2023-11-05T12:39:07Z</time>
      </trkpt>
      <trkpt lat="43.49172" lon="6.62406">
        <ele>37.8</ele>
        <time>2023-11-05T12:39:08Z</time>
      </trkpt>
      <trkpt lat="43.49172" lon="6.62407">
        <ele>37.8</ele>
        <time>2023-11-05T12:39:09Z</time>
      </trkpt>
      <trkpt lat="43.49172" lon="6.62407">
        <ele>37.8</ele>
        <time>2023-11-05T12:39:10Z</time>
      </trkpt>
      <trkpt lat="43.49172" lon="6.62406">
        <ele>37.9</ele>
        <time>2023-11-05T12:39:11Z</time>
      </trkpt>
      <trkpt lat="43.49173" lon="6.62406">
        <ele>37.9</ele>
        <time>2023-11-05T12:39:12Z</time>
      </trkpt>
      <trkpt lat="43.49173" lon="6.62406">
        <ele>37.8</ele>
        <time>2023-11-05T12:39:13Z</time>
      </trkpt>
      <trkpt lat="43.49173" lon="6.62406">
        <ele>37.8</ele>
        <time>2023-11-05T12:39:14Z</time>
      </trkpt>
      <trkpt lat="43.49173" lon="6.62406">
        <ele>37.8</ele>
        <time>2023-11-05T12:39:15Z</time>
      </trkpt>
      <trkpt lat="43.49173" lon="6.62406">
        <ele>37.8</ele>
        <time>2023-11-05T12:39:16Z</time>
      </trkpt>
      <trkpt lat="43.49173" lon="6.62406">
        <ele>37.8</ele>
        <time>2023-11-05T12:39:17Z</time>
      </trkpt>
      <trkpt lat="43.49173" lon="6.62406">
        <ele>37.8</ele>
        <time>2023-11-05T12:39:18Z</time>
      </trkpt>
      <trkpt lat="43.49173" lon="6.62406">
        <ele>37.8</ele>
        <time>2023-11-05T12:39:19Z</time>
      </trkpt>
      <trkpt lat="43.49173" lon="6.62406">
        <ele>37.8</ele>
        <time>2023-11-05T12:39:20Z</time>
      </trkpt>
      <trkpt lat="43.49172" lon="6.62406">
        <ele>37.8</ele>
        <time>2023-11-05T12:39:21Z</time>
      </trkpt>
      <trkpt lat="43.49172" lon="6.62406">
        <ele>37.8</ele>
        <time>2023-11-05T12:39:22Z</time>
      </trkpt>
      <trkpt lat="43.49172" lon="6.62406">
        <ele>37.8</ele>
        <time>2023-11-05T12:39:23Z</time>
      </trkpt>
      <trkpt lat="43.49171" lon="6.62406">
        <ele>37.8</ele>
        <time>2023-11-05T12:39:24Z</time>
      </trkpt>
      <trkpt lat="43.49171" lon="6.62405">
        <ele>37.8</ele>
        <time>2023-11-05T12:39:25Z</time>
      </trkpt>
      <trkpt lat="43.4917" lon="6.62404">
        <ele>37.7</ele>
        <time>2023-11-05T12:39:26Z</time>
      </trkpt>
      <trkpt lat="43.4917" lon="6.62404">
        <ele>37.6</ele>
        <time>2023-11-05T12:39:27Z</time>
      </trkpt>
      <trkpt lat="43.49169" lon="6.62403">
        <ele>37.6</ele>
        <time>2023-11-05T12:39:28Z</time>
      </trkpt>
      <trkpt lat="43.49169" lon="6.62402">
        <ele>37.6</ele>
        <time>2023-11-05T12:39:29Z</time>
      </trkpt>
      <trkpt lat="43.49169" lon="6.62401">
        <ele>37.6</ele>
        <time>2023-11-05T12:39:30Z</time>
      </trkpt>
      <trkpt lat="43.49169" lon="6.624">
        <ele>37.6</ele>
        <time>2023-11-05T12:39:31Z</time>
      </trkpt>
      <trkpt lat="43.49169" lon="6.62399">
        <ele>37.6</ele>
        <time>2023-11-05T12:39:32Z</time>
      </trkpt>
      <trkpt lat="43.49169" lon="6.62397">
        <ele>37.6</ele>
        <time>2023-11-05T12:39:33Z</time>
      </trkpt>
      <trkpt lat="43.49168" lon="6.62396">
        <ele>37.5</ele>
        <time>2023-11-05T12:39:34Z</time>
      </trkpt>
      <trkpt lat="43.49168" lon="6.62395">
        <ele>37.6</ele>
        <time>2023-11-05T12:39:35Z</time>
      </trkpt>
      <trkpt lat="43.49168" lon="6.62393">
        <ele>37.5</ele>
        <time>2023-11-05T12:39:36Z</time>
      </trkpt>
      <trkpt lat="43.49168" lon="6.62392">
        <ele>37.4</ele>
        <time>2023-11-05T12:39:37Z</time>
      </trkpt>
      <trkpt lat="43.49168" lon="6.6239">
        <ele>37.2</ele>
        <time>2023-11-05T12:39:38Z</time>
      </trkpt>
      <trkpt lat="43.49168" lon="6.62389">
        <ele>37.1</ele>
        <time>2023-11-05T12:39:39Z</time>
      </trkpt>
      <trkpt lat="43.49168" lon="6.62387">
        <ele>37</ele>
        <time>2023-11-05T12:39:40Z</time>
      </trkpt>
      <trkpt lat="43.49167" lon="6.62386">
        <ele>36.9</ele>
        <time>2023-11-05T12:39:41Z</time>
      </trkpt>
      <trkpt lat="43.49167" lon="6.62384">
        <ele>36.9</ele>
        <time>2023-11-05T12:39:42Z</time>
      </trkpt>
      <trkpt lat="43.49168" lon="6.62382">
        <ele>36.9</ele>
        <time>2023-11-05T12:39:43Z</time>
      </trkpt>
      <trkpt lat="43.49167" lon="6.62381">
        <ele>36.9</ele>
        <time>2023-11-05T12:39:44Z</time>
      </trkpt>
      <trkpt lat="43.49167" lon="6.62379">
        <ele>37</ele>
        <time>2023-11-05T12:39:45Z</time>
      </trkpt>
      <trkpt lat="43.49167" lon="6.62378">
        <ele>37</ele>
        <time>2023-11-05T12:39:46Z</time>
      </trkpt>
      <trkpt lat="43.49167" lon="6.62377">
        <ele>37</ele>
        <time>2023-11-05T12:39:47Z</time>
      </trkpt>
      <trkpt lat="43.49167" lon="6.62375">
        <ele>37.1</ele>
        <time>2023-11-05T12:39:48Z</time>
      </trkpt>
      <trkpt lat="43.49167" lon="6.62374">
        <ele>37.1</ele>
        <time>2023-11-05T12:39:49Z</time>
      </trkpt>
      <trkpt lat="43.49167" lon="6.62372">
        <ele>37.1</ele>
        <time>2023-11-05T12:39:50Z</time>
      </trkpt>
      <trkpt lat="43.49167" lon="6.62371">
        <ele>37.2</ele>
        <time>2023-11-05T12:39:51Z</time>
      </trkpt>
      <trkpt lat="43.49167" lon="6.6237">
        <ele>37.2</ele>
        <time>2023-11-05T12:39:52Z</time>
      </trkpt>
      <trkpt lat="43.49167" lon="6.62369">
        <ele>37.1</ele>
        <time>2023-11-05T12:39:53Z</time>
      </trkpt>
      <trkpt lat="43.49168" lon="6.62367">
        <ele>37.1</ele>
        <time>2023-11-05T12:39:54Z</time>
      </trkpt>
      <trkpt lat="43.49168" lon="6.62366">
        <ele>37.3</ele>
        <time>2023-11-05T12:39:55Z</time>
      </trkpt>
      <trkpt lat="43.49167" lon="6.62364">
        <ele>37.3</ele>
        <time>2023-11-05T12:39:56Z</time>
      </trkpt>
      <trkpt lat="43.49168" lon="6.62362">
        <ele>37.4</ele>
        <time>2023-11-05T12:39:57Z</time>
      </trkpt>
      <trkpt lat="43.49168" lon="6.62361">
        <ele>37.5</ele>
        <time>2023-11-05T12:39:58Z</time>
      </trkpt>
      <trkpt lat="43.49168" lon="6.6236">
        <ele>37.6</ele>
        <time>2023-11-05T12:39:59Z</time>
      </trkpt>
      <trkpt lat="43.49169" lon="6.62358">
        <ele>37.7</ele>
        <time>2023-11-05T12:40:00Z</time>
      </trkpt>
      <trkpt lat="43.49169" lon="6.62356">
        <ele>37.8</ele>
        <time>2023-11-05T12:40:01Z</time>
      </trkpt>
      <trkpt lat="43.49168" lon="6.62355">
        <ele>37.8</ele>
        <time>2023-11-05T12:40:02Z</time>
      </trkpt>
      <trkpt lat="43.49168" lon="6.62353">
        <ele>37.9</ele>
        <time>2023-11-05T12:40:03Z</time>
      </trkpt>
      <trkpt lat="43.49168" lon="6.62352">
        <ele>38</ele>
        <time>2023-11-05T12:40:04Z</time>
      </trkpt>
      <trkpt lat="43.49168" lon="6.62351">
        <ele>38.1</ele>
        <time>2023-11-05T12:40:05Z</time>
      </trkpt>
      <trkpt lat="43.49168" lon="6.62349">
        <ele>38.2</ele>
        <time>2023-11-05T12:40:06Z</time>
      </trkpt>
      <trkpt lat="43.49168" lon="6.62348">
        <ele>38.3</ele>
        <time>2023-11-05T12:40:07Z</time>
      </trkpt>
      <trkpt lat="43.49168" lon="6.62346">
        <ele>38.4</ele>
        <time>2023-11-05T12:40:08Z</time>
      </trkpt>
      <trkpt lat="43.49168" lon="6.62345">
        <ele>38.4</ele>
        <time>2023-11-05T12:40:09Z</time>
      </trkpt>
      <trkpt lat="43.49168" lon="6.62343">
        <ele>38.5</ele>
        <time>2023-11-05T12:40:10Z</time>
      </trkpt>
      <trkpt lat="43.49168" lon="6.62342">
        <ele>38.5</ele>
        <time>2023-11-05T12:40:11Z</time>
      </trkpt>
      <trkpt lat="43.49167" lon="6.62341">
        <ele>38.6</ele>
        <time>2023-11-05T12:40:12Z</time>
      </trkpt>
      <trkpt lat="43.49167" lon="6.62339">
        <ele>38.6</ele>
        <time>2023-11-05T12:40:13Z</time>
      </trkpt>
      <trkpt lat="43.49166" lon="6.62338">
        <ele>38.6</ele>
        <time>2023-11-05T12:40:14Z</time>
      </trkpt>
      <trkpt lat="43.49165" lon="6.62337">
        <ele>38.6</ele>
        <time>2023-11-05T12:40:15Z</time>
      </trkpt>
      <trkpt lat="43.49164" lon="6.62336">
        <ele>38.5</ele>
        <time>2023-11-05T12:40:16Z</time>
      </trkpt>
      <trkpt lat="43.49164" lon="6.62335">
        <ele>38.5</ele>
        <time>2023-11-05T12:40:17Z</time>
      </trkpt>
      <trkpt lat="43.49163" lon="6.62334">
        <ele>38.4</ele>
        <time>2023-11-05T12:40:18Z</time>
      </trkpt>
      <trkpt lat="43.49163" lon="6.62332">
        <ele>38.4</ele>
        <time>2023-11-05T12:40:19Z</time>
      </trkpt>
      <trkpt lat="43.49162" lon="6.62331">
        <ele>38.3</ele>
        <time>2023-11-05T12:40:20Z</time>
      </trkpt>
      <trkpt lat="43.49161" lon="6.62329">
        <ele>38.3</ele>
        <time>2023-11-05T12:40:21Z</time>
      </trkpt>
      <trkpt lat="43.4916" lon="6.62328">
        <ele>38.3</ele>
        <time>2023-11-05T12:40:22Z</time>
      </trkpt>
      <trkpt lat="43.49159" lon="6.62328">
        <ele>38.3</ele>
        <time>2023-11-05T12:40:23Z</time>
      </trkpt>
      <trkpt lat="43.49159" lon="6.62328">
        <ele>38.3</ele>
        <time>2023-11-05T12:40:24Z</time>
      </trkpt>
      <trkpt lat="43.49159" lon="6.62328">
        <ele>38.3</ele>
        <time>2023-11-05T12:40:25Z</time>
      </trkpt>
      <trkpt lat="43.49158" lon="6.62328">
        <ele>38.3</ele>
        <time>2023-11-05T12:40:26Z</time>
      </trkpt>
      <trkpt lat="43.49157" lon="6.62328">
        <ele>38.3</ele>
        <time>2023-11-05T12:40:27Z</time>
      </trkpt>
      <trkpt lat="43.49156" lon="6.62328">
        <ele>38.4</ele>
        <time>2023-11-05T12:40:28Z</time>
      </trkpt>
      <trkpt lat="43.49156" lon="6.62327">
        <ele>38.4</ele>
        <time>2023-11-05T12:40:29Z</time>
      </trkpt>
      <trkpt lat="43.49155" lon="6.62327">
        <ele>38.4</ele>
        <time>2023-11-05T12:40:30Z</time>
      </trkpt>
      <trkpt lat="43.49154" lon="6.62327">
        <ele>38.4</ele>
        <time>2023-11-05T12:40:31Z</time>
      </trkpt>
      <trkpt lat="43.49153" lon="6.62327">
        <ele>38.4</ele>
        <time>2023-11-05T12:40:32Z</time>
      </trkpt>
      <trkpt lat="43.49152" lon="6.62328">
        <ele>38.4</ele>
        <time>2023-11-05T12:40:33Z</time>
      </trkpt>
      <trkpt lat="43.49151" lon="6.62328">
        <ele>38.3</ele>
        <time>2023-11-05T12:40:34Z</time>
      </trkpt>
      <trkpt lat="43.4915" lon="6.62328">
        <ele>38.2</ele>
        <time>2023-11-05T12:40:35Z</time>
      </trkpt>
      <trkpt lat="43.49149" lon="6.62328">
        <ele>38.1</ele>
        <time>2023-11-05T12:40:36Z</time>
      </trkpt>
      <trkpt lat="43.49148" lon="6.62328">
        <ele>38</ele>
        <time>2023-11-05T12:40:37Z</time>
      </trkpt>
      <trkpt lat="43.49147" lon="6.62328">
        <ele>37.9</ele>
        <time>2023-11-05T12:40:38Z</time>
      </trkpt>
      <trkpt lat="43.49146" lon="6.62328">
        <ele>37.9</ele>
        <time>2023-11-05T12:40:39Z</time>
      </trkpt>
      <trkpt lat="43.49145" lon="6.62328">
        <ele>37.9</ele>
        <time>2023-11-05T12:40:40Z</time>
      </trkpt>
      <trkpt lat="43.49144" lon="6.62328">
        <ele>37.9</ele>
        <time>2023-11-05T12:40:41Z</time>
      </trkpt>
      <trkpt lat="43.49143" lon="6.62328">
        <ele>38</ele>
        <time>2023-11-05T12:40:42Z</time>
      </trkpt>
      <trkpt lat="43.49141" lon="6.62328">
        <ele>38.1</ele>
        <time>2023-11-05T12:40:43Z</time>
      </trkpt>
      <trkpt lat="43.4914" lon="6.62329">
        <ele>38.1</ele>
        <time>2023-11-05T12:40:44Z</time>
      </trkpt>
      <trkpt lat="43.4914" lon="6.62329">
        <ele>38.1</ele>
        <time>2023-11-05T12:40:45Z</time>
      </trkpt>
      <trkpt lat="43.49138" lon="6.62328">
        <ele>38.1</ele>
        <time>2023-11-05T12:40:46Z</time>
      </trkpt>
      <trkpt lat="43.49137" lon="6.62328">
        <ele>38.1</ele>
        <time>2023-11-05T12:40:47Z</time>
      </trkpt>
      <trkpt lat="43.49136" lon="6.62328">
        <ele>38.1</ele>
        <time>2023-11-05T12:40:48Z</time>
      </trkpt>
      <trkpt lat="43.49134" lon="6.62328">
        <ele>38.2</ele>
        <time>2023-11-05T12:40:49Z</time>
      </trkpt>
      <trkpt lat="43.49133" lon="6.62328">
        <ele>38.2</ele>
        <time>2023-11-05T12:40:50Z</time>
      </trkpt>
      <trkpt lat="43.49133" lon="6.62328">
        <ele>38.2</ele>
        <time>2023-11-05T12:40:51Z</time>
      </trkpt>
      <trkpt lat="43.49131" lon="6.62328">
        <ele>38.1</ele>
        <time>2023-11-05T12:40:52Z</time>
      </trkpt>
      <trkpt lat="43.4913" lon="6.62328">
        <ele>38.1</ele>
        <time>2023-11-05T12:40:53Z</time>
      </trkpt>
      <trkpt lat="43.49129" lon="6.62328">
        <ele>38.1</ele>
        <time>2023-11-05T12:40:54Z</time>
      </trkpt>
      <trkpt lat="43.49128" lon="6.62327">
        <ele>38.1</ele>
        <time>2023-11-05T12:40:55Z</time>
      </trkpt>
      <trkpt lat="43.49127" lon="6.62327">
        <ele>38.1</ele>
        <time>2023-11-05T12:40:56Z</time>
      </trkpt>
      <trkpt lat="43.49126" lon="6.62327">
        <ele>38.3</ele>
        <time>2023-11-05T12:40:57Z</time>
      </trkpt>
      <trkpt lat="43.49125" lon="6.62327">
        <ele>38.4</ele>
        <time>2023-11-05T12:40:58Z</time>
      </trkpt>
      <trkpt lat="43.49124" lon="6.62327">
        <ele>38.5</ele>
        <time>2023-11-05T12:40:59Z</time>
      </trkpt>
      <trkpt lat="43.49123" lon="6.62327">
        <ele>38.6</ele>
        <time>2023-11-05T12:41:00Z</time>
      </trkpt>
      <trkpt lat="43.49122" lon="6.62326">
        <ele>38.6</ele>
        <time>2023-11-05T12:41:01Z</time>
      </trkpt>
      <trkpt lat="43.49121" lon="6.62326">
        <ele>38.6</ele>
        <time>2023-11-05T12:41:02Z</time>
      </trkpt>
      <trkpt lat="43.4912" lon="6.62326">
        <ele>38.6</ele>
        <time>2023-11-05T12:41:03Z</time>
      </trkpt>
      <trkpt lat="43.49118" lon="6.62325">
        <ele>38.6</ele>
        <time>2023-11-05T12:41:04Z</time>
      </trkpt>
      <trkpt lat="43.49117" lon="6.62325">
        <ele>38.6</ele>
        <time>2023-11-05T12:41:05Z</time>
      </trkpt>
      <trkpt lat="43.49116" lon="6.62325">
        <ele>38.6</ele>
        <time>2023-11-05T12:41:06Z</time>
      </trkpt>
      <trkpt lat="43.49115" lon="6.62325">
        <ele>38.7</ele>
        <time>2023-11-05T12:41:07Z</time>
      </trkpt>
      <trkpt lat="43.49114" lon="6.62324">
        <ele>38.8</ele>
        <time>2023-11-05T12:41:08Z</time>
      </trkpt>
      <trkpt lat="43.49113" lon="6.62324">
        <ele>38.9</ele>
        <time>2023-11-05T12:41:09Z</time>
      </trkpt>
      <trkpt lat="43.49112" lon="6.62323">
        <ele>38.9</ele>
        <time>2023-11-05T12:41:10Z</time>
      </trkpt>
      <trkpt lat="43.49111" lon="6.62323">
        <ele>38.9</ele>
        <time>2023-11-05T12:41:11Z</time>
      </trkpt>
      <trkpt lat="43.4911" lon="6.62323">
        <ele>39</ele>
        <time>2023-11-05T12:41:12Z</time>
      </trkpt>
      <trkpt lat="43.49109" lon="6.62322">
        <ele>39.1</ele>
        <time>2023-11-05T12:41:13Z</time>
      </trkpt>
      <trkpt lat="43.49108" lon="6.62321">
        <ele>39.1</ele>
        <time>2023-11-05T12:41:14Z</time>
      </trkpt>
      <trkpt lat="43.49107" lon="6.62321">
        <ele>39.2</ele>
        <time>2023-11-05T12:41:15Z</time>
      </trkpt>
      <trkpt lat="43.49106" lon="6.6232">
        <ele>39.2</ele>
        <time>2023-11-05T12:41:16Z</time>
      </trkpt>
      <trkpt lat="43.49105" lon="6.6232">
        <ele>39.2</ele>
        <time>2023-11-05T12:41:17Z</time>
      </trkpt>
      <trkpt lat="43.49104" lon="6.6232">
        <ele>39.3</ele>
        <time>2023-11-05T12:41:18Z</time>
      </trkpt>
      <trkpt lat="43.49103" lon="6.62319">
        <ele>39.3</ele>
        <time>2023-11-05T12:41:19Z</time>
      </trkpt>
      <trkpt lat="43.49102" lon="6.62319">
        <ele>39.3</ele>
        <time>2023-11-05T12:41:20Z</time>
      </trkpt>
      <trkpt lat="43.49101" lon="6.62318">
        <ele>39.4</ele>
        <time>2023-11-05T12:41:21Z</time>
      </trkpt>
      <trkpt lat="43.491" lon="6.62317">
        <ele>39.5</ele>
        <time>2023-11-05T12:41:22Z</time>
      </trkpt>
      <trkpt lat="43.49099" lon="6.62316">
        <ele>39.6</ele>
        <time>2023-11-05T12:41:23Z</time>
      </trkpt>
      <trkpt lat="43.49099" lon="6.62315">
        <ele>39.7</ele>
        <time>2023-11-05T12:41:24Z</time>
      </trkpt>
      <trkpt lat="43.49098" lon="6.62315">
        <ele>39.9</ele>
        <time>2023-11-05T12:41:25Z</time>
      </trkpt>
      <trkpt lat="43.49096" lon="6.62314">
        <ele>40</ele>
        <time>2023-11-05T12:41:26Z</time>
      </trkpt>
      <trkpt lat="43.49095" lon="6.62314">
        <ele>40.1</ele>
        <time>2023-11-05T12:41:27Z</time>
      </trkpt>
      <trkpt lat="43.49094" lon="6.62313">
        <ele>40.3</ele>
        <time>2023-11-05T12:41:28Z</time>
      </trkpt>
      <trkpt lat="43.49093" lon="6.62312">
        <ele>40.4</ele>
        <time>2023-11-05T12:41:29Z</time>
      </trkpt>
      <trkpt lat="43.49092" lon="6.62312">
        <ele>40.5</ele>
        <time>2023-11-05T12:41:30Z</time>
      </trkpt>
      <trkpt lat="43.4909" lon="6.62311">
        <ele>40.6</ele>
        <time>2023-11-05T12:41:31Z</time>
      </trkpt>
      <trkpt lat="43.49089" lon="6.6231">
        <ele>40.7</ele>
        <time>2023-11-05T12:41:32Z</time>
      </trkpt>
      <trkpt lat="43.49088" lon="6.62309">
        <ele>40.8</ele>
        <time>2023-11-05T12:41:33Z</time>
      </trkpt>
      <trkpt lat="43.49087" lon="6.62309">
        <ele>40.8</ele>
        <time>2023-11-05T12:41:34Z</time>
      </trkpt>
      <trkpt lat="43.49086" lon="6.62308">
        <ele>40.9</ele>
        <time>2023-11-05T12:41:35Z</time>
      </trkpt>
      <trkpt lat="43.49085" lon="6.62308">
        <ele>41</ele>
        <time>2023-11-05T12:41:36Z</time>
      </trkpt>
      <trkpt lat="43.49084" lon="6.62308">
        <ele>41.1</ele>
        <time>2023-11-05T12:41:37Z</time>
      </trkpt>
      <trkpt lat="43.49083" lon="6.62308">
        <ele>41.3</ele>
        <time>2023-11-05T12:41:38Z</time>
      </trkpt>
      <trkpt lat="43.49081" lon="6.62308">
        <ele>41.4</ele>
        <time>2023-11-05T12:41:39Z</time>
      </trkpt>
      <trkpt lat="43.4908" lon="6.62308">
        <ele>41.4</ele>
        <time>2023-11-05T12:41:40Z</time>
      </trkpt>
      <trkpt lat="43.49079" lon="6.62308">
        <ele>41.6</ele>
        <time>2023-11-05T12:41:41Z</time>
      </trkpt>
      <trkpt lat="43.49078" lon="6.62307">
        <ele>41.7</ele>
        <time>2023-11-05T12:41:42Z</time>
      </trkpt>
      <trkpt lat="43.49077" lon="6.62307">
        <ele>41.7</ele>
        <time>2023-11-05T12:41:43Z</time>
      </trkpt>
      <trkpt lat="43.49076" lon="6.62307">
        <ele>41.7</ele>
        <time>2023-11-05T12:41:44Z</time>
      </trkpt>
      <trkpt lat="43.49075" lon="6.62307">
        <ele>41.8</ele>
        <time>2023-11-05T12:41:45Z</time>
      </trkpt>
      <trkpt lat="43.49073" lon="6.62307">
        <ele>42</ele>
        <time>2023-11-05T12:41:46Z</time>
      </trkpt>
      <trkpt lat="43.49072" lon="6.62307">
        <ele>42</ele>
        <time>2023-11-05T12:41:47Z</time>
      </trkpt>
      <trkpt lat="43.49071" lon="6.62306">
        <ele>42.1</ele>
        <time>2023-11-05T12:41:48Z</time>
      </trkpt>
      <trkpt lat="43.4907" lon="6.62306">
        <ele>42.1</ele>
        <time>2023-11-05T12:41:49Z</time>
      </trkpt>
      <trkpt lat="43.49069" lon="6.62306">
        <ele>42.4</ele>
        <time>2023-11-05T12:41:50Z</time>
      </trkpt>
      <trkpt lat="43.49068" lon="6.62306">
        <ele>42.6</ele>
        <time>2023-11-05T12:41:51Z</time>
      </trkpt>
      <trkpt lat="43.49066" lon="6.62306">
        <ele>42.7</ele>
        <time>2023-11-05T12:41:52Z</time>
      </trkpt>
      <trkpt lat="43.49065" lon="6.62306">
        <ele>42.8</ele>
        <time>2023-11-05T12:41:53Z</time>
      </trkpt>
      <trkpt lat="43.49064" lon="6.62305">
        <ele>43</ele>
        <time>2023-11-05T12:41:54Z</time>
      </trkpt>
      <trkpt lat="43.49063" lon="6.62305">
        <ele>43.1</ele>
        <time>2023-11-05T12:41:55Z</time>
      </trkpt>
      <trkpt lat="43.49062" lon="6.62306">
        <ele>43.2</ele>
        <time>2023-11-05T12:41:56Z</time>
      </trkpt>
      <trkpt lat="43.49061" lon="6.62306">
        <ele>43.2</ele>
        <time>2023-11-05T12:41:57Z</time>
      </trkpt>
      <trkpt lat="43.49061" lon="6.62306">
        <ele>43.2</ele>
        <time>2023-11-05T12:41:58Z</time>
      </trkpt>
      <trkpt lat="43.49059" lon="6.62306">
        <ele>43.2</ele>
        <time>2023-11-05T12:41:59Z</time>
      </trkpt>
      <trkpt lat="43.49058" lon="6.62306">
        <ele>43.2</ele>
        <time>2023-11-05T12:42:00Z</time>
      </trkpt>
      <trkpt lat="43.49057" lon="6.62305">
        <ele>43.2</ele>
        <time>2023-11-05T12:42:01Z</time>
      </trkpt>
      <trkpt lat="43.49056" lon="6.62304">
        <ele>43.2</ele>
        <time>2023-11-05T12:42:02Z</time>
      </trkpt>
      <trkpt lat="43.49055" lon="6.62305">
        <ele>43.3</ele>
        <time>2023-11-05T12:42:03Z</time>
      </trkpt>
      <trkpt lat="43.49054" lon="6.62305">
        <ele>43.4</ele>
        <time>2023-11-05T12:42:04Z</time>
      </trkpt>
      <trkpt lat="43.49053" lon="6.62305">
        <ele>43.5</ele>
        <time>2023-11-05T12:42:05Z</time>
      </trkpt>
      <trkpt lat="43.49052" lon="6.62305">
        <ele>43.5</ele>
        <time>2023-11-05T12:42:06Z</time>
      </trkpt>
      <trkpt lat="43.49051" lon="6.62304">
        <ele>43.6</ele>
        <time>2023-11-05T12:42:07Z</time>
      </trkpt>
      <trkpt lat="43.4905" lon="6.62304">
        <ele>43.7</ele>
        <time>2023-11-05T12:42:08Z</time>
      </trkpt>
      <trkpt lat="43.49049" lon="6.62305">
        <ele>43.8</ele>
        <time>2023-11-05T12:42:09Z</time>
      </trkpt>
      <trkpt lat="43.49048" lon="6.62305">
        <ele>43.8</ele>
        <time>2023-11-05T12:42:10Z</time>
      </trkpt>
      <trkpt lat="43.49048" lon="6.62305">
        <ele>43.8</ele>
        <time>2023-11-05T12:42:11Z</time>
      </trkpt>
      <trkpt lat="43.49047" lon="6.62307">
        <ele>43.8</ele>
        <time>2023-11-05T12:42:12Z</time>
      </trkpt>
      <trkpt lat="43.49047" lon="6.62308">
        <ele>44</ele>
        <time>2023-11-05T12:42:13Z</time>
      </trkpt>
      <trkpt lat="43.49047" lon="6.62308">
        <ele>44</ele>
        <time>2023-11-05T12:42:14Z</time>
      </trkpt>
      <trkpt lat="43.49047" lon="6.62308">
        <ele>44.1</ele>
        <time>2023-11-05T12:42:15Z</time>
      </trkpt>
      <trkpt lat="43.49047" lon="6.62308">
        <ele>44.1</ele>
        <time>2023-11-05T12:42:16Z</time>
      </trkpt>
      <trkpt lat="43.49047" lon="6.62308">
        <ele>44</ele>
        <time>2023-11-05T12:42:17Z</time>
      </trkpt>
      <trkpt lat="43.49046" lon="6.62309">
        <ele>43.8</ele>
        <time>2023-11-05T12:42:18Z</time>
      </trkpt>
      <trkpt lat="43.49046" lon="6.6231">
        <ele>43.6</ele>
        <time>2023-11-05T12:42:19Z</time>
      </trkpt>
      <trkpt lat="43.49046" lon="6.62312">
        <ele>43.5</ele>
        <time>2023-11-05T12:42:20Z</time>
      </trkpt>
      <trkpt lat="43.49046" lon="6.62313">
        <ele>43.5</ele>
        <time>2023-11-05T12:42:21Z</time>
      </trkpt>
      <trkpt lat="43.49045" lon="6.62314">
        <ele>43.5</ele>
        <time>2023-11-05T12:42:22Z</time>
      </trkpt>
      <trkpt lat="43.49045" lon="6.62315">
        <ele>43.5</ele>
        <time>2023-11-05T12:42:23Z</time>
      </trkpt>
      <trkpt lat="43.49045" lon="6.62316">
        <ele>43.5</ele>
        <time>2023-11-05T12:42:24Z</time>
      </trkpt>
      <trkpt lat="43.49045" lon="6.62317">
        <ele>43.5</ele>
        <time>2023-11-05T12:42:25Z</time>
      </trkpt>
      <trkpt lat="43.49045" lon="6.62318">
        <ele>43.3</ele>
        <time>2023-11-05T12:42:26Z</time>
      </trkpt>
      <trkpt lat="43.49044" lon="6.62318">
        <ele>43.2</ele>
        <time>2023-11-05T12:42:27Z</time>
      </trkpt>
      <trkpt lat="43.49044" lon="6.62319">
        <ele>43.1</ele>
        <time>2023-11-05T12:42:28Z</time>
      </trkpt>
      <trkpt lat="43.49044" lon="6.6232">
        <ele>43.1</ele>
        <time>2023-11-05T12:42:29Z</time>
      </trkpt>
      <trkpt lat="43.49043" lon="6.62321">
        <ele>43.1</ele>
        <time>2023-11-05T12:42:30Z</time>
      </trkpt>
      <trkpt lat="43.49044" lon="6.62321">
        <ele>43.2</ele>
        <time>2023-11-05T12:42:31Z</time>
      </trkpt>
      <trkpt lat="43.49044" lon="6.62322">
        <ele>43.2</ele>
        <time>2023-11-05T12:42:32Z</time>
      </trkpt>
      <trkpt lat="43.49044" lon="6.62322">
        <ele>43.2</ele>
        <time>2023-11-05T12:42:33Z</time>
      </trkpt>
      <trkpt lat="43.49044" lon="6.62322">
        <ele>43.2</ele>
        <time>2023-11-05T12:42:34Z</time>
      </trkpt>
      <trkpt lat="43.49044" lon="6.62322">
        <ele>43.3</ele>
        <time>2023-11-05T12:42:35Z</time>
      </trkpt>
      <trkpt lat="43.49044" lon="6.62322">
        <ele>43.3</ele>
        <time>2023-11-05T12:42:36Z</time>
      </trkpt>
      <trkpt lat="43.49043" lon="6.62322">
        <ele>43.3</ele>
        <time>2023-11-05T12:42:37Z</time>
      </trkpt>
      <trkpt lat="43.49043" lon="6.62323">
        <ele>43.3</ele>
        <time>2023-11-05T12:42:38Z</time>
      </trkpt>
      <trkpt lat="43.49043" lon="6.62323">
        <ele>43.4</ele>
        <time>2023-11-05T12:42:39Z</time>
      </trkpt>
      <trkpt lat="43.49043" lon="6.62323">
        <ele>43.4</ele>
        <time>2023-11-05T12:42:40Z</time>
      </trkpt>
      <trkpt lat="43.49043" lon="6.62323">
        <ele>43.5</ele>
        <time>2023-11-05T12:42:41Z</time>
      </trkpt>
      <trkpt lat="43.49043" lon="6.62323">
        <ele>43.5</ele>
        <time>2023-11-05T12:42:42Z</time>
      </trkpt>
      <trkpt lat="43.49043" lon="6.62323">
        <ele>43.6</ele>
        <time>2023-11-05T12:42:43Z</time>
      </trkpt>
      <trkpt lat="43.49043" lon="6.62323">
        <ele>43.7</ele>
        <time>2023-11-05T12:42:44Z</time>
      </trkpt>
      <trkpt lat="43.49043" lon="6.62324">
        <ele>43.7</ele>
        <time>2023-11-05T12:42:45Z</time>
      </trkpt>
      <trkpt lat="43.49043" lon="6.62324">
        <ele>43.8</ele>
        <time>2023-11-05T12:42:46Z</time>
      </trkpt>
      <trkpt lat="43.49043" lon="6.62324">
        <ele>43.7</ele>
        <time>2023-11-05T12:42:47Z</time>
      </trkpt>
      <trkpt lat="43.49043" lon="6.62324">
        <ele>43.7</ele>
        <time>2023-11-05T12:42:48Z</time>
      </trkpt>
      <trkpt lat="43.49043" lon="6.62324">
        <ele>43.7</ele>
        <time>2023-11-05T12:42:49Z</time>
      </trkpt>
      <trkpt lat="43.49043" lon="6.62324">
        <ele>43.5</ele>
        <time>2023-11-05T12:42:50Z</time>
      </trkpt>
      <trkpt lat="43.49042" lon="6.62324">
        <ele>43.4</ele>
        <time>2023-11-05T12:42:51Z</time>
      </trkpt>
      <trkpt lat="43.49042" lon="6.62324">
        <ele>43.5</ele>
        <time>2023-11-05T12:42:52Z</time>
      </trkpt>
      <trkpt lat="43.49042" lon="6.62324">
        <ele>43.5</ele>
        <time>2023-11-05T12:42:53Z</time>
      </trkpt>
      <trkpt lat="43.49042" lon="6.62324">
        <ele>43.5</ele>
        <time>2023-11-05T12:42:54Z</time>
      </trkpt>
      <trkpt lat="43.49042" lon="6.62324">
        <ele>43.6</ele>
        <time>2023-11-05T12:42:55Z</time>
      </trkpt>
      <trkpt lat="43.49042" lon="6.62324">
        <ele>43.6</ele>
        <time>2023-11-05T12:42:56Z</time>
      </trkpt>
      <trkpt lat="43.49042" lon="6.62324">
        <ele>43.6</ele>
        <time>2023-11-05T12:42:57Z</time>
      </trkpt>
      <trkpt lat="43.49042" lon="6.62325">
        <ele>43.6</ele>
        <time>2023-11-05T12:42:58Z</time>
      </trkpt>
      <trkpt lat="43.49042" lon="6.62325">
        <ele>43.6</ele>
        <time>2023-11-05T12:42:59Z</time>
      </trkpt>
      <trkpt lat="43.49042" lon="6.62325">
        <ele>43.6</ele>
        <time>2023-11-05T12:43:00Z</time>
      </trkpt>
      <trkpt lat="43.49042" lon="6.62325">
        <ele>43.5</ele>
        <time>2023-11-05T12:43:01Z</time>
      </trkpt>
      <trkpt lat="43.49042" lon="6.62325">
        <ele>43.6</ele>
        <time>2023-11-05T12:43:02Z</time>
      </trkpt>
      <trkpt lat="43.49042" lon="6.62325">
        <ele>43.6</ele>
        <time>2023-11-05T12:43:03Z</time>
      </trkpt>
      <trkpt lat="43.49042" lon="6.62325">
        <ele>43.6</ele>
        <time>2023-11-05T12:43:04Z</time>
      </trkpt>
      <trkpt lat="43.49041" lon="6.62325">
        <ele>43.6</ele>
        <time>2023-11-05T12:43:05Z</time>
      </trkpt>
      <trkpt lat="43.49041" lon="6.62325">
        <ele>43.5</ele>
        <time>2023-11-05T12:43:06Z</time>
      </trkpt>
      <trkpt lat="43.49041" lon="6.62325">
        <ele>43.5</ele>
        <time>2023-11-05T12:43:07Z</time>
      </trkpt>
      <trkpt lat="43.49041" lon="6.62326">
        <ele>43.5</ele>
        <time>2023-11-05T12:43:08Z</time>
      </trkpt>
      <trkpt lat="43.49042" lon="6.62326">
        <ele>43.5</ele>
        <time>2023-11-05T12:43:09Z</time>
      </trkpt>
      <trkpt lat="43.49042" lon="6.62326">
        <ele>43.5</ele>
        <time>2023-11-05T12:43:10Z</time>
      </trkpt>
      <trkpt lat="43.49042" lon="6.62326">
        <ele>43.5</ele>
        <time>2023-11-05T12:43:11Z</time>
      </trkpt>
      <trkpt lat="43.49042" lon="6.62326">
        <ele>43.5</ele>
        <time>2023-11-05T12:43:12Z</time>
      </trkpt>
      <trkpt lat="43.49042" lon="6.62326">
        <ele>43.6</ele>
        <time>2023-11-05T12:43:13Z</time>
      </trkpt>
      <trkpt lat="43.49042" lon="6.62326">
        <ele>43.6</ele>
        <time>2023-11-05T12:43:14Z</time>
      </trkpt>
      <trkpt lat="43.49042" lon="6.62326">
        <ele>43.6</ele>
        <time>2023-11-05T12:43:15Z</time>
      </trkpt>
      <trkpt lat="43.49042" lon="6.62326">
        <ele>43.6</ele>
        <time>2023-11-05T12:43:16Z</time>
      </trkpt>
      <trkpt lat="43.49042" lon="6.62326">
        <ele>43.6</ele>
        <time>2023-11-05T12:43:17Z</time>
      </trkpt>
      <trkpt lat="43.49042" lon="6.62326">
        <ele>43.5</ele>
        <time>2023-11-05T12:43:18Z</time>
      </trkpt>
      <trkpt lat="43.49042" lon="6.62326">
        <ele>43.4</ele>
        <time>2023-11-05T12:43:19Z</time>
      </trkpt>
      <trkpt lat="43.49042" lon="6.62327">
        <ele>43.2</ele>
        <time>2023-11-05T12:43:20Z</time>
      </trkpt>
      <trkpt lat="43.49042" lon="6.62327">
        <ele>43.1</ele>
        <time>2023-11-05T12:43:21Z</time>
      </trkpt>
      <trkpt lat="43.49042" lon="6.62328">
        <ele>43</ele>
        <time>2023-11-05T12:43:22Z</time>
      </trkpt>
      <trkpt lat="43.49042" lon="6.62329">
        <ele>43.1</ele>
        <time>2023-11-05T12:43:23Z</time>
      </trkpt>
      <trkpt lat="43.49042" lon="6.62329">
        <ele>43</ele>
        <time>2023-11-05T12:43:24Z</time>
      </trkpt>
      <trkpt lat="43.49042" lon="6.6233">
        <ele>43</ele>
        <time>2023-11-05T12:43:25Z</time>
      </trkpt>
      <trkpt lat="43.49042" lon="6.62331">
        <ele>43</ele>
        <time>2023-11-05T12:43:26Z</time>
      </trkpt>
      <trkpt lat="43.49042" lon="6.62331">
        <ele>42.9</ele>
        <time>2023-11-05T12:43:27Z</time>
      </trkpt>
      <trkpt lat="43.49042" lon="6.62331">
        <ele>42.9</ele>
        <time>2023-11-05T12:43:28Z</time>
      </trkpt>
      <trkpt lat="43.49042" lon="6.62331">
        <ele>43</ele>
        <time>2023-11-05T12:43:29Z</time>
      </trkpt>
      <trkpt lat="43.49042" lon="6.62331">
        <ele>43</ele>
        <time>2023-11-05T12:43:30Z</time>
      </trkpt>
      <trkpt lat="43.49041" lon="6.62332">
        <ele>43.1</ele>
        <time>2023-11-05T12:43:31Z</time>
      </trkpt>
      <trkpt lat="43.49041" lon="6.62333">
        <ele>43.1</ele>
        <time>2023-11-05T12:43:32Z</time>
      </trkpt>
      <trkpt lat="43.49041" lon="6.62334">
        <ele>43.2</ele>
        <time>2023-11-05T12:43:33Z</time>
      </trkpt>
      <trkpt lat="43.4904" lon="6.62335">
        <ele>43.3</ele>
        <time>2023-11-05T12:43:34Z</time>
      </trkpt>
      <trkpt lat="43.4904" lon="6.62336">
        <ele>43.3</ele>
        <time>2023-11-05T12:43:35Z</time>
      </trkpt>
      <trkpt lat="43.49039" lon="6.62337">
        <ele>43.4</ele>
        <time>2023-11-05T12:43:36Z</time>
      </trkpt>
      <trkpt lat="43.49039" lon="6.62338">
        <ele>43.4</ele>
        <time>2023-11-05T12:43:37Z</time>
      </trkpt>
      <trkpt lat="43.49038" lon="6.62339">
        <ele>43.4</ele>
        <time>2023-11-05T12:43:38Z</time>
      </trkpt>
      <trkpt lat="43.49038" lon="6.6234">
        <ele>43.3</ele>
        <time>2023-11-05T12:43:39Z</time>
      </trkpt>
      <trkpt lat="43.49038" lon="6.62341">
        <ele>43.2</ele>
        <time>2023-11-05T12:43:40Z</time>
      </trkpt>
      <trkpt lat="43.49038" lon="6.62342">
        <ele>43.2</ele>
        <time>2023-11-05T12:43:41Z</time>
      </trkpt>
      <trkpt lat="43.49038" lon="6.62343">
        <ele>43.3</ele>
        <time>2023-11-05T12:43:42Z</time>
      </trkpt>
      <trkpt lat="43.49037" lon="6.62344">
        <ele>43.5</ele>
        <time>2023-11-05T12:43:43Z</time>
      </trkpt>
      <trkpt lat="43.49037" lon="6.62346">
        <ele>43.7</ele>
        <time>2023-11-05T12:43:44Z</time>
      </trkpt>
      <trkpt lat="43.49037" lon="6.62347">
        <ele>43.8</ele>
        <time>2023-11-05T12:43:45Z</time>
      </trkpt>
      <trkpt lat="43.49036" lon="6.62347">
        <ele>43.9</ele>
        <time>2023-11-05T12:43:46Z</time>
      </trkpt>
      <trkpt lat="43.49036" lon="6.62349">
        <ele>44</ele>
        <time>2023-11-05T12:43:47Z</time>
      </trkpt>
      <trkpt lat="43.49036" lon="6.6235">
        <ele>44</ele>
        <time>2023-11-05T12:43:48Z</time>
      </trkpt>
      <trkpt lat="43.49035" lon="6.62351">
        <ele>44.1</ele>
        <time>2023-11-05T12:43:49Z</time>
      </trkpt>
      <trkpt lat="43.49035" lon="6.62352">
        <ele>44.2</ele>
        <time>2023-11-05T12:43:50Z</time>
      </trkpt>
      <trkpt lat="43.49034" lon="6.62354">
        <ele>44.2</ele>
        <time>2023-11-05T12:43:51Z</time>
      </trkpt>
      <trkpt lat="43.49034" lon="6.62355">
        <ele>44.3</ele>
        <time>2023-11-05T12:43:52Z</time>
      </trkpt>
      <trkpt lat="43.49033" lon="6.62357">
        <ele>44.3</ele>
        <time>2023-11-05T12:43:53Z</time>
      </trkpt>
      <trkpt lat="43.49032" lon="6.62357">
        <ele>44.3</ele>
        <time>2023-11-05T12:43:54Z</time>
      </trkpt>
      <trkpt lat="43.49032" lon="6.62359">
        <ele>44.2</ele>
        <time>2023-11-05T12:43:55Z</time>
      </trkpt>
      <trkpt lat="43.49031" lon="6.62359">
        <ele>44.2</ele>
        <time>2023-11-05T12:43:56Z</time>
      </trkpt>
      <trkpt lat="43.4903" lon="6.6236">
        <ele>44.2</ele>
        <time>2023-11-05T12:43:57Z</time>
      </trkpt>
      <trkpt lat="43.4903" lon="6.62361">
        <ele>44.1</ele>
        <time>2023-11-05T12:43:58Z</time>
      </trkpt>
      <trkpt lat="43.49029" lon="6.62362">
        <ele>44.1</ele>
        <time>2023-11-05T12:43:59Z</time>
      </trkpt>
      <trkpt lat="43.49028" lon="6.62363">
        <ele>44.1</ele>
        <time>2023-11-05T12:44:00Z</time>
      </trkpt>
      <trkpt lat="43.49027" lon="6.62363">
        <ele>44.1</ele>
        <time>2023-11-05T12:44:01Z</time>
      </trkpt>
      <trkpt lat="43.49026" lon="6.62364">
        <ele>44</ele>
        <time>2023-11-05T12:44:02Z</time>
      </trkpt>
      <trkpt lat="43.49026" lon="6.62365">
        <ele>44</ele>
        <time>2023-11-05T12:44:03Z</time>
      </trkpt>
      <trkpt lat="43.49025" lon="6.62366">
        <ele>44</ele>
        <time>2023-11-05T12:44:04Z</time>
      </trkpt>
      <trkpt lat="43.49024" lon="6.62367">
        <ele>44.1</ele>
        <time>2023-11-05T12:44:05Z</time>
      </trkpt>
      <trkpt lat="43.49023" lon="6.62368">
        <ele>44.1</ele>
        <time>2023-11-05T12:44:06Z</time>
      </trkpt>
      <trkpt lat="43.49022" lon="6.62369">
        <ele>44.1</ele>
        <time>2023-11-05T12:44:07Z</time>
      </trkpt>
      <trkpt lat="43.49021" lon="6.6237">
        <ele>44.1</ele>
        <time>2023-11-05T12:44:08Z</time>
      </trkpt>
      <trkpt lat="43.4902" lon="6.6237">
        <ele>44.1</ele>
        <time>2023-11-05T12:44:09Z</time>
      </trkpt>
      <trkpt lat="43.49019" lon="6.62372">
        <ele>44.2</ele>
        <time>2023-11-05T12:44:10Z</time>
      </trkpt>
      <trkpt lat="43.49018" lon="6.62372">
        <ele>44.2</ele>
        <time>2023-11-05T12:44:11Z</time>
      </trkpt>
      <trkpt lat="43.49017" lon="6.62373">
        <ele>44.2</ele>
        <time>2023-11-05T12:44:12Z</time>
      </trkpt>
      <trkpt lat="43.49016" lon="6.62374">
        <ele>44.1</ele>
        <time>2023-11-05T12:44:13Z</time>
      </trkpt>
      <trkpt lat="43.49016" lon="6.62375">
        <ele>44.1</ele>
        <time>2023-11-05T12:44:14Z</time>
      </trkpt>
      <trkpt lat="43.49015" lon="6.62376">
        <ele>44</ele>
        <time>2023-11-05T12:44:15Z</time>
      </trkpt>
      <trkpt lat="43.49014" lon="6.62377">
        <ele>44</ele>
        <time>2023-11-05T12:44:16Z</time>
      </trkpt>
      <trkpt lat="43.49013" lon="6.62378">
        <ele>43.9</ele>
        <time>2023-11-05T12:44:17Z</time>
      </trkpt>
      <trkpt lat="43.49012" lon="6.62379">
        <ele>43.9</ele>
        <time>2023-11-05T12:44:18Z</time>
      </trkpt>
      <trkpt lat="43.49011" lon="6.6238">
        <ele>43.8</ele>
        <time>2023-11-05T12:44:19Z</time>
      </trkpt>
      <trkpt lat="43.49011" lon="6.6238">
        <ele>43.7</ele>
        <time>2023-11-05T12:44:20Z</time>
      </trkpt>
      <trkpt lat="43.49009" lon="6.62381">
        <ele>43.7</ele>
        <time>2023-11-05T12:44:21Z</time>
      </trkpt>
      <trkpt lat="43.49009" lon="6.62382">
        <ele>43.7</ele>
        <time>2023-11-05T12:44:22Z</time>
      </trkpt>
      <trkpt lat="43.49008" lon="6.62383">
        <ele>43.5</ele>
        <time>2023-11-05T12:44:23Z</time>
      </trkpt>
      <trkpt lat="43.49008" lon="6.62384">
        <ele>43.4</ele>
        <time>2023-11-05T12:44:24Z</time>
      </trkpt>
      <trkpt lat="43.49007" lon="6.62385">
        <ele>43.3</ele>
        <time>2023-11-05T12:44:25Z</time>
      </trkpt>
      <trkpt lat="43.49006" lon="6.62385">
        <ele>43.2</ele>
        <time>2023-11-05T12:44:26Z</time>
      </trkpt>
      <trkpt lat="43.49005" lon="6.62386">
        <ele>43</ele>
        <time>2023-11-05T12:44:27Z</time>
      </trkpt>
      <trkpt lat="43.49004" lon="6.62387">
        <ele>42.9</ele>
        <time>2023-11-05T12:44:28Z</time>
      </trkpt>
      <trkpt lat="43.49003" lon="6.62388">
        <ele>42.8</ele>
        <time>2023-11-05T12:44:29Z</time>
      </trkpt>
      <trkpt lat="43.49003" lon="6.62389">
        <ele>42.8</ele>
        <time>2023-11-05T12:44:30Z</time>
      </trkpt>
      <trkpt lat="43.49002" lon="6.6239">
        <ele>42.7</ele>
        <time>2023-11-05T12:44:31Z</time>
      </trkpt>
      <trkpt lat="43.49002" lon="6.62392">
        <ele>42.6</ele>
        <time>2023-11-05T12:44:32Z</time>
      </trkpt>
      <trkpt lat="43.49002" lon="6.62393">
        <ele>42.5</ele>
        <time>2023-11-05T12:44:33Z</time>
      </trkpt>
      <trkpt lat="43.49001" lon="6.62394">
        <ele>42.4</ele>
        <time>2023-11-05T12:44:34Z</time>
      </trkpt>
      <trkpt lat="43.49001" lon="6.62396">
        <ele>42.3</ele>
        <time>2023-11-05T12:44:35Z</time>
      </trkpt>
      <trkpt lat="43.49001" lon="6.62398">
        <ele>42.2</ele>
        <time>2023-11-05T12:44:36Z</time>
      </trkpt>
      <trkpt lat="43.49001" lon="6.62399">
        <ele>42.2</ele>
        <time>2023-11-05T12:44:37Z</time>
      </trkpt>
      <trkpt lat="43.49001" lon="6.62401">
        <ele>42</ele>
        <time>2023-11-05T12:44:38Z</time>
      </trkpt>
      <trkpt lat="43.49001" lon="6.62403">
        <ele>41.9</ele>
        <time>2023-11-05T12:44:39Z</time>
      </trkpt>
      <trkpt lat="43.49002" lon="6.62404">
        <ele>41.8</ele>
        <time>2023-11-05T12:44:40Z</time>
      </trkpt>
      <trkpt lat="43.49002" lon="6.62406">
        <ele>41.7</ele>
        <time>2023-11-05T12:44:41Z</time>
      </trkpt>
      <trkpt lat="43.49003" lon="6.62407">
        <ele>41.7</ele>
        <time>2023-11-05T12:44:42Z</time>
      </trkpt>
      <trkpt lat="43.49003" lon="6.62409">
        <ele>41.6</ele>
        <time>2023-11-05T12:44:43Z</time>
      </trkpt>
      <trkpt lat="43.49003" lon="6.6241">
        <ele>41.6</ele>
        <time>2023-11-05T12:44:44Z</time>
      </trkpt>
      <trkpt lat="43.49004" lon="6.62411">
        <ele>41.4</ele>
        <time>2023-11-05T12:44:45Z</time>
      </trkpt>
      <trkpt lat="43.49004" lon="6.62412">
        <ele>41.3</ele>
        <time>2023-11-05T12:44:46Z</time>
      </trkpt>
      <trkpt lat="43.49004" lon="6.62413">
        <ele>41.1</ele>
        <time>2023-11-05T12:44:47Z</time>
      </trkpt>
      <trkpt lat="43.49005" lon="6.62415">
        <ele>41.1</ele>
        <time>2023-11-05T12:44:48Z</time>
      </trkpt>
      <trkpt lat="43.49005" lon="6.62416">
        <ele>41</ele>
        <time>2023-11-05T12:44:49Z</time>
      </trkpt>
      <trkpt lat="43.49005" lon="6.62418">
        <ele>40.9</ele>
        <time>2023-11-05T12:44:50Z</time>
      </trkpt>
      <trkpt lat="43.49005" lon="6.6242">
        <ele>40.9</ele>
        <time>2023-11-05T12:44:51Z</time>
      </trkpt>
      <trkpt lat="43.49006" lon="6.62421">
        <ele>40.8</ele>
        <time>2023-11-05T12:44:52Z</time>
      </trkpt>
      <trkpt lat="43.49006" lon="6.62422">
        <ele>40.7</ele>
        <time>2023-11-05T12:44:53Z</time>
      </trkpt>
      <trkpt lat="43.49006" lon="6.62423">
        <ele>40.7</ele>
        <time>2023-11-05T12:44:54Z</time>
      </trkpt>
      <trkpt lat="43.49006" lon="6.62425">
        <ele>40.7</ele>
        <time>2023-11-05T12:44:55Z</time>
      </trkpt>
      <trkpt lat="43.49006" lon="6.62426">
        <ele>40.6</ele>
        <time>2023-11-05T12:44:56Z</time>
      </trkpt>
      <trkpt lat="43.49006" lon="6.62428">
        <ele>40.6</ele>
        <time>2023-11-05T12:44:57Z</time>
      </trkpt>
      <trkpt lat="43.49006" lon="6.6243">
        <ele>40.6</ele>
        <time>2023-11-05T12:44:58Z</time>
      </trkpt>
      <trkpt lat="43.49006" lon="6.62431">
        <ele>40.6</ele>
        <time>2023-11-05T12:44:59Z</time>
      </trkpt>
      <trkpt lat="43.49006" lon="6.62434">
        <ele>40.6</ele>
        <time>2023-11-05T12:45:00Z</time>
      </trkpt>
      <trkpt lat="43.49006" lon="6.62435">
        <ele>40.7</ele>
        <time>2023-11-05T12:45:01Z</time>
      </trkpt>
      <trkpt lat="43.49006" lon="6.62437">
        <ele>40.7</ele>
        <time>2023-11-05T12:45:02Z</time>
      </trkpt>
      <trkpt lat="43.49006" lon="6.62438">
        <ele>40.6</ele>
        <time>2023-11-05T12:45:03Z</time>
      </trkpt>
      <trkpt lat="43.49006" lon="6.6244">
        <ele>40.6</ele>
        <time>2023-11-05T12:45:04Z</time>
      </trkpt>
      <trkpt lat="43.49005" lon="6.62441">
        <ele>40.5</ele>
        <time>2023-11-05T12:45:05Z</time>
      </trkpt>
      <trkpt lat="43.49005" lon="6.62443">
        <ele>40.4</ele>
        <time>2023-11-05T12:45:06Z</time>
      </trkpt>
      <trkpt lat="43.49004" lon="6.62445">
        <ele>40.4</ele>
        <time>2023-11-05T12:45:07Z</time>
      </trkpt>
      <trkpt lat="43.49004" lon="6.62447">
        <ele>40.2</ele>
        <time>2023-11-05T12:45:08Z</time>
      </trkpt>
      <trkpt lat="43.49003" lon="6.62448">
        <ele>40.2</ele>
        <time>2023-11-05T12:45:09Z</time>
      </trkpt>
      <trkpt lat="43.49002" lon="6.62449">
        <ele>40.2</ele>
        <time>2023-11-05T12:45:10Z</time>
      </trkpt>
      <trkpt lat="43.49002" lon="6.6245">
        <ele>40.3</ele>
        <time>2023-11-05T12:45:11Z</time>
      </trkpt>
      <trkpt lat="43.49002" lon="6.62452">
        <ele>40.3</ele>
        <time>2023-11-05T12:45:12Z</time>
      </trkpt>
      <trkpt lat="43.49001" lon="6.62453">
        <ele>40.3</ele>
        <time>2023-11-05T12:45:13Z</time>
      </trkpt>
      <trkpt lat="43.49001" lon="6.62454">
        <ele>40.2</ele>
        <time>2023-11-05T12:45:14Z</time>
      </trkpt>
      <trkpt lat="43.49" lon="6.62455">
        <ele>40.1</ele>
        <time>2023-11-05T12:45:15Z</time>
      </trkpt>
      <trkpt lat="43.48999" lon="6.62457">
        <ele>40</ele>
        <time>2023-11-05T12:45:16Z</time>
      </trkpt>
      <trkpt lat="43.48998" lon="6.62458">
        <ele>39.9</ele>
        <time>2023-11-05T12:45:17Z</time>
      </trkpt>
      <trkpt lat="43.48997" lon="6.6246">
        <ele>39.8</ele>
        <time>2023-11-05T12:45:18Z</time>
      </trkpt>
      <trkpt lat="43.48996" lon="6.62461">
        <ele>39.7</ele>
        <time>2023-11-05T12:45:19Z</time>
      </trkpt>
      <trkpt lat="43.48995" lon="6.62462">
        <ele>39.7</ele>
        <time>2023-11-05T12:45:20Z</time>
      </trkpt>
      <trkpt lat="43.48995" lon="6.62463">
        <ele>39.6</ele>
        <time>2023-11-05T12:45:21Z</time>
      </trkpt>
      <trkpt lat="43.48994" lon="6.62464">
        <ele>39.6</ele>
        <time>2023-11-05T12:45:22Z</time>
      </trkpt>
      <trkpt lat="43.48993" lon="6.62465">
        <ele>39.6</ele>
        <time>2023-11-05T12:45:23Z</time>
      </trkpt>
      <trkpt lat="43.48992" lon="6.62466">
        <ele>39.5</ele>
        <time>2023-11-05T12:45:24Z</time>
      </trkpt>
      <trkpt lat="43.48991" lon="6.62467">
        <ele>39.4</ele>
        <time>2023-11-05T12:45:25Z</time>
      </trkpt>
      <trkpt lat="43.4899" lon="6.62468">
        <ele>39.3</ele>
        <time>2023-11-05T12:45:26Z</time>
      </trkpt>
      <trkpt lat="43.4899" lon="6.62469">
        <ele>39.1</ele>
        <time>2023-11-05T12:45:27Z</time>
      </trkpt>
      <trkpt lat="43.48989" lon="6.6247">
        <ele>39</ele>
        <time>2023-11-05T12:45:28Z</time>
      </trkpt>
      <trkpt lat="43.48988" lon="6.62471">
        <ele>38.9</ele>
        <time>2023-11-05T12:45:29Z</time>
      </trkpt>
      <trkpt lat="43.48987" lon="6.62473">
        <ele>38.8</ele>
        <time>2023-11-05T12:45:30Z</time>
      </trkpt>
      <trkpt lat="43.48987" lon="6.62474">
        <ele>38.8</ele>
        <time>2023-11-05T12:45:31Z</time>
      </trkpt>
      <trkpt lat="43.48985" lon="6.62475">
        <ele>38.8</ele>
        <time>2023-11-05T12:45:32Z</time>
      </trkpt>
      <trkpt lat="43.48985" lon="6.62476">
        <ele>38.8</ele>
        <time>2023-11-05T12:45:33Z</time>
      </trkpt>
      <trkpt lat="43.48984" lon="6.62477">
        <ele>38.8</ele>
        <time>2023-11-05T12:45:34Z</time>
      </trkpt>
      <trkpt lat="43.48984" lon="6.62478">
        <ele>38.7</ele>
        <time>2023-11-05T12:45:35Z</time>
      </trkpt>
      <trkpt lat="43.48983" lon="6.62479">
        <ele>38.6</ele>
        <time>2023-11-05T12:45:36Z</time>
      </trkpt>
      <trkpt lat="43.48982" lon="6.6248">
        <ele>38.6</ele>
        <time>2023-11-05T12:45:37Z</time>
      </trkpt>
      <trkpt lat="43.48981" lon="6.62481">
        <ele>38.5</ele>
        <time>2023-11-05T12:45:38Z</time>
      </trkpt>
      <trkpt lat="43.48981" lon="6.62483">
        <ele>38.5</ele>
        <time>2023-11-05T12:45:39Z</time>
      </trkpt>
      <trkpt lat="43.4898" lon="6.62484">
        <ele>38.4</ele>
        <time>2023-11-05T12:45:40Z</time>
      </trkpt>
      <trkpt lat="43.4898" lon="6.62486">
        <ele>38.4</ele>
        <time>2023-11-05T12:45:41Z</time>
      </trkpt>
      <trkpt lat="43.48979" lon="6.62487">
        <ele>38.3</ele>
        <time>2023-11-05T12:45:42Z</time>
      </trkpt>
      <trkpt lat="43.48979" lon="6.62489">
        <ele>38.3</ele>
        <time>2023-11-05T12:45:43Z</time>
      </trkpt>
      <trkpt lat="43.48979" lon="6.62491">
        <ele>38.2</ele>
        <time>2023-11-05T12:45:44Z</time>
      </trkpt>
      <trkpt lat="43.48978" lon="6.62492">
        <ele>38.1</ele>
        <time>2023-11-05T12:45:45Z</time>
      </trkpt>
      <trkpt lat="43.48978" lon="6.62493">
        <ele>38</ele>
        <time>2023-11-05T12:45:46Z</time>
      </trkpt>
      <trkpt lat="43.48977" lon="6.62495">
        <ele>37.9</ele>
        <time>2023-11-05T12:45:47Z</time>
      </trkpt>
      <trkpt lat="43.48977" lon="6.62496">
        <ele>37.8</ele>
        <time>2023-11-05T12:45:48Z</time>
      </trkpt>
      <trkpt lat="43.48977" lon="6.62498">
        <ele>37.8</ele>
        <time>2023-11-05T12:45:49Z</time>
      </trkpt>
      <trkpt lat="43.48977" lon="6.62499">
        <ele>37.7</ele>
        <time>2023-11-05T12:45:50Z</time>
      </trkpt>
      <trkpt lat="43.48977" lon="6.62501">
        <ele>37.7</ele>
        <time>2023-11-05T12:45:51Z</time>
      </trkpt>
      <trkpt lat="43.48976" lon="6.62502">
        <ele>37.6</ele>
        <time>2023-11-05T12:45:52Z</time>
      </trkpt>
      <trkpt lat="43.48975" lon="6.62504">
        <ele>37.5</ele>
        <time>2023-11-05T12:45:53Z</time>
      </trkpt>
      <trkpt lat="43.48975" lon="6.62505">
        <ele>37.4</ele>
        <time>2023-11-05T12:45:54Z</time>
      </trkpt>
      <trkpt lat="43.48975" lon="6.62507">
        <ele>37.3</ele>
        <time>2023-11-05T12:45:55Z</time>
      </trkpt>
      <trkpt lat="43.48975" lon="6.62508">
        <ele>37.2</ele>
        <time>2023-11-05T12:45:56Z</time>
      </trkpt>
      <trkpt lat="43.48975" lon="6.6251">
        <ele>37.1</ele>
        <time>2023-11-05T12:45:57Z</time>
      </trkpt>
      <trkpt lat="43.48975" lon="6.62511">
        <ele>37.1</ele>
        <time>2023-11-05T12:45:58Z</time>
      </trkpt>
      <trkpt lat="43.48975" lon="6.62512">
        <ele>37</ele>
        <time>2023-11-05T12:45:59Z</time>
      </trkpt>
      <trkpt lat="43.48975" lon="6.62513">
        <ele>36.9</ele>
        <time>2023-11-05T12:46:00Z</time>
      </trkpt>
      <trkpt lat="43.48975" lon="6.62515">
        <ele>36.9</ele>
        <time>2023-11-05T12:46:01Z</time>
      </trkpt>
      <trkpt lat="43.48975" lon="6.62516">
        <ele>36.9</ele>
        <time>2023-11-05T12:46:02Z</time>
      </trkpt>
      <trkpt lat="43.48975" lon="6.62517">
        <ele>36.8</ele>
        <time>2023-11-05T12:46:03Z</time>
      </trkpt>
      <trkpt lat="43.48975" lon="6.62518">
        <ele>36.8</ele>
        <time>2023-11-05T12:46:04Z</time>
      </trkpt>
      <trkpt lat="43.48975" lon="6.62519">
        <ele>36.7</ele>
        <time>2023-11-05T12:46:05Z</time>
      </trkpt>
      <trkpt lat="43.48975" lon="6.62521">
        <ele>36.7</ele>
        <time>2023-11-05T12:46:06Z</time>
      </trkpt>
      <trkpt lat="43.48975" lon="6.62522">
        <ele>36.5</ele>
        <time>2023-11-05T12:46:07Z</time>
      </trkpt>
      <trkpt lat="43.48975" lon="6.62524">
        <ele>36.4</ele>
        <time>2023-11-05T12:46:08Z</time>
      </trkpt>
      <trkpt lat="43.48975" lon="6.62525">
        <ele>36.3</ele>
        <time>2023-11-05T12:46:09Z</time>
      </trkpt>
      <trkpt lat="43.48975" lon="6.62527">
        <ele>36.3</ele>
        <time>2023-11-05T12:46:10Z</time>
      </trkpt>
      <trkpt lat="43.48976" lon="6.62529">
        <ele>36.1</ele>
        <time>2023-11-05T12:46:11Z</time>
      </trkpt>
      <trkpt lat="43.48976" lon="6.6253">
        <ele>36</ele>
        <time>2023-11-05T12:46:12Z</time>
      </trkpt>
      <trkpt lat="43.48976" lon="6.62532">
        <ele>35.8</ele>
        <time>2023-11-05T12:46:13Z</time>
      </trkpt>
      <trkpt lat="43.48976" lon="6.62532">
        <ele>35.7</ele>
        <time>2023-11-05T12:46:14Z</time>
      </trkpt>
      <trkpt lat="43.48977" lon="6.62533">
        <ele>35.6</ele>
        <time>2023-11-05T12:46:15Z</time>
      </trkpt>
      <trkpt lat="43.48977" lon="6.62535">
        <ele>35.5</ele>
        <time>2023-11-05T12:46:16Z</time>
      </trkpt>
      <trkpt lat="43.48978" lon="6.62536">
        <ele>35.4</ele>
        <time>2023-11-05T12:46:17Z</time>
      </trkpt>
      <trkpt lat="43.48978" lon="6.62538">
        <ele>35.3</ele>
        <time>2023-11-05T12:46:18Z</time>
      </trkpt>
      <trkpt lat="43.48978" lon="6.62539">
        <ele>35.5</ele>
        <time>2023-11-05T12:46:19Z</time>
      </trkpt>
      <trkpt lat="43.48978" lon="6.62541">
        <ele>35.5</ele>
        <time>2023-11-05T12:46:20Z</time>
      </trkpt>
      <trkpt lat="43.48978" lon="6.62542">
        <ele>35.5</ele>
        <time>2023-11-05T12:46:21Z</time>
      </trkpt>
      <trkpt lat="43.48979" lon="6.62543">
        <ele>35.4</ele>
        <time>2023-11-05T12:46:22Z</time>
      </trkpt>
      <trkpt lat="43.48979" lon="6.62545">
        <ele>35.4</ele>
        <time>2023-11-05T12:46:23Z</time>
      </trkpt>
      <trkpt lat="43.48978" lon="6.62546">
        <ele>35.3</ele>
        <time>2023-11-05T12:46:24Z</time>
      </trkpt>
      <trkpt lat="43.48978" lon="6.62548">
        <ele>35.2</ele>
        <time>2023-11-05T12:46:25Z</time>
      </trkpt>
      <trkpt lat="43.48977" lon="6.6255">
        <ele>35.1</ele>
        <time>2023-11-05T12:46:26Z</time>
      </trkpt>
      <trkpt lat="43.48977" lon="6.62551">
        <ele>35</ele>
        <time>2023-11-05T12:46:27Z</time>
      </trkpt>
      <trkpt lat="43.48977" lon="6.62553">
        <ele>35</ele>
        <time>2023-11-05T12:46:28Z</time>
      </trkpt>
      <trkpt lat="43.48976" lon="6.62554">
        <ele>34.9</ele>
        <time>2023-11-05T12:46:29Z</time>
      </trkpt>
      <trkpt lat="43.48976" lon="6.62555">
        <ele>35.1</ele>
        <time>2023-11-05T12:46:30Z</time>
      </trkpt>
      <trkpt lat="43.48976" lon="6.62557">
        <ele>35</ele>
        <time>2023-11-05T12:46:31Z</time>
      </trkpt>
      <trkpt lat="43.48975" lon="6.62558">
        <ele>34.9</ele>
        <time>2023-11-05T12:46:32Z</time>
      </trkpt>
      <trkpt lat="43.48974" lon="6.62559">
        <ele>34.8</ele>
        <time>2023-11-05T12:46:33Z</time>
      </trkpt>
      <trkpt lat="43.48974" lon="6.6256">
        <ele>34.8</ele>
        <time>2023-11-05T12:46:34Z</time>
      </trkpt>
      <trkpt lat="43.48973" lon="6.62561">
        <ele>34.7</ele>
        <time>2023-11-05T12:46:35Z</time>
      </trkpt>
      <trkpt lat="43.48973" lon="6.62563">
        <ele>34.6</ele>
        <time>2023-11-05T12:46:36Z</time>
      </trkpt>
      <trkpt lat="43.48972" lon="6.62564">
        <ele>34.5</ele>
        <time>2023-11-05T12:46:37Z</time>
      </trkpt>
      <trkpt lat="43.48972" lon="6.62565">
        <ele>34.4</ele>
        <time>2023-11-05T12:46:38Z</time>
      </trkpt>
      <trkpt lat="43.48971" lon="6.62566">
        <ele>34.3</ele>
        <time>2023-11-05T12:46:39Z</time>
      </trkpt>
      <trkpt lat="43.4897" lon="6.62567">
        <ele>34.3</ele>
        <time>2023-11-05T12:46:40Z</time>
      </trkpt>
      <trkpt lat="43.48969" lon="6.62568">
        <ele>34.2</ele>
        <time>2023-11-05T12:46:41Z</time>
      </trkpt>
      <trkpt lat="43.48968" lon="6.62569">
        <ele>34.1</ele>
        <time>2023-11-05T12:46:42Z</time>
      </trkpt>
      <trkpt lat="43.48967" lon="6.6257">
        <ele>34</ele>
        <time>2023-11-05T12:46:43Z</time>
      </trkpt>
      <trkpt lat="43.48966" lon="6.62571">
        <ele>33.9</ele>
        <time>2023-11-05T12:46:44Z</time>
      </trkpt>
      <trkpt lat="43.48966" lon="6.62572">
        <ele>33.8</ele>
        <time>2023-11-05T12:46:45Z</time>
      </trkpt>
      <trkpt lat="43.48965" lon="6.62573">
        <ele>33.7</ele>
        <time>2023-11-05T12:46:46Z</time>
      </trkpt>
      <trkpt lat="43.48964" lon="6.62573">
        <ele>33.7</ele>
        <time>2023-11-05T12:46:47Z</time>
      </trkpt>
      <trkpt lat="43.48963" lon="6.62574">
        <ele>33.6</ele>
        <time>2023-11-05T12:46:48Z</time>
      </trkpt>
      <trkpt lat="43.48962" lon="6.62575">
        <ele>33.6</ele>
        <time>2023-11-05T12:46:49Z</time>
      </trkpt>
      <trkpt lat="43.48961" lon="6.62576">
        <ele>33.5</ele>
        <time>2023-11-05T12:46:50Z</time>
      </trkpt>
      <trkpt lat="43.4896" lon="6.62577">
        <ele>33.4</ele>
        <time>2023-11-05T12:46:51Z</time>
      </trkpt>
      <trkpt lat="43.4896" lon="6.62578">
        <ele>33.3</ele>
        <time>2023-11-05T12:46:52Z</time>
      </trkpt>
      <trkpt lat="43.48959" lon="6.62579">
        <ele>33.3</ele>
        <time>2023-11-05T12:46:53Z</time>
      </trkpt>
      <trkpt lat="43.48958" lon="6.6258">
        <ele>33.2</ele>
        <time>2023-11-05T12:46:54Z</time>
      </trkpt>
      <trkpt lat="43.48957" lon="6.62581">
        <ele>33</ele>
        <time>2023-11-05T12:46:55Z</time>
      </trkpt>
      <trkpt lat="43.48956" lon="6.62582">
        <ele>33</ele>
        <time>2023-11-05T12:46:56Z</time>
      </trkpt>
      <trkpt lat="43.48955" lon="6.62584">
        <ele>32.8</ele>
        <time>2023-11-05T12:46:57Z</time>
      </trkpt>
      <trkpt lat="43.48954" lon="6.62585">
        <ele>32.7</ele>
        <time>2023-11-05T12:46:58Z</time>
      </trkpt>
      <trkpt lat="43.48953" lon="6.62586">
        <ele>32.6</ele>
        <time>2023-11-05T12:46:59Z</time>
      </trkpt>
      <trkpt lat="43.48952" lon="6.62587">
        <ele>32.6</ele>
        <time>2023-11-05T12:47:00Z</time>
      </trkpt>
      <trkpt lat="43.48951" lon="6.62588">
        <ele>32.5</ele>
        <time>2023-11-05T12:47:01Z</time>
      </trkpt>
      <trkpt lat="43.4895" lon="6.62588">
        <ele>32.4</ele>
        <time>2023-11-05T12:47:02Z</time>
      </trkpt>
      <trkpt lat="43.48949" lon="6.62589">
        <ele>32.4</ele>
        <time>2023-11-05T12:47:03Z</time>
      </trkpt>
      <trkpt lat="43.48948" lon="6.62589">
        <ele>32.4</ele>
        <time>2023-11-05T12:47:04Z</time>
      </trkpt>
      <trkpt lat="43.48947" lon="6.6259">
        <ele>32.4</ele>
        <time>2023-11-05T12:47:05Z</time>
      </trkpt>
      <trkpt lat="43.48947" lon="6.62591">
        <ele>32.3</ele>
        <time>2023-11-05T12:47:06Z</time>
      </trkpt>
      <trkpt lat="43.48946" lon="6.62591">
        <ele>32.3</ele>
        <time>2023-11-05T12:47:07Z</time>
      </trkpt>
      <trkpt lat="43.48945" lon="6.62592">
        <ele>32.3</ele>
        <time>2023-11-05T12:47:08Z</time>
      </trkpt>
      <trkpt lat="43.48944" lon="6.62593">
        <ele>32.4</ele>
        <time>2023-11-05T12:47:09Z</time>
      </trkpt>
      <trkpt lat="43.48944" lon="6.62593">
        <ele>32.4</ele>
        <time>2023-11-05T12:47:10Z</time>
      </trkpt>
      <trkpt lat="43.48943" lon="6.62594">
        <ele>32.2</ele>
        <time>2023-11-05T12:47:11Z</time>
      </trkpt>
      <trkpt lat="43.48941" lon="6.62594">
        <ele>32.1</ele>
        <time>2023-11-05T12:47:12Z</time>
      </trkpt>
      <trkpt lat="43.4894" lon="6.62594">
        <ele>32.1</ele>
        <time>2023-11-05T12:47:13Z</time>
      </trkpt>
      <trkpt lat="43.4894" lon="6.62595">
        <ele>32.2</ele>
        <time>2023-11-05T12:47:14Z</time>
      </trkpt>
      <trkpt lat="43.48939" lon="6.62595">
        <ele>32.2</ele>
        <time>2023-11-05T12:47:15Z</time>
      </trkpt>
      <trkpt lat="43.48938" lon="6.62595">
        <ele>32.2</ele>
        <time>2023-11-05T12:47:16Z</time>
      </trkpt>
      <trkpt lat="43.48937" lon="6.62595">
        <ele>32.2</ele>
        <time>2023-11-05T12:47:17Z</time>
      </trkpt>
      <trkpt lat="43.48937" lon="6.62595">
        <ele>32.1</ele>
        <time>2023-11-05T12:47:18Z</time>
      </trkpt>
      <trkpt lat="43.48937" lon="6.62594">
        <ele>32.1</ele>
        <time>2023-11-05T12:47:19Z</time>
      </trkpt>
      <trkpt lat="43.48936" lon="6.62593">
        <ele>32</ele>
        <time>2023-11-05T12:47:20Z</time>
      </trkpt>
      <trkpt lat="43.48936" lon="6.62593">
        <ele>32</ele>
        <time>2023-11-05T12:47:21Z</time>
      </trkpt>
      <trkpt lat="43.48936" lon="6.62593">
        <ele>32</ele>
        <time>2023-11-05T12:47:22Z</time>
      </trkpt>
      <trkpt lat="43.48936" lon="6.62593">
        <ele>32.1</ele>
        <time>2023-11-05T12:47:23Z</time>
      </trkpt>
      <trkpt lat="43.48936" lon="6.62593">
        <ele>32.1</ele>
        <time>2023-11-05T12:47:24Z</time>
      </trkpt>
      <trkpt lat="43.48935" lon="6.62593">
        <ele>32.1</ele>
        <time>2023-11-05T12:47:25Z</time>
      </trkpt>
      <trkpt lat="43.48935" lon="6.62593">
        <ele>32.2</ele>
        <time>2023-11-05T12:47:26Z</time>
      </trkpt>
      <trkpt lat="43.48935" lon="6.62593">
        <ele>32.2</ele>
        <time>2023-11-05T12:47:27Z</time>
      </trkpt>
      <trkpt lat="43.48935" lon="6.62593">
        <ele>32.2</ele>
        <time>2023-11-05T12:47:28Z</time>
      </trkpt>
      <trkpt lat="43.48935" lon="6.62593">
        <ele>32.3</ele>
        <time>2023-11-05T12:47:29Z</time>
      </trkpt>
      <trkpt lat="43.48935" lon="6.62594">
        <ele>32.3</ele>
        <time>2023-11-05T12:47:30Z</time>
      </trkpt>
      <trkpt lat="43.48935" lon="6.62593">
        <ele>32.3</ele>
        <time>2023-11-05T12:47:31Z</time>
      </trkpt>
      <trkpt lat="43.48934" lon="6.62592">
        <ele>32.3</ele>
        <time>2023-11-05T12:47:32Z</time>
      </trkpt>
      <trkpt lat="43.48934" lon="6.62592">
        <ele>32.3</ele>
        <time>2023-11-05T12:47:33Z</time>
      </trkpt>
      <trkpt lat="43.48933" lon="6.62591">
        <ele>32.3</ele>
        <time>2023-11-05T12:47:34Z</time>
      </trkpt>
      <trkpt lat="43.48933" lon="6.6259">
        <ele>32.3</ele>
        <time>2023-11-05T12:47:35Z</time>
      </trkpt>
      <trkpt lat="43.48933" lon="6.62589">
        <ele>32.2</ele>
        <time>2023-11-05T12:47:36Z</time>
      </trkpt>
      <trkpt lat="43.48932" lon="6.62587">
        <ele>32.2</ele>
        <time>2023-11-05T12:47:37Z</time>
      </trkpt>
      <trkpt lat="43.48932" lon="6.62586">
        <ele>32.2</ele>
        <time>2023-11-05T12:47:38Z</time>
      </trkpt>
      <trkpt lat="43.48931" lon="6.62585">
        <ele>32.2</ele>
        <time>2023-11-05T12:47:39Z</time>
      </trkpt>
      <trkpt lat="43.4893" lon="6.62584">
        <ele>32.2</ele>
        <time>2023-11-05T12:47:40Z</time>
      </trkpt>
      <trkpt lat="43.4893" lon="6.62583">
        <ele>32.3</ele>
        <time>2023-11-05T12:47:41Z</time>
      </trkpt>
      <trkpt lat="43.48929" lon="6.62582">
        <ele>32.3</ele>
        <time>2023-11-05T12:47:42Z</time>
      </trkpt>
      <trkpt lat="43.48928" lon="6.62582">
        <ele>32.3</ele>
        <time>2023-11-05T12:47:43Z</time>
      </trkpt>
      <trkpt lat="43.48927" lon="6.62581">
        <ele>32.3</ele>
        <time>2023-11-05T12:47:44Z</time>
      </trkpt>
      <trkpt lat="43.48926" lon="6.62581">
        <ele>32.2</ele>
        <time>2023-11-05T12:47:45Z</time>
      </trkpt>
      <trkpt lat="43.48925" lon="6.6258">
        <ele>32.1</ele>
        <time>2023-11-05T12:47:46Z</time>
      </trkpt>
      <trkpt lat="43.48924" lon="6.6258">
        <ele>32.1</ele>
        <time>2023-11-05T12:47:47Z</time>
      </trkpt>
      <trkpt lat="43.48923" lon="6.62579">
        <ele>32</ele>
        <time>2023-11-05T12:47:48Z</time>
      </trkpt>
      <trkpt lat="43.48922" lon="6.62578">
        <ele>31.9</ele>
        <time>2023-11-05T12:47:49Z</time>
      </trkpt>
      <trkpt lat="43.48921" lon="6.62577">
        <ele>31.9</ele>
        <time>2023-11-05T12:47:50Z</time>
      </trkpt>
      <trkpt lat="43.4892" lon="6.62577">
        <ele>31.9</ele>
        <time>2023-11-05T12:47:51Z</time>
      </trkpt>
      <trkpt lat="43.48919" lon="6.62576">
        <ele>32</ele>
        <time>2023-11-05T12:47:52Z</time>
      </trkpt>
      <trkpt lat="43.48919" lon="6.62576">
        <ele>32</ele>
        <time>2023-11-05T12:47:53Z</time>
      </trkpt>
      <trkpt lat="43.48918" lon="6.62575">
        <ele>31.9</ele>
        <time>2023-11-05T12:47:54Z</time>
      </trkpt>
      <trkpt lat="43.48917" lon="6.62574">
        <ele>32</ele>
        <time>2023-11-05T12:47:55Z</time>
      </trkpt>
      <trkpt lat="43.48917" lon="6.62574">
        <ele>32.2</ele>
        <time>2023-11-05T12:47:56Z</time>
      </trkpt>
      <trkpt lat="43.48917" lon="6.62573">
        <ele>32.2</ele>
        <time>2023-11-05T12:47:57Z</time>
      </trkpt>
      <trkpt lat="43.48917" lon="6.62572">
        <ele>32.2</ele>
        <time>2023-11-05T12:47:58Z</time>
      </trkpt>
      <trkpt lat="43.48917" lon="6.62572">
        <ele>32.2</ele>
        <time>2023-11-05T12:47:59Z</time>
      </trkpt>
      <trkpt lat="43.48917" lon="6.62571">
        <ele>32.2</ele>
        <time>2023-11-05T12:48:00Z</time>
      </trkpt>
      <trkpt lat="43.48917" lon="6.6257">
        <ele>32.3</ele>
        <time>2023-11-05T12:48:01Z</time>
      </trkpt>
      <trkpt lat="43.48917" lon="6.6257">
        <ele>32.5</ele>
        <time>2023-11-05T12:48:02Z</time>
      </trkpt>
      <trkpt lat="43.48917" lon="6.62569">
        <ele>32.7</ele>
        <time>2023-11-05T12:48:03Z</time>
      </trkpt>
      <trkpt lat="43.48918" lon="6.62567">
        <ele>32.8</ele>
        <time>2023-11-05T12:48:04Z</time>
      </trkpt>
      <trkpt lat="43.48918" lon="6.62566">
        <ele>32.9</ele>
        <time>2023-11-05T12:48:05Z</time>
      </trkpt>
      <trkpt lat="43.48918" lon="6.62565">
        <ele>33</ele>
        <time>2023-11-05T12:48:06Z</time>
      </trkpt>
      <trkpt lat="43.48917" lon="6.62564">
        <ele>33</ele>
        <time>2023-11-05T12:48:07Z</time>
      </trkpt>
      <trkpt lat="43.48917" lon="6.62563">
        <ele>33.1</ele>
        <time>2023-11-05T12:48:08Z</time>
      </trkpt>
      <trkpt lat="43.48916" lon="6.62562">
        <ele>33.1</ele>
        <time>2023-11-05T12:48:09Z</time>
      </trkpt>
      <trkpt lat="43.48916" lon="6.62561">
        <ele>33.2</ele>
        <time>2023-11-05T12:48:10Z</time>
      </trkpt>
      <trkpt lat="43.48916" lon="6.6256">
        <ele>33.1</ele>
        <time>2023-11-05T12:48:11Z</time>
      </trkpt>
      <trkpt lat="43.48915" lon="6.62559">
        <ele>33.1</ele>
        <time>2023-11-05T12:48:12Z</time>
      </trkpt>
      <trkpt lat="43.48915" lon="6.62559">
        <ele>33.2</ele>
        <time>2023-11-05T12:48:13Z</time>
      </trkpt>
      <trkpt lat="43.48915" lon="6.62557">
        <ele>33.3</ele>
        <time>2023-11-05T12:48:14Z</time>
      </trkpt>
      <trkpt lat="43.48916" lon="6.62556">
        <ele>33.3</ele>
        <time>2023-11-05T12:48:15Z</time>
      </trkpt>
      <trkpt lat="43.48916" lon="6.62555">
        <ele>33.2</ele>
        <time>2023-11-05T12:48:16Z</time>
      </trkpt>
      <trkpt lat="43.48916" lon="6.62554">
        <ele>33.1</ele>
        <time>2023-11-05T12:48:17Z</time>
      </trkpt>
      <trkpt lat="43.48916" lon="6.62552">
        <ele>33</ele>
        <time>2023-11-05T12:48:18Z</time>
      </trkpt>
      <trkpt lat="43.48917" lon="6.62551">
        <ele>33</ele>
        <time>2023-11-05T12:48:19Z</time>
      </trkpt>
      <trkpt lat="43.48917" lon="6.62551">
        <ele>33</ele>
        <time>2023-11-05T12:48:20Z</time>
      </trkpt>
      <trkpt lat="43.48917" lon="6.6255">
        <ele>33.1</ele>
        <time>2023-11-05T12:48:21Z</time>
      </trkpt>
      <trkpt lat="43.48918" lon="6.62549">
        <ele>33.2</ele>
        <time>2023-11-05T12:48:22Z</time>
      </trkpt>
      <trkpt lat="43.48918" lon="6.62549">
        <ele>33.3</ele>
        <time>2023-11-05T12:48:23Z</time>
      </trkpt>
      <trkpt lat="43.48919" lon="6.62548">
        <ele>33.4</ele>
        <time>2023-11-05T12:48:24Z</time>
      </trkpt>
      <trkpt lat="43.48919" lon="6.62547">
        <ele>33.6</ele>
        <time>2023-11-05T12:48:25Z</time>
      </trkpt>
      <trkpt lat="43.48919" lon="6.62545">
        <ele>33.7</ele>
        <time>2023-11-05T12:48:26Z</time>
      </trkpt>
      <trkpt lat="43.4892" lon="6.62544">
        <ele>33.9</ele>
        <time>2023-11-05T12:48:27Z</time>
      </trkpt>
      <trkpt lat="43.4892" lon="6.62544">
        <ele>34</ele>
        <time>2023-11-05T12:48:28Z</time>
      </trkpt>
      <trkpt lat="43.4892" lon="6.62543">
        <ele>34.1</ele>
        <time>2023-11-05T12:48:29Z</time>
      </trkpt>
      <trkpt lat="43.48921" lon="6.62543">
        <ele>34.1</ele>
        <time>2023-11-05T12:48:30Z</time>
      </trkpt>
      <trkpt lat="43.48921" lon="6.62542">
        <ele>34.1</ele>
        <time>2023-11-05T12:48:31Z</time>
      </trkpt>
      <trkpt lat="43.48921" lon="6.62541">
        <ele>34.1</ele>
        <time>2023-11-05T12:48:32Z</time>
      </trkpt>
      <trkpt lat="43.48922" lon="6.6254">
        <ele>34.1</ele>
        <time>2023-11-05T12:48:33Z</time>
      </trkpt>
      <trkpt lat="43.48922" lon="6.62539">
        <ele>34.1</ele>
        <time>2023-11-05T12:48:34Z</time>
      </trkpt>
      <trkpt lat="43.48923" lon="6.62538">
        <ele>34.1</ele>
        <time>2023-11-05T12:48:35Z</time>
      </trkpt>
      <trkpt lat="43.48923" lon="6.62537">
        <ele>34.1</ele>
        <time>2023-11-05T12:48:36Z</time>
      </trkpt>
      <trkpt lat="43.48922" lon="6.62536">
        <ele>34.1</ele>
        <time>2023-11-05T12:48:37Z</time>
      </trkpt>
      <trkpt lat="43.48922" lon="6.62535">
        <ele>33.9</ele>
        <time>2023-11-05T12:48:38Z</time>
      </trkpt>
      <trkpt lat="43.48922" lon="6.62534">
        <ele>33.8</ele>
        <time>2023-11-05T12:48:39Z</time>
      </trkpt>
      <trkpt lat="43.48922" lon="6.62532">
        <ele>33.7</ele>
        <time>2023-11-05T12:48:40Z</time>
      </trkpt>
      <trkpt lat="43.48921" lon="6.62531">
        <ele>33.6</ele>
        <time>2023-11-05T12:48:41Z</time>
      </trkpt>
      <trkpt lat="43.48921" lon="6.6253">
        <ele>33.5</ele>
        <time>2023-11-05T12:48:42Z</time>
      </trkpt>
      <trkpt lat="43.4892" lon="6.6253">
        <ele>33.4</ele>
        <time>2023-11-05T12:48:43Z</time>
      </trkpt>
      <trkpt lat="43.48919" lon="6.62529">
        <ele>33.3</ele>
        <time>2023-11-05T12:48:44Z</time>
      </trkpt>
      <trkpt lat="43.48919" lon="6.62528">
        <ele>33.2</ele>
        <time>2023-11-05T12:48:45Z</time>
      </trkpt>
      <trkpt lat="43.48918" lon="6.62527">
        <ele>33.1</ele>
        <time>2023-11-05T12:48:46Z</time>
      </trkpt>
      <trkpt lat="43.48918" lon="6.62525">
        <ele>33</ele>
        <time>2023-11-05T12:48:47Z</time>
      </trkpt>
      <trkpt lat="43.48917" lon="6.62524">
        <ele>33</ele>
        <time>2023-11-05T12:48:48Z</time>
      </trkpt>
      <trkpt lat="43.48917" lon="6.62523">
        <ele>32.9</ele>
        <time>2023-11-05T12:48:49Z</time>
      </trkpt>
      <trkpt lat="43.48916" lon="6.62523">
        <ele>32.7</ele>
        <time>2023-11-05T12:48:50Z</time>
      </trkpt>
      <trkpt lat="43.48916" lon="6.62522">
        <ele>32.6</ele>
        <time>2023-11-05T12:48:51Z</time>
      </trkpt>
      <trkpt lat="43.48915" lon="6.62521">
        <ele>32.5</ele>
        <time>2023-11-05T12:48:52Z</time>
      </trkpt>
      <trkpt lat="43.48915" lon="6.6252">
        <ele>32.4</ele>
        <time>2023-11-05T12:48:53Z</time>
      </trkpt>
      <trkpt lat="43.48914" lon="6.62519">
        <ele>32.4</ele>
        <time>2023-11-05T12:48:54Z</time>
      </trkpt>
      <trkpt lat="43.48914" lon="6.62518">
        <ele>32.3</ele>
        <time>2023-11-05T12:48:55Z</time>
      </trkpt>
      <trkpt lat="43.48914" lon="6.62517">
        <ele>32.1</ele>
        <time>2023-11-05T12:48:56Z</time>
      </trkpt>
      <trkpt lat="43.48914" lon="6.62517">
        <ele>31.9</ele>
        <time>2023-11-05T12:48:57Z</time>
      </trkpt>
      <trkpt lat="43.48913" lon="6.62516">
        <ele>31.8</ele>
        <time>2023-11-05T12:48:58Z</time>
      </trkpt>
      <trkpt lat="43.48913" lon="6.62515">
        <ele>31.7</ele>
        <time>2023-11-05T12:48:59Z</time>
      </trkpt>
      <trkpt lat="43.48913" lon="6.62514">
        <ele>31.6</ele>
        <time>2023-11-05T12:49:00Z</time>
      </trkpt>
      <trkpt lat="43.48912" lon="6.62512">
        <ele>31.6</ele>
        <time>2023-11-05T12:49:01Z</time>
      </trkpt>
      <trkpt lat="43.48912" lon="6.62512">
        <ele>31.5</ele>
        <time>2023-11-05T12:49:02Z</time>
      </trkpt>
      <trkpt lat="43.48911" lon="6.62511">
        <ele>31.4</ele>
        <time>2023-11-05T12:49:03Z</time>
      </trkpt>
      <trkpt lat="43.48911" lon="6.6251">
        <ele>31.3</ele>
        <time>2023-11-05T12:49:04Z</time>
      </trkpt>
      <trkpt lat="43.4891" lon="6.62509">
        <ele>31.2</ele>
        <time>2023-11-05T12:49:05Z</time>
      </trkpt>
      <trkpt lat="43.4891" lon="6.62508">
        <ele>31.1</ele>
        <time>2023-11-05T12:49:06Z</time>
      </trkpt>
      <trkpt lat="43.48909" lon="6.62507">
        <ele>31</ele>
        <time>2023-11-05T12:49:07Z</time>
      </trkpt>
      <trkpt lat="43.48908" lon="6.62505">
        <ele>30.9</ele>
        <time>2023-11-05T12:49:08Z</time>
      </trkpt>
      <trkpt lat="43.48908" lon="6.62504">
        <ele>30.8</ele>
        <time>2023-11-05T12:49:09Z</time>
      </trkpt>
      <trkpt lat="43.48908" lon="6.62502">
        <ele>30.8</ele>
        <time>2023-11-05T12:49:10Z</time>
      </trkpt>
      <trkpt lat="43.48908" lon="6.62501">
        <ele>30.8</ele>
        <time>2023-11-05T12:49:11Z</time>
      </trkpt>
      <trkpt lat="43.48908" lon="6.62499">
        <ele>30.8</ele>
        <time>2023-11-05T12:49:12Z</time>
      </trkpt>
      <trkpt lat="43.48908" lon="6.62497">
        <ele>30.9</ele>
        <time>2023-11-05T12:49:13Z</time>
      </trkpt>
      <trkpt lat="43.48909" lon="6.62496">
        <ele>30.9</ele>
        <time>2023-11-05T12:49:14Z</time>
      </trkpt>
      <trkpt lat="43.48909" lon="6.62495">
        <ele>30.9</ele>
        <time>2023-11-05T12:49:15Z</time>
      </trkpt>
      <trkpt lat="43.48909" lon="6.62493">
        <ele>31</ele>
        <time>2023-11-05T12:49:16Z</time>
      </trkpt>
      <trkpt lat="43.48909" lon="6.62492">
        <ele>31.2</ele>
        <time>2023-11-05T12:49:17Z</time>
      </trkpt>
      <trkpt lat="43.48909" lon="6.6249">
        <ele>31.3</ele>
        <time>2023-11-05T12:49:18Z</time>
      </trkpt>
      <trkpt lat="43.4891" lon="6.62489">
        <ele>31.4</ele>
        <time>2023-11-05T12:49:19Z</time>
      </trkpt>
      <trkpt lat="43.4891" lon="6.62488">
        <ele>31.6</ele>
        <time>2023-11-05T12:49:20Z</time>
      </trkpt>
      <trkpt lat="43.4891" lon="6.62486">
        <ele>31.6</ele>
        <time>2023-11-05T12:49:21Z</time>
      </trkpt>
      <trkpt lat="43.48911" lon="6.62486">
        <ele>31.6</ele>
        <time>2023-11-05T12:49:22Z</time>
      </trkpt>
      <trkpt lat="43.48911" lon="6.62484">
        <ele>31.6</ele>
        <time>2023-11-05T12:49:23Z</time>
      </trkpt>
      <trkpt lat="43.48912" lon="6.62484">
        <ele>31.6</ele>
        <time>2023-11-05T12:49:24Z</time>
      </trkpt>
      <trkpt lat="43.48913" lon="6.62483">
        <ele>31.7</ele>
        <time>2023-11-05T12:49:25Z</time>
      </trkpt>
      <trkpt lat="43.48914" lon="6.62483">
        <ele>31.8</ele>
        <time>2023-11-05T12:49:26Z</time>
      </trkpt>
      <trkpt lat="43.48914" lon="6.62483">
        <ele>31.8</ele>
        <time>2023-11-05T12:49:27Z</time>
      </trkpt>
      <trkpt lat="43.48915" lon="6.62483">
        <ele>31.9</ele>
        <time>2023-11-05T12:49:28Z</time>
      </trkpt>
      <trkpt lat="43.48916" lon="6.62484">
        <ele>32</ele>
        <time>2023-11-05T12:49:29Z</time>
      </trkpt>
      <trkpt lat="43.48916" lon="6.62485">
        <ele>32.1</ele>
        <time>2023-11-05T12:49:30Z</time>
      </trkpt>
      <trkpt lat="43.48917" lon="6.62486">
        <ele>32.1</ele>
        <time>2023-11-05T12:49:31Z</time>
      </trkpt>
      <trkpt lat="43.48917" lon="6.62486">
        <ele>32.2</ele>
        <time>2023-11-05T12:49:32Z</time>
      </trkpt>
      <trkpt lat="43.48917" lon="6.62487">
        <ele>32.3</ele>
        <time>2023-11-05T12:49:33Z</time>
      </trkpt>
      <trkpt lat="43.48917" lon="6.62488">
        <ele>32.5</ele>
        <time>2023-11-05T12:49:34Z</time>
      </trkpt>
      <trkpt lat="43.48918" lon="6.6249">
        <ele>32.6</ele>
        <time>2023-11-05T12:49:35Z</time>
      </trkpt>
      <trkpt lat="43.48918" lon="6.62491">
        <ele>32.7</ele>
        <time>2023-11-05T12:49:36Z</time>
      </trkpt>
      <trkpt lat="43.48918" lon="6.62491">
        <ele>32.9</ele>
        <time>2023-11-05T12:49:37Z</time>
      </trkpt>
      <trkpt lat="43.48919" lon="6.62492">
        <ele>32.9</ele>
        <time>2023-11-05T12:49:38Z</time>
      </trkpt>
      <trkpt lat="43.4892" lon="6.62492">
        <ele>32.9</ele>
        <time>2023-11-05T12:49:39Z</time>
      </trkpt>
      <trkpt lat="43.48921" lon="6.62492">
        <ele>33</ele>
        <time>2023-11-05T12:49:40Z</time>
      </trkpt>
      <trkpt lat="43.48922" lon="6.62491">
        <ele>33.1</ele>
        <time>2023-11-05T12:49:41Z</time>
      </trkpt>
      <trkpt lat="43.48923" lon="6.62491">
        <ele>33.2</ele>
        <time>2023-11-05T12:49:42Z</time>
      </trkpt>
      <trkpt lat="43.48924" lon="6.62491">
        <ele>33.2</ele>
        <time>2023-11-05T12:49:43Z</time>
      </trkpt>
      <trkpt lat="43.48925" lon="6.6249">
        <ele>33.2</ele>
        <time>2023-11-05T12:49:44Z</time>
      </trkpt>
      <trkpt lat="43.48926" lon="6.6249">
        <ele>33.2</ele>
        <time>2023-11-05T12:49:45Z</time>
      </trkpt>
      <trkpt lat="43.48927" lon="6.62491">
        <ele>33.1</ele>
        <time>2023-11-05T12:49:46Z</time>
      </trkpt>
      <trkpt lat="43.48928" lon="6.62491">
        <ele>33.2</ele>
        <time>2023-11-05T12:49:47Z</time>
      </trkpt>
      <trkpt lat="43.48929" lon="6.62492">
        <ele>33.2</ele>
        <time>2023-11-05T12:49:48Z</time>
      </trkpt>
      <trkpt lat="43.4893" lon="6.62493">
        <ele>33.3</ele>
        <time>2023-11-05T12:49:49Z</time>
      </trkpt>
      <trkpt lat="43.48931" lon="6.62493">
        <ele>33.3</ele>
        <time>2023-11-05T12:49:50Z</time>
      </trkpt>
      <trkpt lat="43.48932" lon="6.62493">
        <ele>33.4</ele>
        <time>2023-11-05T12:49:51Z</time>
      </trkpt>
      <trkpt lat="43.48933" lon="6.62494">
        <ele>33.4</ele>
        <time>2023-11-05T12:49:52Z</time>
      </trkpt>
      <trkpt lat="43.48933" lon="6.62494">
        <ele>33.4</ele>
        <time>2023-11-05T12:49:53Z</time>
      </trkpt>
      <trkpt lat="43.48934" lon="6.62494">
        <ele>33.4</ele>
        <time>2023-11-05T12:49:54Z</time>
      </trkpt>
      <trkpt lat="43.48935" lon="6.62494">
        <ele>33.5</ele>
        <time>2023-11-05T12:49:55Z</time>
      </trkpt>
      <trkpt lat="43.48936" lon="6.62494">
        <ele>33.5</ele>
        <time>2023-11-05T12:49:56Z</time>
      </trkpt>
      <trkpt lat="43.48937" lon="6.62493">
        <ele>33.7</ele>
        <time>2023-11-05T12:49:57Z</time>
      </trkpt>
      <trkpt lat="43.48937" lon="6.62492">
        <ele>33.7</ele>
        <time>2023-11-05T12:49:58Z</time>
      </trkpt>
      <trkpt lat="43.48938" lon="6.6249">
        <ele>33.7</ele>
        <time>2023-11-05T12:49:59Z</time>
      </trkpt>
      <trkpt lat="43.48938" lon="6.62489">
        <ele>33.7</ele>
        <time>2023-11-05T12:50:00Z</time>
      </trkpt>
      <trkpt lat="43.48938" lon="6.62488">
        <ele>33.6</ele>
        <time>2023-11-05T12:50:01Z</time>
      </trkpt>
      <trkpt lat="43.48938" lon="6.62486">
        <ele>33.6</ele>
        <time>2023-11-05T12:50:02Z</time>
      </trkpt>
      <trkpt lat="43.48939" lon="6.62485">
        <ele>33.5</ele>
        <time>2023-11-05T12:50:03Z</time>
      </trkpt>
      <trkpt lat="43.48939" lon="6.62483">
        <ele>33.4</ele>
        <time>2023-11-05T12:50:04Z</time>
      </trkpt>
      <trkpt lat="43.48939" lon="6.62481">
        <ele>33.4</ele>
        <time>2023-11-05T12:50:05Z</time>
      </trkpt>
      <trkpt lat="43.48939" lon="6.62479">
        <ele>33.3</ele>
        <time>2023-11-05T12:50:06Z</time>
      </trkpt>
      <trkpt lat="43.48939" lon="6.62478">
        <ele>33.3</ele>
        <time>2023-11-05T12:50:07Z</time>
      </trkpt>
      <trkpt lat="43.48939" lon="6.62477">
        <ele>33.3</ele>
        <time>2023-11-05T12:50:08Z</time>
      </trkpt>
      <trkpt lat="43.48939" lon="6.62476">
        <ele>33.4</ele>
        <time>2023-11-05T12:50:09Z</time>
      </trkpt>
      <trkpt lat="43.48939" lon="6.62475">
        <ele>33.3</ele>
        <time>2023-11-05T12:50:10Z</time>
      </trkpt>
      <trkpt lat="43.48939" lon="6.62474">
        <ele>33.3</ele>
        <time>2023-11-05T12:50:11Z</time>
      </trkpt>
      <trkpt lat="43.48938" lon="6.62473">
        <ele>33.3</ele>
        <time>2023-11-05T12:50:12Z</time>
      </trkpt>
      <trkpt lat="43.48937" lon="6.62471">
        <ele>33.3</ele>
        <time>2023-11-05T12:50:13Z</time>
      </trkpt>
      <trkpt lat="43.48937" lon="6.6247">
        <ele>33.3</ele>
        <time>2023-11-05T12:50:14Z</time>
      </trkpt>
      <trkpt lat="43.48936" lon="6.62469">
        <ele>33.4</ele>
        <time>2023-11-05T12:50:15Z</time>
      </trkpt>
      <trkpt lat="43.48936" lon="6.62467">
        <ele>33.5</ele>
        <time>2023-11-05T12:50:16Z</time>
      </trkpt>
      <trkpt lat="43.48935" lon="6.62466">
        <ele>33.5</ele>
        <time>2023-11-05T12:50:17Z</time>
      </trkpt>
      <trkpt lat="43.48935" lon="6.62465">
        <ele>33.6</ele>
        <time>2023-11-05T12:50:18Z</time>
      </trkpt>
      <trkpt lat="43.48936" lon="6.62464">
        <ele>33.6</ele>
        <time>2023-11-05T12:50:19Z</time>
      </trkpt>
      <trkpt lat="43.48936" lon="6.62463">
        <ele>33.6</ele>
        <time>2023-11-05T12:50:20Z</time>
      </trkpt>
      <trkpt lat="43.48937" lon="6.62462">
        <ele>33.7</ele>
        <time>2023-11-05T12:50:21Z</time>
      </trkpt>
      <trkpt lat="43.48937" lon="6.62461">
        <ele>33.8</ele>
        <time>2023-11-05T12:50:22Z</time>
      </trkpt>
      <trkpt lat="43.48937" lon="6.62459">
        <ele>34</ele>
        <time>2023-11-05T12:50:23Z</time>
      </trkpt>
      <trkpt lat="43.48937" lon="6.62458">
        <ele>34.2</ele>
        <time>2023-11-05T12:50:24Z</time>
      </trkpt>
      <trkpt lat="43.48937" lon="6.62456">
        <ele>34.3</ele>
        <time>2023-11-05T12:50:25Z</time>
      </trkpt>
      <trkpt lat="43.48937" lon="6.62455">
        <ele>34.4</ele>
        <time>2023-11-05T12:50:26Z</time>
      </trkpt>
      <trkpt lat="43.48937" lon="6.62454">
        <ele>34.5</ele>
        <time>2023-11-05T12:50:27Z</time>
      </trkpt>
      <trkpt lat="43.48937" lon="6.62453">
        <ele>34.4</ele>
        <time>2023-11-05T12:50:28Z</time>
      </trkpt>
      <trkpt lat="43.48937" lon="6.62452">
        <ele>34.3</ele>
        <time>2023-11-05T12:50:29Z</time>
      </trkpt>
      <trkpt lat="43.48937" lon="6.6245">
        <ele>34.2</ele>
        <time>2023-11-05T12:50:30Z</time>
      </trkpt>
      <trkpt lat="43.48937" lon="6.62449">
        <ele>34.1</ele>
        <time>2023-11-05T12:50:31Z</time>
      </trkpt>
      <trkpt lat="43.48937" lon="6.62447">
        <ele>34</ele>
        <time>2023-11-05T12:50:32Z</time>
      </trkpt>
      <trkpt lat="43.48936" lon="6.62446">
        <ele>33.9</ele>
        <time>2023-11-05T12:50:33Z</time>
      </trkpt>
      <trkpt lat="43.48936" lon="6.62444">
        <ele>33.8</ele>
        <time>2023-11-05T12:50:34Z</time>
      </trkpt>
      <trkpt lat="43.48937" lon="6.62443">
        <ele>33.7</ele>
        <time>2023-11-05T12:50:35Z</time>
      </trkpt>
      <trkpt lat="43.48936" lon="6.62441">
        <ele>33.5</ele>
        <time>2023-11-05T12:50:36Z</time>
      </trkpt>
      <trkpt lat="43.48937" lon="6.6244">
        <ele>33.4</ele>
        <time>2023-11-05T12:50:37Z</time>
      </trkpt>
      <trkpt lat="43.48937" lon="6.62438">
        <ele>33.4</ele>
        <time>2023-11-05T12:50:38Z</time>
      </trkpt>
      <trkpt lat="43.48937" lon="6.62437">
        <ele>33.3</ele>
        <time>2023-11-05T12:50:39Z</time>
      </trkpt>
      <trkpt lat="43.48939" lon="6.62436">
        <ele>33.3</ele>
        <time>2023-11-05T12:50:40Z</time>
      </trkpt>
      <trkpt lat="43.48939" lon="6.62434">
        <ele>33.3</ele>
        <time>2023-11-05T12:50:41Z</time>
      </trkpt>
      <trkpt lat="43.48939" lon="6.62433">
        <ele>33.2</ele>
        <time>2023-11-05T12:50:42Z</time>
      </trkpt>
      <trkpt lat="43.48939" lon="6.62432">
        <ele>33.2</ele>
        <time>2023-11-05T12:50:43Z</time>
      </trkpt>
      <trkpt lat="43.48939" lon="6.62432">
        <ele>33.4</ele>
        <time>2023-11-05T12:50:44Z</time>
      </trkpt>
      <trkpt lat="43.4894" lon="6.6243">
        <ele>33.4</ele>
        <time>2023-11-05T12:50:45Z</time>
      </trkpt>
      <trkpt lat="43.4894" lon="6.62429">
        <ele>33.5</ele>
        <time>2023-11-05T12:50:46Z</time>
      </trkpt>
      <trkpt lat="43.4894" lon="6.62427">
        <ele>33.5</ele>
        <time>2023-11-05T12:50:47Z</time>
      </trkpt>
      <trkpt lat="43.4894" lon="6.62426">
        <ele>33.6</ele>
        <time>2023-11-05T12:50:48Z</time>
      </trkpt>
      <trkpt lat="43.4894" lon="6.62425">
        <ele>33.6</ele>
        <time>2023-11-05T12:50:49Z</time>
      </trkpt>
      <trkpt lat="43.4894" lon="6.62423">
        <ele>33.7</ele>
        <time>2023-11-05T12:50:50Z</time>
      </trkpt>
      <trkpt lat="43.4894" lon="6.62422">
        <ele>33.7</ele>
        <time>2023-11-05T12:50:51Z</time>
      </trkpt>
      <trkpt lat="43.48941" lon="6.62421">
        <ele>33.8</ele>
        <time>2023-11-05T12:50:52Z</time>
      </trkpt>
      <trkpt lat="43.48941" lon="6.62419">
        <ele>33.8</ele>
        <time>2023-11-05T12:50:53Z</time>
      </trkpt>
      <trkpt lat="43.48942" lon="6.62418">
        <ele>33.8</ele>
        <time>2023-11-05T12:50:54Z</time>
      </trkpt>
      <trkpt lat="43.48943" lon="6.62418">
        <ele>33.7</ele>
        <time>2023-11-05T12:50:55Z</time>
      </trkpt>
      <trkpt lat="43.48943" lon="6.62417">
        <ele>33.7</ele>
        <time>2023-11-05T12:50:56Z</time>
      </trkpt>
      <trkpt lat="43.48944" lon="6.62416">
        <ele>33.6</ele>
        <time>2023-11-05T12:50:57Z</time>
      </trkpt>
      <trkpt lat="43.48945" lon="6.62416">
        <ele>33.6</ele>
        <time>2023-11-05T12:50:58Z</time>
      </trkpt>
      <trkpt lat="43.48946" lon="6.62415">
        <ele>33.6</ele>
        <time>2023-11-05T12:50:59Z</time>
      </trkpt>
      <trkpt lat="43.48946" lon="6.62414">
        <ele>33.6</ele>
        <time>2023-11-05T12:51:00Z</time>
      </trkpt>
      <trkpt lat="43.48946" lon="6.62412">
        <ele>33.7</ele>
        <time>2023-11-05T12:51:01Z</time>
      </trkpt>
      <trkpt lat="43.48946" lon="6.6241">
        <ele>33.7</ele>
        <time>2023-11-05T12:51:02Z</time>
      </trkpt>
      <trkpt lat="43.48946" lon="6.62409">
        <ele>33.7</ele>
        <time>2023-11-05T12:51:03Z</time>
      </trkpt>
      <trkpt lat="43.48947" lon="6.62409">
        <ele>33.8</ele>
        <time>2023-11-05T12:51:04Z</time>
      </trkpt>
      <trkpt lat="43.48946" lon="6.62408">
        <ele>33.7</ele>
        <time>2023-11-05T12:51:05Z</time>
      </trkpt>
      <trkpt lat="43.48946" lon="6.62408">
        <ele>33.8</ele>
        <time>2023-11-05T12:51:06Z</time>
      </trkpt>
      <trkpt lat="43.48946" lon="6.62407">
        <ele>33.8</ele>
        <time>2023-11-05T12:51:07Z</time>
      </trkpt>
      <trkpt lat="43.48946" lon="6.62406">
        <ele>33.8</ele>
        <time>2023-11-05T12:51:08Z</time>
      </trkpt>
      <trkpt lat="43.48946" lon="6.62406">
        <ele>33.8</ele>
        <time>2023-11-05T12:51:09Z</time>
      </trkpt>
      <trkpt lat="43.48945" lon="6.62405">
        <ele>33.8</ele>
        <time>2023-11-05T12:51:10Z</time>
      </trkpt>
      <trkpt lat="43.48945" lon="6.62405">
        <ele>33.8</ele>
        <time>2023-11-05T12:51:11Z</time>
      </trkpt>
      <trkpt lat="43.48945" lon="6.62405">
        <ele>33.8</ele>
        <time>2023-11-05T12:51:12Z</time>
      </trkpt>
      <trkpt lat="43.48945" lon="6.62404">
        <ele>33.7</ele>
        <time>2023-11-05T12:51:13Z</time>
      </trkpt>
      <trkpt lat="43.48945" lon="6.62404">
        <ele>33.7</ele>
        <time>2023-11-05T12:51:14Z</time>
      </trkpt>
      <trkpt lat="43.48945" lon="6.62404">
        <ele>33.6</ele>
        <time>2023-11-05T12:51:15Z</time>
      </trkpt>
      <trkpt lat="43.48944" lon="6.62404">
        <ele>33.6</ele>
        <time>2023-11-05T12:51:16Z</time>
      </trkpt>
      <trkpt lat="43.48944" lon="6.62404">
        <ele>33.5</ele>
        <time>2023-11-05T12:51:17Z</time>
      </trkpt>
      <trkpt lat="43.48944" lon="6.62404">
        <ele>33.4</ele>
        <time>2023-11-05T12:51:18Z</time>
      </trkpt>
      <trkpt lat="43.48944" lon="6.62404">
        <ele>33.4</ele>
        <time>2023-11-05T12:51:19Z</time>
      </trkpt>
      <trkpt lat="43.48944" lon="6.62404">
        <ele>33.4</ele>
        <time>2023-11-05T12:51:20Z</time>
      </trkpt>
      <trkpt lat="43.48944" lon="6.62404">
        <ele>33.5</ele>
        <time>2023-11-05T12:51:21Z</time>
      </trkpt>
      <trkpt lat="43.48944" lon="6.62404">
        <ele>33.6</ele>
        <time>2023-11-05T12:51:22Z</time>
      </trkpt>
      <trkpt lat="43.48944" lon="6.62404">
        <ele>33.6</ele>
        <time>2023-11-05T12:51:23Z</time>
      </trkpt>
      <trkpt lat="43.48944" lon="6.62404">
        <ele>33.7</ele>
        <time>2023-11-05T12:51:24Z</time>
      </trkpt>
      <trkpt lat="43.48944" lon="6.62404">
        <ele>33.7</ele>
        <time>2023-11-05T12:51:25Z</time>
      </trkpt>
      <trkpt lat="43.48944" lon="6.62403">
        <ele>33.8</ele>
        <time>2023-11-05T12:51:26Z</time>
      </trkpt>
      <trkpt lat="43.48944" lon="6.62403">
        <ele>33.8</ele>
        <time>2023-11-05T12:51:27Z</time>
      </trkpt>
      <trkpt lat="43.48944" lon="6.62403">
        <ele>33.7</ele>
        <time>2023-11-05T12:51:28Z</time>
      </trkpt>
      <trkpt lat="43.48944" lon="6.62403">
        <ele>33.7</ele>
        <time>2023-11-05T12:51:29Z</time>
      </trkpt>
      <trkpt lat="43.48944" lon="6.62403">
        <ele>33.7</ele>
        <time>2023-11-05T12:51:30Z</time>
      </trkpt>
      <trkpt lat="43.48944" lon="6.62403">
        <ele>33.6</ele>
        <time>2023-11-05T12:51:31Z</time>
      </trkpt>
      <trkpt lat="43.48944" lon="6.62403">
        <ele>33.6</ele>
        <time>2023-11-05T12:51:32Z</time>
      </trkpt>
      <trkpt lat="43.48944" lon="6.62403">
        <ele>33.6</ele>
        <time>2023-11-05T12:51:33Z</time>
      </trkpt>
      <trkpt lat="43.48944" lon="6.62403">
        <ele>33.6</ele>
        <time>2023-11-05T12:51:34Z</time>
      </trkpt>
      <trkpt lat="43.48944" lon="6.62403">
        <ele>33.6</ele>
        <time>2023-11-05T12:51:35Z</time>
      </trkpt>
      <trkpt lat="43.48944" lon="6.62403">
        <ele>33.7</ele>
        <time>2023-11-05T12:51:36Z</time>
      </trkpt>
      <trkpt lat="43.48944" lon="6.62403">
        <ele>33.5</ele>
        <time>2023-11-05T12:51:37Z</time>
      </trkpt>
      <trkpt lat="43.48944" lon="6.62403">
        <ele>33.6</ele>
        <time>2023-11-05T12:51:38Z</time>
      </trkpt>
      <trkpt lat="43.48944" lon="6.62402">
        <ele>33.6</ele>
        <time>2023-11-05T12:51:39Z</time>
      </trkpt>
      <trkpt lat="43.48944" lon="6.62402">
        <ele>33.6</ele>
        <time>2023-11-05T12:51:40Z</time>
      </trkpt>
      <trkpt lat="43.48944" lon="6.62402">
        <ele>33.6</ele>
        <time>2023-11-05T12:51:41Z</time>
      </trkpt>
      <trkpt lat="43.48944" lon="6.62402">
        <ele>33.6</ele>
        <time>2023-11-05T12:51:42Z</time>
      </trkpt>
      <trkpt lat="43.48944" lon="6.62403">
        <ele>33.7</ele>
        <time>2023-11-05T12:51:43Z</time>
      </trkpt>
      <trkpt lat="43.48945" lon="6.62403">
        <ele>33.9</ele>
        <time>2023-11-05T12:51:44Z</time>
      </trkpt>
      <trkpt lat="43.48945" lon="6.62403">
        <ele>33.9</ele>
        <time>2023-11-05T12:51:45Z</time>
      </trkpt>
      <trkpt lat="43.48946" lon="6.62402">
        <ele>34.1</ele>
        <time>2023-11-05T12:51:46Z</time>
      </trkpt>
      <trkpt lat="43.48947" lon="6.62401">
        <ele>34.1</ele>
        <time>2023-11-05T12:51:47Z</time>
      </trkpt>
      <trkpt lat="43.48947" lon="6.62401">
        <ele>34.1</ele>
        <time>2023-11-05T12:51:48Z</time>
      </trkpt>
      <trkpt lat="43.48948" lon="6.624">
        <ele>34.1</ele>
        <time>2023-11-05T12:51:49Z</time>
      </trkpt>
      <trkpt lat="43.48949" lon="6.62399">
        <ele>34.2</ele>
        <time>2023-11-05T12:51:50Z</time>
      </trkpt>
      <trkpt lat="43.4895" lon="6.62398">
        <ele>34.2</ele>
        <time>2023-11-05T12:51:51Z</time>
      </trkpt>
      <trkpt lat="43.48951" lon="6.62397">
        <ele>34.2</ele>
        <time>2023-11-05T12:51:52Z</time>
      </trkpt>
      <trkpt lat="43.48951" lon="6.62396">
        <ele>34.2</ele>
        <time>2023-11-05T12:51:53Z</time>
      </trkpt>
      <trkpt lat="43.48952" lon="6.62394">
        <ele>34.3</ele>
        <time>2023-11-05T12:51:54Z</time>
      </trkpt>
      <trkpt lat="43.48952" lon="6.62393">
        <ele>34.2</ele>
        <time>2023-11-05T12:51:55Z</time>
      </trkpt>
      <trkpt lat="43.48952" lon="6.62391">
        <ele>34.2</ele>
        <time>2023-11-05T12:51:56Z</time>
      </trkpt>
      <trkpt lat="43.48952" lon="6.62389">
        <ele>34.2</ele>
        <time>2023-11-05T12:51:57Z</time>
      </trkpt>
      <trkpt lat="43.48952" lon="6.62387">
        <ele>34.2</ele>
        <time>2023-11-05T12:51:58Z</time>
      </trkpt>
      <trkpt lat="43.48952" lon="6.62386">
        <ele>34.2</ele>
        <time>2023-11-05T12:51:59Z</time>
      </trkpt>
      <trkpt lat="43.48951" lon="6.62385">
        <ele>34.3</ele>
        <time>2023-11-05T12:52:00Z</time>
      </trkpt>
      <trkpt lat="43.48951" lon="6.62384">
        <ele>34.3</ele>
        <time>2023-11-05T12:52:01Z</time>
      </trkpt>
      <trkpt lat="43.48951" lon="6.62382">
        <ele>34.2</ele>
        <time>2023-11-05T12:52:02Z</time>
      </trkpt>
      <trkpt lat="43.48951" lon="6.62381">
        <ele>34.1</ele>
        <time>2023-11-05T12:52:03Z</time>
      </trkpt>
      <trkpt lat="43.48952" lon="6.6238">
        <ele>34.2</ele>
        <time>2023-11-05T12:52:04Z</time>
      </trkpt>
      <trkpt lat="43.48952" lon="6.62378">
        <ele>34.2</ele>
        <time>2023-11-05T12:52:05Z</time>
      </trkpt>
      <trkpt lat="43.48953" lon="6.62377">
        <ele>34.3</ele>
        <time>2023-11-05T12:52:06Z</time>
      </trkpt>
      <trkpt lat="43.48953" lon="6.62376">
        <ele>34.4</ele>
        <time>2023-11-05T12:52:07Z</time>
      </trkpt>
      <trkpt lat="43.48953" lon="6.62374">
        <ele>34.2</ele>
        <time>2023-11-05T12:52:08Z</time>
      </trkpt>
      <trkpt lat="43.48953" lon="6.62372">
        <ele>34</ele>
        <time>2023-11-05T12:52:09Z</time>
      </trkpt>
      <trkpt lat="43.48953" lon="6.62371">
        <ele>33.9</ele>
        <time>2023-11-05T12:52:10Z</time>
      </trkpt>
      <trkpt lat="43.48954" lon="6.62369">
        <ele>33.7</ele>
        <time>2023-11-05T12:52:11Z</time>
      </trkpt>
      <trkpt lat="43.48954" lon="6.62368">
        <ele>33.5</ele>
        <time>2023-11-05T12:52:12Z</time>
      </trkpt>
      <trkpt lat="43.48953" lon="6.62368">
        <ele>33.3</ele>
        <time>2023-11-05T12:52:13Z</time>
      </trkpt>
      <trkpt lat="43.48953" lon="6.62367">
        <ele>33.2</ele>
        <time>2023-11-05T12:52:14Z</time>
      </trkpt>
      <trkpt lat="43.48953" lon="6.62366">
        <ele>33.1</ele>
        <time>2023-11-05T12:52:15Z</time>
      </trkpt>
      <trkpt lat="43.48953" lon="6.62364">
        <ele>33</ele>
        <time>2023-11-05T12:52:16Z</time>
      </trkpt>
      <trkpt lat="43.48953" lon="6.62363">
        <ele>33</ele>
        <time>2023-11-05T12:52:17Z</time>
      </trkpt>
      <trkpt lat="43.48954" lon="6.62361">
        <ele>33</ele>
        <time>2023-11-05T12:52:18Z</time>
      </trkpt>
      <trkpt lat="43.48954" lon="6.6236">
        <ele>33</ele>
        <time>2023-11-05T12:52:19Z</time>
      </trkpt>
      <trkpt lat="43.48955" lon="6.62359">
        <ele>32.9</ele>
        <time>2023-11-05T12:52:20Z</time>
      </trkpt>
      <trkpt lat="43.48955" lon="6.62357">
        <ele>32.8</ele>
        <time>2023-11-05T12:52:21Z</time>
      </trkpt>
      <trkpt lat="43.48955" lon="6.62357">
        <ele>32.8</ele>
        <time>2023-11-05T12:52:22Z</time>
      </trkpt>
      <trkpt lat="43.48955" lon="6.62356">
        <ele>32.8</ele>
        <time>2023-11-05T12:52:23Z</time>
      </trkpt>
      <trkpt lat="43.48956" lon="6.62355">
        <ele>32.8</ele>
        <time>2023-11-05T12:52:24Z</time>
      </trkpt>
      <trkpt lat="43.48956" lon="6.62355">
        <ele>32.8</ele>
        <time>2023-11-05T12:52:25Z</time>
      </trkpt>
      <trkpt lat="43.48957" lon="6.62355">
        <ele>32.8</ele>
        <time>2023-11-05T12:52:26Z</time>
      </trkpt>
      <trkpt lat="43.48957" lon="6.62354">
        <ele>32.9</ele>
        <time>2023-11-05T12:52:27Z</time>
      </trkpt>
      <trkpt lat="43.48957" lon="6.62353">
        <ele>33</ele>
        <time>2023-11-05T12:52:28Z</time>
      </trkpt>
      <trkpt lat="43.48957" lon="6.62352">
        <ele>33.1</ele>
        <time>2023-11-05T12:52:29Z</time>
      </trkpt>
      <trkpt lat="43.48957" lon="6.62351">
        <ele>33.2</ele>
        <time>2023-11-05T12:52:30Z</time>
      </trkpt>
      <trkpt lat="43.48957" lon="6.6235">
        <ele>33.3</ele>
        <time>2023-11-05T12:52:31Z</time>
      </trkpt>
      <trkpt lat="43.48957" lon="6.62348">
        <ele>33.5</ele>
        <time>2023-11-05T12:52:32Z</time>
      </trkpt>
      <trkpt lat="43.48957" lon="6.62347">
        <ele>33.6</ele>
        <time>2023-11-05T12:52:33Z</time>
      </trkpt>
      <trkpt lat="43.48957" lon="6.62345">
        <ele>33.8</ele>
        <time>2023-11-05T12:52:34Z</time>
      </trkpt>
      <trkpt lat="43.48957" lon="6.62344">
        <ele>33.9</ele>
        <time>2023-11-05T12:52:35Z</time>
      </trkpt>
      <trkpt lat="43.48957" lon="6.62342">
        <ele>34</ele>
        <time>2023-11-05T12:52:36Z</time>
      </trkpt>
      <trkpt lat="43.48957" lon="6.62341">
        <ele>34</ele>
        <time>2023-11-05T12:52:37Z</time>
      </trkpt>
      <trkpt lat="43.48956" lon="6.6234">
        <ele>34.1</ele>
        <time>2023-11-05T12:52:38Z</time>
      </trkpt>
      <trkpt lat="43.48956" lon="6.62339">
        <ele>34.1</ele>
        <time>2023-11-05T12:52:39Z</time>
      </trkpt>
      <trkpt lat="43.48956" lon="6.62338">
        <ele>34.1</ele>
        <time>2023-11-05T12:52:40Z</time>
      </trkpt>
      <trkpt lat="43.48955" lon="6.62337">
        <ele>34</ele>
        <time>2023-11-05T12:52:41Z</time>
      </trkpt>
      <trkpt lat="43.48955" lon="6.62337">
        <ele>33.9</ele>
        <time>2023-11-05T12:52:42Z</time>
      </trkpt>
      <trkpt lat="43.48955" lon="6.62336">
        <ele>33.8</ele>
        <time>2023-11-05T12:52:43Z</time>
      </trkpt>
      <trkpt lat="43.48954" lon="6.62336">
        <ele>33.8</ele>
        <time>2023-11-05T12:52:44Z</time>
      </trkpt>
      <trkpt lat="43.48954" lon="6.62335">
        <ele>33.8</ele>
        <time>2023-11-05T12:52:45Z</time>
      </trkpt>
      <trkpt lat="43.48954" lon="6.62334">
        <ele>33.8</ele>
        <time>2023-11-05T12:52:46Z</time>
      </trkpt>
      <trkpt lat="43.48954" lon="6.62333">
        <ele>33.9</ele>
        <time>2023-11-05T12:52:47Z</time>
      </trkpt>
      <trkpt lat="43.48954" lon="6.62333">
        <ele>34</ele>
        <time>2023-11-05T12:52:48Z</time>
      </trkpt>
      <trkpt lat="43.48953" lon="6.62332">
        <ele>34.1</ele>
        <time>2023-11-05T12:52:49Z</time>
      </trkpt>
      <trkpt lat="43.48952" lon="6.62331">
        <ele>34.1</ele>
        <time>2023-11-05T12:52:50Z</time>
      </trkpt>
      <trkpt lat="43.48951" lon="6.6233">
        <ele>34.1</ele>
        <time>2023-11-05T12:52:51Z</time>
      </trkpt>
      <trkpt lat="43.48951" lon="6.6233">
        <ele>34.1</ele>
        <time>2023-11-05T12:52:52Z</time>
      </trkpt>
      <trkpt lat="43.4895" lon="6.6233">
        <ele>34.1</ele>
        <time>2023-11-05T12:52:53Z</time>
      </trkpt>
      <trkpt lat="43.4895" lon="6.62329">
        <ele>34.2</ele>
        <time>2023-11-05T12:52:54Z</time>
      </trkpt>
      <trkpt lat="43.48948" lon="6.62329">
        <ele>34.2</ele>
        <time>2023-11-05T12:52:55Z</time>
      </trkpt>
      <trkpt lat="43.48948" lon="6.62329">
        <ele>34.2</ele>
        <time>2023-11-05T12:52:56Z</time>
      </trkpt>
      <trkpt lat="43.48947" lon="6.62328">
        <ele>34.1</ele>
        <time>2023-11-05T12:52:57Z</time>
      </trkpt>
      <trkpt lat="43.48947" lon="6.62327">
        <ele>34.1</ele>
        <time>2023-11-05T12:52:58Z</time>
      </trkpt>
      <trkpt lat="43.48946" lon="6.62326">
        <ele>33.9</ele>
        <time>2023-11-05T12:52:59Z</time>
      </trkpt>
      <trkpt lat="43.48945" lon="6.62325">
        <ele>33.8</ele>
        <time>2023-11-05T12:53:00Z</time>
      </trkpt>
      <trkpt lat="43.48944" lon="6.62324">
        <ele>33.7</ele>
        <time>2023-11-05T12:53:01Z</time>
      </trkpt>
      <trkpt lat="43.48944" lon="6.62323">
        <ele>33.6</ele>
        <time>2023-11-05T12:53:02Z</time>
      </trkpt>
      <trkpt lat="43.48943" lon="6.62322">
        <ele>33.6</ele>
        <time>2023-11-05T12:53:03Z</time>
      </trkpt>
      <trkpt lat="43.48942" lon="6.62322">
        <ele>33.6</ele>
        <time>2023-11-05T12:53:04Z</time>
      </trkpt>
      <trkpt lat="43.48941" lon="6.6232">
        <ele>33.5</ele>
        <time>2023-11-05T12:53:05Z</time>
      </trkpt>
      <trkpt lat="43.4894" lon="6.62319">
        <ele>33.4</ele>
        <time>2023-11-05T12:53:06Z</time>
      </trkpt>
      <trkpt lat="43.4894" lon="6.62317">
        <ele>33.3</ele>
        <time>2023-11-05T12:53:07Z</time>
      </trkpt>
      <trkpt lat="43.48939" lon="6.62316">
        <ele>33.4</ele>
        <time>2023-11-05T12:53:08Z</time>
      </trkpt>
      <trkpt lat="43.48938" lon="6.62315">
        <ele>33.4</ele>
        <time>2023-11-05T12:53:09Z</time>
      </trkpt>
      <trkpt lat="43.48937" lon="6.62314">
        <ele>33.3</ele>
        <time>2023-11-05T12:53:10Z</time>
      </trkpt>
      <trkpt lat="43.48937" lon="6.62313">
        <ele>33.2</ele>
        <time>2023-11-05T12:53:11Z</time>
      </trkpt>
      <trkpt lat="43.48936" lon="6.62312">
        <ele>33.1</ele>
        <time>2023-11-05T12:53:12Z</time>
      </trkpt>
      <trkpt lat="43.48935" lon="6.6231">
        <ele>32.9</ele>
        <time>2023-11-05T12:53:13Z</time>
      </trkpt>
      <trkpt lat="43.48935" lon="6.62309">
        <ele>32.8</ele>
        <time>2023-11-05T12:53:14Z</time>
      </trkpt>
      <trkpt lat="43.48934" lon="6.62307">
        <ele>32.7</ele>
        <time>2023-11-05T12:53:15Z</time>
      </trkpt>
      <trkpt lat="43.48933" lon="6.62305">
        <ele>32.6</ele>
        <time>2023-11-05T12:53:16Z</time>
      </trkpt>
      <trkpt lat="43.48932" lon="6.62305">
        <ele>32.5</ele>
        <time>2023-11-05T12:53:17Z</time>
      </trkpt>
      <trkpt lat="43.48932" lon="6.62304">
        <ele>32.5</ele>
        <time>2023-11-05T12:53:18Z</time>
      </trkpt>
      <trkpt lat="43.48931" lon="6.62303">
        <ele>32.5</ele>
        <time>2023-11-05T12:53:19Z</time>
      </trkpt>
      <trkpt lat="43.48931" lon="6.62303">
        <ele>32.4</ele>
        <time>2023-11-05T12:53:20Z</time>
      </trkpt>
      <trkpt lat="43.4893" lon="6.62303">
        <ele>32.4</ele>
        <time>2023-11-05T12:53:21Z</time>
      </trkpt>
      <trkpt lat="43.48929" lon="6.62302">
        <ele>32.3</ele>
        <time>2023-11-05T12:53:22Z</time>
      </trkpt>
      <trkpt lat="43.48929" lon="6.62301">
        <ele>32.2</ele>
        <time>2023-11-05T12:53:23Z</time>
      </trkpt>
      <trkpt lat="43.48928" lon="6.623">
        <ele>32.2</ele>
        <time>2023-11-05T12:53:24Z</time>
      </trkpt>
      <trkpt lat="43.48928" lon="6.62298">
        <ele>32.2</ele>
        <time>2023-11-05T12:53:25Z</time>
      </trkpt>
      <trkpt lat="43.48928" lon="6.62297">
        <ele>32.3</ele>
        <time>2023-11-05T12:53:26Z</time>
      </trkpt>
      <trkpt lat="43.48928" lon="6.62296">
        <ele>32.4</ele>
        <time>2023-11-05T12:53:27Z</time>
      </trkpt>
      <trkpt lat="43.48927" lon="6.62295">
        <ele>32.5</ele>
        <time>2023-11-05T12:53:28Z</time>
      </trkpt>
      <trkpt lat="43.48926" lon="6.62294">
        <ele>32.6</ele>
        <time>2023-11-05T12:53:29Z</time>
      </trkpt>
      <trkpt lat="43.48925" lon="6.62294">
        <ele>32.8</ele>
        <time>2023-11-05T12:53:30Z</time>
      </trkpt>
      <trkpt lat="43.48924" lon="6.62294">
        <ele>32.9</ele>
        <time>2023-11-05T12:53:31Z</time>
      </trkpt>
      <trkpt lat="43.48923" lon="6.62294">
        <ele>33</ele>
        <time>2023-11-05T12:53:32Z</time>
      </trkpt>
      <trkpt lat="43.48922" lon="6.62294">
        <ele>33.1</ele>
        <time>2023-11-05T12:53:33Z</time>
      </trkpt>
      <trkpt lat="43.48921" lon="6.62295">
        <ele>33.2</ele>
        <time>2023-11-05T12:53:34Z</time>
      </trkpt>
      <trkpt lat="43.4892" lon="6.62295">
        <ele>33.2</ele>
        <time>2023-11-05T12:53:35Z</time>
      </trkpt>
      <trkpt lat="43.48919" lon="6.62296">
        <ele>33.2</ele>
        <time>2023-11-05T12:53:36Z</time>
      </trkpt>
      <trkpt lat="43.48918" lon="6.62297">
        <ele>33.3</ele>
        <time>2023-11-05T12:53:37Z</time>
      </trkpt>
      <trkpt lat="43.48917" lon="6.62297">
        <ele>33.4</ele>
        <time>2023-11-05T12:53:38Z</time>
      </trkpt>
      <trkpt lat="43.48916" lon="6.62298">
        <ele>33.4</ele>
        <time>2023-11-05T12:53:39Z</time>
      </trkpt>
      <trkpt lat="43.48915" lon="6.62299">
        <ele>33.2</ele>
        <time>2023-11-05T12:53:40Z</time>
      </trkpt>
      <trkpt lat="43.48914" lon="6.623">
        <ele>33.1</ele>
        <time>2023-11-05T12:53:41Z</time>
      </trkpt>
      <trkpt lat="43.48913" lon="6.62301">
        <ele>33</ele>
        <time>2023-11-05T12:53:42Z</time>
      </trkpt>
      <trkpt lat="43.48913" lon="6.62302">
        <ele>32.9</ele>
        <time>2023-11-05T12:53:43Z</time>
      </trkpt>
      <trkpt lat="43.48912" lon="6.62304">
        <ele>32.8</ele>
        <time>2023-11-05T12:53:44Z</time>
      </trkpt>
      <trkpt lat="43.48911" lon="6.62305">
        <ele>32.8</ele>
        <time>2023-11-05T12:53:45Z</time>
      </trkpt>
      <trkpt lat="43.4891" lon="6.62306">
        <ele>32.8</ele>
        <time>2023-11-05T12:53:46Z</time>
      </trkpt>
      <trkpt lat="43.48909" lon="6.62307">
        <ele>32.8</ele>
        <time>2023-11-05T12:53:47Z</time>
      </trkpt>
      <trkpt lat="43.48909" lon="6.62309">
        <ele>32.8</ele>
        <time>2023-11-05T12:53:48Z</time>
      </trkpt>
      <trkpt lat="43.48909" lon="6.62311">
        <ele>32.7</ele>
        <time>2023-11-05T12:53:49Z</time>
      </trkpt>
      <trkpt lat="43.48908" lon="6.62312">
        <ele>32.7</ele>
        <time>2023-11-05T12:53:50Z</time>
      </trkpt>
      <trkpt lat="43.48908" lon="6.62314">
        <ele>32.6</ele>
        <time>2023-11-05T12:53:51Z</time>
      </trkpt>
      <trkpt lat="43.48908" lon="6.62316">
        <ele>32.7</ele>
        <time>2023-11-05T12:53:52Z</time>
      </trkpt>
      <trkpt lat="43.48907" lon="6.62317">
        <ele>32.7</ele>
        <time>2023-11-05T12:53:53Z</time>
      </trkpt>
      <trkpt lat="43.48907" lon="6.62318">
        <ele>32.7</ele>
        <time>2023-11-05T12:53:54Z</time>
      </trkpt>
      <trkpt lat="43.48906" lon="6.62319">
        <ele>32.7</ele>
        <time>2023-11-05T12:53:55Z</time>
      </trkpt>
      <trkpt lat="43.48906" lon="6.62321">
        <ele>32.8</ele>
        <time>2023-11-05T12:53:56Z</time>
      </trkpt>
      <trkpt lat="43.48905" lon="6.62323">
        <ele>32.8</ele>
        <time>2023-11-05T12:53:57Z</time>
      </trkpt>
      <trkpt lat="43.48905" lon="6.62324">
        <ele>32.8</ele>
        <time>2023-11-05T12:53:58Z</time>
      </trkpt>
      <trkpt lat="43.48905" lon="6.62325">
        <ele>32.9</ele>
        <time>2023-11-05T12:53:59Z</time>
      </trkpt>
      <trkpt lat="43.48904" lon="6.62327">
        <ele>32.9</ele>
        <time>2023-11-05T12:54:00Z</time>
      </trkpt>
      <trkpt lat="43.48904" lon="6.62328">
        <ele>32.9</ele>
        <time>2023-11-05T12:54:01Z</time>
      </trkpt>
      <trkpt lat="43.48903" lon="6.62329">
        <ele>33</ele>
        <time>2023-11-05T12:54:02Z</time>
      </trkpt>
      <trkpt lat="43.48903" lon="6.6233">
        <ele>33</ele>
        <time>2023-11-05T12:54:03Z</time>
      </trkpt>
      <trkpt lat="43.48903" lon="6.62331">
        <ele>33.1</ele>
        <time>2023-11-05T12:54:04Z</time>
      </trkpt>
      <trkpt lat="43.48903" lon="6.62332">
        <ele>33.2</ele>
        <time>2023-11-05T12:54:05Z</time>
      </trkpt>
      <trkpt lat="43.48903" lon="6.62332">
        <ele>33.3</ele>
        <time>2023-11-05T12:54:06Z</time>
      </trkpt>
      <trkpt lat="43.48903" lon="6.62332">
        <ele>33.3</ele>
        <time>2023-11-05T12:54:07Z</time>
      </trkpt>
      <trkpt lat="43.48903" lon="6.62333">
        <ele>33.4</ele>
        <time>2023-11-05T12:54:08Z</time>
      </trkpt>
      <trkpt lat="43.48903" lon="6.62334">
        <ele>33.4</ele>
        <time>2023-11-05T12:54:09Z</time>
      </trkpt>
      <trkpt lat="43.48902" lon="6.62335">
        <ele>33.5</ele>
        <time>2023-11-05T12:54:10Z</time>
      </trkpt>
      <trkpt lat="43.48902" lon="6.62337">
        <ele>33.5</ele>
        <time>2023-11-05T12:54:11Z</time>
      </trkpt>
      <trkpt lat="43.48901" lon="6.62338">
        <ele>33.5</ele>
        <time>2023-11-05T12:54:12Z</time>
      </trkpt>
      <trkpt lat="43.489" lon="6.6234">
        <ele>33.7</ele>
        <time>2023-11-05T12:54:13Z</time>
      </trkpt>
      <trkpt lat="43.489" lon="6.62341">
        <ele>33.7</ele>
        <time>2023-11-05T12:54:14Z</time>
      </trkpt>
      <trkpt lat="43.48899" lon="6.62342">
        <ele>33.7</ele>
        <time>2023-11-05T12:54:15Z</time>
      </trkpt>
      <trkpt lat="43.48899" lon="6.62343">
        <ele>33.7</ele>
        <time>2023-11-05T12:54:16Z</time>
      </trkpt>
      <trkpt lat="43.48899" lon="6.62345">
        <ele>33.7</ele>
        <time>2023-11-05T12:54:17Z</time>
      </trkpt>
      <trkpt lat="43.48899" lon="6.62346">
        <ele>33.6</ele>
        <time>2023-11-05T12:54:18Z</time>
      </trkpt>
      <trkpt lat="43.48898" lon="6.62347">
        <ele>33.5</ele>
        <time>2023-11-05T12:54:19Z</time>
      </trkpt>
      <trkpt lat="43.48898" lon="6.62348">
        <ele>33.6</ele>
        <time>2023-11-05T12:54:20Z</time>
      </trkpt>
      <trkpt lat="43.48897" lon="6.6235">
        <ele>33.5</ele>
        <time>2023-11-05T12:54:21Z</time>
      </trkpt>
      <trkpt lat="43.48896" lon="6.62352">
        <ele>33.5</ele>
        <time>2023-11-05T12:54:22Z</time>
      </trkpt>
      <trkpt lat="43.48896" lon="6.62352">
        <ele>33.5</ele>
        <time>2023-11-05T12:54:23Z</time>
      </trkpt>
      <trkpt lat="43.48896" lon="6.62353">
        <ele>33.5</ele>
        <time>2023-11-05T12:54:24Z</time>
      </trkpt>
      <trkpt lat="43.48895" lon="6.62354">
        <ele>33.6</ele>
        <time>2023-11-05T12:54:25Z</time>
      </trkpt>
      <trkpt lat="43.48894" lon="6.62356">
        <ele>33.6</ele>
        <time>2023-11-05T12:54:26Z</time>
      </trkpt>
      <trkpt lat="43.48894" lon="6.62357">
        <ele>33.6</ele>
        <time>2023-11-05T12:54:27Z</time>
      </trkpt>
      <trkpt lat="43.48893" lon="6.62358">
        <ele>33.6</ele>
        <time>2023-11-05T12:54:28Z</time>
      </trkpt>
      <trkpt lat="43.48892" lon="6.62359">
        <ele>33.6</ele>
        <time>2023-11-05T12:54:29Z</time>
      </trkpt>
      <trkpt lat="43.48891" lon="6.6236">
        <ele>33.6</ele>
        <time>2023-11-05T12:54:30Z</time>
      </trkpt>
      <trkpt lat="43.48891" lon="6.62362">
        <ele>33.6</ele>
        <time>2023-11-05T12:54:31Z</time>
      </trkpt>
      <trkpt lat="43.4889" lon="6.62363">
        <ele>33.6</ele>
        <time>2023-11-05T12:54:32Z</time>
      </trkpt>
      <trkpt lat="43.4889" lon="6.62365">
        <ele>33.5</ele>
        <time>2023-11-05T12:54:33Z</time>
      </trkpt>
      <trkpt lat="43.48889" lon="6.62366">
        <ele>33.4</ele>
        <time>2023-11-05T12:54:34Z</time>
      </trkpt>
      <trkpt lat="43.48888" lon="6.62367">
        <ele>33.3</ele>
        <time>2023-11-05T12:54:35Z</time>
      </trkpt>
      <trkpt lat="43.48888" lon="6.62368">
        <ele>33.2</ele>
        <time>2023-11-05T12:54:36Z</time>
      </trkpt>
      <trkpt lat="43.48887" lon="6.62369">
        <ele>33.1</ele>
        <time>2023-11-05T12:54:37Z</time>
      </trkpt>
      <trkpt lat="43.48886" lon="6.6237">
        <ele>33.1</ele>
        <time>2023-11-05T12:54:38Z</time>
      </trkpt>
      <trkpt lat="43.48885" lon="6.62371">
        <ele>33</ele>
        <time>2023-11-05T12:54:39Z</time>
      </trkpt>
      <trkpt lat="43.48885" lon="6.62372">
        <ele>33</ele>
        <time>2023-11-05T12:54:40Z</time>
      </trkpt>
      <trkpt lat="43.48885" lon="6.62374">
        <ele>33</ele>
        <time>2023-11-05T12:54:41Z</time>
      </trkpt>
      <trkpt lat="43.48884" lon="6.62375">
        <ele>32.9</ele>
        <time>2023-11-05T12:54:42Z</time>
      </trkpt>
      <trkpt lat="43.48883" lon="6.62376">
        <ele>32.9</ele>
        <time>2023-11-05T12:54:43Z</time>
      </trkpt>
      <trkpt lat="43.48883" lon="6.62377">
        <ele>32.8</ele>
        <time>2023-11-05T12:54:44Z</time>
      </trkpt>
      <trkpt lat="43.48882" lon="6.62378">
        <ele>32.7</ele>
        <time>2023-11-05T12:54:45Z</time>
      </trkpt>
      <trkpt lat="43.48882" lon="6.62379">
        <ele>32.6</ele>
        <time>2023-11-05T12:54:46Z</time>
      </trkpt>
      <trkpt lat="43.48881" lon="6.6238">
        <ele>32.6</ele>
        <time>2023-11-05T12:54:47Z</time>
      </trkpt>
      <trkpt lat="43.48881" lon="6.62381">
        <ele>32.6</ele>
        <time>2023-11-05T12:54:48Z</time>
      </trkpt>
      <trkpt lat="43.4888" lon="6.62381">
        <ele>32.5</ele>
        <time>2023-11-05T12:54:49Z</time>
      </trkpt>
      <trkpt lat="43.48879" lon="6.62382">
        <ele>32.5</ele>
        <time>2023-11-05T12:54:50Z</time>
      </trkpt>
      <trkpt lat="43.48878" lon="6.62382">
        <ele>32.5</ele>
        <time>2023-11-05T12:54:51Z</time>
      </trkpt>
      <trkpt lat="43.48877" lon="6.62383">
        <ele>32.5</ele>
        <time>2023-11-05T12:54:52Z</time>
      </trkpt>
      <trkpt lat="43.48876" lon="6.62384">
        <ele>32.4</ele>
        <time>2023-11-05T12:54:53Z</time>
      </trkpt>
      <trkpt lat="43.48875" lon="6.62385">
        <ele>32.3</ele>
        <time>2023-11-05T12:54:54Z</time>
      </trkpt>
      <trkpt lat="43.48874" lon="6.62386">
        <ele>32.2</ele>
        <time>2023-11-05T12:54:55Z</time>
      </trkpt>
      <trkpt lat="43.48873" lon="6.62386">
        <ele>32.1</ele>
        <time>2023-11-05T12:54:56Z</time>
      </trkpt>
      <trkpt lat="43.48871" lon="6.62387">
        <ele>31.9</ele>
        <time>2023-11-05T12:54:57Z</time>
      </trkpt>
      <trkpt lat="43.48871" lon="6.62388">
        <ele>31.7</ele>
        <time>2023-11-05T12:54:58Z</time>
      </trkpt>
      <trkpt lat="43.4887" lon="6.62389">
        <ele>31.5</ele>
        <time>2023-11-05T12:54:59Z</time>
      </trkpt>
      <trkpt lat="43.48869" lon="6.6239">
        <ele>31.3</ele>
        <time>2023-11-05T12:55:00Z</time>
      </trkpt>
      <trkpt lat="43.48868" lon="6.6239">
        <ele>31.2</ele>
        <time>2023-11-05T12:55:01Z</time>
      </trkpt>
      <trkpt lat="43.48867" lon="6.62391">
        <ele>31.1</ele>
        <time>2023-11-05T12:55:02Z</time>
      </trkpt>
      <trkpt lat="43.48866" lon="6.62392">
        <ele>31</ele>
        <time>2023-11-05T12:55:03Z</time>
      </trkpt>
      <trkpt lat="43.48864" lon="6.62392">
        <ele>30.8</ele>
        <time>2023-11-05T12:55:04Z</time>
      </trkpt>
      <trkpt lat="43.48863" lon="6.62393">
        <ele>30.8</ele>
        <time>2023-11-05T12:55:05Z</time>
      </trkpt>
      <trkpt lat="43.48862" lon="6.62394">
        <ele>30.7</ele>
        <time>2023-11-05T12:55:06Z</time>
      </trkpt>
      <trkpt lat="43.4886" lon="6.62395">
        <ele>30.6</ele>
        <time>2023-11-05T12:55:07Z</time>
      </trkpt>
      <trkpt lat="43.48859" lon="6.62396">
        <ele>30.6</ele>
        <time>2023-11-05T12:55:08Z</time>
      </trkpt>
      <trkpt lat="43.48858" lon="6.62398">
        <ele>30.4</ele>
        <time>2023-11-05T12:55:09Z</time>
      </trkpt>
      <trkpt lat="43.48857" lon="6.62399">
        <ele>30.4</ele>
        <time>2023-11-05T12:55:10Z</time>
      </trkpt>
      <trkpt lat="43.48856" lon="6.62399">
        <ele>30.4</ele>
        <time>2023-11-05T12:55:11Z</time>
      </trkpt>
      <trkpt lat="43.48855" lon="6.62401">
        <ele>30.4</ele>
        <time>2023-11-05T12:55:12Z</time>
      </trkpt>
      <trkpt lat="43.48854" lon="6.62402">
        <ele>30.4</ele>
        <time>2023-11-05T12:55:13Z</time>
      </trkpt>
      <trkpt lat="43.48853" lon="6.62403">
        <ele>30.5</ele>
        <time>2023-11-05T12:55:14Z</time>
      </trkpt>
      <trkpt lat="43.48852" lon="6.62404">
        <ele>30.5</ele>
        <time>2023-11-05T12:55:15Z</time>
      </trkpt>
      <trkpt lat="43.48851" lon="6.62406">
        <ele>30.6</ele>
        <time>2023-11-05T12:55:16Z</time>
      </trkpt>
      <trkpt lat="43.48851" lon="6.62408">
        <ele>30.6</ele>
        <time>2023-11-05T12:55:17Z</time>
      </trkpt>
      <trkpt lat="43.4885" lon="6.62409">
        <ele>30.6</ele>
        <time>2023-11-05T12:55:18Z</time>
      </trkpt>
      <trkpt lat="43.48849" lon="6.62411">
        <ele>30.7</ele>
        <time>2023-11-05T12:55:19Z</time>
      </trkpt>
      <trkpt lat="43.48849" lon="6.62412">
        <ele>30.7</ele>
        <time>2023-11-05T12:55:20Z</time>
      </trkpt>
      <trkpt lat="43.48848" lon="6.62414">
        <ele>30.8</ele>
        <time>2023-11-05T12:55:21Z</time>
      </trkpt>
      <trkpt lat="43.48848" lon="6.62416">
        <ele>30.8</ele>
        <time>2023-11-05T12:55:22Z</time>
      </trkpt>
      <trkpt lat="43.48848" lon="6.62418">
        <ele>30.7</ele>
        <time>2023-11-05T12:55:23Z</time>
      </trkpt>
      <trkpt lat="43.48847" lon="6.6242">
        <ele>30.7</ele>
        <time>2023-11-05T12:55:24Z</time>
      </trkpt>
      <trkpt lat="43.48847" lon="6.62421">
        <ele>30.9</ele>
        <time>2023-11-05T12:55:25Z</time>
      </trkpt>
      <trkpt lat="43.48846" lon="6.62423">
        <ele>30.9</ele>
        <time>2023-11-05T12:55:26Z</time>
      </trkpt>
      <trkpt lat="43.48846" lon="6.62424">
        <ele>30.9</ele>
        <time>2023-11-05T12:55:27Z</time>
      </trkpt>
      <trkpt lat="43.48846" lon="6.62426">
        <ele>30.9</ele>
        <time>2023-11-05T12:55:28Z</time>
      </trkpt>
      <trkpt lat="43.48846" lon="6.62428">
        <ele>30.8</ele>
        <time>2023-11-05T12:55:29Z</time>
      </trkpt>
      <trkpt lat="43.48845" lon="6.6243">
        <ele>30.8</ele>
        <time>2023-11-05T12:55:30Z</time>
      </trkpt>
      <trkpt lat="43.48845" lon="6.62431">
        <ele>30.7</ele>
        <time>2023-11-05T12:55:31Z</time>
      </trkpt>
      <trkpt lat="43.48844" lon="6.62432">
        <ele>30.7</ele>
        <time>2023-11-05T12:55:32Z</time>
      </trkpt>
      <trkpt lat="43.48843" lon="6.62434">
        <ele>30.8</ele>
        <time>2023-11-05T12:55:33Z</time>
      </trkpt>
      <trkpt lat="43.48843" lon="6.62436">
        <ele>30.9</ele>
        <time>2023-11-05T12:55:34Z</time>
      </trkpt>
      <trkpt lat="43.48843" lon="6.62437">
        <ele>31</ele>
        <time>2023-11-05T12:55:35Z</time>
      </trkpt>
      <trkpt lat="43.48843" lon="6.62439">
        <ele>31.1</ele>
        <time>2023-11-05T12:55:36Z</time>
      </trkpt>
      <trkpt lat="43.48842" lon="6.6244">
        <ele>31.3</ele>
        <time>2023-11-05T12:55:37Z</time>
      </trkpt>
      <trkpt lat="43.48842" lon="6.62442">
        <ele>31.4</ele>
        <time>2023-11-05T12:55:38Z</time>
      </trkpt>
      <trkpt lat="43.48841" lon="6.62443">
        <ele>31.5</ele>
        <time>2023-11-05T12:55:39Z</time>
      </trkpt>
      <trkpt lat="43.48841" lon="6.62445">
        <ele>31.5</ele>
        <time>2023-11-05T12:55:40Z</time>
      </trkpt>
      <trkpt lat="43.4884" lon="6.62446">
        <ele>31.6</ele>
        <time>2023-11-05T12:55:41Z</time>
      </trkpt>
      <trkpt lat="43.4884" lon="6.62448">
        <ele>31.6</ele>
        <time>2023-11-05T12:55:42Z</time>
      </trkpt>
      <trkpt lat="43.48839" lon="6.62449">
        <ele>31.7</ele>
        <time>2023-11-05T12:55:43Z</time>
      </trkpt>
      <trkpt lat="43.48838" lon="6.6245">
        <ele>31.7</ele>
        <time>2023-11-05T12:55:44Z</time>
      </trkpt>
      <trkpt lat="43.48838" lon="6.62451">
        <ele>31.7</ele>
        <time>2023-11-05T12:55:45Z</time>
      </trkpt>
      <trkpt lat="43.48837" lon="6.62452">
        <ele>31.7</ele>
        <time>2023-11-05T12:55:46Z</time>
      </trkpt>
      <trkpt lat="43.48836" lon="6.62453">
        <ele>31.6</ele>
        <time>2023-11-05T12:55:47Z</time>
      </trkpt>
      <trkpt lat="43.48835" lon="6.62454">
        <ele>31.6</ele>
        <time>2023-11-05T12:55:48Z</time>
      </trkpt>
      <trkpt lat="43.48834" lon="6.62454">
        <ele>31.6</ele>
        <time>2023-11-05T12:55:49Z</time>
      </trkpt>
      <trkpt lat="43.48833" lon="6.62455">
        <ele>31.6</ele>
        <time>2023-11-05T12:55:50Z</time>
      </trkpt>
      <trkpt lat="43.48832" lon="6.62456">
        <ele>31.5</ele>
        <time>2023-11-05T12:55:51Z</time>
      </trkpt>
      <trkpt lat="43.48831" lon="6.62456">
        <ele>31.4</ele>
        <time>2023-11-05T12:55:52Z</time>
      </trkpt>
      <trkpt lat="43.4883" lon="6.62457">
        <ele>31.4</ele>
        <time>2023-11-05T12:55:53Z</time>
      </trkpt>
      <trkpt lat="43.48829" lon="6.62458">
        <ele>31.4</ele>
        <time>2023-11-05T12:55:54Z</time>
      </trkpt>
      <trkpt lat="43.48828" lon="6.62459">
        <ele>31.4</ele>
        <time>2023-11-05T12:55:55Z</time>
      </trkpt>
      <trkpt lat="43.48827" lon="6.6246">
        <ele>31.4</ele>
        <time>2023-11-05T12:55:56Z</time>
      </trkpt>
      <trkpt lat="43.48826" lon="6.62461">
        <ele>31.4</ele>
        <time>2023-11-05T12:55:57Z</time>
      </trkpt>
      <trkpt lat="43.48825" lon="6.62463">
        <ele>31.3</ele>
        <time>2023-11-05T12:55:58Z</time>
      </trkpt>
      <trkpt lat="43.48825" lon="6.62464">
        <ele>31.3</ele>
        <time>2023-11-05T12:55:59Z</time>
      </trkpt>
      <trkpt lat="43.48823" lon="6.62465">
        <ele>31.3</ele>
        <time>2023-11-05T12:56:00Z</time>
      </trkpt>
      <trkpt lat="43.48822" lon="6.62466">
        <ele>31.3</ele>
        <time>2023-11-05T12:56:01Z</time>
      </trkpt>
      <trkpt lat="43.48822" lon="6.62467">
        <ele>31.3</ele>
        <time>2023-11-05T12:56:02Z</time>
      </trkpt>
      <trkpt lat="43.48821" lon="6.62469">
        <ele>31.4</ele>
        <time>2023-11-05T12:56:03Z</time>
      </trkpt>
      <trkpt lat="43.48821" lon="6.6247">
        <ele>31.5</ele>
        <time>2023-11-05T12:56:04Z</time>
      </trkpt>
      <trkpt lat="43.4882" lon="6.6247">
        <ele>31.3</ele>
        <time>2023-11-05T12:56:05Z</time>
      </trkpt>
      <trkpt lat="43.4882" lon="6.62471">
        <ele>31.3</ele>
        <time>2023-11-05T12:56:06Z</time>
      </trkpt>
      <trkpt lat="43.4882" lon="6.62471">
        <ele>31.2</ele>
        <time>2023-11-05T12:56:07Z</time>
      </trkpt>
      <trkpt lat="43.4882" lon="6.62471">
        <ele>31.1</ele>
        <time>2023-11-05T12:56:08Z</time>
      </trkpt>
      <trkpt lat="43.4882" lon="6.62472">
        <ele>31</ele>
        <time>2023-11-05T12:56:09Z</time>
      </trkpt>
      <trkpt lat="43.48819" lon="6.62473">
        <ele>31</ele>
        <time>2023-11-05T12:56:10Z</time>
      </trkpt>
      <trkpt lat="43.48819" lon="6.62475">
        <ele>31.1</ele>
        <time>2023-11-05T12:56:11Z</time>
      </trkpt>
      <trkpt lat="43.48818" lon="6.62476">
        <ele>31.2</ele>
        <time>2023-11-05T12:56:12Z</time>
      </trkpt>
      <trkpt lat="43.48818" lon="6.62477">
        <ele>31.2</ele>
        <time>2023-11-05T12:56:13Z</time>
      </trkpt>
      <trkpt lat="43.48817" lon="6.62479">
        <ele>31.2</ele>
        <time>2023-11-05T12:56:14Z</time>
      </trkpt>
      <trkpt lat="43.48816" lon="6.6248">
        <ele>31.1</ele>
        <time>2023-11-05T12:56:15Z</time>
      </trkpt>
      <trkpt lat="43.48816" lon="6.62482">
        <ele>31.1</ele>
        <time>2023-11-05T12:56:16Z</time>
      </trkpt>
      <trkpt lat="43.48816" lon="6.62483">
        <ele>31.2</ele>
        <time>2023-11-05T12:56:17Z</time>
      </trkpt>
      <trkpt lat="43.48816" lon="6.62485">
        <ele>31.3</ele>
        <time>2023-11-05T12:56:18Z</time>
      </trkpt>
      <trkpt lat="43.48816" lon="6.62486">
        <ele>31.3</ele>
        <time>2023-11-05T12:56:19Z</time>
      </trkpt>
      <trkpt lat="43.48817" lon="6.62487">
        <ele>31.2</ele>
        <time>2023-11-05T12:56:20Z</time>
      </trkpt>
      <trkpt lat="43.48818" lon="6.62488">
        <ele>31.3</ele>
        <time>2023-11-05T12:56:21Z</time>
      </trkpt>
      <trkpt lat="43.48819" lon="6.62488">
        <ele>31.3</ele>
        <time>2023-11-05T12:56:22Z</time>
      </trkpt>
      <trkpt lat="43.4882" lon="6.62489">
        <ele>31.2</ele>
        <time>2023-11-05T12:56:23Z</time>
      </trkpt>
      <trkpt lat="43.4882" lon="6.6249">
        <ele>31.2</ele>
        <time>2023-11-05T12:56:24Z</time>
      </trkpt>
      <trkpt lat="43.48821" lon="6.6249">
        <ele>31.2</ele>
        <time>2023-11-05T12:56:25Z</time>
      </trkpt>
      <trkpt lat="43.48822" lon="6.62491">
        <ele>31.2</ele>
        <time>2023-11-05T12:56:26Z</time>
      </trkpt>
      <trkpt lat="43.48822" lon="6.62491">
        <ele>31.1</ele>
        <time>2023-11-05T12:56:27Z</time>
      </trkpt>
      <trkpt lat="43.48823" lon="6.62492">
        <ele>31.1</ele>
        <time>2023-11-05T12:56:28Z</time>
      </trkpt>
      <trkpt lat="43.48823" lon="6.62493">
        <ele>31</ele>
        <time>2023-11-05T12:56:29Z</time>
      </trkpt>
      <trkpt lat="43.48823" lon="6.62493">
        <ele>30.8</ele>
        <time>2023-11-05T12:56:30Z</time>
      </trkpt>
      <trkpt lat="43.48824" lon="6.62494">
        <ele>30.7</ele>
        <time>2023-11-05T12:56:31Z</time>
      </trkpt>
      <trkpt lat="43.48825" lon="6.62494">
        <ele>30.5</ele>
        <time>2023-11-05T12:56:32Z</time>
      </trkpt>
      <trkpt lat="43.48826" lon="6.62495">
        <ele>30.4</ele>
        <time>2023-11-05T12:56:33Z</time>
      </trkpt>
      <trkpt lat="43.48826" lon="6.62495">
        <ele>30.3</ele>
        <time>2023-11-05T12:56:34Z</time>
      </trkpt>
      <trkpt lat="43.48827" lon="6.62495">
        <ele>30.2</ele>
        <time>2023-11-05T12:56:35Z</time>
      </trkpt>
      <trkpt lat="43.48828" lon="6.62495">
        <ele>30.2</ele>
        <time>2023-11-05T12:56:36Z</time>
      </trkpt>
      <trkpt lat="43.48829" lon="6.62495">
        <ele>30</ele>
        <time>2023-11-05T12:56:37Z</time>
      </trkpt>
      <trkpt lat="43.48829" lon="6.62496">
        <ele>29.9</ele>
        <time>2023-11-05T12:56:38Z</time>
      </trkpt>
      <trkpt lat="43.4883" lon="6.62496">
        <ele>29.8</ele>
        <time>2023-11-05T12:56:39Z</time>
      </trkpt>
      <trkpt lat="43.4883" lon="6.62495">
        <ele>29.7</ele>
        <time>2023-11-05T12:56:40Z</time>
      </trkpt>
      <trkpt lat="43.48831" lon="6.62495">
        <ele>29.6</ele>
        <time>2023-11-05T12:56:41Z</time>
      </trkpt>
      <trkpt lat="43.48831" lon="6.62495">
        <ele>29.7</ele>
        <time>2023-11-05T12:56:42Z</time>
      </trkpt>
      <trkpt lat="43.48832" lon="6.62495">
        <ele>29.4</ele>
        <time>2023-11-05T12:56:43Z</time>
      </trkpt>
      <trkpt lat="43.48832" lon="6.62494">
        <ele>29.5</ele>
        <time>2023-11-05T12:56:44Z</time>
      </trkpt>
      <trkpt lat="43.48833" lon="6.62495">
        <ele>29.7</ele>
        <time>2023-11-05T12:56:45Z</time>
      </trkpt>
      <trkpt lat="43.48833" lon="6.62495">
        <ele>29.6</ele>
        <time>2023-11-05T12:56:46Z</time>
      </trkpt>
      <trkpt lat="43.48834" lon="6.62495">
        <ele>29.5</ele>
        <time>2023-11-05T12:56:47Z</time>
      </trkpt>
      <trkpt lat="43.48834" lon="6.62495">
        <ele>29.4</ele>
        <time>2023-11-05T12:56:48Z</time>
      </trkpt>
      <trkpt lat="43.48834" lon="6.62495">
        <ele>29.4</ele>
        <time>2023-11-05T12:56:49Z</time>
      </trkpt>
      <trkpt lat="43.48834" lon="6.62495">
        <ele>29.2</ele>
        <time>2023-11-05T12:56:50Z</time>
      </trkpt>
      <trkpt lat="43.48834" lon="6.62495">
        <ele>29</ele>
        <time>2023-11-05T12:56:51Z</time>
      </trkpt>
      <trkpt lat="43.48834" lon="6.62495">
        <ele>28.9</ele>
        <time>2023-11-05T12:56:52Z</time>
      </trkpt>
      <trkpt lat="43.48834" lon="6.62495">
        <ele>28.8</ele>
        <time>2023-11-05T12:56:53Z</time>
      </trkpt>
      <trkpt lat="43.48834" lon="6.62495">
        <ele>28.7</ele>
        <time>2023-11-05T12:56:54Z</time>
      </trkpt>
      <trkpt lat="43.48834" lon="6.62495">
        <ele>28.6</ele>
        <time>2023-11-05T12:56:55Z</time>
      </trkpt>
      <trkpt lat="43.48834" lon="6.62495">
        <ele>28.6</ele>
        <time>2023-11-05T12:56:56Z</time>
      </trkpt>
      <trkpt lat="43.48834" lon="6.62495">
        <ele>28.5</ele>
        <time>2023-11-05T12:56:57Z</time>
      </trkpt>
      <trkpt lat="43.48834" lon="6.62495">
        <ele>28.4</ele>
        <time>2023-11-05T12:56:58Z</time>
      </trkpt>
      <trkpt lat="43.48835" lon="6.62495">
        <ele>28.3</ele>
        <time>2023-11-05T12:56:59Z</time>
      </trkpt>
      <trkpt lat="43.48835" lon="6.62495">
        <ele>28.1</ele>
        <time>2023-11-05T12:57:00Z</time>
      </trkpt>
      <trkpt lat="43.48835" lon="6.62494">
        <ele>27.7</ele>
        <time>2023-11-05T12:57:01Z</time>
      </trkpt>
      <trkpt lat="43.48834" lon="6.62494">
        <ele>27.8</ele>
        <time>2023-11-05T12:57:02Z</time>
      </trkpt>
      <trkpt lat="43.48834" lon="6.62494">
        <ele>27.8</ele>
        <time>2023-11-05T12:57:03Z</time>
      </trkpt>
      <trkpt lat="43.48835" lon="6.62494">
        <ele>27.8</ele>
        <time>2023-11-05T12:57:04Z</time>
      </trkpt>
      <trkpt lat="43.48835" lon="6.62494">
        <ele>27.9</ele>
        <time>2023-11-05T12:57:05Z</time>
      </trkpt>
      <trkpt lat="43.48835" lon="6.62494">
        <ele>27.9</ele>
        <time>2023-11-05T12:57:06Z</time>
      </trkpt>
      <trkpt lat="43.48835" lon="6.62494">
        <ele>27.9</ele>
        <time>2023-11-05T12:57:07Z</time>
      </trkpt>
      <trkpt lat="43.48835" lon="6.62494">
        <ele>27.9</ele>
        <time>2023-11-05T12:57:08Z</time>
      </trkpt>
      <trkpt lat="43.48836" lon="6.62494">
        <ele>28</ele>
        <time>2023-11-05T12:57:09Z</time>
      </trkpt>
      <trkpt lat="43.48836" lon="6.62494">
        <ele>28.1</ele>
        <time>2023-11-05T12:57:10Z</time>
      </trkpt>
      <trkpt lat="43.48836" lon="6.62494">
        <ele>28.1</ele>
        <time>2023-11-05T12:57:11Z</time>
      </trkpt>
      <trkpt lat="43.48836" lon="6.62494">
        <ele>28.2</ele>
        <time>2023-11-05T12:57:12Z</time>
      </trkpt>
      <trkpt lat="43.48836" lon="6.62494">
        <ele>28.2</ele>
        <time>2023-11-05T12:57:13Z</time>
      </trkpt>
      <trkpt lat="43.48836" lon="6.62494">
        <ele>28.2</ele>
        <time>2023-11-05T12:57:14Z</time>
      </trkpt>
      <trkpt lat="43.48836" lon="6.62494">
        <ele>28.2</ele>
        <time>2023-11-05T12:57:15Z</time>
      </trkpt>
      <trkpt lat="43.48836" lon="6.62493">
        <ele>28.2</ele>
        <time>2023-11-05T12:57:16Z</time>
      </trkpt>
      <trkpt lat="43.48837" lon="6.62493">
        <ele>28.2</ele>
        <time>2023-11-05T12:57:17Z</time>
      </trkpt>
      <trkpt lat="43.48837" lon="6.62493">
        <ele>28.1</ele>
        <time>2023-11-05T12:57:18Z</time>
      </trkpt>
      <trkpt lat="43.48837" lon="6.62493">
        <ele>28.2</ele>
        <time>2023-11-05T12:57:19Z</time>
      </trkpt>
      <trkpt lat="43.48837" lon="6.62493">
        <ele>28.2</ele>
        <time>2023-11-05T12:57:20Z</time>
      </trkpt>
      <trkpt lat="43.48837" lon="6.62493">
        <ele>28.2</ele>
        <time>2023-11-05T12:57:21Z</time>
      </trkpt>
      <trkpt lat="43.48837" lon="6.62492">
        <ele>28.3</ele>
        <time>2023-11-05T12:57:22Z</time>
      </trkpt>
      <trkpt lat="43.48837" lon="6.62492">
        <ele>28.2</ele>
        <time>2023-11-05T12:57:23Z</time>
      </trkpt>
      <trkpt lat="43.48837" lon="6.62492">
        <ele>28.2</ele>
        <time>2023-11-05T12:57:24Z</time>
      </trkpt>
      <trkpt lat="43.48837" lon="6.62492">
        <ele>28.2</ele>
        <time>2023-11-05T12:57:25Z</time>
      </trkpt>
      <trkpt lat="43.48837" lon="6.62492">
        <ele>28.1</ele>
        <time>2023-11-05T12:57:26Z</time>
      </trkpt>
      <trkpt lat="43.48837" lon="6.62492">
        <ele>28.1</ele>
        <time>2023-11-05T12:57:27Z</time>
      </trkpt>
      <trkpt lat="43.48837" lon="6.62492">
        <ele>28.1</ele>
        <time>2023-11-05T12:57:28Z</time>
      </trkpt>
      <trkpt lat="43.48837" lon="6.62492">
        <ele>28.1</ele>
        <time>2023-11-05T12:57:29Z</time>
      </trkpt>
      <trkpt lat="43.48837" lon="6.62492">
        <ele>28.1</ele>
        <time>2023-11-05T12:57:30Z</time>
      </trkpt>
      <trkpt lat="43.48837" lon="6.62492">
        <ele>28.1</ele>
        <time>2023-11-05T12:57:31Z</time>
      </trkpt>
      <trkpt lat="43.48837" lon="6.62492">
        <ele>28.2</ele>
        <time>2023-11-05T12:57:32Z</time>
      </trkpt>
      <trkpt lat="43.48837" lon="6.62492">
        <ele>28.1</ele>
        <time>2023-11-05T12:57:33Z</time>
      </trkpt>
      <trkpt lat="43.48837" lon="6.62492">
        <ele>28.1</ele>
        <time>2023-11-05T12:57:34Z</time>
      </trkpt>
      <trkpt lat="43.48837" lon="6.62492">
        <ele>28.1</ele>
        <time>2023-11-05T12:57:35Z</time>
      </trkpt>
      <trkpt lat="43.48837" lon="6.62492">
        <ele>28.1</ele>
        <time>2023-11-05T12:57:36Z</time>
      </trkpt>
      <trkpt lat="43.48837" lon="6.62491">
        <ele>28.1</ele>
        <time>2023-11-05T12:57:37Z</time>
      </trkpt>
      <trkpt lat="43.48837" lon="6.62491">
        <ele>28.2</ele>
        <time>2023-11-05T12:57:38Z</time>
      </trkpt>
      <trkpt lat="43.48837" lon="6.62491">
        <ele>28.2</ele>
        <time>2023-11-05T12:57:39Z</time>
      </trkpt>
      <trkpt lat="43.48837" lon="6.62491">
        <ele>28.2</ele>
        <time>2023-11-05T12:57:40Z</time>
      </trkpt>
      <trkpt lat="43.48837" lon="6.62491">
        <ele>28.2</ele>
        <time>2023-11-05T12:57:41Z</time>
      </trkpt>
      <trkpt lat="43.48837" lon="6.62491">
        <ele>28.2</ele>
        <time>2023-11-05T12:57:42Z</time>
      </trkpt>
      <trkpt lat="43.48837" lon="6.62491">
        <ele>28.2</ele>
        <time>2023-11-05T12:57:43Z</time>
      </trkpt>
      <trkpt lat="43.48837" lon="6.62491">
        <ele>28.3</ele>
        <time>2023-11-05T12:57:44Z</time>
      </trkpt>
      <trkpt lat="43.48837" lon="6.62491">
        <ele>28.4</ele>
        <time>2023-11-05T12:57:45Z</time>
      </trkpt>
      <trkpt lat="43.48837" lon="6.62491">
        <ele>28.5</ele>
        <time>2023-11-05T12:57:46Z</time>
      </trkpt>
      <trkpt lat="43.48837" lon="6.62491">
        <ele>28.5</ele>
        <time>2023-11-05T12:57:47Z</time>
      </trkpt>
      <trkpt lat="43.48837" lon="6.62491">
        <ele>28.4</ele>
        <time>2023-11-05T12:57:48Z</time>
      </trkpt>
      <trkpt lat="43.48837" lon="6.62491">
        <ele>28.4</ele>
        <time>2023-11-05T12:57:49Z</time>
      </trkpt>
      <trkpt lat="43.48837" lon="6.62491">
        <ele>28.4</ele>
        <time>2023-11-05T12:57:50Z</time>
      </trkpt>
      <trkpt lat="43.48837" lon="6.62491">
        <ele>28.5</ele>
        <time>2023-11-05T12:57:51Z</time>
      </trkpt>
      <trkpt lat="43.48837" lon="6.62491">
        <ele>28.6</ele>
        <time>2023-11-05T12:57:52Z</time>
      </trkpt>
      <trkpt lat="43.48837" lon="6.62491">
        <ele>28.6</ele>
        <time>2023-11-05T12:57:53Z</time>
      </trkpt>
      <trkpt lat="43.48837" lon="6.62491">
        <ele>28.6</ele>
        <time>2023-11-05T12:57:54Z</time>
      </trkpt>
      <trkpt lat="43.48837" lon="6.62491">
        <ele>28.6</ele>
        <time>2023-11-05T12:57:55Z</time>
      </trkpt>
      <trkpt lat="43.48837" lon="6.62491">
        <ele>28.6</ele>
        <time>2023-11-05T12:57:56Z</time>
      </trkpt>
      <trkpt lat="43.48837" lon="6.62491">
        <ele>28.5</ele>
        <time>2023-11-05T12:57:57Z</time>
      </trkpt>
      <trkpt lat="43.48837" lon="6.62491">
        <ele>28.5</ele>
        <time>2023-11-05T12:57:58Z</time>
      </trkpt>
      <trkpt lat="43.48838" lon="6.62491">
        <ele>28.5</ele>
        <time>2023-11-05T12:57:59Z</time>
      </trkpt>
      <trkpt lat="43.48838" lon="6.62491">
        <ele>28.6</ele>
        <time>2023-11-05T12:58:00Z</time>
      </trkpt>
      <trkpt lat="43.48838" lon="6.62492">
        <ele>28.6</ele>
        <time>2023-11-05T12:58:01Z</time>
      </trkpt>
      <trkpt lat="43.48838" lon="6.62492">
        <ele>28.7</ele>
        <time>2023-11-05T12:58:02Z</time>
      </trkpt>
      <trkpt lat="43.48838" lon="6.62492">
        <ele>28.7</ele>
        <time>2023-11-05T12:58:03Z</time>
      </trkpt>
      <trkpt lat="43.48838" lon="6.62492">
        <ele>28.7</ele>
        <time>2023-11-05T12:58:04Z</time>
      </trkpt>
      <trkpt lat="43.48838" lon="6.62492">
        <ele>28.8</ele>
        <time>2023-11-05T12:58:05Z</time>
      </trkpt>
      <trkpt lat="43.48838" lon="6.62492">
        <ele>28.8</ele>
        <time>2023-11-05T12:58:06Z</time>
      </trkpt>
      <trkpt lat="43.48838" lon="6.62493">
        <ele>28.8</ele>
        <time>2023-11-05T12:58:07Z</time>
      </trkpt>
      <trkpt lat="43.48838" lon="6.62493">
        <ele>28.7</ele>
        <time>2023-11-05T12:58:08Z</time>
      </trkpt>
      <trkpt lat="43.48838" lon="6.62492">
        <ele>28.7</ele>
        <time>2023-11-05T12:58:09Z</time>
      </trkpt>
      <trkpt lat="43.48838" lon="6.62492">
        <ele>28.6</ele>
        <time>2023-11-05T12:58:10Z</time>
      </trkpt>
      <trkpt lat="43.48838" lon="6.62492">
        <ele>28.4</ele>
        <time>2023-11-05T12:58:11Z</time>
      </trkpt>
      <trkpt lat="43.48837" lon="6.62492">
        <ele>28.2</ele>
        <time>2023-11-05T12:58:12Z</time>
      </trkpt>
      <trkpt lat="43.48837" lon="6.62492">
        <ele>28.1</ele>
        <time>2023-11-05T12:58:13Z</time>
      </trkpt>
      <trkpt lat="43.48837" lon="6.62492">
        <ele>28.1</ele>
        <time>2023-11-05T12:58:14Z</time>
      </trkpt>
      <trkpt lat="43.48837" lon="6.62492">
        <ele>28.1</ele>
        <time>2023-11-05T12:58:15Z</time>
      </trkpt>
      <trkpt lat="43.48836" lon="6.62493">
        <ele>28.1</ele>
        <time>2023-11-05T12:58:16Z</time>
      </trkpt>
      <trkpt lat="43.48836" lon="6.62493">
        <ele>28.1</ele>
        <time>2023-11-05T12:58:17Z</time>
      </trkpt>
      <trkpt lat="43.48835" lon="6.62492">
        <ele>28.1</ele>
        <time>2023-11-05T12:58:18Z</time>
      </trkpt>
      <trkpt lat="43.48834" lon="6.62492">
        <ele>28.2</ele>
        <time>2023-11-05T12:58:19Z</time>
      </trkpt>
      <trkpt lat="43.48834" lon="6.62492">
        <ele>28.3</ele>
        <time>2023-11-05T12:58:20Z</time>
      </trkpt>
      <trkpt lat="43.48833" lon="6.62491">
        <ele>28.4</ele>
        <time>2023-11-05T12:58:21Z</time>
      </trkpt>
      <trkpt lat="43.48834" lon="6.62491">
        <ele>28.5</ele>
        <time>2023-11-05T12:58:22Z</time>
      </trkpt>
      <trkpt lat="43.48834" lon="6.6249">
        <ele>28.6</ele>
        <time>2023-11-05T12:58:23Z</time>
      </trkpt>
      <trkpt lat="43.48833" lon="6.6249">
        <ele>28.7</ele>
        <time>2023-11-05T12:58:24Z</time>
      </trkpt>
      <trkpt lat="43.48832" lon="6.6249">
        <ele>28.8</ele>
        <time>2023-11-05T12:58:25Z</time>
      </trkpt>
      <trkpt lat="43.48832" lon="6.6249">
        <ele>28.9</ele>
        <time>2023-11-05T12:58:26Z</time>
      </trkpt>
      <trkpt lat="43.48831" lon="6.6249">
        <ele>29</ele>
        <time>2023-11-05T12:58:27Z</time>
      </trkpt>
      <trkpt lat="43.48831" lon="6.6249">
        <ele>29.3</ele>
        <time>2023-11-05T12:58:28Z</time>
      </trkpt>
      <trkpt lat="43.4883" lon="6.6249">
        <ele>29.6</ele>
        <time>2023-11-05T12:58:29Z</time>
      </trkpt>
      <trkpt lat="43.4883" lon="6.6249">
        <ele>29.8</ele>
        <time>2023-11-05T12:58:30Z</time>
      </trkpt>
      <trkpt lat="43.48829" lon="6.6249">
        <ele>30</ele>
        <time>2023-11-05T12:58:31Z</time>
      </trkpt>
      <trkpt lat="43.48828" lon="6.62491">
        <ele>30.3</ele>
        <time>2023-11-05T12:58:32Z</time>
      </trkpt>
      <trkpt lat="43.48828" lon="6.62491">
        <ele>30.4</ele>
        <time>2023-11-05T12:58:33Z</time>
      </trkpt>
      <trkpt lat="43.48827" lon="6.62491">
        <ele>30.6</ele>
        <time>2023-11-05T12:58:34Z</time>
      </trkpt>
      <trkpt lat="43.48826" lon="6.62491">
        <ele>30.7</ele>
        <time>2023-11-05T12:58:35Z</time>
      </trkpt>
      <trkpt lat="43.48826" lon="6.62492">
        <ele>30.8</ele>
        <time>2023-11-05T12:58:36Z</time>
      </trkpt>
      <trkpt lat="43.48826" lon="6.62492">
        <ele>30.6</ele>
        <time>2023-11-05T12:58:37Z</time>
      </trkpt>
      <trkpt lat="43.48826" lon="6.62491">
        <ele>30.7</ele>
        <time>2023-11-05T12:58:38Z</time>
      </trkpt>
      <trkpt lat="43.48825" lon="6.62491">
        <ele>30.6</ele>
        <time>2023-11-05T12:58:39Z</time>
      </trkpt>
      <trkpt lat="43.48824" lon="6.6249">
        <ele>30.6</ele>
        <time>2023-11-05T12:58:40Z</time>
      </trkpt>
      <trkpt lat="43.48823" lon="6.6249">
        <ele>30.6</ele>
        <time>2023-11-05T12:58:41Z</time>
      </trkpt>
      <trkpt lat="43.48823" lon="6.62489">
        <ele>30.6</ele>
        <time>2023-11-05T12:58:42Z</time>
      </trkpt>
      <trkpt lat="43.48822" lon="6.62489">
        <ele>30.3</ele>
        <time>2023-11-05T12:58:43Z</time>
      </trkpt>
      <trkpt lat="43.48822" lon="6.62488">
        <ele>30.2</ele>
        <time>2023-11-05T12:58:44Z</time>
      </trkpt>
      <trkpt lat="43.48821" lon="6.62488">
        <ele>30.7</ele>
        <time>2023-11-05T12:58:45Z</time>
      </trkpt>
      <trkpt lat="43.4882" lon="6.62488">
        <ele>31.9</ele>
        <time>2023-11-05T12:58:46Z</time>
      </trkpt>
      <trkpt lat="43.48819" lon="6.62487">
        <ele>33.1</ele>
        <time>2023-11-05T12:58:47Z</time>
      </trkpt>
      <trkpt lat="43.48819" lon="6.62488">
        <ele>32.8</ele>
        <time>2023-11-05T12:58:48Z</time>
      </trkpt>
      <trkpt lat="43.48818" lon="6.62489">
        <ele>32.5</ele>
        <time>2023-11-05T12:58:49Z</time>
      </trkpt>
      <trkpt lat="43.48817" lon="6.62489">
        <ele>32.3</ele>
        <time>2023-11-05T12:58:50Z</time>
      </trkpt>
      <trkpt lat="43.48817" lon="6.6249">
        <ele>31.5</ele>
        <time>2023-11-05T12:58:51Z</time>
      </trkpt>
      <trkpt lat="43.48816" lon="6.62491">
        <ele>31.5</ele>
        <time>2023-11-05T12:58:52Z</time>
      </trkpt>
      <trkpt lat="43.48816" lon="6.62492">
        <ele>31.4</ele>
        <time>2023-11-05T12:58:53Z</time>
      </trkpt>
      <trkpt lat="43.48815" lon="6.62493">
        <ele>31.4</ele>
        <time>2023-11-05T12:58:54Z</time>
      </trkpt>
      <trkpt lat="43.48815" lon="6.62494">
        <ele>31.5</ele>
        <time>2023-11-05T12:58:55Z</time>
      </trkpt>
      <trkpt lat="43.48814" lon="6.62494">
        <ele>31.6</ele>
        <time>2023-11-05T12:58:56Z</time>
      </trkpt>
      <trkpt lat="43.48813" lon="6.62494">
        <ele>31.8</ele>
        <time>2023-11-05T12:58:57Z</time>
      </trkpt>
      <trkpt lat="43.48812" lon="6.62495">
        <ele>31.9</ele>
        <time>2023-11-05T12:58:58Z</time>
      </trkpt>
      <trkpt lat="43.48811" lon="6.62495">
        <ele>31.9</ele>
        <time>2023-11-05T12:58:59Z</time>
      </trkpt>
      <trkpt lat="43.48811" lon="6.62495">
        <ele>31.9</ele>
        <time>2023-11-05T12:59:00Z</time>
      </trkpt>
      <trkpt lat="43.4881" lon="6.62495">
        <ele>31.9</ele>
        <time>2023-11-05T12:59:01Z</time>
      </trkpt>
      <trkpt lat="43.48809" lon="6.62495">
        <ele>32</ele>
        <time>2023-11-05T12:59:02Z</time>
      </trkpt>
      <trkpt lat="43.48809" lon="6.62496">
        <ele>32</ele>
        <time>2023-11-05T12:59:03Z</time>
      </trkpt>
      <trkpt lat="43.48808" lon="6.62496">
        <ele>31.9</ele>
        <time>2023-11-05T12:59:04Z</time>
      </trkpt>
      <trkpt lat="43.48807" lon="6.62497">
        <ele>31.9</ele>
        <time>2023-11-05T12:59:05Z</time>
      </trkpt>
      <trkpt lat="43.48806" lon="6.62497">
        <ele>31.9</ele>
        <time>2023-11-05T12:59:06Z</time>
      </trkpt>
      <trkpt lat="43.48805" lon="6.62497">
        <ele>31.7</ele>
        <time>2023-11-05T12:59:07Z</time>
      </trkpt>
      <trkpt lat="43.48804" lon="6.62497">
        <ele>31.6</ele>
        <time>2023-11-05T12:59:08Z</time>
      </trkpt>
      <trkpt lat="43.48803" lon="6.62498">
        <ele>31.6</ele>
        <time>2023-11-05T12:59:09Z</time>
      </trkpt>
      <trkpt lat="43.48802" lon="6.62498">
        <ele>31.6</ele>
        <time>2023-11-05T12:59:10Z</time>
      </trkpt>
      <trkpt lat="43.48801" lon="6.62499">
        <ele>31.5</ele>
        <time>2023-11-05T12:59:11Z</time>
      </trkpt>
      <trkpt lat="43.488" lon="6.625">
        <ele>31.5</ele>
        <time>2023-11-05T12:59:12Z</time>
      </trkpt>
      <trkpt lat="43.488" lon="6.62501">
        <ele>31.5</ele>
        <time>2023-11-05T12:59:13Z</time>
      </trkpt>
      <trkpt lat="43.48799" lon="6.62501">
        <ele>31.5</ele>
        <time>2023-11-05T12:59:14Z</time>
      </trkpt>
      <trkpt lat="43.48799" lon="6.62502">
        <ele>31.4</ele>
        <time>2023-11-05T12:59:15Z</time>
      </trkpt>
      <trkpt lat="43.48799" lon="6.62502">
        <ele>31.5</ele>
        <time>2023-11-05T12:59:16Z</time>
      </trkpt>
      <trkpt lat="43.48799" lon="6.62502">
        <ele>31.5</ele>
        <time>2023-11-05T12:59:17Z</time>
      </trkpt>
      <trkpt lat="43.48798" lon="6.62501">
        <ele>31.6</ele>
        <time>2023-11-05T12:59:18Z</time>
      </trkpt>
      <trkpt lat="43.48798" lon="6.62502">
        <ele>31.7</ele>
        <time>2023-11-05T12:59:19Z</time>
      </trkpt>
      <trkpt lat="43.48798" lon="6.62503">
        <ele>31.6</ele>
        <time>2023-11-05T12:59:20Z</time>
      </trkpt>
      <trkpt lat="43.48797" lon="6.62504">
        <ele>31.6</ele>
        <time>2023-11-05T12:59:21Z</time>
      </trkpt>
      <trkpt lat="43.48797" lon="6.62505">
        <ele>31.6</ele>
        <time>2023-11-05T12:59:22Z</time>
      </trkpt>
      <trkpt lat="43.48797" lon="6.62506">
        <ele>31.6</ele>
        <time>2023-11-05T12:59:23Z</time>
      </trkpt>
      <trkpt lat="43.48796" lon="6.62507">
        <ele>31.6</ele>
        <time>2023-11-05T12:59:24Z</time>
      </trkpt>
      <trkpt lat="43.48796" lon="6.62508">
        <ele>31.6</ele>
        <time>2023-11-05T12:59:25Z</time>
      </trkpt>
      <trkpt lat="43.48795" lon="6.62509">
        <ele>31.6</ele>
        <time>2023-11-05T12:59:26Z</time>
      </trkpt>
      <trkpt lat="43.48794" lon="6.62511">
        <ele>31.6</ele>
        <time>2023-11-05T12:59:27Z</time>
      </trkpt>
      <trkpt lat="43.48793" lon="6.62512">
        <ele>31.6</ele>
        <time>2023-11-05T12:59:28Z</time>
      </trkpt>
      <trkpt lat="43.48793" lon="6.62513">
        <ele>31.6</ele>
        <time>2023-11-05T12:59:29Z</time>
      </trkpt>
      <trkpt lat="43.48792" lon="6.62514">
        <ele>31.6</ele>
        <time>2023-11-05T12:59:30Z</time>
      </trkpt>
      <trkpt lat="43.48791" lon="6.62514">
        <ele>31.6</ele>
        <time>2023-11-05T12:59:31Z</time>
      </trkpt>
      <trkpt lat="43.48791" lon="6.62516">
        <ele>31.6</ele>
        <time>2023-11-05T12:59:32Z</time>
      </trkpt>
      <trkpt lat="43.4879" lon="6.62517">
        <ele>31.6</ele>
        <time>2023-11-05T12:59:33Z</time>
      </trkpt>
      <trkpt lat="43.48789" lon="6.62518">
        <ele>31.6</ele>
        <time>2023-11-05T12:59:34Z</time>
      </trkpt>
      <trkpt lat="43.48788" lon="6.62519">
        <ele>31.5</ele>
        <time>2023-11-05T12:59:35Z</time>
      </trkpt>
      <trkpt lat="43.48788" lon="6.6252">
        <ele>31.5</ele>
        <time>2023-11-05T12:59:36Z</time>
      </trkpt>
      <trkpt lat="43.48787" lon="6.62521">
        <ele>31.4</ele>
        <time>2023-11-05T12:59:37Z</time>
      </trkpt>
      <trkpt lat="43.48786" lon="6.62522">
        <ele>31.4</ele>
        <time>2023-11-05T12:59:38Z</time>
      </trkpt>
      <trkpt lat="43.48786" lon="6.62523">
        <ele>31.3</ele>
        <time>2023-11-05T12:59:39Z</time>
      </trkpt>
      <trkpt lat="43.48785" lon="6.62524">
        <ele>31.3</ele>
        <time>2023-11-05T12:59:40Z</time>
      </trkpt>
      <trkpt lat="43.48784" lon="6.62525">
        <ele>31.2</ele>
        <time>2023-11-05T12:59:41Z</time>
      </trkpt>
      <trkpt lat="43.48783" lon="6.62526">
        <ele>31.2</ele>
        <time>2023-11-05T12:59:42Z</time>
      </trkpt>
      <trkpt lat="43.48782" lon="6.62527">
        <ele>31.1</ele>
        <time>2023-11-05T12:59:43Z</time>
      </trkpt>
      <trkpt lat="43.48781" lon="6.62528">
        <ele>31</ele>
        <time>2023-11-05T12:59:44Z</time>
      </trkpt>
      <trkpt lat="43.48781" lon="6.62529">
        <ele>30.9</ele>
        <time>2023-11-05T12:59:45Z</time>
      </trkpt>
      <trkpt lat="43.4878" lon="6.62529">
        <ele>30.9</ele>
        <time>2023-11-05T12:59:46Z</time>
      </trkpt>
      <trkpt lat="43.48779" lon="6.6253">
        <ele>30.9</ele>
        <time>2023-11-05T12:59:47Z</time>
      </trkpt>
      <trkpt lat="43.48778" lon="6.6253">
        <ele>30.9</ele>
        <time>2023-11-05T12:59:48Z</time>
      </trkpt>
      <trkpt lat="43.48777" lon="6.6253">
        <ele>30.9</ele>
        <time>2023-11-05T12:59:49Z</time>
      </trkpt>
      <trkpt lat="43.48776" lon="6.62531">
        <ele>30.9</ele>
        <time>2023-11-05T12:59:50Z</time>
      </trkpt>
      <trkpt lat="43.48775" lon="6.62531">
        <ele>30.8</ele>
        <time>2023-11-05T12:59:51Z</time>
      </trkpt>
      <trkpt lat="43.48774" lon="6.62531">
        <ele>30.8</ele>
        <time>2023-11-05T12:59:52Z</time>
      </trkpt>
      <trkpt lat="43.48773" lon="6.6253">
        <ele>30.7</ele>
        <time>2023-11-05T12:59:53Z</time>
      </trkpt>
      <trkpt lat="43.48771" lon="6.6253">
        <ele>30.6</ele>
        <time>2023-11-05T12:59:54Z</time>
      </trkpt>
      <trkpt lat="43.4877" lon="6.62529">
        <ele>30.5</ele>
        <time>2023-11-05T12:59:55Z</time>
      </trkpt>
      <trkpt lat="43.48769" lon="6.62529">
        <ele>30.4</ele>
        <time>2023-11-05T12:59:56Z</time>
      </trkpt>
      <trkpt lat="43.48768" lon="6.62529">
        <ele>30.4</ele>
        <time>2023-11-05T12:59:57Z</time>
      </trkpt>
      <trkpt lat="43.48767" lon="6.62528">
        <ele>30.3</ele>
        <time>2023-11-05T12:59:58Z</time>
      </trkpt>
      <trkpt lat="43.48766" lon="6.62528">
        <ele>30.2</ele>
        <time>2023-11-05T12:59:59Z</time>
      </trkpt>
      <trkpt lat="43.48765" lon="6.62528">
        <ele>30</ele>
        <time>2023-11-05T13:00:00Z</time>
      </trkpt>
      <trkpt lat="43.48763" lon="6.62528">
        <ele>29.9</ele>
        <time>2023-11-05T13:00:01Z</time>
      </trkpt>
      <trkpt lat="43.48762" lon="6.62527">
        <ele>29.8</ele>
        <time>2023-11-05T13:00:02Z</time>
      </trkpt>
      <trkpt lat="43.48761" lon="6.62527">
        <ele>29.7</ele>
        <time>2023-11-05T13:00:03Z</time>
      </trkpt>
      <trkpt lat="43.48759" lon="6.62527">
        <ele>29.6</ele>
        <time>2023-11-05T13:00:04Z</time>
      </trkpt>
      <trkpt lat="43.48758" lon="6.62528">
        <ele>29.6</ele>
        <time>2023-11-05T13:00:05Z</time>
      </trkpt>
      <trkpt lat="43.48757" lon="6.62529">
        <ele>29.6</ele>
        <time>2023-11-05T13:00:06Z</time>
      </trkpt>
      <trkpt lat="43.48756" lon="6.62529">
        <ele>29.5</ele>
        <time>2023-11-05T13:00:07Z</time>
      </trkpt>
      <trkpt lat="43.48755" lon="6.62529">
        <ele>29.5</ele>
        <time>2023-11-05T13:00:08Z</time>
      </trkpt>
      <trkpt lat="43.48754" lon="6.62529">
        <ele>29.7</ele>
        <time>2023-11-05T13:00:09Z</time>
      </trkpt>
      <trkpt lat="43.48753" lon="6.62529">
        <ele>29.7</ele>
        <time>2023-11-05T13:00:10Z</time>
      </trkpt>
      <trkpt lat="43.48751" lon="6.6253">
        <ele>29.6</ele>
        <time>2023-11-05T13:00:11Z</time>
      </trkpt>
      <trkpt lat="43.4875" lon="6.62529">
        <ele>29.6</ele>
        <time>2023-11-05T13:00:12Z</time>
      </trkpt>
      <trkpt lat="43.48749" lon="6.6253">
        <ele>29.6</ele>
        <time>2023-11-05T13:00:13Z</time>
      </trkpt>
      <trkpt lat="43.48748" lon="6.6253">
        <ele>29.6</ele>
        <time>2023-11-05T13:00:14Z</time>
      </trkpt>
      <trkpt lat="43.48747" lon="6.62531">
        <ele>29.6</ele>
        <time>2023-11-05T13:00:15Z</time>
      </trkpt>
      <trkpt lat="43.48746" lon="6.62531">
        <ele>29.5</ele>
        <time>2023-11-05T13:00:16Z</time>
      </trkpt>
      <trkpt lat="43.48744" lon="6.62532">
        <ele>29.5</ele>
        <time>2023-11-05T13:00:17Z</time>
      </trkpt>
      <trkpt lat="43.48744" lon="6.62533">
        <ele>29.6</ele>
        <time>2023-11-05T13:00:18Z</time>
      </trkpt>
      <trkpt lat="43.48743" lon="6.62534">
        <ele>29.6</ele>
        <time>2023-11-05T13:00:19Z</time>
      </trkpt>
      <trkpt lat="43.48742" lon="6.62536">
        <ele>29.7</ele>
        <time>2023-11-05T13:00:20Z</time>
      </trkpt>
      <trkpt lat="43.48741" lon="6.62537">
        <ele>29.7</ele>
        <time>2023-11-05T13:00:21Z</time>
      </trkpt>
      <trkpt lat="43.4874" lon="6.62538">
        <ele>29.7</ele>
        <time>2023-11-05T13:00:22Z</time>
      </trkpt>
      <trkpt lat="43.4874" lon="6.62538">
        <ele>29.6</ele>
        <time>2023-11-05T13:00:23Z</time>
      </trkpt>
      <trkpt lat="43.48739" lon="6.62539">
        <ele>29.6</ele>
        <time>2023-11-05T13:00:24Z</time>
      </trkpt>
      <trkpt lat="43.48737" lon="6.6254">
        <ele>29.5</ele>
        <time>2023-11-05T13:00:25Z</time>
      </trkpt>
      <trkpt lat="43.48736" lon="6.6254">
        <ele>29.6</ele>
        <time>2023-11-05T13:00:26Z</time>
      </trkpt>
      <trkpt lat="43.48736" lon="6.62541">
        <ele>29.6</ele>
        <time>2023-11-05T13:00:27Z</time>
      </trkpt>
      <trkpt lat="43.48735" lon="6.62542">
        <ele>29.7</ele>
        <time>2023-11-05T13:00:28Z</time>
      </trkpt>
      <trkpt lat="43.48734" lon="6.62543">
        <ele>29.7</ele>
        <time>2023-11-05T13:00:29Z</time>
      </trkpt>
      <trkpt lat="43.48733" lon="6.62545">
        <ele>29.7</ele>
        <time>2023-11-05T13:00:30Z</time>
      </trkpt>
      <trkpt lat="43.48732" lon="6.62546">
        <ele>29.7</ele>
        <time>2023-11-05T13:00:31Z</time>
      </trkpt>
      <trkpt lat="43.48732" lon="6.62547">
        <ele>29.8</ele>
        <time>2023-11-05T13:00:32Z</time>
      </trkpt>
      <trkpt lat="43.48731" lon="6.62547">
        <ele>29.9</ele>
        <time>2023-11-05T13:00:33Z</time>
      </trkpt>
      <trkpt lat="43.4873" lon="6.62548">
        <ele>29.9</ele>
        <time>2023-11-05T13:00:34Z</time>
      </trkpt>
      <trkpt lat="43.48729" lon="6.62549">
        <ele>30</ele>
        <time>2023-11-05T13:00:35Z</time>
      </trkpt>
      <trkpt lat="43.48728" lon="6.6255">
        <ele>29.9</ele>
        <time>2023-11-05T13:00:36Z</time>
      </trkpt>
      <trkpt lat="43.48728" lon="6.62551">
        <ele>29.9</ele>
        <time>2023-11-05T13:00:37Z</time>
      </trkpt>
      <trkpt lat="43.48727" lon="6.62552">
        <ele>29.8</ele>
        <time>2023-11-05T13:00:38Z</time>
      </trkpt>
      <trkpt lat="43.48726" lon="6.62552">
        <ele>29.7</ele>
        <time>2023-11-05T13:00:39Z</time>
      </trkpt>
      <trkpt lat="43.48725" lon="6.62553">
        <ele>29.6</ele>
        <time>2023-11-05T13:00:40Z</time>
      </trkpt>
      <trkpt lat="43.48724" lon="6.62554">
        <ele>29.6</ele>
        <time>2023-11-05T13:00:41Z</time>
      </trkpt>
      <trkpt lat="43.48723" lon="6.62554">
        <ele>29.7</ele>
        <time>2023-11-05T13:00:42Z</time>
      </trkpt>
      <trkpt lat="43.48722" lon="6.62555">
        <ele>29.6</ele>
        <time>2023-11-05T13:00:43Z</time>
      </trkpt>
      <trkpt lat="43.48721" lon="6.62556">
        <ele>29.6</ele>
        <time>2023-11-05T13:00:44Z</time>
      </trkpt>
      <trkpt lat="43.4872" lon="6.62557">
        <ele>29.5</ele>
        <time>2023-11-05T13:00:45Z</time>
      </trkpt>
      <trkpt lat="43.48718" lon="6.62558">
        <ele>29.4</ele>
        <time>2023-11-05T13:00:46Z</time>
      </trkpt>
      <trkpt lat="43.48717" lon="6.62559">
        <ele>29.3</ele>
        <time>2023-11-05T13:00:47Z</time>
      </trkpt>
      <trkpt lat="43.48716" lon="6.62559">
        <ele>29.3</ele>
        <time>2023-11-05T13:00:48Z</time>
      </trkpt>
      <trkpt lat="43.48716" lon="6.6256">
        <ele>29.5</ele>
        <time>2023-11-05T13:00:49Z</time>
      </trkpt>
      <trkpt lat="43.48715" lon="6.62561">
        <ele>29.5</ele>
        <time>2023-11-05T13:00:50Z</time>
      </trkpt>
      <trkpt lat="43.48714" lon="6.62561">
        <ele>28.7</ele>
        <time>2023-11-05T13:00:51Z</time>
      </trkpt>
      <trkpt lat="43.48713" lon="6.62561">
        <ele>28.9</ele>
        <time>2023-11-05T13:00:52Z</time>
      </trkpt>
      <trkpt lat="43.48712" lon="6.62562">
        <ele>29.1</ele>
        <time>2023-11-05T13:00:53Z</time>
      </trkpt>
      <trkpt lat="43.48711" lon="6.62562">
        <ele>29.3</ele>
        <time>2023-11-05T13:00:54Z</time>
      </trkpt>
      <trkpt lat="43.4871" lon="6.62563">
        <ele>29.5</ele>
        <time>2023-11-05T13:00:55Z</time>
      </trkpt>
      <trkpt lat="43.48709" lon="6.62564">
        <ele>29.6</ele>
        <time>2023-11-05T13:00:56Z</time>
      </trkpt>
      <trkpt lat="43.48708" lon="6.62565">
        <ele>29.6</ele>
        <time>2023-11-05T13:00:57Z</time>
      </trkpt>
      <trkpt lat="43.48707" lon="6.62566">
        <ele>29.7</ele>
        <time>2023-11-05T13:00:58Z</time>
      </trkpt>
      <trkpt lat="43.48706" lon="6.62566">
        <ele>29.7</ele>
        <time>2023-11-05T13:00:59Z</time>
      </trkpt>
      <trkpt lat="43.48705" lon="6.62566">
        <ele>29.7</ele>
        <time>2023-11-05T13:01:00Z</time>
      </trkpt>
      <trkpt lat="43.48704" lon="6.62567">
        <ele>29.7</ele>
        <time>2023-11-05T13:01:01Z</time>
      </trkpt>
      <trkpt lat="43.48703" lon="6.62567">
        <ele>29.7</ele>
        <time>2023-11-05T13:01:02Z</time>
      </trkpt>
      <trkpt lat="43.48702" lon="6.62568">
        <ele>29.7</ele>
        <time>2023-11-05T13:01:03Z</time>
      </trkpt>
      <trkpt lat="43.48701" lon="6.62568">
        <ele>29.6</ele>
        <time>2023-11-05T13:01:04Z</time>
      </trkpt>
      <trkpt lat="43.487" lon="6.62568">
        <ele>29.5</ele>
        <time>2023-11-05T13:01:05Z</time>
      </trkpt>
      <trkpt lat="43.48699" lon="6.62568">
        <ele>29.5</ele>
        <time>2023-11-05T13:01:06Z</time>
      </trkpt>
      <trkpt lat="43.48697" lon="6.62568">
        <ele>29.4</ele>
        <time>2023-11-05T13:01:07Z</time>
      </trkpt>
      <trkpt lat="43.48696" lon="6.62568">
        <ele>29.4</ele>
        <time>2023-11-05T13:01:08Z</time>
      </trkpt>
      <trkpt lat="43.48695" lon="6.62568">
        <ele>29.3</ele>
        <time>2023-11-05T13:01:09Z</time>
      </trkpt>
      <trkpt lat="43.48694" lon="6.62568">
        <ele>29.3</ele>
        <time>2023-11-05T13:01:10Z</time>
      </trkpt>
      <trkpt lat="43.48693" lon="6.62568">
        <ele>29.3</ele>
        <time>2023-11-05T13:01:11Z</time>
      </trkpt>
      <trkpt lat="43.48692" lon="6.62569">
        <ele>29.4</ele>
        <time>2023-11-05T13:01:12Z</time>
      </trkpt>
      <trkpt lat="43.4869" lon="6.62569">
        <ele>29.4</ele>
        <time>2023-11-05T13:01:13Z</time>
      </trkpt>
      <trkpt lat="43.48689" lon="6.6257">
        <ele>29.3</ele>
        <time>2023-11-05T13:01:14Z</time>
      </trkpt>
      <trkpt lat="43.48688" lon="6.6257">
        <ele>29.3</ele>
        <time>2023-11-05T13:01:15Z</time>
      </trkpt>
      <trkpt lat="43.48687" lon="6.62571">
        <ele>29.2</ele>
        <time>2023-11-05T13:01:16Z</time>
      </trkpt>
      <trkpt lat="43.48685" lon="6.62571">
        <ele>29.1</ele>
        <time>2023-11-05T13:01:17Z</time>
      </trkpt>
      <trkpt lat="43.48684" lon="6.62571">
        <ele>28.8</ele>
        <time>2023-11-05T13:01:18Z</time>
      </trkpt>
      <trkpt lat="43.48682" lon="6.62571">
        <ele>28.1</ele>
        <time>2023-11-05T13:01:19Z</time>
      </trkpt>
      <trkpt lat="43.48681" lon="6.62572">
        <ele>28.2</ele>
        <time>2023-11-05T13:01:20Z</time>
      </trkpt>
      <trkpt lat="43.4868" lon="6.62572">
        <ele>28.4</ele>
        <time>2023-11-05T13:01:21Z</time>
      </trkpt>
      <trkpt lat="43.48679" lon="6.62573">
        <ele>28.6</ele>
        <time>2023-11-05T13:01:22Z</time>
      </trkpt>
      <trkpt lat="43.48678" lon="6.62573">
        <ele>28.7</ele>
        <time>2023-11-05T13:01:23Z</time>
      </trkpt>
      <trkpt lat="43.48676" lon="6.62574">
        <ele>28.8</ele>
        <time>2023-11-05T13:01:24Z</time>
      </trkpt>
      <trkpt lat="43.48676" lon="6.62574">
        <ele>28.9</ele>
        <time>2023-11-05T13:01:25Z</time>
      </trkpt>
      <trkpt lat="43.48675" lon="6.62575">
        <ele>29.1</ele>
        <time>2023-11-05T13:01:26Z</time>
      </trkpt>
      <trkpt lat="43.48674" lon="6.62575">
        <ele>29</ele>
        <time>2023-11-05T13:01:27Z</time>
      </trkpt>
      <trkpt lat="43.48673" lon="6.62575">
        <ele>29.1</ele>
        <time>2023-11-05T13:01:28Z</time>
      </trkpt>
      <trkpt lat="43.48672" lon="6.62576">
        <ele>29</ele>
        <time>2023-11-05T13:01:29Z</time>
      </trkpt>
      <trkpt lat="43.48671" lon="6.62577">
        <ele>28.9</ele>
        <time>2023-11-05T13:01:30Z</time>
      </trkpt>
      <trkpt lat="43.4867" lon="6.62578">
        <ele>28.7</ele>
        <time>2023-11-05T13:01:31Z</time>
      </trkpt>
      <trkpt lat="43.48669" lon="6.62579">
        <ele>28.6</ele>
        <time>2023-11-05T13:01:32Z</time>
      </trkpt>
      <trkpt lat="43.48668" lon="6.62579">
        <ele>28.4</ele>
        <time>2023-11-05T13:01:33Z</time>
      </trkpt>
      <trkpt lat="43.48667" lon="6.6258">
        <ele>28.2</ele>
        <time>2023-11-05T13:01:34Z</time>
      </trkpt>
      <trkpt lat="43.48667" lon="6.62581">
        <ele>28.2</ele>
        <time>2023-11-05T13:01:35Z</time>
      </trkpt>
      <trkpt lat="43.48666" lon="6.62581">
        <ele>28.1</ele>
        <time>2023-11-05T13:01:36Z</time>
      </trkpt>
      <trkpt lat="43.48664" lon="6.62581">
        <ele>27.9</ele>
        <time>2023-11-05T13:01:37Z</time>
      </trkpt>
      <trkpt lat="43.48663" lon="6.6258">
        <ele>27.9</ele>
        <time>2023-11-05T13:01:38Z</time>
      </trkpt>
      <trkpt lat="43.48662" lon="6.6258">
        <ele>27.9</ele>
        <time>2023-11-05T13:01:39Z</time>
      </trkpt>
      <trkpt lat="43.48661" lon="6.6258">
        <ele>28</ele>
        <time>2023-11-05T13:01:40Z</time>
      </trkpt>
      <trkpt lat="43.4866" lon="6.62581">
        <ele>28.2</ele>
        <time>2023-11-05T13:01:41Z</time>
      </trkpt>
      <trkpt lat="43.48659" lon="6.62581">
        <ele>28.3</ele>
        <time>2023-11-05T13:01:42Z</time>
      </trkpt>
      <trkpt lat="43.48658" lon="6.62582">
        <ele>28.3</ele>
        <time>2023-11-05T13:01:43Z</time>
      </trkpt>
      <trkpt lat="43.48657" lon="6.62582">
        <ele>28.4</ele>
        <time>2023-11-05T13:01:44Z</time>
      </trkpt>
      <trkpt lat="43.48656" lon="6.62582">
        <ele>28.5</ele>
        <time>2023-11-05T13:01:45Z</time>
      </trkpt>
      <trkpt lat="43.48654" lon="6.62583">
        <ele>28.5</ele>
        <time>2023-11-05T13:01:46Z</time>
      </trkpt>
      <trkpt lat="43.48654" lon="6.62583">
        <ele>28.5</ele>
        <time>2023-11-05T13:01:47Z</time>
      </trkpt>
      <trkpt lat="43.48653" lon="6.62584">
        <ele>28.5</ele>
        <time>2023-11-05T13:01:48Z</time>
      </trkpt>
      <trkpt lat="43.48652" lon="6.62585">
        <ele>28.5</ele>
        <time>2023-11-05T13:01:49Z</time>
      </trkpt>
      <trkpt lat="43.4865" lon="6.62586">
        <ele>28.5</ele>
        <time>2023-11-05T13:01:50Z</time>
      </trkpt>
      <trkpt lat="43.48649" lon="6.62587">
        <ele>28.6</ele>
        <time>2023-11-05T13:01:51Z</time>
      </trkpt>
      <trkpt lat="43.48648" lon="6.62588">
        <ele>28.7</ele>
        <time>2023-11-05T13:01:52Z</time>
      </trkpt>
      <trkpt lat="43.48647" lon="6.62588">
        <ele>28.8</ele>
        <time>2023-11-05T13:01:53Z</time>
      </trkpt>
      <trkpt lat="43.48646" lon="6.62588">
        <ele>28.9</ele>
        <time>2023-11-05T13:01:54Z</time>
      </trkpt>
      <trkpt lat="43.48644" lon="6.62588">
        <ele>28.9</ele>
        <time>2023-11-05T13:01:55Z</time>
      </trkpt>
      <trkpt lat="43.48643" lon="6.62588">
        <ele>28.8</ele>
        <time>2023-11-05T13:01:56Z</time>
      </trkpt>
      <trkpt lat="43.48642" lon="6.62588">
        <ele>28.8</ele>
        <time>2023-11-05T13:01:57Z</time>
      </trkpt>
      <trkpt lat="43.48641" lon="6.62588">
        <ele>28.7</ele>
        <time>2023-11-05T13:01:58Z</time>
      </trkpt>
      <trkpt lat="43.4864" lon="6.62588">
        <ele>28.7</ele>
        <time>2023-11-05T13:01:59Z</time>
      </trkpt>
      <trkpt lat="43.48639" lon="6.62589">
        <ele>28.6</ele>
        <time>2023-11-05T13:02:00Z</time>
      </trkpt>
      <trkpt lat="43.48637" lon="6.62589">
        <ele>28.6</ele>
        <time>2023-11-05T13:02:01Z</time>
      </trkpt>
      <trkpt lat="43.48636" lon="6.62589">
        <ele>28.5</ele>
        <time>2023-11-05T13:02:02Z</time>
      </trkpt>
      <trkpt lat="43.48634" lon="6.62589">
        <ele>28.5</ele>
        <time>2023-11-05T13:02:03Z</time>
      </trkpt>
      <trkpt lat="43.48633" lon="6.6259">
        <ele>28.5</ele>
        <time>2023-11-05T13:02:04Z</time>
      </trkpt>
      <trkpt lat="43.48631" lon="6.62591">
        <ele>28.5</ele>
        <time>2023-11-05T13:02:05Z</time>
      </trkpt>
      <trkpt lat="43.4863" lon="6.62592">
        <ele>28.6</ele>
        <time>2023-11-05T13:02:06Z</time>
      </trkpt>
      <trkpt lat="43.48629" lon="6.62592">
        <ele>26.9</ele>
        <time>2023-11-05T13:02:07Z</time>
      </trkpt>
      <trkpt lat="43.48628" lon="6.62593">
        <ele>27.2</ele>
        <time>2023-11-05T13:02:08Z</time>
      </trkpt>
      <trkpt lat="43.48627" lon="6.62593">
        <ele>27.4</ele>
        <time>2023-11-05T13:02:09Z</time>
      </trkpt>
      <trkpt lat="43.48626" lon="6.62594">
        <ele>27.6</ele>
        <time>2023-11-05T13:02:10Z</time>
      </trkpt>
      <trkpt lat="43.48625" lon="6.62595">
        <ele>27.8</ele>
        <time>2023-11-05T13:02:11Z</time>
      </trkpt>
      <trkpt lat="43.48624" lon="6.62595">
        <ele>27.8</ele>
        <time>2023-11-05T13:02:12Z</time>
      </trkpt>
      <trkpt lat="43.48623" lon="6.62596">
        <ele>27.9</ele>
        <time>2023-11-05T13:02:13Z</time>
      </trkpt>
      <trkpt lat="43.48622" lon="6.62597">
        <ele>27.9</ele>
        <time>2023-11-05T13:02:14Z</time>
      </trkpt>
      <trkpt lat="43.48621" lon="6.62598">
        <ele>27.9</ele>
        <time>2023-11-05T13:02:15Z</time>
      </trkpt>
      <trkpt lat="43.4862" lon="6.62598">
        <ele>27.9</ele>
        <time>2023-11-05T13:02:16Z</time>
      </trkpt>
      <trkpt lat="43.48618" lon="6.62599">
        <ele>27.8</ele>
        <time>2023-11-05T13:02:17Z</time>
      </trkpt>
      <trkpt lat="43.48617" lon="6.626">
        <ele>27.8</ele>
        <time>2023-11-05T13:02:18Z</time>
      </trkpt>
      <trkpt lat="43.48616" lon="6.62601">
        <ele>27.7</ele>
        <time>2023-11-05T13:02:19Z</time>
      </trkpt>
      <trkpt lat="43.48615" lon="6.62601">
        <ele>27.6</ele>
        <time>2023-11-05T13:02:20Z</time>
      </trkpt>
      <trkpt lat="43.48615" lon="6.62602">
        <ele>27.7</ele>
        <time>2023-11-05T13:02:21Z</time>
      </trkpt>
      <trkpt lat="43.48614" lon="6.62603">
        <ele>27.7</ele>
        <time>2023-11-05T13:02:22Z</time>
      </trkpt>
      <trkpt lat="43.48613" lon="6.62603">
        <ele>27.7</ele>
        <time>2023-11-05T13:02:23Z</time>
      </trkpt>
      <trkpt lat="43.48611" lon="6.62604">
        <ele>27.7</ele>
        <time>2023-11-05T13:02:24Z</time>
      </trkpt>
      <trkpt lat="43.4861" lon="6.62604">
        <ele>27.7</ele>
        <time>2023-11-05T13:02:25Z</time>
      </trkpt>
      <trkpt lat="43.48609" lon="6.62605">
        <ele>27.7</ele>
        <time>2023-11-05T13:02:26Z</time>
      </trkpt>
      <trkpt lat="43.48608" lon="6.62605">
        <ele>27.7</ele>
        <time>2023-11-05T13:02:27Z</time>
      </trkpt>
      <trkpt lat="43.48608" lon="6.62606">
        <ele>27.7</ele>
        <time>2023-11-05T13:02:28Z</time>
      </trkpt>
      <trkpt lat="43.48606" lon="6.62606">
        <ele>27.7</ele>
        <time>2023-11-05T13:02:29Z</time>
      </trkpt>
      <trkpt lat="43.48605" lon="6.62606">
        <ele>27.7</ele>
        <time>2023-11-05T13:02:30Z</time>
      </trkpt>
      <trkpt lat="43.48604" lon="6.62606">
        <ele>27.7</ele>
        <time>2023-11-05T13:02:31Z</time>
      </trkpt>
      <trkpt lat="43.48603" lon="6.62606">
        <ele>27.7</ele>
        <time>2023-11-05T13:02:32Z</time>
      </trkpt>
      <trkpt lat="43.48602" lon="6.62607">
        <ele>27.8</ele>
        <time>2023-11-05T13:02:33Z</time>
      </trkpt>
      <trkpt lat="43.48601" lon="6.62607">
        <ele>27.9</ele>
        <time>2023-11-05T13:02:34Z</time>
      </trkpt>
      <trkpt lat="43.48599" lon="6.62607">
        <ele>27.9</ele>
        <time>2023-11-05T13:02:35Z</time>
      </trkpt>
      <trkpt lat="43.48598" lon="6.62607">
        <ele>28</ele>
        <time>2023-11-05T13:02:36Z</time>
      </trkpt>
      <trkpt lat="43.48597" lon="6.62607">
        <ele>28</ele>
        <time>2023-11-05T13:02:37Z</time>
      </trkpt>
      <trkpt lat="43.48596" lon="6.62606">
        <ele>28</ele>
        <time>2023-11-05T13:02:38Z</time>
      </trkpt>
      <trkpt lat="43.48594" lon="6.62606">
        <ele>28</ele>
        <time>2023-11-05T13:02:39Z</time>
      </trkpt>
      <trkpt lat="43.48593" lon="6.62606">
        <ele>28</ele>
        <time>2023-11-05T13:02:40Z</time>
      </trkpt>
      <trkpt lat="43.48591" lon="6.62606">
        <ele>28</ele>
        <time>2023-11-05T13:02:41Z</time>
      </trkpt>
      <trkpt lat="43.4859" lon="6.62606">
        <ele>28</ele>
        <time>2023-11-05T13:02:42Z</time>
      </trkpt>
      <trkpt lat="43.4859" lon="6.62606">
        <ele>27.9</ele>
        <time>2023-11-05T13:02:43Z</time>
      </trkpt>
      <trkpt lat="43.48588" lon="6.62606">
        <ele>27.9</ele>
        <time>2023-11-05T13:02:44Z</time>
      </trkpt>
      <trkpt lat="43.48587" lon="6.62605">
        <ele>27.7</ele>
        <time>2023-11-05T13:02:45Z</time>
      </trkpt>
      <trkpt lat="43.48586" lon="6.62606">
        <ele>27.8</ele>
        <time>2023-11-05T13:02:46Z</time>
      </trkpt>
      <trkpt lat="43.48585" lon="6.62606">
        <ele>27.9</ele>
        <time>2023-11-05T13:02:47Z</time>
      </trkpt>
      <trkpt lat="43.48583" lon="6.62606">
        <ele>27.8</ele>
        <time>2023-11-05T13:02:48Z</time>
      </trkpt>
      <trkpt lat="43.48582" lon="6.62606">
        <ele>27.8</ele>
        <time>2023-11-05T13:02:49Z</time>
      </trkpt>
      <trkpt lat="43.48581" lon="6.62606">
        <ele>27.8</ele>
        <time>2023-11-05T13:02:50Z</time>
      </trkpt>
      <trkpt lat="43.48579" lon="6.62606">
        <ele>27.8</ele>
        <time>2023-11-05T13:02:51Z</time>
      </trkpt>
      <trkpt lat="43.48578" lon="6.62606">
        <ele>27.8</ele>
        <time>2023-11-05T13:02:52Z</time>
      </trkpt>
      <trkpt lat="43.48577" lon="6.62606">
        <ele>27.7</ele>
        <time>2023-11-05T13:02:53Z</time>
      </trkpt>
      <trkpt lat="43.48576" lon="6.62606">
        <ele>27.7</ele>
        <time>2023-11-05T13:02:54Z</time>
      </trkpt>
      <trkpt lat="43.48575" lon="6.62606">
        <ele>27.7</ele>
        <time>2023-11-05T13:02:55Z</time>
      </trkpt>
      <trkpt lat="43.48573" lon="6.62606">
        <ele>27.8</ele>
        <time>2023-11-05T13:02:56Z</time>
      </trkpt>
      <trkpt lat="43.48572" lon="6.62606">
        <ele>27.8</ele>
        <time>2023-11-05T13:02:57Z</time>
      </trkpt>
      <trkpt lat="43.48571" lon="6.62606">
        <ele>27.8</ele>
        <time>2023-11-05T13:02:58Z</time>
      </trkpt>
      <trkpt lat="43.4857" lon="6.62605">
        <ele>27.8</ele>
        <time>2023-11-05T13:02:59Z</time>
      </trkpt>
      <trkpt lat="43.48568" lon="6.62605">
        <ele>27.8</ele>
        <time>2023-11-05T13:03:00Z</time>
      </trkpt>
      <trkpt lat="43.48567" lon="6.62605">
        <ele>27.8</ele>
        <time>2023-11-05T13:03:01Z</time>
      </trkpt>
      <trkpt lat="43.48566" lon="6.62605">
        <ele>27.7</ele>
        <time>2023-11-05T13:03:02Z</time>
      </trkpt>
      <trkpt lat="43.48565" lon="6.62604">
        <ele>27.7</ele>
        <time>2023-11-05T13:03:03Z</time>
      </trkpt>
      <trkpt lat="43.48563" lon="6.62604">
        <ele>27.7</ele>
        <time>2023-11-05T13:03:04Z</time>
      </trkpt>
      <trkpt lat="43.48562" lon="6.62604">
        <ele>27.7</ele>
        <time>2023-11-05T13:03:05Z</time>
      </trkpt>
      <trkpt lat="43.48561" lon="6.62604">
        <ele>27.6</ele>
        <time>2023-11-05T13:03:06Z</time>
      </trkpt>
      <trkpt lat="43.4856" lon="6.62604">
        <ele>27.6</ele>
        <time>2023-11-05T13:03:07Z</time>
      </trkpt>
      <trkpt lat="43.48559" lon="6.62604">
        <ele>27.6</ele>
        <time>2023-11-05T13:03:08Z</time>
      </trkpt>
      <trkpt lat="43.48558" lon="6.62604">
        <ele>27.5</ele>
        <time>2023-11-05T13:03:09Z</time>
      </trkpt>
      <trkpt lat="43.48557" lon="6.62604">
        <ele>27.5</ele>
        <time>2023-11-05T13:03:10Z</time>
      </trkpt>
      <trkpt lat="43.48556" lon="6.62604">
        <ele>27.5</ele>
        <time>2023-11-05T13:03:11Z</time>
      </trkpt>
      <trkpt lat="43.48554" lon="6.62603">
        <ele>27.5</ele>
        <time>2023-11-05T13:03:12Z</time>
      </trkpt>
      <trkpt lat="43.48553" lon="6.62603">
        <ele>27.6</ele>
        <time>2023-11-05T13:03:13Z</time>
      </trkpt>
      <trkpt lat="43.48552" lon="6.62603">
        <ele>27.6</ele>
        <time>2023-11-05T13:03:14Z</time>
      </trkpt>
      <trkpt lat="43.48551" lon="6.62604">
        <ele>27.7</ele>
        <time>2023-11-05T13:03:15Z</time>
      </trkpt>
      <trkpt lat="43.4855" lon="6.62605">
        <ele>27.7</ele>
        <time>2023-11-05T13:03:16Z</time>
      </trkpt>
      <trkpt lat="43.48548" lon="6.62606">
        <ele>27.6</ele>
        <time>2023-11-05T13:03:17Z</time>
      </trkpt>
      <trkpt lat="43.48547" lon="6.62607">
        <ele>27.6</ele>
        <time>2023-11-05T13:03:18Z</time>
      </trkpt>
      <trkpt lat="43.48546" lon="6.62608">
        <ele>27.5</ele>
        <time>2023-11-05T13:03:19Z</time>
      </trkpt>
      <trkpt lat="43.48545" lon="6.62609">
        <ele>27.4</ele>
        <time>2023-11-05T13:03:20Z</time>
      </trkpt>
      <trkpt lat="43.48544" lon="6.6261">
        <ele>27.4</ele>
        <time>2023-11-05T13:03:21Z</time>
      </trkpt>
      <trkpt lat="43.48544" lon="6.62611">
        <ele>27.4</ele>
        <time>2023-11-05T13:03:22Z</time>
      </trkpt>
      <trkpt lat="43.48543" lon="6.62614">
        <ele>27.3</ele>
        <time>2023-11-05T13:03:23Z</time>
      </trkpt>
      <trkpt lat="43.48543" lon="6.62615">
        <ele>27.4</ele>
        <time>2023-11-05T13:03:24Z</time>
      </trkpt>
      <trkpt lat="43.48543" lon="6.62617">
        <ele>27.4</ele>
        <time>2023-11-05T13:03:25Z</time>
      </trkpt>
      <trkpt lat="43.48543" lon="6.62618">
        <ele>27.3</ele>
        <time>2023-11-05T13:03:26Z</time>
      </trkpt>
      <trkpt lat="43.48543" lon="6.6262">
        <ele>27.2</ele>
        <time>2023-11-05T13:03:27Z</time>
      </trkpt>
      <trkpt lat="43.48543" lon="6.62622">
        <ele>27.1</ele>
        <time>2023-11-05T13:03:28Z</time>
      </trkpt>
      <trkpt lat="43.48543" lon="6.62623">
        <ele>27.1</ele>
        <time>2023-11-05T13:03:29Z</time>
      </trkpt>
      <trkpt lat="43.48542" lon="6.62625">
        <ele>27</ele>
        <time>2023-11-05T13:03:30Z</time>
      </trkpt>
      <trkpt lat="43.48542" lon="6.62626">
        <ele>26.9</ele>
        <time>2023-11-05T13:03:31Z</time>
      </trkpt>
      <trkpt lat="43.48541" lon="6.62628">
        <ele>26.8</ele>
        <time>2023-11-05T13:03:32Z</time>
      </trkpt>
      <trkpt lat="43.4854" lon="6.6263">
        <ele>26.7</ele>
        <time>2023-11-05T13:03:33Z</time>
      </trkpt>
      <trkpt lat="43.4854" lon="6.62632">
        <ele>26.7</ele>
        <time>2023-11-05T13:03:34Z</time>
      </trkpt>
      <trkpt lat="43.4854" lon="6.62633">
        <ele>26.6</ele>
        <time>2023-11-05T13:03:35Z</time>
      </trkpt>
      <trkpt lat="43.4854" lon="6.62635">
        <ele>26.5</ele>
        <time>2023-11-05T13:03:36Z</time>
      </trkpt>
      <trkpt lat="43.48539" lon="6.62636">
        <ele>26.4</ele>
        <time>2023-11-05T13:03:37Z</time>
      </trkpt>
      <trkpt lat="43.48539" lon="6.62638">
        <ele>26.3</ele>
        <time>2023-11-05T13:03:38Z</time>
      </trkpt>
      <trkpt lat="43.48538" lon="6.62639">
        <ele>26.3</ele>
        <time>2023-11-05T13:03:39Z</time>
      </trkpt>
      <trkpt lat="43.48539" lon="6.62641">
        <ele>26.3</ele>
        <time>2023-11-05T13:03:40Z</time>
      </trkpt>
      <trkpt lat="43.48539" lon="6.62642">
        <ele>26.3</ele>
        <time>2023-11-05T13:03:41Z</time>
      </trkpt>
      <trkpt lat="43.48538" lon="6.62643">
        <ele>26.3</ele>
        <time>2023-11-05T13:03:42Z</time>
      </trkpt>
      <trkpt lat="43.48538" lon="6.62645">
        <ele>26.3</ele>
        <time>2023-11-05T13:03:43Z</time>
      </trkpt>
      <trkpt lat="43.48538" lon="6.62646">
        <ele>26.3</ele>
        <time>2023-11-05T13:03:44Z</time>
      </trkpt>
      <trkpt lat="43.48538" lon="6.62648">
        <ele>26.4</ele>
        <time>2023-11-05T13:03:45Z</time>
      </trkpt>
      <trkpt lat="43.48538" lon="6.6265">
        <ele>26.4</ele>
        <time>2023-11-05T13:03:46Z</time>
      </trkpt>
      <trkpt lat="43.48538" lon="6.62651">
        <ele>26.5</ele>
        <time>2023-11-05T13:03:47Z</time>
      </trkpt>
      <trkpt lat="43.48538" lon="6.62652">
        <ele>26.5</ele>
        <time>2023-11-05T13:03:48Z</time>
      </trkpt>
      <trkpt lat="43.48538" lon="6.62654">
        <ele>26.5</ele>
        <time>2023-11-05T13:03:49Z</time>
      </trkpt>
      <trkpt lat="43.48537" lon="6.62656">
        <ele>26.6</ele>
        <time>2023-11-05T13:03:50Z</time>
      </trkpt>
      <trkpt lat="43.48538" lon="6.62657">
        <ele>26.6</ele>
        <time>2023-11-05T13:03:51Z</time>
      </trkpt>
      <trkpt lat="43.48537" lon="6.62658">
        <ele>26.6</ele>
        <time>2023-11-05T13:03:52Z</time>
      </trkpt>
      <trkpt lat="43.48537" lon="6.6266">
        <ele>26.7</ele>
        <time>2023-11-05T13:03:53Z</time>
      </trkpt>
      <trkpt lat="43.48537" lon="6.62663">
        <ele>26.7</ele>
        <time>2023-11-05T13:03:54Z</time>
      </trkpt>
      <trkpt lat="43.48537" lon="6.62664">
        <ele>26.7</ele>
        <time>2023-11-05T13:03:55Z</time>
      </trkpt>
      <trkpt lat="43.48537" lon="6.62666">
        <ele>26.7</ele>
        <time>2023-11-05T13:03:56Z</time>
      </trkpt>
      <trkpt lat="43.48536" lon="6.62668">
        <ele>26.9</ele>
        <time>2023-11-05T13:03:57Z</time>
      </trkpt>
      <trkpt lat="43.48536" lon="6.62669">
        <ele>27</ele>
        <time>2023-11-05T13:03:58Z</time>
      </trkpt>
      <trkpt lat="43.48535" lon="6.62671">
        <ele>27.1</ele>
        <time>2023-11-05T13:03:59Z</time>
      </trkpt>
      <trkpt lat="43.48534" lon="6.62672">
        <ele>27.1</ele>
        <time>2023-11-05T13:04:00Z</time>
      </trkpt>
      <trkpt lat="43.48533" lon="6.62673">
        <ele>27.2</ele>
        <time>2023-11-05T13:04:01Z</time>
      </trkpt>
      <trkpt lat="43.48532" lon="6.62674">
        <ele>27.2</ele>
        <time>2023-11-05T13:04:02Z</time>
      </trkpt>
      <trkpt lat="43.48531" lon="6.62675">
        <ele>27.3</ele>
        <time>2023-11-05T13:04:03Z</time>
      </trkpt>
      <trkpt lat="43.4853" lon="6.62676">
        <ele>27.3</ele>
        <time>2023-11-05T13:04:04Z</time>
      </trkpt>
      <trkpt lat="43.48529" lon="6.62677">
        <ele>27.3</ele>
        <time>2023-11-05T13:04:05Z</time>
      </trkpt>
      <trkpt lat="43.48529" lon="6.62678">
        <ele>27.3</ele>
        <time>2023-11-05T13:04:06Z</time>
      </trkpt>
      <trkpt lat="43.48528" lon="6.62678">
        <ele>27.2</ele>
        <time>2023-11-05T13:04:07Z</time>
      </trkpt>
      <trkpt lat="43.48527" lon="6.62678">
        <ele>27.2</ele>
        <time>2023-11-05T13:04:08Z</time>
      </trkpt>
      <trkpt lat="43.48526" lon="6.62679">
        <ele>27.3</ele>
        <time>2023-11-05T13:04:09Z</time>
      </trkpt>
      <trkpt lat="43.48525" lon="6.62679">
        <ele>27.4</ele>
        <time>2023-11-05T13:04:10Z</time>
      </trkpt>
      <trkpt lat="43.48523" lon="6.6268">
        <ele>27.4</ele>
        <time>2023-11-05T13:04:11Z</time>
      </trkpt>
      <trkpt lat="43.48522" lon="6.6268">
        <ele>27.4</ele>
        <time>2023-11-05T13:04:12Z</time>
      </trkpt>
      <trkpt lat="43.4852" lon="6.62681">
        <ele>27.4</ele>
        <time>2023-11-05T13:04:13Z</time>
      </trkpt>
      <trkpt lat="43.48519" lon="6.62682">
        <ele>27.3</ele>
        <time>2023-11-05T13:04:14Z</time>
      </trkpt>
      <trkpt lat="43.48518" lon="6.62683">
        <ele>27.2</ele>
        <time>2023-11-05T13:04:15Z</time>
      </trkpt>
      <trkpt lat="43.48517" lon="6.62683">
        <ele>27.1</ele>
        <time>2023-11-05T13:04:16Z</time>
      </trkpt>
      <trkpt lat="43.48516" lon="6.62684">
        <ele>27</ele>
        <time>2023-11-05T13:04:17Z</time>
      </trkpt>
      <trkpt lat="43.48515" lon="6.62684">
        <ele>27</ele>
        <time>2023-11-05T13:04:18Z</time>
      </trkpt>
      <trkpt lat="43.48514" lon="6.62685">
        <ele>26.9</ele>
        <time>2023-11-05T13:04:19Z</time>
      </trkpt>
      <trkpt lat="43.48513" lon="6.62686">
        <ele>26.8</ele>
        <time>2023-11-05T13:04:20Z</time>
      </trkpt>
      <trkpt lat="43.48512" lon="6.62687">
        <ele>26.8</ele>
        <time>2023-11-05T13:04:21Z</time>
      </trkpt>
      <trkpt lat="43.4851" lon="6.62688">
        <ele>26.8</ele>
        <time>2023-11-05T13:04:22Z</time>
      </trkpt>
      <trkpt lat="43.48509" lon="6.62689">
        <ele>26.8</ele>
        <time>2023-11-05T13:04:23Z</time>
      </trkpt>
      <trkpt lat="43.48508" lon="6.6269">
        <ele>26.6</ele>
        <time>2023-11-05T13:04:24Z</time>
      </trkpt>
      <trkpt lat="43.48507" lon="6.62691">
        <ele>26.5</ele>
        <time>2023-11-05T13:04:25Z</time>
      </trkpt>
      <trkpt lat="43.48506" lon="6.62691">
        <ele>26.5</ele>
        <time>2023-11-05T13:04:26Z</time>
      </trkpt>
      <trkpt lat="43.48505" lon="6.62692">
        <ele>26.5</ele>
        <time>2023-11-05T13:04:27Z</time>
      </trkpt>
      <trkpt lat="43.48504" lon="6.62693">
        <ele>26.4</ele>
        <time>2023-11-05T13:04:28Z</time>
      </trkpt>
      <trkpt lat="43.48504" lon="6.62694">
        <ele>26.3</ele>
        <time>2023-11-05T13:04:29Z</time>
      </trkpt>
      <trkpt lat="43.48503" lon="6.62695">
        <ele>26.3</ele>
        <time>2023-11-05T13:04:30Z</time>
      </trkpt>
      <trkpt lat="43.48502" lon="6.62695">
        <ele>26.3</ele>
        <time>2023-11-05T13:04:31Z</time>
      </trkpt>
      <trkpt lat="43.485" lon="6.62695">
        <ele>26.2</ele>
        <time>2023-11-05T13:04:32Z</time>
      </trkpt>
      <trkpt lat="43.48499" lon="6.62696">
        <ele>26.2</ele>
        <time>2023-11-05T13:04:33Z</time>
      </trkpt>
      <trkpt lat="43.48498" lon="6.62696">
        <ele>26.1</ele>
        <time>2023-11-05T13:04:34Z</time>
      </trkpt>
      <trkpt lat="43.48497" lon="6.62697">
        <ele>26.1</ele>
        <time>2023-11-05T13:04:35Z</time>
      </trkpt>
      <trkpt lat="43.48495" lon="6.62697">
        <ele>26.1</ele>
        <time>2023-11-05T13:04:36Z</time>
      </trkpt>
      <trkpt lat="43.48494" lon="6.62698">
        <ele>26</ele>
        <time>2023-11-05T13:04:37Z</time>
      </trkpt>
      <trkpt lat="43.48493" lon="6.62698">
        <ele>26.1</ele>
        <time>2023-11-05T13:04:38Z</time>
      </trkpt>
      <trkpt lat="43.48492" lon="6.62697">
        <ele>26.1</ele>
        <time>2023-11-05T13:04:39Z</time>
      </trkpt>
      <trkpt lat="43.48491" lon="6.62696">
        <ele>26.1</ele>
        <time>2023-11-05T13:04:40Z</time>
      </trkpt>
      <trkpt lat="43.4849" lon="6.62696">
        <ele>26.1</ele>
        <time>2023-11-05T13:04:41Z</time>
      </trkpt>
      <trkpt lat="43.48489" lon="6.62695">
        <ele>26</ele>
        <time>2023-11-05T13:04:42Z</time>
      </trkpt>
      <trkpt lat="43.48488" lon="6.62695">
        <ele>25.9</ele>
        <time>2023-11-05T13:04:43Z</time>
      </trkpt>
      <trkpt lat="43.48487" lon="6.62695">
        <ele>25.9</ele>
        <time>2023-11-05T13:04:44Z</time>
      </trkpt>
      <trkpt lat="43.48487" lon="6.62696">
        <ele>25.9</ele>
        <time>2023-11-05T13:04:45Z</time>
      </trkpt>
      <trkpt lat="43.48486" lon="6.62695">
        <ele>25.9</ele>
        <time>2023-11-05T13:04:46Z</time>
      </trkpt>
      <trkpt lat="43.48485" lon="6.62695">
        <ele>25.8</ele>
        <time>2023-11-05T13:04:47Z</time>
      </trkpt>
      <trkpt lat="43.48484" lon="6.62695">
        <ele>25.8</ele>
        <time>2023-11-05T13:04:48Z</time>
      </trkpt>
      <trkpt lat="43.48483" lon="6.62695">
        <ele>25.8</ele>
        <time>2023-11-05T13:04:49Z</time>
      </trkpt>
      <trkpt lat="43.48482" lon="6.62695">
        <ele>25.9</ele>
        <time>2023-11-05T13:04:50Z</time>
      </trkpt>
      <trkpt lat="43.48481" lon="6.62694">
        <ele>25.9</ele>
        <time>2023-11-05T13:04:51Z</time>
      </trkpt>
      <trkpt lat="43.4848" lon="6.62694">
        <ele>25.9</ele>
        <time>2023-11-05T13:04:52Z</time>
      </trkpt>
      <trkpt lat="43.48479" lon="6.62694">
        <ele>25.9</ele>
        <time>2023-11-05T13:04:53Z</time>
      </trkpt>
      <trkpt lat="43.48477" lon="6.62693">
        <ele>25.8</ele>
        <time>2023-11-05T13:04:54Z</time>
      </trkpt>
      <trkpt lat="43.48476" lon="6.62693">
        <ele>25.8</ele>
        <time>2023-11-05T13:04:55Z</time>
      </trkpt>
      <trkpt lat="43.48475" lon="6.62693">
        <ele>25.8</ele>
        <time>2023-11-05T13:04:56Z</time>
      </trkpt>
      <trkpt lat="43.48474" lon="6.62692">
        <ele>25.8</ele>
        <time>2023-11-05T13:04:57Z</time>
      </trkpt>
      <trkpt lat="43.48474" lon="6.62693">
        <ele>25.8</ele>
        <time>2023-11-05T13:04:58Z</time>
      </trkpt>
      <trkpt lat="43.48472" lon="6.62692">
        <ele>25.8</ele>
        <time>2023-11-05T13:04:59Z</time>
      </trkpt>
      <trkpt lat="43.48471" lon="6.62692">
        <ele>25.8</ele>
        <time>2023-11-05T13:05:00Z</time>
      </trkpt>
      <trkpt lat="43.48469" lon="6.62692">
        <ele>25.8</ele>
        <time>2023-11-05T13:05:01Z</time>
      </trkpt>
      <trkpt lat="43.48468" lon="6.62691">
        <ele>25.8</ele>
        <time>2023-11-05T13:05:02Z</time>
      </trkpt>
      <trkpt lat="43.48467" lon="6.62691">
        <ele>25.7</ele>
        <time>2023-11-05T13:05:03Z</time>
      </trkpt>
      <trkpt lat="43.48466" lon="6.62691">
        <ele>25.6</ele>
        <time>2023-11-05T13:05:04Z</time>
      </trkpt>
      <trkpt lat="43.48465" lon="6.6269">
        <ele>25.6</ele>
        <time>2023-11-05T13:05:05Z</time>
      </trkpt>
      <trkpt lat="43.48464" lon="6.6269">
        <ele>25.6</ele>
        <time>2023-11-05T13:05:06Z</time>
      </trkpt>
      <trkpt lat="43.48463" lon="6.62689">
        <ele>25.7</ele>
        <time>2023-11-05T13:05:07Z</time>
      </trkpt>
      <trkpt lat="43.48462" lon="6.62689">
        <ele>25.8</ele>
        <time>2023-11-05T13:05:08Z</time>
      </trkpt>
      <trkpt lat="43.48461" lon="6.62689">
        <ele>25.9</ele>
        <time>2023-11-05T13:05:09Z</time>
      </trkpt>
      <trkpt lat="43.48459" lon="6.62689">
        <ele>25.9</ele>
        <time>2023-11-05T13:05:10Z</time>
      </trkpt>
      <trkpt lat="43.48458" lon="6.62689">
        <ele>25.9</ele>
        <time>2023-11-05T13:05:11Z</time>
      </trkpt>
      <trkpt lat="43.48457" lon="6.62689">
        <ele>25.9</ele>
        <time>2023-11-05T13:05:12Z</time>
      </trkpt>
      <trkpt lat="43.48456" lon="6.62687">
        <ele>25.8</ele>
        <time>2023-11-05T13:05:13Z</time>
      </trkpt>
      <trkpt lat="43.48455" lon="6.62686">
        <ele>25.8</ele>
        <time>2023-11-05T13:05:14Z</time>
      </trkpt>
      <trkpt lat="43.48455" lon="6.62685">
        <ele>25.7</ele>
        <time>2023-11-05T13:05:15Z</time>
      </trkpt>
      <trkpt lat="43.48455" lon="6.62683">
        <ele>25.8</ele>
        <time>2023-11-05T13:05:16Z</time>
      </trkpt>
      <trkpt lat="43.48455" lon="6.62682">
        <ele>25.7</ele>
        <time>2023-11-05T13:05:17Z</time>
      </trkpt>
      <trkpt lat="43.48455" lon="6.62681">
        <ele>25.6</ele>
        <time>2023-11-05T13:05:18Z</time>
      </trkpt>
      <trkpt lat="43.48455" lon="6.6268">
        <ele>25.4</ele>
        <time>2023-11-05T13:05:19Z</time>
      </trkpt>
      <trkpt lat="43.48455" lon="6.62678">
        <ele>25.1</ele>
        <time>2023-11-05T13:05:20Z</time>
      </trkpt>
      <trkpt lat="43.48454" lon="6.62678">
        <ele>24.9</ele>
        <time>2023-11-05T13:05:21Z</time>
      </trkpt>
      <trkpt lat="43.48454" lon="6.62678">
        <ele>24.8</ele>
        <time>2023-11-05T13:05:22Z</time>
      </trkpt>
      <trkpt lat="43.48454" lon="6.62678">
        <ele>24.7</ele>
        <time>2023-11-05T13:05:23Z</time>
      </trkpt>
      <trkpt lat="43.48454" lon="6.62679">
        <ele>24.6</ele>
        <time>2023-11-05T13:05:24Z</time>
      </trkpt>
      <trkpt lat="43.48454" lon="6.62679">
        <ele>24.6</ele>
        <time>2023-11-05T13:05:25Z</time>
      </trkpt>
      <trkpt lat="43.48454" lon="6.62679">
        <ele>24.4</ele>
        <time>2023-11-05T13:05:26Z</time>
      </trkpt>
      <trkpt lat="43.48454" lon="6.62679">
        <ele>24.2</ele>
        <time>2023-11-05T13:05:27Z</time>
      </trkpt>
      <trkpt lat="43.48454" lon="6.62679">
        <ele>24.1</ele>
        <time>2023-11-05T13:05:28Z</time>
      </trkpt>
      <trkpt lat="43.48454" lon="6.62679">
        <ele>24</ele>
        <time>2023-11-05T13:05:29Z</time>
      </trkpt>
      <trkpt lat="43.48454" lon="6.62679">
        <ele>24</ele>
        <time>2023-11-05T13:05:30Z</time>
      </trkpt>
      <trkpt lat="43.48454" lon="6.62679">
        <ele>24</ele>
        <time>2023-11-05T13:05:31Z</time>
      </trkpt>
      <trkpt lat="43.48454" lon="6.62679">
        <ele>24</ele>
        <time>2023-11-05T13:05:32Z</time>
      </trkpt>
      <trkpt lat="43.48454" lon="6.62679">
        <ele>24</ele>
        <time>2023-11-05T13:05:33Z</time>
      </trkpt>
      <trkpt lat="43.48454" lon="6.62679">
        <ele>24.1</ele>
        <time>2023-11-05T13:05:34Z</time>
      </trkpt>
      <trkpt lat="43.48454" lon="6.6268">
        <ele>24.3</ele>
        <time>2023-11-05T13:05:35Z</time>
      </trkpt>
      <trkpt lat="43.48454" lon="6.6268">
        <ele>24.4</ele>
        <time>2023-11-05T13:05:36Z</time>
      </trkpt>
      <trkpt lat="43.48454" lon="6.6268">
        <ele>24.5</ele>
        <time>2023-11-05T13:05:37Z</time>
      </trkpt>
      <trkpt lat="43.48454" lon="6.6268">
        <ele>24.6</ele>
        <time>2023-11-05T13:05:38Z</time>
      </trkpt>
      <trkpt lat="43.48453" lon="6.6268">
        <ele>24.7</ele>
        <time>2023-11-05T13:05:39Z</time>
      </trkpt>
      <trkpt lat="43.48453" lon="6.6268">
        <ele>24.8</ele>
        <time>2023-11-05T13:05:40Z</time>
      </trkpt>
      <trkpt lat="43.48453" lon="6.6268">
        <ele>24.6</ele>
        <time>2023-11-05T13:05:41Z</time>
      </trkpt>
      <trkpt lat="43.48453" lon="6.6268">
        <ele>24.8</ele>
        <time>2023-11-05T13:05:42Z</time>
      </trkpt>
      <trkpt lat="43.48453" lon="6.6268">
        <ele>24.8</ele>
        <time>2023-11-05T13:05:43Z</time>
      </trkpt>
      <trkpt lat="43.48453" lon="6.6268">
        <ele>24.9</ele>
        <time>2023-11-05T13:05:44Z</time>
      </trkpt>
      <trkpt lat="43.48453" lon="6.6268">
        <ele>25</ele>
        <time>2023-11-05T13:05:45Z</time>
      </trkpt>
      <trkpt lat="43.48453" lon="6.6268">
        <ele>25</ele>
        <time>2023-11-05T13:05:46Z</time>
      </trkpt>
      <trkpt lat="43.48453" lon="6.6268">
        <ele>25</ele>
        <time>2023-11-05T13:05:47Z</time>
      </trkpt>
      <trkpt lat="43.48453" lon="6.6268">
        <ele>25</ele>
        <time>2023-11-05T13:05:48Z</time>
      </trkpt>
      <trkpt lat="43.48452" lon="6.6268">
        <ele>24.9</ele>
        <time>2023-11-05T13:05:49Z</time>
      </trkpt>
      <trkpt lat="43.48452" lon="6.6268">
        <ele>24.9</ele>
        <time>2023-11-05T13:05:50Z</time>
      </trkpt>
      <trkpt lat="43.48452" lon="6.6268">
        <ele>24.9</ele>
        <time>2023-11-05T13:05:51Z</time>
      </trkpt>
      <trkpt lat="43.48452" lon="6.6268">
        <ele>24.8</ele>
        <time>2023-11-05T13:05:52Z</time>
      </trkpt>
      <trkpt lat="43.48452" lon="6.6268">
        <ele>24.8</ele>
        <time>2023-11-05T13:05:53Z</time>
      </trkpt>
      <trkpt lat="43.48452" lon="6.6268">
        <ele>24.8</ele>
        <time>2023-11-05T13:05:54Z</time>
      </trkpt>
      <trkpt lat="43.48452" lon="6.6268">
        <ele>24.8</ele>
        <time>2023-11-05T13:05:55Z</time>
      </trkpt>
      <trkpt lat="43.48452" lon="6.6268">
        <ele>24.8</ele>
        <time>2023-11-05T13:05:56Z</time>
      </trkpt>
      <trkpt lat="43.48453" lon="6.6268">
        <ele>24.6</ele>
        <time>2023-11-05T13:05:57Z</time>
      </trkpt>
      <trkpt lat="43.48453" lon="6.6268">
        <ele>24.6</ele>
        <time>2023-11-05T13:05:58Z</time>
      </trkpt>
      <trkpt lat="43.48454" lon="6.6268">
        <ele>24.6</ele>
        <time>2023-11-05T13:05:59Z</time>
      </trkpt>
      <trkpt lat="43.48454" lon="6.62681">
        <ele>24.6</ele>
        <time>2023-11-05T13:06:00Z</time>
      </trkpt>
      <trkpt lat="43.48455" lon="6.62681">
        <ele>24.4</ele>
        <time>2023-11-05T13:06:01Z</time>
      </trkpt>
      <trkpt lat="43.48456" lon="6.62681">
        <ele>24.2</ele>
        <time>2023-11-05T13:06:02Z</time>
      </trkpt>
      <trkpt lat="43.48456" lon="6.6268">
        <ele>24.2</ele>
        <time>2023-11-05T13:06:03Z</time>
      </trkpt>
      <trkpt lat="43.48456" lon="6.6268">
        <ele>24.2</ele>
        <time>2023-11-05T13:06:04Z</time>
      </trkpt>
      <trkpt lat="43.48456" lon="6.62679">
        <ele>24.2</ele>
        <time>2023-11-05T13:06:05Z</time>
      </trkpt>
      <trkpt lat="43.48456" lon="6.62679">
        <ele>24.3</ele>
        <time>2023-11-05T13:06:06Z</time>
      </trkpt>
      <trkpt lat="43.48456" lon="6.62679">
        <ele>24.5</ele>
        <time>2023-11-05T13:06:07Z</time>
      </trkpt>
      <trkpt lat="43.48456" lon="6.6268">
        <ele>24.6</ele>
        <time>2023-11-05T13:06:08Z</time>
      </trkpt>
      <trkpt lat="43.48457" lon="6.62681">
        <ele>24.7</ele>
        <time>2023-11-05T13:06:09Z</time>
      </trkpt>
      <trkpt lat="43.48457" lon="6.62681">
        <ele>24.7</ele>
        <time>2023-11-05T13:06:10Z</time>
      </trkpt>
      <trkpt lat="43.48457" lon="6.62681">
        <ele>24.7</ele>
        <time>2023-11-05T13:06:11Z</time>
      </trkpt>
      <trkpt lat="43.48457" lon="6.62681">
        <ele>24.7</ele>
        <time>2023-11-05T13:06:12Z</time>
      </trkpt>
      <trkpt lat="43.48457" lon="6.62681">
        <ele>24.6</ele>
        <time>2023-11-05T13:06:13Z</time>
      </trkpt>
      <trkpt lat="43.48457" lon="6.62681">
        <ele>24.4</ele>
        <time>2023-11-05T13:06:14Z</time>
      </trkpt>
      <trkpt lat="43.48458" lon="6.62681">
        <ele>24.4</ele>
        <time>2023-11-05T13:06:15Z</time>
      </trkpt>
      <trkpt lat="43.48458" lon="6.62681">
        <ele>24.3</ele>
        <time>2023-11-05T13:06:16Z</time>
      </trkpt>
      <trkpt lat="43.48458" lon="6.62681">
        <ele>24.3</ele>
        <time>2023-11-05T13:06:17Z</time>
      </trkpt>
      <trkpt lat="43.48458" lon="6.62681">
        <ele>24.3</ele>
        <time>2023-11-05T13:06:18Z</time>
      </trkpt>
      <trkpt lat="43.48458" lon="6.62681">
        <ele>24.3</ele>
        <time>2023-11-05T13:06:19Z</time>
      </trkpt>
      <trkpt lat="43.48458" lon="6.6268">
        <ele>24.2</ele>
        <time>2023-11-05T13:06:20Z</time>
      </trkpt>
      <trkpt lat="43.48457" lon="6.6268">
        <ele>24.1</ele>
        <time>2023-11-05T13:06:21Z</time>
      </trkpt>
      <trkpt lat="43.48457" lon="6.62679">
        <ele>24.1</ele>
        <time>2023-11-05T13:06:22Z</time>
      </trkpt>
      <trkpt lat="43.48456" lon="6.62679">
        <ele>24.2</ele>
        <time>2023-11-05T13:06:23Z</time>
      </trkpt>
      <trkpt lat="43.48456" lon="6.62679">
        <ele>24.4</ele>
        <time>2023-11-05T13:06:24Z</time>
      </trkpt>
      <trkpt lat="43.48455" lon="6.62679">
        <ele>24.5</ele>
        <time>2023-11-05T13:06:25Z</time>
      </trkpt>
      <trkpt lat="43.48455" lon="6.62678">
        <ele>24.5</ele>
        <time>2023-11-05T13:06:26Z</time>
      </trkpt>
      <trkpt lat="43.48454" lon="6.62678">
        <ele>24.5</ele>
        <time>2023-11-05T13:06:27Z</time>
      </trkpt>
      <trkpt lat="43.48453" lon="6.62678">
        <ele>24.3</ele>
        <time>2023-11-05T13:06:28Z</time>
      </trkpt>
      <trkpt lat="43.48453" lon="6.62678">
        <ele>24.2</ele>
        <time>2023-11-05T13:06:29Z</time>
      </trkpt>
      <trkpt lat="43.48452" lon="6.62678">
        <ele>24.1</ele>
        <time>2023-11-05T13:06:30Z</time>
      </trkpt>
      <trkpt lat="43.48452" lon="6.62678">
        <ele>24.3</ele>
        <time>2023-11-05T13:06:31Z</time>
      </trkpt>
      <trkpt lat="43.48451" lon="6.62678">
        <ele>24.4</ele>
        <time>2023-11-05T13:06:32Z</time>
      </trkpt>
      <trkpt lat="43.4845" lon="6.62679">
        <ele>24.6</ele>
        <time>2023-11-05T13:06:33Z</time>
      </trkpt>
      <trkpt lat="43.4845" lon="6.62679">
        <ele>24.7</ele>
        <time>2023-11-05T13:06:34Z</time>
      </trkpt>
      <trkpt lat="43.4845" lon="6.62679">
        <ele>24.7</ele>
        <time>2023-11-05T13:06:35Z</time>
      </trkpt>
      <trkpt lat="43.4845" lon="6.62679">
        <ele>24.7</ele>
        <time>2023-11-05T13:06:36Z</time>
      </trkpt>
      <trkpt lat="43.48449" lon="6.6268">
        <ele>24.6</ele>
        <time>2023-11-05T13:06:37Z</time>
      </trkpt>
      <trkpt lat="43.48449" lon="6.6268">
        <ele>24.6</ele>
        <time>2023-11-05T13:06:38Z</time>
      </trkpt>
      <trkpt lat="43.48449" lon="6.6268">
        <ele>24.5</ele>
        <time>2023-11-05T13:06:39Z</time>
      </trkpt>
      <trkpt lat="43.48449" lon="6.6268">
        <ele>24.5</ele>
        <time>2023-11-05T13:06:40Z</time>
      </trkpt>
      <trkpt lat="43.48449" lon="6.6268">
        <ele>24.6</ele>
        <time>2023-11-05T13:06:41Z</time>
      </trkpt>
      <trkpt lat="43.48449" lon="6.6268">
        <ele>24.6</ele>
        <time>2023-11-05T13:06:42Z</time>
      </trkpt>
      <trkpt lat="43.48449" lon="6.6268">
        <ele>24.6</ele>
        <time>2023-11-05T13:06:43Z</time>
      </trkpt>
      <trkpt lat="43.48449" lon="6.6268">
        <ele>24.6</ele>
        <time>2023-11-05T13:06:44Z</time>
      </trkpt>
      <trkpt lat="43.48449" lon="6.6268">
        <ele>24.6</ele>
        <time>2023-11-05T13:06:45Z</time>
      </trkpt>
      <trkpt lat="43.48449" lon="6.6268">
        <ele>24.5</ele>
        <time>2023-11-05T13:06:46Z</time>
      </trkpt>
      <trkpt lat="43.48449" lon="6.6268">
        <ele>24.5</ele>
        <time>2023-11-05T13:06:47Z</time>
      </trkpt>
      <trkpt lat="43.4845" lon="6.6268">
        <ele>24.5</ele>
        <time>2023-11-05T13:06:48Z</time>
      </trkpt>
      <trkpt lat="43.4845" lon="6.6268">
        <ele>24.5</ele>
        <time>2023-11-05T13:06:49Z</time>
      </trkpt>
      <trkpt lat="43.48451" lon="6.62679">
        <ele>24.4</ele>
        <time>2023-11-05T13:06:50Z</time>
      </trkpt>
      <trkpt lat="43.48451" lon="6.62678">
        <ele>24.4</ele>
        <time>2023-11-05T13:06:51Z</time>
      </trkpt>
      <trkpt lat="43.48451" lon="6.62678">
        <ele>24.3</ele>
        <time>2023-11-05T13:06:52Z</time>
      </trkpt>
      <trkpt lat="43.48451" lon="6.62678">
        <ele>24.3</ele>
        <time>2023-11-05T13:06:53Z</time>
      </trkpt>
      <trkpt lat="43.48451" lon="6.62678">
        <ele>24.4</ele>
        <time>2023-11-05T13:06:54Z</time>
      </trkpt>
      <trkpt lat="43.48451" lon="6.62678">
        <ele>24.4</ele>
        <time>2023-11-05T13:06:55Z</time>
      </trkpt>
      <trkpt lat="43.48451" lon="6.62678">
        <ele>24.5</ele>
        <time>2023-11-05T13:06:56Z</time>
      </trkpt>
      <trkpt lat="43.48451" lon="6.62678">
        <ele>24.4</ele>
        <time>2023-11-05T13:06:57Z</time>
      </trkpt>
      <trkpt lat="43.48451" lon="6.62678">
        <ele>24.4</ele>
        <time>2023-11-05T13:06:58Z</time>
      </trkpt>
      <trkpt lat="43.48451" lon="6.62678">
        <ele>24.4</ele>
        <time>2023-11-05T13:06:59Z</time>
      </trkpt>
      <trkpt lat="43.48451" lon="6.62678">
        <ele>24.4</ele>
        <time>2023-11-05T13:07:00Z</time>
      </trkpt>
      <trkpt lat="43.48451" lon="6.62678">
        <ele>24.5</ele>
        <time>2023-11-05T13:07:01Z</time>
      </trkpt>
      <trkpt lat="43.48451" lon="6.62679">
        <ele>24.5</ele>
        <time>2023-11-05T13:07:02Z</time>
      </trkpt>
      <trkpt lat="43.48451" lon="6.62678">
        <ele>24.6</ele>
        <time>2023-11-05T13:07:03Z</time>
      </trkpt>
      <trkpt lat="43.48451" lon="6.62678">
        <ele>24.6</ele>
        <time>2023-11-05T13:07:04Z</time>
      </trkpt>
      <trkpt lat="43.48451" lon="6.62678">
        <ele>24.6</ele>
        <time>2023-11-05T13:07:05Z</time>
      </trkpt>
      <trkpt lat="43.48451" lon="6.62678">
        <ele>24.6</ele>
        <time>2023-11-05T13:07:06Z</time>
      </trkpt>
      <trkpt lat="43.48451" lon="6.62678">
        <ele>24.6</ele>
        <time>2023-11-05T13:07:07Z</time>
      </trkpt>
      <trkpt lat="43.48451" lon="6.62678">
        <ele>24.6</ele>
        <time>2023-11-05T13:07:08Z</time>
      </trkpt>
      <trkpt lat="43.48451" lon="6.62678">
        <ele>24.6</ele>
        <time>2023-11-05T13:07:09Z</time>
      </trkpt>
      <trkpt lat="43.48451" lon="6.62678">
        <ele>24.6</ele>
        <time>2023-11-05T13:07:10Z</time>
      </trkpt>
      <trkpt lat="43.48451" lon="6.62679">
        <ele>24.6</ele>
        <time>2023-11-05T13:07:11Z</time>
      </trkpt>
      <trkpt lat="43.48451" lon="6.62679">
        <ele>24.5</ele>
        <time>2023-11-05T13:07:12Z</time>
      </trkpt>
      <trkpt lat="43.48451" lon="6.62679">
        <ele>24.4</ele>
        <time>2023-11-05T13:07:13Z</time>
      </trkpt>
      <trkpt lat="43.48451" lon="6.62679">
        <ele>24.5</ele>
        <time>2023-11-05T13:07:14Z</time>
      </trkpt>
      <trkpt lat="43.4845" lon="6.62679">
        <ele>24.5</ele>
        <time>2023-11-05T13:07:15Z</time>
      </trkpt>
      <trkpt lat="43.4845" lon="6.62679">
        <ele>24.6</ele>
        <time>2023-11-05T13:07:16Z</time>
      </trkpt>
      <trkpt lat="43.4845" lon="6.62679">
        <ele>24.6</ele>
        <time>2023-11-05T13:07:17Z</time>
      </trkpt>
      <trkpt lat="43.4845" lon="6.62679">
        <ele>24.5</ele>
        <time>2023-11-05T13:07:18Z</time>
      </trkpt>
      <trkpt lat="43.4845" lon="6.62679">
        <ele>24.4</ele>
        <time>2023-11-05T13:07:19Z</time>
      </trkpt>
      <trkpt lat="43.4845" lon="6.62679">
        <ele>24.3</ele>
        <time>2023-11-05T13:07:20Z</time>
      </trkpt>
      <trkpt lat="43.4845" lon="6.62679">
        <ele>24.3</ele>
        <time>2023-11-05T13:07:21Z</time>
      </trkpt>
      <trkpt lat="43.4845" lon="6.62679">
        <ele>24.4</ele>
        <time>2023-11-05T13:07:22Z</time>
      </trkpt>
      <trkpt lat="43.4845" lon="6.62679">
        <ele>24.4</ele>
        <time>2023-11-05T13:07:23Z</time>
      </trkpt>
      <trkpt lat="43.4845" lon="6.62679">
        <ele>24.5</ele>
        <time>2023-11-05T13:07:24Z</time>
      </trkpt>
      <trkpt lat="43.4845" lon="6.62679">
        <ele>24.5</ele>
        <time>2023-11-05T13:07:25Z</time>
      </trkpt>
      <trkpt lat="43.4845" lon="6.6268">
        <ele>24.5</ele>
        <time>2023-11-05T13:07:26Z</time>
      </trkpt>
      <trkpt lat="43.4845" lon="6.6268">
        <ele>24.6</ele>
        <time>2023-11-05T13:07:27Z</time>
      </trkpt>
      <trkpt lat="43.4845" lon="6.6268">
        <ele>24.6</ele>
        <time>2023-11-05T13:07:28Z</time>
      </trkpt>
      <trkpt lat="43.4845" lon="6.6268">
        <ele>24.6</ele>
        <time>2023-11-05T13:07:29Z</time>
      </trkpt>
      <trkpt lat="43.4845" lon="6.6268">
        <ele>24.6</ele>
        <time>2023-11-05T13:07:30Z</time>
      </trkpt>
      <trkpt lat="43.48451" lon="6.6268">
        <ele>24.6</ele>
        <time>2023-11-05T13:07:31Z</time>
      </trkpt>
      <trkpt lat="43.48451" lon="6.6268">
        <ele>24.6</ele>
        <time>2023-11-05T13:07:32Z</time>
      </trkpt>
      <trkpt lat="43.48451" lon="6.6268">
        <ele>24.6</ele>
        <time>2023-11-05T13:07:33Z</time>
      </trkpt>
      <trkpt lat="43.48451" lon="6.6268">
        <ele>24.6</ele>
        <time>2023-11-05T13:07:34Z</time>
      </trkpt>
      <trkpt lat="43.48451" lon="6.6268">
        <ele>24.6</ele>
        <time>2023-11-05T13:07:35Z</time>
      </trkpt>
      <trkpt lat="43.48451" lon="6.6268">
        <ele>24.7</ele>
        <time>2023-11-05T13:07:36Z</time>
      </trkpt>
      <trkpt lat="43.48451" lon="6.6268">
        <ele>24.7</ele>
        <time>2023-11-05T13:07:37Z</time>
      </trkpt>
      <trkpt lat="43.48451" lon="6.6268">
        <ele>24.9</ele>
        <time>2023-11-05T13:07:38Z</time>
      </trkpt>
      <trkpt lat="43.48451" lon="6.6268">
        <ele>24.9</ele>
        <time>2023-11-05T13:07:39Z</time>
      </trkpt>
      <trkpt lat="43.48451" lon="6.6268">
        <ele>25</ele>
        <time>2023-11-05T13:07:40Z</time>
      </trkpt>
      <trkpt lat="43.4845" lon="6.62681">
        <ele>24.9</ele>
        <time>2023-11-05T13:07:41Z</time>
      </trkpt>
      <trkpt lat="43.48449" lon="6.62681">
        <ele>24.8</ele>
        <time>2023-11-05T13:07:42Z</time>
      </trkpt>
      <trkpt lat="43.48449" lon="6.62681">
        <ele>24.6</ele>
        <time>2023-11-05T13:07:43Z</time>
      </trkpt>
      <trkpt lat="43.48448" lon="6.62682">
        <ele>24.6</ele>
        <time>2023-11-05T13:07:44Z</time>
      </trkpt>
      <trkpt lat="43.48447" lon="6.62683">
        <ele>24.5</ele>
        <time>2023-11-05T13:07:45Z</time>
      </trkpt>
      <trkpt lat="43.48447" lon="6.62684">
        <ele>24.3</ele>
        <time>2023-11-05T13:07:46Z</time>
      </trkpt>
      <trkpt lat="43.48446" lon="6.62685">
        <ele>24.4</ele>
        <time>2023-11-05T13:07:47Z</time>
      </trkpt>
      <trkpt lat="43.48446" lon="6.62685">
        <ele>24.6</ele>
        <time>2023-11-05T13:07:48Z</time>
      </trkpt>
      <trkpt lat="43.48446" lon="6.62685">
        <ele>24.7</ele>
        <time>2023-11-05T13:07:49Z</time>
      </trkpt>
      <trkpt lat="43.48445" lon="6.62686">
        <ele>24.8</ele>
        <time>2023-11-05T13:07:50Z</time>
      </trkpt>
      <trkpt lat="43.48444" lon="6.62686">
        <ele>24.9</ele>
        <time>2023-11-05T13:07:51Z</time>
      </trkpt>
      <trkpt lat="43.48444" lon="6.62687">
        <ele>25</ele>
        <time>2023-11-05T13:07:52Z</time>
      </trkpt>
      <trkpt lat="43.48444" lon="6.62687">
        <ele>25.1</ele>
        <time>2023-11-05T13:07:53Z</time>
      </trkpt>
      <trkpt lat="43.48444" lon="6.62687">
        <ele>25.2</ele>
        <time>2023-11-05T13:07:54Z</time>
      </trkpt>
      <trkpt lat="43.48444" lon="6.62687">
        <ele>25.4</ele>
        <time>2023-11-05T13:07:55Z</time>
      </trkpt>
      <trkpt lat="43.48444" lon="6.62687">
        <ele>25.5</ele>
        <time>2023-11-05T13:07:56Z</time>
      </trkpt>
      <trkpt lat="43.48444" lon="6.62687">
        <ele>25.6</ele>
        <time>2023-11-05T13:07:57Z</time>
      </trkpt>
      <trkpt lat="43.48444" lon="6.62687">
        <ele>25.7</ele>
        <time>2023-11-05T13:07:58Z</time>
      </trkpt>
      <trkpt lat="43.48443" lon="6.62687">
        <ele>25.7</ele>
        <time>2023-11-05T13:07:59Z</time>
      </trkpt>
      <trkpt lat="43.48443" lon="6.62686">
        <ele>25.7</ele>
        <time>2023-11-05T13:08:00Z</time>
      </trkpt>
      <trkpt lat="43.48442" lon="6.62686">
        <ele>25.7</ele>
        <time>2023-11-05T13:08:01Z</time>
      </trkpt>
      <trkpt lat="43.48441" lon="6.62685">
        <ele>25.8</ele>
        <time>2023-11-05T13:08:02Z</time>
      </trkpt>
      <trkpt lat="43.48441" lon="6.62685">
        <ele>25.9</ele>
        <time>2023-11-05T13:08:03Z</time>
      </trkpt>
      <trkpt lat="43.4844" lon="6.62684">
        <ele>25.9</ele>
        <time>2023-11-05T13:08:04Z</time>
      </trkpt>
      <trkpt lat="43.48439" lon="6.62683">
        <ele>26</ele>
        <time>2023-11-05T13:08:05Z</time>
      </trkpt>
      <trkpt lat="43.48438" lon="6.62683">
        <ele>26</ele>
        <time>2023-11-05T13:08:06Z</time>
      </trkpt>
      <trkpt lat="43.48437" lon="6.62682">
        <ele>26</ele>
        <time>2023-11-05T13:08:07Z</time>
      </trkpt>
      <trkpt lat="43.48437" lon="6.62682">
        <ele>25.8</ele>
        <time>2023-11-05T13:08:08Z</time>
      </trkpt>
      <trkpt lat="43.48436" lon="6.62682">
        <ele>25.7</ele>
        <time>2023-11-05T13:08:09Z</time>
      </trkpt>
      <trkpt lat="43.48437" lon="6.62682">
        <ele>25.8</ele>
        <time>2023-11-05T13:08:10Z</time>
      </trkpt>
      <trkpt lat="43.48437" lon="6.62681">
        <ele>25.8</ele>
        <time>2023-11-05T13:08:11Z</time>
      </trkpt>
      <trkpt lat="43.48436" lon="6.62681">
        <ele>25.7</ele>
        <time>2023-11-05T13:08:12Z</time>
      </trkpt>
      <trkpt lat="43.48436" lon="6.62681">
        <ele>25.6</ele>
        <time>2023-11-05T13:08:13Z</time>
      </trkpt>
      <trkpt lat="43.48435" lon="6.6268">
        <ele>25.5</ele>
        <time>2023-11-05T13:08:14Z</time>
      </trkpt>
      <trkpt lat="43.48435" lon="6.6268">
        <ele>25.4</ele>
        <time>2023-11-05T13:08:15Z</time>
      </trkpt>
      <trkpt lat="43.48435" lon="6.6268">
        <ele>25.2</ele>
        <time>2023-11-05T13:08:16Z</time>
      </trkpt>
      <trkpt lat="43.48435" lon="6.6268">
        <ele>25.1</ele>
        <time>2023-11-05T13:08:17Z</time>
      </trkpt>
      <trkpt lat="43.48435" lon="6.62679">
        <ele>25.1</ele>
        <time>2023-11-05T13:08:18Z</time>
      </trkpt>
      <trkpt lat="43.48435" lon="6.62679">
        <ele>25</ele>
        <time>2023-11-05T13:08:19Z</time>
      </trkpt>
      <trkpt lat="43.48435" lon="6.62679">
        <ele>25</ele>
        <time>2023-11-05T13:08:20Z</time>
      </trkpt>
      <trkpt lat="43.48435" lon="6.62679">
        <ele>25</ele>
        <time>2023-11-05T13:08:21Z</time>
      </trkpt>
      <trkpt lat="43.48434" lon="6.62679">
        <ele>25</ele>
        <time>2023-11-05T13:08:22Z</time>
      </trkpt>
      <trkpt lat="43.48434" lon="6.62679">
        <ele>25.1</ele>
        <time>2023-11-05T13:08:23Z</time>
      </trkpt>
      <trkpt lat="43.48434" lon="6.62679">
        <ele>25.1</ele>
        <time>2023-11-05T13:08:24Z</time>
      </trkpt>
      <trkpt lat="43.48434" lon="6.62679">
        <ele>25.1</ele>
        <time>2023-11-05T13:08:25Z</time>
      </trkpt>
      <trkpt lat="43.48434" lon="6.62679">
        <ele>25.1</ele>
        <time>2023-11-05T13:08:26Z</time>
      </trkpt>
      <trkpt lat="43.48434" lon="6.62679">
        <ele>25.2</ele>
        <time>2023-11-05T13:08:27Z</time>
      </trkpt>
      <trkpt lat="43.48434" lon="6.62679">
        <ele>25.3</ele>
        <time>2023-11-05T13:08:28Z</time>
      </trkpt>
      <trkpt lat="43.48434" lon="6.62679">
        <ele>25.5</ele>
        <time>2023-11-05T13:08:29Z</time>
      </trkpt>
      <trkpt lat="43.48434" lon="6.62679">
        <ele>25.6</ele>
        <time>2023-11-05T13:08:30Z</time>
      </trkpt>
      <trkpt lat="43.48434" lon="6.62679">
        <ele>25.9</ele>
        <time>2023-11-05T13:08:31Z</time>
      </trkpt>
      <trkpt lat="43.48434" lon="6.62679">
        <ele>26</ele>
        <time>2023-11-05T13:08:32Z</time>
      </trkpt>
      <trkpt lat="43.48434" lon="6.62679">
        <ele>26</ele>
        <time>2023-11-05T13:08:33Z</time>
      </trkpt>
      <trkpt lat="43.48434" lon="6.62679">
        <ele>26.1</ele>
        <time>2023-11-05T13:08:34Z</time>
      </trkpt>
      <trkpt lat="43.48434" lon="6.62678">
        <ele>26.1</ele>
        <time>2023-11-05T13:08:35Z</time>
      </trkpt>
      <trkpt lat="43.48434" lon="6.62678">
        <ele>25.9</ele>
        <time>2023-11-05T13:08:36Z</time>
      </trkpt>
      <trkpt lat="43.48434" lon="6.62677">
        <ele>25.8</ele>
        <time>2023-11-05T13:08:37Z</time>
      </trkpt>
      <trkpt lat="43.48433" lon="6.62677">
        <ele>25.7</ele>
        <time>2023-11-05T13:08:38Z</time>
      </trkpt>
      <trkpt lat="43.48433" lon="6.62677">
        <ele>25.6</ele>
        <time>2023-11-05T13:08:39Z</time>
      </trkpt>
      <trkpt lat="43.48434" lon="6.62677">
        <ele>25.5</ele>
        <time>2023-11-05T13:08:40Z</time>
      </trkpt>
      <trkpt lat="43.48434" lon="6.62676">
        <ele>25.4</ele>
        <time>2023-11-05T13:08:41Z</time>
      </trkpt>
      <trkpt lat="43.48434" lon="6.62674">
        <ele>25.4</ele>
        <time>2023-11-05T13:08:42Z</time>
      </trkpt>
      <trkpt lat="43.48434" lon="6.62674">
        <ele>25.2</ele>
        <time>2023-11-05T13:08:43Z</time>
      </trkpt>
      <trkpt lat="43.48434" lon="6.62673">
        <ele>25.1</ele>
        <time>2023-11-05T13:08:44Z</time>
      </trkpt>
      <trkpt lat="43.48435" lon="6.62672">
        <ele>24.9</ele>
        <time>2023-11-05T13:08:45Z</time>
      </trkpt>
      <trkpt lat="43.48435" lon="6.6267">
        <ele>24.7</ele>
        <time>2023-11-05T13:08:46Z</time>
      </trkpt>
      <trkpt lat="43.48435" lon="6.62669">
        <ele>24.5</ele>
        <time>2023-11-05T13:08:47Z</time>
      </trkpt>
      <trkpt lat="43.48435" lon="6.62667">
        <ele>24.3</ele>
        <time>2023-11-05T13:08:48Z</time>
      </trkpt>
      <trkpt lat="43.48434" lon="6.62666">
        <ele>24.1</ele>
        <time>2023-11-05T13:08:49Z</time>
      </trkpt>
      <trkpt lat="43.48433" lon="6.62666">
        <ele>23.9</ele>
        <time>2023-11-05T13:08:50Z</time>
      </trkpt>
      <trkpt lat="43.48432" lon="6.62665">
        <ele>23.7</ele>
        <time>2023-11-05T13:08:51Z</time>
      </trkpt>
      <trkpt lat="43.48432" lon="6.62663">
        <ele>23.6</ele>
        <time>2023-11-05T13:08:52Z</time>
      </trkpt>
      <trkpt lat="43.48431" lon="6.62662">
        <ele>23.5</ele>
        <time>2023-11-05T13:08:53Z</time>
      </trkpt>
      <trkpt lat="43.48431" lon="6.62661">
        <ele>23.6</ele>
        <time>2023-11-05T13:08:54Z</time>
      </trkpt>
      <trkpt lat="43.4843" lon="6.6266">
        <ele>23.6</ele>
        <time>2023-11-05T13:08:55Z</time>
      </trkpt>
      <trkpt lat="43.48429" lon="6.62659">
        <ele>23.7</ele>
        <time>2023-11-05T13:08:56Z</time>
      </trkpt>
      <trkpt lat="43.48428" lon="6.62659">
        <ele>23.6</ele>
        <time>2023-11-05T13:08:57Z</time>
      </trkpt>
      <trkpt lat="43.48426" lon="6.62659">
        <ele>23.6</ele>
        <time>2023-11-05T13:08:58Z</time>
      </trkpt>
      <trkpt lat="43.48426" lon="6.62659">
        <ele>23.6</ele>
        <time>2023-11-05T13:08:59Z</time>
      </trkpt>
      <trkpt lat="43.48425" lon="6.62659">
        <ele>23.7</ele>
        <time>2023-11-05T13:09:00Z</time>
      </trkpt>
      <trkpt lat="43.48424" lon="6.62659">
        <ele>23.9</ele>
        <time>2023-11-05T13:09:01Z</time>
      </trkpt>
      <trkpt lat="43.48423" lon="6.62659">
        <ele>24.1</ele>
        <time>2023-11-05T13:09:02Z</time>
      </trkpt>
      <trkpt lat="43.48421" lon="6.6266">
        <ele>24.2</ele>
        <time>2023-11-05T13:09:03Z</time>
      </trkpt>
      <trkpt lat="43.48421" lon="6.6266">
        <ele>24.3</ele>
        <time>2023-11-05T13:09:04Z</time>
      </trkpt>
      <trkpt lat="43.4842" lon="6.6266">
        <ele>24.6</ele>
        <time>2023-11-05T13:09:05Z</time>
      </trkpt>
      <trkpt lat="43.48418" lon="6.6266">
        <ele>24.8</ele>
        <time>2023-11-05T13:09:06Z</time>
      </trkpt>
      <trkpt lat="43.48417" lon="6.6266">
        <ele>24.9</ele>
        <time>2023-11-05T13:09:07Z</time>
      </trkpt>
      <trkpt lat="43.48416" lon="6.6266">
        <ele>25.1</ele>
        <time>2023-11-05T13:09:08Z</time>
      </trkpt>
      <trkpt lat="43.48415" lon="6.62659">
        <ele>25.3</ele>
        <time>2023-11-05T13:09:09Z</time>
      </trkpt>
      <trkpt lat="43.48414" lon="6.62659">
        <ele>25.5</ele>
        <time>2023-11-05T13:09:10Z</time>
      </trkpt>
      <trkpt lat="43.48413" lon="6.62658">
        <ele>25.6</ele>
        <time>2023-11-05T13:09:11Z</time>
      </trkpt>
      <trkpt lat="43.48412" lon="6.62657">
        <ele>25.8</ele>
        <time>2023-11-05T13:09:12Z</time>
      </trkpt>
      <trkpt lat="43.48412" lon="6.62657">
        <ele>25.9</ele>
        <time>2023-11-05T13:09:13Z</time>
      </trkpt>
      <trkpt lat="43.48411" lon="6.62657">
        <ele>26</ele>
        <time>2023-11-05T13:09:14Z</time>
      </trkpt>
      <trkpt lat="43.4841" lon="6.62656">
        <ele>26.1</ele>
        <time>2023-11-05T13:09:15Z</time>
      </trkpt>
      <trkpt lat="43.48409" lon="6.62656">
        <ele>26.1</ele>
        <time>2023-11-05T13:09:16Z</time>
      </trkpt>
      <trkpt lat="43.48408" lon="6.62655">
        <ele>26.2</ele>
        <time>2023-11-05T13:09:17Z</time>
      </trkpt>
      <trkpt lat="43.48407" lon="6.62655">
        <ele>26.3</ele>
        <time>2023-11-05T13:09:18Z</time>
      </trkpt>
      <trkpt lat="43.48406" lon="6.62654">
        <ele>26.4</ele>
        <time>2023-11-05T13:09:19Z</time>
      </trkpt>
      <trkpt lat="43.48405" lon="6.62654">
        <ele>26.5</ele>
        <time>2023-11-05T13:09:20Z</time>
      </trkpt>
      <trkpt lat="43.48404" lon="6.62654">
        <ele>26.6</ele>
        <time>2023-11-05T13:09:21Z</time>
      </trkpt>
      <trkpt lat="43.48403" lon="6.62653">
        <ele>26.7</ele>
        <time>2023-11-05T13:09:22Z</time>
      </trkpt>
      <trkpt lat="43.48402" lon="6.62653">
        <ele>26.6</ele>
        <time>2023-11-05T13:09:23Z</time>
      </trkpt>
      <trkpt lat="43.48401" lon="6.62653">
        <ele>26.6</ele>
        <time>2023-11-05T13:09:24Z</time>
      </trkpt>
      <trkpt lat="43.484" lon="6.62653">
        <ele>26.6</ele>
        <time>2023-11-05T13:09:25Z</time>
      </trkpt>
      <trkpt lat="43.48399" lon="6.62652">
        <ele>26.6</ele>
        <time>2023-11-05T13:09:26Z</time>
      </trkpt>
      <trkpt lat="43.48398" lon="6.62652">
        <ele>26.6</ele>
        <time>2023-11-05T13:09:27Z</time>
      </trkpt>
      <trkpt lat="43.48397" lon="6.62652">
        <ele>26.5</ele>
        <time>2023-11-05T13:09:28Z</time>
      </trkpt>
      <trkpt lat="43.48397" lon="6.62652">
        <ele>26.5</ele>
        <time>2023-11-05T13:09:29Z</time>
      </trkpt>
      <trkpt lat="43.48396" lon="6.62651">
        <ele>26.5</ele>
        <time>2023-11-05T13:09:30Z</time>
      </trkpt>
      <trkpt lat="43.48395" lon="6.62649">
        <ele>26.5</ele>
        <time>2023-11-05T13:09:31Z</time>
      </trkpt>
      <trkpt lat="43.48394" lon="6.62648">
        <ele>26.5</ele>
        <time>2023-11-05T13:09:32Z</time>
      </trkpt>
      <trkpt lat="43.48394" lon="6.62647">
        <ele>26.5</ele>
        <time>2023-11-05T13:09:33Z</time>
      </trkpt>
      <trkpt lat="43.48393" lon="6.62646">
        <ele>26.4</ele>
        <time>2023-11-05T13:09:34Z</time>
      </trkpt>
      <trkpt lat="43.48393" lon="6.62644">
        <ele>26.4</ele>
        <time>2023-11-05T13:09:35Z</time>
      </trkpt>
      <trkpt lat="43.48392" lon="6.62643">
        <ele>26.5</ele>
        <time>2023-11-05T13:09:36Z</time>
      </trkpt>
      <trkpt lat="43.48391" lon="6.62642">
        <ele>26.6</ele>
        <time>2023-11-05T13:09:37Z</time>
      </trkpt>
      <trkpt lat="43.48391" lon="6.62641">
        <ele>26.7</ele>
        <time>2023-11-05T13:09:38Z</time>
      </trkpt>
      <trkpt lat="43.48391" lon="6.6264">
        <ele>26.7</ele>
        <time>2023-11-05T13:09:39Z</time>
      </trkpt>
      <trkpt lat="43.48391" lon="6.62638">
        <ele>26.7</ele>
        <time>2023-11-05T13:09:40Z</time>
      </trkpt>
      <trkpt lat="43.48391" lon="6.62636">
        <ele>26.8</ele>
        <time>2023-11-05T13:09:41Z</time>
      </trkpt>
      <trkpt lat="43.4839" lon="6.62635">
        <ele>26.8</ele>
        <time>2023-11-05T13:09:42Z</time>
      </trkpt>
      <trkpt lat="43.4839" lon="6.62634">
        <ele>26.9</ele>
        <time>2023-11-05T13:09:43Z</time>
      </trkpt>
      <trkpt lat="43.4839" lon="6.62632">
        <ele>27</ele>
        <time>2023-11-05T13:09:44Z</time>
      </trkpt>
      <trkpt lat="43.4839" lon="6.62631">
        <ele>27</ele>
        <time>2023-11-05T13:09:45Z</time>
      </trkpt>
      <trkpt lat="43.4839" lon="6.6263">
        <ele>27</ele>
        <time>2023-11-05T13:09:46Z</time>
      </trkpt>
      <trkpt lat="43.4839" lon="6.62628">
        <ele>27</ele>
        <time>2023-11-05T13:09:47Z</time>
      </trkpt>
      <trkpt lat="43.4839" lon="6.62627">
        <ele>27</ele>
        <time>2023-11-05T13:09:48Z</time>
      </trkpt>
      <trkpt lat="43.4839" lon="6.62626">
        <ele>27</ele>
        <time>2023-11-05T13:09:49Z</time>
      </trkpt>
      <trkpt lat="43.48389" lon="6.62624">
        <ele>27.1</ele>
        <time>2023-11-05T13:09:50Z</time>
      </trkpt>
      <trkpt lat="43.48388" lon="6.62623">
        <ele>27.2</ele>
        <time>2023-11-05T13:09:51Z</time>
      </trkpt>
      <trkpt lat="43.48388" lon="6.62622">
        <ele>27.3</ele>
        <time>2023-11-05T13:09:52Z</time>
      </trkpt>
      <trkpt lat="43.48386" lon="6.62621">
        <ele>27.3</ele>
        <time>2023-11-05T13:09:53Z</time>
      </trkpt>
      <trkpt lat="43.48385" lon="6.62621">
        <ele>27.3</ele>
        <time>2023-11-05T13:09:54Z</time>
      </trkpt>
      <trkpt lat="43.48385" lon="6.6262">
        <ele>27.4</ele>
        <time>2023-11-05T13:09:55Z</time>
      </trkpt>
      <trkpt lat="43.48384" lon="6.62619">
        <ele>27.4</ele>
        <time>2023-11-05T13:09:56Z</time>
      </trkpt>
      <trkpt lat="43.48384" lon="6.62617">
        <ele>27.4</ele>
        <time>2023-11-05T13:09:57Z</time>
      </trkpt>
      <trkpt lat="43.48384" lon="6.62616">
        <ele>27.4</ele>
        <time>2023-11-05T13:09:58Z</time>
      </trkpt>
      <trkpt lat="43.48383" lon="6.62614">
        <ele>27.5</ele>
        <time>2023-11-05T13:09:59Z</time>
      </trkpt>
      <trkpt lat="43.48383" lon="6.62613">
        <ele>27.5</ele>
        <time>2023-11-05T13:10:00Z</time>
      </trkpt>
      <trkpt lat="43.48382" lon="6.62611">
        <ele>27.5</ele>
        <time>2023-11-05T13:10:01Z</time>
      </trkpt>
      <trkpt lat="43.48382" lon="6.6261">
        <ele>27.5</ele>
        <time>2023-11-05T13:10:02Z</time>
      </trkpt>
      <trkpt lat="43.48381" lon="6.62609">
        <ele>27.6</ele>
        <time>2023-11-05T13:10:03Z</time>
      </trkpt>
      <trkpt lat="43.48381" lon="6.62607">
        <ele>27.7</ele>
        <time>2023-11-05T13:10:04Z</time>
      </trkpt>
      <trkpt lat="43.4838" lon="6.62606">
        <ele>27.8</ele>
        <time>2023-11-05T13:10:05Z</time>
      </trkpt>
      <trkpt lat="43.4838" lon="6.62605">
        <ele>27.9</ele>
        <time>2023-11-05T13:10:06Z</time>
      </trkpt>
      <trkpt lat="43.4838" lon="6.62603">
        <ele>28</ele>
        <time>2023-11-05T13:10:07Z</time>
      </trkpt>
      <trkpt lat="43.48379" lon="6.62602">
        <ele>28.1</ele>
        <time>2023-11-05T13:10:08Z</time>
      </trkpt>
      <trkpt lat="43.48379" lon="6.62601">
        <ele>28.2</ele>
        <time>2023-11-05T13:10:09Z</time>
      </trkpt>
      <trkpt lat="43.48378" lon="6.62599">
        <ele>28.3</ele>
        <time>2023-11-05T13:10:10Z</time>
      </trkpt>
      <trkpt lat="43.48378" lon="6.62598">
        <ele>28.3</ele>
        <time>2023-11-05T13:10:11Z</time>
      </trkpt>
      <trkpt lat="43.48377" lon="6.62597">
        <ele>28.3</ele>
        <time>2023-11-05T13:10:12Z</time>
      </trkpt>
      <trkpt lat="43.48377" lon="6.62596">
        <ele>28.4</ele>
        <time>2023-11-05T13:10:13Z</time>
      </trkpt>
      <trkpt lat="43.48376" lon="6.62595">
        <ele>28.4</ele>
        <time>2023-11-05T13:10:14Z</time>
      </trkpt>
      <trkpt lat="43.48376" lon="6.62594">
        <ele>28.5</ele>
        <time>2023-11-05T13:10:15Z</time>
      </trkpt>
      <trkpt lat="43.48375" lon="6.62592">
        <ele>28.6</ele>
        <time>2023-11-05T13:10:16Z</time>
      </trkpt>
      <trkpt lat="43.48375" lon="6.62591">
        <ele>28.7</ele>
        <time>2023-11-05T13:10:17Z</time>
      </trkpt>
      <trkpt lat="43.48374" lon="6.6259">
        <ele>28.7</ele>
        <time>2023-11-05T13:10:18Z</time>
      </trkpt>
      <trkpt lat="43.48374" lon="6.62588">
        <ele>28.7</ele>
        <time>2023-11-05T13:10:19Z</time>
      </trkpt>
      <trkpt lat="43.48374" lon="6.62587">
        <ele>28.8</ele>
        <time>2023-11-05T13:10:20Z</time>
      </trkpt>
      <trkpt lat="43.48374" lon="6.62586">
        <ele>28.9</ele>
        <time>2023-11-05T13:10:21Z</time>
      </trkpt>
      <trkpt lat="43.48374" lon="6.62584">
        <ele>28.8</ele>
        <time>2023-11-05T13:10:22Z</time>
      </trkpt>
      <trkpt lat="43.48374" lon="6.62583">
        <ele>28.9</ele>
        <time>2023-11-05T13:10:23Z</time>
      </trkpt>
      <trkpt lat="43.48374" lon="6.62581">
        <ele>28.9</ele>
        <time>2023-11-05T13:10:24Z</time>
      </trkpt>
      <trkpt lat="43.48375" lon="6.6258">
        <ele>28.8</ele>
        <time>2023-11-05T13:10:25Z</time>
      </trkpt>
      <trkpt lat="43.48375" lon="6.62579">
        <ele>28.8</ele>
        <time>2023-11-05T13:10:26Z</time>
      </trkpt>
      <trkpt lat="43.48375" lon="6.62577">
        <ele>28.9</ele>
        <time>2023-11-05T13:10:27Z</time>
      </trkpt>
      <trkpt lat="43.48375" lon="6.62576">
        <ele>29</ele>
        <time>2023-11-05T13:10:28Z</time>
      </trkpt>
      <trkpt lat="43.48375" lon="6.62574">
        <ele>29.1</ele>
        <time>2023-11-05T13:10:29Z</time>
      </trkpt>
      <trkpt lat="43.48375" lon="6.62573">
        <ele>29.2</ele>
        <time>2023-11-05T13:10:30Z</time>
      </trkpt>
      <trkpt lat="43.48374" lon="6.62571">
        <ele>29.3</ele>
        <time>2023-11-05T13:10:31Z</time>
      </trkpt>
      <trkpt lat="43.48374" lon="6.6257">
        <ele>29.4</ele>
        <time>2023-11-05T13:10:32Z</time>
      </trkpt>
      <trkpt lat="43.48373" lon="6.62569">
        <ele>29.5</ele>
        <time>2023-11-05T13:10:33Z</time>
      </trkpt>
      <trkpt lat="43.48373" lon="6.62567">
        <ele>29.6</ele>
        <time>2023-11-05T13:10:34Z</time>
      </trkpt>
      <trkpt lat="43.48372" lon="6.62566">
        <ele>29.7</ele>
        <time>2023-11-05T13:10:35Z</time>
      </trkpt>
      <trkpt lat="43.48371" lon="6.62565">
        <ele>29.7</ele>
        <time>2023-11-05T13:10:36Z</time>
      </trkpt>
      <trkpt lat="43.4837" lon="6.62563">
        <ele>29.8</ele>
        <time>2023-11-05T13:10:37Z</time>
      </trkpt>
      <trkpt lat="43.48369" lon="6.62562">
        <ele>29.9</ele>
        <time>2023-11-05T13:10:38Z</time>
      </trkpt>
      <trkpt lat="43.48369" lon="6.62561">
        <ele>29.9</ele>
        <time>2023-11-05T13:10:39Z</time>
      </trkpt>
      <trkpt lat="43.48368" lon="6.6256">
        <ele>29.9</ele>
        <time>2023-11-05T13:10:40Z</time>
      </trkpt>
      <trkpt lat="43.48368" lon="6.62558">
        <ele>30</ele>
        <time>2023-11-05T13:10:41Z</time>
      </trkpt>
      <trkpt lat="43.48369" lon="6.62557">
        <ele>30</ele>
        <time>2023-11-05T13:10:42Z</time>
      </trkpt>
      <trkpt lat="43.48369" lon="6.62555">
        <ele>30.1</ele>
        <time>2023-11-05T13:10:43Z</time>
      </trkpt>
      <trkpt lat="43.48369" lon="6.62554">
        <ele>30.3</ele>
        <time>2023-11-05T13:10:44Z</time>
      </trkpt>
      <trkpt lat="43.48369" lon="6.62553">
        <ele>30.4</ele>
        <time>2023-11-05T13:10:45Z</time>
      </trkpt>
      <trkpt lat="43.4837" lon="6.62552">
        <ele>30.4</ele>
        <time>2023-11-05T13:10:46Z</time>
      </trkpt>
      <trkpt lat="43.4837" lon="6.62551">
        <ele>30.6</ele>
        <time>2023-11-05T13:10:47Z</time>
      </trkpt>
      <trkpt lat="43.48371" lon="6.6255">
        <ele>30.9</ele>
        <time>2023-11-05T13:10:48Z</time>
      </trkpt>
      <trkpt lat="43.48371" lon="6.62548">
        <ele>31.2</ele>
        <time>2023-11-05T13:10:49Z</time>
      </trkpt>
      <trkpt lat="43.48371" lon="6.62547">
        <ele>31.3</ele>
        <time>2023-11-05T13:10:50Z</time>
      </trkpt>
      <trkpt lat="43.48371" lon="6.62546">
        <ele>31.5</ele>
        <time>2023-11-05T13:10:51Z</time>
      </trkpt>
      <trkpt lat="43.48371" lon="6.62544">
        <ele>31.6</ele>
        <time>2023-11-05T13:10:52Z</time>
      </trkpt>
      <trkpt lat="43.48371" lon="6.62543">
        <ele>31.7</ele>
        <time>2023-11-05T13:10:53Z</time>
      </trkpt>
      <trkpt lat="43.4837" lon="6.62542">
        <ele>31.8</ele>
        <time>2023-11-05T13:10:54Z</time>
      </trkpt>
      <trkpt lat="43.48369" lon="6.62542">
        <ele>31.9</ele>
        <time>2023-11-05T13:10:55Z</time>
      </trkpt>
      <trkpt lat="43.48369" lon="6.62541">
        <ele>32</ele>
        <time>2023-11-05T13:10:56Z</time>
      </trkpt>
      <trkpt lat="43.48368" lon="6.6254">
        <ele>32.2</ele>
        <time>2023-11-05T13:10:57Z</time>
      </trkpt>
      <trkpt lat="43.48368" lon="6.62539">
        <ele>32.3</ele>
        <time>2023-11-05T13:10:58Z</time>
      </trkpt>
      <trkpt lat="43.48368" lon="6.62538">
        <ele>32.5</ele>
        <time>2023-11-05T13:10:59Z</time>
      </trkpt>
      <trkpt lat="43.48367" lon="6.62537">
        <ele>32.7</ele>
        <time>2023-11-05T13:11:00Z</time>
      </trkpt>
      <trkpt lat="43.48366" lon="6.62536">
        <ele>32.9</ele>
        <time>2023-11-05T13:11:01Z</time>
      </trkpt>
      <trkpt lat="43.48366" lon="6.62535">
        <ele>33</ele>
        <time>2023-11-05T13:11:02Z</time>
      </trkpt>
      <trkpt lat="43.48365" lon="6.62534">
        <ele>33.2</ele>
        <time>2023-11-05T13:11:03Z</time>
      </trkpt>
      <trkpt lat="43.48365" lon="6.62533">
        <ele>33.3</ele>
        <time>2023-11-05T13:11:04Z</time>
      </trkpt>
      <trkpt lat="43.48365" lon="6.62532">
        <ele>33.5</ele>
        <time>2023-11-05T13:11:05Z</time>
      </trkpt>
      <trkpt lat="43.48364" lon="6.6253">
        <ele>33.6</ele>
        <time>2023-11-05T13:11:06Z</time>
      </trkpt>
      <trkpt lat="43.48364" lon="6.62529">
        <ele>33.7</ele>
        <time>2023-11-05T13:11:07Z</time>
      </trkpt>
      <trkpt lat="43.48364" lon="6.62527">
        <ele>33.7</ele>
        <time>2023-11-05T13:11:08Z</time>
      </trkpt>
      <trkpt lat="43.48363" lon="6.62526">
        <ele>33.8</ele>
        <time>2023-11-05T13:11:09Z</time>
      </trkpt>
      <trkpt lat="43.48363" lon="6.62525">
        <ele>33.9</ele>
        <time>2023-11-05T13:11:10Z</time>
      </trkpt>
      <trkpt lat="43.48363" lon="6.62523">
        <ele>34</ele>
        <time>2023-11-05T13:11:11Z</time>
      </trkpt>
      <trkpt lat="43.48363" lon="6.62522">
        <ele>34.1</ele>
        <time>2023-11-05T13:11:12Z</time>
      </trkpt>
      <trkpt lat="43.48363" lon="6.62521">
        <ele>34.2</ele>
        <time>2023-11-05T13:11:13Z</time>
      </trkpt>
      <trkpt lat="43.48363" lon="6.62519">
        <ele>34.5</ele>
        <time>2023-11-05T13:11:14Z</time>
      </trkpt>
      <trkpt lat="43.48363" lon="6.62518">
        <ele>34.7</ele>
        <time>2023-11-05T13:11:15Z</time>
      </trkpt>
      <trkpt lat="43.48363" lon="6.62517">
        <ele>34.9</ele>
        <time>2023-11-05T13:11:16Z</time>
      </trkpt>
      <trkpt lat="43.48363" lon="6.62516">
        <ele>35</ele>
        <time>2023-11-05T13:11:17Z</time>
      </trkpt>
      <trkpt lat="43.48363" lon="6.62515">
        <ele>35.2</ele>
        <time>2023-11-05T13:11:18Z</time>
      </trkpt>
      <trkpt lat="43.48364" lon="6.62514">
        <ele>35.3</ele>
        <time>2023-11-05T13:11:19Z</time>
      </trkpt>
      <trkpt lat="43.48363" lon="6.62513">
        <ele>35.5</ele>
        <time>2023-11-05T13:11:20Z</time>
      </trkpt>
      <trkpt lat="43.48363" lon="6.62512">
        <ele>35.7</ele>
        <time>2023-11-05T13:11:21Z</time>
      </trkpt>
      <trkpt lat="43.48363" lon="6.62511">
        <ele>36</ele>
        <time>2023-11-05T13:11:22Z</time>
      </trkpt>
      <trkpt lat="43.48363" lon="6.6251">
        <ele>36.3</ele>
        <time>2023-11-05T13:11:23Z</time>
      </trkpt>
      <trkpt lat="43.48363" lon="6.62508">
        <ele>36.5</ele>
        <time>2023-11-05T13:11:24Z</time>
      </trkpt>
      <trkpt lat="43.48363" lon="6.62507">
        <ele>36.7</ele>
        <time>2023-11-05T13:11:25Z</time>
      </trkpt>
      <trkpt lat="43.48362" lon="6.62506">
        <ele>36.9</ele>
        <time>2023-11-05T13:11:26Z</time>
      </trkpt>
      <trkpt lat="43.48363" lon="6.62505">
        <ele>37</ele>
        <time>2023-11-05T13:11:27Z</time>
      </trkpt>
      <trkpt lat="43.48363" lon="6.62504">
        <ele>37.1</ele>
        <time>2023-11-05T13:11:28Z</time>
      </trkpt>
      <trkpt lat="43.48363" lon="6.62504">
        <ele>37.3</ele>
        <time>2023-11-05T13:11:29Z</time>
      </trkpt>
      <trkpt lat="43.48363" lon="6.62503">
        <ele>37.5</ele>
        <time>2023-11-05T13:11:30Z</time>
      </trkpt>
      <trkpt lat="43.48363" lon="6.62502">
        <ele>37.6</ele>
        <time>2023-11-05T13:11:31Z</time>
      </trkpt>
      <trkpt lat="43.48364" lon="6.62501">
        <ele>37.7</ele>
        <time>2023-11-05T13:11:32Z</time>
      </trkpt>
      <trkpt lat="43.48364" lon="6.62501">
        <ele>37.8</ele>
        <time>2023-11-05T13:11:33Z</time>
      </trkpt>
      <trkpt lat="43.48364" lon="6.625">
        <ele>38.1</ele>
        <time>2023-11-05T13:11:34Z</time>
      </trkpt>
      <trkpt lat="43.48364" lon="6.62499">
        <ele>38.4</ele>
        <time>2023-11-05T13:11:35Z</time>
      </trkpt>
      <trkpt lat="43.48363" lon="6.62499">
        <ele>38.6</ele>
        <time>2023-11-05T13:11:36Z</time>
      </trkpt>
      <trkpt lat="43.48363" lon="6.62499">
        <ele>38.8</ele>
        <time>2023-11-05T13:11:37Z</time>
      </trkpt>
      <trkpt lat="43.48363" lon="6.62499">
        <ele>38.9</ele>
        <time>2023-11-05T13:11:38Z</time>
      </trkpt>
      <trkpt lat="43.48363" lon="6.62498">
        <ele>38.9</ele>
        <time>2023-11-05T13:11:39Z</time>
      </trkpt>
      <trkpt lat="43.48362" lon="6.62499">
        <ele>38.9</ele>
        <time>2023-11-05T13:11:40Z</time>
      </trkpt>
      <trkpt lat="43.48361" lon="6.62498">
        <ele>39</ele>
        <time>2023-11-05T13:11:41Z</time>
      </trkpt>
      <trkpt lat="43.48361" lon="6.62498">
        <ele>39</ele>
        <time>2023-11-05T13:11:42Z</time>
      </trkpt>
      <trkpt lat="43.48361" lon="6.62498">
        <ele>39</ele>
        <time>2023-11-05T13:11:43Z</time>
      </trkpt>
      <trkpt lat="43.48361" lon="6.62498">
        <ele>39</ele>
        <time>2023-11-05T13:11:44Z</time>
      </trkpt>
      <trkpt lat="43.48361" lon="6.62498">
        <ele>39</ele>
        <time>2023-11-05T13:11:45Z</time>
      </trkpt>
      <trkpt lat="43.48361" lon="6.62498">
        <ele>38.9</ele>
        <time>2023-11-05T13:11:46Z</time>
      </trkpt>
      <trkpt lat="43.48361" lon="6.62498">
        <ele>39.1</ele>
        <time>2023-11-05T13:11:47Z</time>
      </trkpt>
      <trkpt lat="43.4836" lon="6.62497">
        <ele>39.1</ele>
        <time>2023-11-05T13:11:48Z</time>
      </trkpt>
      <trkpt lat="43.4836" lon="6.62497">
        <ele>39.1</ele>
        <time>2023-11-05T13:11:49Z</time>
      </trkpt>
      <trkpt lat="43.4836" lon="6.62497">
        <ele>39.2</ele>
        <time>2023-11-05T13:11:50Z</time>
      </trkpt>
      <trkpt lat="43.4836" lon="6.62497">
        <ele>39.1</ele>
        <time>2023-11-05T13:11:51Z</time>
      </trkpt>
      <trkpt lat="43.4836" lon="6.62497">
        <ele>39.1</ele>
        <time>2023-11-05T13:11:52Z</time>
      </trkpt>
      <trkpt lat="43.4836" lon="6.62497">
        <ele>39.2</ele>
        <time>2023-11-05T13:11:53Z</time>
      </trkpt>
      <trkpt lat="43.4836" lon="6.62497">
        <ele>39.2</ele>
        <time>2023-11-05T13:11:54Z</time>
      </trkpt>
      <trkpt lat="43.4836" lon="6.62496">
        <ele>39.2</ele>
        <time>2023-11-05T13:11:55Z</time>
      </trkpt>
      <trkpt lat="43.4836" lon="6.62495">
        <ele>39.1</ele>
        <time>2023-11-05T13:11:56Z</time>
      </trkpt>
      <trkpt lat="43.48359" lon="6.62495">
        <ele>39</ele>
        <time>2023-11-05T13:11:57Z</time>
      </trkpt>
      <trkpt lat="43.48358" lon="6.62494">
        <ele>38.9</ele>
        <time>2023-11-05T13:11:58Z</time>
      </trkpt>
      <trkpt lat="43.48358" lon="6.62494">
        <ele>38.8</ele>
        <time>2023-11-05T13:11:59Z</time>
      </trkpt>
      <trkpt lat="43.48357" lon="6.62494">
        <ele>38.8</ele>
        <time>2023-11-05T13:12:00Z</time>
      </trkpt>
      <trkpt lat="43.48356" lon="6.62493">
        <ele>38.7</ele>
        <time>2023-11-05T13:12:01Z</time>
      </trkpt>
      <trkpt lat="43.48356" lon="6.62493">
        <ele>38.7</ele>
        <time>2023-11-05T13:12:02Z</time>
      </trkpt>
      <trkpt lat="43.48356" lon="6.62493">
        <ele>38.8</ele>
        <time>2023-11-05T13:12:03Z</time>
      </trkpt>
      <trkpt lat="43.48356" lon="6.62493">
        <ele>38.8</ele>
        <time>2023-11-05T13:12:04Z</time>
      </trkpt>
      <trkpt lat="43.48355" lon="6.62493">
        <ele>38.8</ele>
        <time>2023-11-05T13:12:05Z</time>
      </trkpt>
      <trkpt lat="43.48355" lon="6.62494">
        <ele>38.8</ele>
        <time>2023-11-05T13:12:06Z</time>
      </trkpt>
      <trkpt lat="43.48355" lon="6.62494">
        <ele>39</ele>
        <time>2023-11-05T13:12:07Z</time>
      </trkpt>
      <trkpt lat="43.48355" lon="6.62494">
        <ele>39</ele>
        <time>2023-11-05T13:12:08Z</time>
      </trkpt>
      <trkpt lat="43.48355" lon="6.62494">
        <ele>39</ele>
        <time>2023-11-05T13:12:09Z</time>
      </trkpt>
      <trkpt lat="43.48355" lon="6.62494">
        <ele>39.1</ele>
        <time>2023-11-05T13:12:10Z</time>
      </trkpt>
      <trkpt lat="43.48355" lon="6.62494">
        <ele>39.2</ele>
        <time>2023-11-05T13:12:11Z</time>
      </trkpt>
      <trkpt lat="43.48355" lon="6.62494">
        <ele>39.3</ele>
        <time>2023-11-05T13:12:12Z</time>
      </trkpt>
      <trkpt lat="43.48355" lon="6.62494">
        <ele>39.3</ele>
        <time>2023-11-05T13:12:13Z</time>
      </trkpt>
      <trkpt lat="43.48355" lon="6.62494">
        <ele>39.4</ele>
        <time>2023-11-05T13:12:14Z</time>
      </trkpt>
      <trkpt lat="43.48355" lon="6.62494">
        <ele>39.3</ele>
        <time>2023-11-05T13:12:15Z</time>
      </trkpt>
      <trkpt lat="43.48355" lon="6.62494">
        <ele>39.2</ele>
        <time>2023-11-05T13:12:16Z</time>
      </trkpt>
      <trkpt lat="43.48355" lon="6.62494">
        <ele>39.1</ele>
        <time>2023-11-05T13:12:17Z</time>
      </trkpt>
      <trkpt lat="43.48355" lon="6.62494">
        <ele>39.1</ele>
        <time>2023-11-05T13:12:18Z</time>
      </trkpt>
      <trkpt lat="43.48355" lon="6.62494">
        <ele>39</ele>
        <time>2023-11-05T13:12:19Z</time>
      </trkpt>
      <trkpt lat="43.48355" lon="6.62494">
        <ele>39</ele>
        <time>2023-11-05T13:12:20Z</time>
      </trkpt>
      <trkpt lat="43.48355" lon="6.62494">
        <ele>39</ele>
        <time>2023-11-05T13:12:21Z</time>
      </trkpt>
      <trkpt lat="43.48355" lon="6.62493">
        <ele>38.9</ele>
        <time>2023-11-05T13:12:22Z</time>
      </trkpt>
      <trkpt lat="43.48355" lon="6.62493">
        <ele>38.9</ele>
        <time>2023-11-05T13:12:23Z</time>
      </trkpt>
      <trkpt lat="43.48355" lon="6.62492">
        <ele>38.9</ele>
        <time>2023-11-05T13:12:24Z</time>
      </trkpt>
      <trkpt lat="43.48355" lon="6.62491">
        <ele>38.9</ele>
        <time>2023-11-05T13:12:25Z</time>
      </trkpt>
      <trkpt lat="43.48354" lon="6.62491">
        <ele>39</ele>
        <time>2023-11-05T13:12:26Z</time>
      </trkpt>
      <trkpt lat="43.48353" lon="6.6249">
        <ele>39</ele>
        <time>2023-11-05T13:12:27Z</time>
      </trkpt>
      <trkpt lat="43.48352" lon="6.62489">
        <ele>39.1</ele>
        <time>2023-11-05T13:12:28Z</time>
      </trkpt>
      <trkpt lat="43.48351" lon="6.62489">
        <ele>39</ele>
        <time>2023-11-05T13:12:29Z</time>
      </trkpt>
      <trkpt lat="43.4835" lon="6.62488">
        <ele>39</ele>
        <time>2023-11-05T13:12:30Z</time>
      </trkpt>
      <trkpt lat="43.4835" lon="6.62488">
        <ele>39</ele>
        <time>2023-11-05T13:12:31Z</time>
      </trkpt>
      <trkpt lat="43.48349" lon="6.62487">
        <ele>39</ele>
        <time>2023-11-05T13:12:32Z</time>
      </trkpt>
      <trkpt lat="43.48348" lon="6.62487">
        <ele>39</ele>
        <time>2023-11-05T13:12:33Z</time>
      </trkpt>
      <trkpt lat="43.48348" lon="6.62487">
        <ele>39</ele>
        <time>2023-11-05T13:12:34Z</time>
      </trkpt>
      <trkpt lat="43.48347" lon="6.62486">
        <ele>39</ele>
        <time>2023-11-05T13:12:35Z</time>
      </trkpt>
      <trkpt lat="43.48346" lon="6.62485">
        <ele>39</ele>
        <time>2023-11-05T13:12:36Z</time>
      </trkpt>
      <trkpt lat="43.48345" lon="6.62484">
        <ele>39.1</ele>
        <time>2023-11-05T13:12:37Z</time>
      </trkpt>
      <trkpt lat="43.48344" lon="6.62484">
        <ele>39.2</ele>
        <time>2023-11-05T13:12:38Z</time>
      </trkpt>
      <trkpt lat="43.48343" lon="6.62484">
        <ele>39.3</ele>
        <time>2023-11-05T13:12:39Z</time>
      </trkpt>
      <trkpt lat="43.48343" lon="6.62484">
        <ele>39.4</ele>
        <time>2023-11-05T13:12:40Z</time>
      </trkpt>
      <trkpt lat="43.48343" lon="6.62483">
        <ele>39.5</ele>
        <time>2023-11-05T13:12:41Z</time>
      </trkpt>
      <trkpt lat="43.48342" lon="6.62482">
        <ele>39.6</ele>
        <time>2023-11-05T13:12:42Z</time>
      </trkpt>
      <trkpt lat="43.48341" lon="6.62481">
        <ele>39.6</ele>
        <time>2023-11-05T13:12:43Z</time>
      </trkpt>
      <trkpt lat="43.4834" lon="6.6248">
        <ele>39.7</ele>
        <time>2023-11-05T13:12:44Z</time>
      </trkpt>
      <trkpt lat="43.4834" lon="6.62479">
        <ele>39.7</ele>
        <time>2023-11-05T13:12:45Z</time>
      </trkpt>
      <trkpt lat="43.48339" lon="6.62478">
        <ele>39.8</ele>
        <time>2023-11-05T13:12:46Z</time>
      </trkpt>
      <trkpt lat="43.48338" lon="6.62477">
        <ele>40</ele>
        <time>2023-11-05T13:12:47Z</time>
      </trkpt>
      <trkpt lat="43.48337" lon="6.62476">
        <ele>40.2</ele>
        <time>2023-11-05T13:12:48Z</time>
      </trkpt>
      <trkpt lat="43.48337" lon="6.62476">
        <ele>40.3</ele>
        <time>2023-11-05T13:12:49Z</time>
      </trkpt>
      <trkpt lat="43.48336" lon="6.62475">
        <ele>40.4</ele>
        <time>2023-11-05T13:12:50Z</time>
      </trkpt>
      <trkpt lat="43.48335" lon="6.62474">
        <ele>40.6</ele>
        <time>2023-11-05T13:12:51Z</time>
      </trkpt>
      <trkpt lat="43.48334" lon="6.62473">
        <ele>40.7</ele>
        <time>2023-11-05T13:12:52Z</time>
      </trkpt>
      <trkpt lat="43.48333" lon="6.62472">
        <ele>40.8</ele>
        <time>2023-11-05T13:12:53Z</time>
      </trkpt>
      <trkpt lat="43.48332" lon="6.62471">
        <ele>40.8</ele>
        <time>2023-11-05T13:12:54Z</time>
      </trkpt>
      <trkpt lat="43.48332" lon="6.6247">
        <ele>40.9</ele>
        <time>2023-11-05T13:12:55Z</time>
      </trkpt>
      <trkpt lat="43.48331" lon="6.62469">
        <ele>41</ele>
        <time>2023-11-05T13:12:56Z</time>
      </trkpt>
      <trkpt lat="43.4833" lon="6.62468">
        <ele>41.1</ele>
        <time>2023-11-05T13:12:57Z</time>
      </trkpt>
      <trkpt lat="43.48329" lon="6.62467">
        <ele>41.1</ele>
        <time>2023-11-05T13:12:58Z</time>
      </trkpt>
      <trkpt lat="43.48329" lon="6.62466">
        <ele>41.2</ele>
        <time>2023-11-05T13:12:59Z</time>
      </trkpt>
      <trkpt lat="43.48328" lon="6.62465">
        <ele>41.2</ele>
        <time>2023-11-05T13:13:00Z</time>
      </trkpt>
      <trkpt lat="43.48328" lon="6.62463">
        <ele>41.3</ele>
        <time>2023-11-05T13:13:01Z</time>
      </trkpt>
      <trkpt lat="43.48328" lon="6.62462">
        <ele>41.4</ele>
        <time>2023-11-05T13:13:02Z</time>
      </trkpt>
      <trkpt lat="43.48328" lon="6.6246">
        <ele>41.4</ele>
        <time>2023-11-05T13:13:03Z</time>
      </trkpt>
      <trkpt lat="43.48327" lon="6.62459">
        <ele>41.5</ele>
        <time>2023-11-05T13:13:04Z</time>
      </trkpt>
      <trkpt lat="43.48327" lon="6.62457">
        <ele>41.5</ele>
        <time>2023-11-05T13:13:05Z</time>
      </trkpt>
      <trkpt lat="43.48327" lon="6.62456">
        <ele>41.5</ele>
        <time>2023-11-05T13:13:06Z</time>
      </trkpt>
      <trkpt lat="43.48326" lon="6.62455">
        <ele>41.5</ele>
        <time>2023-11-05T13:13:07Z</time>
      </trkpt>
      <trkpt lat="43.48326" lon="6.62453">
        <ele>41.6</ele>
        <time>2023-11-05T13:13:08Z</time>
      </trkpt>
      <trkpt lat="43.48325" lon="6.62453">
        <ele>41.6</ele>
        <time>2023-11-05T13:13:09Z</time>
      </trkpt>
      <trkpt lat="43.48325" lon="6.62452">
        <ele>41.6</ele>
        <time>2023-11-05T13:13:10Z</time>
      </trkpt>
      <trkpt lat="43.48325" lon="6.6245">
        <ele>41.6</ele>
        <time>2023-11-05T13:13:11Z</time>
      </trkpt>
      <trkpt lat="43.48324" lon="6.62449">
        <ele>41.7</ele>
        <time>2023-11-05T13:13:12Z</time>
      </trkpt>
      <trkpt lat="43.48324" lon="6.62448">
        <ele>41.7</ele>
        <time>2023-11-05T13:13:13Z</time>
      </trkpt>
      <trkpt lat="43.48324" lon="6.62448">
        <ele>41.7</ele>
        <time>2023-11-05T13:13:14Z</time>
      </trkpt>
      <trkpt lat="43.48324" lon="6.62447">
        <ele>41.8</ele>
        <time>2023-11-05T13:13:15Z</time>
      </trkpt>
      <trkpt lat="43.48325" lon="6.62447">
        <ele>41.9</ele>
        <time>2023-11-05T13:13:16Z</time>
      </trkpt>
      <trkpt lat="43.48325" lon="6.62447">
        <ele>42</ele>
        <time>2023-11-05T13:13:17Z</time>
      </trkpt>
      <trkpt lat="43.48325" lon="6.62447">
        <ele>42</ele>
        <time>2023-11-05T13:13:18Z</time>
      </trkpt>
      <trkpt lat="43.48325" lon="6.62446">
        <ele>42</ele>
        <time>2023-11-05T13:13:19Z</time>
      </trkpt>
      <trkpt lat="43.48325" lon="6.62446">
        <ele>42</ele>
        <time>2023-11-05T13:13:20Z</time>
      </trkpt>
      <trkpt lat="43.48325" lon="6.62446">
        <ele>42.1</ele>
        <time>2023-11-05T13:13:21Z</time>
      </trkpt>
      <trkpt lat="43.48325" lon="6.62447">
        <ele>42.1</ele>
        <time>2023-11-05T13:13:22Z</time>
      </trkpt>
      <trkpt lat="43.48325" lon="6.62447">
        <ele>42.1</ele>
        <time>2023-11-05T13:13:23Z</time>
      </trkpt>
      <trkpt lat="43.48325" lon="6.62447">
        <ele>42.1</ele>
        <time>2023-11-05T13:13:24Z</time>
      </trkpt>
      <trkpt lat="43.48325" lon="6.62446">
        <ele>42.2</ele>
        <time>2023-11-05T13:13:25Z</time>
      </trkpt>
      <trkpt lat="43.48325" lon="6.62446">
        <ele>42.1</ele>
        <time>2023-11-05T13:13:26Z</time>
      </trkpt>
      <trkpt lat="43.48325" lon="6.62446">
        <ele>42.1</ele>
        <time>2023-11-05T13:13:27Z</time>
      </trkpt>
      <trkpt lat="43.48325" lon="6.62446">
        <ele>42.2</ele>
        <time>2023-11-05T13:13:28Z</time>
      </trkpt>
      <trkpt lat="43.48325" lon="6.62447">
        <ele>42.2</ele>
        <time>2023-11-05T13:13:29Z</time>
      </trkpt>
      <trkpt lat="43.48325" lon="6.62446">
        <ele>42.3</ele>
        <time>2023-11-05T13:13:30Z</time>
      </trkpt>
      <trkpt lat="43.48325" lon="6.62446">
        <ele>42.1</ele>
        <time>2023-11-05T13:13:31Z</time>
      </trkpt>
      <trkpt lat="43.48325" lon="6.62446">
        <ele>42.1</ele>
        <time>2023-11-05T13:13:32Z</time>
      </trkpt>
      <trkpt lat="43.48325" lon="6.62446">
        <ele>42.1</ele>
        <time>2023-11-05T13:13:33Z</time>
      </trkpt>
      <trkpt lat="43.48325" lon="6.62446">
        <ele>42</ele>
        <time>2023-11-05T13:13:34Z</time>
      </trkpt>
      <trkpt lat="43.48325" lon="6.62447">
        <ele>42</ele>
        <time>2023-11-05T13:13:35Z</time>
      </trkpt>
      <trkpt lat="43.48325" lon="6.62447">
        <ele>41.9</ele>
        <time>2023-11-05T13:13:36Z</time>
      </trkpt>
      <trkpt lat="43.48325" lon="6.62447">
        <ele>42</ele>
        <time>2023-11-05T13:13:37Z</time>
      </trkpt>
      <trkpt lat="43.48325" lon="6.62447">
        <ele>42</ele>
        <time>2023-11-05T13:13:38Z</time>
      </trkpt>
      <trkpt lat="43.48325" lon="6.62447">
        <ele>42</ele>
        <time>2023-11-05T13:13:39Z</time>
      </trkpt>
      <trkpt lat="43.48325" lon="6.62447">
        <ele>42.1</ele>
        <time>2023-11-05T13:13:40Z</time>
      </trkpt>
      <trkpt lat="43.48325" lon="6.62447">
        <ele>42</ele>
        <time>2023-11-05T13:13:41Z</time>
      </trkpt>
      <trkpt lat="43.48325" lon="6.62447">
        <ele>42</ele>
        <time>2023-11-05T13:13:42Z</time>
      </trkpt>
      <trkpt lat="43.48324" lon="6.62447">
        <ele>42</ele>
        <time>2023-11-05T13:13:43Z</time>
      </trkpt>
      <trkpt lat="43.48324" lon="6.62447">
        <ele>42</ele>
        <time>2023-11-05T13:13:44Z</time>
      </trkpt>
      <trkpt lat="43.48324" lon="6.62447">
        <ele>42.1</ele>
        <time>2023-11-05T13:13:45Z</time>
      </trkpt>
      <trkpt lat="43.48324" lon="6.62446">
        <ele>42.1</ele>
        <time>2023-11-05T13:13:46Z</time>
      </trkpt>
      <trkpt lat="43.48324" lon="6.62446">
        <ele>42.1</ele>
        <time>2023-11-05T13:13:47Z</time>
      </trkpt>
      <trkpt lat="43.48324" lon="6.62446">
        <ele>42.2</ele>
        <time>2023-11-05T13:13:48Z</time>
      </trkpt>
      <trkpt lat="43.48324" lon="6.62446">
        <ele>42.2</ele>
        <time>2023-11-05T13:13:49Z</time>
      </trkpt>
      <trkpt lat="43.48324" lon="6.62446">
        <ele>42.3</ele>
        <time>2023-11-05T13:13:50Z</time>
      </trkpt>
      <trkpt lat="43.48324" lon="6.62446">
        <ele>42.2</ele>
        <time>2023-11-05T13:13:51Z</time>
      </trkpt>
      <trkpt lat="43.48324" lon="6.62446">
        <ele>42.2</ele>
        <time>2023-11-05T13:13:52Z</time>
      </trkpt>
      <trkpt lat="43.48324" lon="6.62446">
        <ele>42.1</ele>
        <time>2023-11-05T13:13:53Z</time>
      </trkpt>
      <trkpt lat="43.48324" lon="6.62446">
        <ele>42</ele>
        <time>2023-11-05T13:13:54Z</time>
      </trkpt>
      <trkpt lat="43.48324" lon="6.62446">
        <ele>42</ele>
        <time>2023-11-05T13:13:55Z</time>
      </trkpt>
      <trkpt lat="43.48324" lon="6.62446">
        <ele>42</ele>
        <time>2023-11-05T13:13:56Z</time>
      </trkpt>
      <trkpt lat="43.48324" lon="6.62445">
        <ele>42.1</ele>
        <time>2023-11-05T13:13:57Z</time>
      </trkpt>
      <trkpt lat="43.48324" lon="6.62445">
        <ele>42.1</ele>
        <time>2023-11-05T13:13:58Z</time>
      </trkpt>
      <trkpt lat="43.48324" lon="6.62445">
        <ele>42</ele>
        <time>2023-11-05T13:13:59Z</time>
      </trkpt>
      <trkpt lat="43.48324" lon="6.62445">
        <ele>42</ele>
        <time>2023-11-05T13:14:00Z</time>
      </trkpt>
      <trkpt lat="43.48324" lon="6.62445">
        <ele>41.9</ele>
        <time>2023-11-05T13:14:01Z</time>
      </trkpt>
      <trkpt lat="43.48324" lon="6.62445">
        <ele>42</ele>
        <time>2023-11-05T13:14:02Z</time>
      </trkpt>
      <trkpt lat="43.48324" lon="6.62445">
        <ele>41.9</ele>
        <time>2023-11-05T13:14:03Z</time>
      </trkpt>
      <trkpt lat="43.48324" lon="6.62445">
        <ele>41.9</ele>
        <time>2023-11-05T13:14:04Z</time>
      </trkpt>
      <trkpt lat="43.48324" lon="6.62445">
        <ele>41.9</ele>
        <time>2023-11-05T13:14:05Z</time>
      </trkpt>
      <trkpt lat="43.48324" lon="6.62445">
        <ele>41.9</ele>
        <time>2023-11-05T13:14:06Z</time>
      </trkpt>
      <trkpt lat="43.48324" lon="6.62445">
        <ele>41.9</ele>
        <time>2023-11-05T13:14:07Z</time>
      </trkpt>
      <trkpt lat="43.48324" lon="6.62445">
        <ele>41.8</ele>
        <time>2023-11-05T13:14:08Z</time>
      </trkpt>
      <trkpt lat="43.48324" lon="6.62445">
        <ele>41.7</ele>
        <time>2023-11-05T13:14:09Z</time>
      </trkpt>
      <trkpt lat="43.48324" lon="6.62445">
        <ele>41.8</ele>
        <time>2023-11-05T13:14:10Z</time>
      </trkpt>
      <trkpt lat="43.48324" lon="6.62445">
        <ele>41.8</ele>
        <time>2023-11-05T13:14:11Z</time>
      </trkpt>
      <trkpt lat="43.48324" lon="6.62445">
        <ele>41.8</ele>
        <time>2023-11-05T13:14:12Z</time>
      </trkpt>
      <trkpt lat="43.48325" lon="6.62445">
        <ele>42</ele>
        <time>2023-11-05T13:14:13Z</time>
      </trkpt>
      <trkpt lat="43.48325" lon="6.62445">
        <ele>42</ele>
        <time>2023-11-05T13:14:14Z</time>
      </trkpt>
      <trkpt lat="43.48325" lon="6.62445">
        <ele>42</ele>
        <time>2023-11-05T13:14:15Z</time>
      </trkpt>
      <trkpt lat="43.48325" lon="6.62445">
        <ele>42.1</ele>
        <time>2023-11-05T13:14:16Z</time>
      </trkpt>
      <trkpt lat="43.48325" lon="6.62446">
        <ele>42.1</ele>
        <time>2023-11-05T13:14:17Z</time>
      </trkpt>
      <trkpt lat="43.48325" lon="6.62446">
        <ele>42.1</ele>
        <time>2023-11-05T13:14:18Z</time>
      </trkpt>
      <trkpt lat="43.48325" lon="6.62446">
        <ele>42.2</ele>
        <time>2023-11-05T13:14:19Z</time>
      </trkpt>
      <trkpt lat="43.48325" lon="6.62446">
        <ele>42.2</ele>
        <time>2023-11-05T13:14:20Z</time>
      </trkpt>
      <trkpt lat="43.48325" lon="6.62445">
        <ele>42.2</ele>
        <time>2023-11-05T13:14:21Z</time>
      </trkpt>
      <trkpt lat="43.48325" lon="6.62445">
        <ele>42.2</ele>
        <time>2023-11-05T13:14:22Z</time>
      </trkpt>
      <trkpt lat="43.48325" lon="6.62445">
        <ele>42.2</ele>
        <time>2023-11-05T13:14:23Z</time>
      </trkpt>
      <trkpt lat="43.48325" lon="6.62445">
        <ele>42.2</ele>
        <time>2023-11-05T13:14:24Z</time>
      </trkpt>
      <trkpt lat="43.48325" lon="6.62445">
        <ele>42.2</ele>
        <time>2023-11-05T13:14:25Z</time>
      </trkpt>
      <trkpt lat="43.48325" lon="6.62445">
        <ele>42.1</ele>
        <time>2023-11-05T13:14:26Z</time>
      </trkpt>
      <trkpt lat="43.48325" lon="6.62445">
        <ele>42.1</ele>
        <time>2023-11-05T13:14:27Z</time>
      </trkpt>
      <trkpt lat="43.48325" lon="6.62445">
        <ele>42</ele>
        <time>2023-11-05T13:14:28Z</time>
      </trkpt>
      <trkpt lat="43.48325" lon="6.62445">
        <ele>42</ele>
        <time>2023-11-05T13:14:29Z</time>
      </trkpt>
      <trkpt lat="43.48324" lon="6.62445">
        <ele>42</ele>
        <time>2023-11-05T13:14:30Z</time>
      </trkpt>
      <trkpt lat="43.48324" lon="6.62445">
        <ele>42</ele>
        <time>2023-11-05T13:14:31Z</time>
      </trkpt>
      <trkpt lat="43.48324" lon="6.62445">
        <ele>42</ele>
        <time>2023-11-05T13:14:32Z</time>
      </trkpt>
      <trkpt lat="43.48324" lon="6.62445">
        <ele>42</ele>
        <time>2023-11-05T13:14:33Z</time>
      </trkpt>
      <trkpt lat="43.48324" lon="6.62445">
        <ele>42</ele>
        <time>2023-11-05T13:14:34Z</time>
      </trkpt>
      <trkpt lat="43.48324" lon="6.62445">
        <ele>42.1</ele>
        <time>2023-11-05T13:14:35Z</time>
      </trkpt>
      <trkpt lat="43.48324" lon="6.62445">
        <ele>42.2</ele>
        <time>2023-11-05T13:14:36Z</time>
      </trkpt>
      <trkpt lat="43.48324" lon="6.62445">
        <ele>42.2</ele>
        <time>2023-11-05T13:14:37Z</time>
      </trkpt>
      <trkpt lat="43.48324" lon="6.62445">
        <ele>42.1</ele>
        <time>2023-11-05T13:14:38Z</time>
      </trkpt>
      <trkpt lat="43.48324" lon="6.62445">
        <ele>42.2</ele>
        <time>2023-11-05T13:14:39Z</time>
      </trkpt>
      <trkpt lat="43.48324" lon="6.62445">
        <ele>42.3</ele>
        <time>2023-11-05T13:14:40Z</time>
      </trkpt>
      <trkpt lat="43.48324" lon="6.62445">
        <ele>42.2</ele>
        <time>2023-11-05T13:14:41Z</time>
      </trkpt>
      <trkpt lat="43.48323" lon="6.62445">
        <ele>42.1</ele>
        <time>2023-11-05T13:14:42Z</time>
      </trkpt>
      <trkpt lat="43.48323" lon="6.62445">
        <ele>42.1</ele>
        <time>2023-11-05T13:14:43Z</time>
      </trkpt>
      <trkpt lat="43.48323" lon="6.62445">
        <ele>42.1</ele>
        <time>2023-11-05T13:14:44Z</time>
      </trkpt>
      <trkpt lat="43.48324" lon="6.62445">
        <ele>42.1</ele>
        <time>2023-11-05T13:14:45Z</time>
      </trkpt>
      <trkpt lat="43.48323" lon="6.62445">
        <ele>42</ele>
        <time>2023-11-05T13:14:46Z</time>
      </trkpt>
      <trkpt lat="43.48323" lon="6.62445">
        <ele>42</ele>
        <time>2023-11-05T13:14:47Z</time>
      </trkpt>
      <trkpt lat="43.48323" lon="6.62445">
        <ele>42</ele>
        <time>2023-11-05T13:14:48Z</time>
      </trkpt>
      <trkpt lat="43.48323" lon="6.62445">
        <ele>42</ele>
        <time>2023-11-05T13:14:49Z</time>
      </trkpt>
      <trkpt lat="43.48324" lon="6.62445">
        <ele>42.2</ele>
        <time>2023-11-05T13:14:50Z</time>
      </trkpt>
      <trkpt lat="43.48324" lon="6.62445">
        <ele>42.3</ele>
        <time>2023-11-05T13:14:51Z</time>
      </trkpt>
      <trkpt lat="43.48324" lon="6.62445">
        <ele>42.3</ele>
        <time>2023-11-05T13:14:52Z</time>
      </trkpt>
      <trkpt lat="43.48323" lon="6.62445">
        <ele>42.1</ele>
        <time>2023-11-05T13:14:53Z</time>
      </trkpt>
      <trkpt lat="43.48323" lon="6.62445">
        <ele>42</ele>
        <time>2023-11-05T13:14:54Z</time>
      </trkpt>
      <trkpt lat="43.48323" lon="6.62445">
        <ele>41.9</ele>
        <time>2023-11-05T13:14:55Z</time>
      </trkpt>
      <trkpt lat="43.48323" lon="6.62445">
        <ele>41.9</ele>
        <time>2023-11-05T13:14:56Z</time>
      </trkpt>
      <trkpt lat="43.48323" lon="6.62445">
        <ele>41.8</ele>
        <time>2023-11-05T13:14:57Z</time>
      </trkpt>
      <trkpt lat="43.48323" lon="6.62445">
        <ele>41.8</ele>
        <time>2023-11-05T13:14:58Z</time>
      </trkpt>
      <trkpt lat="43.48323" lon="6.62445">
        <ele>41.9</ele>
        <time>2023-11-05T13:14:59Z</time>
      </trkpt>
      <trkpt lat="43.48323" lon="6.62445">
        <ele>41.9</ele>
        <time>2023-11-05T13:15:00Z</time>
      </trkpt>
      <trkpt lat="43.48323" lon="6.62445">
        <ele>41.9</ele>
        <time>2023-11-05T13:15:01Z</time>
      </trkpt>
      <trkpt lat="43.48323" lon="6.62445">
        <ele>41.9</ele>
        <time>2023-11-05T13:15:02Z</time>
      </trkpt>
      <trkpt lat="43.48323" lon="6.62445">
        <ele>41.9</ele>
        <time>2023-11-05T13:15:03Z</time>
      </trkpt>
      <trkpt lat="43.48323" lon="6.62445">
        <ele>41.9</ele>
        <time>2023-11-05T13:15:04Z</time>
      </trkpt>
      <trkpt lat="43.48323" lon="6.62445">
        <ele>41.9</ele>
        <time>2023-11-05T13:15:05Z</time>
      </trkpt>
      <trkpt lat="43.48323" lon="6.62445">
        <ele>41.9</ele>
        <time>2023-11-05T13:15:06Z</time>
      </trkpt>
      <trkpt lat="43.48323" lon="6.62445">
        <ele>41.9</ele>
        <time>2023-11-05T13:15:07Z</time>
      </trkpt>
      <trkpt lat="43.48323" lon="6.62444">
        <ele>41.8</ele>
        <time>2023-11-05T13:15:08Z</time>
      </trkpt>
      <trkpt lat="43.48323" lon="6.62444">
        <ele>41.8</ele>
        <time>2023-11-05T13:15:09Z</time>
      </trkpt>
      <trkpt lat="43.48323" lon="6.62444">
        <ele>41.8</ele>
        <time>2023-11-05T13:15:10Z</time>
      </trkpt>
      <trkpt lat="43.48323" lon="6.62444">
        <ele>41.8</ele>
        <time>2023-11-05T13:15:11Z</time>
      </trkpt>
      <trkpt lat="43.48323" lon="6.62444">
        <ele>41.8</ele>
        <time>2023-11-05T13:15:12Z</time>
      </trkpt>
      <trkpt lat="43.48323" lon="6.62445">
        <ele>41.7</ele>
        <time>2023-11-05T13:15:13Z</time>
      </trkpt>
      <trkpt lat="43.48323" lon="6.62445">
        <ele>41.7</ele>
        <time>2023-11-05T13:15:14Z</time>
      </trkpt>
      <trkpt lat="43.48323" lon="6.62445">
        <ele>41.7</ele>
        <time>2023-11-05T13:15:15Z</time>
      </trkpt>
      <trkpt lat="43.48323" lon="6.62445">
        <ele>41.7</ele>
        <time>2023-11-05T13:15:16Z</time>
      </trkpt>
      <trkpt lat="43.48323" lon="6.62445">
        <ele>41.6</ele>
        <time>2023-11-05T13:15:17Z</time>
      </trkpt>
      <trkpt lat="43.48323" lon="6.62445">
        <ele>41.7</ele>
        <time>2023-11-05T13:15:18Z</time>
      </trkpt>
      <trkpt lat="43.48323" lon="6.62445">
        <ele>41.8</ele>
        <time>2023-11-05T13:15:19Z</time>
      </trkpt>
      <trkpt lat="43.48323" lon="6.62445">
        <ele>41.8</ele>
        <time>2023-11-05T13:15:20Z</time>
      </trkpt>
      <trkpt lat="43.48323" lon="6.62445">
        <ele>41.7</ele>
        <time>2023-11-05T13:15:21Z</time>
      </trkpt>
      <trkpt lat="43.48323" lon="6.62445">
        <ele>41.7</ele>
        <time>2023-11-05T13:15:22Z</time>
      </trkpt>
      <trkpt lat="43.48323" lon="6.62445">
        <ele>41.7</ele>
        <time>2023-11-05T13:15:23Z</time>
      </trkpt>
      <trkpt lat="43.48323" lon="6.62445">
        <ele>41.7</ele>
        <time>2023-11-05T13:15:24Z</time>
      </trkpt>
      <trkpt lat="43.48323" lon="6.62445">
        <ele>41.8</ele>
        <time>2023-11-05T13:15:25Z</time>
      </trkpt>
      <trkpt lat="43.48323" lon="6.62445">
        <ele>41.8</ele>
        <time>2023-11-05T13:15:26Z</time>
      </trkpt>
      <trkpt lat="43.48323" lon="6.62445">
        <ele>41.7</ele>
        <time>2023-11-05T13:15:27Z</time>
      </trkpt>
      <trkpt lat="43.48323" lon="6.62445">
        <ele>41.7</ele>
        <time>2023-11-05T13:15:28Z</time>
      </trkpt>
      <trkpt lat="43.48323" lon="6.62445">
        <ele>41.8</ele>
        <time>2023-11-05T13:15:29Z</time>
      </trkpt>
      <trkpt lat="43.48323" lon="6.62445">
        <ele>41.9</ele>
        <time>2023-11-05T13:15:30Z</time>
      </trkpt>
      <trkpt lat="43.48323" lon="6.62445">
        <ele>42</ele>
        <time>2023-11-05T13:15:31Z</time>
      </trkpt>
      <trkpt lat="43.48323" lon="6.62445">
        <ele>42</ele>
        <time>2023-11-05T13:15:32Z</time>
      </trkpt>
      <trkpt lat="43.48324" lon="6.62445">
        <ele>42</ele>
        <time>2023-11-05T13:15:33Z</time>
      </trkpt>
      <trkpt lat="43.48324" lon="6.62444">
        <ele>42</ele>
        <time>2023-11-05T13:15:34Z</time>
      </trkpt>
      <trkpt lat="43.48324" lon="6.62444">
        <ele>41.9</ele>
        <time>2023-11-05T13:15:35Z</time>
      </trkpt>
      <trkpt lat="43.48323" lon="6.62445">
        <ele>41.8</ele>
        <time>2023-11-05T13:15:36Z</time>
      </trkpt>
      <trkpt lat="43.48323" lon="6.62445">
        <ele>41.8</ele>
        <time>2023-11-05T13:15:37Z</time>
      </trkpt>
      <trkpt lat="43.48323" lon="6.62445">
        <ele>41.8</ele>
        <time>2023-11-05T13:15:38Z</time>
      </trkpt>
      <trkpt lat="43.48323" lon="6.62445">
        <ele>41.8</ele>
        <time>2023-11-05T13:15:39Z</time>
      </trkpt>
      <trkpt lat="43.48323" lon="6.62445">
        <ele>41.8</ele>
        <time>2023-11-05T13:15:40Z</time>
      </trkpt>
      <trkpt lat="43.48323" lon="6.62445">
        <ele>41.8</ele>
        <time>2023-11-05T13:15:41Z</time>
      </trkpt>
      <trkpt lat="43.48324" lon="6.62445">
        <ele>41.8</ele>
        <time>2023-11-05T13:15:42Z</time>
      </trkpt>
      <trkpt lat="43.48324" lon="6.62445">
        <ele>41.8</ele>
        <time>2023-11-05T13:15:43Z</time>
      </trkpt>
      <trkpt lat="43.48324" lon="6.62444">
        <ele>41.8</ele>
        <time>2023-11-05T13:15:44Z</time>
      </trkpt>
      <trkpt lat="43.48324" lon="6.62444">
        <ele>41.8</ele>
        <time>2023-11-05T13:15:45Z</time>
      </trkpt>
      <trkpt lat="43.48324" lon="6.62444">
        <ele>41.8</ele>
        <time>2023-11-05T13:15:46Z</time>
      </trkpt>
      <trkpt lat="43.48324" lon="6.62444">
        <ele>41.7</ele>
        <time>2023-11-05T13:15:47Z</time>
      </trkpt>
      <trkpt lat="43.48324" lon="6.62444">
        <ele>41.7</ele>
        <time>2023-11-05T13:15:48Z</time>
      </trkpt>
      <trkpt lat="43.48324" lon="6.62444">
        <ele>41.6</ele>
        <time>2023-11-05T13:15:49Z</time>
      </trkpt>
      <trkpt lat="43.48324" lon="6.62444">
        <ele>41.6</ele>
        <time>2023-11-05T13:15:50Z</time>
      </trkpt>
      <trkpt lat="43.48324" lon="6.62444">
        <ele>41.6</ele>
        <time>2023-11-05T13:15:51Z</time>
      </trkpt>
      <trkpt lat="43.48324" lon="6.62444">
        <ele>41.6</ele>
        <time>2023-11-05T13:15:52Z</time>
      </trkpt>
      <trkpt lat="43.48324" lon="6.62444">
        <ele>41.6</ele>
        <time>2023-11-05T13:15:53Z</time>
      </trkpt>
      <trkpt lat="43.48324" lon="6.62444">
        <ele>41.5</ele>
        <time>2023-11-05T13:15:54Z</time>
      </trkpt>
      <trkpt lat="43.48324" lon="6.62444">
        <ele>41.5</ele>
        <time>2023-11-05T13:15:55Z</time>
      </trkpt>
      <trkpt lat="43.48324" lon="6.62444">
        <ele>41.4</ele>
        <time>2023-11-05T13:15:56Z</time>
      </trkpt>
      <trkpt lat="43.48323" lon="6.62444">
        <ele>41.4</ele>
        <time>2023-11-05T13:15:57Z</time>
      </trkpt>
      <trkpt lat="43.48323" lon="6.62444">
        <ele>41.3</ele>
        <time>2023-11-05T13:15:58Z</time>
      </trkpt>
      <trkpt lat="43.48323" lon="6.62444">
        <ele>41.3</ele>
        <time>2023-11-05T13:15:59Z</time>
      </trkpt>
      <trkpt lat="43.48323" lon="6.62444">
        <ele>41.2</ele>
        <time>2023-11-05T13:16:00Z</time>
      </trkpt>
      <trkpt lat="43.48323" lon="6.62444">
        <ele>41.2</ele>
        <time>2023-11-05T13:16:01Z</time>
      </trkpt>
      <trkpt lat="43.48323" lon="6.62444">
        <ele>41.2</ele>
        <time>2023-11-05T13:16:02Z</time>
      </trkpt>
      <trkpt lat="43.48323" lon="6.62444">
        <ele>41.2</ele>
        <time>2023-11-05T13:16:03Z</time>
      </trkpt>
      <trkpt lat="43.48323" lon="6.62444">
        <ele>41.2</ele>
        <time>2023-11-05T13:16:04Z</time>
      </trkpt>
      <trkpt lat="43.48324" lon="6.62444">
        <ele>41.2</ele>
        <time>2023-11-05T13:16:05Z</time>
      </trkpt>
      <trkpt lat="43.48324" lon="6.62444">
        <ele>41.2</ele>
        <time>2023-11-05T13:16:06Z</time>
      </trkpt>
      <trkpt lat="43.48324" lon="6.62444">
        <ele>41.3</ele>
        <time>2023-11-05T13:16:07Z</time>
      </trkpt>
      <trkpt lat="43.48324" lon="6.62444">
        <ele>41.3</ele>
        <time>2023-11-05T13:16:08Z</time>
      </trkpt>
      <trkpt lat="43.48324" lon="6.62445">
        <ele>41.4</ele>
        <time>2023-11-05T13:16:09Z</time>
      </trkpt>
      <trkpt lat="43.48324" lon="6.62445">
        <ele>41.4</ele>
        <time>2023-11-05T13:16:10Z</time>
      </trkpt>
      <trkpt lat="43.48324" lon="6.62445">
        <ele>41.5</ele>
        <time>2023-11-05T13:16:11Z</time>
      </trkpt>
      <trkpt lat="43.48324" lon="6.62445">
        <ele>41.5</ele>
        <time>2023-11-05T13:16:12Z</time>
      </trkpt>
      <trkpt lat="43.48325" lon="6.62445">
        <ele>41.5</ele>
        <time>2023-11-05T13:16:13Z</time>
      </trkpt>
      <trkpt lat="43.48325" lon="6.62445">
        <ele>41.5</ele>
        <time>2023-11-05T13:16:14Z</time>
      </trkpt>
      <trkpt lat="43.48325" lon="6.62445">
        <ele>41.4</ele>
        <time>2023-11-05T13:16:15Z</time>
      </trkpt>
      <trkpt lat="43.48325" lon="6.62445">
        <ele>41.3</ele>
        <time>2023-11-05T13:16:16Z</time>
      </trkpt>
      <trkpt lat="43.48325" lon="6.62445">
        <ele>41.3</ele>
        <time>2023-11-05T13:16:17Z</time>
      </trkpt>
      <trkpt lat="43.48325" lon="6.62446">
        <ele>41.4</ele>
        <time>2023-11-05T13:16:18Z</time>
      </trkpt>
      <trkpt lat="43.48325" lon="6.62446">
        <ele>41.4</ele>
        <time>2023-11-05T13:16:19Z</time>
      </trkpt>
      <trkpt lat="43.48325" lon="6.62446">
        <ele>41.4</ele>
        <time>2023-11-05T13:16:20Z</time>
      </trkpt>
      <trkpt lat="43.48325" lon="6.62447">
        <ele>41.4</ele>
        <time>2023-11-05T13:16:21Z</time>
      </trkpt>
      <trkpt lat="43.48325" lon="6.62448">
        <ele>41.5</ele>
        <time>2023-11-05T13:16:22Z</time>
      </trkpt>
      <trkpt lat="43.48326" lon="6.62449">
        <ele>41.5</ele>
        <time>2023-11-05T13:16:23Z</time>
      </trkpt>
      <trkpt lat="43.48327" lon="6.6245">
        <ele>41.6</ele>
        <time>2023-11-05T13:16:24Z</time>
      </trkpt>
      <trkpt lat="43.48327" lon="6.62451">
        <ele>41.6</ele>
        <time>2023-11-05T13:16:25Z</time>
      </trkpt>
      <trkpt lat="43.48328" lon="6.62452">
        <ele>41.7</ele>
        <time>2023-11-05T13:16:26Z</time>
      </trkpt>
      <trkpt lat="43.48328" lon="6.62453">
        <ele>41.7</ele>
        <time>2023-11-05T13:16:27Z</time>
      </trkpt>
      <trkpt lat="43.48329" lon="6.62454">
        <ele>41.8</ele>
        <time>2023-11-05T13:16:28Z</time>
      </trkpt>
      <trkpt lat="43.48329" lon="6.62455">
        <ele>41.9</ele>
        <time>2023-11-05T13:16:29Z</time>
      </trkpt>
      <trkpt lat="43.4833" lon="6.62456">
        <ele>42</ele>
        <time>2023-11-05T13:16:30Z</time>
      </trkpt>
      <trkpt lat="43.48331" lon="6.62457">
        <ele>42.1</ele>
        <time>2023-11-05T13:16:31Z</time>
      </trkpt>
      <trkpt lat="43.48332" lon="6.62458">
        <ele>42.1</ele>
        <time>2023-11-05T13:16:32Z</time>
      </trkpt>
      <trkpt lat="43.48333" lon="6.62459">
        <ele>42.1</ele>
        <time>2023-11-05T13:16:33Z</time>
      </trkpt>
      <trkpt lat="43.48333" lon="6.6246">
        <ele>42.1</ele>
        <time>2023-11-05T13:16:34Z</time>
      </trkpt>
      <trkpt lat="43.48334" lon="6.62461">
        <ele>42.2</ele>
        <time>2023-11-05T13:16:35Z</time>
      </trkpt>
      <trkpt lat="43.48335" lon="6.62461">
        <ele>42.2</ele>
        <time>2023-11-05T13:16:36Z</time>
      </trkpt>
      <trkpt lat="43.48336" lon="6.62462">
        <ele>42.3</ele>
        <time>2023-11-05T13:16:37Z</time>
      </trkpt>
      <trkpt lat="43.48337" lon="6.62462">
        <ele>42.4</ele>
        <time>2023-11-05T13:16:38Z</time>
      </trkpt>
      <trkpt lat="43.48338" lon="6.62463">
        <ele>42.4</ele>
        <time>2023-11-05T13:16:39Z</time>
      </trkpt>
      <trkpt lat="43.48339" lon="6.62463">
        <ele>42.5</ele>
        <time>2023-11-05T13:16:40Z</time>
      </trkpt>
      <trkpt lat="43.4834" lon="6.62463">
        <ele>42.5</ele>
        <time>2023-11-05T13:16:41Z</time>
      </trkpt>
      <trkpt lat="43.48341" lon="6.62463">
        <ele>42.6</ele>
        <time>2023-11-05T13:16:42Z</time>
      </trkpt>
      <trkpt lat="43.48342" lon="6.62463">
        <ele>42.7</ele>
        <time>2023-11-05T13:16:43Z</time>
      </trkpt>
      <trkpt lat="43.48342" lon="6.62462">
        <ele>42.7</ele>
        <time>2023-11-05T13:16:44Z</time>
      </trkpt>
      <trkpt lat="43.48343" lon="6.62462">
        <ele>42.8</ele>
        <time>2023-11-05T13:16:45Z</time>
      </trkpt>
      <trkpt lat="43.48344" lon="6.62462">
        <ele>42.9</ele>
        <time>2023-11-05T13:16:46Z</time>
      </trkpt>
      <trkpt lat="43.48344" lon="6.62461">
        <ele>42.9</ele>
        <time>2023-11-05T13:16:47Z</time>
      </trkpt>
      <trkpt lat="43.48345" lon="6.62461">
        <ele>42.9</ele>
        <time>2023-11-05T13:16:48Z</time>
      </trkpt>
      <trkpt lat="43.48345" lon="6.6246">
        <ele>42.8</ele>
        <time>2023-11-05T13:16:49Z</time>
      </trkpt>
      <trkpt lat="43.48345" lon="6.6246">
        <ele>42.8</ele>
        <time>2023-11-05T13:16:50Z</time>
      </trkpt>
      <trkpt lat="43.48345" lon="6.6246">
        <ele>42.7</ele>
        <time>2023-11-05T13:16:51Z</time>
      </trkpt>
      <trkpt lat="43.48345" lon="6.6246">
        <ele>42.9</ele>
        <time>2023-11-05T13:16:52Z</time>
      </trkpt>
      <trkpt lat="43.48346" lon="6.62459">
        <ele>43</ele>
        <time>2023-11-05T13:16:53Z</time>
      </trkpt>
      <trkpt lat="43.48346" lon="6.62459">
        <ele>43.1</ele>
        <time>2023-11-05T13:16:54Z</time>
      </trkpt>
      <trkpt lat="43.48346" lon="6.62459">
        <ele>43.1</ele>
        <time>2023-11-05T13:16:55Z</time>
      </trkpt>
      <trkpt lat="43.48346" lon="6.62459">
        <ele>43.2</ele>
        <time>2023-11-05T13:16:56Z</time>
      </trkpt>
      <trkpt lat="43.48346" lon="6.62459">
        <ele>43.2</ele>
        <time>2023-11-05T13:16:57Z</time>
      </trkpt>
      <trkpt lat="43.48346" lon="6.62459">
        <ele>43.2</ele>
        <time>2023-11-05T13:16:58Z</time>
      </trkpt>
      <trkpt lat="43.48346" lon="6.62458">
        <ele>43.3</ele>
        <time>2023-11-05T13:16:59Z</time>
      </trkpt>
      <trkpt lat="43.48346" lon="6.62457">
        <ele>43.4</ele>
        <time>2023-11-05T13:17:00Z</time>
      </trkpt>
      <trkpt lat="43.48346" lon="6.62456">
        <ele>43.5</ele>
        <time>2023-11-05T13:17:01Z</time>
      </trkpt>
      <trkpt lat="43.48346" lon="6.62455">
        <ele>43.6</ele>
        <time>2023-11-05T13:17:02Z</time>
      </trkpt>
      <trkpt lat="43.48346" lon="6.62454">
        <ele>43.8</ele>
        <time>2023-11-05T13:17:03Z</time>
      </trkpt>
      <trkpt lat="43.48346" lon="6.62452">
        <ele>43.9</ele>
        <time>2023-11-05T13:17:04Z</time>
      </trkpt>
      <trkpt lat="43.48346" lon="6.62451">
        <ele>44.1</ele>
        <time>2023-11-05T13:17:05Z</time>
      </trkpt>
      <trkpt lat="43.48346" lon="6.6245">
        <ele>44.2</ele>
        <time>2023-11-05T13:17:06Z</time>
      </trkpt>
      <trkpt lat="43.48347" lon="6.62449">
        <ele>44.3</ele>
        <time>2023-11-05T13:17:07Z</time>
      </trkpt>
      <trkpt lat="43.48346" lon="6.62447">
        <ele>44.5</ele>
        <time>2023-11-05T13:17:08Z</time>
      </trkpt>
      <trkpt lat="43.48346" lon="6.62446">
        <ele>44.6</ele>
        <time>2023-11-05T13:17:09Z</time>
      </trkpt>
      <trkpt lat="43.48346" lon="6.62445">
        <ele>44.7</ele>
        <time>2023-11-05T13:17:10Z</time>
      </trkpt>
      <trkpt lat="43.48346" lon="6.62444">
        <ele>44.8</ele>
        <time>2023-11-05T13:17:11Z</time>
      </trkpt>
      <trkpt lat="43.48345" lon="6.62442">
        <ele>44.8</ele>
        <time>2023-11-05T13:17:12Z</time>
      </trkpt>
      <trkpt lat="43.48345" lon="6.62441">
        <ele>44.9</ele>
        <time>2023-11-05T13:17:13Z</time>
      </trkpt>
      <trkpt lat="43.48344" lon="6.62439">
        <ele>45</ele>
        <time>2023-11-05T13:17:14Z</time>
      </trkpt>
      <trkpt lat="43.48344" lon="6.62438">
        <ele>45.1</ele>
        <time>2023-11-05T13:17:15Z</time>
      </trkpt>
      <trkpt lat="43.48343" lon="6.62437">
        <ele>45.1</ele>
        <time>2023-11-05T13:17:16Z</time>
      </trkpt>
      <trkpt lat="43.48343" lon="6.62436">
        <ele>45.1</ele>
        <time>2023-11-05T13:17:17Z</time>
      </trkpt>
      <trkpt lat="43.48343" lon="6.62435">
        <ele>45.2</ele>
        <time>2023-11-05T13:17:18Z</time>
      </trkpt>
      <trkpt lat="43.48342" lon="6.62433">
        <ele>45.4</ele>
        <time>2023-11-05T13:17:19Z</time>
      </trkpt>
      <trkpt lat="43.48342" lon="6.62432">
        <ele>45.4</ele>
        <time>2023-11-05T13:17:20Z</time>
      </trkpt>
      <trkpt lat="43.48342" lon="6.6243">
        <ele>45.7</ele>
        <time>2023-11-05T13:17:21Z</time>
      </trkpt>
      <trkpt lat="43.48342" lon="6.62429">
        <ele>45.7</ele>
        <time>2023-11-05T13:17:22Z</time>
      </trkpt>
      <trkpt lat="43.48342" lon="6.62428">
        <ele>45.9</ele>
        <time>2023-11-05T13:17:23Z</time>
      </trkpt>
      <trkpt lat="43.48342" lon="6.62426">
        <ele>45.9</ele>
        <time>2023-11-05T13:17:24Z</time>
      </trkpt>
      <trkpt lat="43.48343" lon="6.62425">
        <ele>46</ele>
        <time>2023-11-05T13:17:25Z</time>
      </trkpt>
      <trkpt lat="43.48343" lon="6.62423">
        <ele>46.1</ele>
        <time>2023-11-05T13:17:26Z</time>
      </trkpt>
      <trkpt lat="43.48343" lon="6.62422">
        <ele>46.1</ele>
        <time>2023-11-05T13:17:27Z</time>
      </trkpt>
      <trkpt lat="43.48343" lon="6.6242">
        <ele>46.3</ele>
        <time>2023-11-05T13:17:28Z</time>
      </trkpt>
      <trkpt lat="43.48343" lon="6.62419">
        <ele>46.5</ele>
        <time>2023-11-05T13:17:29Z</time>
      </trkpt>
      <trkpt lat="43.48343" lon="6.62419">
        <ele>46.6</ele>
        <time>2023-11-05T13:17:30Z</time>
      </trkpt>
      <trkpt lat="43.48343" lon="6.62417">
        <ele>46.7</ele>
        <time>2023-11-05T13:17:31Z</time>
      </trkpt>
      <trkpt lat="43.48344" lon="6.62416">
        <ele>46.8</ele>
        <time>2023-11-05T13:17:32Z</time>
      </trkpt>
      <trkpt lat="43.48344" lon="6.62415">
        <ele>46.9</ele>
        <time>2023-11-05T13:17:33Z</time>
      </trkpt>
      <trkpt lat="43.48345" lon="6.62414">
        <ele>46.9</ele>
        <time>2023-11-05T13:17:34Z</time>
      </trkpt>
      <trkpt lat="43.48345" lon="6.62412">
        <ele>47.1</ele>
        <time>2023-11-05T13:17:35Z</time>
      </trkpt>
      <trkpt lat="43.48345" lon="6.62411">
        <ele>47.2</ele>
        <time>2023-11-05T13:17:36Z</time>
      </trkpt>
      <trkpt lat="43.48345" lon="6.6241">
        <ele>47.4</ele>
        <time>2023-11-05T13:17:37Z</time>
      </trkpt>
      <trkpt lat="43.48346" lon="6.62409">
        <ele>47.5</ele>
        <time>2023-11-05T13:17:38Z</time>
      </trkpt>
      <trkpt lat="43.48347" lon="6.62408">
        <ele>47.6</ele>
        <time>2023-11-05T13:17:39Z</time>
      </trkpt>
      <trkpt lat="43.48347" lon="6.62407">
        <ele>47.7</ele>
        <time>2023-11-05T13:17:40Z</time>
      </trkpt>
      <trkpt lat="43.48348" lon="6.62405">
        <ele>47.9</ele>
        <time>2023-11-05T13:17:41Z</time>
      </trkpt>
      <trkpt lat="43.48348" lon="6.62404">
        <ele>48</ele>
        <time>2023-11-05T13:17:42Z</time>
      </trkpt>
      <trkpt lat="43.48348" lon="6.62403">
        <ele>48.2</ele>
        <time>2023-11-05T13:17:43Z</time>
      </trkpt>
      <trkpt lat="43.48349" lon="6.62401">
        <ele>48.2</ele>
        <time>2023-11-05T13:17:44Z</time>
      </trkpt>
      <trkpt lat="43.48349" lon="6.624">
        <ele>48.2</ele>
        <time>2023-11-05T13:17:45Z</time>
      </trkpt>
      <trkpt lat="43.48349" lon="6.62398">
        <ele>48.2</ele>
        <time>2023-11-05T13:17:46Z</time>
      </trkpt>
      <trkpt lat="43.4835" lon="6.62397">
        <ele>48.4</ele>
        <time>2023-11-05T13:17:47Z</time>
      </trkpt>
      <trkpt lat="43.48349" lon="6.62395">
        <ele>48.4</ele>
        <time>2023-11-05T13:17:48Z</time>
      </trkpt>
      <trkpt lat="43.48349" lon="6.62394">
        <ele>48.5</ele>
        <time>2023-11-05T13:17:49Z</time>
      </trkpt>
      <trkpt lat="43.4835" lon="6.62392">
        <ele>48.7</ele>
        <time>2023-11-05T13:17:50Z</time>
      </trkpt>
      <trkpt lat="43.48349" lon="6.62391">
        <ele>48.9</ele>
        <time>2023-11-05T13:17:51Z</time>
      </trkpt>
      <trkpt lat="43.4835" lon="6.62389">
        <ele>49.1</ele>
        <time>2023-11-05T13:17:52Z</time>
      </trkpt>
      <trkpt lat="43.4835" lon="6.62388">
        <ele>49.3</ele>
        <time>2023-11-05T13:17:53Z</time>
      </trkpt>
      <trkpt lat="43.4835" lon="6.62386">
        <ele>49.4</ele>
        <time>2023-11-05T13:17:54Z</time>
      </trkpt>
      <trkpt lat="43.4835" lon="6.62384">
        <ele>49.4</ele>
        <time>2023-11-05T13:17:55Z</time>
      </trkpt>
      <trkpt lat="43.4835" lon="6.62383">
        <ele>49.6</ele>
        <time>2023-11-05T13:17:56Z</time>
      </trkpt>
      <trkpt lat="43.48351" lon="6.62381">
        <ele>49.7</ele>
        <time>2023-11-05T13:17:57Z</time>
      </trkpt>
      <trkpt lat="43.48351" lon="6.6238">
        <ele>49.9</ele>
        <time>2023-11-05T13:17:58Z</time>
      </trkpt>
      <trkpt lat="43.4835" lon="6.62378">
        <ele>50</ele>
        <time>2023-11-05T13:17:59Z</time>
      </trkpt>
      <trkpt lat="43.4835" lon="6.62377">
        <ele>50.1</ele>
        <time>2023-11-05T13:18:00Z</time>
      </trkpt>
      <trkpt lat="43.4835" lon="6.62375">
        <ele>50.2</ele>
        <time>2023-11-05T13:18:01Z</time>
      </trkpt>
      <trkpt lat="43.4835" lon="6.62374">
        <ele>50.3</ele>
        <time>2023-11-05T13:18:02Z</time>
      </trkpt>
      <trkpt lat="43.4835" lon="6.62372">
        <ele>50.6</ele>
        <time>2023-11-05T13:18:03Z</time>
      </trkpt>
      <trkpt lat="43.4835" lon="6.62371">
        <ele>50.8</ele>
        <time>2023-11-05T13:18:04Z</time>
      </trkpt>
      <trkpt lat="43.4835" lon="6.62369">
        <ele>51</ele>
        <time>2023-11-05T13:18:05Z</time>
      </trkpt>
      <trkpt lat="43.48351" lon="6.62367">
        <ele>51.1</ele>
        <time>2023-11-05T13:18:06Z</time>
      </trkpt>
      <trkpt lat="43.48351" lon="6.62366">
        <ele>51.2</ele>
        <time>2023-11-05T13:18:07Z</time>
      </trkpt>
      <trkpt lat="43.48351" lon="6.62365">
        <ele>51.3</ele>
        <time>2023-11-05T13:18:08Z</time>
      </trkpt>
      <trkpt lat="43.48351" lon="6.62364">
        <ele>51.4</ele>
        <time>2023-11-05T13:18:09Z</time>
      </trkpt>
      <trkpt lat="43.48352" lon="6.62363">
        <ele>51.4</ele>
        <time>2023-11-05T13:18:10Z</time>
      </trkpt>
      <trkpt lat="43.48352" lon="6.62361">
        <ele>51.6</ele>
        <time>2023-11-05T13:18:11Z</time>
      </trkpt>
      <trkpt lat="43.48352" lon="6.6236">
        <ele>51.7</ele>
        <time>2023-11-05T13:18:12Z</time>
      </trkpt>
      <trkpt lat="43.48352" lon="6.62358">
        <ele>51.8</ele>
        <time>2023-11-05T13:18:13Z</time>
      </trkpt>
      <trkpt lat="43.48353" lon="6.62357">
        <ele>51.9</ele>
        <time>2023-11-05T13:18:14Z</time>
      </trkpt>
      <trkpt lat="43.48353" lon="6.62355">
        <ele>52</ele>
        <time>2023-11-05T13:18:15Z</time>
      </trkpt>
      <trkpt lat="43.48353" lon="6.62354">
        <ele>52.1</ele>
        <time>2023-11-05T13:18:16Z</time>
      </trkpt>
      <trkpt lat="43.48353" lon="6.62352">
        <ele>52.2</ele>
        <time>2023-11-05T13:18:17Z</time>
      </trkpt>
      <trkpt lat="43.48354" lon="6.6235">
        <ele>52.3</ele>
        <time>2023-11-05T13:18:18Z</time>
      </trkpt>
      <trkpt lat="43.48354" lon="6.62349">
        <ele>52.4</ele>
        <time>2023-11-05T13:18:19Z</time>
      </trkpt>
      <trkpt lat="43.48354" lon="6.62348">
        <ele>52.5</ele>
        <time>2023-11-05T13:18:20Z</time>
      </trkpt>
      <trkpt lat="43.48355" lon="6.62346">
        <ele>52.4</ele>
        <time>2023-11-05T13:18:21Z</time>
      </trkpt>
      <trkpt lat="43.48356" lon="6.62344">
        <ele>52.3</ele>
        <time>2023-11-05T13:18:22Z</time>
      </trkpt>
      <trkpt lat="43.48356" lon="6.62343">
        <ele>52.2</ele>
        <time>2023-11-05T13:18:23Z</time>
      </trkpt>
      <trkpt lat="43.48356" lon="6.62341">
        <ele>52.1</ele>
        <time>2023-11-05T13:18:24Z</time>
      </trkpt>
      <trkpt lat="43.48356" lon="6.6234">
        <ele>52.2</ele>
        <time>2023-11-05T13:18:25Z</time>
      </trkpt>
      <trkpt lat="43.48356" lon="6.62338">
        <ele>52.3</ele>
        <time>2023-11-05T13:18:26Z</time>
      </trkpt>
      <trkpt lat="43.48356" lon="6.62337">
        <ele>52.2</ele>
        <time>2023-11-05T13:18:27Z</time>
      </trkpt>
      <trkpt lat="43.48357" lon="6.62335">
        <ele>52.3</ele>
        <time>2023-11-05T13:18:28Z</time>
      </trkpt>
      <trkpt lat="43.48357" lon="6.62333">
        <ele>52.3</ele>
        <time>2023-11-05T13:18:29Z</time>
      </trkpt>
      <trkpt lat="43.48357" lon="6.62332">
        <ele>52.4</ele>
        <time>2023-11-05T13:18:30Z</time>
      </trkpt>
      <trkpt lat="43.48358" lon="6.62331">
        <ele>52.7</ele>
        <time>2023-11-05T13:18:31Z</time>
      </trkpt>
      <trkpt lat="43.48358" lon="6.62329">
        <ele>52.9</ele>
        <time>2023-11-05T13:18:32Z</time>
      </trkpt>
      <trkpt lat="43.48358" lon="6.62328">
        <ele>53.1</ele>
        <time>2023-11-05T13:18:33Z</time>
      </trkpt>
      <trkpt lat="43.48358" lon="6.62326">
        <ele>53.4</ele>
        <time>2023-11-05T13:18:34Z</time>
      </trkpt>
      <trkpt lat="43.48358" lon="6.62325">
        <ele>53.6</ele>
        <time>2023-11-05T13:18:35Z</time>
      </trkpt>
      <trkpt lat="43.48358" lon="6.62323">
        <ele>53.6</ele>
        <time>2023-11-05T13:18:36Z</time>
      </trkpt>
      <trkpt lat="43.48358" lon="6.62322">
        <ele>53.8</ele>
        <time>2023-11-05T13:18:37Z</time>
      </trkpt>
      <trkpt lat="43.48358" lon="6.62321">
        <ele>53.9</ele>
        <time>2023-11-05T13:18:38Z</time>
      </trkpt>
      <trkpt lat="43.48358" lon="6.62319">
        <ele>53.9</ele>
        <time>2023-11-05T13:18:39Z</time>
      </trkpt>
      <trkpt lat="43.48359" lon="6.62318">
        <ele>53.8</ele>
        <time>2023-11-05T13:18:40Z</time>
      </trkpt>
      <trkpt lat="43.48358" lon="6.62316">
        <ele>53.9</ele>
        <time>2023-11-05T13:18:41Z</time>
      </trkpt>
      <trkpt lat="43.48358" lon="6.62315">
        <ele>54</ele>
        <time>2023-11-05T13:18:42Z</time>
      </trkpt>
      <trkpt lat="43.48359" lon="6.62313">
        <ele>54.1</ele>
        <time>2023-11-05T13:18:43Z</time>
      </trkpt>
      <trkpt lat="43.48358" lon="6.62311">
        <ele>54.2</ele>
        <time>2023-11-05T13:18:44Z</time>
      </trkpt>
      <trkpt lat="43.48358" lon="6.6231">
        <ele>54.2</ele>
        <time>2023-11-05T13:18:45Z</time>
      </trkpt>
      <trkpt lat="43.48358" lon="6.62309">
        <ele>54.3</ele>
        <time>2023-11-05T13:18:46Z</time>
      </trkpt>
      <trkpt lat="43.48358" lon="6.62307">
        <ele>54.4</ele>
        <time>2023-11-05T13:18:47Z</time>
      </trkpt>
      <trkpt lat="43.48358" lon="6.62305">
        <ele>54.5</ele>
        <time>2023-11-05T13:18:48Z</time>
      </trkpt>
      <trkpt lat="43.48358" lon="6.62304">
        <ele>54.7</ele>
        <time>2023-11-05T13:18:49Z</time>
      </trkpt>
      <trkpt lat="43.48358" lon="6.62303">
        <ele>54.8</ele>
        <time>2023-11-05T13:18:50Z</time>
      </trkpt>
      <trkpt lat="43.48357" lon="6.62301">
        <ele>55</ele>
        <time>2023-11-05T13:18:51Z</time>
      </trkpt>
      <trkpt lat="43.48357" lon="6.623">
        <ele>55.1</ele>
        <time>2023-11-05T13:18:52Z</time>
      </trkpt>
      <trkpt lat="43.48357" lon="6.62298">
        <ele>55.2</ele>
        <time>2023-11-05T13:18:53Z</time>
      </trkpt>
      <trkpt lat="43.48357" lon="6.62296">
        <ele>55.4</ele>
        <time>2023-11-05T13:18:54Z</time>
      </trkpt>
      <trkpt lat="43.48357" lon="6.62295">
        <ele>55.4</ele>
        <time>2023-11-05T13:18:55Z</time>
      </trkpt>
      <trkpt lat="43.48357" lon="6.62294">
        <ele>55.4</ele>
        <time>2023-11-05T13:18:56Z</time>
      </trkpt>
      <trkpt lat="43.48357" lon="6.62292">
        <ele>55.4</ele>
        <time>2023-11-05T13:18:57Z</time>
      </trkpt>
      <trkpt lat="43.48357" lon="6.62291">
        <ele>55.5</ele>
        <time>2023-11-05T13:18:58Z</time>
      </trkpt>
      <trkpt lat="43.48357" lon="6.62289">
        <ele>55.5</ele>
        <time>2023-11-05T13:18:59Z</time>
      </trkpt>
      <trkpt lat="43.48357" lon="6.62288">
        <ele>55.5</ele>
        <time>2023-11-05T13:19:00Z</time>
      </trkpt>
      <trkpt lat="43.48357" lon="6.62286">
        <ele>55.6</ele>
        <time>2023-11-05T13:19:01Z</time>
      </trkpt>
      <trkpt lat="43.48356" lon="6.62285">
        <ele>55.7</ele>
        <time>2023-11-05T13:19:02Z</time>
      </trkpt>
      <trkpt lat="43.48356" lon="6.62283">
        <ele>55.8</ele>
        <time>2023-11-05T13:19:03Z</time>
      </trkpt>
      <trkpt lat="43.48356" lon="6.62282">
        <ele>55.9</ele>
        <time>2023-11-05T13:19:04Z</time>
      </trkpt>
      <trkpt lat="43.48355" lon="6.62281">
        <ele>56.1</ele>
        <time>2023-11-05T13:19:05Z</time>
      </trkpt>
      <trkpt lat="43.48355" lon="6.62279">
        <ele>56.4</ele>
        <time>2023-11-05T13:19:06Z</time>
      </trkpt>
      <trkpt lat="43.48354" lon="6.62277">
        <ele>56.6</ele>
        <time>2023-11-05T13:19:07Z</time>
      </trkpt>
      <trkpt lat="43.48354" lon="6.62276">
        <ele>56.8</ele>
        <time>2023-11-05T13:19:08Z</time>
      </trkpt>
      <trkpt lat="43.48354" lon="6.62275">
        <ele>57</ele>
        <time>2023-11-05T13:19:09Z</time>
      </trkpt>
      <trkpt lat="43.48353" lon="6.62274">
        <ele>57.1</ele>
        <time>2023-11-05T13:19:10Z</time>
      </trkpt>
      <trkpt lat="43.48353" lon="6.62272">
        <ele>57.2</ele>
        <time>2023-11-05T13:19:11Z</time>
      </trkpt>
      <trkpt lat="43.48352" lon="6.62271">
        <ele>57.2</ele>
        <time>2023-11-05T13:19:12Z</time>
      </trkpt>
      <trkpt lat="43.48352" lon="6.62269">
        <ele>57.2</ele>
        <time>2023-11-05T13:19:13Z</time>
      </trkpt>
      <trkpt lat="43.48351" lon="6.62268">
        <ele>57.4</ele>
        <time>2023-11-05T13:19:14Z</time>
      </trkpt>
      <trkpt lat="43.48351" lon="6.62266">
        <ele>57.3</ele>
        <time>2023-11-05T13:19:15Z</time>
      </trkpt>
      <trkpt lat="43.48351" lon="6.62265">
        <ele>57.3</ele>
        <time>2023-11-05T13:19:16Z</time>
      </trkpt>
      <trkpt lat="43.4835" lon="6.62263">
        <ele>57.4</ele>
        <time>2023-11-05T13:19:17Z</time>
      </trkpt>
      <trkpt lat="43.4835" lon="6.62262">
        <ele>57.4</ele>
        <time>2023-11-05T13:19:18Z</time>
      </trkpt>
      <trkpt lat="43.48349" lon="6.6226">
        <ele>57.4</ele>
        <time>2023-11-05T13:19:19Z</time>
      </trkpt>
      <trkpt lat="43.48349" lon="6.62259">
        <ele>57.4</ele>
        <time>2023-11-05T13:19:20Z</time>
      </trkpt>
      <trkpt lat="43.48349" lon="6.62257">
        <ele>57.4</ele>
        <time>2023-11-05T13:19:21Z</time>
      </trkpt>
      <trkpt lat="43.48348" lon="6.62256">
        <ele>57.5</ele>
        <time>2023-11-05T13:19:22Z</time>
      </trkpt>
      <trkpt lat="43.48348" lon="6.62254">
        <ele>57.6</ele>
        <time>2023-11-05T13:19:23Z</time>
      </trkpt>
      <trkpt lat="43.48348" lon="6.62252">
        <ele>57.6</ele>
        <time>2023-11-05T13:19:24Z</time>
      </trkpt>
      <trkpt lat="43.48348" lon="6.62251">
        <ele>57.6</ele>
        <time>2023-11-05T13:19:25Z</time>
      </trkpt>
      <trkpt lat="43.48348" lon="6.6225">
        <ele>57.6</ele>
        <time>2023-11-05T13:19:26Z</time>
      </trkpt>
      <trkpt lat="43.48347" lon="6.62248">
        <ele>57.6</ele>
        <time>2023-11-05T13:19:27Z</time>
      </trkpt>
      <trkpt lat="43.48347" lon="6.62246">
        <ele>57.6</ele>
        <time>2023-11-05T13:19:28Z</time>
      </trkpt>
      <trkpt lat="43.48346" lon="6.62245">
        <ele>57.6</ele>
        <time>2023-11-05T13:19:29Z</time>
      </trkpt>
      <trkpt lat="43.48346" lon="6.62243">
        <ele>57.7</ele>
        <time>2023-11-05T13:19:30Z</time>
      </trkpt>
      <trkpt lat="43.48346" lon="6.62242">
        <ele>57.9</ele>
        <time>2023-11-05T13:19:31Z</time>
      </trkpt>
      <trkpt lat="43.48345" lon="6.6224">
        <ele>58</ele>
        <time>2023-11-05T13:19:32Z</time>
      </trkpt>
      <trkpt lat="43.48345" lon="6.62239">
        <ele>58.1</ele>
        <time>2023-11-05T13:19:33Z</time>
      </trkpt>
      <trkpt lat="43.48344" lon="6.62237">
        <ele>58.2</ele>
        <time>2023-11-05T13:19:34Z</time>
      </trkpt>
      <trkpt lat="43.48344" lon="6.62236">
        <ele>58.2</ele>
        <time>2023-11-05T13:19:35Z</time>
      </trkpt>
      <trkpt lat="43.48343" lon="6.62234">
        <ele>58.2</ele>
        <time>2023-11-05T13:19:36Z</time>
      </trkpt>
      <trkpt lat="43.48342" lon="6.62233">
        <ele>58.3</ele>
        <time>2023-11-05T13:19:37Z</time>
      </trkpt>
      <trkpt lat="43.48342" lon="6.62231">
        <ele>58.3</ele>
        <time>2023-11-05T13:19:38Z</time>
      </trkpt>
      <trkpt lat="43.48342" lon="6.6223">
        <ele>58.4</ele>
        <time>2023-11-05T13:19:39Z</time>
      </trkpt>
      <trkpt lat="43.48341" lon="6.62228">
        <ele>58.6</ele>
        <time>2023-11-05T13:19:40Z</time>
      </trkpt>
      <trkpt lat="43.48341" lon="6.62227">
        <ele>58.7</ele>
        <time>2023-11-05T13:19:41Z</time>
      </trkpt>
      <trkpt lat="43.4834" lon="6.62225">
        <ele>59</ele>
        <time>2023-11-05T13:19:42Z</time>
      </trkpt>
      <trkpt lat="43.4834" lon="6.62224">
        <ele>59.2</ele>
        <time>2023-11-05T13:19:43Z</time>
      </trkpt>
      <trkpt lat="43.4834" lon="6.62222">
        <ele>59.3</ele>
        <time>2023-11-05T13:19:44Z</time>
      </trkpt>
      <trkpt lat="43.48339" lon="6.6222">
        <ele>59.3</ele>
        <time>2023-11-05T13:19:45Z</time>
      </trkpt>
      <trkpt lat="43.48339" lon="6.62219">
        <ele>59.4</ele>
        <time>2023-11-05T13:19:46Z</time>
      </trkpt>
      <trkpt lat="43.48338" lon="6.62217">
        <ele>59.3</ele>
        <time>2023-11-05T13:19:47Z</time>
      </trkpt>
      <trkpt lat="43.48338" lon="6.62216">
        <ele>59.5</ele>
        <time>2023-11-05T13:19:48Z</time>
      </trkpt>
      <trkpt lat="43.48337" lon="6.62214">
        <ele>59.6</ele>
        <time>2023-11-05T13:19:49Z</time>
      </trkpt>
      <trkpt lat="43.48337" lon="6.62213">
        <ele>59.6</ele>
        <time>2023-11-05T13:19:50Z</time>
      </trkpt>
      <trkpt lat="43.48336" lon="6.62211">
        <ele>59.6</ele>
        <time>2023-11-05T13:19:51Z</time>
      </trkpt>
      <trkpt lat="43.48336" lon="6.6221">
        <ele>59.7</ele>
        <time>2023-11-05T13:19:52Z</time>
      </trkpt>
      <trkpt lat="43.48336" lon="6.62208">
        <ele>59.7</ele>
        <time>2023-11-05T13:19:53Z</time>
      </trkpt>
      <trkpt lat="43.48335" lon="6.62207">
        <ele>59.7</ele>
        <time>2023-11-05T13:19:54Z</time>
      </trkpt>
      <trkpt lat="43.48335" lon="6.62205">
        <ele>59.7</ele>
        <time>2023-11-05T13:19:55Z</time>
      </trkpt>
      <trkpt lat="43.48334" lon="6.62204">
        <ele>59.7</ele>
        <time>2023-11-05T13:19:56Z</time>
      </trkpt>
      <trkpt lat="43.48334" lon="6.62202">
        <ele>59.8</ele>
        <time>2023-11-05T13:19:57Z</time>
      </trkpt>
      <trkpt lat="43.48333" lon="6.62201">
        <ele>59.8</ele>
        <time>2023-11-05T13:19:58Z</time>
      </trkpt>
      <trkpt lat="43.48333" lon="6.62199">
        <ele>60</ele>
        <time>2023-11-05T13:19:59Z</time>
      </trkpt>
      <trkpt lat="43.48333" lon="6.62198">
        <ele>60.2</ele>
        <time>2023-11-05T13:20:00Z</time>
      </trkpt>
      <trkpt lat="43.48332" lon="6.62196">
        <ele>60.1</ele>
        <time>2023-11-05T13:20:01Z</time>
      </trkpt>
      <trkpt lat="43.48332" lon="6.62195">
        <ele>60.2</ele>
        <time>2023-11-05T13:20:02Z</time>
      </trkpt>
      <trkpt lat="43.48331" lon="6.62193">
        <ele>60.2</ele>
        <time>2023-11-05T13:20:03Z</time>
      </trkpt>
      <trkpt lat="43.48331" lon="6.62191">
        <ele>60.1</ele>
        <time>2023-11-05T13:20:04Z</time>
      </trkpt>
      <trkpt lat="43.4833" lon="6.6219">
        <ele>60.1</ele>
        <time>2023-11-05T13:20:05Z</time>
      </trkpt>
      <trkpt lat="43.4833" lon="6.62189">
        <ele>60</ele>
        <time>2023-11-05T13:20:06Z</time>
      </trkpt>
      <trkpt lat="43.4833" lon="6.62187">
        <ele>60.1</ele>
        <time>2023-11-05T13:20:07Z</time>
      </trkpt>
      <trkpt lat="43.4833" lon="6.62185">
        <ele>60.1</ele>
        <time>2023-11-05T13:20:08Z</time>
      </trkpt>
      <trkpt lat="43.48329" lon="6.62183">
        <ele>60.1</ele>
        <time>2023-11-05T13:20:09Z</time>
      </trkpt>
      <trkpt lat="43.48329" lon="6.62182">
        <ele>60.1</ele>
        <time>2023-11-05T13:20:10Z</time>
      </trkpt>
      <trkpt lat="43.48328" lon="6.6218">
        <ele>60.2</ele>
        <time>2023-11-05T13:20:11Z</time>
      </trkpt>
      <trkpt lat="43.48328" lon="6.62179">
        <ele>60.4</ele>
        <time>2023-11-05T13:20:12Z</time>
      </trkpt>
      <trkpt lat="43.48328" lon="6.62177">
        <ele>60.4</ele>
        <time>2023-11-05T13:20:13Z</time>
      </trkpt>
      <trkpt lat="43.48327" lon="6.62175">
        <ele>60.6</ele>
        <time>2023-11-05T13:20:14Z</time>
      </trkpt>
      <trkpt lat="43.48327" lon="6.62174">
        <ele>60.8</ele>
        <time>2023-11-05T13:20:15Z</time>
      </trkpt>
      <trkpt lat="43.48326" lon="6.62172">
        <ele>61</ele>
        <time>2023-11-05T13:20:16Z</time>
      </trkpt>
      <trkpt lat="43.48326" lon="6.62171">
        <ele>61.1</ele>
        <time>2023-11-05T13:20:17Z</time>
      </trkpt>
      <trkpt lat="43.48326" lon="6.6217">
        <ele>61.2</ele>
        <time>2023-11-05T13:20:18Z</time>
      </trkpt>
      <trkpt lat="43.48326" lon="6.62168">
        <ele>61.3</ele>
        <time>2023-11-05T13:20:19Z</time>
      </trkpt>
      <trkpt lat="43.48325" lon="6.62166">
        <ele>61.4</ele>
        <time>2023-11-05T13:20:20Z</time>
      </trkpt>
      <trkpt lat="43.48325" lon="6.62164">
        <ele>61.6</ele>
        <time>2023-11-05T13:20:21Z</time>
      </trkpt>
      <trkpt lat="43.48325" lon="6.62163">
        <ele>61.7</ele>
        <time>2023-11-05T13:20:22Z</time>
      </trkpt>
      <trkpt lat="43.48325" lon="6.62161">
        <ele>61.9</ele>
        <time>2023-11-05T13:20:23Z</time>
      </trkpt>
      <trkpt lat="43.48324" lon="6.6216">
        <ele>62.2</ele>
        <time>2023-11-05T13:20:24Z</time>
      </trkpt>
      <trkpt lat="43.48324" lon="6.62158">
        <ele>62.5</ele>
        <time>2023-11-05T13:20:25Z</time>
      </trkpt>
      <trkpt lat="43.48324" lon="6.62156">
        <ele>62.6</ele>
        <time>2023-11-05T13:20:26Z</time>
      </trkpt>
      <trkpt lat="43.48323" lon="6.62154">
        <ele>62.6</ele>
        <time>2023-11-05T13:20:27Z</time>
      </trkpt>
      <trkpt lat="43.48324" lon="6.62152">
        <ele>62.6</ele>
        <time>2023-11-05T13:20:28Z</time>
      </trkpt>
      <trkpt lat="43.48323" lon="6.62151">
        <ele>62.8</ele>
        <time>2023-11-05T13:20:29Z</time>
      </trkpt>
      <trkpt lat="43.48323" lon="6.6215">
        <ele>62.9</ele>
        <time>2023-11-05T13:20:30Z</time>
      </trkpt>
      <trkpt lat="43.48323" lon="6.62148">
        <ele>63.1</ele>
        <time>2023-11-05T13:20:31Z</time>
      </trkpt>
      <trkpt lat="43.48323" lon="6.62146">
        <ele>63.1</ele>
        <time>2023-11-05T13:20:32Z</time>
      </trkpt>
      <trkpt lat="43.48323" lon="6.62144">
        <ele>63.2</ele>
        <time>2023-11-05T13:20:33Z</time>
      </trkpt>
      <trkpt lat="43.48323" lon="6.62143">
        <ele>63.3</ele>
        <time>2023-11-05T13:20:34Z</time>
      </trkpt>
      <trkpt lat="43.48323" lon="6.62141">
        <ele>63.2</ele>
        <time>2023-11-05T13:20:35Z</time>
      </trkpt>
      <trkpt lat="43.48323" lon="6.62139">
        <ele>63.3</ele>
        <time>2023-11-05T13:20:36Z</time>
      </trkpt>
      <trkpt lat="43.48323" lon="6.62138">
        <ele>63.3</ele>
        <time>2023-11-05T13:20:37Z</time>
      </trkpt>
      <trkpt lat="43.48323" lon="6.62136">
        <ele>63.3</ele>
        <time>2023-11-05T13:20:38Z</time>
      </trkpt>
      <trkpt lat="43.48323" lon="6.62134">
        <ele>63.4</ele>
        <time>2023-11-05T13:20:39Z</time>
      </trkpt>
      <trkpt lat="43.48323" lon="6.62133">
        <ele>63.5</ele>
        <time>2023-11-05T13:20:40Z</time>
      </trkpt>
      <trkpt lat="43.48323" lon="6.62131">
        <ele>63.5</ele>
        <time>2023-11-05T13:20:41Z</time>
      </trkpt>
      <trkpt lat="43.48323" lon="6.62129">
        <ele>63.5</ele>
        <time>2023-11-05T13:20:42Z</time>
      </trkpt>
      <trkpt lat="43.48323" lon="6.62128">
        <ele>63.6</ele>
        <time>2023-11-05T13:20:43Z</time>
      </trkpt>
      <trkpt lat="43.48323" lon="6.62126">
        <ele>63.7</ele>
        <time>2023-11-05T13:20:44Z</time>
      </trkpt>
      <trkpt lat="43.48324" lon="6.62125">
        <ele>63.8</ele>
        <time>2023-11-05T13:20:45Z</time>
      </trkpt>
      <trkpt lat="43.48324" lon="6.62123">
        <ele>63.8</ele>
        <time>2023-11-05T13:20:46Z</time>
      </trkpt>
      <trkpt lat="43.48324" lon="6.62122">
        <ele>63.7</ele>
        <time>2023-11-05T13:20:47Z</time>
      </trkpt>
      <trkpt lat="43.48325" lon="6.6212">
        <ele>63.8</ele>
        <time>2023-11-05T13:20:48Z</time>
      </trkpt>
      <trkpt lat="43.48325" lon="6.62118">
        <ele>63.9</ele>
        <time>2023-11-05T13:20:49Z</time>
      </trkpt>
      <trkpt lat="43.48325" lon="6.62117">
        <ele>64</ele>
        <time>2023-11-05T13:20:50Z</time>
      </trkpt>
      <trkpt lat="43.48326" lon="6.62115">
        <ele>64.1</ele>
        <time>2023-11-05T13:20:51Z</time>
      </trkpt>
      <trkpt lat="43.48326" lon="6.62114">
        <ele>64.1</ele>
        <time>2023-11-05T13:20:52Z</time>
      </trkpt>
      <trkpt lat="43.48326" lon="6.62112">
        <ele>64.2</ele>
        <time>2023-11-05T13:20:53Z</time>
      </trkpt>
      <trkpt lat="43.48326" lon="6.6211">
        <ele>64.3</ele>
        <time>2023-11-05T13:20:54Z</time>
      </trkpt>
      <trkpt lat="43.48327" lon="6.62109">
        <ele>64.5</ele>
        <time>2023-11-05T13:20:55Z</time>
      </trkpt>
      <trkpt lat="43.48327" lon="6.62107">
        <ele>64.7</ele>
        <time>2023-11-05T13:20:56Z</time>
      </trkpt>
      <trkpt lat="43.48328" lon="6.62106">
        <ele>64.9</ele>
        <time>2023-11-05T13:20:57Z</time>
      </trkpt>
      <trkpt lat="43.48328" lon="6.62104">
        <ele>65</ele>
        <time>2023-11-05T13:20:58Z</time>
      </trkpt>
      <trkpt lat="43.48328" lon="6.62102">
        <ele>65.1</ele>
        <time>2023-11-05T13:20:59Z</time>
      </trkpt>
      <trkpt lat="43.48328" lon="6.621">
        <ele>65.1</ele>
        <time>2023-11-05T13:21:00Z</time>
      </trkpt>
      <trkpt lat="43.48328" lon="6.62099">
        <ele>65.1</ele>
        <time>2023-11-05T13:21:01Z</time>
      </trkpt>
      <trkpt lat="43.48329" lon="6.62097">
        <ele>65.2</ele>
        <time>2023-11-05T13:21:02Z</time>
      </trkpt>
      <trkpt lat="43.48329" lon="6.62096">
        <ele>65.1</ele>
        <time>2023-11-05T13:21:03Z</time>
      </trkpt>
      <trkpt lat="43.48329" lon="6.62094">
        <ele>64.9</ele>
        <time>2023-11-05T13:21:04Z</time>
      </trkpt>
      <trkpt lat="43.48329" lon="6.62092">
        <ele>64.9</ele>
        <time>2023-11-05T13:21:05Z</time>
      </trkpt>
      <trkpt lat="43.48329" lon="6.62091">
        <ele>64.7</ele>
        <time>2023-11-05T13:21:06Z</time>
      </trkpt>
      <trkpt lat="43.48329" lon="6.62089">
        <ele>64.5</ele>
        <time>2023-11-05T13:21:07Z</time>
      </trkpt>
      <trkpt lat="43.48329" lon="6.62087">
        <ele>64.4</ele>
        <time>2023-11-05T13:21:08Z</time>
      </trkpt>
      <trkpt lat="43.48328" lon="6.62085">
        <ele>64.3</ele>
        <time>2023-11-05T13:21:09Z</time>
      </trkpt>
      <trkpt lat="43.48328" lon="6.62084">
        <ele>64.3</ele>
        <time>2023-11-05T13:21:10Z</time>
      </trkpt>
      <trkpt lat="43.48328" lon="6.62082">
        <ele>64.3</ele>
        <time>2023-11-05T13:21:11Z</time>
      </trkpt>
      <trkpt lat="43.48328" lon="6.6208">
        <ele>64.3</ele>
        <time>2023-11-05T13:21:12Z</time>
      </trkpt>
      <trkpt lat="43.48328" lon="6.62079">
        <ele>64.3</ele>
        <time>2023-11-05T13:21:13Z</time>
      </trkpt>
      <trkpt lat="43.48328" lon="6.62077">
        <ele>64.3</ele>
        <time>2023-11-05T13:21:14Z</time>
      </trkpt>
      <trkpt lat="43.48328" lon="6.62075">
        <ele>64.2</ele>
        <time>2023-11-05T13:21:15Z</time>
      </trkpt>
      <trkpt lat="43.48328" lon="6.62074">
        <ele>64.3</ele>
        <time>2023-11-05T13:21:16Z</time>
      </trkpt>
      <trkpt lat="43.48328" lon="6.62072">
        <ele>64.3</ele>
        <time>2023-11-05T13:21:17Z</time>
      </trkpt>
      <trkpt lat="43.48328" lon="6.6207">
        <ele>64.3</ele>
        <time>2023-11-05T13:21:18Z</time>
      </trkpt>
      <trkpt lat="43.48327" lon="6.62069">
        <ele>64.4</ele>
        <time>2023-11-05T13:21:19Z</time>
      </trkpt>
      <trkpt lat="43.48327" lon="6.62067">
        <ele>64.4</ele>
        <time>2023-11-05T13:21:20Z</time>
      </trkpt>
      <trkpt lat="43.48327" lon="6.62065">
        <ele>64.6</ele>
        <time>2023-11-05T13:21:21Z</time>
      </trkpt>
      <trkpt lat="43.48327" lon="6.62064">
        <ele>64.7</ele>
        <time>2023-11-05T13:21:22Z</time>
      </trkpt>
      <trkpt lat="43.48327" lon="6.62062">
        <ele>64.7</ele>
        <time>2023-11-05T13:21:23Z</time>
      </trkpt>
      <trkpt lat="43.48327" lon="6.6206">
        <ele>64.8</ele>
        <time>2023-11-05T13:21:24Z</time>
      </trkpt>
      <trkpt lat="43.48327" lon="6.62058">
        <ele>64.8</ele>
        <time>2023-11-05T13:21:25Z</time>
      </trkpt>
      <trkpt lat="43.48327" lon="6.62057">
        <ele>65</ele>
        <time>2023-11-05T13:21:26Z</time>
      </trkpt>
      <trkpt lat="43.48327" lon="6.62055">
        <ele>65.1</ele>
        <time>2023-11-05T13:21:27Z</time>
      </trkpt>
      <trkpt lat="43.48326" lon="6.62053">
        <ele>65.1</ele>
        <time>2023-11-05T13:21:28Z</time>
      </trkpt>
      <trkpt lat="43.48326" lon="6.62052">
        <ele>65</ele>
        <time>2023-11-05T13:21:29Z</time>
      </trkpt>
      <trkpt lat="43.48326" lon="6.6205">
        <ele>65</ele>
        <time>2023-11-05T13:21:30Z</time>
      </trkpt>
      <trkpt lat="43.48326" lon="6.62049">
        <ele>65</ele>
        <time>2023-11-05T13:21:31Z</time>
      </trkpt>
      <trkpt lat="43.48325" lon="6.62047">
        <ele>65</ele>
        <time>2023-11-05T13:21:32Z</time>
      </trkpt>
      <trkpt lat="43.48325" lon="6.62046">
        <ele>65.2</ele>
        <time>2023-11-05T13:21:33Z</time>
      </trkpt>
      <trkpt lat="43.48325" lon="6.62046">
        <ele>65.3</ele>
        <time>2023-11-05T13:21:34Z</time>
      </trkpt>
      <trkpt lat="43.48325" lon="6.62045">
        <ele>65.2</ele>
        <time>2023-11-05T13:21:35Z</time>
      </trkpt>
      <trkpt lat="43.48325" lon="6.62043">
        <ele>65.4</ele>
        <time>2023-11-05T13:21:36Z</time>
      </trkpt>
      <trkpt lat="43.48325" lon="6.62041">
        <ele>65.4</ele>
        <time>2023-11-05T13:21:37Z</time>
      </trkpt>
      <trkpt lat="43.48326" lon="6.6204">
        <ele>64.7</ele>
        <time>2023-11-05T13:21:38Z</time>
      </trkpt>
      <trkpt lat="43.48326" lon="6.62038">
        <ele>65.1</ele>
        <time>2023-11-05T13:21:39Z</time>
      </trkpt>
      <trkpt lat="43.48326" lon="6.62037">
        <ele>65.4</ele>
        <time>2023-11-05T13:21:40Z</time>
      </trkpt>
      <trkpt lat="43.48326" lon="6.62035">
        <ele>65.4</ele>
        <time>2023-11-05T13:21:41Z</time>
      </trkpt>
      <trkpt lat="43.48326" lon="6.62033">
        <ele>65.4</ele>
        <time>2023-11-05T13:21:42Z</time>
      </trkpt>
      <trkpt lat="43.48326" lon="6.62031">
        <ele>65.2</ele>
        <time>2023-11-05T13:21:43Z</time>
      </trkpt>
      <trkpt lat="43.48326" lon="6.6203">
        <ele>65.2</ele>
        <time>2023-11-05T13:21:44Z</time>
      </trkpt>
      <trkpt lat="43.48325" lon="6.62028">
        <ele>65.2</ele>
        <time>2023-11-05T13:21:45Z</time>
      </trkpt>
      <trkpt lat="43.48325" lon="6.62027">
        <ele>65.3</ele>
        <time>2023-11-05T13:21:46Z</time>
      </trkpt>
      <trkpt lat="43.48325" lon="6.62026">
        <ele>65.4</ele>
        <time>2023-11-05T13:21:47Z</time>
      </trkpt>
      <trkpt lat="43.48325" lon="6.62025">
        <ele>65.6</ele>
        <time>2023-11-05T13:21:48Z</time>
      </trkpt>
      <trkpt lat="43.48326" lon="6.62024">
        <ele>65.7</ele>
        <time>2023-11-05T13:21:49Z</time>
      </trkpt>
      <trkpt lat="43.48326" lon="6.62022">
        <ele>65.8</ele>
        <time>2023-11-05T13:21:50Z</time>
      </trkpt>
      <trkpt lat="43.48326" lon="6.62021">
        <ele>65.9</ele>
        <time>2023-11-05T13:21:51Z</time>
      </trkpt>
      <trkpt lat="43.48326" lon="6.62019">
        <ele>65.9</ele>
        <time>2023-11-05T13:21:52Z</time>
      </trkpt>
      <trkpt lat="43.48325" lon="6.62018">
        <ele>65.9</ele>
        <time>2023-11-05T13:21:53Z</time>
      </trkpt>
      <trkpt lat="43.48325" lon="6.62016">
        <ele>66</ele>
        <time>2023-11-05T13:21:54Z</time>
      </trkpt>
      <trkpt lat="43.48325" lon="6.62014">
        <ele>66</ele>
        <time>2023-11-05T13:21:55Z</time>
      </trkpt>
      <trkpt lat="43.48325" lon="6.62013">
        <ele>66.1</ele>
        <time>2023-11-05T13:21:56Z</time>
      </trkpt>
      <trkpt lat="43.48325" lon="6.62011">
        <ele>66.2</ele>
        <time>2023-11-05T13:21:57Z</time>
      </trkpt>
      <trkpt lat="43.48325" lon="6.62009">
        <ele>66.2</ele>
        <time>2023-11-05T13:21:58Z</time>
      </trkpt>
      <trkpt lat="43.48324" lon="6.62008">
        <ele>66.3</ele>
        <time>2023-11-05T13:21:59Z</time>
      </trkpt>
      <trkpt lat="43.48324" lon="6.62005">
        <ele>66.4</ele>
        <time>2023-11-05T13:22:00Z</time>
      </trkpt>
      <trkpt lat="43.48324" lon="6.62004">
        <ele>66.4</ele>
        <time>2023-11-05T13:22:01Z</time>
      </trkpt>
      <trkpt lat="43.48324" lon="6.62002">
        <ele>66.5</ele>
        <time>2023-11-05T13:22:02Z</time>
      </trkpt>
      <trkpt lat="43.48324" lon="6.62001">
        <ele>66.6</ele>
        <time>2023-11-05T13:22:03Z</time>
      </trkpt>
      <trkpt lat="43.48324" lon="6.61999">
        <ele>66.8</ele>
        <time>2023-11-05T13:22:04Z</time>
      </trkpt>
      <trkpt lat="43.48324" lon="6.61997">
        <ele>66.7</ele>
        <time>2023-11-05T13:22:05Z</time>
      </trkpt>
      <trkpt lat="43.48324" lon="6.61996">
        <ele>66.8</ele>
        <time>2023-11-05T13:22:06Z</time>
      </trkpt>
      <trkpt lat="43.48325" lon="6.61994">
        <ele>66.8</ele>
        <time>2023-11-05T13:22:07Z</time>
      </trkpt>
      <trkpt lat="43.48325" lon="6.61992">
        <ele>66.8</ele>
        <time>2023-11-05T13:22:08Z</time>
      </trkpt>
      <trkpt lat="43.48325" lon="6.61991">
        <ele>66.9</ele>
        <time>2023-11-05T13:22:09Z</time>
      </trkpt>
      <trkpt lat="43.48325" lon="6.61989">
        <ele>66.9</ele>
        <time>2023-11-05T13:22:10Z</time>
      </trkpt>
      <trkpt lat="43.48326" lon="6.61988">
        <ele>67</ele>
        <time>2023-11-05T13:22:11Z</time>
      </trkpt>
      <trkpt lat="43.48327" lon="6.61986">
        <ele>67</ele>
        <time>2023-11-05T13:22:12Z</time>
      </trkpt>
      <trkpt lat="43.48327" lon="6.61984">
        <ele>67</ele>
        <time>2023-11-05T13:22:13Z</time>
      </trkpt>
      <trkpt lat="43.48328" lon="6.61983">
        <ele>66.9</ele>
        <time>2023-11-05T13:22:14Z</time>
      </trkpt>
      <trkpt lat="43.48329" lon="6.61982">
        <ele>66.8</ele>
        <time>2023-11-05T13:22:15Z</time>
      </trkpt>
      <trkpt lat="43.4833" lon="6.61981">
        <ele>66.9</ele>
        <time>2023-11-05T13:22:16Z</time>
      </trkpt>
      <trkpt lat="43.4833" lon="6.61979">
        <ele>66.9</ele>
        <time>2023-11-05T13:22:17Z</time>
      </trkpt>
      <trkpt lat="43.4833" lon="6.61978">
        <ele>66.9</ele>
        <time>2023-11-05T13:22:18Z</time>
      </trkpt>
      <trkpt lat="43.4833" lon="6.61977">
        <ele>67</ele>
        <time>2023-11-05T13:22:19Z</time>
      </trkpt>
      <trkpt lat="43.48331" lon="6.61977">
        <ele>67</ele>
        <time>2023-11-05T13:22:20Z</time>
      </trkpt>
      <trkpt lat="43.48331" lon="6.61976">
        <ele>67</ele>
        <time>2023-11-05T13:22:21Z</time>
      </trkpt>
      <trkpt lat="43.48331" lon="6.61976">
        <ele>67.2</ele>
        <time>2023-11-05T13:22:22Z</time>
      </trkpt>
      <trkpt lat="43.48331" lon="6.61976">
        <ele>67.3</ele>
        <time>2023-11-05T13:22:23Z</time>
      </trkpt>
      <trkpt lat="43.48332" lon="6.61976">
        <ele>67.4</ele>
        <time>2023-11-05T13:22:24Z</time>
      </trkpt>
      <trkpt lat="43.48333" lon="6.61975">
        <ele>67.4</ele>
        <time>2023-11-05T13:22:25Z</time>
      </trkpt>
      <trkpt lat="43.48334" lon="6.61976">
        <ele>67.4</ele>
        <time>2023-11-05T13:22:26Z</time>
      </trkpt>
      <trkpt lat="43.48334" lon="6.61976">
        <ele>67.4</ele>
        <time>2023-11-05T13:22:27Z</time>
      </trkpt>
      <trkpt lat="43.48335" lon="6.61976">
        <ele>67.4</ele>
        <time>2023-11-05T13:22:28Z</time>
      </trkpt>
      <trkpt lat="43.48336" lon="6.61975">
        <ele>67.5</ele>
        <time>2023-11-05T13:22:29Z</time>
      </trkpt>
      <trkpt lat="43.48337" lon="6.61975">
        <ele>67.6</ele>
        <time>2023-11-05T13:22:30Z</time>
      </trkpt>
      <trkpt lat="43.48338" lon="6.61975">
        <ele>67.6</ele>
        <time>2023-11-05T13:22:31Z</time>
      </trkpt>
      <trkpt lat="43.48339" lon="6.61976">
        <ele>67.7</ele>
        <time>2023-11-05T13:22:32Z</time>
      </trkpt>
      <trkpt lat="43.48339" lon="6.61976">
        <ele>67.8</ele>
        <time>2023-11-05T13:22:33Z</time>
      </trkpt>
      <trkpt lat="43.4834" lon="6.61976">
        <ele>67.9</ele>
        <time>2023-11-05T13:22:34Z</time>
      </trkpt>
      <trkpt lat="43.4834" lon="6.61976">
        <ele>68</ele>
        <time>2023-11-05T13:22:35Z</time>
      </trkpt>
      <trkpt lat="43.48341" lon="6.61976">
        <ele>68.1</ele>
        <time>2023-11-05T13:22:36Z</time>
      </trkpt>
      <trkpt lat="43.48342" lon="6.61976">
        <ele>68.2</ele>
        <time>2023-11-05T13:22:37Z</time>
      </trkpt>
      <trkpt lat="43.48344" lon="6.61975">
        <ele>68.1</ele>
        <time>2023-11-05T13:22:38Z</time>
      </trkpt>
      <trkpt lat="43.48345" lon="6.61975">
        <ele>68.2</ele>
        <time>2023-11-05T13:22:39Z</time>
      </trkpt>
      <trkpt lat="43.48346" lon="6.61975">
        <ele>68.3</ele>
        <time>2023-11-05T13:22:40Z</time>
      </trkpt>
      <trkpt lat="43.48347" lon="6.61975">
        <ele>68.4</ele>
        <time>2023-11-05T13:22:41Z</time>
      </trkpt>
      <trkpt lat="43.48348" lon="6.61975">
        <ele>68.4</ele>
        <time>2023-11-05T13:22:42Z</time>
      </trkpt>
      <trkpt lat="43.48349" lon="6.61975">
        <ele>68.4</ele>
        <time>2023-11-05T13:22:43Z</time>
      </trkpt>
      <trkpt lat="43.4835" lon="6.61975">
        <ele>68.5</ele>
        <time>2023-11-05T13:22:44Z</time>
      </trkpt>
      <trkpt lat="43.48351" lon="6.61975">
        <ele>68.5</ele>
        <time>2023-11-05T13:22:45Z</time>
      </trkpt>
      <trkpt lat="43.48351" lon="6.61975">
        <ele>68.5</ele>
        <time>2023-11-05T13:22:46Z</time>
      </trkpt>
      <trkpt lat="43.48352" lon="6.61975">
        <ele>68.5</ele>
        <time>2023-11-05T13:22:47Z</time>
      </trkpt>
      <trkpt lat="43.48354" lon="6.61975">
        <ele>68.6</ele>
        <time>2023-11-05T13:22:48Z</time>
      </trkpt>
      <trkpt lat="43.48355" lon="6.61975">
        <ele>68.6</ele>
        <time>2023-11-05T13:22:49Z</time>
      </trkpt>
      <trkpt lat="43.48356" lon="6.61975">
        <ele>68.6</ele>
        <time>2023-11-05T13:22:50Z</time>
      </trkpt>
      <trkpt lat="43.48357" lon="6.61975">
        <ele>68.6</ele>
        <time>2023-11-05T13:22:51Z</time>
      </trkpt>
      <trkpt lat="43.48358" lon="6.61974">
        <ele>68.7</ele>
        <time>2023-11-05T13:22:52Z</time>
      </trkpt>
      <trkpt lat="43.48359" lon="6.61974">
        <ele>68.7</ele>
        <time>2023-11-05T13:22:53Z</time>
      </trkpt>
      <trkpt lat="43.4836" lon="6.61974">
        <ele>68.7</ele>
        <time>2023-11-05T13:22:54Z</time>
      </trkpt>
      <trkpt lat="43.48361" lon="6.61974">
        <ele>68.7</ele>
        <time>2023-11-05T13:22:55Z</time>
      </trkpt>
      <trkpt lat="43.48362" lon="6.61974">
        <ele>68.8</ele>
        <time>2023-11-05T13:22:56Z</time>
      </trkpt>
      <trkpt lat="43.48363" lon="6.61974">
        <ele>68.8</ele>
        <time>2023-11-05T13:22:57Z</time>
      </trkpt>
      <trkpt lat="43.48364" lon="6.61974">
        <ele>68.8</ele>
        <time>2023-11-05T13:22:58Z</time>
      </trkpt>
      <trkpt lat="43.48365" lon="6.61974">
        <ele>68.8</ele>
        <time>2023-11-05T13:22:59Z</time>
      </trkpt>
      <trkpt lat="43.48366" lon="6.61974">
        <ele>68.8</ele>
        <time>2023-11-05T13:23:00Z</time>
      </trkpt>
      <trkpt lat="43.48367" lon="6.61974">
        <ele>68.8</ele>
        <time>2023-11-05T13:23:01Z</time>
      </trkpt>
      <trkpt lat="43.48368" lon="6.61974">
        <ele>68.8</ele>
        <time>2023-11-05T13:23:02Z</time>
      </trkpt>
      <trkpt lat="43.48369" lon="6.61974">
        <ele>68.7</ele>
        <time>2023-11-05T13:23:03Z</time>
      </trkpt>
      <trkpt lat="43.4837" lon="6.61974">
        <ele>69</ele>
        <time>2023-11-05T13:23:04Z</time>
      </trkpt>
      <trkpt lat="43.48371" lon="6.61974">
        <ele>69</ele>
        <time>2023-11-05T13:23:05Z</time>
      </trkpt>
      <trkpt lat="43.48372" lon="6.61974">
        <ele>69</ele>
        <time>2023-11-05T13:23:06Z</time>
      </trkpt>
      <trkpt lat="43.48373" lon="6.61974">
        <ele>69</ele>
        <time>2023-11-05T13:23:07Z</time>
      </trkpt>
      <trkpt lat="43.48374" lon="6.61975">
        <ele>69.1</ele>
        <time>2023-11-05T13:23:08Z</time>
      </trkpt>
      <trkpt lat="43.48375" lon="6.61975">
        <ele>69.2</ele>
        <time>2023-11-05T13:23:09Z</time>
      </trkpt>
      <trkpt lat="43.48376" lon="6.61976">
        <ele>69.2</ele>
        <time>2023-11-05T13:23:10Z</time>
      </trkpt>
      <trkpt lat="43.48378" lon="6.61976">
        <ele>69.2</ele>
        <time>2023-11-05T13:23:11Z</time>
      </trkpt>
      <trkpt lat="43.48379" lon="6.61977">
        <ele>69.2</ele>
        <time>2023-11-05T13:23:12Z</time>
      </trkpt>
      <trkpt lat="43.48379" lon="6.61977">
        <ele>69.2</ele>
        <time>2023-11-05T13:23:13Z</time>
      </trkpt>
      <trkpt lat="43.4838" lon="6.61978">
        <ele>69.2</ele>
        <time>2023-11-05T13:23:14Z</time>
      </trkpt>
      <trkpt lat="43.48381" lon="6.61978">
        <ele>69.2</ele>
        <time>2023-11-05T13:23:15Z</time>
      </trkpt>
      <trkpt lat="43.48382" lon="6.61978">
        <ele>69</ele>
        <time>2023-11-05T13:23:16Z</time>
      </trkpt>
      <trkpt lat="43.48383" lon="6.61979">
        <ele>69</ele>
        <time>2023-11-05T13:23:17Z</time>
      </trkpt>
      <trkpt lat="43.48384" lon="6.61979">
        <ele>69</ele>
        <time>2023-11-05T13:23:18Z</time>
      </trkpt>
      <trkpt lat="43.48385" lon="6.6198">
        <ele>69</ele>
        <time>2023-11-05T13:23:19Z</time>
      </trkpt>
      <trkpt lat="43.48386" lon="6.6198">
        <ele>68.7</ele>
        <time>2023-11-05T13:23:20Z</time>
      </trkpt>
      <trkpt lat="43.48388" lon="6.6198">
        <ele>68.6</ele>
        <time>2023-11-05T13:23:21Z</time>
      </trkpt>
      <trkpt lat="43.48389" lon="6.61981">
        <ele>68.7</ele>
        <time>2023-11-05T13:23:22Z</time>
      </trkpt>
      <trkpt lat="43.4839" lon="6.61981">
        <ele>68.6</ele>
        <time>2023-11-05T13:23:23Z</time>
      </trkpt>
      <trkpt lat="43.48391" lon="6.61981">
        <ele>68.5</ele>
        <time>2023-11-05T13:23:24Z</time>
      </trkpt>
      <trkpt lat="43.48392" lon="6.61982">
        <ele>68.5</ele>
        <time>2023-11-05T13:23:25Z</time>
      </trkpt>
      <trkpt lat="43.48393" lon="6.61982">
        <ele>68.4</ele>
        <time>2023-11-05T13:23:26Z</time>
      </trkpt>
      <trkpt lat="43.48394" lon="6.61982">
        <ele>68.4</ele>
        <time>2023-11-05T13:23:27Z</time>
      </trkpt>
      <trkpt lat="43.48395" lon="6.61983">
        <ele>68.2</ele>
        <time>2023-11-05T13:23:28Z</time>
      </trkpt>
      <trkpt lat="43.48396" lon="6.61983">
        <ele>68.1</ele>
        <time>2023-11-05T13:23:29Z</time>
      </trkpt>
      <trkpt lat="43.48397" lon="6.61984">
        <ele>68</ele>
        <time>2023-11-05T13:23:30Z</time>
      </trkpt>
      <trkpt lat="43.48398" lon="6.61984">
        <ele>68</ele>
        <time>2023-11-05T13:23:31Z</time>
      </trkpt>
      <trkpt lat="43.484" lon="6.61984">
        <ele>68</ele>
        <time>2023-11-05T13:23:32Z</time>
      </trkpt>
      <trkpt lat="43.48401" lon="6.61984">
        <ele>68.1</ele>
        <time>2023-11-05T13:23:33Z</time>
      </trkpt>
      <trkpt lat="43.48402" lon="6.61984">
        <ele>68</ele>
        <time>2023-11-05T13:23:34Z</time>
      </trkpt>
      <trkpt lat="43.48403" lon="6.61984">
        <ele>68</ele>
        <time>2023-11-05T13:23:35Z</time>
      </trkpt>
      <trkpt lat="43.48404" lon="6.61984">
        <ele>68.1</ele>
        <time>2023-11-05T13:23:36Z</time>
      </trkpt>
      <trkpt lat="43.48405" lon="6.61985">
        <ele>68.1</ele>
        <time>2023-11-05T13:23:37Z</time>
      </trkpt>
      <trkpt lat="43.48406" lon="6.61985">
        <ele>68.1</ele>
        <time>2023-11-05T13:23:38Z</time>
      </trkpt>
      <trkpt lat="43.48407" lon="6.61985">
        <ele>68.1</ele>
        <time>2023-11-05T13:23:39Z</time>
      </trkpt>
      <trkpt lat="43.48408" lon="6.61986">
        <ele>68</ele>
        <time>2023-11-05T13:23:40Z</time>
      </trkpt>
      <trkpt lat="43.4841" lon="6.61986">
        <ele>68</ele>
        <time>2023-11-05T13:23:41Z</time>
      </trkpt>
      <trkpt lat="43.48411" lon="6.61986">
        <ele>68.1</ele>
        <time>2023-11-05T13:23:42Z</time>
      </trkpt>
      <trkpt lat="43.48412" lon="6.61986">
        <ele>68</ele>
        <time>2023-11-05T13:23:43Z</time>
      </trkpt>
      <trkpt lat="43.48413" lon="6.61986">
        <ele>68</ele>
        <time>2023-11-05T13:23:44Z</time>
      </trkpt>
      <trkpt lat="43.48414" lon="6.61985">
        <ele>67.9</ele>
        <time>2023-11-05T13:23:45Z</time>
      </trkpt>
      <trkpt lat="43.48415" lon="6.61985">
        <ele>67.8</ele>
        <time>2023-11-05T13:23:46Z</time>
      </trkpt>
      <trkpt lat="43.48415" lon="6.61985">
        <ele>67.8</ele>
        <time>2023-11-05T13:23:47Z</time>
      </trkpt>
      <trkpt lat="43.48416" lon="6.61984">
        <ele>67.7</ele>
        <time>2023-11-05T13:23:48Z</time>
      </trkpt>
      <trkpt lat="43.48417" lon="6.61984">
        <ele>67.6</ele>
        <time>2023-11-05T13:23:49Z</time>
      </trkpt>
      <trkpt lat="43.48418" lon="6.61984">
        <ele>67.6</ele>
        <time>2023-11-05T13:23:50Z</time>
      </trkpt>
      <trkpt lat="43.48419" lon="6.61984">
        <ele>67.4</ele>
        <time>2023-11-05T13:23:51Z</time>
      </trkpt>
      <trkpt lat="43.4842" lon="6.61984">
        <ele>67.4</ele>
        <time>2023-11-05T13:23:52Z</time>
      </trkpt>
      <trkpt lat="43.48421" lon="6.61984">
        <ele>67.5</ele>
        <time>2023-11-05T13:23:53Z</time>
      </trkpt>
      <trkpt lat="43.48422" lon="6.61984">
        <ele>67.4</ele>
        <time>2023-11-05T13:23:54Z</time>
      </trkpt>
      <trkpt lat="43.48423" lon="6.61985">
        <ele>67.3</ele>
        <time>2023-11-05T13:23:55Z</time>
      </trkpt>
      <trkpt lat="43.48424" lon="6.61985">
        <ele>67.2</ele>
        <time>2023-11-05T13:23:56Z</time>
      </trkpt>
      <trkpt lat="43.48425" lon="6.61986">
        <ele>67</ele>
        <time>2023-11-05T13:23:57Z</time>
      </trkpt>
      <trkpt lat="43.48426" lon="6.61986">
        <ele>66.9</ele>
        <time>2023-11-05T13:23:58Z</time>
      </trkpt>
      <trkpt lat="43.48427" lon="6.61986">
        <ele>66.7</ele>
        <time>2023-11-05T13:23:59Z</time>
      </trkpt>
      <trkpt lat="43.48428" lon="6.61985">
        <ele>66.5</ele>
        <time>2023-11-05T13:24:00Z</time>
      </trkpt>
      <trkpt lat="43.48429" lon="6.61986">
        <ele>66.4</ele>
        <time>2023-11-05T13:24:01Z</time>
      </trkpt>
      <trkpt lat="43.48431" lon="6.61986">
        <ele>66.3</ele>
        <time>2023-11-05T13:24:02Z</time>
      </trkpt>
      <trkpt lat="43.48432" lon="6.61986">
        <ele>66.2</ele>
        <time>2023-11-05T13:24:03Z</time>
      </trkpt>
      <trkpt lat="43.48433" lon="6.61986">
        <ele>66.2</ele>
        <time>2023-11-05T13:24:04Z</time>
      </trkpt>
      <trkpt lat="43.48434" lon="6.61986">
        <ele>66.1</ele>
        <time>2023-11-05T13:24:05Z</time>
      </trkpt>
      <trkpt lat="43.48435" lon="6.61986">
        <ele>66.2</ele>
        <time>2023-11-05T13:24:06Z</time>
      </trkpt>
      <trkpt lat="43.48436" lon="6.61986">
        <ele>66.1</ele>
        <time>2023-11-05T13:24:07Z</time>
      </trkpt>
      <trkpt lat="43.48438" lon="6.61986">
        <ele>66.1</ele>
        <time>2023-11-05T13:24:08Z</time>
      </trkpt>
      <trkpt lat="43.48439" lon="6.61986">
        <ele>66</ele>
        <time>2023-11-05T13:24:09Z</time>
      </trkpt>
      <trkpt lat="43.4844" lon="6.61987">
        <ele>65.9</ele>
        <time>2023-11-05T13:24:10Z</time>
      </trkpt>
      <trkpt lat="43.48441" lon="6.61987">
        <ele>65.8</ele>
        <time>2023-11-05T13:24:11Z</time>
      </trkpt>
      <trkpt lat="43.48442" lon="6.61987">
        <ele>65.8</ele>
        <time>2023-11-05T13:24:12Z</time>
      </trkpt>
      <trkpt lat="43.48443" lon="6.61987">
        <ele>65.7</ele>
        <time>2023-11-05T13:24:13Z</time>
      </trkpt>
      <trkpt lat="43.48445" lon="6.61987">
        <ele>65.5</ele>
        <time>2023-11-05T13:24:14Z</time>
      </trkpt>
      <trkpt lat="43.48446" lon="6.61987">
        <ele>65.2</ele>
        <time>2023-11-05T13:24:15Z</time>
      </trkpt>
      <trkpt lat="43.48447" lon="6.61986">
        <ele>64.9</ele>
        <time>2023-11-05T13:24:16Z</time>
      </trkpt>
      <trkpt lat="43.48448" lon="6.61986">
        <ele>64.8</ele>
        <time>2023-11-05T13:24:17Z</time>
      </trkpt>
      <trkpt lat="43.48449" lon="6.61986">
        <ele>64.6</ele>
        <time>2023-11-05T13:24:18Z</time>
      </trkpt>
      <trkpt lat="43.4845" lon="6.61985">
        <ele>64.5</ele>
        <time>2023-11-05T13:24:19Z</time>
      </trkpt>
      <trkpt lat="43.48451" lon="6.61986">
        <ele>64.2</ele>
        <time>2023-11-05T13:24:20Z</time>
      </trkpt>
      <trkpt lat="43.48452" lon="6.61986">
        <ele>64.1</ele>
        <time>2023-11-05T13:24:21Z</time>
      </trkpt>
      <trkpt lat="43.48454" lon="6.61986">
        <ele>63.9</ele>
        <time>2023-11-05T13:24:22Z</time>
      </trkpt>
      <trkpt lat="43.48454" lon="6.61986">
        <ele>63.6</ele>
        <time>2023-11-05T13:24:23Z</time>
      </trkpt>
      <trkpt lat="43.48455" lon="6.61986">
        <ele>63.3</ele>
        <time>2023-11-05T13:24:24Z</time>
      </trkpt>
      <trkpt lat="43.48457" lon="6.61986">
        <ele>63</ele>
        <time>2023-11-05T13:24:25Z</time>
      </trkpt>
      <trkpt lat="43.48457" lon="6.61986">
        <ele>62.9</ele>
        <time>2023-11-05T13:24:26Z</time>
      </trkpt>
      <trkpt lat="43.48458" lon="6.61986">
        <ele>62.6</ele>
        <time>2023-11-05T13:24:27Z</time>
      </trkpt>
      <trkpt lat="43.4846" lon="6.61986">
        <ele>62.4</ele>
        <time>2023-11-05T13:24:28Z</time>
      </trkpt>
      <trkpt lat="43.48461" lon="6.61986">
        <ele>62.2</ele>
        <time>2023-11-05T13:24:29Z</time>
      </trkpt>
      <trkpt lat="43.48461" lon="6.61986">
        <ele>62.1</ele>
        <time>2023-11-05T13:24:30Z</time>
      </trkpt>
      <trkpt lat="43.48463" lon="6.61987">
        <ele>62</ele>
        <time>2023-11-05T13:24:31Z</time>
      </trkpt>
      <trkpt lat="43.48464" lon="6.61987">
        <ele>61.8</ele>
        <time>2023-11-05T13:24:32Z</time>
      </trkpt>
      <trkpt lat="43.48465" lon="6.61986">
        <ele>61.7</ele>
        <time>2023-11-05T13:24:33Z</time>
      </trkpt>
      <trkpt lat="43.48466" lon="6.61986">
        <ele>61.6</ele>
        <time>2023-11-05T13:24:34Z</time>
      </trkpt>
      <trkpt lat="43.48467" lon="6.61986">
        <ele>61.5</ele>
        <time>2023-11-05T13:24:35Z</time>
      </trkpt>
      <trkpt lat="43.48467" lon="6.61987">
        <ele>61.5</ele>
        <time>2023-11-05T13:24:36Z</time>
      </trkpt>
      <trkpt lat="43.48468" lon="6.61987">
        <ele>61.5</ele>
        <time>2023-11-05T13:24:37Z</time>
      </trkpt>
      <trkpt lat="43.4847" lon="6.61987">
        <ele>61.5</ele>
        <time>2023-11-05T13:24:38Z</time>
      </trkpt>
      <trkpt lat="43.48471" lon="6.61987">
        <ele>61.5</ele>
        <time>2023-11-05T13:24:39Z</time>
      </trkpt>
      <trkpt lat="43.48472" lon="6.61987">
        <ele>61.5</ele>
        <time>2023-11-05T13:24:40Z</time>
      </trkpt>
      <trkpt lat="43.48473" lon="6.61987">
        <ele>61.4</ele>
        <time>2023-11-05T13:24:41Z</time>
      </trkpt>
      <trkpt lat="43.48474" lon="6.61987">
        <ele>61.4</ele>
        <time>2023-11-05T13:24:42Z</time>
      </trkpt>
      <trkpt lat="43.48475" lon="6.61987">
        <ele>61.4</ele>
        <time>2023-11-05T13:24:43Z</time>
      </trkpt>
      <trkpt lat="43.48476" lon="6.61987">
        <ele>61.4</ele>
        <time>2023-11-05T13:24:44Z</time>
      </trkpt>
      <trkpt lat="43.48478" lon="6.61986">
        <ele>61.3</ele>
        <time>2023-11-05T13:24:45Z</time>
      </trkpt>
      <trkpt lat="43.48478" lon="6.61986">
        <ele>61.3</ele>
        <time>2023-11-05T13:24:46Z</time>
      </trkpt>
      <trkpt lat="43.48479" lon="6.61986">
        <ele>61.3</ele>
        <time>2023-11-05T13:24:47Z</time>
      </trkpt>
      <trkpt lat="43.4848" lon="6.61986">
        <ele>61.1</ele>
        <time>2023-11-05T13:24:48Z</time>
      </trkpt>
      <trkpt lat="43.48482" lon="6.61986">
        <ele>61.1</ele>
        <time>2023-11-05T13:24:49Z</time>
      </trkpt>
      <trkpt lat="43.48483" lon="6.61986">
        <ele>61</ele>
        <time>2023-11-05T13:24:50Z</time>
      </trkpt>
      <trkpt lat="43.48484" lon="6.61987">
        <ele>61</ele>
        <time>2023-11-05T13:24:51Z</time>
      </trkpt>
      <trkpt lat="43.48485" lon="6.61987">
        <ele>61</ele>
        <time>2023-11-05T13:24:52Z</time>
      </trkpt>
      <trkpt lat="43.48486" lon="6.61987">
        <ele>61.1</ele>
        <time>2023-11-05T13:24:53Z</time>
      </trkpt>
      <trkpt lat="43.48487" lon="6.61986">
        <ele>61</ele>
        <time>2023-11-05T13:24:54Z</time>
      </trkpt>
      <trkpt lat="43.48488" lon="6.61986">
        <ele>61</ele>
        <time>2023-11-05T13:24:55Z</time>
      </trkpt>
      <trkpt lat="43.48489" lon="6.61986">
        <ele>61</ele>
        <time>2023-11-05T13:24:56Z</time>
      </trkpt>
      <trkpt lat="43.4849" lon="6.61986">
        <ele>61</ele>
        <time>2023-11-05T13:24:57Z</time>
      </trkpt>
      <trkpt lat="43.48491" lon="6.61986">
        <ele>60.9</ele>
        <time>2023-11-05T13:24:58Z</time>
      </trkpt>
      <trkpt lat="43.48492" lon="6.61986">
        <ele>61</ele>
        <time>2023-11-05T13:24:59Z</time>
      </trkpt>
      <trkpt lat="43.48494" lon="6.61986">
        <ele>61.1</ele>
        <time>2023-11-05T13:25:00Z</time>
      </trkpt>
      <trkpt lat="43.48495" lon="6.61985">
        <ele>61.1</ele>
        <time>2023-11-05T13:25:01Z</time>
      </trkpt>
      <trkpt lat="43.48496" lon="6.61985">
        <ele>61</ele>
        <time>2023-11-05T13:25:02Z</time>
      </trkpt>
      <trkpt lat="43.48497" lon="6.61985">
        <ele>60.9</ele>
        <time>2023-11-05T13:25:03Z</time>
      </trkpt>
      <trkpt lat="43.48498" lon="6.61985">
        <ele>60.8</ele>
        <time>2023-11-05T13:25:04Z</time>
      </trkpt>
      <trkpt lat="43.48499" lon="6.61985">
        <ele>60.7</ele>
        <time>2023-11-05T13:25:05Z</time>
      </trkpt>
      <trkpt lat="43.485" lon="6.61984">
        <ele>60.5</ele>
        <time>2023-11-05T13:25:06Z</time>
      </trkpt>
      <trkpt lat="43.48501" lon="6.61984">
        <ele>60.3</ele>
        <time>2023-11-05T13:25:07Z</time>
      </trkpt>
      <trkpt lat="43.48502" lon="6.61984">
        <ele>60.1</ele>
        <time>2023-11-05T13:25:08Z</time>
      </trkpt>
      <trkpt lat="43.48503" lon="6.61984">
        <ele>59.9</ele>
        <time>2023-11-05T13:25:09Z</time>
      </trkpt>
      <trkpt lat="43.48504" lon="6.61983">
        <ele>59.8</ele>
        <time>2023-11-05T13:25:10Z</time>
      </trkpt>
      <trkpt lat="43.48505" lon="6.61983">
        <ele>59.7</ele>
        <time>2023-11-05T13:25:11Z</time>
      </trkpt>
      <trkpt lat="43.48506" lon="6.61983">
        <ele>59.5</ele>
        <time>2023-11-05T13:25:12Z</time>
      </trkpt>
      <trkpt lat="43.48508" lon="6.61983">
        <ele>59.5</ele>
        <time>2023-11-05T13:25:13Z</time>
      </trkpt>
      <trkpt lat="43.48509" lon="6.61983">
        <ele>59.5</ele>
        <time>2023-11-05T13:25:14Z</time>
      </trkpt>
      <trkpt lat="43.4851" lon="6.61983">
        <ele>59.4</ele>
        <time>2023-11-05T13:25:15Z</time>
      </trkpt>
      <trkpt lat="43.4851" lon="6.61983">
        <ele>59.3</ele>
        <time>2023-11-05T13:25:16Z</time>
      </trkpt>
      <trkpt lat="43.48511" lon="6.61983">
        <ele>59.2</ele>
        <time>2023-11-05T13:25:17Z</time>
      </trkpt>
      <trkpt lat="43.48512" lon="6.61983">
        <ele>59.1</ele>
        <time>2023-11-05T13:25:18Z</time>
      </trkpt>
      <trkpt lat="43.48514" lon="6.61983">
        <ele>59</ele>
        <time>2023-11-05T13:25:19Z</time>
      </trkpt>
      <trkpt lat="43.48515" lon="6.61982">
        <ele>59</ele>
        <time>2023-11-05T13:25:20Z</time>
      </trkpt>
      <trkpt lat="43.48515" lon="6.61982">
        <ele>58.9</ele>
        <time>2023-11-05T13:25:21Z</time>
      </trkpt>
      <trkpt lat="43.48516" lon="6.61983">
        <ele>59</ele>
        <time>2023-11-05T13:25:22Z</time>
      </trkpt>
      <trkpt lat="43.48517" lon="6.61982">
        <ele>58.9</ele>
        <time>2023-11-05T13:25:23Z</time>
      </trkpt>
      <trkpt lat="43.48518" lon="6.61981">
        <ele>58.7</ele>
        <time>2023-11-05T13:25:24Z</time>
      </trkpt>
      <trkpt lat="43.48518" lon="6.61981">
        <ele>58.6</ele>
        <time>2023-11-05T13:25:25Z</time>
      </trkpt>
      <trkpt lat="43.4852" lon="6.6198">
        <ele>58.6</ele>
        <time>2023-11-05T13:25:26Z</time>
      </trkpt>
      <trkpt lat="43.48521" lon="6.61979">
        <ele>58.5</ele>
        <time>2023-11-05T13:25:27Z</time>
      </trkpt>
      <trkpt lat="43.48522" lon="6.61979">
        <ele>58.5</ele>
        <time>2023-11-05T13:25:28Z</time>
      </trkpt>
      <trkpt lat="43.48523" lon="6.61978">
        <ele>58.3</ele>
        <time>2023-11-05T13:25:29Z</time>
      </trkpt>
      <trkpt lat="43.48524" lon="6.61977">
        <ele>58.2</ele>
        <time>2023-11-05T13:25:30Z</time>
      </trkpt>
      <trkpt lat="43.48525" lon="6.61977">
        <ele>58.1</ele>
        <time>2023-11-05T13:25:31Z</time>
      </trkpt>
      <trkpt lat="43.48526" lon="6.61977">
        <ele>58</ele>
        <time>2023-11-05T13:25:32Z</time>
      </trkpt>
      <trkpt lat="43.48527" lon="6.61976">
        <ele>57.8</ele>
        <time>2023-11-05T13:25:33Z</time>
      </trkpt>
      <trkpt lat="43.48528" lon="6.61975">
        <ele>57.7</ele>
        <time>2023-11-05T13:25:34Z</time>
      </trkpt>
      <trkpt lat="43.48529" lon="6.61975">
        <ele>57.5</ele>
        <time>2023-11-05T13:25:35Z</time>
      </trkpt>
      <trkpt lat="43.4853" lon="6.61974">
        <ele>57.4</ele>
        <time>2023-11-05T13:25:36Z</time>
      </trkpt>
      <trkpt lat="43.48531" lon="6.61974">
        <ele>57.3</ele>
        <time>2023-11-05T13:25:37Z</time>
      </trkpt>
      <trkpt lat="43.48532" lon="6.61974">
        <ele>57.1</ele>
        <time>2023-11-05T13:25:38Z</time>
      </trkpt>
      <trkpt lat="43.48534" lon="6.61973">
        <ele>57</ele>
        <time>2023-11-05T13:25:39Z</time>
      </trkpt>
      <trkpt lat="43.48535" lon="6.61972">
        <ele>56.9</ele>
        <time>2023-11-05T13:25:40Z</time>
      </trkpt>
      <trkpt lat="43.48536" lon="6.61971">
        <ele>56.8</ele>
        <time>2023-11-05T13:25:41Z</time>
      </trkpt>
      <trkpt lat="43.48537" lon="6.6197">
        <ele>56.7</ele>
        <time>2023-11-05T13:25:42Z</time>
      </trkpt>
      <trkpt lat="43.48538" lon="6.61969">
        <ele>56.6</ele>
        <time>2023-11-05T13:25:43Z</time>
      </trkpt>
      <trkpt lat="43.48539" lon="6.61968">
        <ele>56.6</ele>
        <time>2023-11-05T13:25:44Z</time>
      </trkpt>
      <trkpt lat="43.48539" lon="6.61967">
        <ele>56.6</ele>
        <time>2023-11-05T13:25:45Z</time>
      </trkpt>
      <trkpt lat="43.48541" lon="6.61966">
        <ele>56.5</ele>
        <time>2023-11-05T13:25:46Z</time>
      </trkpt>
      <trkpt lat="43.48542" lon="6.61965">
        <ele>56.5</ele>
        <time>2023-11-05T13:25:47Z</time>
      </trkpt>
      <trkpt lat="43.48543" lon="6.61965">
        <ele>56.6</ele>
        <time>2023-11-05T13:25:48Z</time>
      </trkpt>
      <trkpt lat="43.48544" lon="6.61964">
        <ele>56.7</ele>
        <time>2023-11-05T13:25:49Z</time>
      </trkpt>
      <trkpt lat="43.48544" lon="6.61963">
        <ele>56.7</ele>
        <time>2023-11-05T13:25:50Z</time>
      </trkpt>
      <trkpt lat="43.48545" lon="6.61962">
        <ele>56.7</ele>
        <time>2023-11-05T13:25:51Z</time>
      </trkpt>
      <trkpt lat="43.48546" lon="6.6196">
        <ele>56.6</ele>
        <time>2023-11-05T13:25:52Z</time>
      </trkpt>
      <trkpt lat="43.48548" lon="6.61959">
        <ele>56.5</ele>
        <time>2023-11-05T13:25:53Z</time>
      </trkpt>
      <trkpt lat="43.48548" lon="6.61958">
        <ele>56.5</ele>
        <time>2023-11-05T13:25:54Z</time>
      </trkpt>
      <trkpt lat="43.48549" lon="6.61957">
        <ele>56.6</ele>
        <time>2023-11-05T13:25:55Z</time>
      </trkpt>
      <trkpt lat="43.4855" lon="6.61956">
        <ele>56.4</ele>
        <time>2023-11-05T13:25:56Z</time>
      </trkpt>
      <trkpt lat="43.48552" lon="6.61955">
        <ele>56.1</ele>
        <time>2023-11-05T13:25:57Z</time>
      </trkpt>
      <trkpt lat="43.48553" lon="6.61953">
        <ele>55.9</ele>
        <time>2023-11-05T13:25:58Z</time>
      </trkpt>
      <trkpt lat="43.48554" lon="6.61952">
        <ele>55.8</ele>
        <time>2023-11-05T13:25:59Z</time>
      </trkpt>
      <trkpt lat="43.48555" lon="6.61951">
        <ele>55.6</ele>
        <time>2023-11-05T13:26:00Z</time>
      </trkpt>
      <trkpt lat="43.48556" lon="6.6195">
        <ele>55.4</ele>
        <time>2023-11-05T13:26:01Z</time>
      </trkpt>
      <trkpt lat="43.48557" lon="6.61949">
        <ele>55.3</ele>
        <time>2023-11-05T13:26:02Z</time>
      </trkpt>
      <trkpt lat="43.48558" lon="6.61948">
        <ele>55.2</ele>
        <time>2023-11-05T13:26:03Z</time>
      </trkpt>
      <trkpt lat="43.48559" lon="6.61947">
        <ele>55.1</ele>
        <time>2023-11-05T13:26:04Z</time>
      </trkpt>
      <trkpt lat="43.48559" lon="6.61946">
        <ele>55.1</ele>
        <time>2023-11-05T13:26:05Z</time>
      </trkpt>
      <trkpt lat="43.4856" lon="6.61945">
        <ele>55</ele>
        <time>2023-11-05T13:26:06Z</time>
      </trkpt>
      <trkpt lat="43.48561" lon="6.61943">
        <ele>54.9</ele>
        <time>2023-11-05T13:26:07Z</time>
      </trkpt>
      <trkpt lat="43.48562" lon="6.61943">
        <ele>54.8</ele>
        <time>2023-11-05T13:26:08Z</time>
      </trkpt>
      <trkpt lat="43.48563" lon="6.61942">
        <ele>54.7</ele>
        <time>2023-11-05T13:26:09Z</time>
      </trkpt>
      <trkpt lat="43.48564" lon="6.6194">
        <ele>54.6</ele>
        <time>2023-11-05T13:26:10Z</time>
      </trkpt>
      <trkpt lat="43.48565" lon="6.6194">
        <ele>54.5</ele>
        <time>2023-11-05T13:26:11Z</time>
      </trkpt>
      <trkpt lat="43.48566" lon="6.61939">
        <ele>54.4</ele>
        <time>2023-11-05T13:26:12Z</time>
      </trkpt>
      <trkpt lat="43.48567" lon="6.61938">
        <ele>54.4</ele>
        <time>2023-11-05T13:26:13Z</time>
      </trkpt>
      <trkpt lat="43.48568" lon="6.61937">
        <ele>54.3</ele>
        <time>2023-11-05T13:26:14Z</time>
      </trkpt>
      <trkpt lat="43.48569" lon="6.61937">
        <ele>54.1</ele>
        <time>2023-11-05T13:26:15Z</time>
      </trkpt>
      <trkpt lat="43.48569" lon="6.61936">
        <ele>54</ele>
        <time>2023-11-05T13:26:16Z</time>
      </trkpt>
      <trkpt lat="43.4857" lon="6.61936">
        <ele>53.9</ele>
        <time>2023-11-05T13:26:17Z</time>
      </trkpt>
      <trkpt lat="43.48571" lon="6.61935">
        <ele>53.7</ele>
        <time>2023-11-05T13:26:18Z</time>
      </trkpt>
      <trkpt lat="43.48572" lon="6.61935">
        <ele>53.6</ele>
        <time>2023-11-05T13:26:19Z</time>
      </trkpt>
      <trkpt lat="43.48573" lon="6.61934">
        <ele>53.5</ele>
        <time>2023-11-05T13:26:20Z</time>
      </trkpt>
      <trkpt lat="43.48575" lon="6.61934">
        <ele>53.3</ele>
        <time>2023-11-05T13:26:21Z</time>
      </trkpt>
      <trkpt lat="43.48576" lon="6.61934">
        <ele>53.1</ele>
        <time>2023-11-05T13:26:22Z</time>
      </trkpt>
      <trkpt lat="43.48577" lon="6.61933">
        <ele>53</ele>
        <time>2023-11-05T13:26:23Z</time>
      </trkpt>
      <trkpt lat="43.48578" lon="6.61933">
        <ele>52.8</ele>
        <time>2023-11-05T13:26:24Z</time>
      </trkpt>
      <trkpt lat="43.48579" lon="6.61932">
        <ele>52.5</ele>
        <time>2023-11-05T13:26:25Z</time>
      </trkpt>
      <trkpt lat="43.4858" lon="6.61932">
        <ele>52.3</ele>
        <time>2023-11-05T13:26:26Z</time>
      </trkpt>
      <trkpt lat="43.48581" lon="6.61932">
        <ele>52.1</ele>
        <time>2023-11-05T13:26:27Z</time>
      </trkpt>
      <trkpt lat="43.48582" lon="6.61932">
        <ele>52</ele>
        <time>2023-11-05T13:26:28Z</time>
      </trkpt>
      <trkpt lat="43.48582" lon="6.61932">
        <ele>51.8</ele>
        <time>2023-11-05T13:26:29Z</time>
      </trkpt>
      <trkpt lat="43.48583" lon="6.61932">
        <ele>51.7</ele>
        <time>2023-11-05T13:26:30Z</time>
      </trkpt>
      <trkpt lat="43.48583" lon="6.61932">
        <ele>51.6</ele>
        <time>2023-11-05T13:26:31Z</time>
      </trkpt>
      <trkpt lat="43.48583" lon="6.61932">
        <ele>51.5</ele>
        <time>2023-11-05T13:26:32Z</time>
      </trkpt>
      <trkpt lat="43.48583" lon="6.61932">
        <ele>51.3</ele>
        <time>2023-11-05T13:26:33Z</time>
      </trkpt>
      <trkpt lat="43.48583" lon="6.61932">
        <ele>51.2</ele>
        <time>2023-11-05T13:26:34Z</time>
      </trkpt>
      <trkpt lat="43.48583" lon="6.61932">
        <ele>51.2</ele>
        <time>2023-11-05T13:26:35Z</time>
      </trkpt>
      <trkpt lat="43.48583" lon="6.61932">
        <ele>51.2</ele>
        <time>2023-11-05T13:26:36Z</time>
      </trkpt>
      <trkpt lat="43.48583" lon="6.61932">
        <ele>51.1</ele>
        <time>2023-11-05T13:26:37Z</time>
      </trkpt>
      <trkpt lat="43.48583" lon="6.61932">
        <ele>51</ele>
        <time>2023-11-05T13:26:38Z</time>
      </trkpt>
      <trkpt lat="43.48583" lon="6.61931">
        <ele>51</ele>
        <time>2023-11-05T13:26:39Z</time>
      </trkpt>
      <trkpt lat="43.48583" lon="6.61932">
        <ele>51</ele>
        <time>2023-11-05T13:26:40Z</time>
      </trkpt>
      <trkpt lat="43.48584" lon="6.61932">
        <ele>51</ele>
        <time>2023-11-05T13:26:41Z</time>
      </trkpt>
      <trkpt lat="43.48585" lon="6.61932">
        <ele>51.1</ele>
        <time>2023-11-05T13:26:42Z</time>
      </trkpt>
      <trkpt lat="43.48586" lon="6.61932">
        <ele>51.2</ele>
        <time>2023-11-05T13:26:43Z</time>
      </trkpt>
      <trkpt lat="43.48587" lon="6.61932">
        <ele>51.2</ele>
        <time>2023-11-05T13:26:44Z</time>
      </trkpt>
      <trkpt lat="43.48588" lon="6.61932">
        <ele>51.4</ele>
        <time>2023-11-05T13:26:45Z</time>
      </trkpt>
      <trkpt lat="43.48589" lon="6.61932">
        <ele>51.4</ele>
        <time>2023-11-05T13:26:46Z</time>
      </trkpt>
      <trkpt lat="43.4859" lon="6.61932">
        <ele>51.4</ele>
        <time>2023-11-05T13:26:47Z</time>
      </trkpt>
      <trkpt lat="43.48591" lon="6.61932">
        <ele>51.5</ele>
        <time>2023-11-05T13:26:48Z</time>
      </trkpt>
      <trkpt lat="43.48592" lon="6.61933">
        <ele>51.5</ele>
        <time>2023-11-05T13:26:49Z</time>
      </trkpt>
      <trkpt lat="43.48593" lon="6.61933">
        <ele>51.5</ele>
        <time>2023-11-05T13:26:50Z</time>
      </trkpt>
      <trkpt lat="43.48594" lon="6.61933">
        <ele>51.6</ele>
        <time>2023-11-05T13:26:51Z</time>
      </trkpt>
      <trkpt lat="43.48595" lon="6.61934">
        <ele>51.7</ele>
        <time>2023-11-05T13:26:52Z</time>
      </trkpt>
      <trkpt lat="43.48597" lon="6.61934">
        <ele>51.7</ele>
        <time>2023-11-05T13:26:53Z</time>
      </trkpt>
      <trkpt lat="43.48598" lon="6.61935">
        <ele>51.7</ele>
        <time>2023-11-05T13:26:54Z</time>
      </trkpt>
      <trkpt lat="43.48599" lon="6.61936">
        <ele>51.7</ele>
        <time>2023-11-05T13:26:55Z</time>
      </trkpt>
      <trkpt lat="43.486" lon="6.61936">
        <ele>51.7</ele>
        <time>2023-11-05T13:26:56Z</time>
      </trkpt>
      <trkpt lat="43.48601" lon="6.61937">
        <ele>51.7</ele>
        <time>2023-11-05T13:26:57Z</time>
      </trkpt>
      <trkpt lat="43.48602" lon="6.61937">
        <ele>51.7</ele>
        <time>2023-11-05T13:26:58Z</time>
      </trkpt>
      <trkpt lat="43.48603" lon="6.61937">
        <ele>51.7</ele>
        <time>2023-11-05T13:26:59Z</time>
      </trkpt>
      <trkpt lat="43.48604" lon="6.61937">
        <ele>51.7</ele>
        <time>2023-11-05T13:27:00Z</time>
      </trkpt>
      <trkpt lat="43.48605" lon="6.61937">
        <ele>51.7</ele>
        <time>2023-11-05T13:27:01Z</time>
      </trkpt>
      <trkpt lat="43.48606" lon="6.61938">
        <ele>51.7</ele>
        <time>2023-11-05T13:27:02Z</time>
      </trkpt>
      <trkpt lat="43.48607" lon="6.61938">
        <ele>51.8</ele>
        <time>2023-11-05T13:27:03Z</time>
      </trkpt>
      <trkpt lat="43.48608" lon="6.61938">
        <ele>52</ele>
        <time>2023-11-05T13:27:04Z</time>
      </trkpt>
      <trkpt lat="43.48609" lon="6.61938">
        <ele>52.2</ele>
        <time>2023-11-05T13:27:05Z</time>
      </trkpt>
      <trkpt lat="43.4861" lon="6.61939">
        <ele>52.4</ele>
        <time>2023-11-05T13:27:06Z</time>
      </trkpt>
      <trkpt lat="43.48611" lon="6.6194">
        <ele>52.6</ele>
        <time>2023-11-05T13:27:07Z</time>
      </trkpt>
      <trkpt lat="43.48612" lon="6.61941">
        <ele>52.7</ele>
        <time>2023-11-05T13:27:08Z</time>
      </trkpt>
      <trkpt lat="43.48613" lon="6.61941">
        <ele>53</ele>
        <time>2023-11-05T13:27:09Z</time>
      </trkpt>
      <trkpt lat="43.48614" lon="6.61941">
        <ele>53.1</ele>
        <time>2023-11-05T13:27:10Z</time>
      </trkpt>
      <trkpt lat="43.48615" lon="6.61942">
        <ele>53.3</ele>
        <time>2023-11-05T13:27:11Z</time>
      </trkpt>
      <trkpt lat="43.48616" lon="6.61943">
        <ele>53.4</ele>
        <time>2023-11-05T13:27:12Z</time>
      </trkpt>
      <trkpt lat="43.48617" lon="6.61944">
        <ele>53.6</ele>
        <time>2023-11-05T13:27:13Z</time>
      </trkpt>
      <trkpt lat="43.48618" lon="6.61945">
        <ele>53.8</ele>
        <time>2023-11-05T13:27:14Z</time>
      </trkpt>
      <trkpt lat="43.48618" lon="6.61946">
        <ele>54.1</ele>
        <time>2023-11-05T13:27:15Z</time>
      </trkpt>
      <trkpt lat="43.48619" lon="6.61947">
        <ele>54.3</ele>
        <time>2023-11-05T13:27:16Z</time>
      </trkpt>
      <trkpt lat="43.4862" lon="6.61948">
        <ele>54.5</ele>
        <time>2023-11-05T13:27:17Z</time>
      </trkpt>
      <trkpt lat="43.4862" lon="6.61948">
        <ele>54.7</ele>
        <time>2023-11-05T13:27:18Z</time>
      </trkpt>
      <trkpt lat="43.48621" lon="6.61949">
        <ele>54.9</ele>
        <time>2023-11-05T13:27:19Z</time>
      </trkpt>
      <trkpt lat="43.48622" lon="6.6195">
        <ele>55</ele>
        <time>2023-11-05T13:27:20Z</time>
      </trkpt>
      <trkpt lat="43.48623" lon="6.61951">
        <ele>55.1</ele>
        <time>2023-11-05T13:27:21Z</time>
      </trkpt>
      <trkpt lat="43.48624" lon="6.61952">
        <ele>55.2</ele>
        <time>2023-11-05T13:27:22Z</time>
      </trkpt>
      <trkpt lat="43.48625" lon="6.61953">
        <ele>55.2</ele>
        <time>2023-11-05T13:27:23Z</time>
      </trkpt>
      <trkpt lat="43.48625" lon="6.61954">
        <ele>55.4</ele>
        <time>2023-11-05T13:27:24Z</time>
      </trkpt>
      <trkpt lat="43.48626" lon="6.61955">
        <ele>55.5</ele>
        <time>2023-11-05T13:27:25Z</time>
      </trkpt>
      <trkpt lat="43.48627" lon="6.61956">
        <ele>55.7</ele>
        <time>2023-11-05T13:27:26Z</time>
      </trkpt>
      <trkpt lat="43.48628" lon="6.61958">
        <ele>55.8</ele>
        <time>2023-11-05T13:27:27Z</time>
      </trkpt>
      <trkpt lat="43.48628" lon="6.61959">
        <ele>55.8</ele>
        <time>2023-11-05T13:27:28Z</time>
      </trkpt>
      <trkpt lat="43.48629" lon="6.61959">
        <ele>55.9</ele>
        <time>2023-11-05T13:27:29Z</time>
      </trkpt>
      <trkpt lat="43.4863" lon="6.6196">
        <ele>56.1</ele>
        <time>2023-11-05T13:27:30Z</time>
      </trkpt>
      <trkpt lat="43.4863" lon="6.61961">
        <ele>56.3</ele>
        <time>2023-11-05T13:27:31Z</time>
      </trkpt>
      <trkpt lat="43.48631" lon="6.61962">
        <ele>56.5</ele>
        <time>2023-11-05T13:27:32Z</time>
      </trkpt>
      <trkpt lat="43.48632" lon="6.61963">
        <ele>56.6</ele>
        <time>2023-11-05T13:27:33Z</time>
      </trkpt>
      <trkpt lat="43.48633" lon="6.61964">
        <ele>56.6</ele>
        <time>2023-11-05T13:27:34Z</time>
      </trkpt>
      <trkpt lat="43.48634" lon="6.61965">
        <ele>56.7</ele>
        <time>2023-11-05T13:27:35Z</time>
      </trkpt>
      <trkpt lat="43.48635" lon="6.61966">
        <ele>57</ele>
        <time>2023-11-05T13:27:36Z</time>
      </trkpt>
      <trkpt lat="43.48636" lon="6.61967">
        <ele>57.1</ele>
        <time>2023-11-05T13:27:37Z</time>
      </trkpt>
      <trkpt lat="43.48637" lon="6.61968">
        <ele>57.2</ele>
        <time>2023-11-05T13:27:38Z</time>
      </trkpt>
      <trkpt lat="43.48638" lon="6.61969">
        <ele>57.4</ele>
        <time>2023-11-05T13:27:39Z</time>
      </trkpt>
      <trkpt lat="43.48639" lon="6.61969">
        <ele>57.6</ele>
        <time>2023-11-05T13:27:40Z</time>
      </trkpt>
      <trkpt lat="43.48641" lon="6.6197">
        <ele>57.8</ele>
        <time>2023-11-05T13:27:41Z</time>
      </trkpt>
      <trkpt lat="43.48642" lon="6.6197">
        <ele>57.8</ele>
        <time>2023-11-05T13:27:42Z</time>
      </trkpt>
      <trkpt lat="43.48643" lon="6.61971">
        <ele>57.9</ele>
        <time>2023-11-05T13:27:43Z</time>
      </trkpt>
      <trkpt lat="43.48644" lon="6.61972">
        <ele>58</ele>
        <time>2023-11-05T13:27:44Z</time>
      </trkpt>
      <trkpt lat="43.48645" lon="6.61973">
        <ele>58</ele>
        <time>2023-11-05T13:27:45Z</time>
      </trkpt>
      <trkpt lat="43.48646" lon="6.61973">
        <ele>58.1</ele>
        <time>2023-11-05T13:27:46Z</time>
      </trkpt>
      <trkpt lat="43.48647" lon="6.61974">
        <ele>58.2</ele>
        <time>2023-11-05T13:27:47Z</time>
      </trkpt>
      <trkpt lat="43.48648" lon="6.61974">
        <ele>58.3</ele>
        <time>2023-11-05T13:27:48Z</time>
      </trkpt>
      <trkpt lat="43.48649" lon="6.61975">
        <ele>58.4</ele>
        <time>2023-11-05T13:27:49Z</time>
      </trkpt>
      <trkpt lat="43.48651" lon="6.61975">
        <ele>58.4</ele>
        <time>2023-11-05T13:27:50Z</time>
      </trkpt>
      <trkpt lat="43.48652" lon="6.61976">
        <ele>58.5</ele>
        <time>2023-11-05T13:27:51Z</time>
      </trkpt>
      <trkpt lat="43.48653" lon="6.61976">
        <ele>58.6</ele>
        <time>2023-11-05T13:27:52Z</time>
      </trkpt>
      <trkpt lat="43.48655" lon="6.61976">
        <ele>58.6</ele>
        <time>2023-11-05T13:27:53Z</time>
      </trkpt>
      <trkpt lat="43.48656" lon="6.61976">
        <ele>58.7</ele>
        <time>2023-11-05T13:27:54Z</time>
      </trkpt>
      <trkpt lat="43.48657" lon="6.61977">
        <ele>58.7</ele>
        <time>2023-11-05T13:27:55Z</time>
      </trkpt>
      <trkpt lat="43.48658" lon="6.61977">
        <ele>58.8</ele>
        <time>2023-11-05T13:27:56Z</time>
      </trkpt>
      <trkpt lat="43.48659" lon="6.61978">
        <ele>58.8</ele>
        <time>2023-11-05T13:27:57Z</time>
      </trkpt>
      <trkpt lat="43.4866" lon="6.61978">
        <ele>58.9</ele>
        <time>2023-11-05T13:27:58Z</time>
      </trkpt>
      <trkpt lat="43.48661" lon="6.61979">
        <ele>59.1</ele>
        <time>2023-11-05T13:27:59Z</time>
      </trkpt>
      <trkpt lat="43.48662" lon="6.61979">
        <ele>59.2</ele>
        <time>2023-11-05T13:28:00Z</time>
      </trkpt>
      <trkpt lat="43.48664" lon="6.61979">
        <ele>59.2</ele>
        <time>2023-11-05T13:28:01Z</time>
      </trkpt>
      <trkpt lat="43.48665" lon="6.61979">
        <ele>59.2</ele>
        <time>2023-11-05T13:28:02Z</time>
      </trkpt>
      <trkpt lat="43.48666" lon="6.6198">
        <ele>59.3</ele>
        <time>2023-11-05T13:28:03Z</time>
      </trkpt>
      <trkpt lat="43.48667" lon="6.6198">
        <ele>59.4</ele>
        <time>2023-11-05T13:28:04Z</time>
      </trkpt>
      <trkpt lat="43.48669" lon="6.6198">
        <ele>59.6</ele>
        <time>2023-11-05T13:28:05Z</time>
      </trkpt>
      <trkpt lat="43.4867" lon="6.6198">
        <ele>59.8</ele>
        <time>2023-11-05T13:28:06Z</time>
      </trkpt>
      <trkpt lat="43.48671" lon="6.6198">
        <ele>59.9</ele>
        <time>2023-11-05T13:28:07Z</time>
      </trkpt>
      <trkpt lat="43.48672" lon="6.61981">
        <ele>60</ele>
        <time>2023-11-05T13:28:08Z</time>
      </trkpt>
      <trkpt lat="43.48673" lon="6.61981">
        <ele>60.1</ele>
        <time>2023-11-05T13:28:09Z</time>
      </trkpt>
      <trkpt lat="43.48674" lon="6.6198">
        <ele>60.1</ele>
        <time>2023-11-05T13:28:10Z</time>
      </trkpt>
      <trkpt lat="43.48675" lon="6.6198">
        <ele>60.2</ele>
        <time>2023-11-05T13:28:11Z</time>
      </trkpt>
      <trkpt lat="43.48676" lon="6.6198">
        <ele>60.2</ele>
        <time>2023-11-05T13:28:12Z</time>
      </trkpt>
      <trkpt lat="43.48678" lon="6.61981">
        <ele>60.1</ele>
        <time>2023-11-05T13:28:13Z</time>
      </trkpt>
      <trkpt lat="43.48679" lon="6.61981">
        <ele>60.1</ele>
        <time>2023-11-05T13:28:14Z</time>
      </trkpt>
      <trkpt lat="43.4868" lon="6.61982">
        <ele>60.1</ele>
        <time>2023-11-05T13:28:15Z</time>
      </trkpt>
      <trkpt lat="43.4868" lon="6.61981">
        <ele>60.1</ele>
        <time>2023-11-05T13:28:16Z</time>
      </trkpt>
      <trkpt lat="43.4868" lon="6.61981">
        <ele>60.2</ele>
        <time>2023-11-05T13:28:17Z</time>
      </trkpt>
      <trkpt lat="43.48681" lon="6.61981">
        <ele>60.2</ele>
        <time>2023-11-05T13:28:18Z</time>
      </trkpt>
      <trkpt lat="43.48681" lon="6.6198">
        <ele>60.2</ele>
        <time>2023-11-05T13:28:19Z</time>
      </trkpt>
      <trkpt lat="43.48682" lon="6.61981">
        <ele>60.1</ele>
        <time>2023-11-05T13:28:20Z</time>
      </trkpt>
      <trkpt lat="43.48683" lon="6.61981">
        <ele>60</ele>
        <time>2023-11-05T13:28:21Z</time>
      </trkpt>
      <trkpt lat="43.48685" lon="6.61981">
        <ele>60</ele>
        <time>2023-11-05T13:28:22Z</time>
      </trkpt>
      <trkpt lat="43.48685" lon="6.61981">
        <ele>60</ele>
        <time>2023-11-05T13:28:23Z</time>
      </trkpt>
      <trkpt lat="43.48686" lon="6.61981">
        <ele>60</ele>
        <time>2023-11-05T13:28:24Z</time>
      </trkpt>
      <trkpt lat="43.48688" lon="6.61981">
        <ele>59.9</ele>
        <time>2023-11-05T13:28:25Z</time>
      </trkpt>
      <trkpt lat="43.48689" lon="6.61981">
        <ele>59.8</ele>
        <time>2023-11-05T13:28:26Z</time>
      </trkpt>
      <trkpt lat="43.4869" lon="6.61981">
        <ele>59.8</ele>
        <time>2023-11-05T13:28:27Z</time>
      </trkpt>
      <trkpt lat="43.48691" lon="6.61981">
        <ele>59.9</ele>
        <time>2023-11-05T13:28:28Z</time>
      </trkpt>
      <trkpt lat="43.48693" lon="6.61981">
        <ele>60</ele>
        <time>2023-11-05T13:28:29Z</time>
      </trkpt>
      <trkpt lat="43.48694" lon="6.61982">
        <ele>60.1</ele>
        <time>2023-11-05T13:28:30Z</time>
      </trkpt>
      <trkpt lat="43.48695" lon="6.61981">
        <ele>59.9</ele>
        <time>2023-11-05T13:28:31Z</time>
      </trkpt>
      <trkpt lat="43.48696" lon="6.61981">
        <ele>60</ele>
        <time>2023-11-05T13:28:32Z</time>
      </trkpt>
      <trkpt lat="43.48697" lon="6.61981">
        <ele>60</ele>
        <time>2023-11-05T13:28:33Z</time>
      </trkpt>
      <trkpt lat="43.48698" lon="6.61981">
        <ele>60.1</ele>
        <time>2023-11-05T13:28:34Z</time>
      </trkpt>
      <trkpt lat="43.487" lon="6.61981">
        <ele>60.1</ele>
        <time>2023-11-05T13:28:35Z</time>
      </trkpt>
      <trkpt lat="43.48701" lon="6.61981">
        <ele>60.2</ele>
        <time>2023-11-05T13:28:36Z</time>
      </trkpt>
      <trkpt lat="43.48702" lon="6.61981">
        <ele>60.2</ele>
        <time>2023-11-05T13:28:37Z</time>
      </trkpt>
      <trkpt lat="43.48704" lon="6.61981">
        <ele>60.1</ele>
        <time>2023-11-05T13:28:38Z</time>
      </trkpt>
      <trkpt lat="43.48705" lon="6.61981">
        <ele>60</ele>
        <time>2023-11-05T13:28:39Z</time>
      </trkpt>
      <trkpt lat="43.48706" lon="6.61981">
        <ele>59.9</ele>
        <time>2023-11-05T13:28:40Z</time>
      </trkpt>
      <trkpt lat="43.48707" lon="6.61981">
        <ele>59.8</ele>
        <time>2023-11-05T13:28:41Z</time>
      </trkpt>
      <trkpt lat="43.48708" lon="6.61981">
        <ele>59.7</ele>
        <time>2023-11-05T13:28:42Z</time>
      </trkpt>
      <trkpt lat="43.4871" lon="6.61981">
        <ele>59.7</ele>
        <time>2023-11-05T13:28:43Z</time>
      </trkpt>
      <trkpt lat="43.48711" lon="6.61981">
        <ele>59.6</ele>
        <time>2023-11-05T13:28:44Z</time>
      </trkpt>
      <trkpt lat="43.48712" lon="6.61981">
        <ele>59.5</ele>
        <time>2023-11-05T13:28:45Z</time>
      </trkpt>
      <trkpt lat="43.48713" lon="6.61981">
        <ele>59.4</ele>
        <time>2023-11-05T13:28:46Z</time>
      </trkpt>
      <trkpt lat="43.48715" lon="6.61981">
        <ele>59.3</ele>
        <time>2023-11-05T13:28:47Z</time>
      </trkpt>
      <trkpt lat="43.48716" lon="6.61982">
        <ele>59.2</ele>
        <time>2023-11-05T13:28:48Z</time>
      </trkpt>
      <trkpt lat="43.48717" lon="6.61982">
        <ele>59.1</ele>
        <time>2023-11-05T13:28:49Z</time>
      </trkpt>
      <trkpt lat="43.48718" lon="6.61982">
        <ele>59</ele>
        <time>2023-11-05T13:28:50Z</time>
      </trkpt>
      <trkpt lat="43.4872" lon="6.61983">
        <ele>58.9</ele>
        <time>2023-11-05T13:28:51Z</time>
      </trkpt>
      <trkpt lat="43.48721" lon="6.61983">
        <ele>58.8</ele>
        <time>2023-11-05T13:28:52Z</time>
      </trkpt>
      <trkpt lat="43.48722" lon="6.61983">
        <ele>58.7</ele>
        <time>2023-11-05T13:28:53Z</time>
      </trkpt>
      <trkpt lat="43.48723" lon="6.61983">
        <ele>58.5</ele>
        <time>2023-11-05T13:28:54Z</time>
      </trkpt>
      <trkpt lat="43.48724" lon="6.61983">
        <ele>58.3</ele>
        <time>2023-11-05T13:28:55Z</time>
      </trkpt>
      <trkpt lat="43.48726" lon="6.61983">
        <ele>58.2</ele>
        <time>2023-11-05T13:28:56Z</time>
      </trkpt>
      <trkpt lat="43.48727" lon="6.61982">
        <ele>58.1</ele>
        <time>2023-11-05T13:28:57Z</time>
      </trkpt>
      <trkpt lat="43.48728" lon="6.61982">
        <ele>58</ele>
        <time>2023-11-05T13:28:58Z</time>
      </trkpt>
      <trkpt lat="43.48729" lon="6.61982">
        <ele>58.1</ele>
        <time>2023-11-05T13:28:59Z</time>
      </trkpt>
      <trkpt lat="43.4873" lon="6.61982">
        <ele>58</ele>
        <time>2023-11-05T13:29:00Z</time>
      </trkpt>
      <trkpt lat="43.48732" lon="6.61982">
        <ele>57.9</ele>
        <time>2023-11-05T13:29:01Z</time>
      </trkpt>
      <trkpt lat="43.48733" lon="6.61983">
        <ele>57.9</ele>
        <time>2023-11-05T13:29:02Z</time>
      </trkpt>
      <trkpt lat="43.48734" lon="6.61983">
        <ele>57.9</ele>
        <time>2023-11-05T13:29:03Z</time>
      </trkpt>
      <trkpt lat="43.48735" lon="6.61983">
        <ele>57.8</ele>
        <time>2023-11-05T13:29:04Z</time>
      </trkpt>
      <trkpt lat="43.48736" lon="6.61984">
        <ele>57.8</ele>
        <time>2023-11-05T13:29:05Z</time>
      </trkpt>
      <trkpt lat="43.48737" lon="6.61984">
        <ele>57.8</ele>
        <time>2023-11-05T13:29:06Z</time>
      </trkpt>
      <trkpt lat="43.48739" lon="6.61985">
        <ele>57.9</ele>
        <time>2023-11-05T13:29:07Z</time>
      </trkpt>
      <trkpt lat="43.4874" lon="6.61985">
        <ele>57.9</ele>
        <time>2023-11-05T13:29:08Z</time>
      </trkpt>
      <trkpt lat="43.48741" lon="6.61985">
        <ele>57.9</ele>
        <time>2023-11-05T13:29:09Z</time>
      </trkpt>
      <trkpt lat="43.48743" lon="6.61985">
        <ele>57.9</ele>
        <time>2023-11-05T13:29:10Z</time>
      </trkpt>
      <trkpt lat="43.48744" lon="6.61985">
        <ele>57.9</ele>
        <time>2023-11-05T13:29:11Z</time>
      </trkpt>
      <trkpt lat="43.48745" lon="6.61985">
        <ele>58</ele>
        <time>2023-11-05T13:29:12Z</time>
      </trkpt>
      <trkpt lat="43.48746" lon="6.61985">
        <ele>58.1</ele>
        <time>2023-11-05T13:29:13Z</time>
      </trkpt>
      <trkpt lat="43.48747" lon="6.61985">
        <ele>58.2</ele>
        <time>2023-11-05T13:29:14Z</time>
      </trkpt>
      <trkpt lat="43.48749" lon="6.61985">
        <ele>58.1</ele>
        <time>2023-11-05T13:29:15Z</time>
      </trkpt>
      <trkpt lat="43.4875" lon="6.61985">
        <ele>58.1</ele>
        <time>2023-11-05T13:29:16Z</time>
      </trkpt>
      <trkpt lat="43.48752" lon="6.61985">
        <ele>58.1</ele>
        <time>2023-11-05T13:29:17Z</time>
      </trkpt>
      <trkpt lat="43.48753" lon="6.61985">
        <ele>57.9</ele>
        <time>2023-11-05T13:29:18Z</time>
      </trkpt>
      <trkpt lat="43.48754" lon="6.61985">
        <ele>57.8</ele>
        <time>2023-11-05T13:29:19Z</time>
      </trkpt>
      <trkpt lat="43.48755" lon="6.61985">
        <ele>57.7</ele>
        <time>2023-11-05T13:29:20Z</time>
      </trkpt>
      <trkpt lat="43.48757" lon="6.61985">
        <ele>57.7</ele>
        <time>2023-11-05T13:29:21Z</time>
      </trkpt>
      <trkpt lat="43.48758" lon="6.61985">
        <ele>57.6</ele>
        <time>2023-11-05T13:29:22Z</time>
      </trkpt>
      <trkpt lat="43.48759" lon="6.61984">
        <ele>57.6</ele>
        <time>2023-11-05T13:29:23Z</time>
      </trkpt>
      <trkpt lat="43.4876" lon="6.61984">
        <ele>57.6</ele>
        <time>2023-11-05T13:29:24Z</time>
      </trkpt>
      <trkpt lat="43.48762" lon="6.61984">
        <ele>57.5</ele>
        <time>2023-11-05T13:29:25Z</time>
      </trkpt>
      <trkpt lat="43.48763" lon="6.61984">
        <ele>57.3</ele>
        <time>2023-11-05T13:29:26Z</time>
      </trkpt>
      <trkpt lat="43.48764" lon="6.61984">
        <ele>57.2</ele>
        <time>2023-11-05T13:29:27Z</time>
      </trkpt>
      <trkpt lat="43.48766" lon="6.61983">
        <ele>57.2</ele>
        <time>2023-11-05T13:29:28Z</time>
      </trkpt>
      <trkpt lat="43.48767" lon="6.61983">
        <ele>57.2</ele>
        <time>2023-11-05T13:29:29Z</time>
      </trkpt>
      <trkpt lat="43.48768" lon="6.61982">
        <ele>57.1</ele>
        <time>2023-11-05T13:29:30Z</time>
      </trkpt>
      <trkpt lat="43.48769" lon="6.61982">
        <ele>57.1</ele>
        <time>2023-11-05T13:29:31Z</time>
      </trkpt>
      <trkpt lat="43.4877" lon="6.61981">
        <ele>57</ele>
        <time>2023-11-05T13:29:32Z</time>
      </trkpt>
      <trkpt lat="43.48771" lon="6.61981">
        <ele>57</ele>
        <time>2023-11-05T13:29:33Z</time>
      </trkpt>
      <trkpt lat="43.48772" lon="6.6198">
        <ele>56.9</ele>
        <time>2023-11-05T13:29:34Z</time>
      </trkpt>
      <trkpt lat="43.48774" lon="6.6198">
        <ele>56.8</ele>
        <time>2023-11-05T13:29:35Z</time>
      </trkpt>
      <trkpt lat="43.48775" lon="6.6198">
        <ele>56.7</ele>
        <time>2023-11-05T13:29:36Z</time>
      </trkpt>
      <trkpt lat="43.48775" lon="6.6198">
        <ele>56.7</ele>
        <time>2023-11-05T13:29:37Z</time>
      </trkpt>
      <trkpt lat="43.48776" lon="6.6198">
        <ele>56.6</ele>
        <time>2023-11-05T13:29:38Z</time>
      </trkpt>
      <trkpt lat="43.48776" lon="6.6198">
        <ele>56.8</ele>
        <time>2023-11-05T13:29:39Z</time>
      </trkpt>
      <trkpt lat="43.48776" lon="6.6198">
        <ele>56.9</ele>
        <time>2023-11-05T13:29:40Z</time>
      </trkpt>
      <trkpt lat="43.48776" lon="6.6198">
        <ele>57</ele>
        <time>2023-11-05T13:29:41Z</time>
      </trkpt>
      <trkpt lat="43.48776" lon="6.6198">
        <ele>57.1</ele>
        <time>2023-11-05T13:29:42Z</time>
      </trkpt>
      <trkpt lat="43.48776" lon="6.6198">
        <ele>57.2</ele>
        <time>2023-11-05T13:29:43Z</time>
      </trkpt>
      <trkpt lat="43.48777" lon="6.6198">
        <ele>57.2</ele>
        <time>2023-11-05T13:29:44Z</time>
      </trkpt>
      <trkpt lat="43.48778" lon="6.61979">
        <ele>57.2</ele>
        <time>2023-11-05T13:29:45Z</time>
      </trkpt>
      <trkpt lat="43.48778" lon="6.61979">
        <ele>57.1</ele>
        <time>2023-11-05T13:29:46Z</time>
      </trkpt>
      <trkpt lat="43.48778" lon="6.61978">
        <ele>57.1</ele>
        <time>2023-11-05T13:29:47Z</time>
      </trkpt>
      <trkpt lat="43.48779" lon="6.61978">
        <ele>57.1</ele>
        <time>2023-11-05T13:29:48Z</time>
      </trkpt>
      <trkpt lat="43.48778" lon="6.61979">
        <ele>57.1</ele>
        <time>2023-11-05T13:29:49Z</time>
      </trkpt>
      <trkpt lat="43.48778" lon="6.61978">
        <ele>57</ele>
        <time>2023-11-05T13:29:50Z</time>
      </trkpt>
      <trkpt lat="43.48779" lon="6.61979">
        <ele>57</ele>
        <time>2023-11-05T13:29:51Z</time>
      </trkpt>
      <trkpt lat="43.4878" lon="6.61978">
        <ele>57</ele>
        <time>2023-11-05T13:29:52Z</time>
      </trkpt>
      <trkpt lat="43.48781" lon="6.61978">
        <ele>56.9</ele>
        <time>2023-11-05T13:29:53Z</time>
      </trkpt>
      <trkpt lat="43.48782" lon="6.61978">
        <ele>56.8</ele>
        <time>2023-11-05T13:29:54Z</time>
      </trkpt>
      <trkpt lat="43.48782" lon="6.61977">
        <ele>56.7</ele>
        <time>2023-11-05T13:29:55Z</time>
      </trkpt>
      <trkpt lat="43.48783" lon="6.61977">
        <ele>56.6</ele>
        <time>2023-11-05T13:29:56Z</time>
      </trkpt>
      <trkpt lat="43.48784" lon="6.61977">
        <ele>56.4</ele>
        <time>2023-11-05T13:29:57Z</time>
      </trkpt>
      <trkpt lat="43.48785" lon="6.61977">
        <ele>56.3</ele>
        <time>2023-11-05T13:29:58Z</time>
      </trkpt>
      <trkpt lat="43.48786" lon="6.61976">
        <ele>56.3</ele>
        <time>2023-11-05T13:29:59Z</time>
      </trkpt>
      <trkpt lat="43.48787" lon="6.61976">
        <ele>56.2</ele>
        <time>2023-11-05T13:30:00Z</time>
      </trkpt>
      <trkpt lat="43.48788" lon="6.61976">
        <ele>56.1</ele>
        <time>2023-11-05T13:30:01Z</time>
      </trkpt>
      <trkpt lat="43.48789" lon="6.61976">
        <ele>56.1</ele>
        <time>2023-11-05T13:30:02Z</time>
      </trkpt>
      <trkpt lat="43.4879" lon="6.61976">
        <ele>56.1</ele>
        <time>2023-11-05T13:30:03Z</time>
      </trkpt>
      <trkpt lat="43.48791" lon="6.61976">
        <ele>56</ele>
        <time>2023-11-05T13:30:04Z</time>
      </trkpt>
      <trkpt lat="43.48792" lon="6.61976">
        <ele>56.1</ele>
        <time>2023-11-05T13:30:05Z</time>
      </trkpt>
      <trkpt lat="43.48793" lon="6.61976">
        <ele>56.1</ele>
        <time>2023-11-05T13:30:06Z</time>
      </trkpt>
      <trkpt lat="43.48794" lon="6.61976">
        <ele>56.1</ele>
        <time>2023-11-05T13:30:07Z</time>
      </trkpt>
      <trkpt lat="43.48794" lon="6.61975">
        <ele>56.1</ele>
        <time>2023-11-05T13:30:08Z</time>
      </trkpt>
      <trkpt lat="43.48795" lon="6.61976">
        <ele>56</ele>
        <time>2023-11-05T13:30:09Z</time>
      </trkpt>
      <trkpt lat="43.48796" lon="6.61976">
        <ele>56</ele>
        <time>2023-11-05T13:30:10Z</time>
      </trkpt>
      <trkpt lat="43.48797" lon="6.61975">
        <ele>56</ele>
        <time>2023-11-05T13:30:11Z</time>
      </trkpt>
      <trkpt lat="43.48798" lon="6.61975">
        <ele>56</ele>
        <time>2023-11-05T13:30:12Z</time>
      </trkpt>
      <trkpt lat="43.48798" lon="6.61974">
        <ele>55.9</ele>
        <time>2023-11-05T13:30:13Z</time>
      </trkpt>
      <trkpt lat="43.48798" lon="6.61974">
        <ele>55.9</ele>
        <time>2023-11-05T13:30:14Z</time>
      </trkpt>
      <trkpt lat="43.48798" lon="6.61974">
        <ele>55.6</ele>
        <time>2023-11-05T13:30:15Z</time>
      </trkpt>
      <trkpt lat="43.48798" lon="6.61974">
        <ele>55.5</ele>
        <time>2023-11-05T13:30:16Z</time>
      </trkpt>
      <trkpt lat="43.48798" lon="6.61974">
        <ele>55.5</ele>
        <time>2023-11-05T13:30:17Z</time>
      </trkpt>
      <trkpt lat="43.48798" lon="6.61973">
        <ele>55.6</ele>
        <time>2023-11-05T13:30:18Z</time>
      </trkpt>
      <trkpt lat="43.48798" lon="6.61973">
        <ele>55.6</ele>
        <time>2023-11-05T13:30:19Z</time>
      </trkpt>
      <trkpt lat="43.48798" lon="6.61973">
        <ele>55.7</ele>
        <time>2023-11-05T13:30:20Z</time>
      </trkpt>
      <trkpt lat="43.48798" lon="6.61974">
        <ele>55.7</ele>
        <time>2023-11-05T13:30:21Z</time>
      </trkpt>
      <trkpt lat="43.48798" lon="6.61973">
        <ele>55.8</ele>
        <time>2023-11-05T13:30:22Z</time>
      </trkpt>
      <trkpt lat="43.48798" lon="6.61973">
        <ele>56</ele>
        <time>2023-11-05T13:30:23Z</time>
      </trkpt>
      <trkpt lat="43.48798" lon="6.61973">
        <ele>56.1</ele>
        <time>2023-11-05T13:30:24Z</time>
      </trkpt>
      <trkpt lat="43.48798" lon="6.61973">
        <ele>56.1</ele>
        <time>2023-11-05T13:30:25Z</time>
      </trkpt>
      <trkpt lat="43.48798" lon="6.61973">
        <ele>56</ele>
        <time>2023-11-05T13:30:26Z</time>
      </trkpt>
      <trkpt lat="43.48798" lon="6.61972">
        <ele>56</ele>
        <time>2023-11-05T13:30:27Z</time>
      </trkpt>
      <trkpt lat="43.48798" lon="6.61972">
        <ele>56</ele>
        <time>2023-11-05T13:30:28Z</time>
      </trkpt>
      <trkpt lat="43.48798" lon="6.61972">
        <ele>56</ele>
        <time>2023-11-05T13:30:29Z</time>
      </trkpt>
      <trkpt lat="43.48798" lon="6.61972">
        <ele>56</ele>
        <time>2023-11-05T13:30:30Z</time>
      </trkpt>
      <trkpt lat="43.48798" lon="6.61972">
        <ele>55.9</ele>
        <time>2023-11-05T13:30:31Z</time>
      </trkpt>
      <trkpt lat="43.48798" lon="6.61972">
        <ele>55.9</ele>
        <time>2023-11-05T13:30:32Z</time>
      </trkpt>
      <trkpt lat="43.48798" lon="6.61972">
        <ele>56</ele>
        <time>2023-11-05T13:30:33Z</time>
      </trkpt>
      <trkpt lat="43.48798" lon="6.61971">
        <ele>56.1</ele>
        <time>2023-11-05T13:30:34Z</time>
      </trkpt>
      <trkpt lat="43.48798" lon="6.61971">
        <ele>56.2</ele>
        <time>2023-11-05T13:30:35Z</time>
      </trkpt>
      <trkpt lat="43.48798" lon="6.61971">
        <ele>56.2</ele>
        <time>2023-11-05T13:30:36Z</time>
      </trkpt>
      <trkpt lat="43.48799" lon="6.61971">
        <ele>56.1</ele>
        <time>2023-11-05T13:30:37Z</time>
      </trkpt>
      <trkpt lat="43.488" lon="6.61971">
        <ele>56.1</ele>
        <time>2023-11-05T13:30:38Z</time>
      </trkpt>
      <trkpt lat="43.488" lon="6.61971">
        <ele>56.1</ele>
        <time>2023-11-05T13:30:39Z</time>
      </trkpt>
      <trkpt lat="43.48801" lon="6.6197">
        <ele>56.1</ele>
        <time>2023-11-05T13:30:40Z</time>
      </trkpt>
      <trkpt lat="43.48802" lon="6.6197">
        <ele>56.1</ele>
        <time>2023-11-05T13:30:41Z</time>
      </trkpt>
      <trkpt lat="43.48803" lon="6.61969">
        <ele>56</ele>
        <time>2023-11-05T13:30:42Z</time>
      </trkpt>
      <trkpt lat="43.48804" lon="6.61969">
        <ele>55.9</ele>
        <time>2023-11-05T13:30:43Z</time>
      </trkpt>
      <trkpt lat="43.48804" lon="6.61968">
        <ele>55.9</ele>
        <time>2023-11-05T13:30:44Z</time>
      </trkpt>
      <trkpt lat="43.48805" lon="6.61968">
        <ele>55.8</ele>
        <time>2023-11-05T13:30:45Z</time>
      </trkpt>
      <trkpt lat="43.48806" lon="6.61967">
        <ele>55.7</ele>
        <time>2023-11-05T13:30:46Z</time>
      </trkpt>
      <trkpt lat="43.48807" lon="6.61967">
        <ele>55.7</ele>
        <time>2023-11-05T13:30:47Z</time>
      </trkpt>
      <trkpt lat="43.48808" lon="6.61967">
        <ele>55.7</ele>
        <time>2023-11-05T13:30:48Z</time>
      </trkpt>
      <trkpt lat="43.48808" lon="6.61967">
        <ele>55.5</ele>
        <time>2023-11-05T13:30:49Z</time>
      </trkpt>
      <trkpt lat="43.48809" lon="6.61967">
        <ele>55.3</ele>
        <time>2023-11-05T13:30:50Z</time>
      </trkpt>
      <trkpt lat="43.4881" lon="6.61966">
        <ele>55.1</ele>
        <time>2023-11-05T13:30:51Z</time>
      </trkpt>
      <trkpt lat="43.48811" lon="6.61966">
        <ele>55.1</ele>
        <time>2023-11-05T13:30:52Z</time>
      </trkpt>
      <trkpt lat="43.48812" lon="6.61966">
        <ele>55</ele>
        <time>2023-11-05T13:30:53Z</time>
      </trkpt>
      <trkpt lat="43.48813" lon="6.61966">
        <ele>55</ele>
        <time>2023-11-05T13:30:54Z</time>
      </trkpt>
      <trkpt lat="43.48814" lon="6.61966">
        <ele>54.9</ele>
        <time>2023-11-05T13:30:55Z</time>
      </trkpt>
      <trkpt lat="43.48814" lon="6.61965">
        <ele>54.8</ele>
        <time>2023-11-05T13:30:56Z</time>
      </trkpt>
      <trkpt lat="43.48814" lon="6.61965">
        <ele>54.8</ele>
        <time>2023-11-05T13:30:57Z</time>
      </trkpt>
      <trkpt lat="43.48815" lon="6.61966">
        <ele>54.9</ele>
        <time>2023-11-05T13:30:58Z</time>
      </trkpt>
      <trkpt lat="43.48816" lon="6.61965">
        <ele>54.9</ele>
        <time>2023-11-05T13:30:59Z</time>
      </trkpt>
      <trkpt lat="43.48817" lon="6.61965">
        <ele>54.8</ele>
        <time>2023-11-05T13:31:00Z</time>
      </trkpt>
      <trkpt lat="43.48819" lon="6.61965">
        <ele>54.7</ele>
        <time>2023-11-05T13:31:01Z</time>
      </trkpt>
      <trkpt lat="43.48819" lon="6.61964">
        <ele>54.5</ele>
        <time>2023-11-05T13:31:02Z</time>
      </trkpt>
      <trkpt lat="43.48821" lon="6.61964">
        <ele>54.4</ele>
        <time>2023-11-05T13:31:03Z</time>
      </trkpt>
      <trkpt lat="43.48822" lon="6.61963">
        <ele>54.3</ele>
        <time>2023-11-05T13:31:04Z</time>
      </trkpt>
      <trkpt lat="43.48822" lon="6.61963">
        <ele>54.1</ele>
        <time>2023-11-05T13:31:05Z</time>
      </trkpt>
      <trkpt lat="43.48823" lon="6.61963">
        <ele>54</ele>
        <time>2023-11-05T13:31:06Z</time>
      </trkpt>
      <trkpt lat="43.48824" lon="6.61963">
        <ele>53.9</ele>
        <time>2023-11-05T13:31:07Z</time>
      </trkpt>
      <trkpt lat="43.48825" lon="6.61963">
        <ele>53.9</ele>
        <time>2023-11-05T13:31:08Z</time>
      </trkpt>
      <trkpt lat="43.48826" lon="6.61962">
        <ele>53.8</ele>
        <time>2023-11-05T13:31:09Z</time>
      </trkpt>
      <trkpt lat="43.48828" lon="6.61962">
        <ele>53.8</ele>
        <time>2023-11-05T13:31:10Z</time>
      </trkpt>
      <trkpt lat="43.48829" lon="6.61961">
        <ele>53.7</ele>
        <time>2023-11-05T13:31:11Z</time>
      </trkpt>
      <trkpt lat="43.48829" lon="6.61961">
        <ele>53.7</ele>
        <time>2023-11-05T13:31:12Z</time>
      </trkpt>
      <trkpt lat="43.4883" lon="6.61961">
        <ele>53.6</ele>
        <time>2023-11-05T13:31:13Z</time>
      </trkpt>
      <trkpt lat="43.48831" lon="6.6196">
        <ele>53.5</ele>
        <time>2023-11-05T13:31:14Z</time>
      </trkpt>
      <trkpt lat="43.48832" lon="6.6196">
        <ele>53.4</ele>
        <time>2023-11-05T13:31:15Z</time>
      </trkpt>
      <trkpt lat="43.48833" lon="6.61959">
        <ele>53.3</ele>
        <time>2023-11-05T13:31:16Z</time>
      </trkpt>
      <trkpt lat="43.48834" lon="6.61959">
        <ele>53.2</ele>
        <time>2023-11-05T13:31:17Z</time>
      </trkpt>
      <trkpt lat="43.48835" lon="6.61959">
        <ele>52.9</ele>
        <time>2023-11-05T13:31:18Z</time>
      </trkpt>
      <trkpt lat="43.48837" lon="6.61958">
        <ele>52.9</ele>
        <time>2023-11-05T13:31:19Z</time>
      </trkpt>
      <trkpt lat="43.48838" lon="6.61958">
        <ele>52.8</ele>
        <time>2023-11-05T13:31:20Z</time>
      </trkpt>
      <trkpt lat="43.48839" lon="6.61957">
        <ele>52.7</ele>
        <time>2023-11-05T13:31:21Z</time>
      </trkpt>
      <trkpt lat="43.4884" lon="6.61957">
        <ele>52.5</ele>
        <time>2023-11-05T13:31:22Z</time>
      </trkpt>
      <trkpt lat="43.48841" lon="6.61957">
        <ele>52.3</ele>
        <time>2023-11-05T13:31:23Z</time>
      </trkpt>
      <trkpt lat="43.48842" lon="6.61956">
        <ele>52.2</ele>
        <time>2023-11-05T13:31:24Z</time>
      </trkpt>
      <trkpt lat="43.48843" lon="6.61956">
        <ele>52.1</ele>
        <time>2023-11-05T13:31:25Z</time>
      </trkpt>
      <trkpt lat="43.48844" lon="6.61956">
        <ele>52</ele>
        <time>2023-11-05T13:31:26Z</time>
      </trkpt>
      <trkpt lat="43.48846" lon="6.61955">
        <ele>51.8</ele>
        <time>2023-11-05T13:31:27Z</time>
      </trkpt>
      <trkpt lat="43.48847" lon="6.61955">
        <ele>51.6</ele>
        <time>2023-11-05T13:31:28Z</time>
      </trkpt>
      <trkpt lat="43.48848" lon="6.61955">
        <ele>51.5</ele>
        <time>2023-11-05T13:31:29Z</time>
      </trkpt>
      <trkpt lat="43.48849" lon="6.61954">
        <ele>51.6</ele>
        <time>2023-11-05T13:31:30Z</time>
      </trkpt>
      <trkpt lat="43.4885" lon="6.61954">
        <ele>51.6</ele>
        <time>2023-11-05T13:31:31Z</time>
      </trkpt>
      <trkpt lat="43.48851" lon="6.61953">
        <ele>51.6</ele>
        <time>2023-11-05T13:31:32Z</time>
      </trkpt>
      <trkpt lat="43.48852" lon="6.61953">
        <ele>51.6</ele>
        <time>2023-11-05T13:31:33Z</time>
      </trkpt>
      <trkpt lat="43.48853" lon="6.61952">
        <ele>51.4</ele>
        <time>2023-11-05T13:31:34Z</time>
      </trkpt>
      <trkpt lat="43.48854" lon="6.61952">
        <ele>51.2</ele>
        <time>2023-11-05T13:31:35Z</time>
      </trkpt>
      <trkpt lat="43.48855" lon="6.61952">
        <ele>51.1</ele>
        <time>2023-11-05T13:31:36Z</time>
      </trkpt>
      <trkpt lat="43.48856" lon="6.61951">
        <ele>51</ele>
        <time>2023-11-05T13:31:37Z</time>
      </trkpt>
      <trkpt lat="43.48857" lon="6.61951">
        <ele>51</ele>
        <time>2023-11-05T13:31:38Z</time>
      </trkpt>
      <trkpt lat="43.48858" lon="6.6195">
        <ele>50.9</ele>
        <time>2023-11-05T13:31:39Z</time>
      </trkpt>
      <trkpt lat="43.48859" lon="6.6195">
        <ele>50.8</ele>
        <time>2023-11-05T13:31:40Z</time>
      </trkpt>
      <trkpt lat="43.4886" lon="6.6195">
        <ele>50.6</ele>
        <time>2023-11-05T13:31:41Z</time>
      </trkpt>
      <trkpt lat="43.48861" lon="6.6195">
        <ele>50.5</ele>
        <time>2023-11-05T13:31:42Z</time>
      </trkpt>
      <trkpt lat="43.48862" lon="6.61949">
        <ele>50.4</ele>
        <time>2023-11-05T13:31:43Z</time>
      </trkpt>
      <trkpt lat="43.48863" lon="6.61949">
        <ele>50.3</ele>
        <time>2023-11-05T13:31:44Z</time>
      </trkpt>
      <trkpt lat="43.48864" lon="6.61949">
        <ele>50.3</ele>
        <time>2023-11-05T13:31:45Z</time>
      </trkpt>
      <trkpt lat="43.48865" lon="6.61949">
        <ele>50.2</ele>
        <time>2023-11-05T13:31:46Z</time>
      </trkpt>
      <trkpt lat="43.48866" lon="6.61948">
        <ele>50</ele>
        <time>2023-11-05T13:31:47Z</time>
      </trkpt>
      <trkpt lat="43.48867" lon="6.61948">
        <ele>50</ele>
        <time>2023-11-05T13:31:48Z</time>
      </trkpt>
      <trkpt lat="43.48868" lon="6.61948">
        <ele>49.8</ele>
        <time>2023-11-05T13:31:49Z</time>
      </trkpt>
      <trkpt lat="43.48869" lon="6.61948">
        <ele>49.8</ele>
        <time>2023-11-05T13:31:50Z</time>
      </trkpt>
      <trkpt lat="43.48869" lon="6.61948">
        <ele>49.7</ele>
        <time>2023-11-05T13:31:51Z</time>
      </trkpt>
      <trkpt lat="43.4887" lon="6.61949">
        <ele>49.5</ele>
        <time>2023-11-05T13:31:52Z</time>
      </trkpt>
      <trkpt lat="43.48871" lon="6.61949">
        <ele>49.4</ele>
        <time>2023-11-05T13:31:53Z</time>
      </trkpt>
      <trkpt lat="43.48872" lon="6.61949">
        <ele>49.3</ele>
        <time>2023-11-05T13:31:54Z</time>
      </trkpt>
      <trkpt lat="43.48873" lon="6.61949">
        <ele>49</ele>
        <time>2023-11-05T13:31:55Z</time>
      </trkpt>
      <trkpt lat="43.48874" lon="6.61949">
        <ele>48.8</ele>
        <time>2023-11-05T13:31:56Z</time>
      </trkpt>
      <trkpt lat="43.48875" lon="6.61949">
        <ele>48.7</ele>
        <time>2023-11-05T13:31:57Z</time>
      </trkpt>
      <trkpt lat="43.48876" lon="6.61949">
        <ele>48.6</ele>
        <time>2023-11-05T13:31:58Z</time>
      </trkpt>
      <trkpt lat="43.48878" lon="6.6195">
        <ele>48.4</ele>
        <time>2023-11-05T13:31:59Z</time>
      </trkpt>
      <trkpt lat="43.48879" lon="6.6195">
        <ele>48.2</ele>
        <time>2023-11-05T13:32:00Z</time>
      </trkpt>
      <trkpt lat="43.4888" lon="6.6195">
        <ele>48.1</ele>
        <time>2023-11-05T13:32:01Z</time>
      </trkpt>
      <trkpt lat="43.48881" lon="6.6195">
        <ele>48</ele>
        <time>2023-11-05T13:32:02Z</time>
      </trkpt>
      <trkpt lat="43.48882" lon="6.6195">
        <ele>48</ele>
        <time>2023-11-05T13:32:03Z</time>
      </trkpt>
      <trkpt lat="43.48883" lon="6.6195">
        <ele>47.9</ele>
        <time>2023-11-05T13:32:04Z</time>
      </trkpt>
      <trkpt lat="43.48883" lon="6.6195">
        <ele>47.9</ele>
        <time>2023-11-05T13:32:05Z</time>
      </trkpt>
      <trkpt lat="43.48885" lon="6.61951">
        <ele>47.8</ele>
        <time>2023-11-05T13:32:06Z</time>
      </trkpt>
      <trkpt lat="43.48886" lon="6.61951">
        <ele>47.7</ele>
        <time>2023-11-05T13:32:07Z</time>
      </trkpt>
      <trkpt lat="43.48887" lon="6.61951">
        <ele>47.7</ele>
        <time>2023-11-05T13:32:08Z</time>
      </trkpt>
      <trkpt lat="43.48888" lon="6.61951">
        <ele>47.7</ele>
        <time>2023-11-05T13:32:09Z</time>
      </trkpt>
      <trkpt lat="43.48889" lon="6.61951">
        <ele>47.6</ele>
        <time>2023-11-05T13:32:10Z</time>
      </trkpt>
      <trkpt lat="43.4889" lon="6.61951">
        <ele>47.5</ele>
        <time>2023-11-05T13:32:11Z</time>
      </trkpt>
      <trkpt lat="43.48892" lon="6.61951">
        <ele>47.4</ele>
        <time>2023-11-05T13:32:12Z</time>
      </trkpt>
      <trkpt lat="43.48893" lon="6.61951">
        <ele>47.4</ele>
        <time>2023-11-05T13:32:13Z</time>
      </trkpt>
      <trkpt lat="43.48894" lon="6.61951">
        <ele>47.3</ele>
        <time>2023-11-05T13:32:14Z</time>
      </trkpt>
      <trkpt lat="43.48895" lon="6.6195">
        <ele>47.2</ele>
        <time>2023-11-05T13:32:15Z</time>
      </trkpt>
      <trkpt lat="43.48896" lon="6.61951">
        <ele>47.2</ele>
        <time>2023-11-05T13:32:16Z</time>
      </trkpt>
      <trkpt lat="43.48897" lon="6.61951">
        <ele>47</ele>
        <time>2023-11-05T13:32:17Z</time>
      </trkpt>
      <trkpt lat="43.48899" lon="6.61951">
        <ele>46.9</ele>
        <time>2023-11-05T13:32:18Z</time>
      </trkpt>
      <trkpt lat="43.489" lon="6.61951">
        <ele>46.9</ele>
        <time>2023-11-05T13:32:19Z</time>
      </trkpt>
      <trkpt lat="43.48901" lon="6.61951">
        <ele>46.8</ele>
        <time>2023-11-05T13:32:20Z</time>
      </trkpt>
      <trkpt lat="43.48902" lon="6.61951">
        <ele>46.8</ele>
        <time>2023-11-05T13:32:21Z</time>
      </trkpt>
      <trkpt lat="43.48903" lon="6.6195">
        <ele>46.7</ele>
        <time>2023-11-05T13:32:22Z</time>
      </trkpt>
      <trkpt lat="43.48904" lon="6.6195">
        <ele>46.6</ele>
        <time>2023-11-05T13:32:23Z</time>
      </trkpt>
      <trkpt lat="43.48905" lon="6.6195">
        <ele>46.4</ele>
        <time>2023-11-05T13:32:24Z</time>
      </trkpt>
      <trkpt lat="43.48906" lon="6.6195">
        <ele>46.2</ele>
        <time>2023-11-05T13:32:25Z</time>
      </trkpt>
      <trkpt lat="43.48907" lon="6.61951">
        <ele>46.2</ele>
        <time>2023-11-05T13:32:26Z</time>
      </trkpt>
      <trkpt lat="43.48909" lon="6.61951">
        <ele>46.2</ele>
        <time>2023-11-05T13:32:27Z</time>
      </trkpt>
      <trkpt lat="43.4891" lon="6.61951">
        <ele>46.1</ele>
        <time>2023-11-05T13:32:28Z</time>
      </trkpt>
      <trkpt lat="43.48911" lon="6.61951">
        <ele>46</ele>
        <time>2023-11-05T13:32:29Z</time>
      </trkpt>
      <trkpt lat="43.48912" lon="6.61951">
        <ele>46</ele>
        <time>2023-11-05T13:32:30Z</time>
      </trkpt>
      <trkpt lat="43.48913" lon="6.61951">
        <ele>46</ele>
        <time>2023-11-05T13:32:31Z</time>
      </trkpt>
      <trkpt lat="43.48914" lon="6.61951">
        <ele>45.9</ele>
        <time>2023-11-05T13:32:32Z</time>
      </trkpt>
      <trkpt lat="43.48915" lon="6.61951">
        <ele>45.8</ele>
        <time>2023-11-05T13:32:33Z</time>
      </trkpt>
      <trkpt lat="43.48916" lon="6.61951">
        <ele>45.8</ele>
        <time>2023-11-05T13:32:34Z</time>
      </trkpt>
      <trkpt lat="43.48918" lon="6.6195">
        <ele>45.7</ele>
        <time>2023-11-05T13:32:35Z</time>
      </trkpt>
      <trkpt lat="43.48919" lon="6.6195">
        <ele>45.7</ele>
        <time>2023-11-05T13:32:36Z</time>
      </trkpt>
      <trkpt lat="43.4892" lon="6.61949">
        <ele>45.7</ele>
        <time>2023-11-05T13:32:37Z</time>
      </trkpt>
      <trkpt lat="43.48921" lon="6.6195">
        <ele>45.6</ele>
        <time>2023-11-05T13:32:38Z</time>
      </trkpt>
      <trkpt lat="43.48922" lon="6.6195">
        <ele>45.5</ele>
        <time>2023-11-05T13:32:39Z</time>
      </trkpt>
      <trkpt lat="43.48923" lon="6.6195">
        <ele>45.5</ele>
        <time>2023-11-05T13:32:40Z</time>
      </trkpt>
      <trkpt lat="43.48924" lon="6.6195">
        <ele>45.5</ele>
        <time>2023-11-05T13:32:41Z</time>
      </trkpt>
      <trkpt lat="43.48925" lon="6.61951">
        <ele>45.5</ele>
        <time>2023-11-05T13:32:42Z</time>
      </trkpt>
      <trkpt lat="43.48926" lon="6.61951">
        <ele>45.5</ele>
        <time>2023-11-05T13:32:43Z</time>
      </trkpt>
      <trkpt lat="43.48927" lon="6.61952">
        <ele>45.4</ele>
        <time>2023-11-05T13:32:44Z</time>
      </trkpt>
      <trkpt lat="43.48928" lon="6.61952">
        <ele>45.4</ele>
        <time>2023-11-05T13:32:45Z</time>
      </trkpt>
      <trkpt lat="43.48929" lon="6.61952">
        <ele>45.4</ele>
        <time>2023-11-05T13:32:46Z</time>
      </trkpt>
      <trkpt lat="43.4893" lon="6.61953">
        <ele>45.4</ele>
        <time>2023-11-05T13:32:47Z</time>
      </trkpt>
      <trkpt lat="43.48931" lon="6.61953">
        <ele>45.4</ele>
        <time>2023-11-05T13:32:48Z</time>
      </trkpt>
      <trkpt lat="43.48932" lon="6.61953">
        <ele>45.4</ele>
        <time>2023-11-05T13:32:49Z</time>
      </trkpt>
      <trkpt lat="43.48933" lon="6.61953">
        <ele>45.3</ele>
        <time>2023-11-05T13:32:50Z</time>
      </trkpt>
      <trkpt lat="43.48934" lon="6.61954">
        <ele>45.2</ele>
        <time>2023-11-05T13:32:51Z</time>
      </trkpt>
      <trkpt lat="43.48935" lon="6.61954">
        <ele>45.2</ele>
        <time>2023-11-05T13:32:52Z</time>
      </trkpt>
      <trkpt lat="43.48936" lon="6.61955">
        <ele>45.2</ele>
        <time>2023-11-05T13:32:53Z</time>
      </trkpt>
      <trkpt lat="43.48937" lon="6.61955">
        <ele>45.2</ele>
        <time>2023-11-05T13:32:54Z</time>
      </trkpt>
      <trkpt lat="43.48939" lon="6.61955">
        <ele>45.2</ele>
        <time>2023-11-05T13:32:55Z</time>
      </trkpt>
      <trkpt lat="43.48939" lon="6.61956">
        <ele>45.2</ele>
        <time>2023-11-05T13:32:56Z</time>
      </trkpt>
      <trkpt lat="43.4894" lon="6.61956">
        <ele>45.2</ele>
        <time>2023-11-05T13:32:57Z</time>
      </trkpt>
      <trkpt lat="43.48941" lon="6.61956">
        <ele>45.1</ele>
        <time>2023-11-05T13:32:58Z</time>
      </trkpt>
      <trkpt lat="43.48942" lon="6.61956">
        <ele>44.9</ele>
        <time>2023-11-05T13:32:59Z</time>
      </trkpt>
      <trkpt lat="43.48944" lon="6.61956">
        <ele>44.8</ele>
        <time>2023-11-05T13:33:00Z</time>
      </trkpt>
      <trkpt lat="43.48945" lon="6.61956">
        <ele>44.6</ele>
        <time>2023-11-05T13:33:01Z</time>
      </trkpt>
      <trkpt lat="43.48946" lon="6.61957">
        <ele>44.5</ele>
        <time>2023-11-05T13:33:02Z</time>
      </trkpt>
      <trkpt lat="43.48948" lon="6.61957">
        <ele>44.4</ele>
        <time>2023-11-05T13:33:03Z</time>
      </trkpt>
      <trkpt lat="43.48949" lon="6.61957">
        <ele>44.4</ele>
        <time>2023-11-05T13:33:04Z</time>
      </trkpt>
      <trkpt lat="43.4895" lon="6.61957">
        <ele>44.4</ele>
        <time>2023-11-05T13:33:05Z</time>
      </trkpt>
      <trkpt lat="43.48951" lon="6.61957">
        <ele>44.5</ele>
        <time>2023-11-05T13:33:06Z</time>
      </trkpt>
      <trkpt lat="43.48952" lon="6.61956">
        <ele>44.5</ele>
        <time>2023-11-05T13:33:07Z</time>
      </trkpt>
      <trkpt lat="43.48953" lon="6.61956">
        <ele>44.5</ele>
        <time>2023-11-05T13:33:08Z</time>
      </trkpt>
      <trkpt lat="43.48955" lon="6.61956">
        <ele>44.4</ele>
        <time>2023-11-05T13:33:09Z</time>
      </trkpt>
      <trkpt lat="43.48956" lon="6.61956">
        <ele>44.3</ele>
        <time>2023-11-05T13:33:10Z</time>
      </trkpt>
      <trkpt lat="43.48957" lon="6.61955">
        <ele>44.2</ele>
        <time>2023-11-05T13:33:11Z</time>
      </trkpt>
      <trkpt lat="43.48958" lon="6.61955">
        <ele>44.1</ele>
        <time>2023-11-05T13:33:12Z</time>
      </trkpt>
      <trkpt lat="43.48959" lon="6.61954">
        <ele>44</ele>
        <time>2023-11-05T13:33:13Z</time>
      </trkpt>
      <trkpt lat="43.4896" lon="6.61954">
        <ele>43.9</ele>
        <time>2023-11-05T13:33:14Z</time>
      </trkpt>
      <trkpt lat="43.48962" lon="6.61953">
        <ele>43.9</ele>
        <time>2023-11-05T13:33:15Z</time>
      </trkpt>
      <trkpt lat="43.48963" lon="6.61952">
        <ele>43.8</ele>
        <time>2023-11-05T13:33:16Z</time>
      </trkpt>
      <trkpt lat="43.48964" lon="6.61952">
        <ele>43.7</ele>
        <time>2023-11-05T13:33:17Z</time>
      </trkpt>
      <trkpt lat="43.48966" lon="6.61951">
        <ele>43.6</ele>
        <time>2023-11-05T13:33:18Z</time>
      </trkpt>
      <trkpt lat="43.48967" lon="6.6195">
        <ele>43.5</ele>
        <time>2023-11-05T13:33:19Z</time>
      </trkpt>
      <trkpt lat="43.48968" lon="6.61949">
        <ele>43.5</ele>
        <time>2023-11-05T13:33:20Z</time>
      </trkpt>
      <trkpt lat="43.4897" lon="6.61949">
        <ele>43.5</ele>
        <time>2023-11-05T13:33:21Z</time>
      </trkpt>
      <trkpt lat="43.48971" lon="6.61948">
        <ele>43.5</ele>
        <time>2023-11-05T13:33:22Z</time>
      </trkpt>
      <trkpt lat="43.48972" lon="6.61948">
        <ele>43.4</ele>
        <time>2023-11-05T13:33:23Z</time>
      </trkpt>
      <trkpt lat="43.48973" lon="6.61947">
        <ele>43.3</ele>
        <time>2023-11-05T13:33:24Z</time>
      </trkpt>
      <trkpt lat="43.48974" lon="6.61947">
        <ele>43.1</ele>
        <time>2023-11-05T13:33:25Z</time>
      </trkpt>
      <trkpt lat="43.48975" lon="6.61947">
        <ele>43</ele>
        <time>2023-11-05T13:33:26Z</time>
      </trkpt>
      <trkpt lat="43.48976" lon="6.61946">
        <ele>42.9</ele>
        <time>2023-11-05T13:33:27Z</time>
      </trkpt>
      <trkpt lat="43.48977" lon="6.61946">
        <ele>42.8</ele>
        <time>2023-11-05T13:33:28Z</time>
      </trkpt>
      <trkpt lat="43.48978" lon="6.61945">
        <ele>42.8</ele>
        <time>2023-11-05T13:33:29Z</time>
      </trkpt>
      <trkpt lat="43.48979" lon="6.61944">
        <ele>42.7</ele>
        <time>2023-11-05T13:33:30Z</time>
      </trkpt>
      <trkpt lat="43.4898" lon="6.61945">
        <ele>42.6</ele>
        <time>2023-11-05T13:33:31Z</time>
      </trkpt>
      <trkpt lat="43.48981" lon="6.61944">
        <ele>42.6</ele>
        <time>2023-11-05T13:33:32Z</time>
      </trkpt>
      <trkpt lat="43.48982" lon="6.61945">
        <ele>42.5</ele>
        <time>2023-11-05T13:33:33Z</time>
      </trkpt>
      <trkpt lat="43.48982" lon="6.61944">
        <ele>42.5</ele>
        <time>2023-11-05T13:33:34Z</time>
      </trkpt>
      <trkpt lat="43.48982" lon="6.61944">
        <ele>42.5</ele>
        <time>2023-11-05T13:33:35Z</time>
      </trkpt>
      <trkpt lat="43.48982" lon="6.61944">
        <ele>42.4</ele>
        <time>2023-11-05T13:33:36Z</time>
      </trkpt>
      <trkpt lat="43.48982" lon="6.61945">
        <ele>42.4</ele>
        <time>2023-11-05T13:33:37Z</time>
      </trkpt>
      <trkpt lat="43.48982" lon="6.61945">
        <ele>42.4</ele>
        <time>2023-11-05T13:33:38Z</time>
      </trkpt>
      <trkpt lat="43.48982" lon="6.61945">
        <ele>42.4</ele>
        <time>2023-11-05T13:33:39Z</time>
      </trkpt>
      <trkpt lat="43.48983" lon="6.61946">
        <ele>42.4</ele>
        <time>2023-11-05T13:33:40Z</time>
      </trkpt>
      <trkpt lat="43.48983" lon="6.61946">
        <ele>42.5</ele>
        <time>2023-11-05T13:33:41Z</time>
      </trkpt>
      <trkpt lat="43.48984" lon="6.61947">
        <ele>42.5</ele>
        <time>2023-11-05T13:33:42Z</time>
      </trkpt>
      <trkpt lat="43.48984" lon="6.61946">
        <ele>42.5</ele>
        <time>2023-11-05T13:33:43Z</time>
      </trkpt>
      <trkpt lat="43.48985" lon="6.61946">
        <ele>42.5</ele>
        <time>2023-11-05T13:33:44Z</time>
      </trkpt>
      <trkpt lat="43.48986" lon="6.61946">
        <ele>42.5</ele>
        <time>2023-11-05T13:33:45Z</time>
      </trkpt>
      <trkpt lat="43.48987" lon="6.61945">
        <ele>42.5</ele>
        <time>2023-11-05T13:33:46Z</time>
      </trkpt>
      <trkpt lat="43.48988" lon="6.61945">
        <ele>42.5</ele>
        <time>2023-11-05T13:33:47Z</time>
      </trkpt>
      <trkpt lat="43.4899" lon="6.61945">
        <ele>42.6</ele>
        <time>2023-11-05T13:33:48Z</time>
      </trkpt>
      <trkpt lat="43.48991" lon="6.61945">
        <ele>42.6</ele>
        <time>2023-11-05T13:33:49Z</time>
      </trkpt>
      <trkpt lat="43.48992" lon="6.61944">
        <ele>42.7</ele>
        <time>2023-11-05T13:33:50Z</time>
      </trkpt>
      <trkpt lat="43.48993" lon="6.61943">
        <ele>42.8</ele>
        <time>2023-11-05T13:33:51Z</time>
      </trkpt>
      <trkpt lat="43.48994" lon="6.61942">
        <ele>42.9</ele>
        <time>2023-11-05T13:33:52Z</time>
      </trkpt>
      <trkpt lat="43.48995" lon="6.61941">
        <ele>42.9</ele>
        <time>2023-11-05T13:33:53Z</time>
      </trkpt>
      <trkpt lat="43.48997" lon="6.61941">
        <ele>42.9</ele>
        <time>2023-11-05T13:33:54Z</time>
      </trkpt>
      <trkpt lat="43.48998" lon="6.61941">
        <ele>43</ele>
        <time>2023-11-05T13:33:55Z</time>
      </trkpt>
      <trkpt lat="43.48999" lon="6.6194">
        <ele>42.9</ele>
        <time>2023-11-05T13:33:56Z</time>
      </trkpt>
      <trkpt lat="43.49" lon="6.61939">
        <ele>43</ele>
        <time>2023-11-05T13:33:57Z</time>
      </trkpt>
      <trkpt lat="43.49001" lon="6.61939">
        <ele>43</ele>
        <time>2023-11-05T13:33:58Z</time>
      </trkpt>
      <trkpt lat="43.49002" lon="6.61938">
        <ele>43.1</ele>
        <time>2023-11-05T13:33:59Z</time>
      </trkpt>
      <trkpt lat="43.49004" lon="6.61938">
        <ele>43.1</ele>
        <time>2023-11-05T13:34:00Z</time>
      </trkpt>
      <trkpt lat="43.49005" lon="6.61938">
        <ele>43.2</ele>
        <time>2023-11-05T13:34:01Z</time>
      </trkpt>
      <trkpt lat="43.49006" lon="6.61937">
        <ele>43.2</ele>
        <time>2023-11-05T13:34:02Z</time>
      </trkpt>
      <trkpt lat="43.49007" lon="6.61937">
        <ele>43.1</ele>
        <time>2023-11-05T13:34:03Z</time>
      </trkpt>
      <trkpt lat="43.49007" lon="6.61938">
        <ele>43.1</ele>
        <time>2023-11-05T13:34:04Z</time>
      </trkpt>
      <trkpt lat="43.49008" lon="6.61938">
        <ele>43.2</ele>
        <time>2023-11-05T13:34:05Z</time>
      </trkpt>
      <trkpt lat="43.49009" lon="6.61938">
        <ele>43.2</ele>
        <time>2023-11-05T13:34:06Z</time>
      </trkpt>
      <trkpt lat="43.4901" lon="6.61937">
        <ele>43.3</ele>
        <time>2023-11-05T13:34:07Z</time>
      </trkpt>
      <trkpt lat="43.49011" lon="6.61937">
        <ele>43.4</ele>
        <time>2023-11-05T13:34:08Z</time>
      </trkpt>
      <trkpt lat="43.49012" lon="6.61937">
        <ele>43.5</ele>
        <time>2023-11-05T13:34:09Z</time>
      </trkpt>
      <trkpt lat="43.49012" lon="6.61936">
        <ele>43.5</ele>
        <time>2023-11-05T13:34:10Z</time>
      </trkpt>
      <trkpt lat="43.49013" lon="6.61936">
        <ele>43.5</ele>
        <time>2023-11-05T13:34:11Z</time>
      </trkpt>
      <trkpt lat="43.49014" lon="6.61936">
        <ele>43.5</ele>
        <time>2023-11-05T13:34:12Z</time>
      </trkpt>
      <trkpt lat="43.49014" lon="6.61936">
        <ele>43.5</ele>
        <time>2023-11-05T13:34:13Z</time>
      </trkpt>
      <trkpt lat="43.49015" lon="6.61936">
        <ele>43.4</ele>
        <time>2023-11-05T13:34:14Z</time>
      </trkpt>
      <trkpt lat="43.49016" lon="6.61936">
        <ele>43.4</ele>
        <time>2023-11-05T13:34:15Z</time>
      </trkpt>
      <trkpt lat="43.49018" lon="6.61935">
        <ele>43.4</ele>
        <time>2023-11-05T13:34:16Z</time>
      </trkpt>
      <trkpt lat="43.49019" lon="6.61934">
        <ele>43.5</ele>
        <time>2023-11-05T13:34:17Z</time>
      </trkpt>
      <trkpt lat="43.4902" lon="6.61933">
        <ele>43.5</ele>
        <time>2023-11-05T13:34:18Z</time>
      </trkpt>
      <trkpt lat="43.49022" lon="6.61933">
        <ele>43.6</ele>
        <time>2023-11-05T13:34:19Z</time>
      </trkpt>
      <trkpt lat="43.49023" lon="6.61934">
        <ele>43.6</ele>
        <time>2023-11-05T13:34:20Z</time>
      </trkpt>
      <trkpt lat="43.49024" lon="6.61934">
        <ele>43.7</ele>
        <time>2023-11-05T13:34:21Z</time>
      </trkpt>
      <trkpt lat="43.49025" lon="6.61935">
        <ele>43.8</ele>
        <time>2023-11-05T13:34:22Z</time>
      </trkpt>
      <trkpt lat="43.49026" lon="6.61935">
        <ele>43.8</ele>
        <time>2023-11-05T13:34:23Z</time>
      </trkpt>
      <trkpt lat="43.49027" lon="6.61935">
        <ele>44</ele>
        <time>2023-11-05T13:34:24Z</time>
      </trkpt>
      <trkpt lat="43.49029" lon="6.61934">
        <ele>44</ele>
        <time>2023-11-05T13:34:25Z</time>
      </trkpt>
      <trkpt lat="43.4903" lon="6.61934">
        <ele>44.1</ele>
        <time>2023-11-05T13:34:26Z</time>
      </trkpt>
      <trkpt lat="43.49031" lon="6.61934">
        <ele>44.1</ele>
        <time>2023-11-05T13:34:27Z</time>
      </trkpt>
      <trkpt lat="43.49032" lon="6.61934">
        <ele>44.3</ele>
        <time>2023-11-05T13:34:28Z</time>
      </trkpt>
      <trkpt lat="43.49033" lon="6.61934">
        <ele>44.3</ele>
        <time>2023-11-05T13:34:29Z</time>
      </trkpt>
      <trkpt lat="43.49034" lon="6.61933">
        <ele>44.4</ele>
        <time>2023-11-05T13:34:30Z</time>
      </trkpt>
      <trkpt lat="43.49035" lon="6.61933">
        <ele>44.6</ele>
        <time>2023-11-05T13:34:31Z</time>
      </trkpt>
      <trkpt lat="43.49036" lon="6.61933">
        <ele>44.8</ele>
        <time>2023-11-05T13:34:32Z</time>
      </trkpt>
      <trkpt lat="43.49037" lon="6.61932">
        <ele>44.9</ele>
        <time>2023-11-05T13:34:33Z</time>
      </trkpt>
      <trkpt lat="43.49038" lon="6.61932">
        <ele>45</ele>
        <time>2023-11-05T13:34:34Z</time>
      </trkpt>
      <trkpt lat="43.49039" lon="6.61933">
        <ele>45.1</ele>
        <time>2023-11-05T13:34:35Z</time>
      </trkpt>
      <trkpt lat="43.49039" lon="6.61932">
        <ele>45.3</ele>
        <time>2023-11-05T13:34:36Z</time>
      </trkpt>
      <trkpt lat="43.49041" lon="6.61932">
        <ele>45.4</ele>
        <time>2023-11-05T13:34:37Z</time>
      </trkpt>
      <trkpt lat="43.49042" lon="6.61931">
        <ele>45.5</ele>
        <time>2023-11-05T13:34:38Z</time>
      </trkpt>
      <trkpt lat="43.49043" lon="6.6193">
        <ele>45.6</ele>
        <time>2023-11-05T13:34:39Z</time>
      </trkpt>
      <trkpt lat="43.49045" lon="6.61929">
        <ele>45.7</ele>
        <time>2023-11-05T13:34:40Z</time>
      </trkpt>
      <trkpt lat="43.49046" lon="6.61929">
        <ele>45.7</ele>
        <time>2023-11-05T13:34:41Z</time>
      </trkpt>
      <trkpt lat="43.49047" lon="6.61928">
        <ele>45.8</ele>
        <time>2023-11-05T13:34:42Z</time>
      </trkpt>
      <trkpt lat="43.49048" lon="6.61928">
        <ele>45.9</ele>
        <time>2023-11-05T13:34:43Z</time>
      </trkpt>
      <trkpt lat="43.49049" lon="6.61927">
        <ele>46</ele>
        <time>2023-11-05T13:34:44Z</time>
      </trkpt>
      <trkpt lat="43.4905" lon="6.61926">
        <ele>46.1</ele>
        <time>2023-11-05T13:34:45Z</time>
      </trkpt>
      <trkpt lat="43.49052" lon="6.61925">
        <ele>46.2</ele>
        <time>2023-11-05T13:34:46Z</time>
      </trkpt>
      <trkpt lat="43.49053" lon="6.61924">
        <ele>46.3</ele>
        <time>2023-11-05T13:34:47Z</time>
      </trkpt>
      <trkpt lat="43.49054" lon="6.61923">
        <ele>46.4</ele>
        <time>2023-11-05T13:34:48Z</time>
      </trkpt>
      <trkpt lat="43.49055" lon="6.61922">
        <ele>46.5</ele>
        <time>2023-11-05T13:34:49Z</time>
      </trkpt>
      <trkpt lat="43.49057" lon="6.61921">
        <ele>46.6</ele>
        <time>2023-11-05T13:34:50Z</time>
      </trkpt>
      <trkpt lat="43.49058" lon="6.61921">
        <ele>46.7</ele>
        <time>2023-11-05T13:34:51Z</time>
      </trkpt>
      <trkpt lat="43.49059" lon="6.6192">
        <ele>46.9</ele>
        <time>2023-11-05T13:34:52Z</time>
      </trkpt>
      <trkpt lat="43.4906" lon="6.61919">
        <ele>47.1</ele>
        <time>2023-11-05T13:34:53Z</time>
      </trkpt>
      <trkpt lat="43.49061" lon="6.61919">
        <ele>47.1</ele>
        <time>2023-11-05T13:34:54Z</time>
      </trkpt>
      <trkpt lat="43.49063" lon="6.61918">
        <ele>47.2</ele>
        <time>2023-11-05T13:34:55Z</time>
      </trkpt>
      <trkpt lat="43.49064" lon="6.61917">
        <ele>47.2</ele>
        <time>2023-11-05T13:34:56Z</time>
      </trkpt>
      <trkpt lat="43.49065" lon="6.61917">
        <ele>47.3</ele>
        <time>2023-11-05T13:34:57Z</time>
      </trkpt>
      <trkpt lat="43.49066" lon="6.61916">
        <ele>47.4</ele>
        <time>2023-11-05T13:34:58Z</time>
      </trkpt>
      <trkpt lat="43.49067" lon="6.61915">
        <ele>47.6</ele>
        <time>2023-11-05T13:34:59Z</time>
      </trkpt>
      <trkpt lat="43.49068" lon="6.61915">
        <ele>47.7</ele>
        <time>2023-11-05T13:35:00Z</time>
      </trkpt>
      <trkpt lat="43.49069" lon="6.61914">
        <ele>47.8</ele>
        <time>2023-11-05T13:35:01Z</time>
      </trkpt>
      <trkpt lat="43.4907" lon="6.61913">
        <ele>47.8</ele>
        <time>2023-11-05T13:35:02Z</time>
      </trkpt>
      <trkpt lat="43.49071" lon="6.61913">
        <ele>47.9</ele>
        <time>2023-11-05T13:35:03Z</time>
      </trkpt>
      <trkpt lat="43.49072" lon="6.61912">
        <ele>47.9</ele>
        <time>2023-11-05T13:35:04Z</time>
      </trkpt>
      <trkpt lat="43.49073" lon="6.61912">
        <ele>47.8</ele>
        <time>2023-11-05T13:35:05Z</time>
      </trkpt>
      <trkpt lat="43.49074" lon="6.61911">
        <ele>47.9</ele>
        <time>2023-11-05T13:35:06Z</time>
      </trkpt>
      <trkpt lat="43.49075" lon="6.61911">
        <ele>47.9</ele>
        <time>2023-11-05T13:35:07Z</time>
      </trkpt>
      <trkpt lat="43.49076" lon="6.61911">
        <ele>48</ele>
        <time>2023-11-05T13:35:08Z</time>
      </trkpt>
      <trkpt lat="43.49078" lon="6.61911">
        <ele>48</ele>
        <time>2023-11-05T13:35:09Z</time>
      </trkpt>
      <trkpt lat="43.49079" lon="6.6191">
        <ele>48</ele>
        <time>2023-11-05T13:35:10Z</time>
      </trkpt>
      <trkpt lat="43.4908" lon="6.6191">
        <ele>48.2</ele>
        <time>2023-11-05T13:35:11Z</time>
      </trkpt>
      <trkpt lat="43.49081" lon="6.6191">
        <ele>48.3</ele>
        <time>2023-11-05T13:35:12Z</time>
      </trkpt>
      <trkpt lat="43.49082" lon="6.6191">
        <ele>48.4</ele>
        <time>2023-11-05T13:35:13Z</time>
      </trkpt>
      <trkpt lat="43.49083" lon="6.6191">
        <ele>48.5</ele>
        <time>2023-11-05T13:35:14Z</time>
      </trkpt>
      <trkpt lat="43.49084" lon="6.61911">
        <ele>48.7</ele>
        <time>2023-11-05T13:35:15Z</time>
      </trkpt>
      <trkpt lat="43.49085" lon="6.6191">
        <ele>48.8</ele>
        <time>2023-11-05T13:35:16Z</time>
      </trkpt>
      <trkpt lat="43.49086" lon="6.61911">
        <ele>49</ele>
        <time>2023-11-05T13:35:17Z</time>
      </trkpt>
      <trkpt lat="43.49087" lon="6.61911">
        <ele>49.1</ele>
        <time>2023-11-05T13:35:18Z</time>
      </trkpt>
      <trkpt lat="43.49087" lon="6.61911">
        <ele>49.2</ele>
        <time>2023-11-05T13:35:19Z</time>
      </trkpt>
      <trkpt lat="43.49088" lon="6.61911">
        <ele>49.4</ele>
        <time>2023-11-05T13:35:20Z</time>
      </trkpt>
      <trkpt lat="43.49089" lon="6.61911">
        <ele>49.6</ele>
        <time>2023-11-05T13:35:21Z</time>
      </trkpt>
      <trkpt lat="43.4909" lon="6.6191">
        <ele>49.7</ele>
        <time>2023-11-05T13:35:22Z</time>
      </trkpt>
      <trkpt lat="43.49091" lon="6.6191">
        <ele>49.8</ele>
        <time>2023-11-05T13:35:23Z</time>
      </trkpt>
      <trkpt lat="43.49092" lon="6.6191">
        <ele>49.8</ele>
        <time>2023-11-05T13:35:24Z</time>
      </trkpt>
      <trkpt lat="43.49094" lon="6.61909">
        <ele>49.8</ele>
        <time>2023-11-05T13:35:25Z</time>
      </trkpt>
      <trkpt lat="43.49095" lon="6.61909">
        <ele>49.9</ele>
        <time>2023-11-05T13:35:26Z</time>
      </trkpt>
      <trkpt lat="43.49096" lon="6.61909">
        <ele>50</ele>
        <time>2023-11-05T13:35:27Z</time>
      </trkpt>
      <trkpt lat="43.49097" lon="6.61909">
        <ele>50.1</ele>
        <time>2023-11-05T13:35:28Z</time>
      </trkpt>
      <trkpt lat="43.49098" lon="6.6191">
        <ele>50.2</ele>
        <time>2023-11-05T13:35:29Z</time>
      </trkpt>
      <trkpt lat="43.49099" lon="6.6191">
        <ele>50.2</ele>
        <time>2023-11-05T13:35:30Z</time>
      </trkpt>
      <trkpt lat="43.49101" lon="6.6191">
        <ele>50.2</ele>
        <time>2023-11-05T13:35:31Z</time>
      </trkpt>
      <trkpt lat="43.49102" lon="6.61911">
        <ele>50.3</ele>
        <time>2023-11-05T13:35:32Z</time>
      </trkpt>
      <trkpt lat="43.49103" lon="6.61911">
        <ele>50.3</ele>
        <time>2023-11-05T13:35:33Z</time>
      </trkpt>
      <trkpt lat="43.49104" lon="6.61911">
        <ele>50.4</ele>
        <time>2023-11-05T13:35:34Z</time>
      </trkpt>
      <trkpt lat="43.49106" lon="6.61911">
        <ele>50.4</ele>
        <time>2023-11-05T13:35:35Z</time>
      </trkpt>
      <trkpt lat="43.49107" lon="6.61911">
        <ele>50.3</ele>
        <time>2023-11-05T13:35:36Z</time>
      </trkpt>
      <trkpt lat="43.49108" lon="6.61911">
        <ele>50.2</ele>
        <time>2023-11-05T13:35:37Z</time>
      </trkpt>
      <trkpt lat="43.4911" lon="6.61911">
        <ele>50.2</ele>
        <time>2023-11-05T13:35:38Z</time>
      </trkpt>
      <trkpt lat="43.49111" lon="6.61911">
        <ele>50.3</ele>
        <time>2023-11-05T13:35:39Z</time>
      </trkpt>
      <trkpt lat="43.49113" lon="6.61911">
        <ele>50.3</ele>
        <time>2023-11-05T13:35:40Z</time>
      </trkpt>
      <trkpt lat="43.49114" lon="6.61911">
        <ele>50.4</ele>
        <time>2023-11-05T13:35:41Z</time>
      </trkpt>
      <trkpt lat="43.49115" lon="6.6191">
        <ele>50.4</ele>
        <time>2023-11-05T13:35:42Z</time>
      </trkpt>
      <trkpt lat="43.49117" lon="6.6191">
        <ele>50.4</ele>
        <time>2023-11-05T13:35:43Z</time>
      </trkpt>
      <trkpt lat="43.49118" lon="6.6191">
        <ele>50.5</ele>
        <time>2023-11-05T13:35:44Z</time>
      </trkpt>
      <trkpt lat="43.49119" lon="6.6191">
        <ele>50.5</ele>
        <time>2023-11-05T13:35:45Z</time>
      </trkpt>
      <trkpt lat="43.4912" lon="6.6191">
        <ele>50.6</ele>
        <time>2023-11-05T13:35:46Z</time>
      </trkpt>
      <trkpt lat="43.49122" lon="6.6191">
        <ele>50.6</ele>
        <time>2023-11-05T13:35:47Z</time>
      </trkpt>
      <trkpt lat="43.49123" lon="6.6191">
        <ele>50.6</ele>
        <time>2023-11-05T13:35:48Z</time>
      </trkpt>
      <trkpt lat="43.49124" lon="6.61911">
        <ele>50.6</ele>
        <time>2023-11-05T13:35:49Z</time>
      </trkpt>
      <trkpt lat="43.49125" lon="6.61911">
        <ele>50.8</ele>
        <time>2023-11-05T13:35:50Z</time>
      </trkpt>
      <trkpt lat="43.49126" lon="6.61911">
        <ele>50.9</ele>
        <time>2023-11-05T13:35:51Z</time>
      </trkpt>
      <trkpt lat="43.49127" lon="6.61912">
        <ele>51.2</ele>
        <time>2023-11-05T13:35:52Z</time>
      </trkpt>
      <trkpt lat="43.49128" lon="6.61912">
        <ele>51.4</ele>
        <time>2023-11-05T13:35:53Z</time>
      </trkpt>
      <trkpt lat="43.49129" lon="6.61912">
        <ele>51.6</ele>
        <time>2023-11-05T13:35:54Z</time>
      </trkpt>
      <trkpt lat="43.4913" lon="6.61912">
        <ele>51.8</ele>
        <time>2023-11-05T13:35:55Z</time>
      </trkpt>
      <trkpt lat="43.49132" lon="6.61912">
        <ele>51.9</ele>
        <time>2023-11-05T13:35:56Z</time>
      </trkpt>
      <trkpt lat="43.49133" lon="6.61913">
        <ele>51.9</ele>
        <time>2023-11-05T13:35:57Z</time>
      </trkpt>
      <trkpt lat="43.49134" lon="6.61913">
        <ele>51.8</ele>
        <time>2023-11-05T13:35:58Z</time>
      </trkpt>
      <trkpt lat="43.49135" lon="6.61913">
        <ele>51.8</ele>
        <time>2023-11-05T13:35:59Z</time>
      </trkpt>
      <trkpt lat="43.49136" lon="6.61913">
        <ele>51.8</ele>
        <time>2023-11-05T13:36:00Z</time>
      </trkpt>
      <trkpt lat="43.49137" lon="6.61913">
        <ele>51.7</ele>
        <time>2023-11-05T13:36:01Z</time>
      </trkpt>
      <trkpt lat="43.49138" lon="6.61914">
        <ele>51.7</ele>
        <time>2023-11-05T13:36:02Z</time>
      </trkpt>
      <trkpt lat="43.49139" lon="6.61914">
        <ele>51.7</ele>
        <time>2023-11-05T13:36:03Z</time>
      </trkpt>
      <trkpt lat="43.4914" lon="6.61914">
        <ele>51.7</ele>
        <time>2023-11-05T13:36:04Z</time>
      </trkpt>
      <trkpt lat="43.49141" lon="6.61914">
        <ele>51.7</ele>
        <time>2023-11-05T13:36:05Z</time>
      </trkpt>
      <trkpt lat="43.49142" lon="6.61914">
        <ele>51.7</ele>
        <time>2023-11-05T13:36:06Z</time>
      </trkpt>
      <trkpt lat="43.49143" lon="6.61914">
        <ele>51.8</ele>
        <time>2023-11-05T13:36:07Z</time>
      </trkpt>
      <trkpt lat="43.49145" lon="6.61914">
        <ele>51.9</ele>
        <time>2023-11-05T13:36:08Z</time>
      </trkpt>
      <trkpt lat="43.49146" lon="6.61914">
        <ele>51.9</ele>
        <time>2023-11-05T13:36:09Z</time>
      </trkpt>
      <trkpt lat="43.49147" lon="6.61914">
        <ele>52.1</ele>
        <time>2023-11-05T13:36:10Z</time>
      </trkpt>
      <trkpt lat="43.49148" lon="6.61914">
        <ele>52.2</ele>
        <time>2023-11-05T13:36:11Z</time>
      </trkpt>
      <trkpt lat="43.49149" lon="6.61914">
        <ele>52.3</ele>
        <time>2023-11-05T13:36:12Z</time>
      </trkpt>
      <trkpt lat="43.4915" lon="6.61915">
        <ele>52.3</ele>
        <time>2023-11-05T13:36:13Z</time>
      </trkpt>
      <trkpt lat="43.49151" lon="6.61914">
        <ele>52.3</ele>
        <time>2023-11-05T13:36:14Z</time>
      </trkpt>
      <trkpt lat="43.49152" lon="6.61914">
        <ele>52.4</ele>
        <time>2023-11-05T13:36:15Z</time>
      </trkpt>
      <trkpt lat="43.49154" lon="6.61914">
        <ele>52.5</ele>
        <time>2023-11-05T13:36:16Z</time>
      </trkpt>
      <trkpt lat="43.49155" lon="6.61914">
        <ele>52.5</ele>
        <time>2023-11-05T13:36:17Z</time>
      </trkpt>
      <trkpt lat="43.49156" lon="6.61914">
        <ele>52.5</ele>
        <time>2023-11-05T13:36:18Z</time>
      </trkpt>
      <trkpt lat="43.49157" lon="6.61914">
        <ele>52.7</ele>
        <time>2023-11-05T13:36:19Z</time>
      </trkpt>
      <trkpt lat="43.49158" lon="6.61913">
        <ele>52.7</ele>
        <time>2023-11-05T13:36:20Z</time>
      </trkpt>
      <trkpt lat="43.49159" lon="6.61913">
        <ele>52.8</ele>
        <time>2023-11-05T13:36:21Z</time>
      </trkpt>
      <trkpt lat="43.4916" lon="6.61913">
        <ele>52.8</ele>
        <time>2023-11-05T13:36:22Z</time>
      </trkpt>
      <trkpt lat="43.49161" lon="6.61912">
        <ele>52.7</ele>
        <time>2023-11-05T13:36:23Z</time>
      </trkpt>
      <trkpt lat="43.49163" lon="6.61912">
        <ele>52.7</ele>
        <time>2023-11-05T13:36:24Z</time>
      </trkpt>
      <trkpt lat="43.49163" lon="6.61911">
        <ele>52.7</ele>
        <time>2023-11-05T13:36:25Z</time>
      </trkpt>
      <trkpt lat="43.49164" lon="6.61911">
        <ele>52.7</ele>
        <time>2023-11-05T13:36:26Z</time>
      </trkpt>
      <trkpt lat="43.49164" lon="6.61911">
        <ele>52.8</ele>
        <time>2023-11-05T13:36:27Z</time>
      </trkpt>
      <trkpt lat="43.49165" lon="6.61911">
        <ele>52.7</ele>
        <time>2023-11-05T13:36:28Z</time>
      </trkpt>
      <trkpt lat="43.49165" lon="6.61911">
        <ele>52.7</ele>
        <time>2023-11-05T13:36:29Z</time>
      </trkpt>
      <trkpt lat="43.49166" lon="6.61911">
        <ele>52.7</ele>
        <time>2023-11-05T13:36:30Z</time>
      </trkpt>
      <trkpt lat="43.49166" lon="6.61911">
        <ele>52.6</ele>
        <time>2023-11-05T13:36:31Z</time>
      </trkpt>
      <trkpt lat="43.49167" lon="6.61911">
        <ele>52.6</ele>
        <time>2023-11-05T13:36:32Z</time>
      </trkpt>
      <trkpt lat="43.49168" lon="6.6191">
        <ele>52.6</ele>
        <time>2023-11-05T13:36:33Z</time>
      </trkpt>
      <trkpt lat="43.49168" lon="6.6191">
        <ele>52.5</ele>
        <time>2023-11-05T13:36:34Z</time>
      </trkpt>
      <trkpt lat="43.49169" lon="6.6191">
        <ele>52.5</ele>
        <time>2023-11-05T13:36:35Z</time>
      </trkpt>
      <trkpt lat="43.49169" lon="6.6191">
        <ele>52.5</ele>
        <time>2023-11-05T13:36:36Z</time>
      </trkpt>
      <trkpt lat="43.49169" lon="6.61909">
        <ele>52.5</ele>
        <time>2023-11-05T13:36:37Z</time>
      </trkpt>
      <trkpt lat="43.49169" lon="6.61909">
        <ele>52.6</ele>
        <time>2023-11-05T13:36:38Z</time>
      </trkpt>
      <trkpt lat="43.49169" lon="6.61909">
        <ele>52.6</ele>
        <time>2023-11-05T13:36:39Z</time>
      </trkpt>
      <trkpt lat="43.49169" lon="6.61909">
        <ele>52.5</ele>
        <time>2023-11-05T13:36:40Z</time>
      </trkpt>
      <trkpt lat="43.49169" lon="6.61909">
        <ele>52.5</ele>
        <time>2023-11-05T13:36:41Z</time>
      </trkpt>
      <trkpt lat="43.49169" lon="6.61909">
        <ele>52.5</ele>
        <time>2023-11-05T13:36:42Z</time>
      </trkpt>
      <trkpt lat="43.49169" lon="6.61908">
        <ele>52.5</ele>
        <time>2023-11-05T13:36:43Z</time>
      </trkpt>
      <trkpt lat="43.49169" lon="6.61908">
        <ele>52.5</ele>
        <time>2023-11-05T13:36:44Z</time>
      </trkpt>
      <trkpt lat="43.49169" lon="6.61908">
        <ele>52.5</ele>
        <time>2023-11-05T13:36:45Z</time>
      </trkpt>
      <trkpt lat="43.49169" lon="6.61908">
        <ele>52.5</ele>
        <time>2023-11-05T13:36:46Z</time>
      </trkpt>
      <trkpt lat="43.49169" lon="6.61908">
        <ele>52.5</ele>
        <time>2023-11-05T13:36:47Z</time>
      </trkpt>
      <trkpt lat="43.49169" lon="6.61908">
        <ele>52.5</ele>
        <time>2023-11-05T13:36:48Z</time>
      </trkpt>
      <trkpt lat="43.49169" lon="6.61907">
        <ele>52.5</ele>
        <time>2023-11-05T13:36:49Z</time>
      </trkpt>
      <trkpt lat="43.49169" lon="6.61907">
        <ele>52.6</ele>
        <time>2023-11-05T13:36:50Z</time>
      </trkpt>
      <trkpt lat="43.49169" lon="6.61907">
        <ele>52.6</ele>
        <time>2023-11-05T13:36:51Z</time>
      </trkpt>
      <trkpt lat="43.4917" lon="6.61907">
        <ele>52.6</ele>
        <time>2023-11-05T13:36:52Z</time>
      </trkpt>
      <trkpt lat="43.4917" lon="6.61906">
        <ele>52.6</ele>
        <time>2023-11-05T13:36:53Z</time>
      </trkpt>
      <trkpt lat="43.4917" lon="6.61906">
        <ele>52.7</ele>
        <time>2023-11-05T13:36:54Z</time>
      </trkpt>
      <trkpt lat="43.4917" lon="6.61906">
        <ele>52.9</ele>
        <time>2023-11-05T13:36:55Z</time>
      </trkpt>
      <trkpt lat="43.4917" lon="6.61906">
        <ele>53</ele>
        <time>2023-11-05T13:36:56Z</time>
      </trkpt>
      <trkpt lat="43.4917" lon="6.61906">
        <ele>53</ele>
        <time>2023-11-05T13:36:57Z</time>
      </trkpt>
      <trkpt lat="43.4917" lon="6.61905">
        <ele>53</ele>
        <time>2023-11-05T13:36:58Z</time>
      </trkpt>
      <trkpt lat="43.4917" lon="6.61905">
        <ele>53</ele>
        <time>2023-11-05T13:36:59Z</time>
      </trkpt>
      <trkpt lat="43.4917" lon="6.61905">
        <ele>52.9</ele>
        <time>2023-11-05T13:37:00Z</time>
      </trkpt>
      <trkpt lat="43.4917" lon="6.61904">
        <ele>52.9</ele>
        <time>2023-11-05T13:37:01Z</time>
      </trkpt>
      <trkpt lat="43.4917" lon="6.61904">
        <ele>52.8</ele>
        <time>2023-11-05T13:37:02Z</time>
      </trkpt>
      <trkpt lat="43.4917" lon="6.61904">
        <ele>52.8</ele>
        <time>2023-11-05T13:37:03Z</time>
      </trkpt>
      <trkpt lat="43.49169" lon="6.61904">
        <ele>52.9</ele>
        <time>2023-11-05T13:37:04Z</time>
      </trkpt>
      <trkpt lat="43.49169" lon="6.61904">
        <ele>53</ele>
        <time>2023-11-05T13:37:05Z</time>
      </trkpt>
      <trkpt lat="43.49169" lon="6.61903">
        <ele>53</ele>
        <time>2023-11-05T13:37:06Z</time>
      </trkpt>
      <trkpt lat="43.49169" lon="6.61903">
        <ele>53.1</ele>
        <time>2023-11-05T13:37:07Z</time>
      </trkpt>
      <trkpt lat="43.49169" lon="6.61903">
        <ele>53.1</ele>
        <time>2023-11-05T13:37:08Z</time>
      </trkpt>
      <trkpt lat="43.49169" lon="6.61903">
        <ele>53.1</ele>
        <time>2023-11-05T13:37:09Z</time>
      </trkpt>
      <trkpt lat="43.49169" lon="6.61903">
        <ele>53.1</ele>
        <time>2023-11-05T13:37:10Z</time>
      </trkpt>
      <trkpt lat="43.49169" lon="6.61903">
        <ele>53</ele>
        <time>2023-11-05T13:37:11Z</time>
      </trkpt>
      <trkpt lat="43.49169" lon="6.61903">
        <ele>52.9</ele>
        <time>2023-11-05T13:37:12Z</time>
      </trkpt>
      <trkpt lat="43.49169" lon="6.61902">
        <ele>52.8</ele>
        <time>2023-11-05T13:37:13Z</time>
      </trkpt>
      <trkpt lat="43.49169" lon="6.61902">
        <ele>53</ele>
        <time>2023-11-05T13:37:14Z</time>
      </trkpt>
      <trkpt lat="43.49169" lon="6.61903">
        <ele>53.1</ele>
        <time>2023-11-05T13:37:15Z</time>
      </trkpt>
      <trkpt lat="43.4917" lon="6.61903">
        <ele>53.2</ele>
        <time>2023-11-05T13:37:16Z</time>
      </trkpt>
      <trkpt lat="43.4917" lon="6.61903">
        <ele>53.2</ele>
        <time>2023-11-05T13:37:17Z</time>
      </trkpt>
      <trkpt lat="43.4917" lon="6.61903">
        <ele>53.2</ele>
        <time>2023-11-05T13:37:18Z</time>
      </trkpt>
      <trkpt lat="43.49171" lon="6.61902">
        <ele>53.2</ele>
        <time>2023-11-05T13:37:19Z</time>
      </trkpt>
      <trkpt lat="43.49172" lon="6.61901">
        <ele>53.2</ele>
        <time>2023-11-05T13:37:20Z</time>
      </trkpt>
      <trkpt lat="43.49172" lon="6.61902">
        <ele>53.2</ele>
        <time>2023-11-05T13:37:21Z</time>
      </trkpt>
      <trkpt lat="43.49172" lon="6.61902">
        <ele>53.2</ele>
        <time>2023-11-05T13:37:22Z</time>
      </trkpt>
      <trkpt lat="43.49173" lon="6.61903">
        <ele>53.2</ele>
        <time>2023-11-05T13:37:23Z</time>
      </trkpt>
      <trkpt lat="43.49174" lon="6.61904">
        <ele>53.2</ele>
        <time>2023-11-05T13:37:24Z</time>
      </trkpt>
      <trkpt lat="43.49175" lon="6.61904">
        <ele>53.3</ele>
        <time>2023-11-05T13:37:25Z</time>
      </trkpt>
      <trkpt lat="43.49176" lon="6.61904">
        <ele>53.3</ele>
        <time>2023-11-05T13:37:26Z</time>
      </trkpt>
      <trkpt lat="43.49177" lon="6.61905">
        <ele>53.3</ele>
        <time>2023-11-05T13:37:27Z</time>
      </trkpt>
      <trkpt lat="43.49178" lon="6.61905">
        <ele>53.4</ele>
        <time>2023-11-05T13:37:28Z</time>
      </trkpt>
      <trkpt lat="43.49179" lon="6.61905">
        <ele>53.4</ele>
        <time>2023-11-05T13:37:29Z</time>
      </trkpt>
      <trkpt lat="43.49179" lon="6.61906">
        <ele>53.4</ele>
        <time>2023-11-05T13:37:30Z</time>
      </trkpt>
      <trkpt lat="43.4918" lon="6.61906">
        <ele>53.5</ele>
        <time>2023-11-05T13:37:31Z</time>
      </trkpt>
      <trkpt lat="43.49181" lon="6.61905">
        <ele>53.5</ele>
        <time>2023-11-05T13:37:32Z</time>
      </trkpt>
      <trkpt lat="43.49182" lon="6.61906">
        <ele>53.6</ele>
        <time>2023-11-05T13:37:33Z</time>
      </trkpt>
      <trkpt lat="43.49183" lon="6.61905">
        <ele>53.6</ele>
        <time>2023-11-05T13:37:34Z</time>
      </trkpt>
      <trkpt lat="43.49184" lon="6.61905">
        <ele>53.7</ele>
        <time>2023-11-05T13:37:35Z</time>
      </trkpt>
      <trkpt lat="43.49185" lon="6.61905">
        <ele>53.7</ele>
        <time>2023-11-05T13:37:36Z</time>
      </trkpt>
      <trkpt lat="43.49186" lon="6.61904">
        <ele>53.7</ele>
        <time>2023-11-05T13:37:37Z</time>
      </trkpt>
      <trkpt lat="43.49187" lon="6.61904">
        <ele>53.6</ele>
        <time>2023-11-05T13:37:38Z</time>
      </trkpt>
      <trkpt lat="43.49188" lon="6.61903">
        <ele>53.6</ele>
        <time>2023-11-05T13:37:39Z</time>
      </trkpt>
      <trkpt lat="43.49189" lon="6.61903">
        <ele>53.5</ele>
        <time>2023-11-05T13:37:40Z</time>
      </trkpt>
      <trkpt lat="43.4919" lon="6.61902">
        <ele>53.4</ele>
        <time>2023-11-05T13:37:41Z</time>
      </trkpt>
      <trkpt lat="43.49191" lon="6.61901">
        <ele>53.5</ele>
        <time>2023-11-05T13:37:42Z</time>
      </trkpt>
      <trkpt lat="43.49191" lon="6.619">
        <ele>53.5</ele>
        <time>2023-11-05T13:37:43Z</time>
      </trkpt>
      <trkpt lat="43.49192" lon="6.61899">
        <ele>53.5</ele>
        <time>2023-11-05T13:37:44Z</time>
      </trkpt>
      <trkpt lat="43.49193" lon="6.61898">
        <ele>53.5</ele>
        <time>2023-11-05T13:37:45Z</time>
      </trkpt>
      <trkpt lat="43.49194" lon="6.61898">
        <ele>53.5</ele>
        <time>2023-11-05T13:37:46Z</time>
      </trkpt>
      <trkpt lat="43.49195" lon="6.61898">
        <ele>53.4</ele>
        <time>2023-11-05T13:37:47Z</time>
      </trkpt>
      <trkpt lat="43.49196" lon="6.61897">
        <ele>53.4</ele>
        <time>2023-11-05T13:37:48Z</time>
      </trkpt>
      <trkpt lat="43.49196" lon="6.61897">
        <ele>53.4</ele>
        <time>2023-11-05T13:37:49Z</time>
      </trkpt>
      <trkpt lat="43.49198" lon="6.61897">
        <ele>53.3</ele>
        <time>2023-11-05T13:37:50Z</time>
      </trkpt>
      <trkpt lat="43.49199" lon="6.61897">
        <ele>53.3</ele>
        <time>2023-11-05T13:37:51Z</time>
      </trkpt>
      <trkpt lat="43.492" lon="6.61896">
        <ele>53.3</ele>
        <time>2023-11-05T13:37:52Z</time>
      </trkpt>
      <trkpt lat="43.492" lon="6.61895">
        <ele>53.2</ele>
        <time>2023-11-05T13:37:53Z</time>
      </trkpt>
      <trkpt lat="43.49201" lon="6.61895">
        <ele>53.1</ele>
        <time>2023-11-05T13:37:54Z</time>
      </trkpt>
      <trkpt lat="43.49202" lon="6.61895">
        <ele>53.1</ele>
        <time>2023-11-05T13:37:55Z</time>
      </trkpt>
      <trkpt lat="43.49203" lon="6.61894">
        <ele>53.1</ele>
        <time>2023-11-05T13:37:56Z</time>
      </trkpt>
      <trkpt lat="43.49204" lon="6.61894">
        <ele>53.1</ele>
        <time>2023-11-05T13:37:57Z</time>
      </trkpt>
      <trkpt lat="43.49205" lon="6.61894">
        <ele>53</ele>
        <time>2023-11-05T13:37:58Z</time>
      </trkpt>
      <trkpt lat="43.49206" lon="6.61894">
        <ele>53</ele>
        <time>2023-11-05T13:37:59Z</time>
      </trkpt>
      <trkpt lat="43.49206" lon="6.61894">
        <ele>53</ele>
        <time>2023-11-05T13:38:00Z</time>
      </trkpt>
      <trkpt lat="43.49207" lon="6.61894">
        <ele>53.1</ele>
        <time>2023-11-05T13:38:01Z</time>
      </trkpt>
      <trkpt lat="43.49208" lon="6.61894">
        <ele>53.1</ele>
        <time>2023-11-05T13:38:02Z</time>
      </trkpt>
      <trkpt lat="43.49209" lon="6.61893">
        <ele>53.1</ele>
        <time>2023-11-05T13:38:03Z</time>
      </trkpt>
      <trkpt lat="43.4921" lon="6.61892">
        <ele>53.1</ele>
        <time>2023-11-05T13:38:04Z</time>
      </trkpt>
      <trkpt lat="43.49211" lon="6.61892">
        <ele>53.1</ele>
        <time>2023-11-05T13:38:05Z</time>
      </trkpt>
      <trkpt lat="43.49212" lon="6.61892">
        <ele>53</ele>
        <time>2023-11-05T13:38:06Z</time>
      </trkpt>
      <trkpt lat="43.49213" lon="6.61892">
        <ele>53</ele>
        <time>2023-11-05T13:38:07Z</time>
      </trkpt>
      <trkpt lat="43.49214" lon="6.61891">
        <ele>52.9</ele>
        <time>2023-11-05T13:38:08Z</time>
      </trkpt>
      <trkpt lat="43.49215" lon="6.61891">
        <ele>52.9</ele>
        <time>2023-11-05T13:38:09Z</time>
      </trkpt>
      <trkpt lat="43.49216" lon="6.6189">
        <ele>52.9</ele>
        <time>2023-11-05T13:38:10Z</time>
      </trkpt>
      <trkpt lat="43.49217" lon="6.6189">
        <ele>52.9</ele>
        <time>2023-11-05T13:38:11Z</time>
      </trkpt>
      <trkpt lat="43.49218" lon="6.6189">
        <ele>53</ele>
        <time>2023-11-05T13:38:12Z</time>
      </trkpt>
      <trkpt lat="43.49219" lon="6.61889">
        <ele>52.9</ele>
        <time>2023-11-05T13:38:13Z</time>
      </trkpt>
      <trkpt lat="43.4922" lon="6.61889">
        <ele>52.9</ele>
        <time>2023-11-05T13:38:14Z</time>
      </trkpt>
      <trkpt lat="43.49221" lon="6.61889">
        <ele>53.1</ele>
        <time>2023-11-05T13:38:15Z</time>
      </trkpt>
      <trkpt lat="43.49222" lon="6.61889">
        <ele>53.1</ele>
        <time>2023-11-05T13:38:16Z</time>
      </trkpt>
      <trkpt lat="43.49223" lon="6.61889">
        <ele>53.1</ele>
        <time>2023-11-05T13:38:17Z</time>
      </trkpt>
      <trkpt lat="43.49224" lon="6.61888">
        <ele>53.1</ele>
        <time>2023-11-05T13:38:18Z</time>
      </trkpt>
      <trkpt lat="43.49225" lon="6.61888">
        <ele>53.1</ele>
        <time>2023-11-05T13:38:19Z</time>
      </trkpt>
      <trkpt lat="43.49226" lon="6.61888">
        <ele>53.1</ele>
        <time>2023-11-05T13:38:20Z</time>
      </trkpt>
      <trkpt lat="43.49227" lon="6.61888">
        <ele>53</ele>
        <time>2023-11-05T13:38:21Z</time>
      </trkpt>
      <trkpt lat="43.49228" lon="6.61887">
        <ele>53</ele>
        <time>2023-11-05T13:38:22Z</time>
      </trkpt>
      <trkpt lat="43.49229" lon="6.61887">
        <ele>52.9</ele>
        <time>2023-11-05T13:38:23Z</time>
      </trkpt>
      <trkpt lat="43.4923" lon="6.61887">
        <ele>52.9</ele>
        <time>2023-11-05T13:38:24Z</time>
      </trkpt>
      <trkpt lat="43.49231" lon="6.61886">
        <ele>52.9</ele>
        <time>2023-11-05T13:38:25Z</time>
      </trkpt>
      <trkpt lat="43.49232" lon="6.61885">
        <ele>52.9</ele>
        <time>2023-11-05T13:38:26Z</time>
      </trkpt>
      <trkpt lat="43.49233" lon="6.61885">
        <ele>52.9</ele>
        <time>2023-11-05T13:38:27Z</time>
      </trkpt>
      <trkpt lat="43.49234" lon="6.61884">
        <ele>52.9</ele>
        <time>2023-11-05T13:38:28Z</time>
      </trkpt>
      <trkpt lat="43.49236" lon="6.61884">
        <ele>52.8</ele>
        <time>2023-11-05T13:38:29Z</time>
      </trkpt>
      <trkpt lat="43.49237" lon="6.61883">
        <ele>52.7</ele>
        <time>2023-11-05T13:38:30Z</time>
      </trkpt>
      <trkpt lat="43.49238" lon="6.61883">
        <ele>52.7</ele>
        <time>2023-11-05T13:38:31Z</time>
      </trkpt>
      <trkpt lat="43.49239" lon="6.61882">
        <ele>52.6</ele>
        <time>2023-11-05T13:38:32Z</time>
      </trkpt>
      <trkpt lat="43.4924" lon="6.61881">
        <ele>52.5</ele>
        <time>2023-11-05T13:38:33Z</time>
      </trkpt>
      <trkpt lat="43.49241" lon="6.61881">
        <ele>52.5</ele>
        <time>2023-11-05T13:38:34Z</time>
      </trkpt>
      <trkpt lat="43.49241" lon="6.61881">
        <ele>52.4</ele>
        <time>2023-11-05T13:38:35Z</time>
      </trkpt>
      <trkpt lat="43.49243" lon="6.61881">
        <ele>52.4</ele>
        <time>2023-11-05T13:38:36Z</time>
      </trkpt>
      <trkpt lat="43.49244" lon="6.61881">
        <ele>52.4</ele>
        <time>2023-11-05T13:38:37Z</time>
      </trkpt>
      <trkpt lat="43.49245" lon="6.6188">
        <ele>52.5</ele>
        <time>2023-11-05T13:38:38Z</time>
      </trkpt>
      <trkpt lat="43.49246" lon="6.61879">
        <ele>52.5</ele>
        <time>2023-11-05T13:38:39Z</time>
      </trkpt>
      <trkpt lat="43.49247" lon="6.61878">
        <ele>52.5</ele>
        <time>2023-11-05T13:38:40Z</time>
      </trkpt>
      <trkpt lat="43.49247" lon="6.61877">
        <ele>52.4</ele>
        <time>2023-11-05T13:38:41Z</time>
      </trkpt>
      <trkpt lat="43.49248" lon="6.61877">
        <ele>52.4</ele>
        <time>2023-11-05T13:38:42Z</time>
      </trkpt>
      <trkpt lat="43.49249" lon="6.61876">
        <ele>52.4</ele>
        <time>2023-11-05T13:38:43Z</time>
      </trkpt>
      <trkpt lat="43.4925" lon="6.61875">
        <ele>52.4</ele>
        <time>2023-11-05T13:38:44Z</time>
      </trkpt>
      <trkpt lat="43.49251" lon="6.61875">
        <ele>52.4</ele>
        <time>2023-11-05T13:38:45Z</time>
      </trkpt>
      <trkpt lat="43.49252" lon="6.61874">
        <ele>52.2</ele>
        <time>2023-11-05T13:38:46Z</time>
      </trkpt>
      <trkpt lat="43.49253" lon="6.61873">
        <ele>52.1</ele>
        <time>2023-11-05T13:38:47Z</time>
      </trkpt>
      <trkpt lat="43.49254" lon="6.61872">
        <ele>52.1</ele>
        <time>2023-11-05T13:38:48Z</time>
      </trkpt>
      <trkpt lat="43.49255" lon="6.61871">
        <ele>52</ele>
        <time>2023-11-05T13:38:49Z</time>
      </trkpt>
      <trkpt lat="43.49256" lon="6.61871">
        <ele>52</ele>
        <time>2023-11-05T13:38:50Z</time>
      </trkpt>
      <trkpt lat="43.49257" lon="6.61871">
        <ele>51.9</ele>
        <time>2023-11-05T13:38:51Z</time>
      </trkpt>
      <trkpt lat="43.49258" lon="6.6187">
        <ele>51.9</ele>
        <time>2023-11-05T13:38:52Z</time>
      </trkpt>
      <trkpt lat="43.4926" lon="6.6187">
        <ele>51.9</ele>
        <time>2023-11-05T13:38:53Z</time>
      </trkpt>
      <trkpt lat="43.49261" lon="6.6187">
        <ele>51.8</ele>
        <time>2023-11-05T13:38:54Z</time>
      </trkpt>
      <trkpt lat="43.49262" lon="6.61869">
        <ele>51.6</ele>
        <time>2023-11-05T13:38:55Z</time>
      </trkpt>
      <trkpt lat="43.49263" lon="6.61868">
        <ele>51.5</ele>
        <time>2023-11-05T13:38:56Z</time>
      </trkpt>
      <trkpt lat="43.49264" lon="6.61867">
        <ele>51.6</ele>
        <time>2023-11-05T13:38:57Z</time>
      </trkpt>
      <trkpt lat="43.49265" lon="6.61867">
        <ele>51.5</ele>
        <time>2023-11-05T13:38:58Z</time>
      </trkpt>
      <trkpt lat="43.49266" lon="6.61866">
        <ele>51.4</ele>
        <time>2023-11-05T13:38:59Z</time>
      </trkpt>
      <trkpt lat="43.49267" lon="6.61866">
        <ele>51.4</ele>
        <time>2023-11-05T13:39:00Z</time>
      </trkpt>
      <trkpt lat="43.49267" lon="6.61865">
        <ele>51.4</ele>
        <time>2023-11-05T13:39:01Z</time>
      </trkpt>
      <trkpt lat="43.49268" lon="6.61864">
        <ele>51.3</ele>
        <time>2023-11-05T13:39:02Z</time>
      </trkpt>
      <trkpt lat="43.49269" lon="6.61864">
        <ele>51.2</ele>
        <time>2023-11-05T13:39:03Z</time>
      </trkpt>
      <trkpt lat="43.4927" lon="6.61863">
        <ele>51.3</ele>
        <time>2023-11-05T13:39:04Z</time>
      </trkpt>
      <trkpt lat="43.49271" lon="6.61862">
        <ele>51.3</ele>
        <time>2023-11-05T13:39:05Z</time>
      </trkpt>
      <trkpt lat="43.49272" lon="6.61861">
        <ele>51.3</ele>
        <time>2023-11-05T13:39:06Z</time>
      </trkpt>
      <trkpt lat="43.49274" lon="6.61861">
        <ele>51.3</ele>
        <time>2023-11-05T13:39:07Z</time>
      </trkpt>
      <trkpt lat="43.49275" lon="6.6186">
        <ele>51.3</ele>
        <time>2023-11-05T13:39:08Z</time>
      </trkpt>
      <trkpt lat="43.49276" lon="6.6186">
        <ele>51.3</ele>
        <time>2023-11-05T13:39:09Z</time>
      </trkpt>
      <trkpt lat="43.49277" lon="6.61859">
        <ele>51.4</ele>
        <time>2023-11-05T13:39:10Z</time>
      </trkpt>
      <trkpt lat="43.49277" lon="6.61858">
        <ele>51.3</ele>
        <time>2023-11-05T13:39:11Z</time>
      </trkpt>
      <trkpt lat="43.49279" lon="6.61857">
        <ele>51.2</ele>
        <time>2023-11-05T13:39:12Z</time>
      </trkpt>
      <trkpt lat="43.4928" lon="6.61857">
        <ele>51.1</ele>
        <time>2023-11-05T13:39:13Z</time>
      </trkpt>
      <trkpt lat="43.49281" lon="6.61856">
        <ele>50.9</ele>
        <time>2023-11-05T13:39:14Z</time>
      </trkpt>
      <trkpt lat="43.49282" lon="6.61855">
        <ele>50.8</ele>
        <time>2023-11-05T13:39:15Z</time>
      </trkpt>
      <trkpt lat="43.49283" lon="6.61854">
        <ele>50.7</ele>
        <time>2023-11-05T13:39:16Z</time>
      </trkpt>
      <trkpt lat="43.49284" lon="6.61854">
        <ele>50.6</ele>
        <time>2023-11-05T13:39:17Z</time>
      </trkpt>
      <trkpt lat="43.49285" lon="6.61854">
        <ele>50.5</ele>
        <time>2023-11-05T13:39:18Z</time>
      </trkpt>
      <trkpt lat="43.49286" lon="6.61854">
        <ele>50.5</ele>
        <time>2023-11-05T13:39:19Z</time>
      </trkpt>
      <trkpt lat="43.49287" lon="6.61855">
        <ele>50.4</ele>
        <time>2023-11-05T13:39:20Z</time>
      </trkpt>
      <trkpt lat="43.49288" lon="6.61855">
        <ele>50.4</ele>
        <time>2023-11-05T13:39:21Z</time>
      </trkpt>
      <trkpt lat="43.49289" lon="6.61856">
        <ele>50.4</ele>
        <time>2023-11-05T13:39:22Z</time>
      </trkpt>
      <trkpt lat="43.4929" lon="6.61856">
        <ele>50.4</ele>
        <time>2023-11-05T13:39:23Z</time>
      </trkpt>
      <trkpt lat="43.4929" lon="6.61856">
        <ele>50.3</ele>
        <time>2023-11-05T13:39:24Z</time>
      </trkpt>
      <trkpt lat="43.49291" lon="6.61857">
        <ele>50.2</ele>
        <time>2023-11-05T13:39:25Z</time>
      </trkpt>
      <trkpt lat="43.49291" lon="6.61858">
        <ele>50.2</ele>
        <time>2023-11-05T13:39:26Z</time>
      </trkpt>
      <trkpt lat="43.49292" lon="6.61858">
        <ele>50.3</ele>
        <time>2023-11-05T13:39:27Z</time>
      </trkpt>
      <trkpt lat="43.49293" lon="6.61859">
        <ele>50.4</ele>
        <time>2023-11-05T13:39:28Z</time>
      </trkpt>
      <trkpt lat="43.49294" lon="6.61859">
        <ele>50.4</ele>
        <time>2023-11-05T13:39:29Z</time>
      </trkpt>
      <trkpt lat="43.49295" lon="6.6186">
        <ele>50.5</ele>
        <time>2023-11-05T13:39:30Z</time>
      </trkpt>
      <trkpt lat="43.49296" lon="6.6186">
        <ele>50.5</ele>
        <time>2023-11-05T13:39:31Z</time>
      </trkpt>
      <trkpt lat="43.49297" lon="6.6186">
        <ele>50.4</ele>
        <time>2023-11-05T13:39:32Z</time>
      </trkpt>
      <trkpt lat="43.49299" lon="6.6186">
        <ele>50.4</ele>
        <time>2023-11-05T13:39:33Z</time>
      </trkpt>
      <trkpt lat="43.493" lon="6.61861">
        <ele>50.3</ele>
        <time>2023-11-05T13:39:34Z</time>
      </trkpt>
      <trkpt lat="43.49301" lon="6.61861">
        <ele>50.3</ele>
        <time>2023-11-05T13:39:35Z</time>
      </trkpt>
      <trkpt lat="43.49302" lon="6.61861">
        <ele>50.3</ele>
        <time>2023-11-05T13:39:36Z</time>
      </trkpt>
      <trkpt lat="43.49303" lon="6.6186">
        <ele>50.3</ele>
        <time>2023-11-05T13:39:37Z</time>
      </trkpt>
      <trkpt lat="43.49304" lon="6.61861">
        <ele>50.3</ele>
        <time>2023-11-05T13:39:38Z</time>
      </trkpt>
      <trkpt lat="43.49305" lon="6.61861">
        <ele>50.3</ele>
        <time>2023-11-05T13:39:39Z</time>
      </trkpt>
      <trkpt lat="43.49307" lon="6.6186">
        <ele>50.3</ele>
        <time>2023-11-05T13:39:40Z</time>
      </trkpt>
      <trkpt lat="43.49308" lon="6.61859">
        <ele>50.4</ele>
        <time>2023-11-05T13:39:41Z</time>
      </trkpt>
      <trkpt lat="43.49308" lon="6.61859">
        <ele>50.4</ele>
        <time>2023-11-05T13:39:42Z</time>
      </trkpt>
      <trkpt lat="43.4931" lon="6.61859">
        <ele>50.4</ele>
        <time>2023-11-05T13:39:43Z</time>
      </trkpt>
      <trkpt lat="43.49311" lon="6.61859">
        <ele>50.2</ele>
        <time>2023-11-05T13:39:44Z</time>
      </trkpt>
      <trkpt lat="43.49312" lon="6.61859">
        <ele>50.2</ele>
        <time>2023-11-05T13:39:45Z</time>
      </trkpt>
      <trkpt lat="43.49313" lon="6.6186">
        <ele>50.3</ele>
        <time>2023-11-05T13:39:46Z</time>
      </trkpt>
      <trkpt lat="43.49313" lon="6.6186">
        <ele>50.4</ele>
        <time>2023-11-05T13:39:47Z</time>
      </trkpt>
      <trkpt lat="43.49314" lon="6.61861">
        <ele>50.4</ele>
        <time>2023-11-05T13:39:48Z</time>
      </trkpt>
      <trkpt lat="43.49315" lon="6.61861">
        <ele>50.4</ele>
        <time>2023-11-05T13:39:49Z</time>
      </trkpt>
      <trkpt lat="43.49316" lon="6.61861">
        <ele>50.4</ele>
        <time>2023-11-05T13:39:50Z</time>
      </trkpt>
      <trkpt lat="43.49317" lon="6.61861">
        <ele>50.5</ele>
        <time>2023-11-05T13:39:51Z</time>
      </trkpt>
      <trkpt lat="43.49318" lon="6.61862">
        <ele>50.3</ele>
        <time>2023-11-05T13:39:52Z</time>
      </trkpt>
      <trkpt lat="43.49319" lon="6.61862">
        <ele>50.1</ele>
        <time>2023-11-05T13:39:53Z</time>
      </trkpt>
      <trkpt lat="43.4932" lon="6.61862">
        <ele>50.3</ele>
        <time>2023-11-05T13:39:54Z</time>
      </trkpt>
      <trkpt lat="43.49321" lon="6.61862">
        <ele>50.3</ele>
        <time>2023-11-05T13:39:55Z</time>
      </trkpt>
      <trkpt lat="43.49322" lon="6.61863">
        <ele>50.3</ele>
        <time>2023-11-05T13:39:56Z</time>
      </trkpt>
      <trkpt lat="43.49322" lon="6.61863">
        <ele>50.4</ele>
        <time>2023-11-05T13:39:57Z</time>
      </trkpt>
      <trkpt lat="43.49322" lon="6.61864">
        <ele>50.5</ele>
        <time>2023-11-05T13:39:58Z</time>
      </trkpt>
      <trkpt lat="43.49322" lon="6.61864">
        <ele>50.4</ele>
        <time>2023-11-05T13:39:59Z</time>
      </trkpt>
      <trkpt lat="43.49321" lon="6.61863">
        <ele>50.3</ele>
        <time>2023-11-05T13:40:00Z</time>
      </trkpt>
      <trkpt lat="43.49321" lon="6.61863">
        <ele>50.2</ele>
        <time>2023-11-05T13:40:01Z</time>
      </trkpt>
      <trkpt lat="43.49321" lon="6.61863">
        <ele>50.2</ele>
        <time>2023-11-05T13:40:02Z</time>
      </trkpt>
      <trkpt lat="43.49321" lon="6.61863">
        <ele>50.2</ele>
        <time>2023-11-05T13:40:03Z</time>
      </trkpt>
      <trkpt lat="43.49321" lon="6.61863">
        <ele>50.1</ele>
        <time>2023-11-05T13:40:04Z</time>
      </trkpt>
      <trkpt lat="43.49321" lon="6.61863">
        <ele>50</ele>
        <time>2023-11-05T13:40:05Z</time>
      </trkpt>
      <trkpt lat="43.49321" lon="6.61863">
        <ele>49.9</ele>
        <time>2023-11-05T13:40:06Z</time>
      </trkpt>
      <trkpt lat="43.49321" lon="6.61864">
        <ele>49.9</ele>
        <time>2023-11-05T13:40:07Z</time>
      </trkpt>
      <trkpt lat="43.49321" lon="6.61864">
        <ele>49.8</ele>
        <time>2023-11-05T13:40:08Z</time>
      </trkpt>
      <trkpt lat="43.49321" lon="6.61864">
        <ele>49.8</ele>
        <time>2023-11-05T13:40:09Z</time>
      </trkpt>
      <trkpt lat="43.49321" lon="6.61864">
        <ele>49.9</ele>
        <time>2023-11-05T13:40:10Z</time>
      </trkpt>
      <trkpt lat="43.49322" lon="6.61864">
        <ele>49.9</ele>
        <time>2023-11-05T13:40:11Z</time>
      </trkpt>
      <trkpt lat="43.49322" lon="6.61864">
        <ele>49.9</ele>
        <time>2023-11-05T13:40:12Z</time>
      </trkpt>
      <trkpt lat="43.49323" lon="6.61864">
        <ele>49.9</ele>
        <time>2023-11-05T13:40:13Z</time>
      </trkpt>
      <trkpt lat="43.49323" lon="6.61864">
        <ele>50</ele>
        <time>2023-11-05T13:40:14Z</time>
      </trkpt>
      <trkpt lat="43.49324" lon="6.61864">
        <ele>50</ele>
        <time>2023-11-05T13:40:15Z</time>
      </trkpt>
      <trkpt lat="43.49324" lon="6.61863">
        <ele>50</ele>
        <time>2023-11-05T13:40:16Z</time>
      </trkpt>
      <trkpt lat="43.49324" lon="6.61863">
        <ele>49.9</ele>
        <time>2023-11-05T13:40:17Z</time>
      </trkpt>
      <trkpt lat="43.49324" lon="6.61863">
        <ele>49.9</ele>
        <time>2023-11-05T13:40:18Z</time>
      </trkpt>
      <trkpt lat="43.49324" lon="6.61864">
        <ele>49.9</ele>
        <time>2023-11-05T13:40:19Z</time>
      </trkpt>
      <trkpt lat="43.49325" lon="6.61863">
        <ele>49.9</ele>
        <time>2023-11-05T13:40:20Z</time>
      </trkpt>
      <trkpt lat="43.49325" lon="6.61863">
        <ele>49.8</ele>
        <time>2023-11-05T13:40:21Z</time>
      </trkpt>
      <trkpt lat="43.49325" lon="6.61863">
        <ele>49.8</ele>
        <time>2023-11-05T13:40:22Z</time>
      </trkpt>
      <trkpt lat="43.49324" lon="6.61863">
        <ele>49.8</ele>
        <time>2023-11-05T13:40:23Z</time>
      </trkpt>
      <trkpt lat="43.49324" lon="6.61863">
        <ele>49.9</ele>
        <time>2023-11-05T13:40:24Z</time>
      </trkpt>
      <trkpt lat="43.49324" lon="6.61863">
        <ele>49.9</ele>
        <time>2023-11-05T13:40:25Z</time>
      </trkpt>
      <trkpt lat="43.49324" lon="6.61863">
        <ele>50</ele>
        <time>2023-11-05T13:40:26Z</time>
      </trkpt>
      <trkpt lat="43.49324" lon="6.61862">
        <ele>50</ele>
        <time>2023-11-05T13:40:27Z</time>
      </trkpt>
      <trkpt lat="43.49323" lon="6.61861">
        <ele>49.9</ele>
        <time>2023-11-05T13:40:28Z</time>
      </trkpt>
      <trkpt lat="43.49324" lon="6.6186">
        <ele>50</ele>
        <time>2023-11-05T13:40:29Z</time>
      </trkpt>
      <trkpt lat="43.49324" lon="6.61859">
        <ele>50.1</ele>
        <time>2023-11-05T13:40:30Z</time>
      </trkpt>
      <trkpt lat="43.49325" lon="6.61859">
        <ele>50.1</ele>
        <time>2023-11-05T13:40:31Z</time>
      </trkpt>
      <trkpt lat="43.49325" lon="6.61858">
        <ele>50.1</ele>
        <time>2023-11-05T13:40:32Z</time>
      </trkpt>
      <trkpt lat="43.49326" lon="6.61857">
        <ele>50.1</ele>
        <time>2023-11-05T13:40:33Z</time>
      </trkpt>
      <trkpt lat="43.49326" lon="6.61856">
        <ele>50.1</ele>
        <time>2023-11-05T13:40:34Z</time>
      </trkpt>
      <trkpt lat="43.49326" lon="6.61856">
        <ele>50.2</ele>
        <time>2023-11-05T13:40:35Z</time>
      </trkpt>
      <trkpt lat="43.49326" lon="6.61856">
        <ele>50.2</ele>
        <time>2023-11-05T13:40:36Z</time>
      </trkpt>
      <trkpt lat="43.49326" lon="6.61856">
        <ele>50.2</ele>
        <time>2023-11-05T13:40:37Z</time>
      </trkpt>
      <trkpt lat="43.49326" lon="6.61856">
        <ele>50.2</ele>
        <time>2023-11-05T13:40:38Z</time>
      </trkpt>
      <trkpt lat="43.49326" lon="6.61856">
        <ele>50.2</ele>
        <time>2023-11-05T13:40:39Z</time>
      </trkpt>
      <trkpt lat="43.49326" lon="6.61855">
        <ele>50.2</ele>
        <time>2023-11-05T13:40:40Z</time>
      </trkpt>
      <trkpt lat="43.49326" lon="6.61854">
        <ele>50.2</ele>
        <time>2023-11-05T13:40:41Z</time>
      </trkpt>
      <trkpt lat="43.49326" lon="6.61853">
        <ele>50.2</ele>
        <time>2023-11-05T13:40:42Z</time>
      </trkpt>
      <trkpt lat="43.49326" lon="6.61853">
        <ele>50.1</ele>
        <time>2023-11-05T13:40:43Z</time>
      </trkpt>
      <trkpt lat="43.49327" lon="6.61853">
        <ele>50</ele>
        <time>2023-11-05T13:40:44Z</time>
      </trkpt>
      <trkpt lat="43.49327" lon="6.61853">
        <ele>49.9</ele>
        <time>2023-11-05T13:40:45Z</time>
      </trkpt>
      <trkpt lat="43.49326" lon="6.61852">
        <ele>49.9</ele>
        <time>2023-11-05T13:40:46Z</time>
      </trkpt>
      <trkpt lat="43.49327" lon="6.61852">
        <ele>49.9</ele>
        <time>2023-11-05T13:40:47Z</time>
      </trkpt>
      <trkpt lat="43.49328" lon="6.61849">
        <ele>49.9</ele>
        <time>2023-11-05T13:40:48Z</time>
      </trkpt>
      <trkpt lat="43.49328" lon="6.61847">
        <ele>49.9</ele>
        <time>2023-11-05T13:40:49Z</time>
      </trkpt>
      <trkpt lat="43.49328" lon="6.61847">
        <ele>49.9</ele>
        <time>2023-11-05T13:40:50Z</time>
      </trkpt>
      <trkpt lat="43.49327" lon="6.61846">
        <ele>50</ele>
        <time>2023-11-05T13:40:51Z</time>
      </trkpt>
      <trkpt lat="43.49328" lon="6.61845">
        <ele>50</ele>
        <time>2023-11-05T13:40:52Z</time>
      </trkpt>
      <trkpt lat="43.49329" lon="6.61843">
        <ele>50</ele>
        <time>2023-11-05T13:40:53Z</time>
      </trkpt>
      <trkpt lat="43.49327" lon="6.61841">
        <ele>50</ele>
        <time>2023-11-05T13:40:54Z</time>
      </trkpt>
      <trkpt lat="43.49327" lon="6.61841">
        <ele>50</ele>
        <time>2023-11-05T13:40:55Z</time>
      </trkpt>
      <trkpt lat="43.49327" lon="6.61841">
        <ele>50</ele>
        <time>2023-11-05T13:40:56Z</time>
      </trkpt>
      <trkpt lat="43.49327" lon="6.6184">
        <ele>50</ele>
        <time>2023-11-05T13:40:57Z</time>
      </trkpt>
      <trkpt lat="43.49327" lon="6.6184">
        <ele>50</ele>
        <time>2023-11-05T13:40:58Z</time>
      </trkpt>
      <trkpt lat="43.49327" lon="6.6184">
        <ele>50</ele>
        <time>2023-11-05T13:40:59Z</time>
      </trkpt>
      <trkpt lat="43.49327" lon="6.6184">
        <ele>50</ele>
        <time>2023-11-05T13:41:00Z</time>
      </trkpt>
      <trkpt lat="43.49327" lon="6.6184">
        <ele>50</ele>
        <time>2023-11-05T13:41:01Z</time>
      </trkpt>
      <trkpt lat="43.49326" lon="6.61839">
        <ele>50</ele>
        <time>2023-11-05T13:41:02Z</time>
      </trkpt>
      <trkpt lat="43.49327" lon="6.61838">
        <ele>50</ele>
        <time>2023-11-05T13:41:03Z</time>
      </trkpt>
      <trkpt lat="43.49327" lon="6.61837">
        <ele>50.1</ele>
        <time>2023-11-05T13:41:04Z</time>
      </trkpt>
      <trkpt lat="43.49328" lon="6.61836">
        <ele>50.1</ele>
        <time>2023-11-05T13:41:05Z</time>
      </trkpt>
      <trkpt lat="43.49327" lon="6.61836">
        <ele>50.2</ele>
        <time>2023-11-05T13:41:06Z</time>
      </trkpt>
      <trkpt lat="43.49327" lon="6.61836">
        <ele>50.2</ele>
        <time>2023-11-05T13:41:07Z</time>
      </trkpt>
      <trkpt lat="43.49326" lon="6.61836">
        <ele>50.3</ele>
        <time>2023-11-05T13:41:08Z</time>
      </trkpt>
      <trkpt lat="43.49326" lon="6.61836">
        <ele>50.3</ele>
        <time>2023-11-05T13:41:09Z</time>
      </trkpt>
      <trkpt lat="43.49326" lon="6.61836">
        <ele>50.3</ele>
        <time>2023-11-05T13:41:10Z</time>
      </trkpt>
      <trkpt lat="43.49326" lon="6.61836">
        <ele>50.4</ele>
        <time>2023-11-05T13:41:11Z</time>
      </trkpt>
      <trkpt lat="43.49326" lon="6.61835">
        <ele>50.5</ele>
        <time>2023-11-05T13:41:12Z</time>
      </trkpt>
      <trkpt lat="43.49326" lon="6.61835">
        <ele>50.6</ele>
        <time>2023-11-05T13:41:13Z</time>
      </trkpt>
      <trkpt lat="43.49326" lon="6.61835">
        <ele>50.6</ele>
        <time>2023-11-05T13:41:14Z</time>
      </trkpt>
      <trkpt lat="43.49326" lon="6.61835">
        <ele>50.6</ele>
        <time>2023-11-05T13:41:15Z</time>
      </trkpt>
      <trkpt lat="43.49325" lon="6.61834">
        <ele>50.6</ele>
        <time>2023-11-05T13:41:16Z</time>
      </trkpt>
      <trkpt lat="43.49325" lon="6.61834">
        <ele>50.7</ele>
        <time>2023-11-05T13:41:17Z</time>
      </trkpt>
      <trkpt lat="43.49325" lon="6.61834">
        <ele>50.7</ele>
        <time>2023-11-05T13:41:18Z</time>
      </trkpt>
      <trkpt lat="43.49325" lon="6.61834">
        <ele>50.6</ele>
        <time>2023-11-05T13:41:19Z</time>
      </trkpt>
      <trkpt lat="43.49325" lon="6.61834">
        <ele>50.5</ele>
        <time>2023-11-05T13:41:20Z</time>
      </trkpt>
      <trkpt lat="43.49325" lon="6.61834">
        <ele>50.4</ele>
        <time>2023-11-05T13:41:21Z</time>
      </trkpt>
      <trkpt lat="43.49325" lon="6.61834">
        <ele>50.3</ele>
        <time>2023-11-05T13:41:22Z</time>
      </trkpt>
      <trkpt lat="43.49325" lon="6.61834">
        <ele>50.3</ele>
        <time>2023-11-05T13:41:23Z</time>
      </trkpt>
      <trkpt lat="43.49325" lon="6.61834">
        <ele>50.2</ele>
        <time>2023-11-05T13:41:24Z</time>
      </trkpt>
      <trkpt lat="43.49324" lon="6.61834">
        <ele>50.3</ele>
        <time>2023-11-05T13:41:25Z</time>
      </trkpt>
      <trkpt lat="43.49324" lon="6.61833">
        <ele>50.3</ele>
        <time>2023-11-05T13:41:26Z</time>
      </trkpt>
      <trkpt lat="43.49324" lon="6.61833">
        <ele>50.4</ele>
        <time>2023-11-05T13:41:27Z</time>
      </trkpt>
      <trkpt lat="43.49324" lon="6.61833">
        <ele>50.4</ele>
        <time>2023-11-05T13:41:28Z</time>
      </trkpt>
      <trkpt lat="43.49324" lon="6.61833">
        <ele>50.5</ele>
        <time>2023-11-05T13:41:29Z</time>
      </trkpt>
      <trkpt lat="43.49324" lon="6.61833">
        <ele>50.6</ele>
        <time>2023-11-05T13:41:30Z</time>
      </trkpt>
      <trkpt lat="43.49324" lon="6.61833">
        <ele>50.7</ele>
        <time>2023-11-05T13:41:31Z</time>
      </trkpt>
      <trkpt lat="43.49324" lon="6.61834">
        <ele>50.7</ele>
        <time>2023-11-05T13:41:32Z</time>
      </trkpt>
      <trkpt lat="43.49324" lon="6.61834">
        <ele>50.7</ele>
        <time>2023-11-05T13:41:33Z</time>
      </trkpt>
      <trkpt lat="43.49324" lon="6.61834">
        <ele>50.7</ele>
        <time>2023-11-05T13:41:34Z</time>
      </trkpt>
      <trkpt lat="43.49324" lon="6.61834">
        <ele>50.7</ele>
        <time>2023-11-05T13:41:35Z</time>
      </trkpt>
      <trkpt lat="43.49324" lon="6.61834">
        <ele>50.7</ele>
        <time>2023-11-05T13:41:36Z</time>
      </trkpt>
      <trkpt lat="43.49324" lon="6.61834">
        <ele>50.9</ele>
        <time>2023-11-05T13:41:37Z</time>
      </trkpt>
      <trkpt lat="43.49324" lon="6.61834">
        <ele>51</ele>
        <time>2023-11-05T13:41:38Z</time>
      </trkpt>
      <trkpt lat="43.49324" lon="6.61833">
        <ele>51</ele>
        <time>2023-11-05T13:41:39Z</time>
      </trkpt>
      <trkpt lat="43.49325" lon="6.61833">
        <ele>51</ele>
        <time>2023-11-05T13:41:40Z</time>
      </trkpt>
      <trkpt lat="43.49325" lon="6.61833">
        <ele>51</ele>
        <time>2023-11-05T13:41:41Z</time>
      </trkpt>
      <trkpt lat="43.49325" lon="6.61833">
        <ele>51</ele>
        <time>2023-11-05T13:41:42Z</time>
      </trkpt>
      <trkpt lat="43.49325" lon="6.61834">
        <ele>51</ele>
        <time>2023-11-05T13:41:43Z</time>
      </trkpt>
      <trkpt lat="43.49325" lon="6.61834">
        <ele>51</ele>
        <time>2023-11-05T13:41:44Z</time>
      </trkpt>
      <trkpt lat="43.49325" lon="6.61834">
        <ele>51</ele>
        <time>2023-11-05T13:41:45Z</time>
      </trkpt>
      <trkpt lat="43.49325" lon="6.61834">
        <ele>50.9</ele>
        <time>2023-11-05T13:41:46Z</time>
      </trkpt>
      <trkpt lat="43.49325" lon="6.61834">
        <ele>50.8</ele>
        <time>2023-11-05T13:41:47Z</time>
      </trkpt>
      <trkpt lat="43.49324" lon="6.61835">
        <ele>50.7</ele>
        <time>2023-11-05T13:41:48Z</time>
      </trkpt>
      <trkpt lat="43.49325" lon="6.61835">
        <ele>50.7</ele>
        <time>2023-11-05T13:41:49Z</time>
      </trkpt>
      <trkpt lat="43.49324" lon="6.61835">
        <ele>50.8</ele>
        <time>2023-11-05T13:41:50Z</time>
      </trkpt>
      <trkpt lat="43.49324" lon="6.61835">
        <ele>50.8</ele>
        <time>2023-11-05T13:41:51Z</time>
      </trkpt>
      <trkpt lat="43.49324" lon="6.61835">
        <ele>50.6</ele>
        <time>2023-11-05T13:41:52Z</time>
      </trkpt>
      <trkpt lat="43.49325" lon="6.61835">
        <ele>50.6</ele>
        <time>2023-11-05T13:41:53Z</time>
      </trkpt>
      <trkpt lat="43.49325" lon="6.61835">
        <ele>50.6</ele>
        <time>2023-11-05T13:41:54Z</time>
      </trkpt>
      <trkpt lat="43.49325" lon="6.61835">
        <ele>50.6</ele>
        <time>2023-11-05T13:41:55Z</time>
      </trkpt>
      <trkpt lat="43.49325" lon="6.61835">
        <ele>50.6</ele>
        <time>2023-11-05T13:41:56Z</time>
      </trkpt>
      <trkpt lat="43.49325" lon="6.61834">
        <ele>50.6</ele>
        <time>2023-11-05T13:41:57Z</time>
      </trkpt>
      <trkpt lat="43.49326" lon="6.61834">
        <ele>50.7</ele>
        <time>2023-11-05T13:41:58Z</time>
      </trkpt>
      <trkpt lat="43.49326" lon="6.61834">
        <ele>50.8</ele>
        <time>2023-11-05T13:41:59Z</time>
      </trkpt>
      <trkpt lat="43.49327" lon="6.61834">
        <ele>50.8</ele>
        <time>2023-11-05T13:42:00Z</time>
      </trkpt>
      <trkpt lat="43.49327" lon="6.61833">
        <ele>50.9</ele>
        <time>2023-11-05T13:42:01Z</time>
      </trkpt>
      <trkpt lat="43.49327" lon="6.61831">
        <ele>50.9</ele>
        <time>2023-11-05T13:42:02Z</time>
      </trkpt>
      <trkpt lat="43.49327" lon="6.6183">
        <ele>50.9</ele>
        <time>2023-11-05T13:42:03Z</time>
      </trkpt>
      <trkpt lat="43.49327" lon="6.61829">
        <ele>50.8</ele>
        <time>2023-11-05T13:42:04Z</time>
      </trkpt>
      <trkpt lat="43.49327" lon="6.61829">
        <ele>50.8</ele>
        <time>2023-11-05T13:42:05Z</time>
      </trkpt>
      <trkpt lat="43.49327" lon="6.61828">
        <ele>50.9</ele>
        <time>2023-11-05T13:42:06Z</time>
      </trkpt>
      <trkpt lat="43.49327" lon="6.61828">
        <ele>50.9</ele>
        <time>2023-11-05T13:42:07Z</time>
      </trkpt>
      <trkpt lat="43.49327" lon="6.61828">
        <ele>50.8</ele>
        <time>2023-11-05T13:42:08Z</time>
      </trkpt>
      <trkpt lat="43.49327" lon="6.61828">
        <ele>50.6</ele>
        <time>2023-11-05T13:42:09Z</time>
      </trkpt>
      <trkpt lat="43.49327" lon="6.61828">
        <ele>50.5</ele>
        <time>2023-11-05T13:42:10Z</time>
      </trkpt>
      <trkpt lat="43.49328" lon="6.61827">
        <ele>50.4</ele>
        <time>2023-11-05T13:42:11Z</time>
      </trkpt>
      <trkpt lat="43.49328" lon="6.61826">
        <ele>50.4</ele>
        <time>2023-11-05T13:42:12Z</time>
      </trkpt>
      <trkpt lat="43.49329" lon="6.61826">
        <ele>50.4</ele>
        <time>2023-11-05T13:42:13Z</time>
      </trkpt>
      <trkpt lat="43.4933" lon="6.61825">
        <ele>50.4</ele>
        <time>2023-11-05T13:42:14Z</time>
      </trkpt>
      <trkpt lat="43.4933" lon="6.61824">
        <ele>50.3</ele>
        <time>2023-11-05T13:42:15Z</time>
      </trkpt>
      <trkpt lat="43.49331" lon="6.61824">
        <ele>50.3</ele>
        <time>2023-11-05T13:42:16Z</time>
      </trkpt>
      <trkpt lat="43.49331" lon="6.61823">
        <ele>50.3</ele>
        <time>2023-11-05T13:42:17Z</time>
      </trkpt>
      <trkpt lat="43.49331" lon="6.61823">
        <ele>50.4</ele>
        <time>2023-11-05T13:42:18Z</time>
      </trkpt>
      <trkpt lat="43.49331" lon="6.61822">
        <ele>50.4</ele>
        <time>2023-11-05T13:42:19Z</time>
      </trkpt>
      <trkpt lat="43.49331" lon="6.61822">
        <ele>50.5</ele>
        <time>2023-11-05T13:42:20Z</time>
      </trkpt>
      <trkpt lat="43.49331" lon="6.61822">
        <ele>50.5</ele>
        <time>2023-11-05T13:42:21Z</time>
      </trkpt>
      <trkpt lat="43.49332" lon="6.61821">
        <ele>50.5</ele>
        <time>2023-11-05T13:42:22Z</time>
      </trkpt>
      <trkpt lat="43.49332" lon="6.61821">
        <ele>50.5</ele>
        <time>2023-11-05T13:42:23Z</time>
      </trkpt>
      <trkpt lat="43.49332" lon="6.6182">
        <ele>50.5</ele>
        <time>2023-11-05T13:42:24Z</time>
      </trkpt>
      <trkpt lat="43.49332" lon="6.6182">
        <ele>50.6</ele>
        <time>2023-11-05T13:42:25Z</time>
      </trkpt>
      <trkpt lat="43.49332" lon="6.6182">
        <ele>50.5</ele>
        <time>2023-11-05T13:42:26Z</time>
      </trkpt>
      <trkpt lat="43.49332" lon="6.6182">
        <ele>50.5</ele>
        <time>2023-11-05T13:42:27Z</time>
      </trkpt>
      <trkpt lat="43.49332" lon="6.6182">
        <ele>50.4</ele>
        <time>2023-11-05T13:42:28Z</time>
      </trkpt>
      <trkpt lat="43.49332" lon="6.6182">
        <ele>50.4</ele>
        <time>2023-11-05T13:42:29Z</time>
      </trkpt>
      <trkpt lat="43.49332" lon="6.6182">
        <ele>50.4</ele>
        <time>2023-11-05T13:42:30Z</time>
      </trkpt>
      <trkpt lat="43.49332" lon="6.6182">
        <ele>50.4</ele>
        <time>2023-11-05T13:42:31Z</time>
      </trkpt>
      <trkpt lat="43.49332" lon="6.6182">
        <ele>50.5</ele>
        <time>2023-11-05T13:42:32Z</time>
      </trkpt>
      <trkpt lat="43.49332" lon="6.6182">
        <ele>50.6</ele>
        <time>2023-11-05T13:42:33Z</time>
      </trkpt>
      <trkpt lat="43.49332" lon="6.6182">
        <ele>50.7</ele>
        <time>2023-11-05T13:42:34Z</time>
      </trkpt>
      <trkpt lat="43.49332" lon="6.6182">
        <ele>50.7</ele>
        <time>2023-11-05T13:42:35Z</time>
      </trkpt>
      <trkpt lat="43.49332" lon="6.6182">
        <ele>50.6</ele>
        <time>2023-11-05T13:42:36Z</time>
      </trkpt>
      <trkpt lat="43.49332" lon="6.6182">
        <ele>50.5</ele>
        <time>2023-11-05T13:42:37Z</time>
      </trkpt>
      <trkpt lat="43.49332" lon="6.6182">
        <ele>50.4</ele>
        <time>2023-11-05T13:42:38Z</time>
      </trkpt>
      <trkpt lat="43.49332" lon="6.6182">
        <ele>50.3</ele>
        <time>2023-11-05T13:42:39Z</time>
      </trkpt>
      <trkpt lat="43.49332" lon="6.6182">
        <ele>50.3</ele>
        <time>2023-11-05T13:42:40Z</time>
      </trkpt>
      <trkpt lat="43.49332" lon="6.6182">
        <ele>50.3</ele>
        <time>2023-11-05T13:42:41Z</time>
      </trkpt>
      <trkpt lat="43.49332" lon="6.6182">
        <ele>50.3</ele>
        <time>2023-11-05T13:42:42Z</time>
      </trkpt>
      <trkpt lat="43.49332" lon="6.6182">
        <ele>50.3</ele>
        <time>2023-11-05T13:42:43Z</time>
      </trkpt>
      <trkpt lat="43.49332" lon="6.6182">
        <ele>50.3</ele>
        <time>2023-11-05T13:42:44Z</time>
      </trkpt>
      <trkpt lat="43.49332" lon="6.6182">
        <ele>50.3</ele>
        <time>2023-11-05T13:42:45Z</time>
      </trkpt>
      <trkpt lat="43.49332" lon="6.6182">
        <ele>50.3</ele>
        <time>2023-11-05T13:42:46Z</time>
      </trkpt>
      <trkpt lat="43.49332" lon="6.6182">
        <ele>50.3</ele>
        <time>2023-11-05T13:42:47Z</time>
      </trkpt>
      <trkpt lat="43.49332" lon="6.6182">
        <ele>50.3</ele>
        <time>2023-11-05T13:42:48Z</time>
      </trkpt>
      <trkpt lat="43.49332" lon="6.61819">
        <ele>50.4</ele>
        <time>2023-11-05T13:42:49Z</time>
      </trkpt>
      <trkpt lat="43.49332" lon="6.61819">
        <ele>50.4</ele>
        <time>2023-11-05T13:42:50Z</time>
      </trkpt>
      <trkpt lat="43.49332" lon="6.61819">
        <ele>50.6</ele>
        <time>2023-11-05T13:42:51Z</time>
      </trkpt>
      <trkpt lat="43.49332" lon="6.61819">
        <ele>50.7</ele>
        <time>2023-11-05T13:42:52Z</time>
      </trkpt>
      <trkpt lat="43.49332" lon="6.6182">
        <ele>50.8</ele>
        <time>2023-11-05T13:42:53Z</time>
      </trkpt>
      <trkpt lat="43.49332" lon="6.61819">
        <ele>50.8</ele>
        <time>2023-11-05T13:42:54Z</time>
      </trkpt>
      <trkpt lat="43.49332" lon="6.61819">
        <ele>50.8</ele>
        <time>2023-11-05T13:42:55Z</time>
      </trkpt>
      <trkpt lat="43.49332" lon="6.61819">
        <ele>50.8</ele>
        <time>2023-11-05T13:42:56Z</time>
      </trkpt>
      <trkpt lat="43.49332" lon="6.61819">
        <ele>50.8</ele>
        <time>2023-11-05T13:42:57Z</time>
      </trkpt>
      <trkpt lat="43.49332" lon="6.61819">
        <ele>50.8</ele>
        <time>2023-11-05T13:42:58Z</time>
      </trkpt>
      <trkpt lat="43.49333" lon="6.61819">
        <ele>50.7</ele>
        <time>2023-11-05T13:42:59Z</time>
      </trkpt>
      <trkpt lat="43.49334" lon="6.61819">
        <ele>50.7</ele>
        <time>2023-11-05T13:43:00Z</time>
      </trkpt>
      <trkpt lat="43.49334" lon="6.6182">
        <ele>50.6</ele>
        <time>2023-11-05T13:43:01Z</time>
      </trkpt>
      <trkpt lat="43.49336" lon="6.6182">
        <ele>50.6</ele>
        <time>2023-11-05T13:43:02Z</time>
      </trkpt>
      <trkpt lat="43.49337" lon="6.6182">
        <ele>50.6</ele>
        <time>2023-11-05T13:43:03Z</time>
      </trkpt>
      <trkpt lat="43.49337" lon="6.61819">
        <ele>50.6</ele>
        <time>2023-11-05T13:43:04Z</time>
      </trkpt>
      <trkpt lat="43.49339" lon="6.61817">
        <ele>50.6</ele>
        <time>2023-11-05T13:43:05Z</time>
      </trkpt>
      <trkpt lat="43.4934" lon="6.61817">
        <ele>50.6</ele>
        <time>2023-11-05T13:43:06Z</time>
      </trkpt>
      <trkpt lat="43.49341" lon="6.61816">
        <ele>50.6</ele>
        <time>2023-11-05T13:43:07Z</time>
      </trkpt>
      <trkpt lat="43.49341" lon="6.61816">
        <ele>50.5</ele>
        <time>2023-11-05T13:43:08Z</time>
      </trkpt>
      <trkpt lat="43.49343" lon="6.61816">
        <ele>50.6</ele>
        <time>2023-11-05T13:43:09Z</time>
      </trkpt>
      <trkpt lat="43.49344" lon="6.61816">
        <ele>50.7</ele>
        <time>2023-11-05T13:43:10Z</time>
      </trkpt>
      <trkpt lat="43.49344" lon="6.61816">
        <ele>50.8</ele>
        <time>2023-11-05T13:43:11Z</time>
      </trkpt>
      <trkpt lat="43.49345" lon="6.61816">
        <ele>50.9</ele>
        <time>2023-11-05T13:43:12Z</time>
      </trkpt>
      <trkpt lat="43.49346" lon="6.61817">
        <ele>51</ele>
        <time>2023-11-05T13:43:13Z</time>
      </trkpt>
      <trkpt lat="43.49347" lon="6.61817">
        <ele>51.2</ele>
        <time>2023-11-05T13:43:14Z</time>
      </trkpt>
      <trkpt lat="43.49349" lon="6.61818">
        <ele>51.3</ele>
        <time>2023-11-05T13:43:15Z</time>
      </trkpt>
      <trkpt lat="43.4935" lon="6.61818">
        <ele>51.4</ele>
        <time>2023-11-05T13:43:16Z</time>
      </trkpt>
      <trkpt lat="43.49351" lon="6.61818">
        <ele>51.4</ele>
        <time>2023-11-05T13:43:17Z</time>
      </trkpt>
      <trkpt lat="43.49352" lon="6.61818">
        <ele>51.5</ele>
        <time>2023-11-05T13:43:18Z</time>
      </trkpt>
      <trkpt lat="43.49353" lon="6.61818">
        <ele>51.5</ele>
        <time>2023-11-05T13:43:19Z</time>
      </trkpt>
      <trkpt lat="43.49354" lon="6.61819">
        <ele>51.6</ele>
        <time>2023-11-05T13:43:20Z</time>
      </trkpt>
      <trkpt lat="43.49355" lon="6.61819">
        <ele>51.7</ele>
        <time>2023-11-05T13:43:21Z</time>
      </trkpt>
      <trkpt lat="43.49356" lon="6.6182">
        <ele>51.7</ele>
        <time>2023-11-05T13:43:22Z</time>
      </trkpt>
      <trkpt lat="43.49356" lon="6.61821">
        <ele>51.8</ele>
        <time>2023-11-05T13:43:23Z</time>
      </trkpt>
      <trkpt lat="43.49357" lon="6.61822">
        <ele>51.8</ele>
        <time>2023-11-05T13:43:24Z</time>
      </trkpt>
      <trkpt lat="43.49357" lon="6.61822">
        <ele>51.8</ele>
        <time>2023-11-05T13:43:25Z</time>
      </trkpt>
      <trkpt lat="43.49359" lon="6.61823">
        <ele>51.8</ele>
        <time>2023-11-05T13:43:26Z</time>
      </trkpt>
      <trkpt lat="43.4936" lon="6.61824">
        <ele>51.8</ele>
        <time>2023-11-05T13:43:27Z</time>
      </trkpt>
      <trkpt lat="43.4936" lon="6.61824">
        <ele>51.8</ele>
        <time>2023-11-05T13:43:28Z</time>
      </trkpt>
      <trkpt lat="43.49361" lon="6.61825">
        <ele>51.7</ele>
        <time>2023-11-05T13:43:29Z</time>
      </trkpt>
      <trkpt lat="43.49362" lon="6.61826">
        <ele>51.6</ele>
        <time>2023-11-05T13:43:30Z</time>
      </trkpt>
      <trkpt lat="43.49363" lon="6.61827">
        <ele>51.5</ele>
        <time>2023-11-05T13:43:31Z</time>
      </trkpt>
      <trkpt lat="43.49364" lon="6.61827">
        <ele>51.4</ele>
        <time>2023-11-05T13:43:32Z</time>
      </trkpt>
      <trkpt lat="43.49366" lon="6.61828">
        <ele>51.4</ele>
        <time>2023-11-05T13:43:33Z</time>
      </trkpt>
      <trkpt lat="43.49367" lon="6.61829">
        <ele>51.2</ele>
        <time>2023-11-05T13:43:34Z</time>
      </trkpt>
      <trkpt lat="43.49368" lon="6.6183">
        <ele>51.2</ele>
        <time>2023-11-05T13:43:35Z</time>
      </trkpt>
      <trkpt lat="43.49369" lon="6.61831">
        <ele>51</ele>
        <time>2023-11-05T13:43:36Z</time>
      </trkpt>
      <trkpt lat="43.4937" lon="6.61832">
        <ele>51</ele>
        <time>2023-11-05T13:43:37Z</time>
      </trkpt>
      <trkpt lat="43.4937" lon="6.61834">
        <ele>50.9</ele>
        <time>2023-11-05T13:43:38Z</time>
      </trkpt>
      <trkpt lat="43.49371" lon="6.61836">
        <ele>50.8</ele>
        <time>2023-11-05T13:43:39Z</time>
      </trkpt>
      <trkpt lat="43.49371" lon="6.61838">
        <ele>50.8</ele>
        <time>2023-11-05T13:43:40Z</time>
      </trkpt>
      <trkpt lat="43.49371" lon="6.61839">
        <ele>50.8</ele>
        <time>2023-11-05T13:43:41Z</time>
      </trkpt>
      <trkpt lat="43.49372" lon="6.61841">
        <ele>50.8</ele>
        <time>2023-11-05T13:43:42Z</time>
      </trkpt>
      <trkpt lat="43.49372" lon="6.61843">
        <ele>50.9</ele>
        <time>2023-11-05T13:43:43Z</time>
      </trkpt>
      <trkpt lat="43.49373" lon="6.61844">
        <ele>51</ele>
        <time>2023-11-05T13:43:44Z</time>
      </trkpt>
      <trkpt lat="43.49374" lon="6.61845">
        <ele>51.2</ele>
        <time>2023-11-05T13:43:45Z</time>
      </trkpt>
      <trkpt lat="43.49374" lon="6.61847">
        <ele>51.3</ele>
        <time>2023-11-05T13:43:46Z</time>
      </trkpt>
      <trkpt lat="43.49374" lon="6.61849">
        <ele>51.5</ele>
        <time>2023-11-05T13:43:47Z</time>
      </trkpt>
      <trkpt lat="43.49375" lon="6.6185">
        <ele>51.7</ele>
        <time>2023-11-05T13:43:48Z</time>
      </trkpt>
      <trkpt lat="43.49375" lon="6.61852">
        <ele>51.8</ele>
        <time>2023-11-05T13:43:49Z</time>
      </trkpt>
      <trkpt lat="43.49376" lon="6.61853">
        <ele>52</ele>
        <time>2023-11-05T13:43:50Z</time>
      </trkpt>
      <trkpt lat="43.49377" lon="6.61855">
        <ele>52.2</ele>
        <time>2023-11-05T13:43:51Z</time>
      </trkpt>
      <trkpt lat="43.49378" lon="6.61857">
        <ele>52.3</ele>
        <time>2023-11-05T13:43:52Z</time>
      </trkpt>
      <trkpt lat="43.49378" lon="6.61858">
        <ele>52.5</ele>
        <time>2023-11-05T13:43:53Z</time>
      </trkpt>
      <trkpt lat="43.49379" lon="6.6186">
        <ele>52.6</ele>
        <time>2023-11-05T13:43:54Z</time>
      </trkpt>
      <trkpt lat="43.49381" lon="6.61862">
        <ele>52.6</ele>
        <time>2023-11-05T13:43:55Z</time>
      </trkpt>
      <trkpt lat="43.49382" lon="6.61863">
        <ele>52.7</ele>
        <time>2023-11-05T13:43:56Z</time>
      </trkpt>
      <trkpt lat="43.49383" lon="6.61864">
        <ele>52.7</ele>
        <time>2023-11-05T13:43:57Z</time>
      </trkpt>
      <trkpt lat="43.49383" lon="6.61866">
        <ele>52.7</ele>
        <time>2023-11-05T13:43:58Z</time>
      </trkpt>
      <trkpt lat="43.49384" lon="6.61868">
        <ele>52.6</ele>
        <time>2023-11-05T13:43:59Z</time>
      </trkpt>
      <trkpt lat="43.49385" lon="6.61869">
        <ele>52.6</ele>
        <time>2023-11-05T13:44:00Z</time>
      </trkpt>
      <trkpt lat="43.49386" lon="6.6187">
        <ele>52.6</ele>
        <time>2023-11-05T13:44:01Z</time>
      </trkpt>
      <trkpt lat="43.49386" lon="6.61871">
        <ele>52.5</ele>
        <time>2023-11-05T13:44:02Z</time>
      </trkpt>
      <trkpt lat="43.49388" lon="6.61872">
        <ele>52.5</ele>
        <time>2023-11-05T13:44:03Z</time>
      </trkpt>
      <trkpt lat="43.49388" lon="6.61873">
        <ele>52.5</ele>
        <time>2023-11-05T13:44:04Z</time>
      </trkpt>
      <trkpt lat="43.49389" lon="6.61875">
        <ele>52.8</ele>
        <time>2023-11-05T13:44:05Z</time>
      </trkpt>
      <trkpt lat="43.4939" lon="6.61876">
        <ele>52.9</ele>
        <time>2023-11-05T13:44:06Z</time>
      </trkpt>
      <trkpt lat="43.49391" lon="6.61877">
        <ele>53</ele>
        <time>2023-11-05T13:44:07Z</time>
      </trkpt>
      <trkpt lat="43.49392" lon="6.61878">
        <ele>53.3</ele>
        <time>2023-11-05T13:44:08Z</time>
      </trkpt>
      <trkpt lat="43.49393" lon="6.61879">
        <ele>53.5</ele>
        <time>2023-11-05T13:44:09Z</time>
      </trkpt>
      <trkpt lat="43.49395" lon="6.6188">
        <ele>53.4</ele>
        <time>2023-11-05T13:44:10Z</time>
      </trkpt>
      <trkpt lat="43.49396" lon="6.6188">
        <ele>53.3</ele>
        <time>2023-11-05T13:44:11Z</time>
      </trkpt>
      <trkpt lat="43.49397" lon="6.61881">
        <ele>53.4</ele>
        <time>2023-11-05T13:44:12Z</time>
      </trkpt>
      <trkpt lat="43.49397" lon="6.61882">
        <ele>53.5</ele>
        <time>2023-11-05T13:44:13Z</time>
      </trkpt>
      <trkpt lat="43.49398" lon="6.61883">
        <ele>53.6</ele>
        <time>2023-11-05T13:44:14Z</time>
      </trkpt>
      <trkpt lat="43.49399" lon="6.61884">
        <ele>53.8</ele>
        <time>2023-11-05T13:44:15Z</time>
      </trkpt>
      <trkpt lat="43.494" lon="6.61885">
        <ele>54</ele>
        <time>2023-11-05T13:44:16Z</time>
      </trkpt>
      <trkpt lat="43.49401" lon="6.61887">
        <ele>54.2</ele>
        <time>2023-11-05T13:44:17Z</time>
      </trkpt>
      <trkpt lat="43.49402" lon="6.61888">
        <ele>54.2</ele>
        <time>2023-11-05T13:44:18Z</time>
      </trkpt>
      <trkpt lat="43.49403" lon="6.61889">
        <ele>54.5</ele>
        <time>2023-11-05T13:44:19Z</time>
      </trkpt>
      <trkpt lat="43.49404" lon="6.6189">
        <ele>54.7</ele>
        <time>2023-11-05T13:44:20Z</time>
      </trkpt>
      <trkpt lat="43.49404" lon="6.61891">
        <ele>54.7</ele>
        <time>2023-11-05T13:44:21Z</time>
      </trkpt>
      <trkpt lat="43.49405" lon="6.61892">
        <ele>54.8</ele>
        <time>2023-11-05T13:44:22Z</time>
      </trkpt>
      <trkpt lat="43.49406" lon="6.61893">
        <ele>54.9</ele>
        <time>2023-11-05T13:44:23Z</time>
      </trkpt>
      <trkpt lat="43.49407" lon="6.61893">
        <ele>55</ele>
        <time>2023-11-05T13:44:24Z</time>
      </trkpt>
      <trkpt lat="43.49408" lon="6.61894">
        <ele>55.1</ele>
        <time>2023-11-05T13:44:25Z</time>
      </trkpt>
      <trkpt lat="43.49409" lon="6.61895">
        <ele>55.1</ele>
        <time>2023-11-05T13:44:26Z</time>
      </trkpt>
      <trkpt lat="43.4941" lon="6.61896">
        <ele>55</ele>
        <time>2023-11-05T13:44:27Z</time>
      </trkpt>
      <trkpt lat="43.49412" lon="6.61896">
        <ele>55</ele>
        <time>2023-11-05T13:44:28Z</time>
      </trkpt>
      <trkpt lat="43.49412" lon="6.61897">
        <ele>55.1</ele>
        <time>2023-11-05T13:44:29Z</time>
      </trkpt>
      <trkpt lat="43.49413" lon="6.61898">
        <ele>55.2</ele>
        <time>2023-11-05T13:44:30Z</time>
      </trkpt>
      <trkpt lat="43.49414" lon="6.61899">
        <ele>55.3</ele>
        <time>2023-11-05T13:44:31Z</time>
      </trkpt>
      <trkpt lat="43.49415" lon="6.619">
        <ele>55.3</ele>
        <time>2023-11-05T13:44:32Z</time>
      </trkpt>
      <trkpt lat="43.49416" lon="6.619">
        <ele>55.3</ele>
        <time>2023-11-05T13:44:33Z</time>
      </trkpt>
      <trkpt lat="43.49417" lon="6.61901">
        <ele>55.4</ele>
        <time>2023-11-05T13:44:34Z</time>
      </trkpt>
      <trkpt lat="43.49418" lon="6.61901">
        <ele>55.5</ele>
        <time>2023-11-05T13:44:35Z</time>
      </trkpt>
      <trkpt lat="43.4942" lon="6.61902">
        <ele>55.5</ele>
        <time>2023-11-05T13:44:36Z</time>
      </trkpt>
      <trkpt lat="43.49421" lon="6.61903">
        <ele>55.6</ele>
        <time>2023-11-05T13:44:37Z</time>
      </trkpt>
      <trkpt lat="43.49422" lon="6.61904">
        <ele>55.7</ele>
        <time>2023-11-05T13:44:38Z</time>
      </trkpt>
      <trkpt lat="43.49423" lon="6.61905">
        <ele>55.6</ele>
        <time>2023-11-05T13:44:39Z</time>
      </trkpt>
      <trkpt lat="43.49424" lon="6.61906">
        <ele>55.5</ele>
        <time>2023-11-05T13:44:40Z</time>
      </trkpt>
      <trkpt lat="43.49425" lon="6.61907">
        <ele>55.6</ele>
        <time>2023-11-05T13:44:41Z</time>
      </trkpt>
      <trkpt lat="43.49426" lon="6.61908">
        <ele>55.5</ele>
        <time>2023-11-05T13:44:42Z</time>
      </trkpt>
      <trkpt lat="43.49427" lon="6.61909">
        <ele>55.6</ele>
        <time>2023-11-05T13:44:43Z</time>
      </trkpt>
      <trkpt lat="43.49428" lon="6.6191">
        <ele>55.6</ele>
        <time>2023-11-05T13:44:44Z</time>
      </trkpt>
      <trkpt lat="43.49428" lon="6.61911">
        <ele>55.6</ele>
        <time>2023-11-05T13:44:45Z</time>
      </trkpt>
      <trkpt lat="43.49429" lon="6.61911">
        <ele>55.5</ele>
        <time>2023-11-05T13:44:46Z</time>
      </trkpt>
      <trkpt lat="43.49429" lon="6.61911">
        <ele>55.5</ele>
        <time>2023-11-05T13:44:47Z</time>
      </trkpt>
      <trkpt lat="43.4943" lon="6.61911">
        <ele>55.5</ele>
        <time>2023-11-05T13:44:48Z</time>
      </trkpt>
      <trkpt lat="43.4943" lon="6.6191">
        <ele>55.6</ele>
        <time>2023-11-05T13:44:49Z</time>
      </trkpt>
      <trkpt lat="43.49431" lon="6.6191">
        <ele>55.6</ele>
        <time>2023-11-05T13:44:50Z</time>
      </trkpt>
      <trkpt lat="43.49433" lon="6.61909">
        <ele>55.6</ele>
        <time>2023-11-05T13:44:51Z</time>
      </trkpt>
      <trkpt lat="43.49434" lon="6.61909">
        <ele>55.6</ele>
        <time>2023-11-05T13:44:52Z</time>
      </trkpt>
      <trkpt lat="43.49434" lon="6.6191">
        <ele>55.7</ele>
        <time>2023-11-05T13:44:53Z</time>
      </trkpt>
      <trkpt lat="43.49436" lon="6.6191">
        <ele>55.6</ele>
        <time>2023-11-05T13:44:54Z</time>
      </trkpt>
      <trkpt lat="43.49437" lon="6.61911">
        <ele>55.6</ele>
        <time>2023-11-05T13:44:55Z</time>
      </trkpt>
      <trkpt lat="43.49437" lon="6.61911">
        <ele>55.6</ele>
        <time>2023-11-05T13:44:56Z</time>
      </trkpt>
      <trkpt lat="43.49439" lon="6.61911">
        <ele>55.5</ele>
        <time>2023-11-05T13:44:57Z</time>
      </trkpt>
      <trkpt lat="43.49439" lon="6.61911">
        <ele>55.5</ele>
        <time>2023-11-05T13:44:58Z</time>
      </trkpt>
      <trkpt lat="43.4944" lon="6.61912">
        <ele>55.5</ele>
        <time>2023-11-05T13:44:59Z</time>
      </trkpt>
      <trkpt lat="43.49441" lon="6.61912">
        <ele>55.4</ele>
        <time>2023-11-05T13:45:00Z</time>
      </trkpt>
      <trkpt lat="43.49442" lon="6.61912">
        <ele>55.4</ele>
        <time>2023-11-05T13:45:01Z</time>
      </trkpt>
      <trkpt lat="43.49443" lon="6.61913">
        <ele>55.4</ele>
        <time>2023-11-05T13:45:02Z</time>
      </trkpt>
      <trkpt lat="43.49443" lon="6.61913">
        <ele>55.3</ele>
        <time>2023-11-05T13:45:03Z</time>
      </trkpt>
      <trkpt lat="43.49444" lon="6.61914">
        <ele>55.2</ele>
        <time>2023-11-05T13:45:04Z</time>
      </trkpt>
      <trkpt lat="43.49446" lon="6.61915">
        <ele>55.2</ele>
        <time>2023-11-05T13:45:05Z</time>
      </trkpt>
      <trkpt lat="43.49447" lon="6.61915">
        <ele>55.2</ele>
        <time>2023-11-05T13:45:06Z</time>
      </trkpt>
      <trkpt lat="43.49448" lon="6.61916">
        <ele>55.2</ele>
        <time>2023-11-05T13:45:07Z</time>
      </trkpt>
      <trkpt lat="43.49449" lon="6.61917">
        <ele>55.2</ele>
        <time>2023-11-05T13:45:08Z</time>
      </trkpt>
      <trkpt lat="43.4945" lon="6.61918">
        <ele>55.2</ele>
        <time>2023-11-05T13:45:09Z</time>
      </trkpt>
      <trkpt lat="43.49451" lon="6.61918">
        <ele>55.2</ele>
        <time>2023-11-05T13:45:10Z</time>
      </trkpt>
      <trkpt lat="43.49452" lon="6.61919">
        <ele>55.1</ele>
        <time>2023-11-05T13:45:11Z</time>
      </trkpt>
      <trkpt lat="43.49453" lon="6.6192">
        <ele>55.2</ele>
        <time>2023-11-05T13:45:12Z</time>
      </trkpt>
      <trkpt lat="43.49454" lon="6.61921">
        <ele>55.2</ele>
        <time>2023-11-05T13:45:13Z</time>
      </trkpt>
      <trkpt lat="43.49455" lon="6.61921">
        <ele>55.2</ele>
        <time>2023-11-05T13:45:14Z</time>
      </trkpt>
      <trkpt lat="43.49456" lon="6.61922">
        <ele>55.2</ele>
        <time>2023-11-05T13:45:15Z</time>
      </trkpt>
      <trkpt lat="43.49457" lon="6.61922">
        <ele>55.2</ele>
        <time>2023-11-05T13:45:16Z</time>
      </trkpt>
      <trkpt lat="43.49458" lon="6.61923">
        <ele>55.2</ele>
        <time>2023-11-05T13:45:17Z</time>
      </trkpt>
      <trkpt lat="43.49459" lon="6.61924">
        <ele>55.1</ele>
        <time>2023-11-05T13:45:18Z</time>
      </trkpt>
      <trkpt lat="43.4946" lon="6.61925">
        <ele>55</ele>
        <time>2023-11-05T13:45:19Z</time>
      </trkpt>
      <trkpt lat="43.49461" lon="6.61926">
        <ele>55</ele>
        <time>2023-11-05T13:45:20Z</time>
      </trkpt>
      <trkpt lat="43.49462" lon="6.61927">
        <ele>55</ele>
        <time>2023-11-05T13:45:21Z</time>
      </trkpt>
      <trkpt lat="43.49463" lon="6.61927">
        <ele>54.9</ele>
        <time>2023-11-05T13:45:22Z</time>
      </trkpt>
      <trkpt lat="43.49464" lon="6.61928">
        <ele>54.8</ele>
        <time>2023-11-05T13:45:23Z</time>
      </trkpt>
      <trkpt lat="43.49465" lon="6.61929">
        <ele>54.8</ele>
        <time>2023-11-05T13:45:24Z</time>
      </trkpt>
      <trkpt lat="43.49466" lon="6.61929">
        <ele>54.7</ele>
        <time>2023-11-05T13:45:25Z</time>
      </trkpt>
      <trkpt lat="43.49467" lon="6.6193">
        <ele>54.6</ele>
        <time>2023-11-05T13:45:26Z</time>
      </trkpt>
      <trkpt lat="43.49468" lon="6.61931">
        <ele>54.5</ele>
        <time>2023-11-05T13:45:27Z</time>
      </trkpt>
      <trkpt lat="43.49469" lon="6.61932">
        <ele>54.5</ele>
        <time>2023-11-05T13:45:28Z</time>
      </trkpt>
      <trkpt lat="43.4947" lon="6.61933">
        <ele>54.3</ele>
        <time>2023-11-05T13:45:29Z</time>
      </trkpt>
      <trkpt lat="43.49471" lon="6.61934">
        <ele>54.1</ele>
        <time>2023-11-05T13:45:30Z</time>
      </trkpt>
      <trkpt lat="43.49473" lon="6.61934">
        <ele>54</ele>
        <time>2023-11-05T13:45:31Z</time>
      </trkpt>
      <trkpt lat="43.49474" lon="6.61935">
        <ele>54.1</ele>
        <time>2023-11-05T13:45:32Z</time>
      </trkpt>
      <trkpt lat="43.49475" lon="6.61936">
        <ele>54.1</ele>
        <time>2023-11-05T13:45:33Z</time>
      </trkpt>
      <trkpt lat="43.49476" lon="6.61936">
        <ele>54</ele>
        <time>2023-11-05T13:45:34Z</time>
      </trkpt>
      <trkpt lat="43.49477" lon="6.61936">
        <ele>54.2</ele>
        <time>2023-11-05T13:45:35Z</time>
      </trkpt>
      <trkpt lat="43.49478" lon="6.61937">
        <ele>54.2</ele>
        <time>2023-11-05T13:45:36Z</time>
      </trkpt>
      <trkpt lat="43.4948" lon="6.61936">
        <ele>54.3</ele>
        <time>2023-11-05T13:45:37Z</time>
      </trkpt>
      <trkpt lat="43.49481" lon="6.61937">
        <ele>54.4</ele>
        <time>2023-11-05T13:45:38Z</time>
      </trkpt>
      <trkpt lat="43.49482" lon="6.61937">
        <ele>54.4</ele>
        <time>2023-11-05T13:45:39Z</time>
      </trkpt>
      <trkpt lat="43.49483" lon="6.61938">
        <ele>54.5</ele>
        <time>2023-11-05T13:45:40Z</time>
      </trkpt>
      <trkpt lat="43.49484" lon="6.61938">
        <ele>54.5</ele>
        <time>2023-11-05T13:45:41Z</time>
      </trkpt>
      <trkpt lat="43.49484" lon="6.6194">
        <ele>54.4</ele>
        <time>2023-11-05T13:45:42Z</time>
      </trkpt>
      <trkpt lat="43.49485" lon="6.61941">
        <ele>54.4</ele>
        <time>2023-11-05T13:45:43Z</time>
      </trkpt>
      <trkpt lat="43.49487" lon="6.61941">
        <ele>54.4</ele>
        <time>2023-11-05T13:45:44Z</time>
      </trkpt>
      <trkpt lat="43.49488" lon="6.61942">
        <ele>54.5</ele>
        <time>2023-11-05T13:45:45Z</time>
      </trkpt>
      <trkpt lat="43.49489" lon="6.61943">
        <ele>54.5</ele>
        <time>2023-11-05T13:45:46Z</time>
      </trkpt>
      <trkpt lat="43.4949" lon="6.61943">
        <ele>54.5</ele>
        <time>2023-11-05T13:45:47Z</time>
      </trkpt>
      <trkpt lat="43.49491" lon="6.61943">
        <ele>54.4</ele>
        <time>2023-11-05T13:45:48Z</time>
      </trkpt>
      <trkpt lat="43.49492" lon="6.61944">
        <ele>54.3</ele>
        <time>2023-11-05T13:45:49Z</time>
      </trkpt>
      <trkpt lat="43.49493" lon="6.61945">
        <ele>54.2</ele>
        <time>2023-11-05T13:45:50Z</time>
      </trkpt>
      <trkpt lat="43.49494" lon="6.61946">
        <ele>54.3</ele>
        <time>2023-11-05T13:45:51Z</time>
      </trkpt>
      <trkpt lat="43.49495" lon="6.61947">
        <ele>54.4</ele>
        <time>2023-11-05T13:45:52Z</time>
      </trkpt>
      <trkpt lat="43.49496" lon="6.61948">
        <ele>54.5</ele>
        <time>2023-11-05T13:45:53Z</time>
      </trkpt>
      <trkpt lat="43.49497" lon="6.61949">
        <ele>54.5</ele>
        <time>2023-11-05T13:45:54Z</time>
      </trkpt>
      <trkpt lat="43.49498" lon="6.6195">
        <ele>54.5</ele>
        <time>2023-11-05T13:45:55Z</time>
      </trkpt>
      <trkpt lat="43.49499" lon="6.61951">
        <ele>54.4</ele>
        <time>2023-11-05T13:45:56Z</time>
      </trkpt>
      <trkpt lat="43.49499" lon="6.61951">
        <ele>54.4</ele>
        <time>2023-11-05T13:45:57Z</time>
      </trkpt>
      <trkpt lat="43.495" lon="6.61952">
        <ele>54.3</ele>
        <time>2023-11-05T13:45:58Z</time>
      </trkpt>
      <trkpt lat="43.49501" lon="6.61953">
        <ele>54.2</ele>
        <time>2023-11-05T13:45:59Z</time>
      </trkpt>
      <trkpt lat="43.49502" lon="6.61953">
        <ele>54.2</ele>
        <time>2023-11-05T13:46:00Z</time>
      </trkpt>
      <trkpt lat="43.49503" lon="6.61955">
        <ele>54.2</ele>
        <time>2023-11-05T13:46:01Z</time>
      </trkpt>
      <trkpt lat="43.49504" lon="6.61955">
        <ele>54.2</ele>
        <time>2023-11-05T13:46:02Z</time>
      </trkpt>
      <trkpt lat="43.49505" lon="6.61956">
        <ele>54.2</ele>
        <time>2023-11-05T13:46:03Z</time>
      </trkpt>
      <trkpt lat="43.49506" lon="6.61957">
        <ele>54.4</ele>
        <time>2023-11-05T13:46:04Z</time>
      </trkpt>
      <trkpt lat="43.49507" lon="6.61959">
        <ele>54.5</ele>
        <time>2023-11-05T13:46:05Z</time>
      </trkpt>
      <trkpt lat="43.49508" lon="6.6196">
        <ele>54.6</ele>
        <time>2023-11-05T13:46:06Z</time>
      </trkpt>
      <trkpt lat="43.49509" lon="6.61961">
        <ele>54.8</ele>
        <time>2023-11-05T13:46:07Z</time>
      </trkpt>
      <trkpt lat="43.4951" lon="6.61962">
        <ele>54.9</ele>
        <time>2023-11-05T13:46:08Z</time>
      </trkpt>
      <trkpt lat="43.49511" lon="6.61963">
        <ele>55</ele>
        <time>2023-11-05T13:46:09Z</time>
      </trkpt>
      <trkpt lat="43.49512" lon="6.61964">
        <ele>55.1</ele>
        <time>2023-11-05T13:46:10Z</time>
      </trkpt>
      <trkpt lat="43.49513" lon="6.61965">
        <ele>55.2</ele>
        <time>2023-11-05T13:46:11Z</time>
      </trkpt>
      <trkpt lat="43.49514" lon="6.61965">
        <ele>55.4</ele>
        <time>2023-11-05T13:46:12Z</time>
      </trkpt>
      <trkpt lat="43.49515" lon="6.61966">
        <ele>55.6</ele>
        <time>2023-11-05T13:46:13Z</time>
      </trkpt>
      <trkpt lat="43.49516" lon="6.61967">
        <ele>55.7</ele>
        <time>2023-11-05T13:46:14Z</time>
      </trkpt>
      <trkpt lat="43.49517" lon="6.61968">
        <ele>55.8</ele>
        <time>2023-11-05T13:46:15Z</time>
      </trkpt>
      <trkpt lat="43.49518" lon="6.61969">
        <ele>55.9</ele>
        <time>2023-11-05T13:46:16Z</time>
      </trkpt>
      <trkpt lat="43.49519" lon="6.6197">
        <ele>55.9</ele>
        <time>2023-11-05T13:46:17Z</time>
      </trkpt>
      <trkpt lat="43.4952" lon="6.6197">
        <ele>56</ele>
        <time>2023-11-05T13:46:18Z</time>
      </trkpt>
      <trkpt lat="43.49521" lon="6.61971">
        <ele>55.9</ele>
        <time>2023-11-05T13:46:19Z</time>
      </trkpt>
      <trkpt lat="43.49523" lon="6.61972">
        <ele>56</ele>
        <time>2023-11-05T13:46:20Z</time>
      </trkpt>
      <trkpt lat="43.49524" lon="6.61972">
        <ele>56.1</ele>
        <time>2023-11-05T13:46:21Z</time>
      </trkpt>
      <trkpt lat="43.49525" lon="6.61972">
        <ele>56.1</ele>
        <time>2023-11-05T13:46:22Z</time>
      </trkpt>
      <trkpt lat="43.49526" lon="6.61972">
        <ele>56.2</ele>
        <time>2023-11-05T13:46:23Z</time>
      </trkpt>
      <trkpt lat="43.49527" lon="6.6197">
        <ele>56.2</ele>
        <time>2023-11-05T13:46:24Z</time>
      </trkpt>
      <trkpt lat="43.49527" lon="6.61968">
        <ele>56.3</ele>
        <time>2023-11-05T13:46:25Z</time>
      </trkpt>
      <trkpt lat="43.49528" lon="6.61968">
        <ele>56.3</ele>
        <time>2023-11-05T13:46:26Z</time>
      </trkpt>
      <trkpt lat="43.49528" lon="6.61968">
        <ele>56.3</ele>
        <time>2023-11-05T13:46:27Z</time>
      </trkpt>
      <trkpt lat="43.49528" lon="6.61968">
        <ele>56.3</ele>
        <time>2023-11-05T13:46:28Z</time>
      </trkpt>
      <trkpt lat="43.49529" lon="6.61968">
        <ele>56.3</ele>
        <time>2023-11-05T13:46:29Z</time>
      </trkpt>
      <trkpt lat="43.4953" lon="6.61969">
        <ele>56.3</ele>
        <time>2023-11-05T13:46:30Z</time>
      </trkpt>
      <trkpt lat="43.4953" lon="6.6197">
        <ele>56.3</ele>
        <time>2023-11-05T13:46:31Z</time>
      </trkpt>
      <trkpt lat="43.49531" lon="6.61971">
        <ele>56.3</ele>
        <time>2023-11-05T13:46:32Z</time>
      </trkpt>
      <trkpt lat="43.49532" lon="6.61972">
        <ele>56.2</ele>
        <time>2023-11-05T13:46:33Z</time>
      </trkpt>
      <trkpt lat="43.49532" lon="6.61974">
        <ele>56.3</ele>
        <time>2023-11-05T13:46:34Z</time>
      </trkpt>
      <trkpt lat="43.49534" lon="6.61975">
        <ele>56.3</ele>
        <time>2023-11-05T13:46:35Z</time>
      </trkpt>
      <trkpt lat="43.49535" lon="6.61976">
        <ele>56.3</ele>
        <time>2023-11-05T13:46:36Z</time>
      </trkpt>
      <trkpt lat="43.49536" lon="6.61977">
        <ele>56.5</ele>
        <time>2023-11-05T13:46:37Z</time>
      </trkpt>
      <trkpt lat="43.49537" lon="6.61977">
        <ele>56.6</ele>
        <time>2023-11-05T13:46:38Z</time>
      </trkpt>
      <trkpt lat="43.49538" lon="6.61978">
        <ele>56.7</ele>
        <time>2023-11-05T13:46:39Z</time>
      </trkpt>
      <trkpt lat="43.49539" lon="6.61978">
        <ele>56.6</ele>
        <time>2023-11-05T13:46:40Z</time>
      </trkpt>
      <trkpt lat="43.4954" lon="6.61979">
        <ele>56.7</ele>
        <time>2023-11-05T13:46:41Z</time>
      </trkpt>
      <trkpt lat="43.49541" lon="6.6198">
        <ele>56.6</ele>
        <time>2023-11-05T13:46:42Z</time>
      </trkpt>
      <trkpt lat="43.49542" lon="6.61981">
        <ele>56.6</ele>
        <time>2023-11-05T13:46:43Z</time>
      </trkpt>
      <trkpt lat="43.49543" lon="6.61982">
        <ele>56.7</ele>
        <time>2023-11-05T13:46:44Z</time>
      </trkpt>
      <trkpt lat="43.49544" lon="6.61983">
        <ele>56.8</ele>
        <time>2023-11-05T13:46:45Z</time>
      </trkpt>
      <trkpt lat="43.49545" lon="6.61983">
        <ele>56.9</ele>
        <time>2023-11-05T13:46:46Z</time>
      </trkpt>
      <trkpt lat="43.49546" lon="6.61984">
        <ele>56.9</ele>
        <time>2023-11-05T13:46:47Z</time>
      </trkpt>
      <trkpt lat="43.49547" lon="6.61984">
        <ele>56.9</ele>
        <time>2023-11-05T13:46:48Z</time>
      </trkpt>
      <trkpt lat="43.49548" lon="6.61985">
        <ele>56.9</ele>
        <time>2023-11-05T13:46:49Z</time>
      </trkpt>
      <trkpt lat="43.49549" lon="6.61986">
        <ele>56.9</ele>
        <time>2023-11-05T13:46:50Z</time>
      </trkpt>
      <trkpt lat="43.49549" lon="6.61986">
        <ele>56.8</ele>
        <time>2023-11-05T13:46:51Z</time>
      </trkpt>
      <trkpt lat="43.4955" lon="6.61987">
        <ele>56.8</ele>
        <time>2023-11-05T13:46:52Z</time>
      </trkpt>
      <trkpt lat="43.49551" lon="6.61987">
        <ele>56.7</ele>
        <time>2023-11-05T13:46:53Z</time>
      </trkpt>
      <trkpt lat="43.49552" lon="6.61988">
        <ele>56.7</ele>
        <time>2023-11-05T13:46:54Z</time>
      </trkpt>
      <trkpt lat="43.49553" lon="6.61989">
        <ele>56.8</ele>
        <time>2023-11-05T13:46:55Z</time>
      </trkpt>
      <trkpt lat="43.49554" lon="6.6199">
        <ele>56.8</ele>
        <time>2023-11-05T13:46:56Z</time>
      </trkpt>
      <trkpt lat="43.49555" lon="6.6199">
        <ele>56.9</ele>
        <time>2023-11-05T13:46:57Z</time>
      </trkpt>
      <trkpt lat="43.49555" lon="6.61991">
        <ele>56.9</ele>
        <time>2023-11-05T13:46:58Z</time>
      </trkpt>
      <trkpt lat="43.49556" lon="6.61991">
        <ele>56.9</ele>
        <time>2023-11-05T13:46:59Z</time>
      </trkpt>
      <trkpt lat="43.49557" lon="6.61992">
        <ele>56.9</ele>
        <time>2023-11-05T13:47:00Z</time>
      </trkpt>
      <trkpt lat="43.49557" lon="6.61992">
        <ele>57</ele>
        <time>2023-11-05T13:47:01Z</time>
      </trkpt>
      <trkpt lat="43.49558" lon="6.61991">
        <ele>56.9</ele>
        <time>2023-11-05T13:47:02Z</time>
      </trkpt>
      <trkpt lat="43.49559" lon="6.61992">
        <ele>56.9</ele>
        <time>2023-11-05T13:47:03Z</time>
      </trkpt>
      <trkpt lat="43.4956" lon="6.61992">
        <ele>56.9</ele>
        <time>2023-11-05T13:47:04Z</time>
      </trkpt>
      <trkpt lat="43.4956" lon="6.61992">
        <ele>56.9</ele>
        <time>2023-11-05T13:47:05Z</time>
      </trkpt>
      <trkpt lat="43.49561" lon="6.61992">
        <ele>56.7</ele>
        <time>2023-11-05T13:47:06Z</time>
      </trkpt>
      <trkpt lat="43.49561" lon="6.61993">
        <ele>56.8</ele>
        <time>2023-11-05T13:47:07Z</time>
      </trkpt>
      <trkpt lat="43.49561" lon="6.61993">
        <ele>56.8</ele>
        <time>2023-11-05T13:47:08Z</time>
      </trkpt>
      <trkpt lat="43.49561" lon="6.61994">
        <ele>56.8</ele>
        <time>2023-11-05T13:47:09Z</time>
      </trkpt>
      <trkpt lat="43.49562" lon="6.61994">
        <ele>56.8</ele>
        <time>2023-11-05T13:47:10Z</time>
      </trkpt>
      <trkpt lat="43.49563" lon="6.61995">
        <ele>56.9</ele>
        <time>2023-11-05T13:47:11Z</time>
      </trkpt>
      <trkpt lat="43.49564" lon="6.61995">
        <ele>57</ele>
        <time>2023-11-05T13:47:12Z</time>
      </trkpt>
      <trkpt lat="43.49565" lon="6.61995">
        <ele>57.1</ele>
        <time>2023-11-05T13:47:13Z</time>
      </trkpt>
      <trkpt lat="43.49566" lon="6.61996">
        <ele>57.1</ele>
        <time>2023-11-05T13:47:14Z</time>
      </trkpt>
      <trkpt lat="43.49567" lon="6.61996">
        <ele>57.2</ele>
        <time>2023-11-05T13:47:15Z</time>
      </trkpt>
      <trkpt lat="43.49568" lon="6.61997">
        <ele>57.2</ele>
        <time>2023-11-05T13:47:16Z</time>
      </trkpt>
      <trkpt lat="43.49569" lon="6.61998">
        <ele>57.1</ele>
        <time>2023-11-05T13:47:17Z</time>
      </trkpt>
      <trkpt lat="43.4957" lon="6.61999">
        <ele>57.3</ele>
        <time>2023-11-05T13:47:18Z</time>
      </trkpt>
      <trkpt lat="43.49571" lon="6.61999">
        <ele>57.4</ele>
        <time>2023-11-05T13:47:19Z</time>
      </trkpt>
      <trkpt lat="43.49572" lon="6.62">
        <ele>57.4</ele>
        <time>2023-11-05T13:47:20Z</time>
      </trkpt>
      <trkpt lat="43.49573" lon="6.62001">
        <ele>57.3</ele>
        <time>2023-11-05T13:47:21Z</time>
      </trkpt>
      <trkpt lat="43.49574" lon="6.62001">
        <ele>57.4</ele>
        <time>2023-11-05T13:47:22Z</time>
      </trkpt>
      <trkpt lat="43.49575" lon="6.62002">
        <ele>57.3</ele>
        <time>2023-11-05T13:47:23Z</time>
      </trkpt>
      <trkpt lat="43.49576" lon="6.62003">
        <ele>57.3</ele>
        <time>2023-11-05T13:47:24Z</time>
      </trkpt>
      <trkpt lat="43.49577" lon="6.62003">
        <ele>57.3</ele>
        <time>2023-11-05T13:47:25Z</time>
      </trkpt>
      <trkpt lat="43.49578" lon="6.62004">
        <ele>57.4</ele>
        <time>2023-11-05T13:47:26Z</time>
      </trkpt>
      <trkpt lat="43.49579" lon="6.62005">
        <ele>57.6</ele>
        <time>2023-11-05T13:47:27Z</time>
      </trkpt>
      <trkpt lat="43.4958" lon="6.62006">
        <ele>57.6</ele>
        <time>2023-11-05T13:47:28Z</time>
      </trkpt>
      <trkpt lat="43.49581" lon="6.62006">
        <ele>57.7</ele>
        <time>2023-11-05T13:47:29Z</time>
      </trkpt>
      <trkpt lat="43.49581" lon="6.62007">
        <ele>57.7</ele>
        <time>2023-11-05T13:47:30Z</time>
      </trkpt>
      <trkpt lat="43.49582" lon="6.62007">
        <ele>57.8</ele>
        <time>2023-11-05T13:47:31Z</time>
      </trkpt>
      <trkpt lat="43.49583" lon="6.62007">
        <ele>57.9</ele>
        <time>2023-11-05T13:47:32Z</time>
      </trkpt>
      <trkpt lat="43.49584" lon="6.62007">
        <ele>57.9</ele>
        <time>2023-11-05T13:47:33Z</time>
      </trkpt>
      <trkpt lat="43.49585" lon="6.62008">
        <ele>58.1</ele>
        <time>2023-11-05T13:47:34Z</time>
      </trkpt>
      <trkpt lat="43.49587" lon="6.62008">
        <ele>58.3</ele>
        <time>2023-11-05T13:47:35Z</time>
      </trkpt>
      <trkpt lat="43.49588" lon="6.62009">
        <ele>58.4</ele>
        <time>2023-11-05T13:47:36Z</time>
      </trkpt>
      <trkpt lat="43.49589" lon="6.6201">
        <ele>58.4</ele>
        <time>2023-11-05T13:47:37Z</time>
      </trkpt>
      <trkpt lat="43.49591" lon="6.6201">
        <ele>58.5</ele>
        <time>2023-11-05T13:47:38Z</time>
      </trkpt>
      <trkpt lat="43.49592" lon="6.6201">
        <ele>58.5</ele>
        <time>2023-11-05T13:47:39Z</time>
      </trkpt>
      <trkpt lat="43.49593" lon="6.62011">
        <ele>58.5</ele>
        <time>2023-11-05T13:47:40Z</time>
      </trkpt>
      <trkpt lat="43.49594" lon="6.62011">
        <ele>58.5</ele>
        <time>2023-11-05T13:47:41Z</time>
      </trkpt>
      <trkpt lat="43.49595" lon="6.62012">
        <ele>58.4</ele>
        <time>2023-11-05T13:47:42Z</time>
      </trkpt>
      <trkpt lat="43.49597" lon="6.62012">
        <ele>58.3</ele>
        <time>2023-11-05T13:47:43Z</time>
      </trkpt>
      <trkpt lat="43.49598" lon="6.62012">
        <ele>58.2</ele>
        <time>2023-11-05T13:47:44Z</time>
      </trkpt>
      <trkpt lat="43.49599" lon="6.62013">
        <ele>58.2</ele>
        <time>2023-11-05T13:47:45Z</time>
      </trkpt>
      <trkpt lat="43.496" lon="6.62014">
        <ele>58.1</ele>
        <time>2023-11-05T13:47:46Z</time>
      </trkpt>
      <trkpt lat="43.49602" lon="6.62014">
        <ele>57.9</ele>
        <time>2023-11-05T13:47:47Z</time>
      </trkpt>
      <trkpt lat="43.49603" lon="6.62015">
        <ele>57.7</ele>
        <time>2023-11-05T13:47:48Z</time>
      </trkpt>
      <trkpt lat="43.49604" lon="6.62015">
        <ele>57.5</ele>
        <time>2023-11-05T13:47:49Z</time>
      </trkpt>
      <trkpt lat="43.49605" lon="6.62016">
        <ele>57.4</ele>
        <time>2023-11-05T13:47:50Z</time>
      </trkpt>
      <trkpt lat="43.49607" lon="6.62016">
        <ele>57.3</ele>
        <time>2023-11-05T13:47:51Z</time>
      </trkpt>
      <trkpt lat="43.49608" lon="6.62016">
        <ele>57.2</ele>
        <time>2023-11-05T13:47:52Z</time>
      </trkpt>
      <trkpt lat="43.49609" lon="6.62016">
        <ele>57.1</ele>
        <time>2023-11-05T13:47:53Z</time>
      </trkpt>
      <trkpt lat="43.4961" lon="6.62017">
        <ele>57</ele>
        <time>2023-11-05T13:47:54Z</time>
      </trkpt>
      <trkpt lat="43.49611" lon="6.62017">
        <ele>56.9</ele>
        <time>2023-11-05T13:47:55Z</time>
      </trkpt>
      <trkpt lat="43.49612" lon="6.62018">
        <ele>56.9</ele>
        <time>2023-11-05T13:47:56Z</time>
      </trkpt>
      <trkpt lat="43.49613" lon="6.62018">
        <ele>56.8</ele>
        <time>2023-11-05T13:47:57Z</time>
      </trkpt>
      <trkpt lat="43.49615" lon="6.62018">
        <ele>56.9</ele>
        <time>2023-11-05T13:47:58Z</time>
      </trkpt>
      <trkpt lat="43.49616" lon="6.62018">
        <ele>56.9</ele>
        <time>2023-11-05T13:47:59Z</time>
      </trkpt>
      <trkpt lat="43.49617" lon="6.62018">
        <ele>56.8</ele>
        <time>2023-11-05T13:48:00Z</time>
      </trkpt>
      <trkpt lat="43.49618" lon="6.62019">
        <ele>56.7</ele>
        <time>2023-11-05T13:48:01Z</time>
      </trkpt>
      <trkpt lat="43.4962" lon="6.62019">
        <ele>56.7</ele>
        <time>2023-11-05T13:48:02Z</time>
      </trkpt>
      <trkpt lat="43.49621" lon="6.62019">
        <ele>56.7</ele>
        <time>2023-11-05T13:48:03Z</time>
      </trkpt>
      <trkpt lat="43.49623" lon="6.62019">
        <ele>56.8</ele>
        <time>2023-11-05T13:48:04Z</time>
      </trkpt>
      <trkpt lat="43.49624" lon="6.6202">
        <ele>56.8</ele>
        <time>2023-11-05T13:48:05Z</time>
      </trkpt>
      <trkpt lat="43.49625" lon="6.6202">
        <ele>56.8</ele>
        <time>2023-11-05T13:48:06Z</time>
      </trkpt>
      <trkpt lat="43.49626" lon="6.6202">
        <ele>56.7</ele>
        <time>2023-11-05T13:48:07Z</time>
      </trkpt>
      <trkpt lat="43.49627" lon="6.6202">
        <ele>56.8</ele>
        <time>2023-11-05T13:48:08Z</time>
      </trkpt>
      <trkpt lat="43.49628" lon="6.6202">
        <ele>56.8</ele>
        <time>2023-11-05T13:48:09Z</time>
      </trkpt>
      <trkpt lat="43.49629" lon="6.62021">
        <ele>56.8</ele>
        <time>2023-11-05T13:48:10Z</time>
      </trkpt>
      <trkpt lat="43.4963" lon="6.62021">
        <ele>56.7</ele>
        <time>2023-11-05T13:48:11Z</time>
      </trkpt>
      <trkpt lat="43.49631" lon="6.62021">
        <ele>56.7</ele>
        <time>2023-11-05T13:48:12Z</time>
      </trkpt>
      <trkpt lat="43.49632" lon="6.62021">
        <ele>56.6</ele>
        <time>2023-11-05T13:48:13Z</time>
      </trkpt>
      <trkpt lat="43.49633" lon="6.62021">
        <ele>56.5</ele>
        <time>2023-11-05T13:48:14Z</time>
      </trkpt>
      <trkpt lat="43.49634" lon="6.62021">
        <ele>56.5</ele>
        <time>2023-11-05T13:48:15Z</time>
      </trkpt>
      <trkpt lat="43.49635" lon="6.62021">
        <ele>56.4</ele>
        <time>2023-11-05T13:48:16Z</time>
      </trkpt>
      <trkpt lat="43.49636" lon="6.62021">
        <ele>56.4</ele>
        <time>2023-11-05T13:48:17Z</time>
      </trkpt>
      <trkpt lat="43.49637" lon="6.62021">
        <ele>56.3</ele>
        <time>2023-11-05T13:48:18Z</time>
      </trkpt>
      <trkpt lat="43.49638" lon="6.62021">
        <ele>56.3</ele>
        <time>2023-11-05T13:48:19Z</time>
      </trkpt>
      <trkpt lat="43.49639" lon="6.62021">
        <ele>56.3</ele>
        <time>2023-11-05T13:48:20Z</time>
      </trkpt>
      <trkpt lat="43.4964" lon="6.62021">
        <ele>56.3</ele>
        <time>2023-11-05T13:48:21Z</time>
      </trkpt>
      <trkpt lat="43.49641" lon="6.62021">
        <ele>56.4</ele>
        <time>2023-11-05T13:48:22Z</time>
      </trkpt>
      <trkpt lat="43.49643" lon="6.6202">
        <ele>56.4</ele>
        <time>2023-11-05T13:48:23Z</time>
      </trkpt>
      <trkpt lat="43.49643" lon="6.6202">
        <ele>56.3</ele>
        <time>2023-11-05T13:48:24Z</time>
      </trkpt>
      <trkpt lat="43.49645" lon="6.62019">
        <ele>56.3</ele>
        <time>2023-11-05T13:48:25Z</time>
      </trkpt>
      <trkpt lat="43.49646" lon="6.62019">
        <ele>56.2</ele>
        <time>2023-11-05T13:48:26Z</time>
      </trkpt>
      <trkpt lat="43.49647" lon="6.62019">
        <ele>56.2</ele>
        <time>2023-11-05T13:48:27Z</time>
      </trkpt>
      <trkpt lat="43.49648" lon="6.62019">
        <ele>56.2</ele>
        <time>2023-11-05T13:48:28Z</time>
      </trkpt>
      <trkpt lat="43.49649" lon="6.62019">
        <ele>56.1</ele>
        <time>2023-11-05T13:48:29Z</time>
      </trkpt>
      <trkpt lat="43.49651" lon="6.62019">
        <ele>56</ele>
        <time>2023-11-05T13:48:30Z</time>
      </trkpt>
      <trkpt lat="43.49652" lon="6.62019">
        <ele>55.9</ele>
        <time>2023-11-05T13:48:31Z</time>
      </trkpt>
      <trkpt lat="43.49653" lon="6.62019">
        <ele>55.9</ele>
        <time>2023-11-05T13:48:32Z</time>
      </trkpt>
      <trkpt lat="43.49654" lon="6.62019">
        <ele>55.8</ele>
        <time>2023-11-05T13:48:33Z</time>
      </trkpt>
      <trkpt lat="43.49655" lon="6.62019">
        <ele>55.8</ele>
        <time>2023-11-05T13:48:34Z</time>
      </trkpt>
      <trkpt lat="43.49656" lon="6.62019">
        <ele>55.7</ele>
        <time>2023-11-05T13:48:35Z</time>
      </trkpt>
      <trkpt lat="43.49657" lon="6.62018">
        <ele>55.6</ele>
        <time>2023-11-05T13:48:36Z</time>
      </trkpt>
      <trkpt lat="43.49658" lon="6.62018">
        <ele>55.6</ele>
        <time>2023-11-05T13:48:37Z</time>
      </trkpt>
      <trkpt lat="43.49659" lon="6.62018">
        <ele>55.5</ele>
        <time>2023-11-05T13:48:38Z</time>
      </trkpt>
      <trkpt lat="43.4966" lon="6.62017">
        <ele>55.4</ele>
        <time>2023-11-05T13:48:39Z</time>
      </trkpt>
      <trkpt lat="43.49661" lon="6.62017">
        <ele>55.3</ele>
        <time>2023-11-05T13:48:40Z</time>
      </trkpt>
      <trkpt lat="43.49662" lon="6.62016">
        <ele>55.3</ele>
        <time>2023-11-05T13:48:41Z</time>
      </trkpt>
      <trkpt lat="43.49663" lon="6.62015">
        <ele>55.3</ele>
        <time>2023-11-05T13:48:42Z</time>
      </trkpt>
      <trkpt lat="43.49664" lon="6.62014">
        <ele>55.3</ele>
        <time>2023-11-05T13:48:43Z</time>
      </trkpt>
      <trkpt lat="43.49666" lon="6.62014">
        <ele>55.4</ele>
        <time>2023-11-05T13:48:44Z</time>
      </trkpt>
      <trkpt lat="43.49667" lon="6.62013">
        <ele>55.3</ele>
        <time>2023-11-05T13:48:45Z</time>
      </trkpt>
      <trkpt lat="43.49668" lon="6.62012">
        <ele>55.3</ele>
        <time>2023-11-05T13:48:46Z</time>
      </trkpt>
      <trkpt lat="43.49669" lon="6.62011">
        <ele>55.3</ele>
        <time>2023-11-05T13:48:47Z</time>
      </trkpt>
      <trkpt lat="43.4967" lon="6.6201">
        <ele>55.2</ele>
        <time>2023-11-05T13:48:48Z</time>
      </trkpt>
      <trkpt lat="43.49671" lon="6.62009">
        <ele>55.1</ele>
        <time>2023-11-05T13:48:49Z</time>
      </trkpt>
      <trkpt lat="43.49672" lon="6.62008">
        <ele>55</ele>
        <time>2023-11-05T13:48:50Z</time>
      </trkpt>
      <trkpt lat="43.49673" lon="6.62007">
        <ele>55</ele>
        <time>2023-11-05T13:48:51Z</time>
      </trkpt>
      <trkpt lat="43.49674" lon="6.62007">
        <ele>54.9</ele>
        <time>2023-11-05T13:48:52Z</time>
      </trkpt>
      <trkpt lat="43.49675" lon="6.62006">
        <ele>54.7</ele>
        <time>2023-11-05T13:48:53Z</time>
      </trkpt>
      <trkpt lat="43.49676" lon="6.62004">
        <ele>54.5</ele>
        <time>2023-11-05T13:48:54Z</time>
      </trkpt>
      <trkpt lat="43.49678" lon="6.62004">
        <ele>54.3</ele>
        <time>2023-11-05T13:48:55Z</time>
      </trkpt>
      <trkpt lat="43.49678" lon="6.62003">
        <ele>54.2</ele>
        <time>2023-11-05T13:48:56Z</time>
      </trkpt>
      <trkpt lat="43.49679" lon="6.62003">
        <ele>54.1</ele>
        <time>2023-11-05T13:48:57Z</time>
      </trkpt>
      <trkpt lat="43.4968" lon="6.62002">
        <ele>54.1</ele>
        <time>2023-11-05T13:48:58Z</time>
      </trkpt>
      <trkpt lat="43.49681" lon="6.62001">
        <ele>54</ele>
        <time>2023-11-05T13:48:59Z</time>
      </trkpt>
      <trkpt lat="43.49682" lon="6.62001">
        <ele>53.8</ele>
        <time>2023-11-05T13:49:00Z</time>
      </trkpt>
      <trkpt lat="43.49682" lon="6.62">
        <ele>53.7</ele>
        <time>2023-11-05T13:49:01Z</time>
      </trkpt>
      <trkpt lat="43.49683" lon="6.61999">
        <ele>53.7</ele>
        <time>2023-11-05T13:49:02Z</time>
      </trkpt>
      <trkpt lat="43.49684" lon="6.61999">
        <ele>53.6</ele>
        <time>2023-11-05T13:49:03Z</time>
      </trkpt>
      <trkpt lat="43.49685" lon="6.61998">
        <ele>53.6</ele>
        <time>2023-11-05T13:49:04Z</time>
      </trkpt>
      <trkpt lat="43.49686" lon="6.61998">
        <ele>53.6</ele>
        <time>2023-11-05T13:49:05Z</time>
      </trkpt>
      <trkpt lat="43.49687" lon="6.61998">
        <ele>53.5</ele>
        <time>2023-11-05T13:49:06Z</time>
      </trkpt>
      <trkpt lat="43.49689" lon="6.61998">
        <ele>53.5</ele>
        <time>2023-11-05T13:49:07Z</time>
      </trkpt>
      <trkpt lat="43.4969" lon="6.61997">
        <ele>53.5</ele>
        <time>2023-11-05T13:49:08Z</time>
      </trkpt>
      <trkpt lat="43.49691" lon="6.61997">
        <ele>53.5</ele>
        <time>2023-11-05T13:49:09Z</time>
      </trkpt>
      <trkpt lat="43.49692" lon="6.61996">
        <ele>53.5</ele>
        <time>2023-11-05T13:49:10Z</time>
      </trkpt>
      <trkpt lat="43.49693" lon="6.61995">
        <ele>53.5</ele>
        <time>2023-11-05T13:49:11Z</time>
      </trkpt>
      <trkpt lat="43.49694" lon="6.61994">
        <ele>53.5</ele>
        <time>2023-11-05T13:49:12Z</time>
      </trkpt>
      <trkpt lat="43.49695" lon="6.61993">
        <ele>53.4</ele>
        <time>2023-11-05T13:49:13Z</time>
      </trkpt>
      <trkpt lat="43.49696" lon="6.61993">
        <ele>53.3</ele>
        <time>2023-11-05T13:49:14Z</time>
      </trkpt>
      <trkpt lat="43.49698" lon="6.61992">
        <ele>53.3</ele>
        <time>2023-11-05T13:49:15Z</time>
      </trkpt>
      <trkpt lat="43.49699" lon="6.61992">
        <ele>53.3</ele>
        <time>2023-11-05T13:49:16Z</time>
      </trkpt>
      <trkpt lat="43.497" lon="6.61991">
        <ele>53.2</ele>
        <time>2023-11-05T13:49:17Z</time>
      </trkpt>
      <trkpt lat="43.49701" lon="6.6199">
        <ele>53.1</ele>
        <time>2023-11-05T13:49:18Z</time>
      </trkpt>
      <trkpt lat="43.49702" lon="6.61989">
        <ele>53.1</ele>
        <time>2023-11-05T13:49:19Z</time>
      </trkpt>
      <trkpt lat="43.49704" lon="6.61989">
        <ele>53.1</ele>
        <time>2023-11-05T13:49:20Z</time>
      </trkpt>
      <trkpt lat="43.49705" lon="6.61988">
        <ele>53.1</ele>
        <time>2023-11-05T13:49:21Z</time>
      </trkpt>
      <trkpt lat="43.49706" lon="6.61987">
        <ele>53.1</ele>
        <time>2023-11-05T13:49:22Z</time>
      </trkpt>
      <trkpt lat="43.49707" lon="6.61986">
        <ele>52.8</ele>
        <time>2023-11-05T13:49:23Z</time>
      </trkpt>
      <trkpt lat="43.49708" lon="6.61986">
        <ele>52.7</ele>
        <time>2023-11-05T13:49:24Z</time>
      </trkpt>
      <trkpt lat="43.49709" lon="6.61986">
        <ele>52.5</ele>
        <time>2023-11-05T13:49:25Z</time>
      </trkpt>
      <trkpt lat="43.4971" lon="6.61986">
        <ele>52.2</ele>
        <time>2023-11-05T13:49:26Z</time>
      </trkpt>
      <trkpt lat="43.49712" lon="6.61986">
        <ele>52</ele>
        <time>2023-11-05T13:49:27Z</time>
      </trkpt>
      <trkpt lat="43.49713" lon="6.61986">
        <ele>51.9</ele>
        <time>2023-11-05T13:49:28Z</time>
      </trkpt>
      <trkpt lat="43.49713" lon="6.61986">
        <ele>51.8</ele>
        <time>2023-11-05T13:49:29Z</time>
      </trkpt>
      <trkpt lat="43.49714" lon="6.61986">
        <ele>51.7</ele>
        <time>2023-11-05T13:49:30Z</time>
      </trkpt>
      <trkpt lat="43.49715" lon="6.61986">
        <ele>51.6</ele>
        <time>2023-11-05T13:49:31Z</time>
      </trkpt>
      <trkpt lat="43.49715" lon="6.61986">
        <ele>51.5</ele>
        <time>2023-11-05T13:49:32Z</time>
      </trkpt>
      <trkpt lat="43.49716" lon="6.61986">
        <ele>51.3</ele>
        <time>2023-11-05T13:49:33Z</time>
      </trkpt>
      <trkpt lat="43.49717" lon="6.61987">
        <ele>51.4</ele>
        <time>2023-11-05T13:49:34Z</time>
      </trkpt>
      <trkpt lat="43.49718" lon="6.61987">
        <ele>51.3</ele>
        <time>2023-11-05T13:49:35Z</time>
      </trkpt>
      <trkpt lat="43.49719" lon="6.61987">
        <ele>51.2</ele>
        <time>2023-11-05T13:49:36Z</time>
      </trkpt>
      <trkpt lat="43.4972" lon="6.61988">
        <ele>51.2</ele>
        <time>2023-11-05T13:49:37Z</time>
      </trkpt>
      <trkpt lat="43.49721" lon="6.61988">
        <ele>51.2</ele>
        <time>2023-11-05T13:49:38Z</time>
      </trkpt>
      <trkpt lat="43.49722" lon="6.61988">
        <ele>51.1</ele>
        <time>2023-11-05T13:49:39Z</time>
      </trkpt>
      <trkpt lat="43.49723" lon="6.61988">
        <ele>51.1</ele>
        <time>2023-11-05T13:49:40Z</time>
      </trkpt>
      <trkpt lat="43.49724" lon="6.61989">
        <ele>51</ele>
        <time>2023-11-05T13:49:41Z</time>
      </trkpt>
      <trkpt lat="43.49725" lon="6.61989">
        <ele>51</ele>
        <time>2023-11-05T13:49:42Z</time>
      </trkpt>
      <trkpt lat="43.49726" lon="6.61989">
        <ele>50.9</ele>
        <time>2023-11-05T13:49:43Z</time>
      </trkpt>
      <trkpt lat="43.49728" lon="6.61989">
        <ele>50.9</ele>
        <time>2023-11-05T13:49:44Z</time>
      </trkpt>
      <trkpt lat="43.49729" lon="6.61989">
        <ele>50.9</ele>
        <time>2023-11-05T13:49:45Z</time>
      </trkpt>
      <trkpt lat="43.4973" lon="6.61989">
        <ele>50.9</ele>
        <time>2023-11-05T13:49:46Z</time>
      </trkpt>
      <trkpt lat="43.4973" lon="6.6199">
        <ele>50.8</ele>
        <time>2023-11-05T13:49:47Z</time>
      </trkpt>
      <trkpt lat="43.49731" lon="6.6199">
        <ele>50.8</ele>
        <time>2023-11-05T13:49:48Z</time>
      </trkpt>
      <trkpt lat="43.49732" lon="6.6199">
        <ele>50.7</ele>
        <time>2023-11-05T13:49:49Z</time>
      </trkpt>
      <trkpt lat="43.49733" lon="6.6199">
        <ele>50.7</ele>
        <time>2023-11-05T13:49:50Z</time>
      </trkpt>
      <trkpt lat="43.49734" lon="6.6199">
        <ele>50.6</ele>
        <time>2023-11-05T13:49:51Z</time>
      </trkpt>
      <trkpt lat="43.49736" lon="6.61989">
        <ele>50.6</ele>
        <time>2023-11-05T13:49:52Z</time>
      </trkpt>
      <trkpt lat="43.49737" lon="6.61989">
        <ele>50.5</ele>
        <time>2023-11-05T13:49:53Z</time>
      </trkpt>
      <trkpt lat="43.49738" lon="6.61989">
        <ele>50.5</ele>
        <time>2023-11-05T13:49:54Z</time>
      </trkpt>
      <trkpt lat="43.49739" lon="6.61989">
        <ele>50.3</ele>
        <time>2023-11-05T13:49:55Z</time>
      </trkpt>
      <trkpt lat="43.49739" lon="6.61989">
        <ele>50.3</ele>
        <time>2023-11-05T13:49:56Z</time>
      </trkpt>
      <trkpt lat="43.4974" lon="6.61989">
        <ele>50.2</ele>
        <time>2023-11-05T13:49:57Z</time>
      </trkpt>
      <trkpt lat="43.4974" lon="6.61989">
        <ele>50.1</ele>
        <time>2023-11-05T13:49:58Z</time>
      </trkpt>
      <trkpt lat="43.4974" lon="6.61989">
        <ele>50.1</ele>
        <time>2023-11-05T13:49:59Z</time>
      </trkpt>
      <trkpt lat="43.4974" lon="6.61989">
        <ele>50</ele>
        <time>2023-11-05T13:50:00Z</time>
      </trkpt>
      <trkpt lat="43.4974" lon="6.61989">
        <ele>50</ele>
        <time>2023-11-05T13:50:01Z</time>
      </trkpt>
      <trkpt lat="43.4974" lon="6.61989">
        <ele>50</ele>
        <time>2023-11-05T13:50:02Z</time>
      </trkpt>
      <trkpt lat="43.4974" lon="6.61988">
        <ele>50</ele>
        <time>2023-11-05T13:50:03Z</time>
      </trkpt>
      <trkpt lat="43.4974" lon="6.61988">
        <ele>50</ele>
        <time>2023-11-05T13:50:04Z</time>
      </trkpt>
      <trkpt lat="43.4974" lon="6.61988">
        <ele>50</ele>
        <time>2023-11-05T13:50:05Z</time>
      </trkpt>
      <trkpt lat="43.4974" lon="6.61988">
        <ele>50</ele>
        <time>2023-11-05T13:50:06Z</time>
      </trkpt>
      <trkpt lat="43.4974" lon="6.61988">
        <ele>50</ele>
        <time>2023-11-05T13:50:07Z</time>
      </trkpt>
      <trkpt lat="43.4974" lon="6.61987">
        <ele>50</ele>
        <time>2023-11-05T13:50:08Z</time>
      </trkpt>
      <trkpt lat="43.49741" lon="6.61987">
        <ele>49.9</ele>
        <time>2023-11-05T13:50:09Z</time>
      </trkpt>
      <trkpt lat="43.49741" lon="6.61987">
        <ele>49.9</ele>
        <time>2023-11-05T13:50:10Z</time>
      </trkpt>
      <trkpt lat="43.49741" lon="6.61987">
        <ele>49.9</ele>
        <time>2023-11-05T13:50:11Z</time>
      </trkpt>
      <trkpt lat="43.49741" lon="6.61987">
        <ele>49.9</ele>
        <time>2023-11-05T13:50:12Z</time>
      </trkpt>
      <trkpt lat="43.49741" lon="6.61987">
        <ele>50</ele>
        <time>2023-11-05T13:50:13Z</time>
      </trkpt>
      <trkpt lat="43.49741" lon="6.61986">
        <ele>50</ele>
        <time>2023-11-05T13:50:14Z</time>
      </trkpt>
      <trkpt lat="43.49741" lon="6.61986">
        <ele>50</ele>
        <time>2023-11-05T13:50:15Z</time>
      </trkpt>
      <trkpt lat="43.49741" lon="6.61986">
        <ele>50</ele>
        <time>2023-11-05T13:50:16Z</time>
      </trkpt>
      <trkpt lat="43.49741" lon="6.61986">
        <ele>50</ele>
        <time>2023-11-05T13:50:17Z</time>
      </trkpt>
      <trkpt lat="43.49741" lon="6.61986">
        <ele>50</ele>
        <time>2023-11-05T13:50:18Z</time>
      </trkpt>
      <trkpt lat="43.49742" lon="6.61986">
        <ele>49.9</ele>
        <time>2023-11-05T13:50:19Z</time>
      </trkpt>
      <trkpt lat="43.49742" lon="6.61985">
        <ele>49.9</ele>
        <time>2023-11-05T13:50:20Z</time>
      </trkpt>
      <trkpt lat="43.49742" lon="6.61985">
        <ele>49.9</ele>
        <time>2023-11-05T13:50:21Z</time>
      </trkpt>
      <trkpt lat="43.49742" lon="6.61985">
        <ele>49.9</ele>
        <time>2023-11-05T13:50:22Z</time>
      </trkpt>
      <trkpt lat="43.49742" lon="6.61985">
        <ele>49.9</ele>
        <time>2023-11-05T13:50:23Z</time>
      </trkpt>
      <trkpt lat="43.49742" lon="6.61985">
        <ele>50</ele>
        <time>2023-11-05T13:50:24Z</time>
      </trkpt>
      <trkpt lat="43.49742" lon="6.61985">
        <ele>50</ele>
        <time>2023-11-05T13:50:25Z</time>
      </trkpt>
      <trkpt lat="43.49742" lon="6.61985">
        <ele>50.1</ele>
        <time>2023-11-05T13:50:26Z</time>
      </trkpt>
      <trkpt lat="43.49743" lon="6.61984">
        <ele>50.1</ele>
        <time>2023-11-05T13:50:27Z</time>
      </trkpt>
      <trkpt lat="43.49743" lon="6.61984">
        <ele>50</ele>
        <time>2023-11-05T13:50:28Z</time>
      </trkpt>
      <trkpt lat="43.49743" lon="6.61983">
        <ele>50</ele>
        <time>2023-11-05T13:50:29Z</time>
      </trkpt>
      <trkpt lat="43.49743" lon="6.61983">
        <ele>50</ele>
        <time>2023-11-05T13:50:30Z</time>
      </trkpt>
      <trkpt lat="43.49743" lon="6.61983">
        <ele>50</ele>
        <time>2023-11-05T13:50:31Z</time>
      </trkpt>
      <trkpt lat="43.49743" lon="6.61984">
        <ele>50</ele>
        <time>2023-11-05T13:50:32Z</time>
      </trkpt>
      <trkpt lat="43.49743" lon="6.61985">
        <ele>50</ele>
        <time>2023-11-05T13:50:33Z</time>
      </trkpt>
      <trkpt lat="43.49744" lon="6.61985">
        <ele>50</ele>
        <time>2023-11-05T13:50:34Z</time>
      </trkpt>
      <trkpt lat="43.49745" lon="6.61985">
        <ele>50</ele>
        <time>2023-11-05T13:50:35Z</time>
      </trkpt>
      <trkpt lat="43.49746" lon="6.61985">
        <ele>49.9</ele>
        <time>2023-11-05T13:50:36Z</time>
      </trkpt>
      <trkpt lat="43.49747" lon="6.61985">
        <ele>49.9</ele>
        <time>2023-11-05T13:50:37Z</time>
      </trkpt>
      <trkpt lat="43.49748" lon="6.61985">
        <ele>49.9</ele>
        <time>2023-11-05T13:50:38Z</time>
      </trkpt>
      <trkpt lat="43.49748" lon="6.61986">
        <ele>49.9</ele>
        <time>2023-11-05T13:50:39Z</time>
      </trkpt>
      <trkpt lat="43.49749" lon="6.61986">
        <ele>50</ele>
        <time>2023-11-05T13:50:40Z</time>
      </trkpt>
      <trkpt lat="43.4975" lon="6.61987">
        <ele>49.9</ele>
        <time>2023-11-05T13:50:41Z</time>
      </trkpt>
      <trkpt lat="43.49751" lon="6.61987">
        <ele>49.8</ele>
        <time>2023-11-05T13:50:42Z</time>
      </trkpt>
      <trkpt lat="43.49752" lon="6.61988">
        <ele>49.8</ele>
        <time>2023-11-05T13:50:43Z</time>
      </trkpt>
      <trkpt lat="43.49753" lon="6.61989">
        <ele>49.8</ele>
        <time>2023-11-05T13:50:44Z</time>
      </trkpt>
      <trkpt lat="43.49754" lon="6.61989">
        <ele>49.7</ele>
        <time>2023-11-05T13:50:45Z</time>
      </trkpt>
      <trkpt lat="43.49755" lon="6.61991">
        <ele>49.7</ele>
        <time>2023-11-05T13:50:46Z</time>
      </trkpt>
      <trkpt lat="43.49756" lon="6.61991">
        <ele>49.7</ele>
        <time>2023-11-05T13:50:47Z</time>
      </trkpt>
      <trkpt lat="43.49756" lon="6.61992">
        <ele>49.7</ele>
        <time>2023-11-05T13:50:48Z</time>
      </trkpt>
      <trkpt lat="43.49757" lon="6.61992">
        <ele>49.8</ele>
        <time>2023-11-05T13:50:49Z</time>
      </trkpt>
      <trkpt lat="43.49758" lon="6.61993">
        <ele>49.7</ele>
        <time>2023-11-05T13:50:50Z</time>
      </trkpt>
      <trkpt lat="43.49759" lon="6.61993">
        <ele>49.7</ele>
        <time>2023-11-05T13:50:51Z</time>
      </trkpt>
      <trkpt lat="43.4976" lon="6.61994">
        <ele>49.7</ele>
        <time>2023-11-05T13:50:52Z</time>
      </trkpt>
      <trkpt lat="43.4976" lon="6.61995">
        <ele>49.7</ele>
        <time>2023-11-05T13:50:53Z</time>
      </trkpt>
      <trkpt lat="43.49761" lon="6.61996">
        <ele>49.7</ele>
        <time>2023-11-05T13:50:54Z</time>
      </trkpt>
      <trkpt lat="43.49762" lon="6.61997">
        <ele>49.7</ele>
        <time>2023-11-05T13:50:55Z</time>
      </trkpt>
      <trkpt lat="43.49764" lon="6.61998">
        <ele>49.8</ele>
        <time>2023-11-05T13:50:56Z</time>
      </trkpt>
      <trkpt lat="43.49765" lon="6.61998">
        <ele>49.8</ele>
        <time>2023-11-05T13:50:57Z</time>
      </trkpt>
      <trkpt lat="43.49766" lon="6.61999">
        <ele>49.8</ele>
        <time>2023-11-05T13:50:58Z</time>
      </trkpt>
      <trkpt lat="43.49767" lon="6.61999">
        <ele>49.9</ele>
        <time>2023-11-05T13:50:59Z</time>
      </trkpt>
      <trkpt lat="43.49768" lon="6.62">
        <ele>49.9</ele>
        <time>2023-11-05T13:51:00Z</time>
      </trkpt>
      <trkpt lat="43.49769" lon="6.62">
        <ele>50</ele>
        <time>2023-11-05T13:51:01Z</time>
      </trkpt>
      <trkpt lat="43.4977" lon="6.62001">
        <ele>50</ele>
        <time>2023-11-05T13:51:02Z</time>
      </trkpt>
      <trkpt lat="43.49772" lon="6.62001">
        <ele>49.9</ele>
        <time>2023-11-05T13:51:03Z</time>
      </trkpt>
      <trkpt lat="43.49773" lon="6.62001">
        <ele>49.9</ele>
        <time>2023-11-05T13:51:04Z</time>
      </trkpt>
      <trkpt lat="43.49773" lon="6.62001">
        <ele>49.9</ele>
        <time>2023-11-05T13:51:05Z</time>
      </trkpt>
      <trkpt lat="43.49774" lon="6.62">
        <ele>49.9</ele>
        <time>2023-11-05T13:51:06Z</time>
      </trkpt>
      <trkpt lat="43.49774" lon="6.62">
        <ele>49.8</ele>
        <time>2023-11-05T13:51:07Z</time>
      </trkpt>
      <trkpt lat="43.49774" lon="6.62">
        <ele>49.8</ele>
        <time>2023-11-05T13:51:08Z</time>
      </trkpt>
      <trkpt lat="43.49775" lon="6.62">
        <ele>49.7</ele>
        <time>2023-11-05T13:51:09Z</time>
      </trkpt>
      <trkpt lat="43.49775" lon="6.62">
        <ele>49.6</ele>
        <time>2023-11-05T13:51:10Z</time>
      </trkpt>
      <trkpt lat="43.49775" lon="6.61999">
        <ele>49.5</ele>
        <time>2023-11-05T13:51:11Z</time>
      </trkpt>
      <trkpt lat="43.49776" lon="6.61999">
        <ele>49.6</ele>
        <time>2023-11-05T13:51:12Z</time>
      </trkpt>
      <trkpt lat="43.49776" lon="6.61999">
        <ele>49.6</ele>
        <time>2023-11-05T13:51:13Z</time>
      </trkpt>
      <trkpt lat="43.49776" lon="6.61998">
        <ele>49.6</ele>
        <time>2023-11-05T13:51:14Z</time>
      </trkpt>
      <trkpt lat="43.49776" lon="6.61998">
        <ele>49.6</ele>
        <time>2023-11-05T13:51:15Z</time>
      </trkpt>
      <trkpt lat="43.49776" lon="6.61998">
        <ele>49.6</ele>
        <time>2023-11-05T13:51:16Z</time>
      </trkpt>
      <trkpt lat="43.49777" lon="6.61997">
        <ele>49.6</ele>
        <time>2023-11-05T13:51:17Z</time>
      </trkpt>
      <trkpt lat="43.49777" lon="6.61997">
        <ele>49.7</ele>
        <time>2023-11-05T13:51:18Z</time>
      </trkpt>
      <trkpt lat="43.49777" lon="6.61997">
        <ele>49.7</ele>
        <time>2023-11-05T13:51:19Z</time>
      </trkpt>
      <trkpt lat="43.49778" lon="6.61996">
        <ele>49.7</ele>
        <time>2023-11-05T13:51:20Z</time>
      </trkpt>
      <trkpt lat="43.49778" lon="6.61996">
        <ele>49.7</ele>
        <time>2023-11-05T13:51:21Z</time>
      </trkpt>
      <trkpt lat="43.49778" lon="6.61996">
        <ele>49.6</ele>
        <time>2023-11-05T13:51:22Z</time>
      </trkpt>
      <trkpt lat="43.49779" lon="6.61996">
        <ele>49.6</ele>
        <time>2023-11-05T13:51:23Z</time>
      </trkpt>
      <trkpt lat="43.49779" lon="6.61997">
        <ele>49.6</ele>
        <time>2023-11-05T13:51:24Z</time>
      </trkpt>
      <trkpt lat="43.4978" lon="6.61998">
        <ele>49.6</ele>
        <time>2023-11-05T13:51:25Z</time>
      </trkpt>
      <trkpt lat="43.4978" lon="6.61999">
        <ele>49.6</ele>
        <time>2023-11-05T13:51:26Z</time>
      </trkpt>
      <trkpt lat="43.49781" lon="6.61999">
        <ele>49.5</ele>
        <time>2023-11-05T13:51:27Z</time>
      </trkpt>
      <trkpt lat="43.49782" lon="6.62">
        <ele>49.4</ele>
        <time>2023-11-05T13:51:28Z</time>
      </trkpt>
      <trkpt lat="43.49782" lon="6.62001">
        <ele>49.4</ele>
        <time>2023-11-05T13:51:29Z</time>
      </trkpt>
      <trkpt lat="43.49783" lon="6.62002">
        <ele>49.3</ele>
        <time>2023-11-05T13:51:30Z</time>
      </trkpt>
      <trkpt lat="43.49784" lon="6.62003">
        <ele>49.3</ele>
        <time>2023-11-05T13:51:31Z</time>
      </trkpt>
      <trkpt lat="43.49785" lon="6.62005">
        <ele>49.3</ele>
        <time>2023-11-05T13:51:32Z</time>
      </trkpt>
      <trkpt lat="43.49786" lon="6.62006">
        <ele>49.3</ele>
        <time>2023-11-05T13:51:33Z</time>
      </trkpt>
      <trkpt lat="43.49787" lon="6.62006">
        <ele>49.4</ele>
        <time>2023-11-05T13:51:34Z</time>
      </trkpt>
      <trkpt lat="43.49788" lon="6.62007">
        <ele>49.4</ele>
        <time>2023-11-05T13:51:35Z</time>
      </trkpt>
      <trkpt lat="43.49789" lon="6.62008">
        <ele>49.4</ele>
        <time>2023-11-05T13:51:36Z</time>
      </trkpt>
      <trkpt lat="43.4979" lon="6.62009">
        <ele>49.4</ele>
        <time>2023-11-05T13:51:37Z</time>
      </trkpt>
      <trkpt lat="43.49791" lon="6.6201">
        <ele>49.4</ele>
        <time>2023-11-05T13:51:38Z</time>
      </trkpt>
      <trkpt lat="43.49792" lon="6.62011">
        <ele>49.4</ele>
        <time>2023-11-05T13:51:39Z</time>
      </trkpt>
      <trkpt lat="43.49793" lon="6.62012">
        <ele>49.4</ele>
        <time>2023-11-05T13:51:40Z</time>
      </trkpt>
      <trkpt lat="43.49794" lon="6.62013">
        <ele>49.5</ele>
        <time>2023-11-05T13:51:41Z</time>
      </trkpt>
      <trkpt lat="43.49795" lon="6.62014">
        <ele>49.5</ele>
        <time>2023-11-05T13:51:42Z</time>
      </trkpt>
      <trkpt lat="43.49796" lon="6.62016">
        <ele>49.5</ele>
        <time>2023-11-05T13:51:43Z</time>
      </trkpt>
      <trkpt lat="43.49797" lon="6.62017">
        <ele>49.4</ele>
        <time>2023-11-05T13:51:44Z</time>
      </trkpt>
      <trkpt lat="43.49798" lon="6.62018">
        <ele>49.3</ele>
        <time>2023-11-05T13:51:45Z</time>
      </trkpt>
      <trkpt lat="43.49799" lon="6.62019">
        <ele>49.1</ele>
        <time>2023-11-05T13:51:46Z</time>
      </trkpt>
      <trkpt lat="43.498" lon="6.6202">
        <ele>49.1</ele>
        <time>2023-11-05T13:51:47Z</time>
      </trkpt>
      <trkpt lat="43.498" lon="6.62022">
        <ele>49</ele>
        <time>2023-11-05T13:51:48Z</time>
      </trkpt>
      <trkpt lat="43.498" lon="6.62024">
        <ele>49.1</ele>
        <time>2023-11-05T13:51:49Z</time>
      </trkpt>
      <trkpt lat="43.49801" lon="6.62026">
        <ele>49.1</ele>
        <time>2023-11-05T13:51:50Z</time>
      </trkpt>
      <trkpt lat="43.49801" lon="6.62028">
        <ele>49.2</ele>
        <time>2023-11-05T13:51:51Z</time>
      </trkpt>
      <trkpt lat="43.49801" lon="6.62029">
        <ele>49.3</ele>
        <time>2023-11-05T13:51:52Z</time>
      </trkpt>
      <trkpt lat="43.49802" lon="6.62031">
        <ele>49.4</ele>
        <time>2023-11-05T13:51:53Z</time>
      </trkpt>
      <trkpt lat="43.49802" lon="6.62032">
        <ele>49.4</ele>
        <time>2023-11-05T13:51:54Z</time>
      </trkpt>
      <trkpt lat="43.49803" lon="6.62034">
        <ele>49.4</ele>
        <time>2023-11-05T13:51:55Z</time>
      </trkpt>
      <trkpt lat="43.49803" lon="6.62035">
        <ele>49.4</ele>
        <time>2023-11-05T13:51:56Z</time>
      </trkpt>
      <trkpt lat="43.49804" lon="6.62036">
        <ele>49.4</ele>
        <time>2023-11-05T13:51:57Z</time>
      </trkpt>
      <trkpt lat="43.49804" lon="6.62038">
        <ele>49.4</ele>
        <time>2023-11-05T13:51:58Z</time>
      </trkpt>
      <trkpt lat="43.49804" lon="6.62039">
        <ele>49.4</ele>
        <time>2023-11-05T13:51:59Z</time>
      </trkpt>
      <trkpt lat="43.49805" lon="6.6204">
        <ele>49.4</ele>
        <time>2023-11-05T13:52:00Z</time>
      </trkpt>
      <trkpt lat="43.49806" lon="6.62042">
        <ele>49.4</ele>
        <time>2023-11-05T13:52:01Z</time>
      </trkpt>
      <trkpt lat="43.49807" lon="6.62043">
        <ele>49.5</ele>
        <time>2023-11-05T13:52:02Z</time>
      </trkpt>
      <trkpt lat="43.49808" lon="6.62044">
        <ele>49.5</ele>
        <time>2023-11-05T13:52:03Z</time>
      </trkpt>
      <trkpt lat="43.49808" lon="6.62046">
        <ele>49.5</ele>
        <time>2023-11-05T13:52:04Z</time>
      </trkpt>
      <trkpt lat="43.49809" lon="6.62047">
        <ele>49.4</ele>
        <time>2023-11-05T13:52:05Z</time>
      </trkpt>
      <trkpt lat="43.49809" lon="6.62048">
        <ele>49.4</ele>
        <time>2023-11-05T13:52:06Z</time>
      </trkpt>
      <trkpt lat="43.49809" lon="6.6205">
        <ele>49.3</ele>
        <time>2023-11-05T13:52:07Z</time>
      </trkpt>
      <trkpt lat="43.4981" lon="6.62052">
        <ele>49.2</ele>
        <time>2023-11-05T13:52:08Z</time>
      </trkpt>
      <trkpt lat="43.4981" lon="6.62053">
        <ele>49.2</ele>
        <time>2023-11-05T13:52:09Z</time>
      </trkpt>
      <trkpt lat="43.4981" lon="6.62055">
        <ele>49.1</ele>
        <time>2023-11-05T13:52:10Z</time>
      </trkpt>
      <trkpt lat="43.49811" lon="6.62056">
        <ele>48.9</ele>
        <time>2023-11-05T13:52:11Z</time>
      </trkpt>
      <trkpt lat="43.49811" lon="6.62058">
        <ele>48.8</ele>
        <time>2023-11-05T13:52:12Z</time>
      </trkpt>
      <trkpt lat="43.49812" lon="6.62059">
        <ele>48.7</ele>
        <time>2023-11-05T13:52:13Z</time>
      </trkpt>
      <trkpt lat="43.49813" lon="6.62061">
        <ele>48.7</ele>
        <time>2023-11-05T13:52:14Z</time>
      </trkpt>
      <trkpt lat="43.49814" lon="6.62062">
        <ele>48.6</ele>
        <time>2023-11-05T13:52:15Z</time>
      </trkpt>
      <trkpt lat="43.49814" lon="6.62063">
        <ele>48.7</ele>
        <time>2023-11-05T13:52:16Z</time>
      </trkpt>
      <trkpt lat="43.49815" lon="6.62064">
        <ele>48.6</ele>
        <time>2023-11-05T13:52:17Z</time>
      </trkpt>
      <trkpt lat="43.49816" lon="6.62065">
        <ele>48.7</ele>
        <time>2023-11-05T13:52:18Z</time>
      </trkpt>
      <trkpt lat="43.49817" lon="6.62067">
        <ele>48.7</ele>
        <time>2023-11-05T13:52:19Z</time>
      </trkpt>
      <trkpt lat="43.49818" lon="6.62068">
        <ele>48.7</ele>
        <time>2023-11-05T13:52:20Z</time>
      </trkpt>
      <trkpt lat="43.49819" lon="6.62069">
        <ele>48.7</ele>
        <time>2023-11-05T13:52:21Z</time>
      </trkpt>
      <trkpt lat="43.49819" lon="6.62069">
        <ele>48.7</ele>
        <time>2023-11-05T13:52:22Z</time>
      </trkpt>
      <trkpt lat="43.49819" lon="6.62068">
        <ele>48.8</ele>
        <time>2023-11-05T13:52:23Z</time>
      </trkpt>
      <trkpt lat="43.4982" lon="6.62068">
        <ele>48.9</ele>
        <time>2023-11-05T13:52:24Z</time>
      </trkpt>
      <trkpt lat="43.4982" lon="6.62068">
        <ele>48.9</ele>
        <time>2023-11-05T13:52:25Z</time>
      </trkpt>
      <trkpt lat="43.4982" lon="6.62068">
        <ele>48.9</ele>
        <time>2023-11-05T13:52:26Z</time>
      </trkpt>
      <trkpt lat="43.4982" lon="6.62068">
        <ele>48.9</ele>
        <time>2023-11-05T13:52:27Z</time>
      </trkpt>
      <trkpt lat="43.4982" lon="6.62067">
        <ele>48.9</ele>
        <time>2023-11-05T13:52:28Z</time>
      </trkpt>
      <trkpt lat="43.49821" lon="6.62067">
        <ele>48.9</ele>
        <time>2023-11-05T13:52:29Z</time>
      </trkpt>
      <trkpt lat="43.49821" lon="6.62067">
        <ele>48.9</ele>
        <time>2023-11-05T13:52:30Z</time>
      </trkpt>
      <trkpt lat="43.49821" lon="6.62067">
        <ele>48.9</ele>
        <time>2023-11-05T13:52:31Z</time>
      </trkpt>
      <trkpt lat="43.49821" lon="6.62067">
        <ele>48.9</ele>
        <time>2023-11-05T13:52:32Z</time>
      </trkpt>
      <trkpt lat="43.49821" lon="6.62067">
        <ele>48.8</ele>
        <time>2023-11-05T13:52:33Z</time>
      </trkpt>
      <trkpt lat="43.49821" lon="6.62066">
        <ele>48.8</ele>
        <time>2023-11-05T13:52:34Z</time>
      </trkpt>
      <trkpt lat="43.49821" lon="6.62066">
        <ele>48.7</ele>
        <time>2023-11-05T13:52:35Z</time>
      </trkpt>
      <trkpt lat="43.49821" lon="6.62067">
        <ele>48.7</ele>
        <time>2023-11-05T13:52:36Z</time>
      </trkpt>
      <trkpt lat="43.49821" lon="6.62068">
        <ele>48.7</ele>
        <time>2023-11-05T13:52:37Z</time>
      </trkpt>
      <trkpt lat="43.49822" lon="6.62069">
        <ele>48.7</ele>
        <time>2023-11-05T13:52:38Z</time>
      </trkpt>
      <trkpt lat="43.49822" lon="6.6207">
        <ele>48.7</ele>
        <time>2023-11-05T13:52:39Z</time>
      </trkpt>
      <trkpt lat="43.49822" lon="6.62071">
        <ele>48.6</ele>
        <time>2023-11-05T13:52:40Z</time>
      </trkpt>
      <trkpt lat="43.49823" lon="6.62072">
        <ele>48.6</ele>
        <time>2023-11-05T13:52:41Z</time>
      </trkpt>
      <trkpt lat="43.49823" lon="6.62073">
        <ele>48.4</ele>
        <time>2023-11-05T13:52:42Z</time>
      </trkpt>
      <trkpt lat="43.49824" lon="6.62075">
        <ele>48.4</ele>
        <time>2023-11-05T13:52:43Z</time>
      </trkpt>
      <trkpt lat="43.49824" lon="6.62076">
        <ele>48.3</ele>
        <time>2023-11-05T13:52:44Z</time>
      </trkpt>
      <trkpt lat="43.49824" lon="6.62077">
        <ele>48.3</ele>
        <time>2023-11-05T13:52:45Z</time>
      </trkpt>
      <trkpt lat="43.49824" lon="6.62078">
        <ele>48.2</ele>
        <time>2023-11-05T13:52:46Z</time>
      </trkpt>
      <trkpt lat="43.49824" lon="6.62078">
        <ele>48.1</ele>
        <time>2023-11-05T13:52:47Z</time>
      </trkpt>
      <trkpt lat="43.49824" lon="6.62079">
        <ele>48</ele>
        <time>2023-11-05T13:52:48Z</time>
      </trkpt>
      <trkpt lat="43.49823" lon="6.6208">
        <ele>47.9</ele>
        <time>2023-11-05T13:52:49Z</time>
      </trkpt>
      <trkpt lat="43.49823" lon="6.62082">
        <ele>47.8</ele>
        <time>2023-11-05T13:52:50Z</time>
      </trkpt>
      <trkpt lat="43.49823" lon="6.62083">
        <ele>47.7</ele>
        <time>2023-11-05T13:52:51Z</time>
      </trkpt>
      <trkpt lat="43.49823" lon="6.62084">
        <ele>47.6</ele>
        <time>2023-11-05T13:52:52Z</time>
      </trkpt>
      <trkpt lat="43.49822" lon="6.62086">
        <ele>47.5</ele>
        <time>2023-11-05T13:52:53Z</time>
      </trkpt>
      <trkpt lat="43.49822" lon="6.62087">
        <ele>47.4</ele>
        <time>2023-11-05T13:52:54Z</time>
      </trkpt>
      <trkpt lat="43.49822" lon="6.62088">
        <ele>47.3</ele>
        <time>2023-11-05T13:52:55Z</time>
      </trkpt>
      <trkpt lat="43.49822" lon="6.62089">
        <ele>47.2</ele>
        <time>2023-11-05T13:52:56Z</time>
      </trkpt>
      <trkpt lat="43.49822" lon="6.6209">
        <ele>47.1</ele>
        <time>2023-11-05T13:52:57Z</time>
      </trkpt>
      <trkpt lat="43.49822" lon="6.62092">
        <ele>47</ele>
        <time>2023-11-05T13:52:58Z</time>
      </trkpt>
      <trkpt lat="43.49822" lon="6.62093">
        <ele>46.9</ele>
        <time>2023-11-05T13:52:59Z</time>
      </trkpt>
      <trkpt lat="43.49821" lon="6.62094">
        <ele>46.9</ele>
        <time>2023-11-05T13:53:00Z</time>
      </trkpt>
      <trkpt lat="43.49821" lon="6.62095">
        <ele>46.7</ele>
        <time>2023-11-05T13:53:01Z</time>
      </trkpt>
      <trkpt lat="43.4982" lon="6.62096">
        <ele>46.6</ele>
        <time>2023-11-05T13:53:02Z</time>
      </trkpt>
      <trkpt lat="43.4982" lon="6.62097">
        <ele>46.6</ele>
        <time>2023-11-05T13:53:03Z</time>
      </trkpt>
      <trkpt lat="43.49819" lon="6.62097">
        <ele>46.5</ele>
        <time>2023-11-05T13:53:04Z</time>
      </trkpt>
      <trkpt lat="43.49819" lon="6.62098">
        <ele>46.5</ele>
        <time>2023-11-05T13:53:05Z</time>
      </trkpt>
      <trkpt lat="43.49819" lon="6.62098">
        <ele>46.5</ele>
        <time>2023-11-05T13:53:06Z</time>
      </trkpt>
      <trkpt lat="43.49819" lon="6.62098">
        <ele>46.4</ele>
        <time>2023-11-05T13:53:07Z</time>
      </trkpt>
      <trkpt lat="43.4982" lon="6.62098">
        <ele>46.2</ele>
        <time>2023-11-05T13:53:08Z</time>
      </trkpt>
      <trkpt lat="43.4982" lon="6.62098">
        <ele>46.1</ele>
        <time>2023-11-05T13:53:09Z</time>
      </trkpt>
      <trkpt lat="43.4982" lon="6.62098">
        <ele>46</ele>
        <time>2023-11-05T13:53:10Z</time>
      </trkpt>
      <trkpt lat="43.4982" lon="6.62098">
        <ele>45.9</ele>
        <time>2023-11-05T13:53:11Z</time>
      </trkpt>
      <trkpt lat="43.4982" lon="6.62098">
        <ele>45.8</ele>
        <time>2023-11-05T13:53:12Z</time>
      </trkpt>
      <trkpt lat="43.4982" lon="6.62099">
        <ele>45.7</ele>
        <time>2023-11-05T13:53:13Z</time>
      </trkpt>
      <trkpt lat="43.4982" lon="6.62099">
        <ele>45.8</ele>
        <time>2023-11-05T13:53:14Z</time>
      </trkpt>
      <trkpt lat="43.4982" lon="6.62099">
        <ele>45.8</ele>
        <time>2023-11-05T13:53:15Z</time>
      </trkpt>
      <trkpt lat="43.4982" lon="6.62099">
        <ele>45.8</ele>
        <time>2023-11-05T13:53:16Z</time>
      </trkpt>
      <trkpt lat="43.4982" lon="6.62099">
        <ele>45.9</ele>
        <time>2023-11-05T13:53:17Z</time>
      </trkpt>
      <trkpt lat="43.4982" lon="6.62099">
        <ele>45.9</ele>
        <time>2023-11-05T13:53:18Z</time>
      </trkpt>
      <trkpt lat="43.4982" lon="6.62099">
        <ele>45.9</ele>
        <time>2023-11-05T13:53:19Z</time>
      </trkpt>
      <trkpt lat="43.4982" lon="6.62099">
        <ele>45.9</ele>
        <time>2023-11-05T13:53:20Z</time>
      </trkpt>
      <trkpt lat="43.4982" lon="6.62099">
        <ele>45.9</ele>
        <time>2023-11-05T13:53:21Z</time>
      </trkpt>
      <trkpt lat="43.4982" lon="6.62099">
        <ele>46</ele>
        <time>2023-11-05T13:53:22Z</time>
      </trkpt>
      <trkpt lat="43.4982" lon="6.62099">
        <ele>46</ele>
        <time>2023-11-05T13:53:23Z</time>
      </trkpt>
      <trkpt lat="43.4982" lon="6.62099">
        <ele>46</ele>
        <time>2023-11-05T13:53:24Z</time>
      </trkpt>
      <trkpt lat="43.4982" lon="6.62099">
        <ele>46</ele>
        <time>2023-11-05T13:53:25Z</time>
      </trkpt>
      <trkpt lat="43.4982" lon="6.62099">
        <ele>46</ele>
        <time>2023-11-05T13:53:26Z</time>
      </trkpt>
      <trkpt lat="43.4982" lon="6.62099">
        <ele>46.1</ele>
        <time>2023-11-05T13:53:27Z</time>
      </trkpt>
      <trkpt lat="43.4982" lon="6.62099">
        <ele>46.1</ele>
        <time>2023-11-05T13:53:28Z</time>
      </trkpt>
      <trkpt lat="43.4982" lon="6.62099">
        <ele>46.1</ele>
        <time>2023-11-05T13:53:29Z</time>
      </trkpt>
      <trkpt lat="43.4982" lon="6.62099">
        <ele>46.1</ele>
        <time>2023-11-05T13:53:30Z</time>
      </trkpt>
      <trkpt lat="43.4982" lon="6.62099">
        <ele>46.1</ele>
        <time>2023-11-05T13:53:31Z</time>
      </trkpt>
      <trkpt lat="43.49821" lon="6.621">
        <ele>46.4</ele>
        <time>2023-11-05T13:53:32Z</time>
      </trkpt>
      <trkpt lat="43.49821" lon="6.62101">
        <ele>46.2</ele>
        <time>2023-11-05T13:53:33Z</time>
      </trkpt>
      <trkpt lat="43.49822" lon="6.62103">
        <ele>45.9</ele>
        <time>2023-11-05T13:53:34Z</time>
      </trkpt>
      <trkpt lat="43.49822" lon="6.62104">
        <ele>45.8</ele>
        <time>2023-11-05T13:53:35Z</time>
      </trkpt>
      <trkpt lat="43.49823" lon="6.62106">
        <ele>45.7</ele>
        <time>2023-11-05T13:53:36Z</time>
      </trkpt>
      <trkpt lat="43.49823" lon="6.62107">
        <ele>45.4</ele>
        <time>2023-11-05T13:53:37Z</time>
      </trkpt>
      <trkpt lat="43.49824" lon="6.62109">
        <ele>45.2</ele>
        <time>2023-11-05T13:53:38Z</time>
      </trkpt>
      <trkpt lat="43.49824" lon="6.62111">
        <ele>45.1</ele>
        <time>2023-11-05T13:53:39Z</time>
      </trkpt>
      <trkpt lat="43.49825" lon="6.62112">
        <ele>45</ele>
        <time>2023-11-05T13:53:40Z</time>
      </trkpt>
      <trkpt lat="43.49825" lon="6.62113">
        <ele>44.9</ele>
        <time>2023-11-05T13:53:41Z</time>
      </trkpt>
      <trkpt lat="43.49826" lon="6.62115">
        <ele>44.8</ele>
        <time>2023-11-05T13:53:42Z</time>
      </trkpt>
      <trkpt lat="43.49826" lon="6.62116">
        <ele>44.7</ele>
        <time>2023-11-05T13:53:43Z</time>
      </trkpt>
      <trkpt lat="43.49827" lon="6.62118">
        <ele>44.5</ele>
        <time>2023-11-05T13:53:44Z</time>
      </trkpt>
      <trkpt lat="43.49828" lon="6.62119">
        <ele>44.3</ele>
        <time>2023-11-05T13:53:45Z</time>
      </trkpt>
      <trkpt lat="43.49829" lon="6.6212">
        <ele>44.2</ele>
        <time>2023-11-05T13:53:46Z</time>
      </trkpt>
      <trkpt lat="43.4983" lon="6.62121">
        <ele>44.2</ele>
        <time>2023-11-05T13:53:47Z</time>
      </trkpt>
      <trkpt lat="43.4983" lon="6.62122">
        <ele>44.2</ele>
        <time>2023-11-05T13:53:48Z</time>
      </trkpt>
      <trkpt lat="43.49831" lon="6.62123">
        <ele>44.3</ele>
        <time>2023-11-05T13:53:49Z</time>
      </trkpt>
      <trkpt lat="43.49831" lon="6.62124">
        <ele>44.5</ele>
        <time>2023-11-05T13:53:50Z</time>
      </trkpt>
      <trkpt lat="43.49832" lon="6.62125">
        <ele>44.6</ele>
        <time>2023-11-05T13:53:51Z</time>
      </trkpt>
      <trkpt lat="43.49832" lon="6.62126">
        <ele>44.5</ele>
        <time>2023-11-05T13:53:52Z</time>
      </trkpt>
      <trkpt lat="43.49833" lon="6.62127">
        <ele>44.7</ele>
        <time>2023-11-05T13:53:53Z</time>
      </trkpt>
      <trkpt lat="43.49833" lon="6.62126">
        <ele>44.6</ele>
        <time>2023-11-05T13:53:54Z</time>
      </trkpt>
      <trkpt lat="43.49833" lon="6.62127">
        <ele>44.6</ele>
        <time>2023-11-05T13:53:55Z</time>
      </trkpt>
      <trkpt lat="43.49833" lon="6.62128">
        <ele>44.6</ele>
        <time>2023-11-05T13:53:56Z</time>
      </trkpt>
      <trkpt lat="43.49833" lon="6.62129">
        <ele>44.6</ele>
        <time>2023-11-05T13:53:57Z</time>
      </trkpt>
      <trkpt lat="43.49834" lon="6.6213">
        <ele>44.8</ele>
        <time>2023-11-05T13:53:58Z</time>
      </trkpt>
      <trkpt lat="43.49834" lon="6.62132">
        <ele>44.8</ele>
        <time>2023-11-05T13:53:59Z</time>
      </trkpt>
      <trkpt lat="43.49834" lon="6.62133">
        <ele>44.8</ele>
        <time>2023-11-05T13:54:00Z</time>
      </trkpt>
      <trkpt lat="43.49835" lon="6.62134">
        <ele>44.8</ele>
        <time>2023-11-05T13:54:01Z</time>
      </trkpt>
      <trkpt lat="43.49835" lon="6.62134">
        <ele>44.8</ele>
        <time>2023-11-05T13:54:02Z</time>
      </trkpt>
      <trkpt lat="43.49835" lon="6.62134">
        <ele>44.7</ele>
        <time>2023-11-05T13:54:03Z</time>
      </trkpt>
      <trkpt lat="43.49835" lon="6.62135">
        <ele>44.7</ele>
        <time>2023-11-05T13:54:04Z</time>
      </trkpt>
      <trkpt lat="43.49835" lon="6.62136">
        <ele>44.7</ele>
        <time>2023-11-05T13:54:05Z</time>
      </trkpt>
      <trkpt lat="43.49836" lon="6.62138">
        <ele>44.7</ele>
        <time>2023-11-05T13:54:06Z</time>
      </trkpt>
      <trkpt lat="43.49836" lon="6.62139">
        <ele>44.7</ele>
        <time>2023-11-05T13:54:07Z</time>
      </trkpt>
      <trkpt lat="43.49836" lon="6.62141">
        <ele>44.7</ele>
        <time>2023-11-05T13:54:08Z</time>
      </trkpt>
      <trkpt lat="43.49836" lon="6.62142">
        <ele>44.8</ele>
        <time>2023-11-05T13:54:09Z</time>
      </trkpt>
      <trkpt lat="43.49837" lon="6.62143">
        <ele>44.7</ele>
        <time>2023-11-05T13:54:10Z</time>
      </trkpt>
      <trkpt lat="43.49838" lon="6.62144">
        <ele>44.6</ele>
        <time>2023-11-05T13:54:11Z</time>
      </trkpt>
      <trkpt lat="43.49838" lon="6.62145">
        <ele>44.6</ele>
        <time>2023-11-05T13:54:12Z</time>
      </trkpt>
      <trkpt lat="43.49839" lon="6.62147">
        <ele>44.7</ele>
        <time>2023-11-05T13:54:13Z</time>
      </trkpt>
      <trkpt lat="43.49839" lon="6.62148">
        <ele>44.9</ele>
        <time>2023-11-05T13:54:14Z</time>
      </trkpt>
      <trkpt lat="43.49839" lon="6.62149">
        <ele>45.1</ele>
        <time>2023-11-05T13:54:15Z</time>
      </trkpt>
      <trkpt lat="43.4984" lon="6.62149">
        <ele>45.2</ele>
        <time>2023-11-05T13:54:16Z</time>
      </trkpt>
      <trkpt lat="43.4984" lon="6.6215">
        <ele>45.3</ele>
        <time>2023-11-05T13:54:17Z</time>
      </trkpt>
      <trkpt lat="43.4984" lon="6.62151">
        <ele>45.4</ele>
        <time>2023-11-05T13:54:18Z</time>
      </trkpt>
      <trkpt lat="43.4984" lon="6.62153">
        <ele>45.5</ele>
        <time>2023-11-05T13:54:19Z</time>
      </trkpt>
      <trkpt lat="43.49841" lon="6.62153">
        <ele>45.6</ele>
        <time>2023-11-05T13:54:20Z</time>
      </trkpt>
      <trkpt lat="43.49841" lon="6.62154">
        <ele>45.6</ele>
        <time>2023-11-05T13:54:21Z</time>
      </trkpt>
      <trkpt lat="43.49841" lon="6.62155">
        <ele>45.7</ele>
        <time>2023-11-05T13:54:22Z</time>
      </trkpt>
      <trkpt lat="43.4984" lon="6.62156">
        <ele>45.7</ele>
        <time>2023-11-05T13:54:23Z</time>
      </trkpt>
      <trkpt lat="43.4984" lon="6.62156">
        <ele>45.9</ele>
        <time>2023-11-05T13:54:24Z</time>
      </trkpt>
      <trkpt lat="43.49841" lon="6.62157">
        <ele>46</ele>
        <time>2023-11-05T13:54:25Z</time>
      </trkpt>
      <trkpt lat="43.4984" lon="6.62158">
        <ele>46</ele>
        <time>2023-11-05T13:54:26Z</time>
      </trkpt>
      <trkpt lat="43.4984" lon="6.6216">
        <ele>46.3</ele>
        <time>2023-11-05T13:54:27Z</time>
      </trkpt>
      <trkpt lat="43.49841" lon="6.62161">
        <ele>46.5</ele>
        <time>2023-11-05T13:54:28Z</time>
      </trkpt>
      <trkpt lat="43.49841" lon="6.62162">
        <ele>46.6</ele>
        <time>2023-11-05T13:54:29Z</time>
      </trkpt>
      <trkpt lat="43.49841" lon="6.62164">
        <ele>46.6</ele>
        <time>2023-11-05T13:54:30Z</time>
      </trkpt>
      <trkpt lat="43.49841" lon="6.62166">
        <ele>46.7</ele>
        <time>2023-11-05T13:54:31Z</time>
      </trkpt>
      <trkpt lat="43.49841" lon="6.62167">
        <ele>46.7</ele>
        <time>2023-11-05T13:54:32Z</time>
      </trkpt>
      <trkpt lat="43.49841" lon="6.62169">
        <ele>46.8</ele>
        <time>2023-11-05T13:54:33Z</time>
      </trkpt>
      <trkpt lat="43.49842" lon="6.6217">
        <ele>46.9</ele>
        <time>2023-11-05T13:54:34Z</time>
      </trkpt>
      <trkpt lat="43.49842" lon="6.62171">
        <ele>47</ele>
        <time>2023-11-05T13:54:35Z</time>
      </trkpt>
      <trkpt lat="43.49843" lon="6.62173">
        <ele>46</ele>
        <time>2023-11-05T13:54:36Z</time>
      </trkpt>
      <trkpt lat="43.49843" lon="6.62174">
        <ele>46.2</ele>
        <time>2023-11-05T13:54:37Z</time>
      </trkpt>
      <trkpt lat="43.49843" lon="6.62175">
        <ele>46.4</ele>
        <time>2023-11-05T13:54:38Z</time>
      </trkpt>
      <trkpt lat="43.49844" lon="6.62177">
        <ele>46.6</ele>
        <time>2023-11-05T13:54:39Z</time>
      </trkpt>
      <trkpt lat="43.49844" lon="6.62178">
        <ele>46.8</ele>
        <time>2023-11-05T13:54:40Z</time>
      </trkpt>
      <trkpt lat="43.49844" lon="6.62179">
        <ele>46.9</ele>
        <time>2023-11-05T13:54:41Z</time>
      </trkpt>
      <trkpt lat="43.49844" lon="6.62181">
        <ele>47</ele>
        <time>2023-11-05T13:54:42Z</time>
      </trkpt>
      <trkpt lat="43.49844" lon="6.62182">
        <ele>47.1</ele>
        <time>2023-11-05T13:54:43Z</time>
      </trkpt>
      <trkpt lat="43.49844" lon="6.62182">
        <ele>47.2</ele>
        <time>2023-11-05T13:54:44Z</time>
      </trkpt>
      <trkpt lat="43.49844" lon="6.62183">
        <ele>47.3</ele>
        <time>2023-11-05T13:54:45Z</time>
      </trkpt>
      <trkpt lat="43.49844" lon="6.62185">
        <ele>47.4</ele>
        <time>2023-11-05T13:54:46Z</time>
      </trkpt>
      <trkpt lat="43.49844" lon="6.62187">
        <ele>47.4</ele>
        <time>2023-11-05T13:54:47Z</time>
      </trkpt>
      <trkpt lat="43.49844" lon="6.62188">
        <ele>47.4</ele>
        <time>2023-11-05T13:54:48Z</time>
      </trkpt>
      <trkpt lat="43.49845" lon="6.62189">
        <ele>47.4</ele>
        <time>2023-11-05T13:54:49Z</time>
      </trkpt>
      <trkpt lat="43.49845" lon="6.62191">
        <ele>47.4</ele>
        <time>2023-11-05T13:54:50Z</time>
      </trkpt>
      <trkpt lat="43.49845" lon="6.62192">
        <ele>47.4</ele>
        <time>2023-11-05T13:54:51Z</time>
      </trkpt>
      <trkpt lat="43.49845" lon="6.62194">
        <ele>47.4</ele>
        <time>2023-11-05T13:54:52Z</time>
      </trkpt>
      <trkpt lat="43.49845" lon="6.62196">
        <ele>47.3</ele>
        <time>2023-11-05T13:54:53Z</time>
      </trkpt>
      <trkpt lat="43.49845" lon="6.62197">
        <ele>47.4</ele>
        <time>2023-11-05T13:54:54Z</time>
      </trkpt>
      <trkpt lat="43.49845" lon="6.62199">
        <ele>47.4</ele>
        <time>2023-11-05T13:54:55Z</time>
      </trkpt>
      <trkpt lat="43.49846" lon="6.62201">
        <ele>47.5</ele>
        <time>2023-11-05T13:54:56Z</time>
      </trkpt>
      <trkpt lat="43.49846" lon="6.62202">
        <ele>47.5</ele>
        <time>2023-11-05T13:54:57Z</time>
      </trkpt>
      <trkpt lat="43.49847" lon="6.62203">
        <ele>47.5</ele>
        <time>2023-11-05T13:54:58Z</time>
      </trkpt>
      <trkpt lat="43.49847" lon="6.62205">
        <ele>47.5</ele>
        <time>2023-11-05T13:54:59Z</time>
      </trkpt>
      <trkpt lat="43.49847" lon="6.62206">
        <ele>47.6</ele>
        <time>2023-11-05T13:55:00Z</time>
      </trkpt>
      <trkpt lat="43.49846" lon="6.62207">
        <ele>47.7</ele>
        <time>2023-11-05T13:55:01Z</time>
      </trkpt>
      <trkpt lat="43.49845" lon="6.62208">
        <ele>47.8</ele>
        <time>2023-11-05T13:55:02Z</time>
      </trkpt>
      <trkpt lat="43.49846" lon="6.62209">
        <ele>47.9</ele>
        <time>2023-11-05T13:55:03Z</time>
      </trkpt>
      <trkpt lat="43.49846" lon="6.6221">
        <ele>48</ele>
        <time>2023-11-05T13:55:04Z</time>
      </trkpt>
      <trkpt lat="43.49846" lon="6.62212">
        <ele>48.1</ele>
        <time>2023-11-05T13:55:05Z</time>
      </trkpt>
      <trkpt lat="43.49847" lon="6.62213">
        <ele>48.2</ele>
        <time>2023-11-05T13:55:06Z</time>
      </trkpt>
      <trkpt lat="43.49847" lon="6.62214">
        <ele>48.3</ele>
        <time>2023-11-05T13:55:07Z</time>
      </trkpt>
      <trkpt lat="43.49847" lon="6.62216">
        <ele>48.5</ele>
        <time>2023-11-05T13:55:08Z</time>
      </trkpt>
      <trkpt lat="43.49848" lon="6.62217">
        <ele>48.6</ele>
        <time>2023-11-05T13:55:09Z</time>
      </trkpt>
      <trkpt lat="43.49848" lon="6.62218">
        <ele>48.6</ele>
        <time>2023-11-05T13:55:10Z</time>
      </trkpt>
      <trkpt lat="43.49849" lon="6.62219">
        <ele>48.7</ele>
        <time>2023-11-05T13:55:11Z</time>
      </trkpt>
      <trkpt lat="43.49849" lon="6.6222">
        <ele>48.8</ele>
        <time>2023-11-05T13:55:12Z</time>
      </trkpt>
      <trkpt lat="43.4985" lon="6.62222">
        <ele>48.9</ele>
        <time>2023-11-05T13:55:13Z</time>
      </trkpt>
      <trkpt lat="43.4985" lon="6.62223">
        <ele>48.9</ele>
        <time>2023-11-05T13:55:14Z</time>
      </trkpt>
      <trkpt lat="43.4985" lon="6.62224">
        <ele>49</ele>
        <time>2023-11-05T13:55:15Z</time>
      </trkpt>
      <trkpt lat="43.4985" lon="6.62226">
        <ele>49.1</ele>
        <time>2023-11-05T13:55:16Z</time>
      </trkpt>
      <trkpt lat="43.4985" lon="6.62227">
        <ele>49.1</ele>
        <time>2023-11-05T13:55:17Z</time>
      </trkpt>
      <trkpt lat="43.4985" lon="6.62228">
        <ele>49.2</ele>
        <time>2023-11-05T13:55:18Z</time>
      </trkpt>
      <trkpt lat="43.4985" lon="6.62229">
        <ele>49.3</ele>
        <time>2023-11-05T13:55:19Z</time>
      </trkpt>
      <trkpt lat="43.4985" lon="6.62231">
        <ele>49.4</ele>
        <time>2023-11-05T13:55:20Z</time>
      </trkpt>
      <trkpt lat="43.4985" lon="6.62232">
        <ele>49.5</ele>
        <time>2023-11-05T13:55:21Z</time>
      </trkpt>
      <trkpt lat="43.4985" lon="6.62234">
        <ele>49.6</ele>
        <time>2023-11-05T13:55:22Z</time>
      </trkpt>
      <trkpt lat="43.4985" lon="6.62236">
        <ele>49.8</ele>
        <time>2023-11-05T13:55:23Z</time>
      </trkpt>
      <trkpt lat="43.4985" lon="6.62237">
        <ele>49.9</ele>
        <time>2023-11-05T13:55:24Z</time>
      </trkpt>
      <trkpt lat="43.4985" lon="6.62239">
        <ele>49.9</ele>
        <time>2023-11-05T13:55:25Z</time>
      </trkpt>
      <trkpt lat="43.4985" lon="6.6224">
        <ele>49.8</ele>
        <time>2023-11-05T13:55:26Z</time>
      </trkpt>
      <trkpt lat="43.49851" lon="6.62242">
        <ele>49.9</ele>
        <time>2023-11-05T13:55:27Z</time>
      </trkpt>
      <trkpt lat="43.4985" lon="6.62243">
        <ele>50</ele>
        <time>2023-11-05T13:55:28Z</time>
      </trkpt>
      <trkpt lat="43.4985" lon="6.62245">
        <ele>50.1</ele>
        <time>2023-11-05T13:55:29Z</time>
      </trkpt>
      <trkpt lat="43.49851" lon="6.62246">
        <ele>50.1</ele>
        <time>2023-11-05T13:55:30Z</time>
      </trkpt>
      <trkpt lat="43.4985" lon="6.62248">
        <ele>50.2</ele>
        <time>2023-11-05T13:55:31Z</time>
      </trkpt>
      <trkpt lat="43.4985" lon="6.6225">
        <ele>50.2</ele>
        <time>2023-11-05T13:55:32Z</time>
      </trkpt>
      <trkpt lat="43.49851" lon="6.62252">
        <ele>50.3</ele>
        <time>2023-11-05T13:55:33Z</time>
      </trkpt>
      <trkpt lat="43.49851" lon="6.62254">
        <ele>50.3</ele>
        <time>2023-11-05T13:55:34Z</time>
      </trkpt>
      <trkpt lat="43.49851" lon="6.62256">
        <ele>50.4</ele>
        <time>2023-11-05T13:55:35Z</time>
      </trkpt>
      <trkpt lat="43.49851" lon="6.62258">
        <ele>50.4</ele>
        <time>2023-11-05T13:55:36Z</time>
      </trkpt>
      <trkpt lat="43.49851" lon="6.62259">
        <ele>50.5</ele>
        <time>2023-11-05T13:55:37Z</time>
      </trkpt>
      <trkpt lat="43.49852" lon="6.62261">
        <ele>50.6</ele>
        <time>2023-11-05T13:55:38Z</time>
      </trkpt>
      <trkpt lat="43.49853" lon="6.62263">
        <ele>50.6</ele>
        <time>2023-11-05T13:55:39Z</time>
      </trkpt>
      <trkpt lat="43.49853" lon="6.62264">
        <ele>50.7</ele>
        <time>2023-11-05T13:55:40Z</time>
      </trkpt>
      <trkpt lat="43.49854" lon="6.62265">
        <ele>50.7</ele>
        <time>2023-11-05T13:55:41Z</time>
      </trkpt>
      <trkpt lat="43.49855" lon="6.62267">
        <ele>50.7</ele>
        <time>2023-11-05T13:55:42Z</time>
      </trkpt>
      <trkpt lat="43.49856" lon="6.62268">
        <ele>50.8</ele>
        <time>2023-11-05T13:55:43Z</time>
      </trkpt>
      <trkpt lat="43.49857" lon="6.62268">
        <ele>50.8</ele>
        <time>2023-11-05T13:55:44Z</time>
      </trkpt>
      <trkpt lat="43.49858" lon="6.62269">
        <ele>50.8</ele>
        <time>2023-11-05T13:55:45Z</time>
      </trkpt>
      <trkpt lat="43.49859" lon="6.62269">
        <ele>50.8</ele>
        <time>2023-11-05T13:55:46Z</time>
      </trkpt>
      <trkpt lat="43.4986" lon="6.62269">
        <ele>50.8</ele>
        <time>2023-11-05T13:55:47Z</time>
      </trkpt>
      <trkpt lat="43.49861" lon="6.6227">
        <ele>50.9</ele>
        <time>2023-11-05T13:55:48Z</time>
      </trkpt>
      <trkpt lat="43.49862" lon="6.6227">
        <ele>50.9</ele>
        <time>2023-11-05T13:55:49Z</time>
      </trkpt>
      <trkpt lat="43.49863" lon="6.6227">
        <ele>50.9</ele>
        <time>2023-11-05T13:55:50Z</time>
      </trkpt>
      <trkpt lat="43.49864" lon="6.6227">
        <ele>51.1</ele>
        <time>2023-11-05T13:55:51Z</time>
      </trkpt>
      <trkpt lat="43.49865" lon="6.6227">
        <ele>51.1</ele>
        <time>2023-11-05T13:55:52Z</time>
      </trkpt>
      <trkpt lat="43.49867" lon="6.6227">
        <ele>51.3</ele>
        <time>2023-11-05T13:55:53Z</time>
      </trkpt>
      <trkpt lat="43.49868" lon="6.62269">
        <ele>51.4</ele>
        <time>2023-11-05T13:55:54Z</time>
      </trkpt>
      <trkpt lat="43.49868" lon="6.62269">
        <ele>51.4</ele>
        <time>2023-11-05T13:55:55Z</time>
      </trkpt>
      <trkpt lat="43.49869" lon="6.62268">
        <ele>51.5</ele>
        <time>2023-11-05T13:55:56Z</time>
      </trkpt>
      <trkpt lat="43.4987" lon="6.62267">
        <ele>51.5</ele>
        <time>2023-11-05T13:55:57Z</time>
      </trkpt>
      <trkpt lat="43.49871" lon="6.62267">
        <ele>51.5</ele>
        <time>2023-11-05T13:55:58Z</time>
      </trkpt>
      <trkpt lat="43.49872" lon="6.62266">
        <ele>51.5</ele>
        <time>2023-11-05T13:55:59Z</time>
      </trkpt>
      <trkpt lat="43.49873" lon="6.62266">
        <ele>51.6</ele>
        <time>2023-11-05T13:56:00Z</time>
      </trkpt>
      <trkpt lat="43.49874" lon="6.62265">
        <ele>51.6</ele>
        <time>2023-11-05T13:56:01Z</time>
      </trkpt>
      <trkpt lat="43.49875" lon="6.62264">
        <ele>51.7</ele>
        <time>2023-11-05T13:56:02Z</time>
      </trkpt>
      <trkpt lat="43.49876" lon="6.62264">
        <ele>51.8</ele>
        <time>2023-11-05T13:56:03Z</time>
      </trkpt>
      <trkpt lat="43.49877" lon="6.62263">
        <ele>51.9</ele>
        <time>2023-11-05T13:56:04Z</time>
      </trkpt>
      <trkpt lat="43.49878" lon="6.62262">
        <ele>52</ele>
        <time>2023-11-05T13:56:05Z</time>
      </trkpt>
      <trkpt lat="43.49879" lon="6.62261">
        <ele>52</ele>
        <time>2023-11-05T13:56:06Z</time>
      </trkpt>
      <trkpt lat="43.4988" lon="6.6226">
        <ele>52.1</ele>
        <time>2023-11-05T13:56:07Z</time>
      </trkpt>
      <trkpt lat="43.49881" lon="6.62259">
        <ele>52.3</ele>
        <time>2023-11-05T13:56:08Z</time>
      </trkpt>
      <trkpt lat="43.49882" lon="6.62259">
        <ele>52.4</ele>
        <time>2023-11-05T13:56:09Z</time>
      </trkpt>
      <trkpt lat="43.49882" lon="6.62258">
        <ele>52.5</ele>
        <time>2023-11-05T13:56:10Z</time>
      </trkpt>
      <trkpt lat="43.49883" lon="6.62257">
        <ele>52.5</ele>
        <time>2023-11-05T13:56:11Z</time>
      </trkpt>
      <trkpt lat="43.49883" lon="6.62256">
        <ele>52.6</ele>
        <time>2023-11-05T13:56:12Z</time>
      </trkpt>
      <trkpt lat="43.49884" lon="6.62255">
        <ele>52.7</ele>
        <time>2023-11-05T13:56:13Z</time>
      </trkpt>
      <trkpt lat="43.49885" lon="6.62254">
        <ele>52.8</ele>
        <time>2023-11-05T13:56:14Z</time>
      </trkpt>
      <trkpt lat="43.49886" lon="6.62253">
        <ele>52.9</ele>
        <time>2023-11-05T13:56:15Z</time>
      </trkpt>
      <trkpt lat="43.49887" lon="6.62252">
        <ele>52.9</ele>
        <time>2023-11-05T13:56:16Z</time>
      </trkpt>
      <trkpt lat="43.49887" lon="6.62252">
        <ele>52.9</ele>
        <time>2023-11-05T13:56:17Z</time>
      </trkpt>
      <trkpt lat="43.49888" lon="6.62251">
        <ele>53.1</ele>
        <time>2023-11-05T13:56:18Z</time>
      </trkpt>
      <trkpt lat="43.49889" lon="6.6225">
        <ele>53.3</ele>
        <time>2023-11-05T13:56:19Z</time>
      </trkpt>
      <trkpt lat="43.4989" lon="6.62249">
        <ele>53.7</ele>
        <time>2023-11-05T13:56:20Z</time>
      </trkpt>
      <trkpt lat="43.4989" lon="6.62248">
        <ele>54</ele>
        <time>2023-11-05T13:56:21Z</time>
      </trkpt>
      <trkpt lat="43.49891" lon="6.62247">
        <ele>54.2</ele>
        <time>2023-11-05T13:56:22Z</time>
      </trkpt>
      <trkpt lat="43.49892" lon="6.62246">
        <ele>54.3</ele>
        <time>2023-11-05T13:56:23Z</time>
      </trkpt>
      <trkpt lat="43.49892" lon="6.62245">
        <ele>54.5</ele>
        <time>2023-11-05T13:56:24Z</time>
      </trkpt>
      <trkpt lat="43.49893" lon="6.62244">
        <ele>54.6</ele>
        <time>2023-11-05T13:56:25Z</time>
      </trkpt>
      <trkpt lat="43.49894" lon="6.62244">
        <ele>54.7</ele>
        <time>2023-11-05T13:56:26Z</time>
      </trkpt>
      <trkpt lat="43.49895" lon="6.62243">
        <ele>54.8</ele>
        <time>2023-11-05T13:56:27Z</time>
      </trkpt>
      <trkpt lat="43.49896" lon="6.62242">
        <ele>54.8</ele>
        <time>2023-11-05T13:56:28Z</time>
      </trkpt>
      <trkpt lat="43.49897" lon="6.62241">
        <ele>54.8</ele>
        <time>2023-11-05T13:56:29Z</time>
      </trkpt>
      <trkpt lat="43.49897" lon="6.6224">
        <ele>54.9</ele>
        <time>2023-11-05T13:56:30Z</time>
      </trkpt>
      <trkpt lat="43.49898" lon="6.62239">
        <ele>55.1</ele>
        <time>2023-11-05T13:56:31Z</time>
      </trkpt>
      <trkpt lat="43.49899" lon="6.62238">
        <ele>55.2</ele>
        <time>2023-11-05T13:56:32Z</time>
      </trkpt>
      <trkpt lat="43.499" lon="6.62237">
        <ele>55.4</ele>
        <time>2023-11-05T13:56:33Z</time>
      </trkpt>
      <trkpt lat="43.49901" lon="6.62236">
        <ele>55.6</ele>
        <time>2023-11-05T13:56:34Z</time>
      </trkpt>
      <trkpt lat="43.49902" lon="6.62234">
        <ele>55.7</ele>
        <time>2023-11-05T13:56:35Z</time>
      </trkpt>
      <trkpt lat="43.49902" lon="6.62234">
        <ele>55.7</ele>
        <time>2023-11-05T13:56:36Z</time>
      </trkpt>
      <trkpt lat="43.49903" lon="6.62233">
        <ele>55.8</ele>
        <time>2023-11-05T13:56:37Z</time>
      </trkpt>
      <trkpt lat="43.49904" lon="6.62232">
        <ele>55.8</ele>
        <time>2023-11-05T13:56:38Z</time>
      </trkpt>
      <trkpt lat="43.49904" lon="6.62231">
        <ele>56.1</ele>
        <time>2023-11-05T13:56:39Z</time>
      </trkpt>
      <trkpt lat="43.49905" lon="6.6223">
        <ele>56.3</ele>
        <time>2023-11-05T13:56:40Z</time>
      </trkpt>
      <trkpt lat="43.49906" lon="6.62228">
        <ele>56.4</ele>
        <time>2023-11-05T13:56:41Z</time>
      </trkpt>
      <trkpt lat="43.49906" lon="6.62227">
        <ele>56.5</ele>
        <time>2023-11-05T13:56:42Z</time>
      </trkpt>
      <trkpt lat="43.49907" lon="6.62226">
        <ele>56.6</ele>
        <time>2023-11-05T13:56:43Z</time>
      </trkpt>
      <trkpt lat="43.49908" lon="6.62225">
        <ele>56.7</ele>
        <time>2023-11-05T13:56:44Z</time>
      </trkpt>
      <trkpt lat="43.49908" lon="6.62223">
        <ele>56.8</ele>
        <time>2023-11-05T13:56:45Z</time>
      </trkpt>
      <trkpt lat="43.49909" lon="6.62222">
        <ele>56.8</ele>
        <time>2023-11-05T13:56:46Z</time>
      </trkpt>
      <trkpt lat="43.49909" lon="6.62221">
        <ele>56.9</ele>
        <time>2023-11-05T13:56:47Z</time>
      </trkpt>
      <trkpt lat="43.4991" lon="6.6222">
        <ele>56.9</ele>
        <time>2023-11-05T13:56:48Z</time>
      </trkpt>
      <trkpt lat="43.49911" lon="6.62219">
        <ele>57</ele>
        <time>2023-11-05T13:56:49Z</time>
      </trkpt>
      <trkpt lat="43.49912" lon="6.62218">
        <ele>57.1</ele>
        <time>2023-11-05T13:56:50Z</time>
      </trkpt>
      <trkpt lat="43.49912" lon="6.62216">
        <ele>57.3</ele>
        <time>2023-11-05T13:56:51Z</time>
      </trkpt>
      <trkpt lat="43.49913" lon="6.62215">
        <ele>57.4</ele>
        <time>2023-11-05T13:56:52Z</time>
      </trkpt>
      <trkpt lat="43.49914" lon="6.62214">
        <ele>57.5</ele>
        <time>2023-11-05T13:56:53Z</time>
      </trkpt>
      <trkpt lat="43.49915" lon="6.62213">
        <ele>57.7</ele>
        <time>2023-11-05T13:56:54Z</time>
      </trkpt>
      <trkpt lat="43.49916" lon="6.62211">
        <ele>57.8</ele>
        <time>2023-11-05T13:56:55Z</time>
      </trkpt>
      <trkpt lat="43.49916" lon="6.6221">
        <ele>58</ele>
        <time>2023-11-05T13:56:56Z</time>
      </trkpt>
      <trkpt lat="43.49917" lon="6.62208">
        <ele>58.2</ele>
        <time>2023-11-05T13:56:57Z</time>
      </trkpt>
      <trkpt lat="43.49917" lon="6.62207">
        <ele>58.3</ele>
        <time>2023-11-05T13:56:58Z</time>
      </trkpt>
      <trkpt lat="43.49918" lon="6.62206">
        <ele>58.5</ele>
        <time>2023-11-05T13:56:59Z</time>
      </trkpt>
      <trkpt lat="43.49919" lon="6.62204">
        <ele>58.5</ele>
        <time>2023-11-05T13:57:00Z</time>
      </trkpt>
      <trkpt lat="43.49919" lon="6.62203">
        <ele>58.6</ele>
        <time>2023-11-05T13:57:01Z</time>
      </trkpt>
      <trkpt lat="43.4992" lon="6.62202">
        <ele>58.7</ele>
        <time>2023-11-05T13:57:02Z</time>
      </trkpt>
      <trkpt lat="43.49921" lon="6.62201">
        <ele>58.8</ele>
        <time>2023-11-05T13:57:03Z</time>
      </trkpt>
      <trkpt lat="43.49921" lon="6.62199">
        <ele>58.9</ele>
        <time>2023-11-05T13:57:04Z</time>
      </trkpt>
      <trkpt lat="43.49922" lon="6.62198">
        <ele>58.9</ele>
        <time>2023-11-05T13:57:05Z</time>
      </trkpt>
      <trkpt lat="43.49923" lon="6.62197">
        <ele>59</ele>
        <time>2023-11-05T13:57:06Z</time>
      </trkpt>
      <trkpt lat="43.49924" lon="6.62195">
        <ele>59</ele>
        <time>2023-11-05T13:57:07Z</time>
      </trkpt>
      <trkpt lat="43.49924" lon="6.62193">
        <ele>59</ele>
        <time>2023-11-05T13:57:08Z</time>
      </trkpt>
      <trkpt lat="43.49925" lon="6.62192">
        <ele>59</ele>
        <time>2023-11-05T13:57:09Z</time>
      </trkpt>
      <trkpt lat="43.49925" lon="6.62191">
        <ele>59.1</ele>
        <time>2023-11-05T13:57:10Z</time>
      </trkpt>
      <trkpt lat="43.49925" lon="6.6219">
        <ele>59.1</ele>
        <time>2023-11-05T13:57:11Z</time>
      </trkpt>
      <trkpt lat="43.49926" lon="6.62188">
        <ele>59.2</ele>
        <time>2023-11-05T13:57:12Z</time>
      </trkpt>
      <trkpt lat="43.49927" lon="6.62187">
        <ele>59.3</ele>
        <time>2023-11-05T13:57:13Z</time>
      </trkpt>
      <trkpt lat="43.49928" lon="6.62186">
        <ele>59.4</ele>
        <time>2023-11-05T13:57:14Z</time>
      </trkpt>
      <trkpt lat="43.49928" lon="6.62184">
        <ele>59.6</ele>
        <time>2023-11-05T13:57:15Z</time>
      </trkpt>
      <trkpt lat="43.49929" lon="6.62183">
        <ele>59.8</ele>
        <time>2023-11-05T13:57:16Z</time>
      </trkpt>
      <trkpt lat="43.49929" lon="6.62182">
        <ele>60</ele>
        <time>2023-11-05T13:57:17Z</time>
      </trkpt>
      <trkpt lat="43.4993" lon="6.6218">
        <ele>60.2</ele>
        <time>2023-11-05T13:57:18Z</time>
      </trkpt>
      <trkpt lat="43.4993" lon="6.62179">
        <ele>60.4</ele>
        <time>2023-11-05T13:57:19Z</time>
      </trkpt>
      <trkpt lat="43.49931" lon="6.62178">
        <ele>60.6</ele>
        <time>2023-11-05T13:57:20Z</time>
      </trkpt>
      <trkpt lat="43.49931" lon="6.62177">
        <ele>60.7</ele>
        <time>2023-11-05T13:57:21Z</time>
      </trkpt>
      <trkpt lat="43.49931" lon="6.62175">
        <ele>60.9</ele>
        <time>2023-11-05T13:57:22Z</time>
      </trkpt>
      <trkpt lat="43.49932" lon="6.62174">
        <ele>61</ele>
        <time>2023-11-05T13:57:23Z</time>
      </trkpt>
      <trkpt lat="43.49932" lon="6.62173">
        <ele>61</ele>
        <time>2023-11-05T13:57:24Z</time>
      </trkpt>
      <trkpt lat="43.49933" lon="6.62171">
        <ele>61.1</ele>
        <time>2023-11-05T13:57:25Z</time>
      </trkpt>
      <trkpt lat="43.49933" lon="6.62169">
        <ele>61.2</ele>
        <time>2023-11-05T13:57:26Z</time>
      </trkpt>
      <trkpt lat="43.49933" lon="6.62168">
        <ele>61.3</ele>
        <time>2023-11-05T13:57:27Z</time>
      </trkpt>
      <trkpt lat="43.49934" lon="6.62167">
        <ele>61.4</ele>
        <time>2023-11-05T13:57:28Z</time>
      </trkpt>
      <trkpt lat="43.49934" lon="6.62165">
        <ele>61.5</ele>
        <time>2023-11-05T13:57:29Z</time>
      </trkpt>
      <trkpt lat="43.49935" lon="6.62163">
        <ele>61.6</ele>
        <time>2023-11-05T13:57:30Z</time>
      </trkpt>
      <trkpt lat="43.49935" lon="6.62162">
        <ele>61.7</ele>
        <time>2023-11-05T13:57:31Z</time>
      </trkpt>
      <trkpt lat="43.49936" lon="6.6216">
        <ele>61.8</ele>
        <time>2023-11-05T13:57:32Z</time>
      </trkpt>
      <trkpt lat="43.49937" lon="6.62159">
        <ele>61.9</ele>
        <time>2023-11-05T13:57:33Z</time>
      </trkpt>
      <trkpt lat="43.49937" lon="6.62157">
        <ele>61.9</ele>
        <time>2023-11-05T13:57:34Z</time>
      </trkpt>
      <trkpt lat="43.49938" lon="6.62156">
        <ele>62</ele>
        <time>2023-11-05T13:57:35Z</time>
      </trkpt>
      <trkpt lat="43.49938" lon="6.62155">
        <ele>62.1</ele>
        <time>2023-11-05T13:57:36Z</time>
      </trkpt>
      <trkpt lat="43.49938" lon="6.62153">
        <ele>62.2</ele>
        <time>2023-11-05T13:57:37Z</time>
      </trkpt>
      <trkpt lat="43.49938" lon="6.62151">
        <ele>62.3</ele>
        <time>2023-11-05T13:57:38Z</time>
      </trkpt>
      <trkpt lat="43.49939" lon="6.6215">
        <ele>62.4</ele>
        <time>2023-11-05T13:57:39Z</time>
      </trkpt>
      <trkpt lat="43.49939" lon="6.62148">
        <ele>62.5</ele>
        <time>2023-11-05T13:57:40Z</time>
      </trkpt>
      <trkpt lat="43.49939" lon="6.62146">
        <ele>62.8</ele>
        <time>2023-11-05T13:57:41Z</time>
      </trkpt>
      <trkpt lat="43.49939" lon="6.62145">
        <ele>62.8</ele>
        <time>2023-11-05T13:57:42Z</time>
      </trkpt>
      <trkpt lat="43.49939" lon="6.62143">
        <ele>62.8</ele>
        <time>2023-11-05T13:57:43Z</time>
      </trkpt>
      <trkpt lat="43.49939" lon="6.62141">
        <ele>62.9</ele>
        <time>2023-11-05T13:57:44Z</time>
      </trkpt>
      <trkpt lat="43.49939" lon="6.6214">
        <ele>62.9</ele>
        <time>2023-11-05T13:57:45Z</time>
      </trkpt>
      <trkpt lat="43.49939" lon="6.62138">
        <ele>63</ele>
        <time>2023-11-05T13:57:46Z</time>
      </trkpt>
      <trkpt lat="43.49939" lon="6.62137">
        <ele>63</ele>
        <time>2023-11-05T13:57:47Z</time>
      </trkpt>
      <trkpt lat="43.49939" lon="6.62135">
        <ele>63.1</ele>
        <time>2023-11-05T13:57:48Z</time>
      </trkpt>
      <trkpt lat="43.49938" lon="6.62134">
        <ele>63.1</ele>
        <time>2023-11-05T13:57:49Z</time>
      </trkpt>
      <trkpt lat="43.49938" lon="6.62133">
        <ele>63.2</ele>
        <time>2023-11-05T13:57:50Z</time>
      </trkpt>
      <trkpt lat="43.49939" lon="6.62132">
        <ele>63.2</ele>
        <time>2023-11-05T13:57:51Z</time>
      </trkpt>
      <trkpt lat="43.49938" lon="6.6213">
        <ele>63.2</ele>
        <time>2023-11-05T13:57:52Z</time>
      </trkpt>
      <trkpt lat="43.49938" lon="6.62128">
        <ele>63.2</ele>
        <time>2023-11-05T13:57:53Z</time>
      </trkpt>
      <trkpt lat="43.49938" lon="6.62126">
        <ele>63.2</ele>
        <time>2023-11-05T13:57:54Z</time>
      </trkpt>
      <trkpt lat="43.49938" lon="6.62125">
        <ele>63.4</ele>
        <time>2023-11-05T13:57:55Z</time>
      </trkpt>
      <trkpt lat="43.49938" lon="6.62123">
        <ele>63.4</ele>
        <time>2023-11-05T13:57:56Z</time>
      </trkpt>
      <trkpt lat="43.49938" lon="6.62121">
        <ele>63.4</ele>
        <time>2023-11-05T13:57:57Z</time>
      </trkpt>
      <trkpt lat="43.49938" lon="6.6212">
        <ele>63.5</ele>
        <time>2023-11-05T13:57:58Z</time>
      </trkpt>
      <trkpt lat="43.49938" lon="6.62118">
        <ele>63.5</ele>
        <time>2023-11-05T13:57:59Z</time>
      </trkpt>
      <trkpt lat="43.49938" lon="6.62117">
        <ele>63.5</ele>
        <time>2023-11-05T13:58:00Z</time>
      </trkpt>
      <trkpt lat="43.49939" lon="6.62115">
        <ele>63.6</ele>
        <time>2023-11-05T13:58:01Z</time>
      </trkpt>
      <trkpt lat="43.49939" lon="6.62113">
        <ele>63.6</ele>
        <time>2023-11-05T13:58:02Z</time>
      </trkpt>
      <trkpt lat="43.49939" lon="6.62111">
        <ele>63.8</ele>
        <time>2023-11-05T13:58:03Z</time>
      </trkpt>
      <trkpt lat="43.49939" lon="6.6211">
        <ele>63.8</ele>
        <time>2023-11-05T13:58:04Z</time>
      </trkpt>
      <trkpt lat="43.49939" lon="6.62108">
        <ele>63.9</ele>
        <time>2023-11-05T13:58:05Z</time>
      </trkpt>
      <trkpt lat="43.49939" lon="6.62107">
        <ele>64</ele>
        <time>2023-11-05T13:58:06Z</time>
      </trkpt>
      <trkpt lat="43.49939" lon="6.62105">
        <ele>64</ele>
        <time>2023-11-05T13:58:07Z</time>
      </trkpt>
      <trkpt lat="43.49939" lon="6.62104">
        <ele>64</ele>
        <time>2023-11-05T13:58:08Z</time>
      </trkpt>
      <trkpt lat="43.49939" lon="6.62102">
        <ele>64.1</ele>
        <time>2023-11-05T13:58:09Z</time>
      </trkpt>
      <trkpt lat="43.49939" lon="6.621">
        <ele>64.1</ele>
        <time>2023-11-05T13:58:10Z</time>
      </trkpt>
      <trkpt lat="43.49939" lon="6.62099">
        <ele>64.2</ele>
        <time>2023-11-05T13:58:11Z</time>
      </trkpt>
      <trkpt lat="43.4994" lon="6.62097">
        <ele>64.3</ele>
        <time>2023-11-05T13:58:12Z</time>
      </trkpt>
      <trkpt lat="43.4994" lon="6.62095">
        <ele>64.4</ele>
        <time>2023-11-05T13:58:13Z</time>
      </trkpt>
      <trkpt lat="43.4994" lon="6.62094">
        <ele>64.5</ele>
        <time>2023-11-05T13:58:14Z</time>
      </trkpt>
      <trkpt lat="43.4994" lon="6.62092">
        <ele>64.6</ele>
        <time>2023-11-05T13:58:15Z</time>
      </trkpt>
      <trkpt lat="43.49941" lon="6.6209">
        <ele>64.7</ele>
        <time>2023-11-05T13:58:16Z</time>
      </trkpt>
      <trkpt lat="43.49941" lon="6.62089">
        <ele>64.8</ele>
        <time>2023-11-05T13:58:17Z</time>
      </trkpt>
      <trkpt lat="43.49941" lon="6.62087">
        <ele>64.9</ele>
        <time>2023-11-05T13:58:18Z</time>
      </trkpt>
      <trkpt lat="43.49941" lon="6.62086">
        <ele>64.9</ele>
        <time>2023-11-05T13:58:19Z</time>
      </trkpt>
      <trkpt lat="43.49941" lon="6.62084">
        <ele>65</ele>
        <time>2023-11-05T13:58:20Z</time>
      </trkpt>
      <trkpt lat="43.49941" lon="6.62083">
        <ele>65.2</ele>
        <time>2023-11-05T13:58:21Z</time>
      </trkpt>
      <trkpt lat="43.49941" lon="6.62082">
        <ele>65.3</ele>
        <time>2023-11-05T13:58:22Z</time>
      </trkpt>
      <trkpt lat="43.49941" lon="6.62081">
        <ele>65.4</ele>
        <time>2023-11-05T13:58:23Z</time>
      </trkpt>
      <trkpt lat="43.49941" lon="6.6208">
        <ele>65.4</ele>
        <time>2023-11-05T13:58:24Z</time>
      </trkpt>
      <trkpt lat="43.49941" lon="6.62079">
        <ele>65.4</ele>
        <time>2023-11-05T13:58:25Z</time>
      </trkpt>
      <trkpt lat="43.49941" lon="6.62079">
        <ele>65.4</ele>
        <time>2023-11-05T13:58:26Z</time>
      </trkpt>
      <trkpt lat="43.49941" lon="6.62079">
        <ele>65.4</ele>
        <time>2023-11-05T13:58:27Z</time>
      </trkpt>
      <trkpt lat="43.49941" lon="6.62079">
        <ele>65.4</ele>
        <time>2023-11-05T13:58:28Z</time>
      </trkpt>
      <trkpt lat="43.49941" lon="6.62079">
        <ele>65.3</ele>
        <time>2023-11-05T13:58:29Z</time>
      </trkpt>
      <trkpt lat="43.49941" lon="6.62079">
        <ele>65.2</ele>
        <time>2023-11-05T13:58:30Z</time>
      </trkpt>
      <trkpt lat="43.49941" lon="6.62078">
        <ele>65.2</ele>
        <time>2023-11-05T13:58:31Z</time>
      </trkpt>
      <trkpt lat="43.49942" lon="6.62078">
        <ele>65.2</ele>
        <time>2023-11-05T13:58:32Z</time>
      </trkpt>
      <trkpt lat="43.49942" lon="6.62078">
        <ele>65.3</ele>
        <time>2023-11-05T13:58:33Z</time>
      </trkpt>
      <trkpt lat="43.49942" lon="6.62077">
        <ele>65.4</ele>
        <time>2023-11-05T13:58:34Z</time>
      </trkpt>
      <trkpt lat="43.49942" lon="6.62076">
        <ele>65.5</ele>
        <time>2023-11-05T13:58:35Z</time>
      </trkpt>
      <trkpt lat="43.49942" lon="6.62075">
        <ele>65.6</ele>
        <time>2023-11-05T13:58:36Z</time>
      </trkpt>
      <trkpt lat="43.49942" lon="6.62075">
        <ele>65.6</ele>
        <time>2023-11-05T13:58:37Z</time>
      </trkpt>
      <trkpt lat="43.49942" lon="6.62075">
        <ele>65.7</ele>
        <time>2023-11-05T13:58:38Z</time>
      </trkpt>
      <trkpt lat="43.49942" lon="6.62075">
        <ele>65.8</ele>
        <time>2023-11-05T13:58:39Z</time>
      </trkpt>
      <trkpt lat="43.49942" lon="6.62075">
        <ele>65.8</ele>
        <time>2023-11-05T13:58:40Z</time>
      </trkpt>
      <trkpt lat="43.49942" lon="6.62075">
        <ele>65.9</ele>
        <time>2023-11-05T13:58:41Z</time>
      </trkpt>
      <trkpt lat="43.49942" lon="6.62075">
        <ele>66</ele>
        <time>2023-11-05T13:58:42Z</time>
      </trkpt>
      <trkpt lat="43.49942" lon="6.62075">
        <ele>66</ele>
        <time>2023-11-05T13:58:43Z</time>
      </trkpt>
      <trkpt lat="43.49942" lon="6.62075">
        <ele>66</ele>
        <time>2023-11-05T13:58:44Z</time>
      </trkpt>
      <trkpt lat="43.49942" lon="6.62075">
        <ele>66.2</ele>
        <time>2023-11-05T13:58:45Z</time>
      </trkpt>
      <trkpt lat="43.49942" lon="6.62075">
        <ele>66.4</ele>
        <time>2023-11-05T13:58:46Z</time>
      </trkpt>
      <trkpt lat="43.49942" lon="6.62075">
        <ele>66.6</ele>
        <time>2023-11-05T13:58:47Z</time>
      </trkpt>
      <trkpt lat="43.49942" lon="6.62075">
        <ele>66.6</ele>
        <time>2023-11-05T13:58:48Z</time>
      </trkpt>
      <trkpt lat="43.49942" lon="6.62075">
        <ele>66.6</ele>
        <time>2023-11-05T13:58:49Z</time>
      </trkpt>
      <trkpt lat="43.49942" lon="6.62075">
        <ele>66.6</ele>
        <time>2023-11-05T13:58:50Z</time>
      </trkpt>
      <trkpt lat="43.49942" lon="6.62075">
        <ele>66.6</ele>
        <time>2023-11-05T13:58:51Z</time>
      </trkpt>
      <trkpt lat="43.49942" lon="6.62075">
        <ele>66.5</ele>
        <time>2023-11-05T13:58:52Z</time>
      </trkpt>
      <trkpt lat="43.49942" lon="6.62075">
        <ele>66.4</ele>
        <time>2023-11-05T13:58:53Z</time>
      </trkpt>
      <trkpt lat="43.49942" lon="6.62075">
        <ele>66.3</ele>
        <time>2023-11-05T13:58:54Z</time>
      </trkpt>
      <trkpt lat="43.49942" lon="6.62075">
        <ele>66.2</ele>
        <time>2023-11-05T13:58:55Z</time>
      </trkpt>
      <trkpt lat="43.49942" lon="6.62075">
        <ele>66</ele>
        <time>2023-11-05T13:58:56Z</time>
      </trkpt>
      <trkpt lat="43.49942" lon="6.62075">
        <ele>66</ele>
        <time>2023-11-05T13:58:57Z</time>
      </trkpt>
      <trkpt lat="43.49942" lon="6.62075">
        <ele>66.1</ele>
        <time>2023-11-05T13:58:58Z</time>
      </trkpt>
      <trkpt lat="43.49942" lon="6.62075">
        <ele>66</ele>
        <time>2023-11-05T13:58:59Z</time>
      </trkpt>
      <trkpt lat="43.49941" lon="6.62075">
        <ele>65.9</ele>
        <time>2023-11-05T13:59:00Z</time>
      </trkpt>
      <trkpt lat="43.49941" lon="6.62076">
        <ele>65.8</ele>
        <time>2023-11-05T13:59:01Z</time>
      </trkpt>
      <trkpt lat="43.49941" lon="6.62076">
        <ele>65.8</ele>
        <time>2023-11-05T13:59:02Z</time>
      </trkpt>
      <trkpt lat="43.49941" lon="6.62076">
        <ele>65.7</ele>
        <time>2023-11-05T13:59:03Z</time>
      </trkpt>
      <trkpt lat="43.49941" lon="6.62075">
        <ele>65.8</ele>
        <time>2023-11-05T13:59:04Z</time>
      </trkpt>
      <trkpt lat="43.49941" lon="6.62074">
        <ele>65.7</ele>
        <time>2023-11-05T13:59:05Z</time>
      </trkpt>
      <trkpt lat="43.4994" lon="6.62074">
        <ele>65.7</ele>
        <time>2023-11-05T13:59:06Z</time>
      </trkpt>
      <trkpt lat="43.4994" lon="6.62073">
        <ele>65.8</ele>
        <time>2023-11-05T13:59:07Z</time>
      </trkpt>
      <trkpt lat="43.4994" lon="6.62073">
        <ele>65.8</ele>
        <time>2023-11-05T13:59:08Z</time>
      </trkpt>
      <trkpt lat="43.4994" lon="6.62073">
        <ele>65.9</ele>
        <time>2023-11-05T13:59:09Z</time>
      </trkpt>
      <trkpt lat="43.49941" lon="6.62073">
        <ele>66</ele>
        <time>2023-11-05T13:59:10Z</time>
      </trkpt>
      <trkpt lat="43.49941" lon="6.62073">
        <ele>66.1</ele>
        <time>2023-11-05T13:59:11Z</time>
      </trkpt>
      <trkpt lat="43.49941" lon="6.62073">
        <ele>66.1</ele>
        <time>2023-11-05T13:59:12Z</time>
      </trkpt>
      <trkpt lat="43.49941" lon="6.62073">
        <ele>66</ele>
        <time>2023-11-05T13:59:13Z</time>
      </trkpt>
      <trkpt lat="43.49941" lon="6.62073">
        <ele>66.1</ele>
        <time>2023-11-05T13:59:14Z</time>
      </trkpt>
      <trkpt lat="43.49941" lon="6.62073">
        <ele>66.2</ele>
        <time>2023-11-05T13:59:15Z</time>
      </trkpt>
      <trkpt lat="43.49941" lon="6.62073">
        <ele>66.4</ele>
        <time>2023-11-05T13:59:16Z</time>
      </trkpt>
      <trkpt lat="43.49941" lon="6.62073">
        <ele>66.5</ele>
        <time>2023-11-05T13:59:17Z</time>
      </trkpt>
      <trkpt lat="43.49941" lon="6.62073">
        <ele>66.5</ele>
        <time>2023-11-05T13:59:18Z</time>
      </trkpt>
      <trkpt lat="43.49941" lon="6.62073">
        <ele>66.5</ele>
        <time>2023-11-05T13:59:19Z</time>
      </trkpt>
      <trkpt lat="43.49941" lon="6.62073">
        <ele>66.5</ele>
        <time>2023-11-05T13:59:20Z</time>
      </trkpt>
      <trkpt lat="43.49941" lon="6.62073">
        <ele>66.4</ele>
        <time>2023-11-05T13:59:21Z</time>
      </trkpt>
      <trkpt lat="43.49941" lon="6.62072">
        <ele>66.3</ele>
        <time>2023-11-05T13:59:22Z</time>
      </trkpt>
      <trkpt lat="43.49941" lon="6.62072">
        <ele>66.1</ele>
        <time>2023-11-05T13:59:23Z</time>
      </trkpt>
      <trkpt lat="43.49941" lon="6.62071">
        <ele>66.3</ele>
        <time>2023-11-05T13:59:24Z</time>
      </trkpt>
      <trkpt lat="43.49941" lon="6.6207">
        <ele>66.2</ele>
        <time>2023-11-05T13:59:25Z</time>
      </trkpt>
      <trkpt lat="43.49942" lon="6.6207">
        <ele>66.3</ele>
        <time>2023-11-05T13:59:26Z</time>
      </trkpt>
      <trkpt lat="43.49942" lon="6.62069">
        <ele>66.3</ele>
        <time>2023-11-05T13:59:27Z</time>
      </trkpt>
      <trkpt lat="43.49943" lon="6.62069">
        <ele>66.2</ele>
        <time>2023-11-05T13:59:28Z</time>
      </trkpt>
      <trkpt lat="43.49943" lon="6.62068">
        <ele>66.2</ele>
        <time>2023-11-05T13:59:29Z</time>
      </trkpt>
      <trkpt lat="43.49944" lon="6.62067">
        <ele>66.2</ele>
        <time>2023-11-05T13:59:30Z</time>
      </trkpt>
      <trkpt lat="43.49945" lon="6.62067">
        <ele>66.1</ele>
        <time>2023-11-05T13:59:31Z</time>
      </trkpt>
      <trkpt lat="43.49946" lon="6.62066">
        <ele>66.1</ele>
        <time>2023-11-05T13:59:32Z</time>
      </trkpt>
      <trkpt lat="43.49947" lon="6.62065">
        <ele>66</ele>
        <time>2023-11-05T13:59:33Z</time>
      </trkpt>
      <trkpt lat="43.49947" lon="6.62064">
        <ele>66.1</ele>
        <time>2023-11-05T13:59:34Z</time>
      </trkpt>
      <trkpt lat="43.49948" lon="6.62063">
        <ele>66.2</ele>
        <time>2023-11-05T13:59:35Z</time>
      </trkpt>
      <trkpt lat="43.49948" lon="6.62062">
        <ele>66.3</ele>
        <time>2023-11-05T13:59:36Z</time>
      </trkpt>
      <trkpt lat="43.49948" lon="6.62062">
        <ele>66.4</ele>
        <time>2023-11-05T13:59:37Z</time>
      </trkpt>
      <trkpt lat="43.49949" lon="6.62061">
        <ele>66.4</ele>
        <time>2023-11-05T13:59:38Z</time>
      </trkpt>
      <trkpt lat="43.4995" lon="6.6206">
        <ele>66.4</ele>
        <time>2023-11-05T13:59:39Z</time>
      </trkpt>
      <trkpt lat="43.4995" lon="6.62059">
        <ele>66.4</ele>
        <time>2023-11-05T13:59:40Z</time>
      </trkpt>
      <trkpt lat="43.49951" lon="6.62058">
        <ele>66.5</ele>
        <time>2023-11-05T13:59:41Z</time>
      </trkpt>
      <trkpt lat="43.49951" lon="6.62057">
        <ele>66.7</ele>
        <time>2023-11-05T13:59:42Z</time>
      </trkpt>
      <trkpt lat="43.49952" lon="6.62056">
        <ele>66.8</ele>
        <time>2023-11-05T13:59:43Z</time>
      </trkpt>
      <trkpt lat="43.49953" lon="6.62055">
        <ele>66.9</ele>
        <time>2023-11-05T13:59:44Z</time>
      </trkpt>
      <trkpt lat="43.49953" lon="6.62054">
        <ele>66.9</ele>
        <time>2023-11-05T13:59:45Z</time>
      </trkpt>
      <trkpt lat="43.49954" lon="6.62053">
        <ele>66.9</ele>
        <time>2023-11-05T13:59:46Z</time>
      </trkpt>
      <trkpt lat="43.49955" lon="6.62052">
        <ele>67</ele>
        <time>2023-11-05T13:59:47Z</time>
      </trkpt>
      <trkpt lat="43.49956" lon="6.62051">
        <ele>67.1</ele>
        <time>2023-11-05T13:59:48Z</time>
      </trkpt>
      <trkpt lat="43.49956" lon="6.62049">
        <ele>67.2</ele>
        <time>2023-11-05T13:59:49Z</time>
      </trkpt>
      <trkpt lat="43.49957" lon="6.62048">
        <ele>67.2</ele>
        <time>2023-11-05T13:59:50Z</time>
      </trkpt>
      <trkpt lat="43.49957" lon="6.62047">
        <ele>67.1</ele>
        <time>2023-11-05T13:59:51Z</time>
      </trkpt>
      <trkpt lat="43.49957" lon="6.62046">
        <ele>67.1</ele>
        <time>2023-11-05T13:59:52Z</time>
      </trkpt>
      <trkpt lat="43.49957" lon="6.62045">
        <ele>67.1</ele>
        <time>2023-11-05T13:59:53Z</time>
      </trkpt>
      <trkpt lat="43.49959" lon="6.62044">
        <ele>67.1</ele>
        <time>2023-11-05T13:59:54Z</time>
      </trkpt>
      <trkpt lat="43.49959" lon="6.62043">
        <ele>67.1</ele>
        <time>2023-11-05T13:59:55Z</time>
      </trkpt>
      <trkpt lat="43.4996" lon="6.62042">
        <ele>67.1</ele>
        <time>2023-11-05T13:59:56Z</time>
      </trkpt>
      <trkpt lat="43.49961" lon="6.62041">
        <ele>67.1</ele>
        <time>2023-11-05T13:59:57Z</time>
      </trkpt>
      <trkpt lat="43.49962" lon="6.62039">
        <ele>67.2</ele>
        <time>2023-11-05T13:59:58Z</time>
      </trkpt>
      <trkpt lat="43.49962" lon="6.62038">
        <ele>67.2</ele>
        <time>2023-11-05T13:59:59Z</time>
      </trkpt>
      <trkpt lat="43.49963" lon="6.62037">
        <ele>67.3</ele>
        <time>2023-11-05T14:00:00Z</time>
      </trkpt>
      <trkpt lat="43.49964" lon="6.62036">
        <ele>67.4</ele>
        <time>2023-11-05T14:00:01Z</time>
      </trkpt>
      <trkpt lat="43.49965" lon="6.62035">
        <ele>67.5</ele>
        <time>2023-11-05T14:00:02Z</time>
      </trkpt>
      <trkpt lat="43.49965" lon="6.62034">
        <ele>67.6</ele>
        <time>2023-11-05T14:00:03Z</time>
      </trkpt>
      <trkpt lat="43.49966" lon="6.62033">
        <ele>67.7</ele>
        <time>2023-11-05T14:00:04Z</time>
      </trkpt>
      <trkpt lat="43.49967" lon="6.62032">
        <ele>67.8</ele>
        <time>2023-11-05T14:00:05Z</time>
      </trkpt>
      <trkpt lat="43.49968" lon="6.62031">
        <ele>67.8</ele>
        <time>2023-11-05T14:00:06Z</time>
      </trkpt>
      <trkpt lat="43.49968" lon="6.6203">
        <ele>67.8</ele>
        <time>2023-11-05T14:00:07Z</time>
      </trkpt>
      <trkpt lat="43.49969" lon="6.62029">
        <ele>67.7</ele>
        <time>2023-11-05T14:00:08Z</time>
      </trkpt>
      <trkpt lat="43.4997" lon="6.62028">
        <ele>67.7</ele>
        <time>2023-11-05T14:00:09Z</time>
      </trkpt>
      <trkpt lat="43.49971" lon="6.62027">
        <ele>67.7</ele>
        <time>2023-11-05T14:00:10Z</time>
      </trkpt>
      <trkpt lat="43.49972" lon="6.62027">
        <ele>67.7</ele>
        <time>2023-11-05T14:00:11Z</time>
      </trkpt>
      <trkpt lat="43.49973" lon="6.62026">
        <ele>67.7</ele>
        <time>2023-11-05T14:00:12Z</time>
      </trkpt>
      <trkpt lat="43.49974" lon="6.62026">
        <ele>67.8</ele>
        <time>2023-11-05T14:00:13Z</time>
      </trkpt>
      <trkpt lat="43.49975" lon="6.62025">
        <ele>67.8</ele>
        <time>2023-11-05T14:00:14Z</time>
      </trkpt>
      <trkpt lat="43.49975" lon="6.62024">
        <ele>67.8</ele>
        <time>2023-11-05T14:00:15Z</time>
      </trkpt>
      <trkpt lat="43.49976" lon="6.62024">
        <ele>67.6</ele>
        <time>2023-11-05T14:00:16Z</time>
      </trkpt>
      <trkpt lat="43.49977" lon="6.62023">
        <ele>67.5</ele>
        <time>2023-11-05T14:00:17Z</time>
      </trkpt>
      <trkpt lat="43.49978" lon="6.62022">
        <ele>67.4</ele>
        <time>2023-11-05T14:00:18Z</time>
      </trkpt>
      <trkpt lat="43.49979" lon="6.62021">
        <ele>67.5</ele>
        <time>2023-11-05T14:00:19Z</time>
      </trkpt>
      <trkpt lat="43.49979" lon="6.62021">
        <ele>67.6</ele>
        <time>2023-11-05T14:00:20Z</time>
      </trkpt>
      <trkpt lat="43.49981" lon="6.6202">
        <ele>67.7</ele>
        <time>2023-11-05T14:00:21Z</time>
      </trkpt>
      <trkpt lat="43.49982" lon="6.62019">
        <ele>67.7</ele>
        <time>2023-11-05T14:00:22Z</time>
      </trkpt>
      <trkpt lat="43.49982" lon="6.62019">
        <ele>67.8</ele>
        <time>2023-11-05T14:00:23Z</time>
      </trkpt>
      <trkpt lat="43.49983" lon="6.62018">
        <ele>67.7</ele>
        <time>2023-11-05T14:00:24Z</time>
      </trkpt>
      <trkpt lat="43.49984" lon="6.62017">
        <ele>67.7</ele>
        <time>2023-11-05T14:00:25Z</time>
      </trkpt>
      <trkpt lat="43.49985" lon="6.62016">
        <ele>67.7</ele>
        <time>2023-11-05T14:00:26Z</time>
      </trkpt>
      <trkpt lat="43.49986" lon="6.62016">
        <ele>67.6</ele>
        <time>2023-11-05T14:00:27Z</time>
      </trkpt>
      <trkpt lat="43.49987" lon="6.62015">
        <ele>67.6</ele>
        <time>2023-11-05T14:00:28Z</time>
      </trkpt>
      <trkpt lat="43.49988" lon="6.62014">
        <ele>67.6</ele>
        <time>2023-11-05T14:00:29Z</time>
      </trkpt>
      <trkpt lat="43.49989" lon="6.62014">
        <ele>67.6</ele>
        <time>2023-11-05T14:00:30Z</time>
      </trkpt>
      <trkpt lat="43.4999" lon="6.62013">
        <ele>67.5</ele>
        <time>2023-11-05T14:00:31Z</time>
      </trkpt>
      <trkpt lat="43.49991" lon="6.62012">
        <ele>67.5</ele>
        <time>2023-11-05T14:00:32Z</time>
      </trkpt>
      <trkpt lat="43.49991" lon="6.62011">
        <ele>67.4</ele>
        <time>2023-11-05T14:00:33Z</time>
      </trkpt>
      <trkpt lat="43.49992" lon="6.62011">
        <ele>67.4</ele>
        <time>2023-11-05T14:00:34Z</time>
      </trkpt>
      <trkpt lat="43.49993" lon="6.6201">
        <ele>67.4</ele>
        <time>2023-11-05T14:00:35Z</time>
      </trkpt>
      <trkpt lat="43.49994" lon="6.62009">
        <ele>67.3</ele>
        <time>2023-11-05T14:00:36Z</time>
      </trkpt>
      <trkpt lat="43.49995" lon="6.62009">
        <ele>67.3</ele>
        <time>2023-11-05T14:00:37Z</time>
      </trkpt>
      <trkpt lat="43.49996" lon="6.62008">
        <ele>67.3</ele>
        <time>2023-11-05T14:00:38Z</time>
      </trkpt>
      <trkpt lat="43.49997" lon="6.62008">
        <ele>67.3</ele>
        <time>2023-11-05T14:00:39Z</time>
      </trkpt>
      <trkpt lat="43.49998" lon="6.62007">
        <ele>67.3</ele>
        <time>2023-11-05T14:00:40Z</time>
      </trkpt>
      <trkpt lat="43.49999" lon="6.62007">
        <ele>67.3</ele>
        <time>2023-11-05T14:00:41Z</time>
      </trkpt>
      <trkpt lat="43.5" lon="6.62006">
        <ele>67.3</ele>
        <time>2023-11-05T14:00:42Z</time>
      </trkpt>
      <trkpt lat="43.50001" lon="6.62006">
        <ele>67.3</ele>
        <time>2023-11-05T14:00:43Z</time>
      </trkpt>
      <trkpt lat="43.50002" lon="6.62005">
        <ele>67.2</ele>
        <time>2023-11-05T14:00:44Z</time>
      </trkpt>
      <trkpt lat="43.50003" lon="6.62004">
        <ele>67.3</ele>
        <time>2023-11-05T14:00:45Z</time>
      </trkpt>
      <trkpt lat="43.50004" lon="6.62003">
        <ele>67.4</ele>
        <time>2023-11-05T14:00:46Z</time>
      </trkpt>
      <trkpt lat="43.50005" lon="6.62002">
        <ele>67.5</ele>
        <time>2023-11-05T14:00:47Z</time>
      </trkpt>
      <trkpt lat="43.50006" lon="6.62002">
        <ele>67.5</ele>
        <time>2023-11-05T14:00:48Z</time>
      </trkpt>
      <trkpt lat="43.50007" lon="6.62002">
        <ele>67.5</ele>
        <time>2023-11-05T14:00:49Z</time>
      </trkpt>
      <trkpt lat="43.50008" lon="6.62001">
        <ele>67.6</ele>
        <time>2023-11-05T14:00:50Z</time>
      </trkpt>
      <trkpt lat="43.50009" lon="6.62">
        <ele>67.5</ele>
        <time>2023-11-05T14:00:51Z</time>
      </trkpt>
      <trkpt lat="43.5001" lon="6.61999">
        <ele>67.5</ele>
        <time>2023-11-05T14:00:52Z</time>
      </trkpt>
      <trkpt lat="43.50011" lon="6.61998">
        <ele>67.5</ele>
        <time>2023-11-05T14:00:53Z</time>
      </trkpt>
      <trkpt lat="43.50012" lon="6.61998">
        <ele>67.4</ele>
        <time>2023-11-05T14:00:54Z</time>
      </trkpt>
      <trkpt lat="43.50013" lon="6.61997">
        <ele>67.2</ele>
        <time>2023-11-05T14:00:55Z</time>
      </trkpt>
      <trkpt lat="43.50015" lon="6.61997">
        <ele>67.1</ele>
        <time>2023-11-05T14:00:56Z</time>
      </trkpt>
      <trkpt lat="43.50016" lon="6.61996">
        <ele>67</ele>
        <time>2023-11-05T14:00:57Z</time>
      </trkpt>
      <trkpt lat="43.50017" lon="6.61995">
        <ele>67</ele>
        <time>2023-11-05T14:00:58Z</time>
      </trkpt>
      <trkpt lat="43.50018" lon="6.61995">
        <ele>66.9</ele>
        <time>2023-11-05T14:00:59Z</time>
      </trkpt>
      <trkpt lat="43.50019" lon="6.61994">
        <ele>66.9</ele>
        <time>2023-11-05T14:01:00Z</time>
      </trkpt>
      <trkpt lat="43.50019" lon="6.61993">
        <ele>66.9</ele>
        <time>2023-11-05T14:01:01Z</time>
      </trkpt>
      <trkpt lat="43.5002" lon="6.61993">
        <ele>66.9</ele>
        <time>2023-11-05T14:01:02Z</time>
      </trkpt>
      <trkpt lat="43.50022" lon="6.61992">
        <ele>66.9</ele>
        <time>2023-11-05T14:01:03Z</time>
      </trkpt>
      <trkpt lat="43.50023" lon="6.61992">
        <ele>66.8</ele>
        <time>2023-11-05T14:01:04Z</time>
      </trkpt>
      <trkpt lat="43.50023" lon="6.61991">
        <ele>66.8</ele>
        <time>2023-11-05T14:01:05Z</time>
      </trkpt>
      <trkpt lat="43.50024" lon="6.61991">
        <ele>66.7</ele>
        <time>2023-11-05T14:01:06Z</time>
      </trkpt>
      <trkpt lat="43.50025" lon="6.6199">
        <ele>66.6</ele>
        <time>2023-11-05T14:01:07Z</time>
      </trkpt>
      <trkpt lat="43.50026" lon="6.6199">
        <ele>66.6</ele>
        <time>2023-11-05T14:01:08Z</time>
      </trkpt>
      <trkpt lat="43.50027" lon="6.61989">
        <ele>66.5</ele>
        <time>2023-11-05T14:01:09Z</time>
      </trkpt>
      <trkpt lat="43.50029" lon="6.61989">
        <ele>66.5</ele>
        <time>2023-11-05T14:01:10Z</time>
      </trkpt>
      <trkpt lat="43.50029" lon="6.61989">
        <ele>66.4</ele>
        <time>2023-11-05T14:01:11Z</time>
      </trkpt>
      <trkpt lat="43.5003" lon="6.61989">
        <ele>66.3</ele>
        <time>2023-11-05T14:01:12Z</time>
      </trkpt>
      <trkpt lat="43.50031" lon="6.61988">
        <ele>66.3</ele>
        <time>2023-11-05T14:01:13Z</time>
      </trkpt>
      <trkpt lat="43.50032" lon="6.61988">
        <ele>66.1</ele>
        <time>2023-11-05T14:01:14Z</time>
      </trkpt>
      <trkpt lat="43.50033" lon="6.61988">
        <ele>66</ele>
        <time>2023-11-05T14:01:15Z</time>
      </trkpt>
      <trkpt lat="43.50035" lon="6.61988">
        <ele>65.9</ele>
        <time>2023-11-05T14:01:16Z</time>
      </trkpt>
      <trkpt lat="43.50036" lon="6.61987">
        <ele>65.9</ele>
        <time>2023-11-05T14:01:17Z</time>
      </trkpt>
      <trkpt lat="43.50037" lon="6.61987">
        <ele>65.8</ele>
        <time>2023-11-05T14:01:18Z</time>
      </trkpt>
      <trkpt lat="43.50038" lon="6.61987">
        <ele>65.7</ele>
        <time>2023-11-05T14:01:19Z</time>
      </trkpt>
      <trkpt lat="43.50039" lon="6.61986">
        <ele>65.6</ele>
        <time>2023-11-05T14:01:20Z</time>
      </trkpt>
      <trkpt lat="43.5004" lon="6.61986">
        <ele>65.5</ele>
        <time>2023-11-05T14:01:21Z</time>
      </trkpt>
      <trkpt lat="43.50041" lon="6.61986">
        <ele>65.5</ele>
        <time>2023-11-05T14:01:22Z</time>
      </trkpt>
      <trkpt lat="43.50042" lon="6.61986">
        <ele>65.5</ele>
        <time>2023-11-05T14:01:23Z</time>
      </trkpt>
      <trkpt lat="43.50043" lon="6.61986">
        <ele>65.5</ele>
        <time>2023-11-05T14:01:24Z</time>
      </trkpt>
      <trkpt lat="43.50045" lon="6.61986">
        <ele>65.3</ele>
        <time>2023-11-05T14:01:25Z</time>
      </trkpt>
      <trkpt lat="43.50046" lon="6.61986">
        <ele>65.2</ele>
        <time>2023-11-05T14:01:26Z</time>
      </trkpt>
      <trkpt lat="43.50047" lon="6.61986">
        <ele>65</ele>
        <time>2023-11-05T14:01:27Z</time>
      </trkpt>
      <trkpt lat="43.50048" lon="6.61985">
        <ele>64.8</ele>
        <time>2023-11-05T14:01:28Z</time>
      </trkpt>
      <trkpt lat="43.50049" lon="6.61985">
        <ele>64.7</ele>
        <time>2023-11-05T14:01:29Z</time>
      </trkpt>
      <trkpt lat="43.5005" lon="6.61985">
        <ele>64.8</ele>
        <time>2023-11-05T14:01:30Z</time>
      </trkpt>
      <trkpt lat="43.50051" lon="6.61985">
        <ele>64.9</ele>
        <time>2023-11-05T14:01:31Z</time>
      </trkpt>
      <trkpt lat="43.50052" lon="6.61985">
        <ele>64.9</ele>
        <time>2023-11-05T14:01:32Z</time>
      </trkpt>
      <trkpt lat="43.50053" lon="6.61985">
        <ele>65</ele>
        <time>2023-11-05T14:01:33Z</time>
      </trkpt>
      <trkpt lat="43.50054" lon="6.61984">
        <ele>65</ele>
        <time>2023-11-05T14:01:34Z</time>
      </trkpt>
      <trkpt lat="43.50055" lon="6.61984">
        <ele>64.9</ele>
        <time>2023-11-05T14:01:35Z</time>
      </trkpt>
      <trkpt lat="43.50057" lon="6.61984">
        <ele>64.9</ele>
        <time>2023-11-05T14:01:36Z</time>
      </trkpt>
      <trkpt lat="43.50058" lon="6.61984">
        <ele>64.8</ele>
        <time>2023-11-05T14:01:37Z</time>
      </trkpt>
      <trkpt lat="43.50059" lon="6.61984">
        <ele>64.8</ele>
        <time>2023-11-05T14:01:38Z</time>
      </trkpt>
      <trkpt lat="43.5006" lon="6.61984">
        <ele>64.8</ele>
        <time>2023-11-05T14:01:39Z</time>
      </trkpt>
      <trkpt lat="43.50061" lon="6.61984">
        <ele>64.7</ele>
        <time>2023-11-05T14:01:40Z</time>
      </trkpt>
      <trkpt lat="43.50062" lon="6.61984">
        <ele>64.7</ele>
        <time>2023-11-05T14:01:41Z</time>
      </trkpt>
      <trkpt lat="43.50063" lon="6.61984">
        <ele>64.7</ele>
        <time>2023-11-05T14:01:42Z</time>
      </trkpt>
      <trkpt lat="43.50064" lon="6.61984">
        <ele>64.6</ele>
        <time>2023-11-05T14:01:43Z</time>
      </trkpt>
      <trkpt lat="43.50065" lon="6.61983">
        <ele>64.5</ele>
        <time>2023-11-05T14:01:44Z</time>
      </trkpt>
      <trkpt lat="43.50067" lon="6.61983">
        <ele>64.5</ele>
        <time>2023-11-05T14:01:45Z</time>
      </trkpt>
      <trkpt lat="43.50068" lon="6.61983">
        <ele>64.3</ele>
        <time>2023-11-05T14:01:46Z</time>
      </trkpt>
      <trkpt lat="43.50069" lon="6.61984">
        <ele>64.2</ele>
        <time>2023-11-05T14:01:47Z</time>
      </trkpt>
      <trkpt lat="43.5007" lon="6.61984">
        <ele>64.1</ele>
        <time>2023-11-05T14:01:48Z</time>
      </trkpt>
      <trkpt lat="43.50071" lon="6.61984">
        <ele>64.2</ele>
        <time>2023-11-05T14:01:49Z</time>
      </trkpt>
      <trkpt lat="43.50073" lon="6.61984">
        <ele>64.1</ele>
        <time>2023-11-05T14:01:50Z</time>
      </trkpt>
      <trkpt lat="43.50074" lon="6.61984">
        <ele>64.2</ele>
        <time>2023-11-05T14:01:51Z</time>
      </trkpt>
      <trkpt lat="43.50075" lon="6.61984">
        <ele>64.2</ele>
        <time>2023-11-05T14:01:52Z</time>
      </trkpt>
      <trkpt lat="43.50076" lon="6.61984">
        <ele>64.2</ele>
        <time>2023-11-05T14:01:53Z</time>
      </trkpt>
      <trkpt lat="43.50077" lon="6.61984">
        <ele>64.2</ele>
        <time>2023-11-05T14:01:54Z</time>
      </trkpt>
      <trkpt lat="43.50078" lon="6.61984">
        <ele>64.2</ele>
        <time>2023-11-05T14:01:55Z</time>
      </trkpt>
      <trkpt lat="43.50079" lon="6.61985">
        <ele>64.2</ele>
        <time>2023-11-05T14:01:56Z</time>
      </trkpt>
      <trkpt lat="43.5008" lon="6.61985">
        <ele>64.2</ele>
        <time>2023-11-05T14:01:57Z</time>
      </trkpt>
      <trkpt lat="43.50081" lon="6.61985">
        <ele>64.2</ele>
        <time>2023-11-05T14:01:58Z</time>
      </trkpt>
      <trkpt lat="43.50083" lon="6.61985">
        <ele>64.1</ele>
        <time>2023-11-05T14:01:59Z</time>
      </trkpt>
      <trkpt lat="43.50084" lon="6.61985">
        <ele>64</ele>
        <time>2023-11-05T14:02:00Z</time>
      </trkpt>
      <trkpt lat="43.50085" lon="6.61986">
        <ele>63.9</ele>
        <time>2023-11-05T14:02:01Z</time>
      </trkpt>
      <trkpt lat="43.50086" lon="6.61986">
        <ele>64.1</ele>
        <time>2023-11-05T14:02:02Z</time>
      </trkpt>
      <trkpt lat="43.50087" lon="6.61986">
        <ele>64.2</ele>
        <time>2023-11-05T14:02:03Z</time>
      </trkpt>
      <trkpt lat="43.50088" lon="6.61985">
        <ele>64.2</ele>
        <time>2023-11-05T14:02:04Z</time>
      </trkpt>
      <trkpt lat="43.5009" lon="6.61985">
        <ele>64.2</ele>
        <time>2023-11-05T14:02:05Z</time>
      </trkpt>
      <trkpt lat="43.50091" lon="6.61985">
        <ele>64.2</ele>
        <time>2023-11-05T14:02:06Z</time>
      </trkpt>
      <trkpt lat="43.50092" lon="6.61985">
        <ele>64.3</ele>
        <time>2023-11-05T14:02:07Z</time>
      </trkpt>
      <trkpt lat="43.50094" lon="6.61984">
        <ele>64.4</ele>
        <time>2023-11-05T14:02:08Z</time>
      </trkpt>
      <trkpt lat="43.50095" lon="6.61984">
        <ele>64.4</ele>
        <time>2023-11-05T14:02:09Z</time>
      </trkpt>
      <trkpt lat="43.50096" lon="6.61984">
        <ele>64.4</ele>
        <time>2023-11-05T14:02:10Z</time>
      </trkpt>
      <trkpt lat="43.50097" lon="6.61984">
        <ele>64.4</ele>
        <time>2023-11-05T14:02:11Z</time>
      </trkpt>
      <trkpt lat="43.50098" lon="6.61984">
        <ele>64.4</ele>
        <time>2023-11-05T14:02:12Z</time>
      </trkpt>
      <trkpt lat="43.501" lon="6.61983">
        <ele>64.5</ele>
        <time>2023-11-05T14:02:13Z</time>
      </trkpt>
      <trkpt lat="43.50101" lon="6.61983">
        <ele>64.6</ele>
        <time>2023-11-05T14:02:14Z</time>
      </trkpt>
      <trkpt lat="43.50102" lon="6.61983">
        <ele>64.7</ele>
        <time>2023-11-05T14:02:15Z</time>
      </trkpt>
      <trkpt lat="43.50104" lon="6.61983">
        <ele>64.7</ele>
        <time>2023-11-05T14:02:16Z</time>
      </trkpt>
      <trkpt lat="43.50105" lon="6.61983">
        <ele>64.7</ele>
        <time>2023-11-05T14:02:17Z</time>
      </trkpt>
      <trkpt lat="43.50105" lon="6.61983">
        <ele>64.7</ele>
        <time>2023-11-05T14:02:18Z</time>
      </trkpt>
      <trkpt lat="43.50107" lon="6.61983">
        <ele>64.7</ele>
        <time>2023-11-05T14:02:19Z</time>
      </trkpt>
      <trkpt lat="43.50108" lon="6.61983">
        <ele>64.7</ele>
        <time>2023-11-05T14:02:20Z</time>
      </trkpt>
      <trkpt lat="43.50109" lon="6.61983">
        <ele>64.7</ele>
        <time>2023-11-05T14:02:21Z</time>
      </trkpt>
      <trkpt lat="43.5011" lon="6.61983">
        <ele>64.7</ele>
        <time>2023-11-05T14:02:22Z</time>
      </trkpt>
      <trkpt lat="43.50111" lon="6.61983">
        <ele>64.6</ele>
        <time>2023-11-05T14:02:23Z</time>
      </trkpt>
      <trkpt lat="43.50112" lon="6.61984">
        <ele>64.6</ele>
        <time>2023-11-05T14:02:24Z</time>
      </trkpt>
      <trkpt lat="43.50113" lon="6.61984">
        <ele>64.7</ele>
        <time>2023-11-05T14:02:25Z</time>
      </trkpt>
      <trkpt lat="43.50114" lon="6.61984">
        <ele>64.8</ele>
        <time>2023-11-05T14:02:26Z</time>
      </trkpt>
      <trkpt lat="43.50115" lon="6.61984">
        <ele>64.8</ele>
        <time>2023-11-05T14:02:27Z</time>
      </trkpt>
      <trkpt lat="43.50116" lon="6.61985">
        <ele>64.8</ele>
        <time>2023-11-05T14:02:28Z</time>
      </trkpt>
      <trkpt lat="43.50117" lon="6.61985">
        <ele>64.8</ele>
        <time>2023-11-05T14:02:29Z</time>
      </trkpt>
      <trkpt lat="43.50118" lon="6.61985">
        <ele>65</ele>
        <time>2023-11-05T14:02:30Z</time>
      </trkpt>
      <trkpt lat="43.5012" lon="6.61985">
        <ele>65.1</ele>
        <time>2023-11-05T14:02:31Z</time>
      </trkpt>
      <trkpt lat="43.50121" lon="6.61986">
        <ele>65.3</ele>
        <time>2023-11-05T14:02:32Z</time>
      </trkpt>
      <trkpt lat="43.50122" lon="6.61986">
        <ele>65.5</ele>
        <time>2023-11-05T14:02:33Z</time>
      </trkpt>
      <trkpt lat="43.50123" lon="6.61986">
        <ele>65.5</ele>
        <time>2023-11-05T14:02:34Z</time>
      </trkpt>
      <trkpt lat="43.50125" lon="6.61986">
        <ele>65.6</ele>
        <time>2023-11-05T14:02:35Z</time>
      </trkpt>
      <trkpt lat="43.50126" lon="6.61987">
        <ele>65.7</ele>
        <time>2023-11-05T14:02:36Z</time>
      </trkpt>
      <trkpt lat="43.50127" lon="6.61987">
        <ele>65.7</ele>
        <time>2023-11-05T14:02:37Z</time>
      </trkpt>
      <trkpt lat="43.50129" lon="6.61987">
        <ele>65.7</ele>
        <time>2023-11-05T14:02:38Z</time>
      </trkpt>
      <trkpt lat="43.50129" lon="6.61987">
        <ele>65.7</ele>
        <time>2023-11-05T14:02:39Z</time>
      </trkpt>
      <trkpt lat="43.50131" lon="6.61988">
        <ele>65.7</ele>
        <time>2023-11-05T14:02:40Z</time>
      </trkpt>
      <trkpt lat="43.50132" lon="6.61988">
        <ele>65.6</ele>
        <time>2023-11-05T14:02:41Z</time>
      </trkpt>
      <trkpt lat="43.50133" lon="6.61988">
        <ele>65.6</ele>
        <time>2023-11-05T14:02:42Z</time>
      </trkpt>
      <trkpt lat="43.50134" lon="6.61989">
        <ele>65.4</ele>
        <time>2023-11-05T14:02:43Z</time>
      </trkpt>
      <trkpt lat="43.50135" lon="6.6199">
        <ele>65.3</ele>
        <time>2023-11-05T14:02:44Z</time>
      </trkpt>
      <trkpt lat="43.50136" lon="6.6199">
        <ele>65.1</ele>
        <time>2023-11-05T14:02:45Z</time>
      </trkpt>
      <trkpt lat="43.50137" lon="6.61991">
        <ele>65</ele>
        <time>2023-11-05T14:02:46Z</time>
      </trkpt>
      <trkpt lat="43.50137" lon="6.61991">
        <ele>64.9</ele>
        <time>2023-11-05T14:02:47Z</time>
      </trkpt>
      <trkpt lat="43.50138" lon="6.61992">
        <ele>64.8</ele>
        <time>2023-11-05T14:02:48Z</time>
      </trkpt>
      <trkpt lat="43.50138" lon="6.61991">
        <ele>64.7</ele>
        <time>2023-11-05T14:02:49Z</time>
      </trkpt>
      <trkpt lat="43.50139" lon="6.61991">
        <ele>64.6</ele>
        <time>2023-11-05T14:02:50Z</time>
      </trkpt>
      <trkpt lat="43.50139" lon="6.61991">
        <ele>64.7</ele>
        <time>2023-11-05T14:02:51Z</time>
      </trkpt>
      <trkpt lat="43.50139" lon="6.61992">
        <ele>64.7</ele>
        <time>2023-11-05T14:02:52Z</time>
      </trkpt>
      <trkpt lat="43.50141" lon="6.61992">
        <ele>64.7</ele>
        <time>2023-11-05T14:02:53Z</time>
      </trkpt>
      <trkpt lat="43.50142" lon="6.61992">
        <ele>64.7</ele>
        <time>2023-11-05T14:02:54Z</time>
      </trkpt>
      <trkpt lat="43.50143" lon="6.61993">
        <ele>64.8</ele>
        <time>2023-11-05T14:02:55Z</time>
      </trkpt>
      <trkpt lat="43.50144" lon="6.61994">
        <ele>64.8</ele>
        <time>2023-11-05T14:02:56Z</time>
      </trkpt>
      <trkpt lat="43.50145" lon="6.61995">
        <ele>64.8</ele>
        <time>2023-11-05T14:02:57Z</time>
      </trkpt>
      <trkpt lat="43.50146" lon="6.61996">
        <ele>64.9</ele>
        <time>2023-11-05T14:02:58Z</time>
      </trkpt>
      <trkpt lat="43.50146" lon="6.61997">
        <ele>64.9</ele>
        <time>2023-11-05T14:02:59Z</time>
      </trkpt>
      <trkpt lat="43.50147" lon="6.61998">
        <ele>64.9</ele>
        <time>2023-11-05T14:03:00Z</time>
      </trkpt>
      <trkpt lat="43.50148" lon="6.61999">
        <ele>65</ele>
        <time>2023-11-05T14:03:01Z</time>
      </trkpt>
      <trkpt lat="43.50149" lon="6.62">
        <ele>65.1</ele>
        <time>2023-11-05T14:03:02Z</time>
      </trkpt>
      <trkpt lat="43.5015" lon="6.62001">
        <ele>65</ele>
        <time>2023-11-05T14:03:03Z</time>
      </trkpt>
      <trkpt lat="43.50151" lon="6.62002">
        <ele>65</ele>
        <time>2023-11-05T14:03:04Z</time>
      </trkpt>
      <trkpt lat="43.50152" lon="6.62003">
        <ele>65</ele>
        <time>2023-11-05T14:03:05Z</time>
      </trkpt>
      <trkpt lat="43.50153" lon="6.62003">
        <ele>65.1</ele>
        <time>2023-11-05T14:03:06Z</time>
      </trkpt>
      <trkpt lat="43.50154" lon="6.62004">
        <ele>65.2</ele>
        <time>2023-11-05T14:03:07Z</time>
      </trkpt>
      <trkpt lat="43.50155" lon="6.62006">
        <ele>65.2</ele>
        <time>2023-11-05T14:03:08Z</time>
      </trkpt>
      <trkpt lat="43.50156" lon="6.62007">
        <ele>65.2</ele>
        <time>2023-11-05T14:03:09Z</time>
      </trkpt>
      <trkpt lat="43.50156" lon="6.62008">
        <ele>65.2</ele>
        <time>2023-11-05T14:03:10Z</time>
      </trkpt>
      <trkpt lat="43.50157" lon="6.6201">
        <ele>65.2</ele>
        <time>2023-11-05T14:03:11Z</time>
      </trkpt>
      <trkpt lat="43.50158" lon="6.62011">
        <ele>65.1</ele>
        <time>2023-11-05T14:03:12Z</time>
      </trkpt>
      <trkpt lat="43.50159" lon="6.62012">
        <ele>65.2</ele>
        <time>2023-11-05T14:03:13Z</time>
      </trkpt>
      <trkpt lat="43.5016" lon="6.62014">
        <ele>65.2</ele>
        <time>2023-11-05T14:03:14Z</time>
      </trkpt>
      <trkpt lat="43.50161" lon="6.62015">
        <ele>65.3</ele>
        <time>2023-11-05T14:03:15Z</time>
      </trkpt>
      <trkpt lat="43.50161" lon="6.62016">
        <ele>65.3</ele>
        <time>2023-11-05T14:03:16Z</time>
      </trkpt>
      <trkpt lat="43.50162" lon="6.62017">
        <ele>65.3</ele>
        <time>2023-11-05T14:03:17Z</time>
      </trkpt>
      <trkpt lat="43.50163" lon="6.62019">
        <ele>65.3</ele>
        <time>2023-11-05T14:03:18Z</time>
      </trkpt>
      <trkpt lat="43.50164" lon="6.6202">
        <ele>65.3</ele>
        <time>2023-11-05T14:03:19Z</time>
      </trkpt>
      <trkpt lat="43.50165" lon="6.62021">
        <ele>65.3</ele>
        <time>2023-11-05T14:03:20Z</time>
      </trkpt>
      <trkpt lat="43.50166" lon="6.62022">
        <ele>65.1</ele>
        <time>2023-11-05T14:03:21Z</time>
      </trkpt>
      <trkpt lat="43.50167" lon="6.62024">
        <ele>65.3</ele>
        <time>2023-11-05T14:03:22Z</time>
      </trkpt>
      <trkpt lat="43.50167" lon="6.62025">
        <ele>65.4</ele>
        <time>2023-11-05T14:03:23Z</time>
      </trkpt>
      <trkpt lat="43.50168" lon="6.62027">
        <ele>65.5</ele>
        <time>2023-11-05T14:03:24Z</time>
      </trkpt>
      <trkpt lat="43.50169" lon="6.62028">
        <ele>65.6</ele>
        <time>2023-11-05T14:03:25Z</time>
      </trkpt>
      <trkpt lat="43.5017" lon="6.62029">
        <ele>65.6</ele>
        <time>2023-11-05T14:03:26Z</time>
      </trkpt>
      <trkpt lat="43.50171" lon="6.6203">
        <ele>65.7</ele>
        <time>2023-11-05T14:03:27Z</time>
      </trkpt>
      <trkpt lat="43.50171" lon="6.62031">
        <ele>65.7</ele>
        <time>2023-11-05T14:03:28Z</time>
      </trkpt>
      <trkpt lat="43.50172" lon="6.62032">
        <ele>65.7</ele>
        <time>2023-11-05T14:03:29Z</time>
      </trkpt>
      <trkpt lat="43.50173" lon="6.62033">
        <ele>65.7</ele>
        <time>2023-11-05T14:03:30Z</time>
      </trkpt>
      <trkpt lat="43.50174" lon="6.62034">
        <ele>65.7</ele>
        <time>2023-11-05T14:03:31Z</time>
      </trkpt>
      <trkpt lat="43.50175" lon="6.62035">
        <ele>65.7</ele>
        <time>2023-11-05T14:03:32Z</time>
      </trkpt>
      <trkpt lat="43.50175" lon="6.62036">
        <ele>65.7</ele>
        <time>2023-11-05T14:03:33Z</time>
      </trkpt>
      <trkpt lat="43.50176" lon="6.62037">
        <ele>65.7</ele>
        <time>2023-11-05T14:03:34Z</time>
      </trkpt>
      <trkpt lat="43.50177" lon="6.62038">
        <ele>65.7</ele>
        <time>2023-11-05T14:03:35Z</time>
      </trkpt>
      <trkpt lat="43.50178" lon="6.62039">
        <ele>65.8</ele>
        <time>2023-11-05T14:03:36Z</time>
      </trkpt>
      <trkpt lat="43.50179" lon="6.6204">
        <ele>65.8</ele>
        <time>2023-11-05T14:03:37Z</time>
      </trkpt>
      <trkpt lat="43.50179" lon="6.62041">
        <ele>65.8</ele>
        <time>2023-11-05T14:03:38Z</time>
      </trkpt>
      <trkpt lat="43.5018" lon="6.62043">
        <ele>65.9</ele>
        <time>2023-11-05T14:03:39Z</time>
      </trkpt>
      <trkpt lat="43.50181" lon="6.62044">
        <ele>65.9</ele>
        <time>2023-11-05T14:03:40Z</time>
      </trkpt>
      <trkpt lat="43.50183" lon="6.62044">
        <ele>65.8</ele>
        <time>2023-11-05T14:03:41Z</time>
      </trkpt>
      <trkpt lat="43.50184" lon="6.62045">
        <ele>65.9</ele>
        <time>2023-11-05T14:03:42Z</time>
      </trkpt>
      <trkpt lat="43.50184" lon="6.62046">
        <ele>65.8</ele>
        <time>2023-11-05T14:03:43Z</time>
      </trkpt>
      <trkpt lat="43.50186" lon="6.62047">
        <ele>65.8</ele>
        <time>2023-11-05T14:03:44Z</time>
      </trkpt>
      <trkpt lat="43.50187" lon="6.62049">
        <ele>65.8</ele>
        <time>2023-11-05T14:03:45Z</time>
      </trkpt>
      <trkpt lat="43.50188" lon="6.6205">
        <ele>65.8</ele>
        <time>2023-11-05T14:03:46Z</time>
      </trkpt>
      <trkpt lat="43.50189" lon="6.6205">
        <ele>65.8</ele>
        <time>2023-11-05T14:03:47Z</time>
      </trkpt>
      <trkpt lat="43.5019" lon="6.62051">
        <ele>65.8</ele>
        <time>2023-11-05T14:03:48Z</time>
      </trkpt>
      <trkpt lat="43.50191" lon="6.62051">
        <ele>65.8</ele>
        <time>2023-11-05T14:03:49Z</time>
      </trkpt>
      <trkpt lat="43.50193" lon="6.62051">
        <ele>65.8</ele>
        <time>2023-11-05T14:03:50Z</time>
      </trkpt>
      <trkpt lat="43.50195" lon="6.62051">
        <ele>65.8</ele>
        <time>2023-11-05T14:03:51Z</time>
      </trkpt>
      <trkpt lat="43.50196" lon="6.62052">
        <ele>65.8</ele>
        <time>2023-11-05T14:03:52Z</time>
      </trkpt>
      <trkpt lat="43.50197" lon="6.62052">
        <ele>65.8</ele>
        <time>2023-11-05T14:03:53Z</time>
      </trkpt>
      <trkpt lat="43.50198" lon="6.62053">
        <ele>65.9</ele>
        <time>2023-11-05T14:03:54Z</time>
      </trkpt>
      <trkpt lat="43.50199" lon="6.62054">
        <ele>65.8</ele>
        <time>2023-11-05T14:03:55Z</time>
      </trkpt>
      <trkpt lat="43.502" lon="6.62054">
        <ele>65.8</ele>
        <time>2023-11-05T14:03:56Z</time>
      </trkpt>
      <trkpt lat="43.50201" lon="6.62055">
        <ele>65.8</ele>
        <time>2023-11-05T14:03:57Z</time>
      </trkpt>
      <trkpt lat="43.50202" lon="6.62055">
        <ele>65.8</ele>
        <time>2023-11-05T14:03:58Z</time>
      </trkpt>
      <trkpt lat="43.50204" lon="6.62055">
        <ele>65.9</ele>
        <time>2023-11-05T14:03:59Z</time>
      </trkpt>
      <trkpt lat="43.50205" lon="6.62056">
        <ele>66</ele>
        <time>2023-11-05T14:04:00Z</time>
      </trkpt>
      <trkpt lat="43.50206" lon="6.62056">
        <ele>66.1</ele>
        <time>2023-11-05T14:04:01Z</time>
      </trkpt>
      <trkpt lat="43.50208" lon="6.62056">
        <ele>66.1</ele>
        <time>2023-11-05T14:04:02Z</time>
      </trkpt>
      <trkpt lat="43.50209" lon="6.62056">
        <ele>66.1</ele>
        <time>2023-11-05T14:04:03Z</time>
      </trkpt>
      <trkpt lat="43.5021" lon="6.62056">
        <ele>66.1</ele>
        <time>2023-11-05T14:04:04Z</time>
      </trkpt>
      <trkpt lat="43.50212" lon="6.62057">
        <ele>66.1</ele>
        <time>2023-11-05T14:04:05Z</time>
      </trkpt>
      <trkpt lat="43.50213" lon="6.62057">
        <ele>66.2</ele>
        <time>2023-11-05T14:04:06Z</time>
      </trkpt>
      <trkpt lat="43.50214" lon="6.62058">
        <ele>66.3</ele>
        <time>2023-11-05T14:04:07Z</time>
      </trkpt>
      <trkpt lat="43.50215" lon="6.62058">
        <ele>66.2</ele>
        <time>2023-11-05T14:04:08Z</time>
      </trkpt>
      <trkpt lat="43.50217" lon="6.62058">
        <ele>66.1</ele>
        <time>2023-11-05T14:04:09Z</time>
      </trkpt>
      <trkpt lat="43.50218" lon="6.62058">
        <ele>66</ele>
        <time>2023-11-05T14:04:10Z</time>
      </trkpt>
      <trkpt lat="43.50218" lon="6.62058">
        <ele>66.1</ele>
        <time>2023-11-05T14:04:11Z</time>
      </trkpt>
      <trkpt lat="43.5022" lon="6.62058">
        <ele>66</ele>
        <time>2023-11-05T14:04:12Z</time>
      </trkpt>
      <trkpt lat="43.50221" lon="6.62058">
        <ele>65.9</ele>
        <time>2023-11-05T14:04:13Z</time>
      </trkpt>
      <trkpt lat="43.50222" lon="6.62058">
        <ele>65.9</ele>
        <time>2023-11-05T14:04:14Z</time>
      </trkpt>
      <trkpt lat="43.50223" lon="6.62058">
        <ele>65.8</ele>
        <time>2023-11-05T14:04:15Z</time>
      </trkpt>
      <trkpt lat="43.50225" lon="6.62058">
        <ele>65.7</ele>
        <time>2023-11-05T14:04:16Z</time>
      </trkpt>
      <trkpt lat="43.50226" lon="6.62058">
        <ele>65.7</ele>
        <time>2023-11-05T14:04:17Z</time>
      </trkpt>
      <trkpt lat="43.50228" lon="6.62057">
        <ele>65.7</ele>
        <time>2023-11-05T14:04:18Z</time>
      </trkpt>
      <trkpt lat="43.50229" lon="6.62057">
        <ele>65.8</ele>
        <time>2023-11-05T14:04:19Z</time>
      </trkpt>
      <trkpt lat="43.5023" lon="6.62057">
        <ele>66</ele>
        <time>2023-11-05T14:04:20Z</time>
      </trkpt>
      <trkpt lat="43.50231" lon="6.62057">
        <ele>66.1</ele>
        <time>2023-11-05T14:04:21Z</time>
      </trkpt>
      <trkpt lat="43.50233" lon="6.62056">
        <ele>66.3</ele>
        <time>2023-11-05T14:04:22Z</time>
      </trkpt>
      <trkpt lat="43.50234" lon="6.62056">
        <ele>66.3</ele>
        <time>2023-11-05T14:04:23Z</time>
      </trkpt>
      <trkpt lat="43.50235" lon="6.62056">
        <ele>66.3</ele>
        <time>2023-11-05T14:04:24Z</time>
      </trkpt>
      <trkpt lat="43.50236" lon="6.62056">
        <ele>66.6</ele>
        <time>2023-11-05T14:04:25Z</time>
      </trkpt>
      <trkpt lat="43.50237" lon="6.62056">
        <ele>66.5</ele>
        <time>2023-11-05T14:04:26Z</time>
      </trkpt>
      <trkpt lat="43.50238" lon="6.62056">
        <ele>66.5</ele>
        <time>2023-11-05T14:04:27Z</time>
      </trkpt>
      <trkpt lat="43.50239" lon="6.62056">
        <ele>66.5</ele>
        <time>2023-11-05T14:04:28Z</time>
      </trkpt>
      <trkpt lat="43.50241" lon="6.62056">
        <ele>66.4</ele>
        <time>2023-11-05T14:04:29Z</time>
      </trkpt>
      <trkpt lat="43.50242" lon="6.62056">
        <ele>66.4</ele>
        <time>2023-11-05T14:04:30Z</time>
      </trkpt>
      <trkpt lat="43.50243" lon="6.62056">
        <ele>66.3</ele>
        <time>2023-11-05T14:04:31Z</time>
      </trkpt>
      <trkpt lat="43.50243" lon="6.62056">
        <ele>66.2</ele>
        <time>2023-11-05T14:04:32Z</time>
      </trkpt>
      <trkpt lat="43.50244" lon="6.62056">
        <ele>66.2</ele>
        <time>2023-11-05T14:04:33Z</time>
      </trkpt>
      <trkpt lat="43.50245" lon="6.62056">
        <ele>66.2</ele>
        <time>2023-11-05T14:04:34Z</time>
      </trkpt>
      <trkpt lat="43.50246" lon="6.62056">
        <ele>66.2</ele>
        <time>2023-11-05T14:04:35Z</time>
      </trkpt>
      <trkpt lat="43.50247" lon="6.62056">
        <ele>66.2</ele>
        <time>2023-11-05T14:04:36Z</time>
      </trkpt>
      <trkpt lat="43.50248" lon="6.62057">
        <ele>66.3</ele>
        <time>2023-11-05T14:04:37Z</time>
      </trkpt>
      <trkpt lat="43.50249" lon="6.62057">
        <ele>66.3</ele>
        <time>2023-11-05T14:04:38Z</time>
      </trkpt>
      <trkpt lat="43.50251" lon="6.62056">
        <ele>66.4</ele>
        <time>2023-11-05T14:04:39Z</time>
      </trkpt>
      <trkpt lat="43.50252" lon="6.62056">
        <ele>66.4</ele>
        <time>2023-11-05T14:04:40Z</time>
      </trkpt>
      <trkpt lat="43.50254" lon="6.62057">
        <ele>66.4</ele>
        <time>2023-11-05T14:04:41Z</time>
      </trkpt>
      <trkpt lat="43.50255" lon="6.62056">
        <ele>66.4</ele>
        <time>2023-11-05T14:04:42Z</time>
      </trkpt>
      <trkpt lat="43.50256" lon="6.62056">
        <ele>66.4</ele>
        <time>2023-11-05T14:04:43Z</time>
      </trkpt>
      <trkpt lat="43.50256" lon="6.62056">
        <ele>66.4</ele>
        <time>2023-11-05T14:04:44Z</time>
      </trkpt>
      <trkpt lat="43.50257" lon="6.62056">
        <ele>66.3</ele>
        <time>2023-11-05T14:04:45Z</time>
      </trkpt>
      <trkpt lat="43.50258" lon="6.62056">
        <ele>66.2</ele>
        <time>2023-11-05T14:04:46Z</time>
      </trkpt>
      <trkpt lat="43.5026" lon="6.62056">
        <ele>66.1</ele>
        <time>2023-11-05T14:04:47Z</time>
      </trkpt>
      <trkpt lat="43.50261" lon="6.62056">
        <ele>66.1</ele>
        <time>2023-11-05T14:04:48Z</time>
      </trkpt>
      <trkpt lat="43.50262" lon="6.62057">
        <ele>66.1</ele>
        <time>2023-11-05T14:04:49Z</time>
      </trkpt>
      <trkpt lat="43.50263" lon="6.62057">
        <ele>66.2</ele>
        <time>2023-11-05T14:04:50Z</time>
      </trkpt>
      <trkpt lat="43.50264" lon="6.62057">
        <ele>66.2</ele>
        <time>2023-11-05T14:04:51Z</time>
      </trkpt>
      <trkpt lat="43.50265" lon="6.62057">
        <ele>66.3</ele>
        <time>2023-11-05T14:04:52Z</time>
      </trkpt>
      <trkpt lat="43.50266" lon="6.62057">
        <ele>66.4</ele>
        <time>2023-11-05T14:04:53Z</time>
      </trkpt>
      <trkpt lat="43.50267" lon="6.62058">
        <ele>66.5</ele>
        <time>2023-11-05T14:04:54Z</time>
      </trkpt>
      <trkpt lat="43.50269" lon="6.62058">
        <ele>66.6</ele>
        <time>2023-11-05T14:04:55Z</time>
      </trkpt>
      <trkpt lat="43.5027" lon="6.62058">
        <ele>66.7</ele>
        <time>2023-11-05T14:04:56Z</time>
      </trkpt>
      <trkpt lat="43.50271" lon="6.62058">
        <ele>66.7</ele>
        <time>2023-11-05T14:04:57Z</time>
      </trkpt>
      <trkpt lat="43.50272" lon="6.62058">
        <ele>66.7</ele>
        <time>2023-11-05T14:04:58Z</time>
      </trkpt>
      <trkpt lat="43.50274" lon="6.62058">
        <ele>66.6</ele>
        <time>2023-11-05T14:04:59Z</time>
      </trkpt>
      <trkpt lat="43.50275" lon="6.62058">
        <ele>66.6</ele>
        <time>2023-11-05T14:05:00Z</time>
      </trkpt>
      <trkpt lat="43.50276" lon="6.62059">
        <ele>66.6</ele>
        <time>2023-11-05T14:05:01Z</time>
      </trkpt>
      <trkpt lat="43.50277" lon="6.62059">
        <ele>66.7</ele>
        <time>2023-11-05T14:05:02Z</time>
      </trkpt>
      <trkpt lat="43.50279" lon="6.62059">
        <ele>66.7</ele>
        <time>2023-11-05T14:05:03Z</time>
      </trkpt>
      <trkpt lat="43.5028" lon="6.62059">
        <ele>66.9</ele>
        <time>2023-11-05T14:05:04Z</time>
      </trkpt>
      <trkpt lat="43.50281" lon="6.62059">
        <ele>66.9</ele>
        <time>2023-11-05T14:05:05Z</time>
      </trkpt>
      <trkpt lat="43.50283" lon="6.62059">
        <ele>67</ele>
        <time>2023-11-05T14:05:06Z</time>
      </trkpt>
      <trkpt lat="43.50284" lon="6.62059">
        <ele>67.1</ele>
        <time>2023-11-05T14:05:07Z</time>
      </trkpt>
      <trkpt lat="43.50285" lon="6.62058">
        <ele>67.1</ele>
        <time>2023-11-05T14:05:08Z</time>
      </trkpt>
      <trkpt lat="43.50286" lon="6.62058">
        <ele>67.2</ele>
        <time>2023-11-05T14:05:09Z</time>
      </trkpt>
      <trkpt lat="43.50288" lon="6.62058">
        <ele>67.1</ele>
        <time>2023-11-05T14:05:10Z</time>
      </trkpt>
      <trkpt lat="43.50289" lon="6.62058">
        <ele>67</ele>
        <time>2023-11-05T14:05:11Z</time>
      </trkpt>
      <trkpt lat="43.5029" lon="6.62059">
        <ele>67</ele>
        <time>2023-11-05T14:05:12Z</time>
      </trkpt>
      <trkpt lat="43.50291" lon="6.6206">
        <ele>67</ele>
        <time>2023-11-05T14:05:13Z</time>
      </trkpt>
      <trkpt lat="43.50292" lon="6.62059">
        <ele>67.2</ele>
        <time>2023-11-05T14:05:14Z</time>
      </trkpt>
      <trkpt lat="43.50293" lon="6.62059">
        <ele>67.3</ele>
        <time>2023-11-05T14:05:15Z</time>
      </trkpt>
      <trkpt lat="43.50294" lon="6.6206">
        <ele>67.4</ele>
        <time>2023-11-05T14:05:16Z</time>
      </trkpt>
      <trkpt lat="43.50295" lon="6.6206">
        <ele>67.5</ele>
        <time>2023-11-05T14:05:17Z</time>
      </trkpt>
      <trkpt lat="43.50297" lon="6.6206">
        <ele>67.5</ele>
        <time>2023-11-05T14:05:18Z</time>
      </trkpt>
      <trkpt lat="43.50298" lon="6.6206">
        <ele>67.5</ele>
        <time>2023-11-05T14:05:19Z</time>
      </trkpt>
      <trkpt lat="43.50299" lon="6.62061">
        <ele>67.5</ele>
        <time>2023-11-05T14:05:20Z</time>
      </trkpt>
      <trkpt lat="43.50299" lon="6.62061">
        <ele>67.5</ele>
        <time>2023-11-05T14:05:21Z</time>
      </trkpt>
      <trkpt lat="43.503" lon="6.62061">
        <ele>67.4</ele>
        <time>2023-11-05T14:05:22Z</time>
      </trkpt>
      <trkpt lat="43.50301" lon="6.62062">
        <ele>67.4</ele>
        <time>2023-11-05T14:05:23Z</time>
      </trkpt>
      <trkpt lat="43.50302" lon="6.62062">
        <ele>67.5</ele>
        <time>2023-11-05T14:05:24Z</time>
      </trkpt>
      <trkpt lat="43.50303" lon="6.62063">
        <ele>67.5</ele>
        <time>2023-11-05T14:05:25Z</time>
      </trkpt>
      <trkpt lat="43.50304" lon="6.62063">
        <ele>67.6</ele>
        <time>2023-11-05T14:05:26Z</time>
      </trkpt>
      <trkpt lat="43.50306" lon="6.62063">
        <ele>67.7</ele>
        <time>2023-11-05T14:05:27Z</time>
      </trkpt>
      <trkpt lat="43.50307" lon="6.62063">
        <ele>67.9</ele>
        <time>2023-11-05T14:05:28Z</time>
      </trkpt>
      <trkpt lat="43.50309" lon="6.62063">
        <ele>68</ele>
        <time>2023-11-05T14:05:29Z</time>
      </trkpt>
      <trkpt lat="43.5031" lon="6.62063">
        <ele>68</ele>
        <time>2023-11-05T14:05:30Z</time>
      </trkpt>
      <trkpt lat="43.50311" lon="6.62063">
        <ele>68</ele>
        <time>2023-11-05T14:05:31Z</time>
      </trkpt>
      <trkpt lat="43.50312" lon="6.62063">
        <ele>67.9</ele>
        <time>2023-11-05T14:05:32Z</time>
      </trkpt>
      <trkpt lat="43.50314" lon="6.62063">
        <ele>67.9</ele>
        <time>2023-11-05T14:05:33Z</time>
      </trkpt>
      <trkpt lat="43.50316" lon="6.62063">
        <ele>68</ele>
        <time>2023-11-05T14:05:34Z</time>
      </trkpt>
      <trkpt lat="43.50317" lon="6.62063">
        <ele>68.1</ele>
        <time>2023-11-05T14:05:35Z</time>
      </trkpt>
      <trkpt lat="43.50318" lon="6.62063">
        <ele>68.2</ele>
        <time>2023-11-05T14:05:36Z</time>
      </trkpt>
      <trkpt lat="43.50319" lon="6.62063">
        <ele>68.4</ele>
        <time>2023-11-05T14:05:37Z</time>
      </trkpt>
      <trkpt lat="43.5032" lon="6.62063">
        <ele>68.5</ele>
        <time>2023-11-05T14:05:38Z</time>
      </trkpt>
      <trkpt lat="43.50321" lon="6.62063">
        <ele>68.8</ele>
        <time>2023-11-05T14:05:39Z</time>
      </trkpt>
      <trkpt lat="43.50322" lon="6.62063">
        <ele>68.9</ele>
        <time>2023-11-05T14:05:40Z</time>
      </trkpt>
      <trkpt lat="43.50324" lon="6.62064">
        <ele>68.8</ele>
        <time>2023-11-05T14:05:41Z</time>
      </trkpt>
      <trkpt lat="43.50325" lon="6.62064">
        <ele>68.8</ele>
        <time>2023-11-05T14:05:42Z</time>
      </trkpt>
      <trkpt lat="43.50326" lon="6.62065">
        <ele>68.9</ele>
        <time>2023-11-05T14:05:43Z</time>
      </trkpt>
      <trkpt lat="43.50327" lon="6.62065">
        <ele>69</ele>
        <time>2023-11-05T14:05:44Z</time>
      </trkpt>
      <trkpt lat="43.50329" lon="6.62065">
        <ele>68.9</ele>
        <time>2023-11-05T14:05:45Z</time>
      </trkpt>
      <trkpt lat="43.5033" lon="6.62065">
        <ele>68.9</ele>
        <time>2023-11-05T14:05:46Z</time>
      </trkpt>
      <trkpt lat="43.50331" lon="6.62065">
        <ele>68.9</ele>
        <time>2023-11-05T14:05:47Z</time>
      </trkpt>
      <trkpt lat="43.50332" lon="6.62065">
        <ele>68.9</ele>
        <time>2023-11-05T14:05:48Z</time>
      </trkpt>
      <trkpt lat="43.50334" lon="6.62065">
        <ele>68.9</ele>
        <time>2023-11-05T14:05:49Z</time>
      </trkpt>
      <trkpt lat="43.50335" lon="6.62065">
        <ele>68.9</ele>
        <time>2023-11-05T14:05:50Z</time>
      </trkpt>
      <trkpt lat="43.50336" lon="6.62065">
        <ele>68.9</ele>
        <time>2023-11-05T14:05:51Z</time>
      </trkpt>
      <trkpt lat="43.50337" lon="6.62065">
        <ele>69</ele>
        <time>2023-11-05T14:05:52Z</time>
      </trkpt>
      <trkpt lat="43.50339" lon="6.62066">
        <ele>69</ele>
        <time>2023-11-05T14:05:53Z</time>
      </trkpt>
      <trkpt lat="43.50339" lon="6.62066">
        <ele>69</ele>
        <time>2023-11-05T14:05:54Z</time>
      </trkpt>
      <trkpt lat="43.5034" lon="6.62067">
        <ele>69</ele>
        <time>2023-11-05T14:05:55Z</time>
      </trkpt>
      <trkpt lat="43.50341" lon="6.62067">
        <ele>69</ele>
        <time>2023-11-05T14:05:56Z</time>
      </trkpt>
      <trkpt lat="43.50342" lon="6.62068">
        <ele>69</ele>
        <time>2023-11-05T14:05:57Z</time>
      </trkpt>
      <trkpt lat="43.50343" lon="6.62069">
        <ele>69</ele>
        <time>2023-11-05T14:05:58Z</time>
      </trkpt>
      <trkpt lat="43.50344" lon="6.62069">
        <ele>69.1</ele>
        <time>2023-11-05T14:05:59Z</time>
      </trkpt>
      <trkpt lat="43.50345" lon="6.62069">
        <ele>69.2</ele>
        <time>2023-11-05T14:06:00Z</time>
      </trkpt>
      <trkpt lat="43.50347" lon="6.62069">
        <ele>69.2</ele>
        <time>2023-11-05T14:06:01Z</time>
      </trkpt>
      <trkpt lat="43.50348" lon="6.6207">
        <ele>69.3</ele>
        <time>2023-11-05T14:06:02Z</time>
      </trkpt>
      <trkpt lat="43.50349" lon="6.6207">
        <ele>69.4</ele>
        <time>2023-11-05T14:06:03Z</time>
      </trkpt>
      <trkpt lat="43.5035" lon="6.62071">
        <ele>69.5</ele>
        <time>2023-11-05T14:06:04Z</time>
      </trkpt>
      <trkpt lat="43.50351" lon="6.62071">
        <ele>69.5</ele>
        <time>2023-11-05T14:06:05Z</time>
      </trkpt>
      <trkpt lat="43.50352" lon="6.62072">
        <ele>69.6</ele>
        <time>2023-11-05T14:06:06Z</time>
      </trkpt>
      <trkpt lat="43.50354" lon="6.62072">
        <ele>69.7</ele>
        <time>2023-11-05T14:06:07Z</time>
      </trkpt>
      <trkpt lat="43.50355" lon="6.62072">
        <ele>69.7</ele>
        <time>2023-11-05T14:06:08Z</time>
      </trkpt>
      <trkpt lat="43.50356" lon="6.62072">
        <ele>69.7</ele>
        <time>2023-11-05T14:06:09Z</time>
      </trkpt>
      <trkpt lat="43.50357" lon="6.62072">
        <ele>69.6</ele>
        <time>2023-11-05T14:06:10Z</time>
      </trkpt>
      <trkpt lat="43.50358" lon="6.62073">
        <ele>69.6</ele>
        <time>2023-11-05T14:06:11Z</time>
      </trkpt>
      <trkpt lat="43.50359" lon="6.62072">
        <ele>69.6</ele>
        <time>2023-11-05T14:06:12Z</time>
      </trkpt>
      <trkpt lat="43.5036" lon="6.62072">
        <ele>69.6</ele>
        <time>2023-11-05T14:06:13Z</time>
      </trkpt>
      <trkpt lat="43.50361" lon="6.62072">
        <ele>69.6</ele>
        <time>2023-11-05T14:06:14Z</time>
      </trkpt>
      <trkpt lat="43.50362" lon="6.62072">
        <ele>69.6</ele>
        <time>2023-11-05T14:06:15Z</time>
      </trkpt>
      <trkpt lat="43.50364" lon="6.62071">
        <ele>69.7</ele>
        <time>2023-11-05T14:06:16Z</time>
      </trkpt>
      <trkpt lat="43.50365" lon="6.62071">
        <ele>69.7</ele>
        <time>2023-11-05T14:06:17Z</time>
      </trkpt>
      <trkpt lat="43.50366" lon="6.62072">
        <ele>69.7</ele>
        <time>2023-11-05T14:06:18Z</time>
      </trkpt>
      <trkpt lat="43.50367" lon="6.62072">
        <ele>69.8</ele>
        <time>2023-11-05T14:06:19Z</time>
      </trkpt>
      <trkpt lat="43.50368" lon="6.62072">
        <ele>69.7</ele>
        <time>2023-11-05T14:06:20Z</time>
      </trkpt>
      <trkpt lat="43.50369" lon="6.62072">
        <ele>69.6</ele>
        <time>2023-11-05T14:06:21Z</time>
      </trkpt>
      <trkpt lat="43.5037" lon="6.62072">
        <ele>69.5</ele>
        <time>2023-11-05T14:06:22Z</time>
      </trkpt>
      <trkpt lat="43.50372" lon="6.62072">
        <ele>69.5</ele>
        <time>2023-11-05T14:06:23Z</time>
      </trkpt>
      <trkpt lat="43.50373" lon="6.62072">
        <ele>69.5</ele>
        <time>2023-11-05T14:06:24Z</time>
      </trkpt>
      <trkpt lat="43.50374" lon="6.62072">
        <ele>69.5</ele>
        <time>2023-11-05T14:06:25Z</time>
      </trkpt>
      <trkpt lat="43.50375" lon="6.62072">
        <ele>69.5</ele>
        <time>2023-11-05T14:06:26Z</time>
      </trkpt>
      <trkpt lat="43.50376" lon="6.62072">
        <ele>69.6</ele>
        <time>2023-11-05T14:06:27Z</time>
      </trkpt>
      <trkpt lat="43.50377" lon="6.62073">
        <ele>69.5</ele>
        <time>2023-11-05T14:06:28Z</time>
      </trkpt>
      <trkpt lat="43.50378" lon="6.62073">
        <ele>69.5</ele>
        <time>2023-11-05T14:06:29Z</time>
      </trkpt>
      <trkpt lat="43.50379" lon="6.62073">
        <ele>69.5</ele>
        <time>2023-11-05T14:06:30Z</time>
      </trkpt>
      <trkpt lat="43.5038" lon="6.62073">
        <ele>69.4</ele>
        <time>2023-11-05T14:06:31Z</time>
      </trkpt>
      <trkpt lat="43.50382" lon="6.62073">
        <ele>69.3</ele>
        <time>2023-11-05T14:06:32Z</time>
      </trkpt>
      <trkpt lat="43.50384" lon="6.62073">
        <ele>69.2</ele>
        <time>2023-11-05T14:06:33Z</time>
      </trkpt>
      <trkpt lat="43.50385" lon="6.62073">
        <ele>69.1</ele>
        <time>2023-11-05T14:06:34Z</time>
      </trkpt>
      <trkpt lat="43.50386" lon="6.62073">
        <ele>69.1</ele>
        <time>2023-11-05T14:06:35Z</time>
      </trkpt>
      <trkpt lat="43.50387" lon="6.62073">
        <ele>69.1</ele>
        <time>2023-11-05T14:06:36Z</time>
      </trkpt>
      <trkpt lat="43.50388" lon="6.62073">
        <ele>69</ele>
        <time>2023-11-05T14:06:37Z</time>
      </trkpt>
      <trkpt lat="43.50389" lon="6.62073">
        <ele>69.1</ele>
        <time>2023-11-05T14:06:38Z</time>
      </trkpt>
      <trkpt lat="43.5039" lon="6.62074">
        <ele>69</ele>
        <time>2023-11-05T14:06:39Z</time>
      </trkpt>
      <trkpt lat="43.50392" lon="6.62073">
        <ele>69</ele>
        <time>2023-11-05T14:06:40Z</time>
      </trkpt>
      <trkpt lat="43.50393" lon="6.62073">
        <ele>68.9</ele>
        <time>2023-11-05T14:06:41Z</time>
      </trkpt>
      <trkpt lat="43.50395" lon="6.62073">
        <ele>68.9</ele>
        <time>2023-11-05T14:06:42Z</time>
      </trkpt>
      <trkpt lat="43.50396" lon="6.62074">
        <ele>68.8</ele>
        <time>2023-11-05T14:06:43Z</time>
      </trkpt>
      <trkpt lat="43.50398" lon="6.62074">
        <ele>68.8</ele>
        <time>2023-11-05T14:06:44Z</time>
      </trkpt>
      <trkpt lat="43.50399" lon="6.62074">
        <ele>68.7</ele>
        <time>2023-11-05T14:06:45Z</time>
      </trkpt>
      <trkpt lat="43.504" lon="6.62074">
        <ele>68.7</ele>
        <time>2023-11-05T14:06:46Z</time>
      </trkpt>
      <trkpt lat="43.504" lon="6.62073">
        <ele>68.8</ele>
        <time>2023-11-05T14:06:47Z</time>
      </trkpt>
      <trkpt lat="43.504" lon="6.62073">
        <ele>68.8</ele>
        <time>2023-11-05T14:06:48Z</time>
      </trkpt>
      <trkpt lat="43.504" lon="6.62073">
        <ele>68.9</ele>
        <time>2023-11-05T14:06:49Z</time>
      </trkpt>
      <trkpt lat="43.504" lon="6.62073">
        <ele>69</ele>
        <time>2023-11-05T14:06:50Z</time>
      </trkpt>
      <trkpt lat="43.504" lon="6.62073">
        <ele>68.9</ele>
        <time>2023-11-05T14:06:51Z</time>
      </trkpt>
      <trkpt lat="43.504" lon="6.62072">
        <ele>68.9</ele>
        <time>2023-11-05T14:06:52Z</time>
      </trkpt>
      <trkpt lat="43.50401" lon="6.62072">
        <ele>68.9</ele>
        <time>2023-11-05T14:06:53Z</time>
      </trkpt>
      <trkpt lat="43.50401" lon="6.62072">
        <ele>68.9</ele>
        <time>2023-11-05T14:06:54Z</time>
      </trkpt>
      <trkpt lat="43.50401" lon="6.62072">
        <ele>68.9</ele>
        <time>2023-11-05T14:06:55Z</time>
      </trkpt>
      <trkpt lat="43.50401" lon="6.62072">
        <ele>68.9</ele>
        <time>2023-11-05T14:06:56Z</time>
      </trkpt>
      <trkpt lat="43.50402" lon="6.62072">
        <ele>68.9</ele>
        <time>2023-11-05T14:06:57Z</time>
      </trkpt>
      <trkpt lat="43.50403" lon="6.62073">
        <ele>68.9</ele>
        <time>2023-11-05T14:06:58Z</time>
      </trkpt>
      <trkpt lat="43.50404" lon="6.62072">
        <ele>68.9</ele>
        <time>2023-11-05T14:06:59Z</time>
      </trkpt>
      <trkpt lat="43.50405" lon="6.62073">
        <ele>68.8</ele>
        <time>2023-11-05T14:07:00Z</time>
      </trkpt>
      <trkpt lat="43.50407" lon="6.62073">
        <ele>68.8</ele>
        <time>2023-11-05T14:07:01Z</time>
      </trkpt>
      <trkpt lat="43.50408" lon="6.62073">
        <ele>68.8</ele>
        <time>2023-11-05T14:07:02Z</time>
      </trkpt>
      <trkpt lat="43.50409" lon="6.62072">
        <ele>68.8</ele>
        <time>2023-11-05T14:07:03Z</time>
      </trkpt>
      <trkpt lat="43.5041" lon="6.62072">
        <ele>68.8</ele>
        <time>2023-11-05T14:07:04Z</time>
      </trkpt>
      <trkpt lat="43.50411" lon="6.62073">
        <ele>68.9</ele>
        <time>2023-11-05T14:07:05Z</time>
      </trkpt>
      <trkpt lat="43.50413" lon="6.62073">
        <ele>69</ele>
        <time>2023-11-05T14:07:06Z</time>
      </trkpt>
      <trkpt lat="43.50414" lon="6.62074">
        <ele>69</ele>
        <time>2023-11-05T14:07:07Z</time>
      </trkpt>
      <trkpt lat="43.50415" lon="6.62075">
        <ele>69.1</ele>
        <time>2023-11-05T14:07:08Z</time>
      </trkpt>
      <trkpt lat="43.50416" lon="6.62075">
        <ele>69.1</ele>
        <time>2023-11-05T14:07:09Z</time>
      </trkpt>
      <trkpt lat="43.50416" lon="6.62076">
        <ele>69.1</ele>
        <time>2023-11-05T14:07:10Z</time>
      </trkpt>
      <trkpt lat="43.50417" lon="6.62077">
        <ele>69</ele>
        <time>2023-11-05T14:07:11Z</time>
      </trkpt>
      <trkpt lat="43.50418" lon="6.62078">
        <ele>69</ele>
        <time>2023-11-05T14:07:12Z</time>
      </trkpt>
      <trkpt lat="43.50419" lon="6.62079">
        <ele>69</ele>
        <time>2023-11-05T14:07:13Z</time>
      </trkpt>
      <trkpt lat="43.50419" lon="6.62079">
        <ele>69</ele>
        <time>2023-11-05T14:07:14Z</time>
      </trkpt>
      <trkpt lat="43.50419" lon="6.62079">
        <ele>69</ele>
        <time>2023-11-05T14:07:15Z</time>
      </trkpt>
      <trkpt lat="43.50419" lon="6.62079">
        <ele>68.9</ele>
        <time>2023-11-05T14:07:16Z</time>
      </trkpt>
      <trkpt lat="43.50419" lon="6.62079">
        <ele>68.9</ele>
        <time>2023-11-05T14:07:17Z</time>
      </trkpt>
      <trkpt lat="43.5042" lon="6.62079">
        <ele>69</ele>
        <time>2023-11-05T14:07:18Z</time>
      </trkpt>
      <trkpt lat="43.5042" lon="6.62079">
        <ele>69.1</ele>
        <time>2023-11-05T14:07:19Z</time>
      </trkpt>
      <trkpt lat="43.50419" lon="6.6208">
        <ele>69.2</ele>
        <time>2023-11-05T14:07:20Z</time>
      </trkpt>
      <trkpt lat="43.50419" lon="6.6208">
        <ele>69.3</ele>
        <time>2023-11-05T14:07:21Z</time>
      </trkpt>
      <trkpt lat="43.50419" lon="6.6208">
        <ele>69.3</ele>
        <time>2023-11-05T14:07:22Z</time>
      </trkpt>
      <trkpt lat="43.50419" lon="6.6208">
        <ele>69.3</ele>
        <time>2023-11-05T14:07:23Z</time>
      </trkpt>
      <trkpt lat="43.5042" lon="6.6208">
        <ele>69.3</ele>
        <time>2023-11-05T14:07:24Z</time>
      </trkpt>
      <trkpt lat="43.5042" lon="6.62082">
        <ele>69.2</ele>
        <time>2023-11-05T14:07:25Z</time>
      </trkpt>
      <trkpt lat="43.50421" lon="6.62082">
        <ele>69.1</ele>
        <time>2023-11-05T14:07:26Z</time>
      </trkpt>
      <trkpt lat="43.50421" lon="6.62083">
        <ele>69.1</ele>
        <time>2023-11-05T14:07:27Z</time>
      </trkpt>
      <trkpt lat="43.50422" lon="6.62083">
        <ele>69.1</ele>
        <time>2023-11-05T14:07:28Z</time>
      </trkpt>
      <trkpt lat="43.50423" lon="6.62084">
        <ele>69.1</ele>
        <time>2023-11-05T14:07:29Z</time>
      </trkpt>
      <trkpt lat="43.50424" lon="6.62085">
        <ele>69.1</ele>
        <time>2023-11-05T14:07:30Z</time>
      </trkpt>
      <trkpt lat="43.50425" lon="6.62085">
        <ele>69.1</ele>
        <time>2023-11-05T14:07:31Z</time>
      </trkpt>
      <trkpt lat="43.50425" lon="6.62086">
        <ele>69.1</ele>
        <time>2023-11-05T14:07:32Z</time>
      </trkpt>
      <trkpt lat="43.50426" lon="6.62086">
        <ele>69.1</ele>
        <time>2023-11-05T14:07:33Z</time>
      </trkpt>
      <trkpt lat="43.50427" lon="6.62087">
        <ele>69.2</ele>
        <time>2023-11-05T14:07:34Z</time>
      </trkpt>
      <trkpt lat="43.50428" lon="6.62087">
        <ele>69.2</ele>
        <time>2023-11-05T14:07:35Z</time>
      </trkpt>
      <trkpt lat="43.50428" lon="6.62087">
        <ele>69.3</ele>
        <time>2023-11-05T14:07:36Z</time>
      </trkpt>
      <trkpt lat="43.50429" lon="6.62088">
        <ele>69.3</ele>
        <time>2023-11-05T14:07:37Z</time>
      </trkpt>
      <trkpt lat="43.5043" lon="6.62088">
        <ele>69.3</ele>
        <time>2023-11-05T14:07:38Z</time>
      </trkpt>
      <trkpt lat="43.5043" lon="6.62089">
        <ele>69.2</ele>
        <time>2023-11-05T14:07:39Z</time>
      </trkpt>
      <trkpt lat="43.50431" lon="6.62088">
        <ele>69.1</ele>
        <time>2023-11-05T14:07:40Z</time>
      </trkpt>
      <trkpt lat="43.50431" lon="6.62088">
        <ele>69.1</ele>
        <time>2023-11-05T14:07:41Z</time>
      </trkpt>
      <trkpt lat="43.50431" lon="6.62089">
        <ele>69.1</ele>
        <time>2023-11-05T14:07:42Z</time>
      </trkpt>
      <trkpt lat="43.50431" lon="6.62089">
        <ele>69.1</ele>
        <time>2023-11-05T14:07:43Z</time>
      </trkpt>
      <trkpt lat="43.50431" lon="6.62089">
        <ele>69.1</ele>
        <time>2023-11-05T14:07:44Z</time>
      </trkpt>
      <trkpt lat="43.50431" lon="6.62089">
        <ele>69.1</ele>
        <time>2023-11-05T14:07:45Z</time>
      </trkpt>
      <trkpt lat="43.50431" lon="6.62089">
        <ele>69</ele>
        <time>2023-11-05T14:07:46Z</time>
      </trkpt>
      <trkpt lat="43.50431" lon="6.62089">
        <ele>69.1</ele>
        <time>2023-11-05T14:07:47Z</time>
      </trkpt>
      <trkpt lat="43.50431" lon="6.62088">
        <ele>69.1</ele>
        <time>2023-11-05T14:07:48Z</time>
      </trkpt>
      <trkpt lat="43.50431" lon="6.62087">
        <ele>69.1</ele>
        <time>2023-11-05T14:07:49Z</time>
      </trkpt>
      <trkpt lat="43.50431" lon="6.62087">
        <ele>69.1</ele>
        <time>2023-11-05T14:07:50Z</time>
      </trkpt>
      <trkpt lat="43.50431" lon="6.62087">
        <ele>69.1</ele>
        <time>2023-11-05T14:07:51Z</time>
      </trkpt>
      <trkpt lat="43.50431" lon="6.62086">
        <ele>69.1</ele>
        <time>2023-11-05T14:07:52Z</time>
      </trkpt>
      <trkpt lat="43.50431" lon="6.62086">
        <ele>69.1</ele>
        <time>2023-11-05T14:07:53Z</time>
      </trkpt>
      <trkpt lat="43.50431" lon="6.62086">
        <ele>69.1</ele>
        <time>2023-11-05T14:07:54Z</time>
      </trkpt>
      <trkpt lat="43.50431" lon="6.62086">
        <ele>69.1</ele>
        <time>2023-11-05T14:07:55Z</time>
      </trkpt>
      <trkpt lat="43.50431" lon="6.62086">
        <ele>69</ele>
        <time>2023-11-05T14:07:56Z</time>
      </trkpt>
      <trkpt lat="43.50431" lon="6.62086">
        <ele>69</ele>
        <time>2023-11-05T14:07:57Z</time>
      </trkpt>
      <trkpt lat="43.50431" lon="6.62086">
        <ele>69</ele>
        <time>2023-11-05T14:07:58Z</time>
      </trkpt>
      <trkpt lat="43.50431" lon="6.62086">
        <ele>69.1</ele>
        <time>2023-11-05T14:07:59Z</time>
      </trkpt>
      <trkpt lat="43.50431" lon="6.62086">
        <ele>69.1</ele>
        <time>2023-11-05T14:08:00Z</time>
      </trkpt>
      <trkpt lat="43.50432" lon="6.62086">
        <ele>69.1</ele>
        <time>2023-11-05T14:08:01Z</time>
      </trkpt>
      <trkpt lat="43.50432" lon="6.62087">
        <ele>69</ele>
        <time>2023-11-05T14:08:02Z</time>
      </trkpt>
      <trkpt lat="43.50432" lon="6.62087">
        <ele>69</ele>
        <time>2023-11-05T14:08:03Z</time>
      </trkpt>
      <trkpt lat="43.50432" lon="6.62087">
        <ele>69</ele>
        <time>2023-11-05T14:08:04Z</time>
      </trkpt>
      <trkpt lat="43.50432" lon="6.62087">
        <ele>69</ele>
        <time>2023-11-05T14:08:05Z</time>
      </trkpt>
      <trkpt lat="43.50432" lon="6.62087">
        <ele>68.9</ele>
        <time>2023-11-05T14:08:06Z</time>
      </trkpt>
      <trkpt lat="43.50432" lon="6.62087">
        <ele>68.9</ele>
        <time>2023-11-05T14:08:07Z</time>
      </trkpt>
      <trkpt lat="43.50432" lon="6.62087">
        <ele>68.9</ele>
        <time>2023-11-05T14:08:08Z</time>
      </trkpt>
      <trkpt lat="43.50432" lon="6.62087">
        <ele>68.9</ele>
        <time>2023-11-05T14:08:09Z</time>
      </trkpt>
      <trkpt lat="43.50432" lon="6.62087">
        <ele>68.9</ele>
        <time>2023-11-05T14:08:10Z</time>
      </trkpt>
      <trkpt lat="43.50433" lon="6.62087">
        <ele>68.9</ele>
        <time>2023-11-05T14:08:11Z</time>
      </trkpt>
      <trkpt lat="43.50433" lon="6.62086">
        <ele>69</ele>
        <time>2023-11-05T14:08:12Z</time>
      </trkpt>
      <trkpt lat="43.50434" lon="6.62086">
        <ele>69</ele>
        <time>2023-11-05T14:08:13Z</time>
      </trkpt>
      <trkpt lat="43.50435" lon="6.62086">
        <ele>69.1</ele>
        <time>2023-11-05T14:08:14Z</time>
      </trkpt>
      <trkpt lat="43.50436" lon="6.62086">
        <ele>69.2</ele>
        <time>2023-11-05T14:08:15Z</time>
      </trkpt>
      <trkpt lat="43.50437" lon="6.62085">
        <ele>69.3</ele>
        <time>2023-11-05T14:08:16Z</time>
      </trkpt>
      <trkpt lat="43.50438" lon="6.62084">
        <ele>69.3</ele>
        <time>2023-11-05T14:08:17Z</time>
      </trkpt>
      <trkpt lat="43.50438" lon="6.62084">
        <ele>69.4</ele>
        <time>2023-11-05T14:08:18Z</time>
      </trkpt>
      <trkpt lat="43.5044" lon="6.62083">
        <ele>69.5</ele>
        <time>2023-11-05T14:08:19Z</time>
      </trkpt>
      <trkpt lat="43.5044" lon="6.62082">
        <ele>69.5</ele>
        <time>2023-11-05T14:08:20Z</time>
      </trkpt>
      <trkpt lat="43.50441" lon="6.62081">
        <ele>69.4</ele>
        <time>2023-11-05T14:08:21Z</time>
      </trkpt>
      <trkpt lat="43.50442" lon="6.62081">
        <ele>69.4</ele>
        <time>2023-11-05T14:08:22Z</time>
      </trkpt>
      <trkpt lat="43.50443" lon="6.62081">
        <ele>69.3</ele>
        <time>2023-11-05T14:08:23Z</time>
      </trkpt>
      <trkpt lat="43.50444" lon="6.62081">
        <ele>69.3</ele>
        <time>2023-11-05T14:08:24Z</time>
      </trkpt>
      <trkpt lat="43.50445" lon="6.62081">
        <ele>69.3</ele>
        <time>2023-11-05T14:08:25Z</time>
      </trkpt>
      <trkpt lat="43.50446" lon="6.6208">
        <ele>69.3</ele>
        <time>2023-11-05T14:08:26Z</time>
      </trkpt>
      <trkpt lat="43.50447" lon="6.6208">
        <ele>69.3</ele>
        <time>2023-11-05T14:08:27Z</time>
      </trkpt>
      <trkpt lat="43.50448" lon="6.6208">
        <ele>69.3</ele>
        <time>2023-11-05T14:08:28Z</time>
      </trkpt>
      <trkpt lat="43.50449" lon="6.6208">
        <ele>69.4</ele>
        <time>2023-11-05T14:08:29Z</time>
      </trkpt>
      <trkpt lat="43.50449" lon="6.6208">
        <ele>69.4</ele>
        <time>2023-11-05T14:08:30Z</time>
      </trkpt>
      <trkpt lat="43.5045" lon="6.62079">
        <ele>69.5</ele>
        <time>2023-11-05T14:08:31Z</time>
      </trkpt>
      <trkpt lat="43.50452" lon="6.62079">
        <ele>69.5</ele>
        <time>2023-11-05T14:08:32Z</time>
      </trkpt>
      <trkpt lat="43.50453" lon="6.62079">
        <ele>69.5</ele>
        <time>2023-11-05T14:08:33Z</time>
      </trkpt>
      <trkpt lat="43.50454" lon="6.62079">
        <ele>69.5</ele>
        <time>2023-11-05T14:08:34Z</time>
      </trkpt>
      <trkpt lat="43.50455" lon="6.62078">
        <ele>69.4</ele>
        <time>2023-11-05T14:08:35Z</time>
      </trkpt>
      <trkpt lat="43.50456" lon="6.62077">
        <ele>69.5</ele>
        <time>2023-11-05T14:08:36Z</time>
      </trkpt>
      <trkpt lat="43.50457" lon="6.62076">
        <ele>69.4</ele>
        <time>2023-11-05T14:08:37Z</time>
      </trkpt>
      <trkpt lat="43.50458" lon="6.62076">
        <ele>69.4</ele>
        <time>2023-11-05T14:08:38Z</time>
      </trkpt>
      <trkpt lat="43.50459" lon="6.62075">
        <ele>69.4</ele>
        <time>2023-11-05T14:08:39Z</time>
      </trkpt>
      <trkpt lat="43.5046" lon="6.62074">
        <ele>69.4</ele>
        <time>2023-11-05T14:08:40Z</time>
      </trkpt>
      <trkpt lat="43.50461" lon="6.62074">
        <ele>69.4</ele>
        <time>2023-11-05T14:08:41Z</time>
      </trkpt>
      <trkpt lat="43.50462" lon="6.62073">
        <ele>69.4</ele>
        <time>2023-11-05T14:08:42Z</time>
      </trkpt>
      <trkpt lat="43.50463" lon="6.62072">
        <ele>69.4</ele>
        <time>2023-11-05T14:08:43Z</time>
      </trkpt>
      <trkpt lat="43.50464" lon="6.62071">
        <ele>69.4</ele>
        <time>2023-11-05T14:08:44Z</time>
      </trkpt>
      <trkpt lat="43.50465" lon="6.62071">
        <ele>69.4</ele>
        <time>2023-11-05T14:08:45Z</time>
      </trkpt>
      <trkpt lat="43.50466" lon="6.62071">
        <ele>69.6</ele>
        <time>2023-11-05T14:08:46Z</time>
      </trkpt>
      <trkpt lat="43.50467" lon="6.62071">
        <ele>69.7</ele>
        <time>2023-11-05T14:08:47Z</time>
      </trkpt>
      <trkpt lat="43.50468" lon="6.62071">
        <ele>69.7</ele>
        <time>2023-11-05T14:08:48Z</time>
      </trkpt>
      <trkpt lat="43.50469" lon="6.6207">
        <ele>69.8</ele>
        <time>2023-11-05T14:08:49Z</time>
      </trkpt>
      <trkpt lat="43.5047" lon="6.6207">
        <ele>69.8</ele>
        <time>2023-11-05T14:08:50Z</time>
      </trkpt>
      <trkpt lat="43.50471" lon="6.6207">
        <ele>69.9</ele>
        <time>2023-11-05T14:08:51Z</time>
      </trkpt>
      <trkpt lat="43.50472" lon="6.62069">
        <ele>69.9</ele>
        <time>2023-11-05T14:08:52Z</time>
      </trkpt>
      <trkpt lat="43.50473" lon="6.62069">
        <ele>69.9</ele>
        <time>2023-11-05T14:08:53Z</time>
      </trkpt>
      <trkpt lat="43.50475" lon="6.62068">
        <ele>69.9</ele>
        <time>2023-11-05T14:08:54Z</time>
      </trkpt>
      <trkpt lat="43.50476" lon="6.62067">
        <ele>70</ele>
        <time>2023-11-05T14:08:55Z</time>
      </trkpt>
      <trkpt lat="43.50477" lon="6.62066">
        <ele>70</ele>
        <time>2023-11-05T14:08:56Z</time>
      </trkpt>
      <trkpt lat="43.50478" lon="6.62066">
        <ele>70.1</ele>
        <time>2023-11-05T14:08:57Z</time>
      </trkpt>
      <trkpt lat="43.50479" lon="6.62066">
        <ele>70.2</ele>
        <time>2023-11-05T14:08:58Z</time>
      </trkpt>
      <trkpt lat="43.5048" lon="6.62065">
        <ele>70.3</ele>
        <time>2023-11-05T14:08:59Z</time>
      </trkpt>
      <trkpt lat="43.50482" lon="6.62065">
        <ele>70.3</ele>
        <time>2023-11-05T14:09:00Z</time>
      </trkpt>
      <trkpt lat="43.50482" lon="6.62064">
        <ele>70.4</ele>
        <time>2023-11-05T14:09:01Z</time>
      </trkpt>
      <trkpt lat="43.50483" lon="6.62064">
        <ele>70.4</ele>
        <time>2023-11-05T14:09:02Z</time>
      </trkpt>
      <trkpt lat="43.50485" lon="6.62063">
        <ele>70.5</ele>
        <time>2023-11-05T14:09:03Z</time>
      </trkpt>
      <trkpt lat="43.50486" lon="6.62063">
        <ele>70.6</ele>
        <time>2023-11-05T14:09:04Z</time>
      </trkpt>
      <trkpt lat="43.50487" lon="6.62062">
        <ele>70.9</ele>
        <time>2023-11-05T14:09:05Z</time>
      </trkpt>
      <trkpt lat="43.50488" lon="6.62061">
        <ele>71</ele>
        <time>2023-11-05T14:09:06Z</time>
      </trkpt>
      <trkpt lat="43.5049" lon="6.62061">
        <ele>71.2</ele>
        <time>2023-11-05T14:09:07Z</time>
      </trkpt>
      <trkpt lat="43.5049" lon="6.6206">
        <ele>71.3</ele>
        <time>2023-11-05T14:09:08Z</time>
      </trkpt>
      <trkpt lat="43.50492" lon="6.6206">
        <ele>71.5</ele>
        <time>2023-11-05T14:09:09Z</time>
      </trkpt>
      <trkpt lat="43.50493" lon="6.62059">
        <ele>71.5</ele>
        <time>2023-11-05T14:09:10Z</time>
      </trkpt>
      <trkpt lat="43.50494" lon="6.62059">
        <ele>71.6</ele>
        <time>2023-11-05T14:09:11Z</time>
      </trkpt>
      <trkpt lat="43.50495" lon="6.62058">
        <ele>71.7</ele>
        <time>2023-11-05T14:09:12Z</time>
      </trkpt>
      <trkpt lat="43.50496" lon="6.62057">
        <ele>71.7</ele>
        <time>2023-11-05T14:09:13Z</time>
      </trkpt>
      <trkpt lat="43.50497" lon="6.62056">
        <ele>71.7</ele>
        <time>2023-11-05T14:09:14Z</time>
      </trkpt>
      <trkpt lat="43.50498" lon="6.62055">
        <ele>71.7</ele>
        <time>2023-11-05T14:09:15Z</time>
      </trkpt>
      <trkpt lat="43.50499" lon="6.62054">
        <ele>71.8</ele>
        <time>2023-11-05T14:09:16Z</time>
      </trkpt>
      <trkpt lat="43.505" lon="6.62053">
        <ele>71.9</ele>
        <time>2023-11-05T14:09:17Z</time>
      </trkpt>
      <trkpt lat="43.50501" lon="6.62053">
        <ele>71.9</ele>
        <time>2023-11-05T14:09:18Z</time>
      </trkpt>
      <trkpt lat="43.50502" lon="6.62053">
        <ele>72</ele>
        <time>2023-11-05T14:09:19Z</time>
      </trkpt>
      <trkpt lat="43.50503" lon="6.62052">
        <ele>72.1</ele>
        <time>2023-11-05T14:09:20Z</time>
      </trkpt>
      <trkpt lat="43.50504" lon="6.62052">
        <ele>72.1</ele>
        <time>2023-11-05T14:09:21Z</time>
      </trkpt>
      <trkpt lat="43.50505" lon="6.62052">
        <ele>72.2</ele>
        <time>2023-11-05T14:09:22Z</time>
      </trkpt>
      <trkpt lat="43.50506" lon="6.62051">
        <ele>72.3</ele>
        <time>2023-11-05T14:09:23Z</time>
      </trkpt>
      <trkpt lat="43.50506" lon="6.62051">
        <ele>72.5</ele>
        <time>2023-11-05T14:09:24Z</time>
      </trkpt>
      <trkpt lat="43.50507" lon="6.6205">
        <ele>72.6</ele>
        <time>2023-11-05T14:09:25Z</time>
      </trkpt>
      <trkpt lat="43.50508" lon="6.6205">
        <ele>72.8</ele>
        <time>2023-11-05T14:09:26Z</time>
      </trkpt>
      <trkpt lat="43.50509" lon="6.62049">
        <ele>72.9</ele>
        <time>2023-11-05T14:09:27Z</time>
      </trkpt>
      <trkpt lat="43.5051" lon="6.62048">
        <ele>73.1</ele>
        <time>2023-11-05T14:09:28Z</time>
      </trkpt>
      <trkpt lat="43.50511" lon="6.62048">
        <ele>73.2</ele>
        <time>2023-11-05T14:09:29Z</time>
      </trkpt>
      <trkpt lat="43.50512" lon="6.62048">
        <ele>73.3</ele>
        <time>2023-11-05T14:09:30Z</time>
      </trkpt>
      <trkpt lat="43.50513" lon="6.62048">
        <ele>73.4</ele>
        <time>2023-11-05T14:09:31Z</time>
      </trkpt>
      <trkpt lat="43.50514" lon="6.62047">
        <ele>73.5</ele>
        <time>2023-11-05T14:09:32Z</time>
      </trkpt>
      <trkpt lat="43.50515" lon="6.62047">
        <ele>73.5</ele>
        <time>2023-11-05T14:09:33Z</time>
      </trkpt>
      <trkpt lat="43.50515" lon="6.62046">
        <ele>73.6</ele>
        <time>2023-11-05T14:09:34Z</time>
      </trkpt>
      <trkpt lat="43.50516" lon="6.62046">
        <ele>73.6</ele>
        <time>2023-11-05T14:09:35Z</time>
      </trkpt>
      <trkpt lat="43.50517" lon="6.62046">
        <ele>73.7</ele>
        <time>2023-11-05T14:09:36Z</time>
      </trkpt>
      <trkpt lat="43.50517" lon="6.62045">
        <ele>73.7</ele>
        <time>2023-11-05T14:09:37Z</time>
      </trkpt>
      <trkpt lat="43.50517" lon="6.62045">
        <ele>73.7</ele>
        <time>2023-11-05T14:09:38Z</time>
      </trkpt>
      <trkpt lat="43.50517" lon="6.62045">
        <ele>73.8</ele>
        <time>2023-11-05T14:09:39Z</time>
      </trkpt>
      <trkpt lat="43.50517" lon="6.62045">
        <ele>73.8</ele>
        <time>2023-11-05T14:09:40Z</time>
      </trkpt>
      <trkpt lat="43.50517" lon="6.62045">
        <ele>73.8</ele>
        <time>2023-11-05T14:09:41Z</time>
      </trkpt>
      <trkpt lat="43.50518" lon="6.62045">
        <ele>73.9</ele>
        <time>2023-11-05T14:09:42Z</time>
      </trkpt>
      <trkpt lat="43.50518" lon="6.62045">
        <ele>73.9</ele>
        <time>2023-11-05T14:09:43Z</time>
      </trkpt>
      <trkpt lat="43.50518" lon="6.62045">
        <ele>74</ele>
        <time>2023-11-05T14:09:44Z</time>
      </trkpt>
      <trkpt lat="43.50518" lon="6.62045">
        <ele>74</ele>
        <time>2023-11-05T14:09:45Z</time>
      </trkpt>
      <trkpt lat="43.50518" lon="6.62045">
        <ele>73.9</ele>
        <time>2023-11-05T14:09:46Z</time>
      </trkpt>
      <trkpt lat="43.50519" lon="6.62045">
        <ele>73.9</ele>
        <time>2023-11-05T14:09:47Z</time>
      </trkpt>
      <trkpt lat="43.50519" lon="6.62045">
        <ele>73.9</ele>
        <time>2023-11-05T14:09:48Z</time>
      </trkpt>
      <trkpt lat="43.50519" lon="6.62045">
        <ele>73.9</ele>
        <time>2023-11-05T14:09:49Z</time>
      </trkpt>
      <trkpt lat="43.50519" lon="6.62045">
        <ele>73.9</ele>
        <time>2023-11-05T14:09:50Z</time>
      </trkpt>
      <trkpt lat="43.50519" lon="6.62045">
        <ele>73.9</ele>
        <time>2023-11-05T14:09:51Z</time>
      </trkpt>
      <trkpt lat="43.50519" lon="6.62045">
        <ele>74</ele>
        <time>2023-11-05T14:09:52Z</time>
      </trkpt>
      <trkpt lat="43.50518" lon="6.62045">
        <ele>73.9</ele>
        <time>2023-11-05T14:09:53Z</time>
      </trkpt>
      <trkpt lat="43.50518" lon="6.62045">
        <ele>73.9</ele>
        <time>2023-11-05T14:09:54Z</time>
      </trkpt>
      <trkpt lat="43.50519" lon="6.62045">
        <ele>73.9</ele>
        <time>2023-11-05T14:09:55Z</time>
      </trkpt>
      <trkpt lat="43.50519" lon="6.62045">
        <ele>73.9</ele>
        <time>2023-11-05T14:09:56Z</time>
      </trkpt>
      <trkpt lat="43.50518" lon="6.62045">
        <ele>73.9</ele>
        <time>2023-11-05T14:09:57Z</time>
      </trkpt>
      <trkpt lat="43.50518" lon="6.62045">
        <ele>73.9</ele>
        <time>2023-11-05T14:09:58Z</time>
      </trkpt>
      <trkpt lat="43.50518" lon="6.62045">
        <ele>73.9</ele>
        <time>2023-11-05T14:09:59Z</time>
      </trkpt>
      <trkpt lat="43.50518" lon="6.62045">
        <ele>73.9</ele>
        <time>2023-11-05T14:10:00Z</time>
      </trkpt>
      <trkpt lat="43.50518" lon="6.62045">
        <ele>74</ele>
        <time>2023-11-05T14:10:01Z</time>
      </trkpt>
      <trkpt lat="43.50518" lon="6.62045">
        <ele>74</ele>
        <time>2023-11-05T14:10:02Z</time>
      </trkpt>
      <trkpt lat="43.50518" lon="6.62045">
        <ele>74</ele>
        <time>2023-11-05T14:10:03Z</time>
      </trkpt>
      <trkpt lat="43.50518" lon="6.62045">
        <ele>73.9</ele>
        <time>2023-11-05T14:10:04Z</time>
      </trkpt>
      <trkpt lat="43.50518" lon="6.62045">
        <ele>73.9</ele>
        <time>2023-11-05T14:10:05Z</time>
      </trkpt>
      <trkpt lat="43.50518" lon="6.62045">
        <ele>73.9</ele>
        <time>2023-11-05T14:10:06Z</time>
      </trkpt>
      <trkpt lat="43.50518" lon="6.62045">
        <ele>73.8</ele>
        <time>2023-11-05T14:10:07Z</time>
      </trkpt>
      <trkpt lat="43.50518" lon="6.62045">
        <ele>73.9</ele>
        <time>2023-11-05T14:10:08Z</time>
      </trkpt>
      <trkpt lat="43.50518" lon="6.62045">
        <ele>73.9</ele>
        <time>2023-11-05T14:10:09Z</time>
      </trkpt>
      <trkpt lat="43.50518" lon="6.62045">
        <ele>73.9</ele>
        <time>2023-11-05T14:10:10Z</time>
      </trkpt>
      <trkpt lat="43.50518" lon="6.62045">
        <ele>73.9</ele>
        <time>2023-11-05T14:10:11Z</time>
      </trkpt>
      <trkpt lat="43.50517" lon="6.62045">
        <ele>73.9</ele>
        <time>2023-11-05T14:10:12Z</time>
      </trkpt>
      <trkpt lat="43.50517" lon="6.62045">
        <ele>74</ele>
        <time>2023-11-05T14:10:13Z</time>
      </trkpt>
      <trkpt lat="43.50517" lon="6.62045">
        <ele>74.1</ele>
        <time>2023-11-05T14:10:14Z</time>
      </trkpt>
      <trkpt lat="43.50517" lon="6.62045">
        <ele>74.2</ele>
        <time>2023-11-05T14:10:15Z</time>
      </trkpt>
      <trkpt lat="43.50517" lon="6.62045">
        <ele>74.2</ele>
        <time>2023-11-05T14:10:16Z</time>
      </trkpt>
      <trkpt lat="43.50517" lon="6.62045">
        <ele>74.2</ele>
        <time>2023-11-05T14:10:17Z</time>
      </trkpt>
      <trkpt lat="43.50517" lon="6.62045">
        <ele>74.1</ele>
        <time>2023-11-05T14:10:18Z</time>
      </trkpt>
      <trkpt lat="43.50517" lon="6.62045">
        <ele>74.1</ele>
        <time>2023-11-05T14:10:19Z</time>
      </trkpt>
      <trkpt lat="43.50517" lon="6.62045">
        <ele>74.1</ele>
        <time>2023-11-05T14:10:20Z</time>
      </trkpt>
      <trkpt lat="43.50517" lon="6.62045">
        <ele>74.2</ele>
        <time>2023-11-05T14:10:21Z</time>
      </trkpt>
      <trkpt lat="43.50517" lon="6.62045">
        <ele>74.2</ele>
        <time>2023-11-05T14:10:22Z</time>
      </trkpt>
      <trkpt lat="43.50517" lon="6.62045">
        <ele>74.2</ele>
        <time>2023-11-05T14:10:23Z</time>
      </trkpt>
      <trkpt lat="43.50517" lon="6.62045">
        <ele>74.1</ele>
        <time>2023-11-05T14:10:24Z</time>
      </trkpt>
      <trkpt lat="43.50517" lon="6.62045">
        <ele>74.3</ele>
        <time>2023-11-05T14:10:25Z</time>
      </trkpt>
      <trkpt lat="43.50516" lon="6.62045">
        <ele>74.3</ele>
        <time>2023-11-05T14:10:26Z</time>
      </trkpt>
      <trkpt lat="43.50516" lon="6.62045">
        <ele>74.3</ele>
        <time>2023-11-05T14:10:27Z</time>
      </trkpt>
      <trkpt lat="43.50516" lon="6.62045">
        <ele>74.3</ele>
        <time>2023-11-05T14:10:28Z</time>
      </trkpt>
      <trkpt lat="43.50516" lon="6.62044">
        <ele>74.3</ele>
        <time>2023-11-05T14:10:29Z</time>
      </trkpt>
      <trkpt lat="43.50516" lon="6.62044">
        <ele>74.3</ele>
        <time>2023-11-05T14:10:30Z</time>
      </trkpt>
      <trkpt lat="43.50516" lon="6.62044">
        <ele>74.3</ele>
        <time>2023-11-05T14:10:31Z</time>
      </trkpt>
      <trkpt lat="43.50516" lon="6.62044">
        <ele>74.4</ele>
        <time>2023-11-05T14:10:32Z</time>
      </trkpt>
      <trkpt lat="43.50516" lon="6.62044">
        <ele>74.4</ele>
        <time>2023-11-05T14:10:33Z</time>
      </trkpt>
      <trkpt lat="43.50516" lon="6.62044">
        <ele>74.5</ele>
        <time>2023-11-05T14:10:34Z</time>
      </trkpt>
      <trkpt lat="43.50516" lon="6.62044">
        <ele>74.6</ele>
        <time>2023-11-05T14:10:35Z</time>
      </trkpt>
      <trkpt lat="43.50516" lon="6.62044">
        <ele>74.5</ele>
        <time>2023-11-05T14:10:36Z</time>
      </trkpt>
      <trkpt lat="43.50516" lon="6.62044">
        <ele>74.5</ele>
        <time>2023-11-05T14:10:37Z</time>
      </trkpt>
      <trkpt lat="43.50516" lon="6.62044">
        <ele>74.5</ele>
        <time>2023-11-05T14:10:38Z</time>
      </trkpt>
      <trkpt lat="43.50516" lon="6.62044">
        <ele>74.5</ele>
        <time>2023-11-05T14:10:39Z</time>
      </trkpt>
      <trkpt lat="43.50516" lon="6.62044">
        <ele>74.5</ele>
        <time>2023-11-05T14:10:40Z</time>
      </trkpt>
      <trkpt lat="43.50516" lon="6.62043">
        <ele>74.5</ele>
        <time>2023-11-05T14:10:41Z</time>
      </trkpt>
      <trkpt lat="43.50517" lon="6.62043">
        <ele>74.4</ele>
        <time>2023-11-05T14:10:42Z</time>
      </trkpt>
      <trkpt lat="43.50518" lon="6.62043">
        <ele>74.5</ele>
        <time>2023-11-05T14:10:43Z</time>
      </trkpt>
      <trkpt lat="43.50518" lon="6.62043">
        <ele>74.4</ele>
        <time>2023-11-05T14:10:44Z</time>
      </trkpt>
      <trkpt lat="43.50519" lon="6.62043">
        <ele>74.3</ele>
        <time>2023-11-05T14:10:45Z</time>
      </trkpt>
      <trkpt lat="43.5052" lon="6.62042">
        <ele>74.3</ele>
        <time>2023-11-05T14:10:46Z</time>
      </trkpt>
      <trkpt lat="43.50521" lon="6.62041">
        <ele>74.3</ele>
        <time>2023-11-05T14:10:47Z</time>
      </trkpt>
      <trkpt lat="43.50521" lon="6.62041">
        <ele>74.4</ele>
        <time>2023-11-05T14:10:48Z</time>
      </trkpt>
      <trkpt lat="43.50522" lon="6.62041">
        <ele>74.5</ele>
        <time>2023-11-05T14:10:49Z</time>
      </trkpt>
      <trkpt lat="43.50523" lon="6.6204">
        <ele>74.4</ele>
        <time>2023-11-05T14:10:50Z</time>
      </trkpt>
      <trkpt lat="43.50524" lon="6.6204">
        <ele>74.3</ele>
        <time>2023-11-05T14:10:51Z</time>
      </trkpt>
      <trkpt lat="43.50525" lon="6.62039">
        <ele>74.3</ele>
        <time>2023-11-05T14:10:52Z</time>
      </trkpt>
      <trkpt lat="43.50526" lon="6.62039">
        <ele>74.3</ele>
        <time>2023-11-05T14:10:53Z</time>
      </trkpt>
      <trkpt lat="43.50526" lon="6.62039">
        <ele>74.2</ele>
        <time>2023-11-05T14:10:54Z</time>
      </trkpt>
      <trkpt lat="43.50528" lon="6.62038">
        <ele>74.2</ele>
        <time>2023-11-05T14:10:55Z</time>
      </trkpt>
      <trkpt lat="43.50529" lon="6.62038">
        <ele>74.1</ele>
        <time>2023-11-05T14:10:56Z</time>
      </trkpt>
      <trkpt lat="43.5053" lon="6.62037">
        <ele>74</ele>
        <time>2023-11-05T14:10:57Z</time>
      </trkpt>
      <trkpt lat="43.50531" lon="6.62037">
        <ele>73.9</ele>
        <time>2023-11-05T14:10:58Z</time>
      </trkpt>
      <trkpt lat="43.50532" lon="6.62037">
        <ele>73.8</ele>
        <time>2023-11-05T14:10:59Z</time>
      </trkpt>
      <trkpt lat="43.50533" lon="6.62036">
        <ele>73.8</ele>
        <time>2023-11-05T14:11:00Z</time>
      </trkpt>
      <trkpt lat="43.50534" lon="6.62036">
        <ele>73.7</ele>
        <time>2023-11-05T14:11:01Z</time>
      </trkpt>
      <trkpt lat="43.50535" lon="6.62036">
        <ele>73.7</ele>
        <time>2023-11-05T14:11:02Z</time>
      </trkpt>
      <trkpt lat="43.50536" lon="6.62035">
        <ele>73.7</ele>
        <time>2023-11-05T14:11:03Z</time>
      </trkpt>
      <trkpt lat="43.50537" lon="6.62035">
        <ele>73.7</ele>
        <time>2023-11-05T14:11:04Z</time>
      </trkpt>
      <trkpt lat="43.50538" lon="6.62035">
        <ele>73.7</ele>
        <time>2023-11-05T14:11:05Z</time>
      </trkpt>
      <trkpt lat="43.50539" lon="6.62034">
        <ele>73.7</ele>
        <time>2023-11-05T14:11:06Z</time>
      </trkpt>
      <trkpt lat="43.50541" lon="6.62034">
        <ele>73.7</ele>
        <time>2023-11-05T14:11:07Z</time>
      </trkpt>
      <trkpt lat="43.50542" lon="6.62033">
        <ele>73.6</ele>
        <time>2023-11-05T14:11:08Z</time>
      </trkpt>
      <trkpt lat="43.50543" lon="6.62033">
        <ele>73.7</ele>
        <time>2023-11-05T14:11:09Z</time>
      </trkpt>
      <trkpt lat="43.50544" lon="6.62032">
        <ele>73.7</ele>
        <time>2023-11-05T14:11:10Z</time>
      </trkpt>
      <trkpt lat="43.50545" lon="6.62032">
        <ele>73.7</ele>
        <time>2023-11-05T14:11:11Z</time>
      </trkpt>
      <trkpt lat="43.50546" lon="6.62032">
        <ele>73.6</ele>
        <time>2023-11-05T14:11:12Z</time>
      </trkpt>
      <trkpt lat="43.50547" lon="6.62031">
        <ele>73.5</ele>
        <time>2023-11-05T14:11:13Z</time>
      </trkpt>
      <trkpt lat="43.50548" lon="6.62031">
        <ele>73.4</ele>
        <time>2023-11-05T14:11:14Z</time>
      </trkpt>
      <trkpt lat="43.50549" lon="6.62031">
        <ele>73.3</ele>
        <time>2023-11-05T14:11:15Z</time>
      </trkpt>
      <trkpt lat="43.5055" lon="6.6203">
        <ele>73.2</ele>
        <time>2023-11-05T14:11:16Z</time>
      </trkpt>
      <trkpt lat="43.50551" lon="6.6203">
        <ele>73.1</ele>
        <time>2023-11-05T14:11:17Z</time>
      </trkpt>
      <trkpt lat="43.50552" lon="6.6203">
        <ele>73.1</ele>
        <time>2023-11-05T14:11:18Z</time>
      </trkpt>
      <trkpt lat="43.50553" lon="6.62029">
        <ele>73.2</ele>
        <time>2023-11-05T14:11:19Z</time>
      </trkpt>
      <trkpt lat="43.50554" lon="6.62029">
        <ele>73.3</ele>
        <time>2023-11-05T14:11:20Z</time>
      </trkpt>
      <trkpt lat="43.50555" lon="6.62028">
        <ele>73.4</ele>
        <time>2023-11-05T14:11:21Z</time>
      </trkpt>
      <trkpt lat="43.50556" lon="6.62028">
        <ele>73.4</ele>
        <time>2023-11-05T14:11:22Z</time>
      </trkpt>
      <trkpt lat="43.50557" lon="6.62027">
        <ele>73.5</ele>
        <time>2023-11-05T14:11:23Z</time>
      </trkpt>
      <trkpt lat="43.50559" lon="6.62027">
        <ele>73.3</ele>
        <time>2023-11-05T14:11:24Z</time>
      </trkpt>
      <trkpt lat="43.5056" lon="6.62026">
        <ele>73.2</ele>
        <time>2023-11-05T14:11:25Z</time>
      </trkpt>
      <trkpt lat="43.50561" lon="6.62025">
        <ele>73.3</ele>
        <time>2023-11-05T14:11:26Z</time>
      </trkpt>
      <trkpt lat="43.50562" lon="6.62025">
        <ele>73.4</ele>
        <time>2023-11-05T14:11:27Z</time>
      </trkpt>
      <trkpt lat="43.50563" lon="6.62024">
        <ele>73.4</ele>
        <time>2023-11-05T14:11:28Z</time>
      </trkpt>
      <trkpt lat="43.50564" lon="6.62023">
        <ele>73.4</ele>
        <time>2023-11-05T14:11:29Z</time>
      </trkpt>
      <trkpt lat="43.50565" lon="6.62022">
        <ele>73.4</ele>
        <time>2023-11-05T14:11:30Z</time>
      </trkpt>
      <trkpt lat="43.50566" lon="6.62021">
        <ele>73.5</ele>
        <time>2023-11-05T14:11:31Z</time>
      </trkpt>
      <trkpt lat="43.50567" lon="6.6202">
        <ele>73.5</ele>
        <time>2023-11-05T14:11:32Z</time>
      </trkpt>
      <trkpt lat="43.50569" lon="6.6202">
        <ele>73.4</ele>
        <time>2023-11-05T14:11:33Z</time>
      </trkpt>
      <trkpt lat="43.5057" lon="6.62019">
        <ele>73.5</ele>
        <time>2023-11-05T14:11:34Z</time>
      </trkpt>
      <trkpt lat="43.50571" lon="6.62019">
        <ele>73.4</ele>
        <time>2023-11-05T14:11:35Z</time>
      </trkpt>
      <trkpt lat="43.50572" lon="6.62018">
        <ele>73.4</ele>
        <time>2023-11-05T14:11:36Z</time>
      </trkpt>
      <trkpt lat="43.50573" lon="6.62017">
        <ele>73.3</ele>
        <time>2023-11-05T14:11:37Z</time>
      </trkpt>
      <trkpt lat="43.50574" lon="6.62017">
        <ele>73.4</ele>
        <time>2023-11-05T14:11:38Z</time>
      </trkpt>
      <trkpt lat="43.50575" lon="6.62017">
        <ele>73.4</ele>
        <time>2023-11-05T14:11:39Z</time>
      </trkpt>
      <trkpt lat="43.50576" lon="6.62016">
        <ele>73.4</ele>
        <time>2023-11-05T14:11:40Z</time>
      </trkpt>
      <trkpt lat="43.50577" lon="6.62015">
        <ele>73.3</ele>
        <time>2023-11-05T14:11:41Z</time>
      </trkpt>
      <trkpt lat="43.50578" lon="6.62014">
        <ele>73.3</ele>
        <time>2023-11-05T14:11:42Z</time>
      </trkpt>
      <trkpt lat="43.50579" lon="6.62014">
        <ele>73.4</ele>
        <time>2023-11-05T14:11:43Z</time>
      </trkpt>
      <trkpt lat="43.5058" lon="6.62013">
        <ele>73.4</ele>
        <time>2023-11-05T14:11:44Z</time>
      </trkpt>
      <trkpt lat="43.50582" lon="6.62013">
        <ele>73.4</ele>
        <time>2023-11-05T14:11:45Z</time>
      </trkpt>
      <trkpt lat="43.50583" lon="6.62013">
        <ele>73.4</ele>
        <time>2023-11-05T14:11:46Z</time>
      </trkpt>
      <trkpt lat="43.50584" lon="6.62012">
        <ele>73.4</ele>
        <time>2023-11-05T14:11:47Z</time>
      </trkpt>
      <trkpt lat="43.50585" lon="6.62012">
        <ele>73.5</ele>
        <time>2023-11-05T14:11:48Z</time>
      </trkpt>
      <trkpt lat="43.50586" lon="6.62011">
        <ele>73.5</ele>
        <time>2023-11-05T14:11:49Z</time>
      </trkpt>
      <trkpt lat="43.50587" lon="6.6201">
        <ele>73.6</ele>
        <time>2023-11-05T14:11:50Z</time>
      </trkpt>
      <trkpt lat="43.50588" lon="6.62009">
        <ele>73.6</ele>
        <time>2023-11-05T14:11:51Z</time>
      </trkpt>
      <trkpt lat="43.5059" lon="6.62009">
        <ele>73.7</ele>
        <time>2023-11-05T14:11:52Z</time>
      </trkpt>
      <trkpt lat="43.50591" lon="6.62008">
        <ele>73.7</ele>
        <time>2023-11-05T14:11:53Z</time>
      </trkpt>
      <trkpt lat="43.50591" lon="6.62008">
        <ele>73.7</ele>
        <time>2023-11-05T14:11:54Z</time>
      </trkpt>
      <trkpt lat="43.50592" lon="6.62007">
        <ele>73.8</ele>
        <time>2023-11-05T14:11:55Z</time>
      </trkpt>
      <trkpt lat="43.50593" lon="6.62007">
        <ele>73.9</ele>
        <time>2023-11-05T14:11:56Z</time>
      </trkpt>
      <trkpt lat="43.50594" lon="6.62006">
        <ele>73.9</ele>
        <time>2023-11-05T14:11:57Z</time>
      </trkpt>
      <trkpt lat="43.50595" lon="6.62005">
        <ele>73.9</ele>
        <time>2023-11-05T14:11:58Z</time>
      </trkpt>
      <trkpt lat="43.50596" lon="6.62005">
        <ele>74</ele>
        <time>2023-11-05T14:11:59Z</time>
      </trkpt>
      <trkpt lat="43.50597" lon="6.62004">
        <ele>74</ele>
        <time>2023-11-05T14:12:00Z</time>
      </trkpt>
      <trkpt lat="43.50598" lon="6.62004">
        <ele>74</ele>
        <time>2023-11-05T14:12:01Z</time>
      </trkpt>
      <trkpt lat="43.50599" lon="6.62003">
        <ele>74</ele>
        <time>2023-11-05T14:12:02Z</time>
      </trkpt>
      <trkpt lat="43.506" lon="6.62002">
        <ele>73.9</ele>
        <time>2023-11-05T14:12:03Z</time>
      </trkpt>
      <trkpt lat="43.50601" lon="6.62002">
        <ele>73.9</ele>
        <time>2023-11-05T14:12:04Z</time>
      </trkpt>
      <trkpt lat="43.50602" lon="6.62001">
        <ele>73.8</ele>
        <time>2023-11-05T14:12:05Z</time>
      </trkpt>
      <trkpt lat="43.50603" lon="6.62001">
        <ele>73.8</ele>
        <time>2023-11-05T14:12:06Z</time>
      </trkpt>
      <trkpt lat="43.50604" lon="6.62">
        <ele>73.8</ele>
        <time>2023-11-05T14:12:07Z</time>
      </trkpt>
      <trkpt lat="43.50605" lon="6.62">
        <ele>73.9</ele>
        <time>2023-11-05T14:12:08Z</time>
      </trkpt>
      <trkpt lat="43.50606" lon="6.61999">
        <ele>73.9</ele>
        <time>2023-11-05T14:12:09Z</time>
      </trkpt>
      <trkpt lat="43.50607" lon="6.61999">
        <ele>74</ele>
        <time>2023-11-05T14:12:10Z</time>
      </trkpt>
      <trkpt lat="43.50608" lon="6.61998">
        <ele>74.1</ele>
        <time>2023-11-05T14:12:11Z</time>
      </trkpt>
      <trkpt lat="43.50609" lon="6.61997">
        <ele>74.2</ele>
        <time>2023-11-05T14:12:12Z</time>
      </trkpt>
      <trkpt lat="43.5061" lon="6.61997">
        <ele>74.4</ele>
        <time>2023-11-05T14:12:13Z</time>
      </trkpt>
      <trkpt lat="43.50611" lon="6.61997">
        <ele>74.4</ele>
        <time>2023-11-05T14:12:14Z</time>
      </trkpt>
      <trkpt lat="43.50612" lon="6.61997">
        <ele>74.5</ele>
        <time>2023-11-05T14:12:15Z</time>
      </trkpt>
      <trkpt lat="43.50613" lon="6.61996">
        <ele>74.5</ele>
        <time>2023-11-05T14:12:16Z</time>
      </trkpt>
      <trkpt lat="43.50614" lon="6.61995">
        <ele>74.5</ele>
        <time>2023-11-05T14:12:17Z</time>
      </trkpt>
      <trkpt lat="43.50615" lon="6.61995">
        <ele>74.6</ele>
        <time>2023-11-05T14:12:18Z</time>
      </trkpt>
      <trkpt lat="43.50616" lon="6.61994">
        <ele>74.6</ele>
        <time>2023-11-05T14:12:19Z</time>
      </trkpt>
      <trkpt lat="43.50617" lon="6.61994">
        <ele>74.6</ele>
        <time>2023-11-05T14:12:20Z</time>
      </trkpt>
      <trkpt lat="43.50618" lon="6.61993">
        <ele>74.6</ele>
        <time>2023-11-05T14:12:21Z</time>
      </trkpt>
      <trkpt lat="43.50619" lon="6.61993">
        <ele>74.6</ele>
        <time>2023-11-05T14:12:22Z</time>
      </trkpt>
      <trkpt lat="43.50619" lon="6.61992">
        <ele>74.6</ele>
        <time>2023-11-05T14:12:23Z</time>
      </trkpt>
      <trkpt lat="43.5062" lon="6.61991">
        <ele>74.6</ele>
        <time>2023-11-05T14:12:24Z</time>
      </trkpt>
      <trkpt lat="43.50621" lon="6.6199">
        <ele>74.7</ele>
        <time>2023-11-05T14:12:25Z</time>
      </trkpt>
      <trkpt lat="43.50623" lon="6.6199">
        <ele>74.7</ele>
        <time>2023-11-05T14:12:26Z</time>
      </trkpt>
      <trkpt lat="43.50624" lon="6.61989">
        <ele>74.6</ele>
        <time>2023-11-05T14:12:27Z</time>
      </trkpt>
      <trkpt lat="43.50625" lon="6.61988">
        <ele>74.5</ele>
        <time>2023-11-05T14:12:28Z</time>
      </trkpt>
      <trkpt lat="43.50626" lon="6.61987">
        <ele>74.5</ele>
        <time>2023-11-05T14:12:29Z</time>
      </trkpt>
      <trkpt lat="43.50627" lon="6.61987">
        <ele>74.4</ele>
        <time>2023-11-05T14:12:30Z</time>
      </trkpt>
      <trkpt lat="43.50628" lon="6.61987">
        <ele>74.4</ele>
        <time>2023-11-05T14:12:31Z</time>
      </trkpt>
      <trkpt lat="43.50629" lon="6.61986">
        <ele>74.5</ele>
        <time>2023-11-05T14:12:32Z</time>
      </trkpt>
      <trkpt lat="43.5063" lon="6.61986">
        <ele>74.6</ele>
        <time>2023-11-05T14:12:33Z</time>
      </trkpt>
      <trkpt lat="43.50632" lon="6.61985">
        <ele>74.6</ele>
        <time>2023-11-05T14:12:34Z</time>
      </trkpt>
      <trkpt lat="43.50633" lon="6.61984">
        <ele>74.7</ele>
        <time>2023-11-05T14:12:35Z</time>
      </trkpt>
      <trkpt lat="43.50634" lon="6.61983">
        <ele>74.7</ele>
        <time>2023-11-05T14:12:36Z</time>
      </trkpt>
      <trkpt lat="43.50635" lon="6.61982">
        <ele>74.7</ele>
        <time>2023-11-05T14:12:37Z</time>
      </trkpt>
      <trkpt lat="43.50636" lon="6.61981">
        <ele>74.8</ele>
        <time>2023-11-05T14:12:38Z</time>
      </trkpt>
      <trkpt lat="43.50637" lon="6.61981">
        <ele>74.9</ele>
        <time>2023-11-05T14:12:39Z</time>
      </trkpt>
      <trkpt lat="43.50638" lon="6.61981">
        <ele>75</ele>
        <time>2023-11-05T14:12:40Z</time>
      </trkpt>
      <trkpt lat="43.50639" lon="6.6198">
        <ele>75.1</ele>
        <time>2023-11-05T14:12:41Z</time>
      </trkpt>
      <trkpt lat="43.50639" lon="6.61979">
        <ele>75.2</ele>
        <time>2023-11-05T14:12:42Z</time>
      </trkpt>
      <trkpt lat="43.50641" lon="6.61978">
        <ele>75.2</ele>
        <time>2023-11-05T14:12:43Z</time>
      </trkpt>
      <trkpt lat="43.50642" lon="6.61977">
        <ele>75.4</ele>
        <time>2023-11-05T14:12:44Z</time>
      </trkpt>
      <trkpt lat="43.50643" lon="6.61977">
        <ele>75.5</ele>
        <time>2023-11-05T14:12:45Z</time>
      </trkpt>
      <trkpt lat="43.50644" lon="6.61976">
        <ele>75.6</ele>
        <time>2023-11-05T14:12:46Z</time>
      </trkpt>
      <trkpt lat="43.50644" lon="6.61976">
        <ele>75.7</ele>
        <time>2023-11-05T14:12:47Z</time>
      </trkpt>
      <trkpt lat="43.50645" lon="6.61975">
        <ele>75.8</ele>
        <time>2023-11-05T14:12:48Z</time>
      </trkpt>
      <trkpt lat="43.50646" lon="6.61975">
        <ele>75.9</ele>
        <time>2023-11-05T14:12:49Z</time>
      </trkpt>
      <trkpt lat="43.50647" lon="6.61974">
        <ele>76</ele>
        <time>2023-11-05T14:12:50Z</time>
      </trkpt>
      <trkpt lat="43.50649" lon="6.61974">
        <ele>76</ele>
        <time>2023-11-05T14:12:51Z</time>
      </trkpt>
      <trkpt lat="43.5065" lon="6.61973">
        <ele>76</ele>
        <time>2023-11-05T14:12:52Z</time>
      </trkpt>
      <trkpt lat="43.50651" lon="6.61973">
        <ele>76</ele>
        <time>2023-11-05T14:12:53Z</time>
      </trkpt>
      <trkpt lat="43.50652" lon="6.61972">
        <ele>76.2</ele>
        <time>2023-11-05T14:12:54Z</time>
      </trkpt>
      <trkpt lat="43.50653" lon="6.61971">
        <ele>76.3</ele>
        <time>2023-11-05T14:12:55Z</time>
      </trkpt>
      <trkpt lat="43.50653" lon="6.6197">
        <ele>76.4</ele>
        <time>2023-11-05T14:12:56Z</time>
      </trkpt>
      <trkpt lat="43.50655" lon="6.6197">
        <ele>76.5</ele>
        <time>2023-11-05T14:12:57Z</time>
      </trkpt>
      <trkpt lat="43.50656" lon="6.61969">
        <ele>76.6</ele>
        <time>2023-11-05T14:12:58Z</time>
      </trkpt>
      <trkpt lat="43.50657" lon="6.61968">
        <ele>76.7</ele>
        <time>2023-11-05T14:12:59Z</time>
      </trkpt>
      <trkpt lat="43.50658" lon="6.61968">
        <ele>76.8</ele>
        <time>2023-11-05T14:13:00Z</time>
      </trkpt>
      <trkpt lat="43.50659" lon="6.61967">
        <ele>76.9</ele>
        <time>2023-11-05T14:13:01Z</time>
      </trkpt>
      <trkpt lat="43.5066" lon="6.61967">
        <ele>77</ele>
        <time>2023-11-05T14:13:02Z</time>
      </trkpt>
      <trkpt lat="43.50661" lon="6.61966">
        <ele>77.1</ele>
        <time>2023-11-05T14:13:03Z</time>
      </trkpt>
      <trkpt lat="43.50662" lon="6.61966">
        <ele>77.1</ele>
        <time>2023-11-05T14:13:04Z</time>
      </trkpt>
      <trkpt lat="43.50663" lon="6.61965">
        <ele>77.2</ele>
        <time>2023-11-05T14:13:05Z</time>
      </trkpt>
      <trkpt lat="43.50664" lon="6.61965">
        <ele>77.3</ele>
        <time>2023-11-05T14:13:06Z</time>
      </trkpt>
      <trkpt lat="43.50665" lon="6.61964">
        <ele>77.4</ele>
        <time>2023-11-05T14:13:07Z</time>
      </trkpt>
      <trkpt lat="43.50666" lon="6.61964">
        <ele>77.3</ele>
        <time>2023-11-05T14:13:08Z</time>
      </trkpt>
      <trkpt lat="43.50667" lon="6.61964">
        <ele>77.3</ele>
        <time>2023-11-05T14:13:09Z</time>
      </trkpt>
      <trkpt lat="43.50668" lon="6.61963">
        <ele>77.4</ele>
        <time>2023-11-05T14:13:10Z</time>
      </trkpt>
      <trkpt lat="43.50669" lon="6.61963">
        <ele>77.5</ele>
        <time>2023-11-05T14:13:11Z</time>
      </trkpt>
      <trkpt lat="43.5067" lon="6.61963">
        <ele>77.6</ele>
        <time>2023-11-05T14:13:12Z</time>
      </trkpt>
      <trkpt lat="43.50671" lon="6.61963">
        <ele>77.7</ele>
        <time>2023-11-05T14:13:13Z</time>
      </trkpt>
      <trkpt lat="43.50672" lon="6.61963">
        <ele>77.7</ele>
        <time>2023-11-05T14:13:14Z</time>
      </trkpt>
      <trkpt lat="43.50673" lon="6.61962">
        <ele>77.8</ele>
        <time>2023-11-05T14:13:15Z</time>
      </trkpt>
      <trkpt lat="43.50674" lon="6.61962">
        <ele>77.8</ele>
        <time>2023-11-05T14:13:16Z</time>
      </trkpt>
      <trkpt lat="43.50675" lon="6.61962">
        <ele>77.8</ele>
        <time>2023-11-05T14:13:17Z</time>
      </trkpt>
      <trkpt lat="43.50676" lon="6.61962">
        <ele>77.8</ele>
        <time>2023-11-05T14:13:18Z</time>
      </trkpt>
      <trkpt lat="43.50677" lon="6.61962">
        <ele>77.8</ele>
        <time>2023-11-05T14:13:19Z</time>
      </trkpt>
      <trkpt lat="43.50678" lon="6.61962">
        <ele>77.9</ele>
        <time>2023-11-05T14:13:20Z</time>
      </trkpt>
      <trkpt lat="43.50679" lon="6.61962">
        <ele>78</ele>
        <time>2023-11-05T14:13:21Z</time>
      </trkpt>
      <trkpt lat="43.50681" lon="6.61962">
        <ele>78</ele>
        <time>2023-11-05T14:13:22Z</time>
      </trkpt>
      <trkpt lat="43.50682" lon="6.61962">
        <ele>78.2</ele>
        <time>2023-11-05T14:13:23Z</time>
      </trkpt>
      <trkpt lat="43.50683" lon="6.61963">
        <ele>78.3</ele>
        <time>2023-11-05T14:13:24Z</time>
      </trkpt>
      <trkpt lat="43.50684" lon="6.61963">
        <ele>78.4</ele>
        <time>2023-11-05T14:13:25Z</time>
      </trkpt>
      <trkpt lat="43.50685" lon="6.61964">
        <ele>78.5</ele>
        <time>2023-11-05T14:13:26Z</time>
      </trkpt>
      <trkpt lat="43.50686" lon="6.61964">
        <ele>78.5</ele>
        <time>2023-11-05T14:13:27Z</time>
      </trkpt>
      <trkpt lat="43.50687" lon="6.61964">
        <ele>78.5</ele>
        <time>2023-11-05T14:13:28Z</time>
      </trkpt>
      <trkpt lat="43.50688" lon="6.61965">
        <ele>78.6</ele>
        <time>2023-11-05T14:13:29Z</time>
      </trkpt>
      <trkpt lat="43.50689" lon="6.61965">
        <ele>78.7</ele>
        <time>2023-11-05T14:13:30Z</time>
      </trkpt>
      <trkpt lat="43.50689" lon="6.61966">
        <ele>78.7</ele>
        <time>2023-11-05T14:13:31Z</time>
      </trkpt>
      <trkpt lat="43.50691" lon="6.61966">
        <ele>78.7</ele>
        <time>2023-11-05T14:13:32Z</time>
      </trkpt>
      <trkpt lat="43.50692" lon="6.61967">
        <ele>78.8</ele>
        <time>2023-11-05T14:13:33Z</time>
      </trkpt>
      <trkpt lat="43.50693" lon="6.61967">
        <ele>78.8</ele>
        <time>2023-11-05T14:13:34Z</time>
      </trkpt>
      <trkpt lat="43.50694" lon="6.61967">
        <ele>78.9</ele>
        <time>2023-11-05T14:13:35Z</time>
      </trkpt>
      <trkpt lat="43.50695" lon="6.61967">
        <ele>79</ele>
        <time>2023-11-05T14:13:36Z</time>
      </trkpt>
      <trkpt lat="43.50696" lon="6.61968">
        <ele>78.9</ele>
        <time>2023-11-05T14:13:37Z</time>
      </trkpt>
      <trkpt lat="43.50697" lon="6.61968">
        <ele>78.9</ele>
        <time>2023-11-05T14:13:38Z</time>
      </trkpt>
      <trkpt lat="43.50698" lon="6.61969">
        <ele>79</ele>
        <time>2023-11-05T14:13:39Z</time>
      </trkpt>
      <trkpt lat="43.50699" lon="6.61969">
        <ele>79</ele>
        <time>2023-11-05T14:13:40Z</time>
      </trkpt>
      <trkpt lat="43.507" lon="6.6197">
        <ele>79</ele>
        <time>2023-11-05T14:13:41Z</time>
      </trkpt>
      <trkpt lat="43.50701" lon="6.6197">
        <ele>79.1</ele>
        <time>2023-11-05T14:13:42Z</time>
      </trkpt>
      <trkpt lat="43.50702" lon="6.61971">
        <ele>79.1</ele>
        <time>2023-11-05T14:13:43Z</time>
      </trkpt>
      <trkpt lat="43.50703" lon="6.61971">
        <ele>79</ele>
        <time>2023-11-05T14:13:44Z</time>
      </trkpt>
      <trkpt lat="43.50704" lon="6.61971">
        <ele>79.1</ele>
        <time>2023-11-05T14:13:45Z</time>
      </trkpt>
      <trkpt lat="43.50705" lon="6.61972">
        <ele>79.2</ele>
        <time>2023-11-05T14:13:46Z</time>
      </trkpt>
      <trkpt lat="43.50706" lon="6.61973">
        <ele>79.4</ele>
        <time>2023-11-05T14:13:47Z</time>
      </trkpt>
      <trkpt lat="43.50707" lon="6.61973">
        <ele>79.3</ele>
        <time>2023-11-05T14:13:48Z</time>
      </trkpt>
      <trkpt lat="43.50708" lon="6.61974">
        <ele>79.3</ele>
        <time>2023-11-05T14:13:49Z</time>
      </trkpt>
      <trkpt lat="43.50709" lon="6.61975">
        <ele>79.3</ele>
        <time>2023-11-05T14:13:50Z</time>
      </trkpt>
      <trkpt lat="43.5071" lon="6.61975">
        <ele>79.3</ele>
        <time>2023-11-05T14:13:51Z</time>
      </trkpt>
      <trkpt lat="43.50711" lon="6.61976">
        <ele>79.3</ele>
        <time>2023-11-05T14:13:52Z</time>
      </trkpt>
      <trkpt lat="43.50712" lon="6.61977">
        <ele>79.5</ele>
        <time>2023-11-05T14:13:53Z</time>
      </trkpt>
      <trkpt lat="43.50713" lon="6.61978">
        <ele>79.6</ele>
        <time>2023-11-05T14:13:54Z</time>
      </trkpt>
      <trkpt lat="43.50714" lon="6.61978">
        <ele>79.7</ele>
        <time>2023-11-05T14:13:55Z</time>
      </trkpt>
      <trkpt lat="43.50715" lon="6.61978">
        <ele>79.8</ele>
        <time>2023-11-05T14:13:56Z</time>
      </trkpt>
      <trkpt lat="43.50716" lon="6.61979">
        <ele>79.8</ele>
        <time>2023-11-05T14:13:57Z</time>
      </trkpt>
      <trkpt lat="43.50717" lon="6.61979">
        <ele>79.7</ele>
        <time>2023-11-05T14:13:58Z</time>
      </trkpt>
      <trkpt lat="43.50718" lon="6.6198">
        <ele>79.7</ele>
        <time>2023-11-05T14:13:59Z</time>
      </trkpt>
      <trkpt lat="43.50719" lon="6.61981">
        <ele>79.7</ele>
        <time>2023-11-05T14:14:00Z</time>
      </trkpt>
      <trkpt lat="43.5072" lon="6.61981">
        <ele>79.6</ele>
        <time>2023-11-05T14:14:01Z</time>
      </trkpt>
      <trkpt lat="43.50721" lon="6.61982">
        <ele>79.6</ele>
        <time>2023-11-05T14:14:02Z</time>
      </trkpt>
      <trkpt lat="43.50722" lon="6.61982">
        <ele>79.6</ele>
        <time>2023-11-05T14:14:03Z</time>
      </trkpt>
      <trkpt lat="43.50723" lon="6.61983">
        <ele>79.6</ele>
        <time>2023-11-05T14:14:04Z</time>
      </trkpt>
      <trkpt lat="43.50724" lon="6.61983">
        <ele>79.7</ele>
        <time>2023-11-05T14:14:05Z</time>
      </trkpt>
      <trkpt lat="43.50725" lon="6.61984">
        <ele>79.8</ele>
        <time>2023-11-05T14:14:06Z</time>
      </trkpt>
      <trkpt lat="43.50726" lon="6.61985">
        <ele>79.9</ele>
        <time>2023-11-05T14:14:07Z</time>
      </trkpt>
      <trkpt lat="43.50727" lon="6.61986">
        <ele>80</ele>
        <time>2023-11-05T14:14:08Z</time>
      </trkpt>
      <trkpt lat="43.50728" lon="6.61986">
        <ele>80</ele>
        <time>2023-11-05T14:14:09Z</time>
      </trkpt>
      <trkpt lat="43.50729" lon="6.61987">
        <ele>80.1</ele>
        <time>2023-11-05T14:14:10Z</time>
      </trkpt>
      <trkpt lat="43.5073" lon="6.61987">
        <ele>80.2</ele>
        <time>2023-11-05T14:14:11Z</time>
      </trkpt>
      <trkpt lat="43.50731" lon="6.61987">
        <ele>80.3</ele>
        <time>2023-11-05T14:14:12Z</time>
      </trkpt>
      <trkpt lat="43.50732" lon="6.61988">
        <ele>80.4</ele>
        <time>2023-11-05T14:14:13Z</time>
      </trkpt>
      <trkpt lat="43.50733" lon="6.61989">
        <ele>80.5</ele>
        <time>2023-11-05T14:14:14Z</time>
      </trkpt>
      <trkpt lat="43.50734" lon="6.61989">
        <ele>80.5</ele>
        <time>2023-11-05T14:14:15Z</time>
      </trkpt>
      <trkpt lat="43.50735" lon="6.6199">
        <ele>80.5</ele>
        <time>2023-11-05T14:14:16Z</time>
      </trkpt>
      <trkpt lat="43.50737" lon="6.61989">
        <ele>80.6</ele>
        <time>2023-11-05T14:14:17Z</time>
      </trkpt>
      <trkpt lat="43.50738" lon="6.61989">
        <ele>80.7</ele>
        <time>2023-11-05T14:14:18Z</time>
      </trkpt>
      <trkpt lat="43.50739" lon="6.6199">
        <ele>80.8</ele>
        <time>2023-11-05T14:14:19Z</time>
      </trkpt>
      <trkpt lat="43.5074" lon="6.6199">
        <ele>80.9</ele>
        <time>2023-11-05T14:14:20Z</time>
      </trkpt>
      <trkpt lat="43.50741" lon="6.61991">
        <ele>81</ele>
        <time>2023-11-05T14:14:21Z</time>
      </trkpt>
      <trkpt lat="43.50742" lon="6.61992">
        <ele>81</ele>
        <time>2023-11-05T14:14:22Z</time>
      </trkpt>
      <trkpt lat="43.50743" lon="6.61992">
        <ele>81</ele>
        <time>2023-11-05T14:14:23Z</time>
      </trkpt>
      <trkpt lat="43.50744" lon="6.61993">
        <ele>81.1</ele>
        <time>2023-11-05T14:14:24Z</time>
      </trkpt>
      <trkpt lat="43.50745" lon="6.61994">
        <ele>81.1</ele>
        <time>2023-11-05T14:14:25Z</time>
      </trkpt>
      <trkpt lat="43.50746" lon="6.61994">
        <ele>81.1</ele>
        <time>2023-11-05T14:14:26Z</time>
      </trkpt>
      <trkpt lat="43.50747" lon="6.61995">
        <ele>81.2</ele>
        <time>2023-11-05T14:14:27Z</time>
      </trkpt>
      <trkpt lat="43.50748" lon="6.61996">
        <ele>81.3</ele>
        <time>2023-11-05T14:14:28Z</time>
      </trkpt>
      <trkpt lat="43.50749" lon="6.61997">
        <ele>81.4</ele>
        <time>2023-11-05T14:14:29Z</time>
      </trkpt>
      <trkpt lat="43.5075" lon="6.61997">
        <ele>81.4</ele>
        <time>2023-11-05T14:14:30Z</time>
      </trkpt>
      <trkpt lat="43.50751" lon="6.61998">
        <ele>81.5</ele>
        <time>2023-11-05T14:14:31Z</time>
      </trkpt>
      <trkpt lat="43.50752" lon="6.61999">
        <ele>81.5</ele>
        <time>2023-11-05T14:14:32Z</time>
      </trkpt>
      <trkpt lat="43.50754" lon="6.62">
        <ele>81.5</ele>
        <time>2023-11-05T14:14:33Z</time>
      </trkpt>
      <trkpt lat="43.50755" lon="6.62001">
        <ele>81.6</ele>
        <time>2023-11-05T14:14:34Z</time>
      </trkpt>
      <trkpt lat="43.50757" lon="6.62001">
        <ele>81.6</ele>
        <time>2023-11-05T14:14:35Z</time>
      </trkpt>
      <trkpt lat="43.50758" lon="6.62002">
        <ele>81.7</ele>
        <time>2023-11-05T14:14:36Z</time>
      </trkpt>
      <trkpt lat="43.50759" lon="6.62002">
        <ele>81.8</ele>
        <time>2023-11-05T14:14:37Z</time>
      </trkpt>
      <trkpt lat="43.50761" lon="6.62003">
        <ele>81.9</ele>
        <time>2023-11-05T14:14:38Z</time>
      </trkpt>
      <trkpt lat="43.50762" lon="6.62004">
        <ele>82.1</ele>
        <time>2023-11-05T14:14:39Z</time>
      </trkpt>
      <trkpt lat="43.50764" lon="6.62005">
        <ele>82.2</ele>
        <time>2023-11-05T14:14:40Z</time>
      </trkpt>
      <trkpt lat="43.50765" lon="6.62006">
        <ele>82.3</ele>
        <time>2023-11-05T14:14:41Z</time>
      </trkpt>
      <trkpt lat="43.50767" lon="6.62007">
        <ele>82.4</ele>
        <time>2023-11-05T14:14:42Z</time>
      </trkpt>
      <trkpt lat="43.50768" lon="6.62008">
        <ele>82.5</ele>
        <time>2023-11-05T14:14:43Z</time>
      </trkpt>
      <trkpt lat="43.50769" lon="6.62008">
        <ele>82.5</ele>
        <time>2023-11-05T14:14:44Z</time>
      </trkpt>
      <trkpt lat="43.5077" lon="6.62009">
        <ele>82.5</ele>
        <time>2023-11-05T14:14:45Z</time>
      </trkpt>
      <trkpt lat="43.50772" lon="6.62009">
        <ele>82.6</ele>
        <time>2023-11-05T14:14:46Z</time>
      </trkpt>
      <trkpt lat="43.50773" lon="6.6201">
        <ele>82.8</ele>
        <time>2023-11-05T14:14:47Z</time>
      </trkpt>
      <trkpt lat="43.50774" lon="6.6201">
        <ele>82.9</ele>
        <time>2023-11-05T14:14:48Z</time>
      </trkpt>
      <trkpt lat="43.50775" lon="6.62011">
        <ele>83.1</ele>
        <time>2023-11-05T14:14:49Z</time>
      </trkpt>
      <trkpt lat="43.50778" lon="6.62012">
        <ele>83.2</ele>
        <time>2023-11-05T14:14:50Z</time>
      </trkpt>
      <trkpt lat="43.50779" lon="6.62013">
        <ele>83.2</ele>
        <time>2023-11-05T14:14:51Z</time>
      </trkpt>
      <trkpt lat="43.50781" lon="6.62014">
        <ele>83.3</ele>
        <time>2023-11-05T14:14:52Z</time>
      </trkpt>
      <trkpt lat="43.50782" lon="6.62015">
        <ele>83.4</ele>
        <time>2023-11-05T14:14:53Z</time>
      </trkpt>
      <trkpt lat="43.50784" lon="6.62016">
        <ele>83.5</ele>
        <time>2023-11-05T14:14:54Z</time>
      </trkpt>
      <trkpt lat="43.50785" lon="6.62017">
        <ele>83.5</ele>
        <time>2023-11-05T14:14:55Z</time>
      </trkpt>
      <trkpt lat="43.50786" lon="6.62017">
        <ele>83.5</ele>
        <time>2023-11-05T14:14:56Z</time>
      </trkpt>
      <trkpt lat="43.50786" lon="6.62017">
        <ele>83.4</ele>
        <time>2023-11-05T14:14:57Z</time>
      </trkpt>
      <trkpt lat="43.50787" lon="6.62016">
        <ele>83.3</ele>
        <time>2023-11-05T14:14:58Z</time>
      </trkpt>
      <trkpt lat="43.50787" lon="6.62016">
        <ele>83.3</ele>
        <time>2023-11-05T14:14:59Z</time>
      </trkpt>
      <trkpt lat="43.50786" lon="6.62016">
        <ele>83.3</ele>
        <time>2023-11-05T14:15:00Z</time>
      </trkpt>
      <trkpt lat="43.50786" lon="6.62016">
        <ele>83.3</ele>
        <time>2023-11-05T14:15:01Z</time>
      </trkpt>
      <trkpt lat="43.50786" lon="6.62015">
        <ele>83.2</ele>
        <time>2023-11-05T14:15:02Z</time>
      </trkpt>
      <trkpt lat="43.50786" lon="6.62015">
        <ele>83.2</ele>
        <time>2023-11-05T14:15:03Z</time>
      </trkpt>
      <trkpt lat="43.50787" lon="6.62016">
        <ele>83.3</ele>
        <time>2023-11-05T14:15:04Z</time>
      </trkpt>
      <trkpt lat="43.50787" lon="6.62016">
        <ele>83.4</ele>
        <time>2023-11-05T14:15:05Z</time>
      </trkpt>
      <trkpt lat="43.50788" lon="6.62017">
        <ele>83.4</ele>
        <time>2023-11-05T14:15:06Z</time>
      </trkpt>
      <trkpt lat="43.5079" lon="6.62017">
        <ele>83.5</ele>
        <time>2023-11-05T14:15:07Z</time>
      </trkpt>
      <trkpt lat="43.50791" lon="6.62017">
        <ele>83.6</ele>
        <time>2023-11-05T14:15:08Z</time>
      </trkpt>
      <trkpt lat="43.50792" lon="6.62018">
        <ele>83.7</ele>
        <time>2023-11-05T14:15:09Z</time>
      </trkpt>
      <trkpt lat="43.50793" lon="6.62019">
        <ele>83.7</ele>
        <time>2023-11-05T14:15:10Z</time>
      </trkpt>
      <trkpt lat="43.50794" lon="6.62019">
        <ele>83.8</ele>
        <time>2023-11-05T14:15:11Z</time>
      </trkpt>
      <trkpt lat="43.50795" lon="6.6202">
        <ele>83.9</ele>
        <time>2023-11-05T14:15:12Z</time>
      </trkpt>
      <trkpt lat="43.50796" lon="6.62021">
        <ele>84</ele>
        <time>2023-11-05T14:15:13Z</time>
      </trkpt>
      <trkpt lat="43.50797" lon="6.62021">
        <ele>84.1</ele>
        <time>2023-11-05T14:15:14Z</time>
      </trkpt>
      <trkpt lat="43.50798" lon="6.62022">
        <ele>84.1</ele>
        <time>2023-11-05T14:15:15Z</time>
      </trkpt>
      <trkpt lat="43.50799" lon="6.62022">
        <ele>84.3</ele>
        <time>2023-11-05T14:15:16Z</time>
      </trkpt>
      <trkpt lat="43.508" lon="6.62023">
        <ele>84.4</ele>
        <time>2023-11-05T14:15:17Z</time>
      </trkpt>
      <trkpt lat="43.50801" lon="6.62023">
        <ele>84.4</ele>
        <time>2023-11-05T14:15:18Z</time>
      </trkpt>
      <trkpt lat="43.50802" lon="6.62023">
        <ele>84.5</ele>
        <time>2023-11-05T14:15:19Z</time>
      </trkpt>
      <trkpt lat="43.50803" lon="6.62023">
        <ele>84.5</ele>
        <time>2023-11-05T14:15:20Z</time>
      </trkpt>
      <trkpt lat="43.50804" lon="6.62023">
        <ele>84.5</ele>
        <time>2023-11-05T14:15:21Z</time>
      </trkpt>
      <trkpt lat="43.50806" lon="6.62023">
        <ele>84.6</ele>
        <time>2023-11-05T14:15:22Z</time>
      </trkpt>
      <trkpt lat="43.50807" lon="6.62023">
        <ele>84.7</ele>
        <time>2023-11-05T14:15:23Z</time>
      </trkpt>
      <trkpt lat="43.50808" lon="6.62024">
        <ele>84.7</ele>
        <time>2023-11-05T14:15:24Z</time>
      </trkpt>
      <trkpt lat="43.50809" lon="6.62024">
        <ele>84.8</ele>
        <time>2023-11-05T14:15:25Z</time>
      </trkpt>
      <trkpt lat="43.5081" lon="6.62025">
        <ele>84.9</ele>
        <time>2023-11-05T14:15:26Z</time>
      </trkpt>
      <trkpt lat="43.50811" lon="6.62025">
        <ele>84.9</ele>
        <time>2023-11-05T14:15:27Z</time>
      </trkpt>
      <trkpt lat="43.50812" lon="6.62026">
        <ele>85</ele>
        <time>2023-11-05T14:15:28Z</time>
      </trkpt>
      <trkpt lat="43.50813" lon="6.62026">
        <ele>85</ele>
        <time>2023-11-05T14:15:29Z</time>
      </trkpt>
      <trkpt lat="43.50814" lon="6.62027">
        <ele>85</ele>
        <time>2023-11-05T14:15:30Z</time>
      </trkpt>
      <trkpt lat="43.50815" lon="6.62027">
        <ele>85.1</ele>
        <time>2023-11-05T14:15:31Z</time>
      </trkpt>
      <trkpt lat="43.50816" lon="6.62027">
        <ele>85.2</ele>
        <time>2023-11-05T14:15:32Z</time>
      </trkpt>
      <trkpt lat="43.50817" lon="6.62027">
        <ele>85.3</ele>
        <time>2023-11-05T14:15:33Z</time>
      </trkpt>
      <trkpt lat="43.50817" lon="6.62027">
        <ele>85.5</ele>
        <time>2023-11-05T14:15:34Z</time>
      </trkpt>
      <trkpt lat="43.50818" lon="6.62028">
        <ele>85.6</ele>
        <time>2023-11-05T14:15:35Z</time>
      </trkpt>
      <trkpt lat="43.50819" lon="6.62028">
        <ele>85.6</ele>
        <time>2023-11-05T14:15:36Z</time>
      </trkpt>
      <trkpt lat="43.5082" lon="6.62029">
        <ele>85.7</ele>
        <time>2023-11-05T14:15:37Z</time>
      </trkpt>
      <trkpt lat="43.50821" lon="6.62029">
        <ele>85.9</ele>
        <time>2023-11-05T14:15:38Z</time>
      </trkpt>
      <trkpt lat="43.50822" lon="6.62029">
        <ele>86</ele>
        <time>2023-11-05T14:15:39Z</time>
      </trkpt>
      <trkpt lat="43.50823" lon="6.6203">
        <ele>86.1</ele>
        <time>2023-11-05T14:15:40Z</time>
      </trkpt>
      <trkpt lat="43.50824" lon="6.6203">
        <ele>86.2</ele>
        <time>2023-11-05T14:15:41Z</time>
      </trkpt>
      <trkpt lat="43.50825" lon="6.62031">
        <ele>86.4</ele>
        <time>2023-11-05T14:15:42Z</time>
      </trkpt>
      <trkpt lat="43.50826" lon="6.62032">
        <ele>86.5</ele>
        <time>2023-11-05T14:15:43Z</time>
      </trkpt>
      <trkpt lat="43.50827" lon="6.62032">
        <ele>86.7</ele>
        <time>2023-11-05T14:15:44Z</time>
      </trkpt>
      <trkpt lat="43.50827" lon="6.62032">
        <ele>86.7</ele>
        <time>2023-11-05T14:15:45Z</time>
      </trkpt>
      <trkpt lat="43.50828" lon="6.62033">
        <ele>86.8</ele>
        <time>2023-11-05T14:15:46Z</time>
      </trkpt>
      <trkpt lat="43.5083" lon="6.62034">
        <ele>86.9</ele>
        <time>2023-11-05T14:15:47Z</time>
      </trkpt>
      <trkpt lat="43.50831" lon="6.62034">
        <ele>86.9</ele>
        <time>2023-11-05T14:15:48Z</time>
      </trkpt>
      <trkpt lat="43.50831" lon="6.62035">
        <ele>87</ele>
        <time>2023-11-05T14:15:49Z</time>
      </trkpt>
      <trkpt lat="43.50832" lon="6.62036">
        <ele>87.2</ele>
        <time>2023-11-05T14:15:50Z</time>
      </trkpt>
      <trkpt lat="43.50833" lon="6.62037">
        <ele>87.3</ele>
        <time>2023-11-05T14:15:51Z</time>
      </trkpt>
      <trkpt lat="43.50834" lon="6.62037">
        <ele>87.5</ele>
        <time>2023-11-05T14:15:52Z</time>
      </trkpt>
      <trkpt lat="43.50835" lon="6.62038">
        <ele>87.7</ele>
        <time>2023-11-05T14:15:53Z</time>
      </trkpt>
      <trkpt lat="43.50836" lon="6.62038">
        <ele>87.9</ele>
        <time>2023-11-05T14:15:54Z</time>
      </trkpt>
      <trkpt lat="43.50837" lon="6.62039">
        <ele>88</ele>
        <time>2023-11-05T14:15:55Z</time>
      </trkpt>
      <trkpt lat="43.50838" lon="6.6204">
        <ele>88.1</ele>
        <time>2023-11-05T14:15:56Z</time>
      </trkpt>
      <trkpt lat="43.50839" lon="6.6204">
        <ele>88.2</ele>
        <time>2023-11-05T14:15:57Z</time>
      </trkpt>
      <trkpt lat="43.5084" lon="6.62041">
        <ele>88.3</ele>
        <time>2023-11-05T14:15:58Z</time>
      </trkpt>
      <trkpt lat="43.50841" lon="6.62042">
        <ele>88.3</ele>
        <time>2023-11-05T14:15:59Z</time>
      </trkpt>
      <trkpt lat="43.50841" lon="6.62043">
        <ele>88.4</ele>
        <time>2023-11-05T14:16:00Z</time>
      </trkpt>
      <trkpt lat="43.50842" lon="6.62044">
        <ele>88.4</ele>
        <time>2023-11-05T14:16:01Z</time>
      </trkpt>
      <trkpt lat="43.50843" lon="6.62044">
        <ele>88.4</ele>
        <time>2023-11-05T14:16:02Z</time>
      </trkpt>
      <trkpt lat="43.50844" lon="6.62045">
        <ele>88.5</ele>
        <time>2023-11-05T14:16:03Z</time>
      </trkpt>
      <trkpt lat="43.50845" lon="6.62046">
        <ele>88.5</ele>
        <time>2023-11-05T14:16:04Z</time>
      </trkpt>
      <trkpt lat="43.50846" lon="6.62047">
        <ele>88.6</ele>
        <time>2023-11-05T14:16:05Z</time>
      </trkpt>
      <trkpt lat="43.50847" lon="6.62048">
        <ele>88.7</ele>
        <time>2023-11-05T14:16:06Z</time>
      </trkpt>
      <trkpt lat="43.50848" lon="6.62049">
        <ele>88.8</ele>
        <time>2023-11-05T14:16:07Z</time>
      </trkpt>
      <trkpt lat="43.50849" lon="6.62049">
        <ele>88.9</ele>
        <time>2023-11-05T14:16:08Z</time>
      </trkpt>
      <trkpt lat="43.50849" lon="6.6205">
        <ele>89</ele>
        <time>2023-11-05T14:16:09Z</time>
      </trkpt>
      <trkpt lat="43.5085" lon="6.62051">
        <ele>89.1</ele>
        <time>2023-11-05T14:16:10Z</time>
      </trkpt>
      <trkpt lat="43.50851" lon="6.62051">
        <ele>89.2</ele>
        <time>2023-11-05T14:16:11Z</time>
      </trkpt>
      <trkpt lat="43.50852" lon="6.62052">
        <ele>89.2</ele>
        <time>2023-11-05T14:16:12Z</time>
      </trkpt>
      <trkpt lat="43.50853" lon="6.62053">
        <ele>89.3</ele>
        <time>2023-11-05T14:16:13Z</time>
      </trkpt>
      <trkpt lat="43.50854" lon="6.62053">
        <ele>89.3</ele>
        <time>2023-11-05T14:16:14Z</time>
      </trkpt>
      <trkpt lat="43.50855" lon="6.62054">
        <ele>89.3</ele>
        <time>2023-11-05T14:16:15Z</time>
      </trkpt>
      <trkpt lat="43.50856" lon="6.62055">
        <ele>89.3</ele>
        <time>2023-11-05T14:16:16Z</time>
      </trkpt>
      <trkpt lat="43.50856" lon="6.62056">
        <ele>89.4</ele>
        <time>2023-11-05T14:16:17Z</time>
      </trkpt>
      <trkpt lat="43.50857" lon="6.62057">
        <ele>89.5</ele>
        <time>2023-11-05T14:16:18Z</time>
      </trkpt>
      <trkpt lat="43.50858" lon="6.62058">
        <ele>89.5</ele>
        <time>2023-11-05T14:16:19Z</time>
      </trkpt>
      <trkpt lat="43.50858" lon="6.6206">
        <ele>89.7</ele>
        <time>2023-11-05T14:16:20Z</time>
      </trkpt>
      <trkpt lat="43.50859" lon="6.62061">
        <ele>89.8</ele>
        <time>2023-11-05T14:16:21Z</time>
      </trkpt>
      <trkpt lat="43.5086" lon="6.62062">
        <ele>89.9</ele>
        <time>2023-11-05T14:16:22Z</time>
      </trkpt>
      <trkpt lat="43.50861" lon="6.62063">
        <ele>89.9</ele>
        <time>2023-11-05T14:16:23Z</time>
      </trkpt>
      <trkpt lat="43.50861" lon="6.62064">
        <ele>89.9</ele>
        <time>2023-11-05T14:16:24Z</time>
      </trkpt>
      <trkpt lat="43.50862" lon="6.62065">
        <ele>89.9</ele>
        <time>2023-11-05T14:16:25Z</time>
      </trkpt>
      <trkpt lat="43.50863" lon="6.62066">
        <ele>89.9</ele>
        <time>2023-11-05T14:16:26Z</time>
      </trkpt>
      <trkpt lat="43.50864" lon="6.62066">
        <ele>89.9</ele>
        <time>2023-11-05T14:16:27Z</time>
      </trkpt>
      <trkpt lat="43.50865" lon="6.62067">
        <ele>89.8</ele>
        <time>2023-11-05T14:16:28Z</time>
      </trkpt>
      <trkpt lat="43.50866" lon="6.62068">
        <ele>89.3</ele>
        <time>2023-11-05T14:16:29Z</time>
      </trkpt>
      <trkpt lat="43.50867" lon="6.62068">
        <ele>89.4</ele>
        <time>2023-11-05T14:16:30Z</time>
      </trkpt>
      <trkpt lat="43.50867" lon="6.62069">
        <ele>89.5</ele>
        <time>2023-11-05T14:16:31Z</time>
      </trkpt>
      <trkpt lat="43.50868" lon="6.62069">
        <ele>89.5</ele>
        <time>2023-11-05T14:16:32Z</time>
      </trkpt>
      <trkpt lat="43.50869" lon="6.6207">
        <ele>89.5</ele>
        <time>2023-11-05T14:16:33Z</time>
      </trkpt>
      <trkpt lat="43.5087" lon="6.62071">
        <ele>89.6</ele>
        <time>2023-11-05T14:16:34Z</time>
      </trkpt>
      <trkpt lat="43.50871" lon="6.62072">
        <ele>89.6</ele>
        <time>2023-11-05T14:16:35Z</time>
      </trkpt>
      <trkpt lat="43.50872" lon="6.62073">
        <ele>89.7</ele>
        <time>2023-11-05T14:16:36Z</time>
      </trkpt>
      <trkpt lat="43.50873" lon="6.62073">
        <ele>89.7</ele>
        <time>2023-11-05T14:16:37Z</time>
      </trkpt>
      <trkpt lat="43.50874" lon="6.62074">
        <ele>89.7</ele>
        <time>2023-11-05T14:16:38Z</time>
      </trkpt>
      <trkpt lat="43.50876" lon="6.62074">
        <ele>89.7</ele>
        <time>2023-11-05T14:16:39Z</time>
      </trkpt>
      <trkpt lat="43.50877" lon="6.62075">
        <ele>89.7</ele>
        <time>2023-11-05T14:16:40Z</time>
      </trkpt>
      <trkpt lat="43.50878" lon="6.62076">
        <ele>89.7</ele>
        <time>2023-11-05T14:16:41Z</time>
      </trkpt>
      <trkpt lat="43.50879" lon="6.62077">
        <ele>89.6</ele>
        <time>2023-11-05T14:16:42Z</time>
      </trkpt>
      <trkpt lat="43.5088" lon="6.62077">
        <ele>89.6</ele>
        <time>2023-11-05T14:16:43Z</time>
      </trkpt>
      <trkpt lat="43.50882" lon="6.62078">
        <ele>89.4</ele>
        <time>2023-11-05T14:16:44Z</time>
      </trkpt>
      <trkpt lat="43.50883" lon="6.62078">
        <ele>89.7</ele>
        <time>2023-11-05T14:16:45Z</time>
      </trkpt>
      <trkpt lat="43.50884" lon="6.62079">
        <ele>89.9</ele>
        <time>2023-11-05T14:16:46Z</time>
      </trkpt>
      <trkpt lat="43.50885" lon="6.6208">
        <ele>90</ele>
        <time>2023-11-05T14:16:47Z</time>
      </trkpt>
      <trkpt lat="43.50886" lon="6.6208">
        <ele>90.1</ele>
        <time>2023-11-05T14:16:48Z</time>
      </trkpt>
      <trkpt lat="43.50887" lon="6.6208">
        <ele>90.2</ele>
        <time>2023-11-05T14:16:49Z</time>
      </trkpt>
      <trkpt lat="43.50888" lon="6.6208">
        <ele>90.3</ele>
        <time>2023-11-05T14:16:50Z</time>
      </trkpt>
      <trkpt lat="43.50888" lon="6.6208">
        <ele>90.3</ele>
        <time>2023-11-05T14:16:51Z</time>
      </trkpt>
      <trkpt lat="43.5089" lon="6.6208">
        <ele>90.4</ele>
        <time>2023-11-05T14:16:52Z</time>
      </trkpt>
      <trkpt lat="43.50891" lon="6.6208">
        <ele>90.5</ele>
        <time>2023-11-05T14:16:53Z</time>
      </trkpt>
      <trkpt lat="43.50892" lon="6.6208">
        <ele>90.6</ele>
        <time>2023-11-05T14:16:54Z</time>
      </trkpt>
      <trkpt lat="43.50893" lon="6.62081">
        <ele>90.6</ele>
        <time>2023-11-05T14:16:55Z</time>
      </trkpt>
      <trkpt lat="43.50894" lon="6.62082">
        <ele>90.5</ele>
        <time>2023-11-05T14:16:56Z</time>
      </trkpt>
      <trkpt lat="43.50895" lon="6.62082">
        <ele>90.4</ele>
        <time>2023-11-05T14:16:57Z</time>
      </trkpt>
      <trkpt lat="43.50896" lon="6.62082">
        <ele>90.4</ele>
        <time>2023-11-05T14:16:58Z</time>
      </trkpt>
      <trkpt lat="43.50898" lon="6.62082">
        <ele>90.3</ele>
        <time>2023-11-05T14:16:59Z</time>
      </trkpt>
      <trkpt lat="43.50899" lon="6.62082">
        <ele>90.4</ele>
        <time>2023-11-05T14:17:00Z</time>
      </trkpt>
      <trkpt lat="43.509" lon="6.62083">
        <ele>90.5</ele>
        <time>2023-11-05T14:17:01Z</time>
      </trkpt>
      <trkpt lat="43.50901" lon="6.62084">
        <ele>90.6</ele>
        <time>2023-11-05T14:17:02Z</time>
      </trkpt>
      <trkpt lat="43.50902" lon="6.62084">
        <ele>90.7</ele>
        <time>2023-11-05T14:17:03Z</time>
      </trkpt>
      <trkpt lat="43.50903" lon="6.62085">
        <ele>90.8</ele>
        <time>2023-11-05T14:17:04Z</time>
      </trkpt>
      <trkpt lat="43.50904" lon="6.62085">
        <ele>90.9</ele>
        <time>2023-11-05T14:17:05Z</time>
      </trkpt>
      <trkpt lat="43.50905" lon="6.62085">
        <ele>90.9</ele>
        <time>2023-11-05T14:17:06Z</time>
      </trkpt>
      <trkpt lat="43.50907" lon="6.62085">
        <ele>90.9</ele>
        <time>2023-11-05T14:17:07Z</time>
      </trkpt>
      <trkpt lat="43.50908" lon="6.62086">
        <ele>91</ele>
        <time>2023-11-05T14:17:08Z</time>
      </trkpt>
      <trkpt lat="43.50909" lon="6.62086">
        <ele>91</ele>
        <time>2023-11-05T14:17:09Z</time>
      </trkpt>
      <trkpt lat="43.5091" lon="6.62087">
        <ele>91</ele>
        <time>2023-11-05T14:17:10Z</time>
      </trkpt>
      <trkpt lat="43.50912" lon="6.62087">
        <ele>91.1</ele>
        <time>2023-11-05T14:17:11Z</time>
      </trkpt>
      <trkpt lat="43.50913" lon="6.62088">
        <ele>91.1</ele>
        <time>2023-11-05T14:17:12Z</time>
      </trkpt>
      <trkpt lat="43.50914" lon="6.62088">
        <ele>91.1</ele>
        <time>2023-11-05T14:17:13Z</time>
      </trkpt>
      <trkpt lat="43.50915" lon="6.62089">
        <ele>91</ele>
        <time>2023-11-05T14:17:14Z</time>
      </trkpt>
      <trkpt lat="43.50916" lon="6.62089">
        <ele>91.1</ele>
        <time>2023-11-05T14:17:15Z</time>
      </trkpt>
      <trkpt lat="43.50917" lon="6.62089">
        <ele>91.3</ele>
        <time>2023-11-05T14:17:16Z</time>
      </trkpt>
      <trkpt lat="43.50918" lon="6.6209">
        <ele>91.3</ele>
        <time>2023-11-05T14:17:17Z</time>
      </trkpt>
      <trkpt lat="43.50919" lon="6.6209">
        <ele>91.3</ele>
        <time>2023-11-05T14:17:18Z</time>
      </trkpt>
      <trkpt lat="43.5092" lon="6.62091">
        <ele>91.2</ele>
        <time>2023-11-05T14:17:19Z</time>
      </trkpt>
      <trkpt lat="43.50921" lon="6.62091">
        <ele>91.2</ele>
        <time>2023-11-05T14:17:20Z</time>
      </trkpt>
      <trkpt lat="43.50922" lon="6.62092">
        <ele>91.1</ele>
        <time>2023-11-05T14:17:21Z</time>
      </trkpt>
      <trkpt lat="43.50922" lon="6.62092">
        <ele>91.1</ele>
        <time>2023-11-05T14:17:22Z</time>
      </trkpt>
      <trkpt lat="43.50923" lon="6.62093">
        <ele>91.1</ele>
        <time>2023-11-05T14:17:23Z</time>
      </trkpt>
      <trkpt lat="43.50924" lon="6.62093">
        <ele>91</ele>
        <time>2023-11-05T14:17:24Z</time>
      </trkpt>
      <trkpt lat="43.50925" lon="6.62094">
        <ele>91</ele>
        <time>2023-11-05T14:17:25Z</time>
      </trkpt>
      <trkpt lat="43.50926" lon="6.62095">
        <ele>91.1</ele>
        <time>2023-11-05T14:17:26Z</time>
      </trkpt>
      <trkpt lat="43.50927" lon="6.62095">
        <ele>91.1</ele>
        <time>2023-11-05T14:17:27Z</time>
      </trkpt>
      <trkpt lat="43.50927" lon="6.62096">
        <ele>91.2</ele>
        <time>2023-11-05T14:17:28Z</time>
      </trkpt>
      <trkpt lat="43.50929" lon="6.62096">
        <ele>91.2</ele>
        <time>2023-11-05T14:17:29Z</time>
      </trkpt>
      <trkpt lat="43.5093" lon="6.62097">
        <ele>91.3</ele>
        <time>2023-11-05T14:17:30Z</time>
      </trkpt>
      <trkpt lat="43.50931" lon="6.62097">
        <ele>91.3</ele>
        <time>2023-11-05T14:17:31Z</time>
      </trkpt>
      <trkpt lat="43.50932" lon="6.62097">
        <ele>91.2</ele>
        <time>2023-11-05T14:17:32Z</time>
      </trkpt>
      <trkpt lat="43.50933" lon="6.62098">
        <ele>91.3</ele>
        <time>2023-11-05T14:17:33Z</time>
      </trkpt>
      <trkpt lat="43.50934" lon="6.62099">
        <ele>91.2</ele>
        <time>2023-11-05T14:17:34Z</time>
      </trkpt>
      <trkpt lat="43.50935" lon="6.62099">
        <ele>91.2</ele>
        <time>2023-11-05T14:17:35Z</time>
      </trkpt>
      <trkpt lat="43.50935" lon="6.621">
        <ele>91.3</ele>
        <time>2023-11-05T14:17:36Z</time>
      </trkpt>
      <trkpt lat="43.50936" lon="6.621">
        <ele>91.3</ele>
        <time>2023-11-05T14:17:37Z</time>
      </trkpt>
      <trkpt lat="43.50938" lon="6.62101">
        <ele>91.3</ele>
        <time>2023-11-05T14:17:38Z</time>
      </trkpt>
      <trkpt lat="43.50939" lon="6.62101">
        <ele>91.3</ele>
        <time>2023-11-05T14:17:39Z</time>
      </trkpt>
      <trkpt lat="43.5094" lon="6.62102">
        <ele>91.4</ele>
        <time>2023-11-05T14:17:40Z</time>
      </trkpt>
      <trkpt lat="43.50941" lon="6.62103">
        <ele>91.5</ele>
        <time>2023-11-05T14:17:41Z</time>
      </trkpt>
      <trkpt lat="43.50943" lon="6.62104">
        <ele>91.4</ele>
        <time>2023-11-05T14:17:42Z</time>
      </trkpt>
      <trkpt lat="43.50944" lon="6.62104">
        <ele>91.3</ele>
        <time>2023-11-05T14:17:43Z</time>
      </trkpt>
      <trkpt lat="43.50945" lon="6.62104">
        <ele>91.2</ele>
        <time>2023-11-05T14:17:44Z</time>
      </trkpt>
      <trkpt lat="43.50946" lon="6.62104">
        <ele>91.2</ele>
        <time>2023-11-05T14:17:45Z</time>
      </trkpt>
      <trkpt lat="43.50947" lon="6.62105">
        <ele>91.1</ele>
        <time>2023-11-05T14:17:46Z</time>
      </trkpt>
      <trkpt lat="43.50948" lon="6.62105">
        <ele>91.1</ele>
        <time>2023-11-05T14:17:47Z</time>
      </trkpt>
      <trkpt lat="43.50949" lon="6.62106">
        <ele>91.1</ele>
        <time>2023-11-05T14:17:48Z</time>
      </trkpt>
      <trkpt lat="43.5095" lon="6.62107">
        <ele>91.2</ele>
        <time>2023-11-05T14:17:49Z</time>
      </trkpt>
      <trkpt lat="43.50951" lon="6.62107">
        <ele>91.2</ele>
        <time>2023-11-05T14:17:50Z</time>
      </trkpt>
      <trkpt lat="43.50952" lon="6.62107">
        <ele>91.3</ele>
        <time>2023-11-05T14:17:51Z</time>
      </trkpt>
      <trkpt lat="43.50953" lon="6.62108">
        <ele>91.4</ele>
        <time>2023-11-05T14:17:52Z</time>
      </trkpt>
      <trkpt lat="43.50954" lon="6.62108">
        <ele>91.5</ele>
        <time>2023-11-05T14:17:53Z</time>
      </trkpt>
      <trkpt lat="43.50955" lon="6.62108">
        <ele>91.5</ele>
        <time>2023-11-05T14:17:54Z</time>
      </trkpt>
      <trkpt lat="43.50957" lon="6.62109">
        <ele>91.6</ele>
        <time>2023-11-05T14:17:55Z</time>
      </trkpt>
      <trkpt lat="43.50958" lon="6.62109">
        <ele>91.6</ele>
        <time>2023-11-05T14:17:56Z</time>
      </trkpt>
      <trkpt lat="43.50959" lon="6.62109">
        <ele>91.7</ele>
        <time>2023-11-05T14:17:57Z</time>
      </trkpt>
      <trkpt lat="43.50959" lon="6.62109">
        <ele>91.8</ele>
        <time>2023-11-05T14:17:58Z</time>
      </trkpt>
      <trkpt lat="43.50961" lon="6.62109">
        <ele>92</ele>
        <time>2023-11-05T14:17:59Z</time>
      </trkpt>
      <trkpt lat="43.50962" lon="6.6211">
        <ele>92.1</ele>
        <time>2023-11-05T14:18:00Z</time>
      </trkpt>
      <trkpt lat="43.50963" lon="6.6211">
        <ele>92.2</ele>
        <time>2023-11-05T14:18:01Z</time>
      </trkpt>
      <trkpt lat="43.50963" lon="6.6211">
        <ele>92.3</ele>
        <time>2023-11-05T14:18:02Z</time>
      </trkpt>
      <trkpt lat="43.50964" lon="6.62111">
        <ele>92.3</ele>
        <time>2023-11-05T14:18:03Z</time>
      </trkpt>
      <trkpt lat="43.50965" lon="6.62111">
        <ele>92.4</ele>
        <time>2023-11-05T14:18:04Z</time>
      </trkpt>
      <trkpt lat="43.50966" lon="6.62111">
        <ele>92.4</ele>
        <time>2023-11-05T14:18:05Z</time>
      </trkpt>
      <trkpt lat="43.50967" lon="6.62112">
        <ele>92.4</ele>
        <time>2023-11-05T14:18:06Z</time>
      </trkpt>
      <trkpt lat="43.50968" lon="6.62112">
        <ele>92.4</ele>
        <time>2023-11-05T14:18:07Z</time>
      </trkpt>
      <trkpt lat="43.50969" lon="6.62113">
        <ele>92.4</ele>
        <time>2023-11-05T14:18:08Z</time>
      </trkpt>
      <trkpt lat="43.5097" lon="6.62113">
        <ele>92.4</ele>
        <time>2023-11-05T14:18:09Z</time>
      </trkpt>
      <trkpt lat="43.50971" lon="6.62113">
        <ele>92.4</ele>
        <time>2023-11-05T14:18:10Z</time>
      </trkpt>
      <trkpt lat="43.50972" lon="6.62113">
        <ele>92.4</ele>
        <time>2023-11-05T14:18:11Z</time>
      </trkpt>
      <trkpt lat="43.50973" lon="6.62114">
        <ele>92.4</ele>
        <time>2023-11-05T14:18:12Z</time>
      </trkpt>
      <trkpt lat="43.50974" lon="6.62114">
        <ele>92.5</ele>
        <time>2023-11-05T14:18:13Z</time>
      </trkpt>
      <trkpt lat="43.50975" lon="6.62115">
        <ele>92.5</ele>
        <time>2023-11-05T14:18:14Z</time>
      </trkpt>
      <trkpt lat="43.50976" lon="6.62115">
        <ele>92.5</ele>
        <time>2023-11-05T14:18:15Z</time>
      </trkpt>
      <trkpt lat="43.50977" lon="6.62116">
        <ele>92.5</ele>
        <time>2023-11-05T14:18:16Z</time>
      </trkpt>
      <trkpt lat="43.50978" lon="6.62116">
        <ele>92.5</ele>
        <time>2023-11-05T14:18:17Z</time>
      </trkpt>
      <trkpt lat="43.50979" lon="6.62116">
        <ele>92.5</ele>
        <time>2023-11-05T14:18:18Z</time>
      </trkpt>
      <trkpt lat="43.5098" lon="6.62116">
        <ele>92.4</ele>
        <time>2023-11-05T14:18:19Z</time>
      </trkpt>
      <trkpt lat="43.50981" lon="6.62117">
        <ele>92.3</ele>
        <time>2023-11-05T14:18:20Z</time>
      </trkpt>
      <trkpt lat="43.50983" lon="6.62117">
        <ele>92.2</ele>
        <time>2023-11-05T14:18:21Z</time>
      </trkpt>
      <trkpt lat="43.50984" lon="6.62117">
        <ele>92.4</ele>
        <time>2023-11-05T14:18:22Z</time>
      </trkpt>
      <trkpt lat="43.50985" lon="6.62117">
        <ele>92.5</ele>
        <time>2023-11-05T14:18:23Z</time>
      </trkpt>
      <trkpt lat="43.50986" lon="6.62118">
        <ele>92.6</ele>
        <time>2023-11-05T14:18:24Z</time>
      </trkpt>
      <trkpt lat="43.50987" lon="6.62118">
        <ele>92.6</ele>
        <time>2023-11-05T14:18:25Z</time>
      </trkpt>
      <trkpt lat="43.50988" lon="6.62119">
        <ele>92.6</ele>
        <time>2023-11-05T14:18:26Z</time>
      </trkpt>
      <trkpt lat="43.50989" lon="6.62119">
        <ele>92.7</ele>
        <time>2023-11-05T14:18:27Z</time>
      </trkpt>
      <trkpt lat="43.5099" lon="6.6212">
        <ele>92.7</ele>
        <time>2023-11-05T14:18:28Z</time>
      </trkpt>
      <trkpt lat="43.50991" lon="6.6212">
        <ele>92.7</ele>
        <time>2023-11-05T14:18:29Z</time>
      </trkpt>
      <trkpt lat="43.50992" lon="6.62121">
        <ele>92.8</ele>
        <time>2023-11-05T14:18:30Z</time>
      </trkpt>
      <trkpt lat="43.50994" lon="6.62121">
        <ele>92.8</ele>
        <time>2023-11-05T14:18:31Z</time>
      </trkpt>
      <trkpt lat="43.50995" lon="6.62122">
        <ele>92.7</ele>
        <time>2023-11-05T14:18:32Z</time>
      </trkpt>
      <trkpt lat="43.50996" lon="6.62122">
        <ele>92.7</ele>
        <time>2023-11-05T14:18:33Z</time>
      </trkpt>
      <trkpt lat="43.50997" lon="6.62122">
        <ele>92.7</ele>
        <time>2023-11-05T14:18:34Z</time>
      </trkpt>
      <trkpt lat="43.50998" lon="6.62122">
        <ele>92.7</ele>
        <time>2023-11-05T14:18:35Z</time>
      </trkpt>
      <trkpt lat="43.51" lon="6.62123">
        <ele>92.7</ele>
        <time>2023-11-05T14:18:36Z</time>
      </trkpt>
      <trkpt lat="43.51001" lon="6.62124">
        <ele>92.8</ele>
        <time>2023-11-05T14:18:37Z</time>
      </trkpt>
      <trkpt lat="43.51002" lon="6.62124">
        <ele>92.8</ele>
        <time>2023-11-05T14:18:38Z</time>
      </trkpt>
      <trkpt lat="43.51003" lon="6.62124">
        <ele>92.8</ele>
        <time>2023-11-05T14:18:39Z</time>
      </trkpt>
      <trkpt lat="43.51004" lon="6.62124">
        <ele>92.8</ele>
        <time>2023-11-05T14:18:40Z</time>
      </trkpt>
      <trkpt lat="43.51006" lon="6.62125">
        <ele>92.8</ele>
        <time>2023-11-05T14:18:41Z</time>
      </trkpt>
      <trkpt lat="43.51007" lon="6.62125">
        <ele>92.7</ele>
        <time>2023-11-05T14:18:42Z</time>
      </trkpt>
      <trkpt lat="43.51008" lon="6.62126">
        <ele>92.7</ele>
        <time>2023-11-05T14:18:43Z</time>
      </trkpt>
      <trkpt lat="43.51009" lon="6.62126">
        <ele>92.6</ele>
        <time>2023-11-05T14:18:44Z</time>
      </trkpt>
      <trkpt lat="43.5101" lon="6.62127">
        <ele>92.4</ele>
        <time>2023-11-05T14:18:45Z</time>
      </trkpt>
      <trkpt lat="43.51011" lon="6.62127">
        <ele>92.3</ele>
        <time>2023-11-05T14:18:46Z</time>
      </trkpt>
      <trkpt lat="43.51012" lon="6.62128">
        <ele>92.2</ele>
        <time>2023-11-05T14:18:47Z</time>
      </trkpt>
      <trkpt lat="43.51013" lon="6.62128">
        <ele>92.1</ele>
        <time>2023-11-05T14:18:48Z</time>
      </trkpt>
      <trkpt lat="43.51014" lon="6.62129">
        <ele>92</ele>
        <time>2023-11-05T14:18:49Z</time>
      </trkpt>
      <trkpt lat="43.51016" lon="6.62129">
        <ele>91.9</ele>
        <time>2023-11-05T14:18:50Z</time>
      </trkpt>
      <trkpt lat="43.51017" lon="6.6213">
        <ele>91.9</ele>
        <time>2023-11-05T14:18:51Z</time>
      </trkpt>
      <trkpt lat="43.51018" lon="6.6213">
        <ele>91.8</ele>
        <time>2023-11-05T14:18:52Z</time>
      </trkpt>
      <trkpt lat="43.51019" lon="6.6213">
        <ele>91.8</ele>
        <time>2023-11-05T14:18:53Z</time>
      </trkpt>
      <trkpt lat="43.5102" lon="6.62131">
        <ele>91.9</ele>
        <time>2023-11-05T14:18:54Z</time>
      </trkpt>
      <trkpt lat="43.51022" lon="6.62131">
        <ele>91.9</ele>
        <time>2023-11-05T14:18:55Z</time>
      </trkpt>
      <trkpt lat="43.51023" lon="6.62132">
        <ele>91.9</ele>
        <time>2023-11-05T14:18:56Z</time>
      </trkpt>
      <trkpt lat="43.51024" lon="6.62132">
        <ele>91.9</ele>
        <time>2023-11-05T14:18:57Z</time>
      </trkpt>
      <trkpt lat="43.51025" lon="6.62133">
        <ele>91.9</ele>
        <time>2023-11-05T14:18:58Z</time>
      </trkpt>
      <trkpt lat="43.51026" lon="6.62133">
        <ele>91.8</ele>
        <time>2023-11-05T14:18:59Z</time>
      </trkpt>
      <trkpt lat="43.51027" lon="6.62134">
        <ele>91.8</ele>
        <time>2023-11-05T14:19:00Z</time>
      </trkpt>
      <trkpt lat="43.51029" lon="6.62134">
        <ele>91.7</ele>
        <time>2023-11-05T14:19:01Z</time>
      </trkpt>
      <trkpt lat="43.5103" lon="6.62134">
        <ele>91.7</ele>
        <time>2023-11-05T14:19:02Z</time>
      </trkpt>
      <trkpt lat="43.51031" lon="6.62134">
        <ele>91.6</ele>
        <time>2023-11-05T14:19:03Z</time>
      </trkpt>
      <trkpt lat="43.51032" lon="6.62135">
        <ele>91.6</ele>
        <time>2023-11-05T14:19:04Z</time>
      </trkpt>
      <trkpt lat="43.51033" lon="6.62135">
        <ele>91.6</ele>
        <time>2023-11-05T14:19:05Z</time>
      </trkpt>
      <trkpt lat="43.51034" lon="6.62136">
        <ele>91.6</ele>
        <time>2023-11-05T14:19:06Z</time>
      </trkpt>
      <trkpt lat="43.51035" lon="6.62137">
        <ele>91.6</ele>
        <time>2023-11-05T14:19:07Z</time>
      </trkpt>
      <trkpt lat="43.51036" lon="6.62138">
        <ele>91.5</ele>
        <time>2023-11-05T14:19:08Z</time>
      </trkpt>
      <trkpt lat="43.51037" lon="6.62139">
        <ele>91.4</ele>
        <time>2023-11-05T14:19:09Z</time>
      </trkpt>
      <trkpt lat="43.51038" lon="6.62139">
        <ele>91.4</ele>
        <time>2023-11-05T14:19:10Z</time>
      </trkpt>
      <trkpt lat="43.51039" lon="6.6214">
        <ele>91.4</ele>
        <time>2023-11-05T14:19:11Z</time>
      </trkpt>
      <trkpt lat="43.5104" lon="6.6214">
        <ele>91.3</ele>
        <time>2023-11-05T14:19:12Z</time>
      </trkpt>
      <trkpt lat="43.51041" lon="6.62141">
        <ele>91.3</ele>
        <time>2023-11-05T14:19:13Z</time>
      </trkpt>
      <trkpt lat="43.51042" lon="6.62142">
        <ele>91.2</ele>
        <time>2023-11-05T14:19:14Z</time>
      </trkpt>
      <trkpt lat="43.51043" lon="6.62142">
        <ele>91.2</ele>
        <time>2023-11-05T14:19:15Z</time>
      </trkpt>
      <trkpt lat="43.51044" lon="6.62143">
        <ele>91.2</ele>
        <time>2023-11-05T14:19:16Z</time>
      </trkpt>
      <trkpt lat="43.51045" lon="6.62143">
        <ele>91.1</ele>
        <time>2023-11-05T14:19:17Z</time>
      </trkpt>
      <trkpt lat="43.51046" lon="6.62144">
        <ele>91.1</ele>
        <time>2023-11-05T14:19:18Z</time>
      </trkpt>
      <trkpt lat="43.51047" lon="6.62145">
        <ele>90.9</ele>
        <time>2023-11-05T14:19:19Z</time>
      </trkpt>
      <trkpt lat="43.51048" lon="6.62146">
        <ele>90.8</ele>
        <time>2023-11-05T14:19:20Z</time>
      </trkpt>
      <trkpt lat="43.51049" lon="6.62146">
        <ele>90.6</ele>
        <time>2023-11-05T14:19:21Z</time>
      </trkpt>
      <trkpt lat="43.5105" lon="6.62147">
        <ele>90.5</ele>
        <time>2023-11-05T14:19:22Z</time>
      </trkpt>
      <trkpt lat="43.51051" lon="6.62148">
        <ele>90.4</ele>
        <time>2023-11-05T14:19:23Z</time>
      </trkpt>
      <trkpt lat="43.51052" lon="6.62149">
        <ele>90.3</ele>
        <time>2023-11-05T14:19:24Z</time>
      </trkpt>
      <trkpt lat="43.51053" lon="6.6215">
        <ele>90.2</ele>
        <time>2023-11-05T14:19:25Z</time>
      </trkpt>
      <trkpt lat="43.51054" lon="6.62151">
        <ele>90.1</ele>
        <time>2023-11-05T14:19:26Z</time>
      </trkpt>
      <trkpt lat="43.51055" lon="6.62151">
        <ele>90</ele>
        <time>2023-11-05T14:19:27Z</time>
      </trkpt>
      <trkpt lat="43.51056" lon="6.62152">
        <ele>90</ele>
        <time>2023-11-05T14:19:28Z</time>
      </trkpt>
      <trkpt lat="43.51057" lon="6.62153">
        <ele>90</ele>
        <time>2023-11-05T14:19:29Z</time>
      </trkpt>
      <trkpt lat="43.51058" lon="6.62154">
        <ele>90</ele>
        <time>2023-11-05T14:19:30Z</time>
      </trkpt>
      <trkpt lat="43.51059" lon="6.62154">
        <ele>89.9</ele>
        <time>2023-11-05T14:19:31Z</time>
      </trkpt>
      <trkpt lat="43.5106" lon="6.62155">
        <ele>89.9</ele>
        <time>2023-11-05T14:19:32Z</time>
      </trkpt>
      <trkpt lat="43.51062" lon="6.62155">
        <ele>89.8</ele>
        <time>2023-11-05T14:19:33Z</time>
      </trkpt>
      <trkpt lat="43.51063" lon="6.62156">
        <ele>89.8</ele>
        <time>2023-11-05T14:19:34Z</time>
      </trkpt>
      <trkpt lat="43.51063" lon="6.62156">
        <ele>89.8</ele>
        <time>2023-11-05T14:19:35Z</time>
      </trkpt>
      <trkpt lat="43.51065" lon="6.62157">
        <ele>89.8</ele>
        <time>2023-11-05T14:19:36Z</time>
      </trkpt>
      <trkpt lat="43.51066" lon="6.62157">
        <ele>89.8</ele>
        <time>2023-11-05T14:19:37Z</time>
      </trkpt>
      <trkpt lat="43.51067" lon="6.62158">
        <ele>89.8</ele>
        <time>2023-11-05T14:19:38Z</time>
      </trkpt>
      <trkpt lat="43.51068" lon="6.62158">
        <ele>89.8</ele>
        <time>2023-11-05T14:19:39Z</time>
      </trkpt>
      <trkpt lat="43.51069" lon="6.62158">
        <ele>89.8</ele>
        <time>2023-11-05T14:19:40Z</time>
      </trkpt>
      <trkpt lat="43.5107" lon="6.62158">
        <ele>89.8</ele>
        <time>2023-11-05T14:19:41Z</time>
      </trkpt>
      <trkpt lat="43.51072" lon="6.62158">
        <ele>89.7</ele>
        <time>2023-11-05T14:19:42Z</time>
      </trkpt>
      <trkpt lat="43.51073" lon="6.62158">
        <ele>89.7</ele>
        <time>2023-11-05T14:19:43Z</time>
      </trkpt>
      <trkpt lat="43.51074" lon="6.62159">
        <ele>89.7</ele>
        <time>2023-11-05T14:19:44Z</time>
      </trkpt>
      <trkpt lat="43.51074" lon="6.6216">
        <ele>89.7</ele>
        <time>2023-11-05T14:19:45Z</time>
      </trkpt>
      <trkpt lat="43.51075" lon="6.62161">
        <ele>89.6</ele>
        <time>2023-11-05T14:19:46Z</time>
      </trkpt>
      <trkpt lat="43.51075" lon="6.62162">
        <ele>89.6</ele>
        <time>2023-11-05T14:19:47Z</time>
      </trkpt>
      <trkpt lat="43.51076" lon="6.62163">
        <ele>89.5</ele>
        <time>2023-11-05T14:19:48Z</time>
      </trkpt>
      <trkpt lat="43.51076" lon="6.62164">
        <ele>89.5</ele>
        <time>2023-11-05T14:19:49Z</time>
      </trkpt>
      <trkpt lat="43.51078" lon="6.62165">
        <ele>89.5</ele>
        <time>2023-11-05T14:19:50Z</time>
      </trkpt>
      <trkpt lat="43.51078" lon="6.62167">
        <ele>89.5</ele>
        <time>2023-11-05T14:19:51Z</time>
      </trkpt>
      <trkpt lat="43.51079" lon="6.62167">
        <ele>89.5</ele>
        <time>2023-11-05T14:19:52Z</time>
      </trkpt>
      <trkpt lat="43.5108" lon="6.62168">
        <ele>89.5</ele>
        <time>2023-11-05T14:19:53Z</time>
      </trkpt>
      <trkpt lat="43.51081" lon="6.62169">
        <ele>89.5</ele>
        <time>2023-11-05T14:19:54Z</time>
      </trkpt>
      <trkpt lat="43.51082" lon="6.6217">
        <ele>89.4</ele>
        <time>2023-11-05T14:19:55Z</time>
      </trkpt>
      <trkpt lat="43.51083" lon="6.62171">
        <ele>89.5</ele>
        <time>2023-11-05T14:19:56Z</time>
      </trkpt>
      <trkpt lat="43.51084" lon="6.62172">
        <ele>89.5</ele>
        <time>2023-11-05T14:19:57Z</time>
      </trkpt>
      <trkpt lat="43.51085" lon="6.62173">
        <ele>89.6</ele>
        <time>2023-11-05T14:19:58Z</time>
      </trkpt>
      <trkpt lat="43.51086" lon="6.62174">
        <ele>89.5</ele>
        <time>2023-11-05T14:19:59Z</time>
      </trkpt>
      <trkpt lat="43.51087" lon="6.62175">
        <ele>89.4</ele>
        <time>2023-11-05T14:20:00Z</time>
      </trkpt>
      <trkpt lat="43.51087" lon="6.62176">
        <ele>89.4</ele>
        <time>2023-11-05T14:20:01Z</time>
      </trkpt>
      <trkpt lat="43.51088" lon="6.62177">
        <ele>89.3</ele>
        <time>2023-11-05T14:20:02Z</time>
      </trkpt>
      <trkpt lat="43.51089" lon="6.62178">
        <ele>89.5</ele>
        <time>2023-11-05T14:20:03Z</time>
      </trkpt>
      <trkpt lat="43.5109" lon="6.62179">
        <ele>89.6</ele>
        <time>2023-11-05T14:20:04Z</time>
      </trkpt>
      <trkpt lat="43.51091" lon="6.6218">
        <ele>89.8</ele>
        <time>2023-11-05T14:20:05Z</time>
      </trkpt>
      <trkpt lat="43.51092" lon="6.62181">
        <ele>89.9</ele>
        <time>2023-11-05T14:20:06Z</time>
      </trkpt>
      <trkpt lat="43.51093" lon="6.62182">
        <ele>90</ele>
        <time>2023-11-05T14:20:07Z</time>
      </trkpt>
      <trkpt lat="43.51094" lon="6.62183">
        <ele>90.1</ele>
        <time>2023-11-05T14:20:08Z</time>
      </trkpt>
      <trkpt lat="43.51095" lon="6.62183">
        <ele>90.1</ele>
        <time>2023-11-05T14:20:09Z</time>
      </trkpt>
      <trkpt lat="43.51096" lon="6.62184">
        <ele>90.2</ele>
        <time>2023-11-05T14:20:10Z</time>
      </trkpt>
      <trkpt lat="43.51097" lon="6.62185">
        <ele>90.2</ele>
        <time>2023-11-05T14:20:11Z</time>
      </trkpt>
      <trkpt lat="43.51099" lon="6.62186">
        <ele>90.2</ele>
        <time>2023-11-05T14:20:12Z</time>
      </trkpt>
      <trkpt lat="43.511" lon="6.62187">
        <ele>90.2</ele>
        <time>2023-11-05T14:20:13Z</time>
      </trkpt>
      <trkpt lat="43.51101" lon="6.62188">
        <ele>90.2</ele>
        <time>2023-11-05T14:20:14Z</time>
      </trkpt>
      <trkpt lat="43.51102" lon="6.62189">
        <ele>90.1</ele>
        <time>2023-11-05T14:20:15Z</time>
      </trkpt>
      <trkpt lat="43.51103" lon="6.6219">
        <ele>90.1</ele>
        <time>2023-11-05T14:20:16Z</time>
      </trkpt>
      <trkpt lat="43.51104" lon="6.62191">
        <ele>90</ele>
        <time>2023-11-05T14:20:17Z</time>
      </trkpt>
      <trkpt lat="43.51105" lon="6.62191">
        <ele>90</ele>
        <time>2023-11-05T14:20:18Z</time>
      </trkpt>
      <trkpt lat="43.51106" lon="6.62192">
        <ele>90</ele>
        <time>2023-11-05T14:20:19Z</time>
      </trkpt>
      <trkpt lat="43.51107" lon="6.62193">
        <ele>89.9</ele>
        <time>2023-11-05T14:20:20Z</time>
      </trkpt>
      <trkpt lat="43.51108" lon="6.62193">
        <ele>89.9</ele>
        <time>2023-11-05T14:20:21Z</time>
      </trkpt>
      <trkpt lat="43.51109" lon="6.62194">
        <ele>89.9</ele>
        <time>2023-11-05T14:20:22Z</time>
      </trkpt>
      <trkpt lat="43.5111" lon="6.62195">
        <ele>89.9</ele>
        <time>2023-11-05T14:20:23Z</time>
      </trkpt>
      <trkpt lat="43.51111" lon="6.62196">
        <ele>90</ele>
        <time>2023-11-05T14:20:24Z</time>
      </trkpt>
      <trkpt lat="43.51112" lon="6.62197">
        <ele>90</ele>
        <time>2023-11-05T14:20:25Z</time>
      </trkpt>
      <trkpt lat="43.51113" lon="6.62198">
        <ele>90</ele>
        <time>2023-11-05T14:20:26Z</time>
      </trkpt>
      <trkpt lat="43.51114" lon="6.62198">
        <ele>90</ele>
        <time>2023-11-05T14:20:27Z</time>
      </trkpt>
      <trkpt lat="43.51115" lon="6.62199">
        <ele>90.1</ele>
        <time>2023-11-05T14:20:28Z</time>
      </trkpt>
      <trkpt lat="43.51116" lon="6.622">
        <ele>90</ele>
        <time>2023-11-05T14:20:29Z</time>
      </trkpt>
      <trkpt lat="43.51117" lon="6.62201">
        <ele>90</ele>
        <time>2023-11-05T14:20:30Z</time>
      </trkpt>
      <trkpt lat="43.51118" lon="6.62203">
        <ele>90.1</ele>
        <time>2023-11-05T14:20:31Z</time>
      </trkpt>
      <trkpt lat="43.51119" lon="6.62203">
        <ele>90.1</ele>
        <time>2023-11-05T14:20:32Z</time>
      </trkpt>
      <trkpt lat="43.5112" lon="6.62204">
        <ele>90.2</ele>
        <time>2023-11-05T14:20:33Z</time>
      </trkpt>
      <trkpt lat="43.51121" lon="6.62205">
        <ele>90.2</ele>
        <time>2023-11-05T14:20:34Z</time>
      </trkpt>
      <trkpt lat="43.51122" lon="6.62206">
        <ele>90.1</ele>
        <time>2023-11-05T14:20:35Z</time>
      </trkpt>
      <trkpt lat="43.51122" lon="6.62208">
        <ele>90.1</ele>
        <time>2023-11-05T14:20:36Z</time>
      </trkpt>
      <trkpt lat="43.51123" lon="6.62209">
        <ele>90.1</ele>
        <time>2023-11-05T14:20:37Z</time>
      </trkpt>
      <trkpt lat="43.51124" lon="6.6221">
        <ele>90.2</ele>
        <time>2023-11-05T14:20:38Z</time>
      </trkpt>
      <trkpt lat="43.51125" lon="6.62211">
        <ele>90.2</ele>
        <time>2023-11-05T14:20:39Z</time>
      </trkpt>
      <trkpt lat="43.51126" lon="6.62212">
        <ele>90.2</ele>
        <time>2023-11-05T14:20:40Z</time>
      </trkpt>
      <trkpt lat="43.51126" lon="6.62213">
        <ele>90.3</ele>
        <time>2023-11-05T14:20:41Z</time>
      </trkpt>
      <trkpt lat="43.51127" lon="6.62215">
        <ele>90.4</ele>
        <time>2023-11-05T14:20:42Z</time>
      </trkpt>
      <trkpt lat="43.51128" lon="6.62216">
        <ele>90.5</ele>
        <time>2023-11-05T14:20:43Z</time>
      </trkpt>
      <trkpt lat="43.51129" lon="6.62217">
        <ele>90.6</ele>
        <time>2023-11-05T14:20:44Z</time>
      </trkpt>
      <trkpt lat="43.51129" lon="6.62219">
        <ele>90.8</ele>
        <time>2023-11-05T14:20:45Z</time>
      </trkpt>
      <trkpt lat="43.5113" lon="6.6222">
        <ele>90.8</ele>
        <time>2023-11-05T14:20:46Z</time>
      </trkpt>
      <trkpt lat="43.51131" lon="6.62221">
        <ele>91</ele>
        <time>2023-11-05T14:20:47Z</time>
      </trkpt>
      <trkpt lat="43.51132" lon="6.62222">
        <ele>91.1</ele>
        <time>2023-11-05T14:20:48Z</time>
      </trkpt>
      <trkpt lat="43.51133" lon="6.62223">
        <ele>91.1</ele>
        <time>2023-11-05T14:20:49Z</time>
      </trkpt>
      <trkpt lat="43.51134" lon="6.62224">
        <ele>91.1</ele>
        <time>2023-11-05T14:20:50Z</time>
      </trkpt>
      <trkpt lat="43.51134" lon="6.62226">
        <ele>91</ele>
        <time>2023-11-05T14:20:51Z</time>
      </trkpt>
      <trkpt lat="43.51135" lon="6.62227">
        <ele>90.9</ele>
        <time>2023-11-05T14:20:52Z</time>
      </trkpt>
      <trkpt lat="43.51136" lon="6.62228">
        <ele>90.9</ele>
        <time>2023-11-05T14:20:53Z</time>
      </trkpt>
      <trkpt lat="43.51136" lon="6.62229">
        <ele>90.9</ele>
        <time>2023-11-05T14:20:54Z</time>
      </trkpt>
      <trkpt lat="43.51137" lon="6.6223">
        <ele>90.9</ele>
        <time>2023-11-05T14:20:55Z</time>
      </trkpt>
      <trkpt lat="43.51138" lon="6.62231">
        <ele>90.9</ele>
        <time>2023-11-05T14:20:56Z</time>
      </trkpt>
      <trkpt lat="43.51138" lon="6.62233">
        <ele>91</ele>
        <time>2023-11-05T14:20:57Z</time>
      </trkpt>
      <trkpt lat="43.51139" lon="6.62234">
        <ele>91</ele>
        <time>2023-11-05T14:20:58Z</time>
      </trkpt>
      <trkpt lat="43.5114" lon="6.62235">
        <ele>91.1</ele>
        <time>2023-11-05T14:20:59Z</time>
      </trkpt>
      <trkpt lat="43.5114" lon="6.62236">
        <ele>91.2</ele>
        <time>2023-11-05T14:21:00Z</time>
      </trkpt>
      <trkpt lat="43.51141" lon="6.62237">
        <ele>91.4</ele>
        <time>2023-11-05T14:21:01Z</time>
      </trkpt>
      <trkpt lat="43.51141" lon="6.62238">
        <ele>91.5</ele>
        <time>2023-11-05T14:21:02Z</time>
      </trkpt>
      <trkpt lat="43.51142" lon="6.62239">
        <ele>91.5</ele>
        <time>2023-11-05T14:21:03Z</time>
      </trkpt>
      <trkpt lat="43.51143" lon="6.6224">
        <ele>91.6</ele>
        <time>2023-11-05T14:21:04Z</time>
      </trkpt>
      <trkpt lat="43.51143" lon="6.62242">
        <ele>91.7</ele>
        <time>2023-11-05T14:21:05Z</time>
      </trkpt>
      <trkpt lat="43.51144" lon="6.62243">
        <ele>91.7</ele>
        <time>2023-11-05T14:21:06Z</time>
      </trkpt>
      <trkpt lat="43.51144" lon="6.62244">
        <ele>91.8</ele>
        <time>2023-11-05T14:21:07Z</time>
      </trkpt>
      <trkpt lat="43.51145" lon="6.62245">
        <ele>91.9</ele>
        <time>2023-11-05T14:21:08Z</time>
      </trkpt>
      <trkpt lat="43.51145" lon="6.62245">
        <ele>91.9</ele>
        <time>2023-11-05T14:21:09Z</time>
      </trkpt>
      <trkpt lat="43.51145" lon="6.62245">
        <ele>91.9</ele>
        <time>2023-11-05T14:21:10Z</time>
      </trkpt>
      <trkpt lat="43.51145" lon="6.62245">
        <ele>92</ele>
        <time>2023-11-05T14:21:11Z</time>
      </trkpt>
      <trkpt lat="43.51145" lon="6.62245">
        <ele>92</ele>
        <time>2023-11-05T14:21:12Z</time>
      </trkpt>
      <trkpt lat="43.51145" lon="6.62245">
        <ele>92.1</ele>
        <time>2023-11-05T14:21:13Z</time>
      </trkpt>
      <trkpt lat="43.51145" lon="6.62245">
        <ele>92.1</ele>
        <time>2023-11-05T14:21:14Z</time>
      </trkpt>
      <trkpt lat="43.51145" lon="6.62245">
        <ele>92.1</ele>
        <time>2023-11-05T14:21:15Z</time>
      </trkpt>
      <trkpt lat="43.51146" lon="6.62245">
        <ele>92.1</ele>
        <time>2023-11-05T14:21:16Z</time>
      </trkpt>
      <trkpt lat="43.51146" lon="6.62245">
        <ele>92.1</ele>
        <time>2023-11-05T14:21:17Z</time>
      </trkpt>
      <trkpt lat="43.51146" lon="6.62245">
        <ele>92.1</ele>
        <time>2023-11-05T14:21:18Z</time>
      </trkpt>
      <trkpt lat="43.51146" lon="6.62245">
        <ele>92.1</ele>
        <time>2023-11-05T14:21:19Z</time>
      </trkpt>
      <trkpt lat="43.51146" lon="6.62245">
        <ele>92.1</ele>
        <time>2023-11-05T14:21:20Z</time>
      </trkpt>
      <trkpt lat="43.51146" lon="6.62245">
        <ele>92.1</ele>
        <time>2023-11-05T14:21:21Z</time>
      </trkpt>
      <trkpt lat="43.51146" lon="6.62245">
        <ele>92.2</ele>
        <time>2023-11-05T14:21:22Z</time>
      </trkpt>
      <trkpt lat="43.51146" lon="6.62245">
        <ele>92.2</ele>
        <time>2023-11-05T14:21:23Z</time>
      </trkpt>
      <trkpt lat="43.51146" lon="6.62245">
        <ele>92.3</ele>
        <time>2023-11-05T14:21:24Z</time>
      </trkpt>
      <trkpt lat="43.51146" lon="6.62245">
        <ele>92.4</ele>
        <time>2023-11-05T14:21:25Z</time>
      </trkpt>
      <trkpt lat="43.51146" lon="6.62245">
        <ele>92.4</ele>
        <time>2023-11-05T14:21:26Z</time>
      </trkpt>
      <trkpt lat="43.51146" lon="6.62245">
        <ele>92.4</ele>
        <time>2023-11-05T14:21:27Z</time>
      </trkpt>
      <trkpt lat="43.51146" lon="6.62245">
        <ele>92.5</ele>
        <time>2023-11-05T14:21:28Z</time>
      </trkpt>
      <trkpt lat="43.51146" lon="6.62245">
        <ele>92.5</ele>
        <time>2023-11-05T14:21:29Z</time>
      </trkpt>
      <trkpt lat="43.51146" lon="6.62245">
        <ele>92.5</ele>
        <time>2023-11-05T14:21:30Z</time>
      </trkpt>
      <trkpt lat="43.51147" lon="6.62246">
        <ele>92.5</ele>
        <time>2023-11-05T14:21:31Z</time>
      </trkpt>
      <trkpt lat="43.51147" lon="6.62246">
        <ele>92.4</ele>
        <time>2023-11-05T14:21:32Z</time>
      </trkpt>
      <trkpt lat="43.51147" lon="6.62246">
        <ele>92.4</ele>
        <time>2023-11-05T14:21:33Z</time>
      </trkpt>
      <trkpt lat="43.51147" lon="6.62246">
        <ele>92.4</ele>
        <time>2023-11-05T14:21:34Z</time>
      </trkpt>
      <trkpt lat="43.51147" lon="6.62246">
        <ele>92.4</ele>
        <time>2023-11-05T14:21:35Z</time>
      </trkpt>
      <trkpt lat="43.51147" lon="6.62246">
        <ele>92.4</ele>
        <time>2023-11-05T14:21:36Z</time>
      </trkpt>
      <trkpt lat="43.51148" lon="6.62246">
        <ele>92.4</ele>
        <time>2023-11-05T14:21:37Z</time>
      </trkpt>
      <trkpt lat="43.51148" lon="6.62245">
        <ele>92.4</ele>
        <time>2023-11-05T14:21:38Z</time>
      </trkpt>
      <trkpt lat="43.51148" lon="6.62245">
        <ele>92.5</ele>
        <time>2023-11-05T14:21:39Z</time>
      </trkpt>
      <trkpt lat="43.51148" lon="6.62245">
        <ele>92.5</ele>
        <time>2023-11-05T14:21:40Z</time>
      </trkpt>
      <trkpt lat="43.51148" lon="6.62245">
        <ele>92.5</ele>
        <time>2023-11-05T14:21:41Z</time>
      </trkpt>
      <trkpt lat="43.51148" lon="6.62245">
        <ele>92.6</ele>
        <time>2023-11-05T14:21:42Z</time>
      </trkpt>
      <trkpt lat="43.51148" lon="6.62246">
        <ele>92.5</ele>
        <time>2023-11-05T14:21:43Z</time>
      </trkpt>
      <trkpt lat="43.51148" lon="6.62246">
        <ele>92.5</ele>
        <time>2023-11-05T14:21:44Z</time>
      </trkpt>
      <trkpt lat="43.51149" lon="6.62246">
        <ele>92.5</ele>
        <time>2023-11-05T14:21:45Z</time>
      </trkpt>
      <trkpt lat="43.51149" lon="6.62246">
        <ele>92.5</ele>
        <time>2023-11-05T14:21:46Z</time>
      </trkpt>
      <trkpt lat="43.5115" lon="6.62246">
        <ele>92.6</ele>
        <time>2023-11-05T14:21:47Z</time>
      </trkpt>
      <trkpt lat="43.51151" lon="6.62246">
        <ele>92.6</ele>
        <time>2023-11-05T14:21:48Z</time>
      </trkpt>
      <trkpt lat="43.51152" lon="6.62246">
        <ele>92.7</ele>
        <time>2023-11-05T14:21:49Z</time>
      </trkpt>
      <trkpt lat="43.51153" lon="6.62246">
        <ele>92.8</ele>
        <time>2023-11-05T14:21:50Z</time>
      </trkpt>
      <trkpt lat="43.51154" lon="6.62246">
        <ele>92.8</ele>
        <time>2023-11-05T14:21:51Z</time>
      </trkpt>
      <trkpt lat="43.51155" lon="6.62246">
        <ele>92.8</ele>
        <time>2023-11-05T14:21:52Z</time>
      </trkpt>
      <trkpt lat="43.51156" lon="6.62246">
        <ele>92.8</ele>
        <time>2023-11-05T14:21:53Z</time>
      </trkpt>
      <trkpt lat="43.51157" lon="6.62246">
        <ele>92.9</ele>
        <time>2023-11-05T14:21:54Z</time>
      </trkpt>
      <trkpt lat="43.51157" lon="6.62246">
        <ele>93</ele>
        <time>2023-11-05T14:21:55Z</time>
      </trkpt>
      <trkpt lat="43.51158" lon="6.62246">
        <ele>93.1</ele>
        <time>2023-11-05T14:21:56Z</time>
      </trkpt>
      <trkpt lat="43.51158" lon="6.62247">
        <ele>93.1</ele>
        <time>2023-11-05T14:21:57Z</time>
      </trkpt>
      <trkpt lat="43.51159" lon="6.62248">
        <ele>93.2</ele>
        <time>2023-11-05T14:21:58Z</time>
      </trkpt>
      <trkpt lat="43.5116" lon="6.62249">
        <ele>93.2</ele>
        <time>2023-11-05T14:21:59Z</time>
      </trkpt>
      <trkpt lat="43.51161" lon="6.6225">
        <ele>93.2</ele>
        <time>2023-11-05T14:22:00Z</time>
      </trkpt>
      <trkpt lat="43.51162" lon="6.62251">
        <ele>93.4</ele>
        <time>2023-11-05T14:22:01Z</time>
      </trkpt>
      <trkpt lat="43.51162" lon="6.62252">
        <ele>93.5</ele>
        <time>2023-11-05T14:22:02Z</time>
      </trkpt>
      <trkpt lat="43.51163" lon="6.62253">
        <ele>93.5</ele>
        <time>2023-11-05T14:22:03Z</time>
      </trkpt>
      <trkpt lat="43.51164" lon="6.62254">
        <ele>93.6</ele>
        <time>2023-11-05T14:22:04Z</time>
      </trkpt>
      <trkpt lat="43.51165" lon="6.62255">
        <ele>93.7</ele>
        <time>2023-11-05T14:22:05Z</time>
      </trkpt>
      <trkpt lat="43.51165" lon="6.62255">
        <ele>93.8</ele>
        <time>2023-11-05T14:22:06Z</time>
      </trkpt>
      <trkpt lat="43.51166" lon="6.62256">
        <ele>93.9</ele>
        <time>2023-11-05T14:22:07Z</time>
      </trkpt>
      <trkpt lat="43.51167" lon="6.62257">
        <ele>93.9</ele>
        <time>2023-11-05T14:22:08Z</time>
      </trkpt>
      <trkpt lat="43.51168" lon="6.62258">
        <ele>94</ele>
        <time>2023-11-05T14:22:09Z</time>
      </trkpt>
      <trkpt lat="43.51169" lon="6.62259">
        <ele>94.1</ele>
        <time>2023-11-05T14:22:10Z</time>
      </trkpt>
      <trkpt lat="43.5117" lon="6.62259">
        <ele>94.1</ele>
        <time>2023-11-05T14:22:11Z</time>
      </trkpt>
      <trkpt lat="43.51171" lon="6.6226">
        <ele>94.1</ele>
        <time>2023-11-05T14:22:12Z</time>
      </trkpt>
      <trkpt lat="43.51172" lon="6.62261">
        <ele>94.2</ele>
        <time>2023-11-05T14:22:13Z</time>
      </trkpt>
      <trkpt lat="43.51172" lon="6.62262">
        <ele>94.2</ele>
        <time>2023-11-05T14:22:14Z</time>
      </trkpt>
      <trkpt lat="43.51173" lon="6.62262">
        <ele>94.2</ele>
        <time>2023-11-05T14:22:15Z</time>
      </trkpt>
      <trkpt lat="43.51174" lon="6.62263">
        <ele>94.2</ele>
        <time>2023-11-05T14:22:16Z</time>
      </trkpt>
      <trkpt lat="43.51175" lon="6.62264">
        <ele>94.2</ele>
        <time>2023-11-05T14:22:17Z</time>
      </trkpt>
      <trkpt lat="43.51175" lon="6.62265">
        <ele>94.3</ele>
        <time>2023-11-05T14:22:18Z</time>
      </trkpt>
      <trkpt lat="43.51176" lon="6.62266">
        <ele>94.3</ele>
        <time>2023-11-05T14:22:19Z</time>
      </trkpt>
      <trkpt lat="43.51177" lon="6.62267">
        <ele>94.3</ele>
        <time>2023-11-05T14:22:20Z</time>
      </trkpt>
      <trkpt lat="43.51178" lon="6.62268">
        <ele>94.4</ele>
        <time>2023-11-05T14:22:21Z</time>
      </trkpt>
      <trkpt lat="43.51179" lon="6.62269">
        <ele>94.4</ele>
        <time>2023-11-05T14:22:22Z</time>
      </trkpt>
      <trkpt lat="43.5118" lon="6.6227">
        <ele>94.5</ele>
        <time>2023-11-05T14:22:23Z</time>
      </trkpt>
      <trkpt lat="43.51181" lon="6.62271">
        <ele>94.6</ele>
        <time>2023-11-05T14:22:24Z</time>
      </trkpt>
      <trkpt lat="43.51182" lon="6.62272">
        <ele>94.6</ele>
        <time>2023-11-05T14:22:25Z</time>
      </trkpt>
      <trkpt lat="43.51183" lon="6.62272">
        <ele>94.7</ele>
        <time>2023-11-05T14:22:26Z</time>
      </trkpt>
      <trkpt lat="43.51184" lon="6.62273">
        <ele>94.8</ele>
        <time>2023-11-05T14:22:27Z</time>
      </trkpt>
      <trkpt lat="43.51185" lon="6.62274">
        <ele>94.9</ele>
        <time>2023-11-05T14:22:28Z</time>
      </trkpt>
      <trkpt lat="43.51186" lon="6.62274">
        <ele>95</ele>
        <time>2023-11-05T14:22:29Z</time>
      </trkpt>
      <trkpt lat="43.51187" lon="6.62275">
        <ele>95.1</ele>
        <time>2023-11-05T14:22:30Z</time>
      </trkpt>
      <trkpt lat="43.51188" lon="6.62276">
        <ele>95.2</ele>
        <time>2023-11-05T14:22:31Z</time>
      </trkpt>
      <trkpt lat="43.51189" lon="6.62276">
        <ele>95.3</ele>
        <time>2023-11-05T14:22:32Z</time>
      </trkpt>
      <trkpt lat="43.5119" lon="6.62277">
        <ele>95.4</ele>
        <time>2023-11-05T14:22:33Z</time>
      </trkpt>
      <trkpt lat="43.51191" lon="6.62277">
        <ele>95.5</ele>
        <time>2023-11-05T14:22:34Z</time>
      </trkpt>
      <trkpt lat="43.51192" lon="6.62277">
        <ele>95.5</ele>
        <time>2023-11-05T14:22:35Z</time>
      </trkpt>
      <trkpt lat="43.51193" lon="6.62277">
        <ele>95.5</ele>
        <time>2023-11-05T14:22:36Z</time>
      </trkpt>
      <trkpt lat="43.51194" lon="6.62278">
        <ele>95.5</ele>
        <time>2023-11-05T14:22:37Z</time>
      </trkpt>
      <trkpt lat="43.51195" lon="6.62278">
        <ele>95.6</ele>
        <time>2023-11-05T14:22:38Z</time>
      </trkpt>
      <trkpt lat="43.51196" lon="6.62279">
        <ele>95.6</ele>
        <time>2023-11-05T14:22:39Z</time>
      </trkpt>
      <trkpt lat="43.51197" lon="6.62279">
        <ele>95.5</ele>
        <time>2023-11-05T14:22:40Z</time>
      </trkpt>
      <trkpt lat="43.51198" lon="6.62279">
        <ele>95.6</ele>
        <time>2023-11-05T14:22:41Z</time>
      </trkpt>
      <trkpt lat="43.51199" lon="6.62279">
        <ele>95.6</ele>
        <time>2023-11-05T14:22:42Z</time>
      </trkpt>
      <trkpt lat="43.512" lon="6.62279">
        <ele>95.7</ele>
        <time>2023-11-05T14:22:43Z</time>
      </trkpt>
      <trkpt lat="43.51202" lon="6.62279">
        <ele>95.7</ele>
        <time>2023-11-05T14:22:44Z</time>
      </trkpt>
      <trkpt lat="43.51202" lon="6.62279">
        <ele>95.7</ele>
        <time>2023-11-05T14:22:45Z</time>
      </trkpt>
      <trkpt lat="43.51204" lon="6.62279">
        <ele>95.7</ele>
        <time>2023-11-05T14:22:46Z</time>
      </trkpt>
      <trkpt lat="43.51205" lon="6.62279">
        <ele>95.7</ele>
        <time>2023-11-05T14:22:47Z</time>
      </trkpt>
      <trkpt lat="43.51206" lon="6.62279">
        <ele>95.8</ele>
        <time>2023-11-05T14:22:48Z</time>
      </trkpt>
      <trkpt lat="43.51207" lon="6.62279">
        <ele>95.8</ele>
        <time>2023-11-05T14:22:49Z</time>
      </trkpt>
      <trkpt lat="43.51209" lon="6.62279">
        <ele>95.9</ele>
        <time>2023-11-05T14:22:50Z</time>
      </trkpt>
      <trkpt lat="43.5121" lon="6.6228">
        <ele>96</ele>
        <time>2023-11-05T14:22:51Z</time>
      </trkpt>
      <trkpt lat="43.51211" lon="6.6228">
        <ele>96.1</ele>
        <time>2023-11-05T14:22:52Z</time>
      </trkpt>
      <trkpt lat="43.51212" lon="6.6228">
        <ele>96</ele>
        <time>2023-11-05T14:22:53Z</time>
      </trkpt>
      <trkpt lat="43.51213" lon="6.6228">
        <ele>96.1</ele>
        <time>2023-11-05T14:22:54Z</time>
      </trkpt>
      <trkpt lat="43.51214" lon="6.6228">
        <ele>96.1</ele>
        <time>2023-11-05T14:22:55Z</time>
      </trkpt>
      <trkpt lat="43.51215" lon="6.6228">
        <ele>96.2</ele>
        <time>2023-11-05T14:22:56Z</time>
      </trkpt>
      <trkpt lat="43.51216" lon="6.62281">
        <ele>96.3</ele>
        <time>2023-11-05T14:22:57Z</time>
      </trkpt>
      <trkpt lat="43.51217" lon="6.62281">
        <ele>96.5</ele>
        <time>2023-11-05T14:22:58Z</time>
      </trkpt>
      <trkpt lat="43.51218" lon="6.62281">
        <ele>96.5</ele>
        <time>2023-11-05T14:22:59Z</time>
      </trkpt>
      <trkpt lat="43.51219" lon="6.62281">
        <ele>96.5</ele>
        <time>2023-11-05T14:23:00Z</time>
      </trkpt>
      <trkpt lat="43.5122" lon="6.62281">
        <ele>96.5</ele>
        <time>2023-11-05T14:23:01Z</time>
      </trkpt>
      <trkpt lat="43.5122" lon="6.62281">
        <ele>96.5</ele>
        <time>2023-11-05T14:23:02Z</time>
      </trkpt>
      <trkpt lat="43.51221" lon="6.62281">
        <ele>96.5</ele>
        <time>2023-11-05T14:23:03Z</time>
      </trkpt>
      <trkpt lat="43.51222" lon="6.62281">
        <ele>96.4</ele>
        <time>2023-11-05T14:23:04Z</time>
      </trkpt>
      <trkpt lat="43.51223" lon="6.62282">
        <ele>96.2</ele>
        <time>2023-11-05T14:23:05Z</time>
      </trkpt>
      <trkpt lat="43.51224" lon="6.62282">
        <ele>96</ele>
        <time>2023-11-05T14:23:06Z</time>
      </trkpt>
      <trkpt lat="43.51225" lon="6.62282">
        <ele>95.9</ele>
        <time>2023-11-05T14:23:07Z</time>
      </trkpt>
      <trkpt lat="43.51226" lon="6.62282">
        <ele>95.8</ele>
        <time>2023-11-05T14:23:08Z</time>
      </trkpt>
      <trkpt lat="43.51227" lon="6.62283">
        <ele>95.7</ele>
        <time>2023-11-05T14:23:09Z</time>
      </trkpt>
      <trkpt lat="43.51228" lon="6.62283">
        <ele>95.6</ele>
        <time>2023-11-05T14:23:10Z</time>
      </trkpt>
      <trkpt lat="43.51229" lon="6.62283">
        <ele>95.6</ele>
        <time>2023-11-05T14:23:11Z</time>
      </trkpt>
      <trkpt lat="43.5123" lon="6.62284">
        <ele>95.5</ele>
        <time>2023-11-05T14:23:12Z</time>
      </trkpt>
      <trkpt lat="43.51231" lon="6.62285">
        <ele>95.4</ele>
        <time>2023-11-05T14:23:13Z</time>
      </trkpt>
      <trkpt lat="43.51232" lon="6.62285">
        <ele>95.4</ele>
        <time>2023-11-05T14:23:14Z</time>
      </trkpt>
      <trkpt lat="43.51233" lon="6.62285">
        <ele>95.2</ele>
        <time>2023-11-05T14:23:15Z</time>
      </trkpt>
      <trkpt lat="43.51235" lon="6.62286">
        <ele>95</ele>
        <time>2023-11-05T14:23:16Z</time>
      </trkpt>
      <trkpt lat="43.51236" lon="6.62286">
        <ele>94.9</ele>
        <time>2023-11-05T14:23:17Z</time>
      </trkpt>
      <trkpt lat="43.51237" lon="6.62286">
        <ele>94.8</ele>
        <time>2023-11-05T14:23:18Z</time>
      </trkpt>
      <trkpt lat="43.51238" lon="6.62287">
        <ele>94.8</ele>
        <time>2023-11-05T14:23:19Z</time>
      </trkpt>
      <trkpt lat="43.51239" lon="6.62286">
        <ele>94.7</ele>
        <time>2023-11-05T14:23:20Z</time>
      </trkpt>
      <trkpt lat="43.5124" lon="6.62286">
        <ele>94.6</ele>
        <time>2023-11-05T14:23:21Z</time>
      </trkpt>
      <trkpt lat="43.51241" lon="6.62286">
        <ele>94.6</ele>
        <time>2023-11-05T14:23:22Z</time>
      </trkpt>
      <trkpt lat="43.51242" lon="6.62286">
        <ele>94.5</ele>
        <time>2023-11-05T14:23:23Z</time>
      </trkpt>
      <trkpt lat="43.51243" lon="6.62287">
        <ele>94.5</ele>
        <time>2023-11-05T14:23:24Z</time>
      </trkpt>
      <trkpt lat="43.51245" lon="6.62287">
        <ele>94.5</ele>
        <time>2023-11-05T14:23:25Z</time>
      </trkpt>
      <trkpt lat="43.51246" lon="6.62286">
        <ele>94.4</ele>
        <time>2023-11-05T14:23:26Z</time>
      </trkpt>
      <trkpt lat="43.51247" lon="6.62286">
        <ele>94.4</ele>
        <time>2023-11-05T14:23:27Z</time>
      </trkpt>
      <trkpt lat="43.51248" lon="6.62286">
        <ele>94.4</ele>
        <time>2023-11-05T14:23:28Z</time>
      </trkpt>
      <trkpt lat="43.51249" lon="6.62286">
        <ele>94.4</ele>
        <time>2023-11-05T14:23:29Z</time>
      </trkpt>
      <trkpt lat="43.51251" lon="6.62286">
        <ele>94.3</ele>
        <time>2023-11-05T14:23:30Z</time>
      </trkpt>
      <trkpt lat="43.51252" lon="6.62285">
        <ele>94.3</ele>
        <time>2023-11-05T14:23:31Z</time>
      </trkpt>
      <trkpt lat="43.51253" lon="6.62285">
        <ele>94.2</ele>
        <time>2023-11-05T14:23:32Z</time>
      </trkpt>
      <trkpt lat="43.51254" lon="6.62285">
        <ele>94.2</ele>
        <time>2023-11-05T14:23:33Z</time>
      </trkpt>
      <trkpt lat="43.51255" lon="6.62285">
        <ele>94.2</ele>
        <time>2023-11-05T14:23:34Z</time>
      </trkpt>
      <trkpt lat="43.51256" lon="6.62285">
        <ele>94.3</ele>
        <time>2023-11-05T14:23:35Z</time>
      </trkpt>
      <trkpt lat="43.51257" lon="6.62284">
        <ele>94.3</ele>
        <time>2023-11-05T14:23:36Z</time>
      </trkpt>
      <trkpt lat="43.51258" lon="6.62283">
        <ele>94.3</ele>
        <time>2023-11-05T14:23:37Z</time>
      </trkpt>
      <trkpt lat="43.51259" lon="6.62283">
        <ele>94.2</ele>
        <time>2023-11-05T14:23:38Z</time>
      </trkpt>
      <trkpt lat="43.5126" lon="6.62282">
        <ele>94.1</ele>
        <time>2023-11-05T14:23:39Z</time>
      </trkpt>
      <trkpt lat="43.51261" lon="6.62281">
        <ele>94</ele>
        <time>2023-11-05T14:23:40Z</time>
      </trkpt>
      <trkpt lat="43.51262" lon="6.6228">
        <ele>94</ele>
        <time>2023-11-05T14:23:41Z</time>
      </trkpt>
      <trkpt lat="43.51263" lon="6.62279">
        <ele>93.9</ele>
        <time>2023-11-05T14:23:42Z</time>
      </trkpt>
      <trkpt lat="43.51263" lon="6.62278">
        <ele>93.7</ele>
        <time>2023-11-05T14:23:43Z</time>
      </trkpt>
      <trkpt lat="43.51265" lon="6.62277">
        <ele>93.8</ele>
        <time>2023-11-05T14:23:44Z</time>
      </trkpt>
      <trkpt lat="43.51266" lon="6.62277">
        <ele>93.9</ele>
        <time>2023-11-05T14:23:45Z</time>
      </trkpt>
      <trkpt lat="43.51267" lon="6.62277">
        <ele>93.9</ele>
        <time>2023-11-05T14:23:46Z</time>
      </trkpt>
      <trkpt lat="43.51267" lon="6.62276">
        <ele>93.8</ele>
        <time>2023-11-05T14:23:47Z</time>
      </trkpt>
      <trkpt lat="43.51267" lon="6.62275">
        <ele>93.8</ele>
        <time>2023-11-05T14:23:48Z</time>
      </trkpt>
      <trkpt lat="43.51267" lon="6.62275">
        <ele>93.8</ele>
        <time>2023-11-05T14:23:49Z</time>
      </trkpt>
      <trkpt lat="43.51268" lon="6.62275">
        <ele>93.7</ele>
        <time>2023-11-05T14:23:50Z</time>
      </trkpt>
      <trkpt lat="43.51268" lon="6.62275">
        <ele>93.6</ele>
        <time>2023-11-05T14:23:51Z</time>
      </trkpt>
      <trkpt lat="43.51269" lon="6.62275">
        <ele>93.6</ele>
        <time>2023-11-05T14:23:52Z</time>
      </trkpt>
      <trkpt lat="43.5127" lon="6.62274">
        <ele>93.6</ele>
        <time>2023-11-05T14:23:53Z</time>
      </trkpt>
      <trkpt lat="43.51271" lon="6.62275">
        <ele>93.7</ele>
        <time>2023-11-05T14:23:54Z</time>
      </trkpt>
      <trkpt lat="43.51272" lon="6.62275">
        <ele>93.7</ele>
        <time>2023-11-05T14:23:55Z</time>
      </trkpt>
      <trkpt lat="43.51274" lon="6.62275">
        <ele>93.8</ele>
        <time>2023-11-05T14:23:56Z</time>
      </trkpt>
      <trkpt lat="43.51275" lon="6.62275">
        <ele>93.9</ele>
        <time>2023-11-05T14:23:57Z</time>
      </trkpt>
      <trkpt lat="43.51276" lon="6.62275">
        <ele>94</ele>
        <time>2023-11-05T14:23:58Z</time>
      </trkpt>
      <trkpt lat="43.51277" lon="6.62275">
        <ele>94.1</ele>
        <time>2023-11-05T14:23:59Z</time>
      </trkpt>
      <trkpt lat="43.51278" lon="6.62275">
        <ele>94</ele>
        <time>2023-11-05T14:24:00Z</time>
      </trkpt>
      <trkpt lat="43.51279" lon="6.62274">
        <ele>94.1</ele>
        <time>2023-11-05T14:24:01Z</time>
      </trkpt>
      <trkpt lat="43.5128" lon="6.62274">
        <ele>94.1</ele>
        <time>2023-11-05T14:24:02Z</time>
      </trkpt>
      <trkpt lat="43.51281" lon="6.62274">
        <ele>94.1</ele>
        <time>2023-11-05T14:24:03Z</time>
      </trkpt>
      <trkpt lat="43.51283" lon="6.62274">
        <ele>94</ele>
        <time>2023-11-05T14:24:04Z</time>
      </trkpt>
      <trkpt lat="43.51284" lon="6.62274">
        <ele>94</ele>
        <time>2023-11-05T14:24:05Z</time>
      </trkpt>
      <trkpt lat="43.51285" lon="6.62273">
        <ele>93.9</ele>
        <time>2023-11-05T14:24:06Z</time>
      </trkpt>
      <trkpt lat="43.51286" lon="6.62273">
        <ele>93.9</ele>
        <time>2023-11-05T14:24:07Z</time>
      </trkpt>
      <trkpt lat="43.51287" lon="6.62273">
        <ele>93.9</ele>
        <time>2023-11-05T14:24:08Z</time>
      </trkpt>
      <trkpt lat="43.51288" lon="6.62273">
        <ele>93.9</ele>
        <time>2023-11-05T14:24:09Z</time>
      </trkpt>
      <trkpt lat="43.51289" lon="6.62272">
        <ele>93.9</ele>
        <time>2023-11-05T14:24:10Z</time>
      </trkpt>
      <trkpt lat="43.5129" lon="6.62272">
        <ele>93.8</ele>
        <time>2023-11-05T14:24:11Z</time>
      </trkpt>
      <trkpt lat="43.51291" lon="6.62272">
        <ele>93.9</ele>
        <time>2023-11-05T14:24:12Z</time>
      </trkpt>
      <trkpt lat="43.51292" lon="6.62272">
        <ele>93.9</ele>
        <time>2023-11-05T14:24:13Z</time>
      </trkpt>
      <trkpt lat="43.51293" lon="6.62271">
        <ele>94</ele>
        <time>2023-11-05T14:24:14Z</time>
      </trkpt>
      <trkpt lat="43.51294" lon="6.6227">
        <ele>94.1</ele>
        <time>2023-11-05T14:24:15Z</time>
      </trkpt>
      <trkpt lat="43.51295" lon="6.6227">
        <ele>94.1</ele>
        <time>2023-11-05T14:24:16Z</time>
      </trkpt>
      <trkpt lat="43.51296" lon="6.6227">
        <ele>94.2</ele>
        <time>2023-11-05T14:24:17Z</time>
      </trkpt>
      <trkpt lat="43.51297" lon="6.6227">
        <ele>94.2</ele>
        <time>2023-11-05T14:24:18Z</time>
      </trkpt>
      <trkpt lat="43.51298" lon="6.62269">
        <ele>94.3</ele>
        <time>2023-11-05T14:24:19Z</time>
      </trkpt>
      <trkpt lat="43.51299" lon="6.62269">
        <ele>94.3</ele>
        <time>2023-11-05T14:24:20Z</time>
      </trkpt>
      <trkpt lat="43.513" lon="6.62268">
        <ele>94.4</ele>
        <time>2023-11-05T14:24:21Z</time>
      </trkpt>
      <trkpt lat="43.51301" lon="6.62268">
        <ele>94.5</ele>
        <time>2023-11-05T14:24:22Z</time>
      </trkpt>
      <trkpt lat="43.51302" lon="6.62267">
        <ele>94.6</ele>
        <time>2023-11-05T14:24:23Z</time>
      </trkpt>
      <trkpt lat="43.51303" lon="6.62267">
        <ele>94.7</ele>
        <time>2023-11-05T14:24:24Z</time>
      </trkpt>
      <trkpt lat="43.51304" lon="6.62267">
        <ele>94.8</ele>
        <time>2023-11-05T14:24:25Z</time>
      </trkpt>
      <trkpt lat="43.51305" lon="6.62266">
        <ele>94.8</ele>
        <time>2023-11-05T14:24:26Z</time>
      </trkpt>
      <trkpt lat="43.51306" lon="6.62266">
        <ele>94.8</ele>
        <time>2023-11-05T14:24:27Z</time>
      </trkpt>
      <trkpt lat="43.51307" lon="6.62265">
        <ele>94.9</ele>
        <time>2023-11-05T14:24:28Z</time>
      </trkpt>
      <trkpt lat="43.51308" lon="6.62265">
        <ele>94.9</ele>
        <time>2023-11-05T14:24:29Z</time>
      </trkpt>
      <trkpt lat="43.51309" lon="6.62264">
        <ele>94.9</ele>
        <time>2023-11-05T14:24:30Z</time>
      </trkpt>
      <trkpt lat="43.5131" lon="6.62264">
        <ele>94.9</ele>
        <time>2023-11-05T14:24:31Z</time>
      </trkpt>
      <trkpt lat="43.51311" lon="6.62264">
        <ele>94.9</ele>
        <time>2023-11-05T14:24:32Z</time>
      </trkpt>
      <trkpt lat="43.51311" lon="6.62263">
        <ele>94.9</ele>
        <time>2023-11-05T14:24:33Z</time>
      </trkpt>
      <trkpt lat="43.51313" lon="6.62263">
        <ele>94.9</ele>
        <time>2023-11-05T14:24:34Z</time>
      </trkpt>
      <trkpt lat="43.51314" lon="6.62263">
        <ele>94.9</ele>
        <time>2023-11-05T14:24:35Z</time>
      </trkpt>
      <trkpt lat="43.51315" lon="6.62262">
        <ele>94.9</ele>
        <time>2023-11-05T14:24:36Z</time>
      </trkpt>
      <trkpt lat="43.51316" lon="6.62262">
        <ele>95</ele>
        <time>2023-11-05T14:24:37Z</time>
      </trkpt>
      <trkpt lat="43.51316" lon="6.62261">
        <ele>95</ele>
        <time>2023-11-05T14:24:38Z</time>
      </trkpt>
      <trkpt lat="43.51317" lon="6.6226">
        <ele>95</ele>
        <time>2023-11-05T14:24:39Z</time>
      </trkpt>
      <trkpt lat="43.51318" lon="6.6226">
        <ele>95.2</ele>
        <time>2023-11-05T14:24:40Z</time>
      </trkpt>
      <trkpt lat="43.51319" lon="6.62259">
        <ele>95.2</ele>
        <time>2023-11-05T14:24:41Z</time>
      </trkpt>
      <trkpt lat="43.5132" lon="6.62257">
        <ele>95.3</ele>
        <time>2023-11-05T14:24:42Z</time>
      </trkpt>
      <trkpt lat="43.5132" lon="6.62257">
        <ele>95.3</ele>
        <time>2023-11-05T14:24:43Z</time>
      </trkpt>
      <trkpt lat="43.51321" lon="6.62255">
        <ele>95.4</ele>
        <time>2023-11-05T14:24:44Z</time>
      </trkpt>
      <trkpt lat="43.51322" lon="6.62254">
        <ele>95.5</ele>
        <time>2023-11-05T14:24:45Z</time>
      </trkpt>
      <trkpt lat="43.51322" lon="6.62254">
        <ele>95.5</ele>
        <time>2023-11-05T14:24:46Z</time>
      </trkpt>
      <trkpt lat="43.51323" lon="6.62252">
        <ele>95.5</ele>
        <time>2023-11-05T14:24:47Z</time>
      </trkpt>
      <trkpt lat="43.51323" lon="6.62251">
        <ele>95.6</ele>
        <time>2023-11-05T14:24:48Z</time>
      </trkpt>
      <trkpt lat="43.51324" lon="6.6225">
        <ele>95.7</ele>
        <time>2023-11-05T14:24:49Z</time>
      </trkpt>
      <trkpt lat="43.51324" lon="6.62249">
        <ele>95.7</ele>
        <time>2023-11-05T14:24:50Z</time>
      </trkpt>
      <trkpt lat="43.51324" lon="6.62248">
        <ele>95.8</ele>
        <time>2023-11-05T14:24:51Z</time>
      </trkpt>
      <trkpt lat="43.51325" lon="6.62247">
        <ele>95.8</ele>
        <time>2023-11-05T14:24:52Z</time>
      </trkpt>
      <trkpt lat="43.51325" lon="6.62245">
        <ele>95.8</ele>
        <time>2023-11-05T14:24:53Z</time>
      </trkpt>
      <trkpt lat="43.51326" lon="6.62245">
        <ele>95</ele>
        <time>2023-11-05T14:24:54Z</time>
      </trkpt>
      <trkpt lat="43.51326" lon="6.62244">
        <ele>95.3</ele>
        <time>2023-11-05T14:24:55Z</time>
      </trkpt>
      <trkpt lat="43.51328" lon="6.62243">
        <ele>95.2</ele>
        <time>2023-11-05T14:24:56Z</time>
      </trkpt>
      <trkpt lat="43.51328" lon="6.62241">
        <ele>95.2</ele>
        <time>2023-11-05T14:24:57Z</time>
      </trkpt>
      <trkpt lat="43.51329" lon="6.6224">
        <ele>95.2</ele>
        <time>2023-11-05T14:24:58Z</time>
      </trkpt>
      <trkpt lat="43.51329" lon="6.62239">
        <ele>95.2</ele>
        <time>2023-11-05T14:24:59Z</time>
      </trkpt>
      <trkpt lat="43.51329" lon="6.62238">
        <ele>95.1</ele>
        <time>2023-11-05T14:25:00Z</time>
      </trkpt>
      <trkpt lat="43.5133" lon="6.62237">
        <ele>95.1</ele>
        <time>2023-11-05T14:25:01Z</time>
      </trkpt>
      <trkpt lat="43.5133" lon="6.62237">
        <ele>95.3</ele>
        <time>2023-11-05T14:25:02Z</time>
      </trkpt>
      <trkpt lat="43.5133" lon="6.62237">
        <ele>95.3</ele>
        <time>2023-11-05T14:25:03Z</time>
      </trkpt>
      <trkpt lat="43.5133" lon="6.62237">
        <ele>95.4</ele>
        <time>2023-11-05T14:25:04Z</time>
      </trkpt>
      <trkpt lat="43.5133" lon="6.62237">
        <ele>95.4</ele>
        <time>2023-11-05T14:25:05Z</time>
      </trkpt>
      <trkpt lat="43.5133" lon="6.62237">
        <ele>95.4</ele>
        <time>2023-11-05T14:25:06Z</time>
      </trkpt>
      <trkpt lat="43.5133" lon="6.62236">
        <ele>95.5</ele>
        <time>2023-11-05T14:25:07Z</time>
      </trkpt>
      <trkpt lat="43.5133" lon="6.62236">
        <ele>95.5</ele>
        <time>2023-11-05T14:25:07Z</time>
      </trkpt>
      <trkpt lat="43.5133" lon="6.62236">
        <ele>95.5</ele>
        <time>2023-11-05T14:25:08Z</time>
      </trkpt>
      <trkpt lat="43.5133" lon="6.62236">
        <ele>95.4</ele>
        <time>2023-11-05T14:25:08Z</time>
      </trkpt>
    </trkseg>
  </trk>
</gpx>